<?xml version="1.0" encoding="UTF-8" standalone="no" ?>
<gpx xmlns="http://www.topografix.com/GPX/1/1" xmlns:xsi="http://www.w3.org/2001/XMLSchema-instance" xsi:schemaLocation="http://www.topografix.com/GPX/1/1 http://www.topografix.com/GPX/1/1/gpx.xsd" version="1.1" creator="VisuGPX - https://www.visugpx.com">
  <metadata>
    <name>Wikiloc - Navarra - Eurovelo 1 - Ederbidea</name>
  </metadata>
  <trk>
    <name><![CDATA[Navarra - Eurovelo 1 - Ederbidea]]></name>
    <extensions>
      <line xmlns="http://www.topografix.com/GPX/gpx_style/0/2">
        <color>0000FF</color>
        <width>4</width>
      </line>
    </extensions>
    <trkseg>
      <trkpt lat="43.29733" lon="-1.73141">
        <ele>14.818</ele>
        <time>2020-05-14T12:00:19Z</time>
      </trkpt>
      <trkpt lat="43.29723" lon="-1.73135">
        <ele>14.698</ele>
        <time>2020-05-14T12:00:39Z</time>
      </trkpt>
      <trkpt lat="43.29712" lon="-1.73129">
        <ele>14.517</ele>
        <time>2020-05-14T12:00:59Z</time>
      </trkpt>
      <trkpt lat="43.29693" lon="-1.73117">
        <ele>14.408</ele>
        <time>2020-05-14T12:01:19Z</time>
      </trkpt>
      <trkpt lat="43.29676" lon="-1.73108">
        <ele>14.575</ele>
        <time>2020-05-14T12:01:39Z</time>
      </trkpt>
      <trkpt lat="43.29668" lon="-1.73103">
        <ele>14.53</ele>
        <time>2020-05-14T12:01:59Z</time>
      </trkpt>
      <trkpt lat="43.2966" lon="-1.73097">
        <ele>14.544</ele>
        <time>2020-05-14T12:02:19Z</time>
      </trkpt>
      <trkpt lat="43.29649" lon="-1.73091">
        <ele>14.682</ele>
        <time>2020-05-14T12:02:39Z</time>
      </trkpt>
      <trkpt lat="43.29641" lon="-1.73088">
        <ele>14.587</ele>
        <time>2020-05-14T12:02:59Z</time>
      </trkpt>
      <trkpt lat="43.29633" lon="-1.73084">
        <ele>14.687</ele>
        <time>2020-05-14T12:03:19Z</time>
      </trkpt>
      <trkpt lat="43.29628" lon="-1.73082">
        <ele>14.834</ele>
        <time>2020-05-14T12:03:39Z</time>
      </trkpt>
      <trkpt lat="43.29623" lon="-1.7308">
        <ele>14.836</ele>
        <time>2020-05-14T12:03:59Z</time>
      </trkpt>
      <trkpt lat="43.29618" lon="-1.73079">
        <ele>14.792</ele>
        <time>2020-05-14T12:04:19Z</time>
      </trkpt>
      <trkpt lat="43.29614" lon="-1.73078">
        <ele>15.273</ele>
        <time>2020-05-14T12:04:39Z</time>
      </trkpt>
      <trkpt lat="43.29586" lon="-1.73071">
        <ele>14.02</ele>
        <time>2020-05-14T12:04:59Z</time>
      </trkpt>
      <trkpt lat="43.29581" lon="-1.73069">
        <ele>13.908</ele>
        <time>2020-05-14T12:05:19Z</time>
      </trkpt>
      <trkpt lat="43.29578" lon="-1.73068">
        <ele>13.933</ele>
        <time>2020-05-14T12:05:39Z</time>
      </trkpt>
      <trkpt lat="43.2957" lon="-1.73062">
        <ele>14.478</ele>
        <time>2020-05-14T12:05:59Z</time>
      </trkpt>
      <trkpt lat="43.29566" lon="-1.73058">
        <ele>13.962</ele>
        <time>2020-05-14T12:06:19Z</time>
      </trkpt>
      <trkpt lat="43.29562" lon="-1.73055">
        <ele>13.98</ele>
        <time>2020-05-14T12:06:39Z</time>
      </trkpt>
      <trkpt lat="43.29559" lon="-1.73052">
        <ele>13.955</ele>
        <time>2020-05-14T12:06:59Z</time>
      </trkpt>
      <trkpt lat="43.29551" lon="-1.73044">
        <ele>14.015</ele>
        <time>2020-05-14T12:07:19Z</time>
      </trkpt>
      <trkpt lat="43.29544" lon="-1.73036">
        <ele>14.042</ele>
        <time>2020-05-14T12:07:39Z</time>
      </trkpt>
      <trkpt lat="43.29527" lon="-1.73013">
        <ele>14.144</ele>
        <time>2020-05-14T12:07:59Z</time>
      </trkpt>
      <trkpt lat="43.29516" lon="-1.72998">
        <ele>14.049</ele>
        <time>2020-05-14T12:08:19Z</time>
      </trkpt>
      <trkpt lat="43.29509" lon="-1.72989">
        <ele>13.902</ele>
        <time>2020-05-14T12:08:39Z</time>
      </trkpt>
      <trkpt lat="43.295" lon="-1.72982">
        <ele>14.222</ele>
        <time>2020-05-14T12:08:59Z</time>
      </trkpt>
      <trkpt lat="43.29495" lon="-1.72979">
        <ele>14.108</ele>
        <time>2020-05-14T12:09:19Z</time>
      </trkpt>
      <trkpt lat="43.29488" lon="-1.72975">
        <ele>14.328</ele>
        <time>2020-05-14T12:09:39Z</time>
      </trkpt>
      <trkpt lat="43.29483" lon="-1.72973">
        <ele>13.823</ele>
        <time>2020-05-14T12:09:59Z</time>
      </trkpt>
      <trkpt lat="43.29474" lon="-1.72968">
        <ele>13.817</ele>
        <time>2020-05-14T12:10:19Z</time>
      </trkpt>
      <trkpt lat="43.29469" lon="-1.72965">
        <ele>13.835</ele>
        <time>2020-05-14T12:10:39Z</time>
      </trkpt>
      <trkpt lat="43.29465" lon="-1.72962">
        <ele>13.84</ele>
        <time>2020-05-14T12:10:59Z</time>
      </trkpt>
      <trkpt lat="43.29462" lon="-1.72961">
        <ele>13.88</ele>
        <time>2020-05-14T12:11:19Z</time>
      </trkpt>
      <trkpt lat="43.29459" lon="-1.7296">
        <ele>13.787</ele>
        <time>2020-05-14T12:11:39Z</time>
      </trkpt>
      <trkpt lat="43.29451" lon="-1.72958">
        <ele>14.189</ele>
        <time>2020-05-14T12:11:59Z</time>
      </trkpt>
      <trkpt lat="43.29446" lon="-1.72957">
        <ele>14.083</ele>
        <time>2020-05-14T12:12:19Z</time>
      </trkpt>
      <trkpt lat="43.29443" lon="-1.72959">
        <ele>16.125</ele>
        <time>2020-05-14T12:12:39Z</time>
      </trkpt>
      <trkpt lat="43.2944" lon="-1.72962">
        <ele>14.517</ele>
        <time>2020-05-14T12:12:59Z</time>
      </trkpt>
      <trkpt lat="43.29437" lon="-1.72964">
        <ele>15.208</ele>
        <time>2020-05-14T12:13:19Z</time>
      </trkpt>
      <trkpt lat="43.29432" lon="-1.72965">
        <ele>14.812</ele>
        <time>2020-05-14T12:13:39Z</time>
      </trkpt>
      <trkpt lat="43.2943" lon="-1.72965">
        <ele>14.817</ele>
        <time>2020-05-14T12:13:59Z</time>
      </trkpt>
      <trkpt lat="43.29424" lon="-1.72963">
        <ele>15.151</ele>
        <time>2020-05-14T12:14:19Z</time>
      </trkpt>
      <trkpt lat="43.2942" lon="-1.72962">
        <ele>15.239</ele>
        <time>2020-05-14T12:14:39Z</time>
      </trkpt>
      <trkpt lat="43.29416" lon="-1.72962">
        <ele>15.474</ele>
        <time>2020-05-14T12:14:59Z</time>
      </trkpt>
      <trkpt lat="43.2941" lon="-1.72964">
        <ele>15.944</ele>
        <time>2020-05-14T12:15:19Z</time>
      </trkpt>
      <trkpt lat="43.29408" lon="-1.72964">
        <ele>15.961</ele>
        <time>2020-05-14T12:15:39Z</time>
      </trkpt>
      <trkpt lat="43.29405" lon="-1.72965">
        <ele>15.863</ele>
        <time>2020-05-14T12:15:59Z</time>
      </trkpt>
      <trkpt lat="43.29397" lon="-1.72968">
        <ele>12.619</ele>
        <time>2020-05-14T12:16:19Z</time>
      </trkpt>
      <trkpt lat="43.29396" lon="-1.72969">
        <ele>12.609</ele>
        <time>2020-05-14T12:16:39Z</time>
      </trkpt>
      <trkpt lat="43.29396" lon="-1.72969">
        <ele>12.619</ele>
        <time>2020-05-14T12:16:59Z</time>
      </trkpt>
      <trkpt lat="43.29395" lon="-1.72969">
        <ele>12.608</ele>
        <time>2020-05-14T12:17:19Z</time>
      </trkpt>
      <trkpt lat="43.29389" lon="-1.72971">
        <ele>15.085</ele>
        <time>2020-05-14T12:17:39Z</time>
      </trkpt>
      <trkpt lat="43.29385" lon="-1.72972">
        <ele>14.96</ele>
        <time>2020-05-14T12:17:59Z</time>
      </trkpt>
      <trkpt lat="43.29376" lon="-1.72974">
        <ele>14.854</ele>
        <time>2020-05-14T12:18:19Z</time>
      </trkpt>
      <trkpt lat="43.29374" lon="-1.72974">
        <ele>14.072</ele>
        <time>2020-05-14T12:18:39Z</time>
      </trkpt>
      <trkpt lat="43.29374" lon="-1.72974">
        <ele>14.057</ele>
        <time>2020-05-14T12:18:59Z</time>
      </trkpt>
      <trkpt lat="43.29364" lon="-1.72973">
        <ele>14.647</ele>
        <time>2020-05-14T12:19:19Z</time>
      </trkpt>
      <trkpt lat="43.29361" lon="-1.72973">
        <ele>14.534</ele>
        <time>2020-05-14T12:19:39Z</time>
      </trkpt>
      <trkpt lat="43.2936" lon="-1.72972">
        <ele>14.536</ele>
        <time>2020-05-14T12:19:59Z</time>
      </trkpt>
      <trkpt lat="43.29358" lon="-1.72973">
        <ele>14.567</ele>
        <time>2020-05-14T12:20:19Z</time>
      </trkpt>
      <trkpt lat="43.29351" lon="-1.72974">
        <ele>14.481</ele>
        <time>2020-05-14T12:20:39Z</time>
      </trkpt>
      <trkpt lat="43.29347" lon="-1.72974">
        <ele>14.419</ele>
        <time>2020-05-14T12:20:59Z</time>
      </trkpt>
      <trkpt lat="43.29343" lon="-1.72976">
        <ele>14.208</ele>
        <time>2020-05-14T12:21:19Z</time>
      </trkpt>
      <trkpt lat="43.2934" lon="-1.72977">
        <ele>14.12</ele>
        <time>2020-05-14T12:21:39Z</time>
      </trkpt>
      <trkpt lat="43.29335" lon="-1.72978">
        <ele>14.115</ele>
        <time>2020-05-14T12:21:59Z</time>
      </trkpt>
      <trkpt lat="43.29331" lon="-1.72979">
        <ele>14.239</ele>
        <time>2020-05-14T12:22:19Z</time>
      </trkpt>
      <trkpt lat="43.29317" lon="-1.72985">
        <ele>14.477</ele>
        <time>2020-05-14T12:22:39Z</time>
      </trkpt>
      <trkpt lat="43.29304" lon="-1.72992">
        <ele>18.312</ele>
        <time>2020-05-14T12:22:59Z</time>
      </trkpt>
      <trkpt lat="43.293" lon="-1.72993">
        <ele>16.672</ele>
        <time>2020-05-14T12:23:19Z</time>
      </trkpt>
      <trkpt lat="43.29296" lon="-1.72994">
        <ele>15.369</ele>
        <time>2020-05-14T12:23:39Z</time>
      </trkpt>
      <trkpt lat="43.29286" lon="-1.72995">
        <ele>15.421</ele>
        <time>2020-05-14T12:23:59Z</time>
      </trkpt>
      <trkpt lat="43.2928" lon="-1.72995">
        <ele>14.619</ele>
        <time>2020-05-14T12:24:19Z</time>
      </trkpt>
      <trkpt lat="43.29271" lon="-1.72994">
        <ele>14.809</ele>
        <time>2020-05-14T12:24:39Z</time>
      </trkpt>
      <trkpt lat="43.29262" lon="-1.72992">
        <ele>15.019</ele>
        <time>2020-05-14T12:24:59Z</time>
      </trkpt>
      <trkpt lat="43.29254" lon="-1.7299">
        <ele>14.808</ele>
        <time>2020-05-14T12:25:19Z</time>
      </trkpt>
      <trkpt lat="43.29242" lon="-1.72987">
        <ele>14.865</ele>
        <time>2020-05-14T12:25:39Z</time>
      </trkpt>
      <trkpt lat="43.29235" lon="-1.72985">
        <ele>14.93</ele>
        <time>2020-05-14T12:25:59Z</time>
      </trkpt>
      <trkpt lat="43.29231" lon="-1.72982">
        <ele>15.094</ele>
        <time>2020-05-14T12:26:19Z</time>
      </trkpt>
      <trkpt lat="43.29226" lon="-1.72979">
        <ele>14.972</ele>
        <time>2020-05-14T12:26:39Z</time>
      </trkpt>
      <trkpt lat="43.29212" lon="-1.72968">
        <ele>14.797</ele>
        <time>2020-05-14T12:26:59Z</time>
      </trkpt>
      <trkpt lat="43.29198" lon="-1.72958">
        <ele>14.767</ele>
        <time>2020-05-14T12:27:19Z</time>
      </trkpt>
      <trkpt lat="43.29193" lon="-1.72954">
        <ele>14.974</ele>
        <time>2020-05-14T12:27:39Z</time>
      </trkpt>
      <trkpt lat="43.29189" lon="-1.7295">
        <ele>15.076</ele>
        <time>2020-05-14T12:27:59Z</time>
      </trkpt>
      <trkpt lat="43.29188" lon="-1.72949">
        <ele>15.042</ele>
        <time>2020-05-14T12:28:19Z</time>
      </trkpt>
      <trkpt lat="43.29186" lon="-1.72948">
        <ele>15.022</ele>
        <time>2020-05-14T12:28:39Z</time>
      </trkpt>
      <trkpt lat="43.29184" lon="-1.72945">
        <ele>15.514</ele>
        <time>2020-05-14T12:28:59Z</time>
      </trkpt>
      <trkpt lat="43.29183" lon="-1.72944">
        <ele>14.808</ele>
        <time>2020-05-14T12:29:19Z</time>
      </trkpt>
      <trkpt lat="43.29172" lon="-1.72931">
        <ele>14.918</ele>
        <time>2020-05-14T12:29:39Z</time>
      </trkpt>
      <trkpt lat="43.2917" lon="-1.72927">
        <ele>14.933</ele>
        <time>2020-05-14T12:29:59Z</time>
      </trkpt>
      <trkpt lat="43.29166" lon="-1.72922">
        <ele>14.867</ele>
        <time>2020-05-14T12:30:19Z</time>
      </trkpt>
      <trkpt lat="43.29164" lon="-1.72919">
        <ele>14.885</ele>
        <time>2020-05-14T12:30:39Z</time>
      </trkpt>
      <trkpt lat="43.29163" lon="-1.72916">
        <ele>14.75</ele>
        <time>2020-05-14T12:30:59Z</time>
      </trkpt>
      <trkpt lat="43.29161" lon="-1.72909">
        <ele>14.51</ele>
        <time>2020-05-14T12:31:19Z</time>
      </trkpt>
      <trkpt lat="43.29159" lon="-1.72903">
        <ele>14.367</ele>
        <time>2020-05-14T12:31:39Z</time>
      </trkpt>
      <trkpt lat="43.29155" lon="-1.72886">
        <ele>14.159</ele>
        <time>2020-05-14T12:31:59Z</time>
      </trkpt>
      <trkpt lat="43.29145" lon="-1.72864">
        <ele>14.055</ele>
        <time>2020-05-14T12:32:19Z</time>
      </trkpt>
      <trkpt lat="43.29133" lon="-1.7284">
        <ele>14.307</ele>
        <time>2020-05-14T12:32:39Z</time>
      </trkpt>
      <trkpt lat="43.29121" lon="-1.72816">
        <ele>14.717</ele>
        <time>2020-05-14T12:32:59Z</time>
      </trkpt>
      <trkpt lat="43.29112" lon="-1.72795">
        <ele>14.408</ele>
        <time>2020-05-14T12:33:19Z</time>
      </trkpt>
      <trkpt lat="43.29108" lon="-1.72772">
        <ele>14.659</ele>
        <time>2020-05-14T12:33:39Z</time>
      </trkpt>
      <trkpt lat="43.29107" lon="-1.7276">
        <ele>14.584</ele>
        <time>2020-05-14T12:33:59Z</time>
      </trkpt>
      <trkpt lat="43.29106" lon="-1.72747">
        <ele>14.648</ele>
        <time>2020-05-14T12:34:19Z</time>
      </trkpt>
      <trkpt lat="43.29106" lon="-1.72705">
        <ele>14.766</ele>
        <time>2020-05-14T12:34:39Z</time>
      </trkpt>
      <trkpt lat="43.29107" lon="-1.72667">
        <ele>12.541</ele>
        <time>2020-05-14T12:34:59Z</time>
      </trkpt>
      <trkpt lat="43.29107" lon="-1.72641">
        <ele>15.211</ele>
        <time>2020-05-14T12:35:19Z</time>
      </trkpt>
      <trkpt lat="43.29107" lon="-1.72615">
        <ele>15.648</ele>
        <time>2020-05-14T12:35:39Z</time>
      </trkpt>
      <trkpt lat="43.29107" lon="-1.72561">
        <ele>15.65</ele>
        <time>2020-05-14T12:35:59Z</time>
      </trkpt>
      <trkpt lat="43.29108" lon="-1.72506">
        <ele>14.528</ele>
        <time>2020-05-14T12:36:19Z</time>
      </trkpt>
      <trkpt lat="43.29108" lon="-1.72482">
        <ele>15.289</ele>
        <time>2020-05-14T12:36:39Z</time>
      </trkpt>
      <trkpt lat="43.29107" lon="-1.72456">
        <ele>15.317</ele>
        <time>2020-05-14T12:36:59Z</time>
      </trkpt>
      <trkpt lat="43.29107" lon="-1.72455">
        <ele>15.308</ele>
        <time>2020-05-14T12:37:19Z</time>
      </trkpt>
      <trkpt lat="43.29107" lon="-1.72454">
        <ele>15.376</ele>
        <time>2020-05-14T12:37:39Z</time>
      </trkpt>
      <trkpt lat="43.29108" lon="-1.72401">
        <ele>15.521</ele>
        <time>2020-05-14T12:37:59Z</time>
      </trkpt>
      <trkpt lat="43.29108" lon="-1.7235">
        <ele>15.845</ele>
        <time>2020-05-14T12:38:19Z</time>
      </trkpt>
      <trkpt lat="43.2911" lon="-1.72226">
        <ele>16.313</ele>
        <time>2020-05-14T12:38:39Z</time>
      </trkpt>
      <trkpt lat="43.2911" lon="-1.72165">
        <ele>16.658</ele>
        <time>2020-05-14T12:38:59Z</time>
      </trkpt>
      <trkpt lat="43.2911" lon="-1.72117">
        <ele>17.268</ele>
        <time>2020-05-14T12:39:19Z</time>
      </trkpt>
      <trkpt lat="43.29113" lon="-1.72064">
        <ele>17.845</ele>
        <time>2020-05-14T12:39:39Z</time>
      </trkpt>
      <trkpt lat="43.29113" lon="-1.72042">
        <ele>18.137</ele>
        <time>2020-05-14T12:39:59Z</time>
      </trkpt>
      <trkpt lat="43.29114" lon="-1.71987">
        <ele>18.574</ele>
        <time>2020-05-14T12:40:19Z</time>
      </trkpt>
      <trkpt lat="43.29112" lon="-1.71946">
        <ele>19.256</ele>
        <time>2020-05-14T12:40:39Z</time>
      </trkpt>
      <trkpt lat="43.29109" lon="-1.71923">
        <ele>19.421</ele>
        <time>2020-05-14T12:40:59Z</time>
      </trkpt>
      <trkpt lat="43.29109" lon="-1.71915">
        <ele>19.508</ele>
        <time>2020-05-14T12:41:19Z</time>
      </trkpt>
      <trkpt lat="43.29107" lon="-1.71893">
        <ele>41.771</ele>
        <time>2020-05-14T12:41:39Z</time>
      </trkpt>
      <trkpt lat="43.29105" lon="-1.71874">
        <ele>39.436</ele>
        <time>2020-05-14T12:41:59Z</time>
      </trkpt>
      <trkpt lat="43.29103" lon="-1.71833">
        <ele>19.25</ele>
        <time>2020-05-14T12:42:19Z</time>
      </trkpt>
      <trkpt lat="43.29098" lon="-1.71809">
        <ele>27.018</ele>
        <time>2020-05-14T12:42:39Z</time>
      </trkpt>
      <trkpt lat="43.29095" lon="-1.71795">
        <ele>23.983</ele>
        <time>2020-05-14T12:42:59Z</time>
      </trkpt>
      <trkpt lat="43.29092" lon="-1.71774">
        <ele>12.363</ele>
        <time>2020-05-14T12:43:19Z</time>
      </trkpt>
      <trkpt lat="43.2909" lon="-1.71763">
        <ele>21.18</ele>
        <time>2020-05-14T12:43:39Z</time>
      </trkpt>
      <trkpt lat="43.29087" lon="-1.71747">
        <ele>21.212</ele>
        <time>2020-05-14T12:43:59Z</time>
      </trkpt>
      <trkpt lat="43.29083" lon="-1.71731">
        <ele>20.816</ele>
        <time>2020-05-14T12:44:19Z</time>
      </trkpt>
      <trkpt lat="43.29081" lon="-1.71719">
        <ele>21.576</ele>
        <time>2020-05-14T12:44:39Z</time>
      </trkpt>
      <trkpt lat="43.29077" lon="-1.71692">
        <ele>22.213</ele>
        <time>2020-05-14T12:44:59Z</time>
      </trkpt>
      <trkpt lat="43.29074" lon="-1.71673">
        <ele>21.608</ele>
        <time>2020-05-14T12:45:19Z</time>
      </trkpt>
      <trkpt lat="43.29074" lon="-1.71673">
        <ele>21.625</ele>
        <time>2020-05-14T12:45:39Z</time>
      </trkpt>
      <trkpt lat="43.29072" lon="-1.71658">
        <ele>22.25</ele>
        <time>2020-05-14T12:45:59Z</time>
      </trkpt>
      <trkpt lat="43.29068" lon="-1.71634">
        <ele>22.524</ele>
        <time>2020-05-14T12:46:19Z</time>
      </trkpt>
      <trkpt lat="43.29054" lon="-1.71546">
        <ele>23.932</ele>
        <time>2020-05-14T12:46:39Z</time>
      </trkpt>
      <trkpt lat="43.29048" lon="-1.7151">
        <ele>23.997</ele>
        <time>2020-05-14T12:46:59Z</time>
      </trkpt>
      <trkpt lat="43.2904" lon="-1.71466">
        <ele>24.557</ele>
        <time>2020-05-14T12:47:19Z</time>
      </trkpt>
      <trkpt lat="43.29031" lon="-1.71412">
        <ele>25.324</ele>
        <time>2020-05-14T12:47:39Z</time>
      </trkpt>
      <trkpt lat="43.29026" lon="-1.71376">
        <ele>25.986</ele>
        <time>2020-05-14T12:47:59Z</time>
      </trkpt>
      <trkpt lat="43.29024" lon="-1.71365">
        <ele>25.422</ele>
        <time>2020-05-14T12:48:19Z</time>
      </trkpt>
      <trkpt lat="43.29014" lon="-1.71336">
        <ele>52.362</ele>
        <time>2020-05-14T12:48:39Z</time>
      </trkpt>
      <trkpt lat="43.29006" lon="-1.71317">
        <ele>56.608</ele>
        <time>2020-05-14T12:48:59Z</time>
      </trkpt>
      <trkpt lat="43.28989" lon="-1.71296">
        <ele>54.908</ele>
        <time>2020-05-14T12:49:19Z</time>
      </trkpt>
      <trkpt lat="43.28963" lon="-1.71278">
        <ele>58.596</ele>
        <time>2020-05-14T12:49:39Z</time>
      </trkpt>
      <trkpt lat="43.28943" lon="-1.71269">
        <ele>63.441</ele>
        <time>2020-05-14T12:49:59Z</time>
      </trkpt>
      <trkpt lat="43.28915" lon="-1.7126">
        <ele>56.365</ele>
        <time>2020-05-14T12:50:19Z</time>
      </trkpt>
      <trkpt lat="43.28891" lon="-1.71251">
        <ele>44.733</ele>
        <time>2020-05-14T12:50:39Z</time>
      </trkpt>
      <trkpt lat="43.28875" lon="-1.71248">
        <ele>33.298</ele>
        <time>2020-05-14T12:50:59Z</time>
      </trkpt>
      <trkpt lat="43.28875" lon="-1.71248">
        <ele>33.248</ele>
        <time>2020-05-14T12:51:19Z</time>
      </trkpt>
      <trkpt lat="43.2887" lon="-1.7125">
        <ele>31.295</ele>
        <time>2020-05-14T12:51:39Z</time>
      </trkpt>
      <trkpt lat="43.28867" lon="-1.71252">
        <ele>28.147</ele>
        <time>2020-05-14T12:51:59Z</time>
      </trkpt>
      <trkpt lat="43.28864" lon="-1.71254">
        <ele>28.282</ele>
        <time>2020-05-14T12:52:19Z</time>
      </trkpt>
      <trkpt lat="43.28858" lon="-1.71256">
        <ele>28.243</ele>
        <time>2020-05-14T12:52:39Z</time>
      </trkpt>
      <trkpt lat="43.28854" lon="-1.71258">
        <ele>30.517</ele>
        <time>2020-05-14T12:52:59Z</time>
      </trkpt>
      <trkpt lat="43.28848" lon="-1.7126">
        <ele>29.108</ele>
        <time>2020-05-14T12:53:19Z</time>
      </trkpt>
      <trkpt lat="43.28843" lon="-1.71262">
        <ele>28.922</ele>
        <time>2020-05-14T12:53:39Z</time>
      </trkpt>
      <trkpt lat="43.28841" lon="-1.71263">
        <ele>30.297</ele>
        <time>2020-05-14T12:53:59Z</time>
      </trkpt>
      <trkpt lat="43.28839" lon="-1.71264">
        <ele>30.261</ele>
        <time>2020-05-14T12:54:19Z</time>
      </trkpt>
      <trkpt lat="43.28836" lon="-1.71265">
        <ele>30.139</ele>
        <time>2020-05-14T12:54:39Z</time>
      </trkpt>
      <trkpt lat="43.28829" lon="-1.71268">
        <ele>29.184</ele>
        <time>2020-05-14T12:54:59Z</time>
      </trkpt>
      <trkpt lat="43.2882" lon="-1.71273">
        <ele>29.334</ele>
        <time>2020-05-14T12:55:19Z</time>
      </trkpt>
      <trkpt lat="43.28805" lon="-1.71279">
        <ele>29.191</ele>
        <time>2020-05-14T12:55:39Z</time>
      </trkpt>
      <trkpt lat="43.2879" lon="-1.71285">
        <ele>30.353</ele>
        <time>2020-05-14T12:55:59Z</time>
      </trkpt>
      <trkpt lat="43.28774" lon="-1.71291">
        <ele>30.075</ele>
        <time>2020-05-14T12:56:19Z</time>
      </trkpt>
      <trkpt lat="43.28758" lon="-1.71298">
        <ele>29.828</ele>
        <time>2020-05-14T12:56:39Z</time>
      </trkpt>
      <trkpt lat="43.28732" lon="-1.71304">
        <ele>30.22</ele>
        <time>2020-05-14T12:56:59Z</time>
      </trkpt>
      <trkpt lat="43.28719" lon="-1.71304">
        <ele>30.308</ele>
        <time>2020-05-14T12:57:19Z</time>
      </trkpt>
      <trkpt lat="43.28706" lon="-1.71304">
        <ele>30.551</ele>
        <time>2020-05-14T12:57:39Z</time>
      </trkpt>
      <trkpt lat="43.28688" lon="-1.71302">
        <ele>30.746</ele>
        <time>2020-05-14T12:57:59Z</time>
      </trkpt>
      <trkpt lat="43.2867" lon="-1.71299">
        <ele>31.27</ele>
        <time>2020-05-14T12:58:19Z</time>
      </trkpt>
      <trkpt lat="43.28634" lon="-1.71293">
        <ele>31.688</ele>
        <time>2020-05-14T12:58:39Z</time>
      </trkpt>
      <trkpt lat="43.28616" lon="-1.7129">
        <ele>31.123</ele>
        <time>2020-05-14T12:58:59Z</time>
      </trkpt>
      <trkpt lat="43.28599" lon="-1.71287">
        <ele>36.553</ele>
        <time>2020-05-14T12:59:19Z</time>
      </trkpt>
      <trkpt lat="43.28568" lon="-1.71284">
        <ele>30.87</ele>
        <time>2020-05-14T12:59:39Z</time>
      </trkpt>
      <trkpt lat="43.28545" lon="-1.71285">
        <ele>31.022</ele>
        <time>2020-05-14T12:59:59Z</time>
      </trkpt>
      <trkpt lat="43.28531" lon="-1.71289">
        <ele>33.574</ele>
        <time>2020-05-14T13:00:19Z</time>
      </trkpt>
      <trkpt lat="43.28518" lon="-1.71293">
        <ele>31.456</ele>
        <time>2020-05-14T13:00:39Z</time>
      </trkpt>
      <trkpt lat="43.285" lon="-1.71301">
        <ele>30.921</ele>
        <time>2020-05-14T13:00:59Z</time>
      </trkpt>
      <trkpt lat="43.28482" lon="-1.71309">
        <ele>30.808</ele>
        <time>2020-05-14T13:01:19Z</time>
      </trkpt>
      <trkpt lat="43.28465" lon="-1.71317">
        <ele>31.071</ele>
        <time>2020-05-14T13:01:39Z</time>
      </trkpt>
      <trkpt lat="43.28448" lon="-1.71326">
        <ele>30.866</ele>
        <time>2020-05-14T13:01:59Z</time>
      </trkpt>
      <trkpt lat="43.28439" lon="-1.7133">
        <ele>31.02</ele>
        <time>2020-05-14T13:02:19Z</time>
      </trkpt>
      <trkpt lat="43.28431" lon="-1.71335">
        <ele>31.038</ele>
        <time>2020-05-14T13:02:39Z</time>
      </trkpt>
      <trkpt lat="43.2843" lon="-1.71336">
        <ele>31.073</ele>
        <time>2020-05-14T13:02:59Z</time>
      </trkpt>
      <trkpt lat="43.28404" lon="-1.71349">
        <ele>31.243</ele>
        <time>2020-05-14T13:03:19Z</time>
      </trkpt>
      <trkpt lat="43.28403" lon="-1.7135">
        <ele>31.27</ele>
        <time>2020-05-14T13:03:39Z</time>
      </trkpt>
      <trkpt lat="43.28393" lon="-1.71355">
        <ele>30.862</ele>
        <time>2020-05-14T13:03:59Z</time>
      </trkpt>
      <trkpt lat="43.28383" lon="-1.7136">
        <ele>30.874</ele>
        <time>2020-05-14T13:04:19Z</time>
      </trkpt>
      <trkpt lat="43.28347" lon="-1.71378">
        <ele>30.856</ele>
        <time>2020-05-14T13:04:39Z</time>
      </trkpt>
      <trkpt lat="43.28329" lon="-1.71387">
        <ele>30.821</ele>
        <time>2020-05-14T13:04:59Z</time>
      </trkpt>
      <trkpt lat="43.28311" lon="-1.71397">
        <ele>30.808</ele>
        <time>2020-05-14T13:05:19Z</time>
      </trkpt>
      <trkpt lat="43.28296" lon="-1.71404">
        <ele>30.521</ele>
        <time>2020-05-14T13:05:39Z</time>
      </trkpt>
      <trkpt lat="43.28281" lon="-1.71411">
        <ele>30.716</ele>
        <time>2020-05-14T13:05:59Z</time>
      </trkpt>
      <trkpt lat="43.28266" lon="-1.71414">
        <ele>30.72</ele>
        <time>2020-05-14T13:06:19Z</time>
      </trkpt>
      <trkpt lat="43.28252" lon="-1.71417">
        <ele>30.638</ele>
        <time>2020-05-14T13:06:39Z</time>
      </trkpt>
      <trkpt lat="43.28235" lon="-1.71418">
        <ele>32.513</ele>
        <time>2020-05-14T13:06:59Z</time>
      </trkpt>
      <trkpt lat="43.28217" lon="-1.71419">
        <ele>32.793</ele>
        <time>2020-05-14T13:07:19Z</time>
      </trkpt>
      <trkpt lat="43.28198" lon="-1.7142">
        <ele>32.94</ele>
        <time>2020-05-14T13:07:39Z</time>
      </trkpt>
      <trkpt lat="43.28179" lon="-1.71421">
        <ele>31.922</ele>
        <time>2020-05-14T13:07:59Z</time>
      </trkpt>
      <trkpt lat="43.28161" lon="-1.71423">
        <ele>30.985</ele>
        <time>2020-05-14T13:08:19Z</time>
      </trkpt>
      <trkpt lat="43.28138" lon="-1.71426">
        <ele>32.889</ele>
        <time>2020-05-14T13:08:39Z</time>
      </trkpt>
      <trkpt lat="43.28106" lon="-1.7143">
        <ele>31.117</ele>
        <time>2020-05-14T13:08:59Z</time>
      </trkpt>
      <trkpt lat="43.28084" lon="-1.71428">
        <ele>30.808</ele>
        <time>2020-05-14T13:09:19Z</time>
      </trkpt>
      <trkpt lat="43.2807" lon="-1.71427">
        <ele>30.792</ele>
        <time>2020-05-14T13:09:39Z</time>
      </trkpt>
      <trkpt lat="43.28055" lon="-1.71426">
        <ele>30.987</ele>
        <time>2020-05-14T13:09:59Z</time>
      </trkpt>
      <trkpt lat="43.28039" lon="-1.71426">
        <ele>31.391</ele>
        <time>2020-05-14T13:10:19Z</time>
      </trkpt>
      <trkpt lat="43.28015" lon="-1.7142">
        <ele>30.799</ele>
        <time>2020-05-14T13:10:39Z</time>
      </trkpt>
      <trkpt lat="43.28001" lon="-1.71417">
        <ele>30.934</ele>
        <time>2020-05-14T13:10:59Z</time>
      </trkpt>
      <trkpt lat="43.27982" lon="-1.71412">
        <ele>30.914</ele>
        <time>2020-05-14T13:11:19Z</time>
      </trkpt>
      <trkpt lat="43.27982" lon="-1.71411">
        <ele>30.951</ele>
        <time>2020-05-14T13:11:39Z</time>
      </trkpt>
      <trkpt lat="43.27977" lon="-1.7141">
        <ele>30.823</ele>
        <time>2020-05-14T13:11:59Z</time>
      </trkpt>
      <trkpt lat="43.27958" lon="-1.71405">
        <ele>31.558</ele>
        <time>2020-05-14T13:12:19Z</time>
      </trkpt>
      <trkpt lat="43.27938" lon="-1.714">
        <ele>31.552</ele>
        <time>2020-05-14T13:12:39Z</time>
      </trkpt>
      <trkpt lat="43.27899" lon="-1.71388">
        <ele>31.217</ele>
        <time>2020-05-14T13:12:59Z</time>
      </trkpt>
      <trkpt lat="43.27861" lon="-1.71377">
        <ele>33.408</ele>
        <time>2020-05-14T13:13:19Z</time>
      </trkpt>
      <trkpt lat="43.27822" lon="-1.71365">
        <ele>32.739</ele>
        <time>2020-05-14T13:13:39Z</time>
      </trkpt>
      <trkpt lat="43.27782" lon="-1.71356">
        <ele>32.124</ele>
        <time>2020-05-14T13:13:59Z</time>
      </trkpt>
      <trkpt lat="43.27751" lon="-1.71348">
        <ele>32.018</ele>
        <time>2020-05-14T13:14:19Z</time>
      </trkpt>
      <trkpt lat="43.27727" lon="-1.71342">
        <ele>32.156</ele>
        <time>2020-05-14T13:14:39Z</time>
      </trkpt>
      <trkpt lat="43.27707" lon="-1.71336">
        <ele>33.121</ele>
        <time>2020-05-14T13:14:59Z</time>
      </trkpt>
      <trkpt lat="43.27678" lon="-1.71328">
        <ele>32.411</ele>
        <time>2020-05-14T13:15:19Z</time>
      </trkpt>
      <trkpt lat="43.27654" lon="-1.71321">
        <ele>32.678</ele>
        <time>2020-05-14T13:15:39Z</time>
      </trkpt>
      <trkpt lat="43.2764" lon="-1.71318">
        <ele>32.64</ele>
        <time>2020-05-14T13:15:59Z</time>
      </trkpt>
      <trkpt lat="43.27599" lon="-1.71305">
        <ele>33.179</ele>
        <time>2020-05-14T13:16:19Z</time>
      </trkpt>
      <trkpt lat="43.27599" lon="-1.71305">
        <ele>33.105</ele>
        <time>2020-05-14T13:16:39Z</time>
      </trkpt>
      <trkpt lat="43.27582" lon="-1.71299">
        <ele>33.425</ele>
        <time>2020-05-14T13:16:59Z</time>
      </trkpt>
      <trkpt lat="43.27565" lon="-1.71292">
        <ele>33.608</ele>
        <time>2020-05-14T13:17:19Z</time>
      </trkpt>
      <trkpt lat="43.27557" lon="-1.71287">
        <ele>33.731</ele>
        <time>2020-05-14T13:17:39Z</time>
      </trkpt>
      <trkpt lat="43.27548" lon="-1.71281">
        <ele>33.566</ele>
        <time>2020-05-14T13:17:59Z</time>
      </trkpt>
      <trkpt lat="43.27532" lon="-1.71265">
        <ele>33.54</ele>
        <time>2020-05-14T13:18:19Z</time>
      </trkpt>
      <trkpt lat="43.27529" lon="-1.71261">
        <ele>33.568</ele>
        <time>2020-05-14T13:18:39Z</time>
      </trkpt>
      <trkpt lat="43.27525" lon="-1.71255">
        <ele>33.573</ele>
        <time>2020-05-14T13:18:59Z</time>
      </trkpt>
      <trkpt lat="43.27522" lon="-1.71252">
        <ele>33.143</ele>
        <time>2020-05-14T13:19:19Z</time>
      </trkpt>
      <trkpt lat="43.2752" lon="-1.71249">
        <ele>33.14</ele>
        <time>2020-05-14T13:19:39Z</time>
      </trkpt>
      <trkpt lat="43.27519" lon="-1.71248">
        <ele>32.852</ele>
        <time>2020-05-14T13:19:59Z</time>
      </trkpt>
      <trkpt lat="43.27517" lon="-1.71245">
        <ele>33.468</ele>
        <time>2020-05-14T13:20:19Z</time>
      </trkpt>
      <trkpt lat="43.27515" lon="-1.71242">
        <ele>33.442</ele>
        <time>2020-05-14T13:20:39Z</time>
      </trkpt>
      <trkpt lat="43.27514" lon="-1.7124">
        <ele>33.326</ele>
        <time>2020-05-14T13:20:59Z</time>
      </trkpt>
      <trkpt lat="43.27504" lon="-1.71224">
        <ele>33.308</ele>
        <time>2020-05-14T13:21:19Z</time>
      </trkpt>
      <trkpt lat="43.27501" lon="-1.71217">
        <ele>33.75</ele>
        <time>2020-05-14T13:21:39Z</time>
      </trkpt>
      <trkpt lat="43.27497" lon="-1.71207">
        <ele>33.625</ele>
        <time>2020-05-14T13:21:59Z</time>
      </trkpt>
      <trkpt lat="43.27496" lon="-1.71206">
        <ele>33.849</ele>
        <time>2020-05-14T13:22:19Z</time>
      </trkpt>
      <trkpt lat="43.27493" lon="-1.71196">
        <ele>33.857</ele>
        <time>2020-05-14T13:22:39Z</time>
      </trkpt>
      <trkpt lat="43.27486" lon="-1.71165">
        <ele>34.532</ele>
        <time>2020-05-14T13:22:59Z</time>
      </trkpt>
      <trkpt lat="43.27484" lon="-1.71155">
        <ele>33.982</ele>
        <time>2020-05-14T13:23:19Z</time>
      </trkpt>
      <trkpt lat="43.2748" lon="-1.71136">
        <ele>33.679</ele>
        <time>2020-05-14T13:23:39Z</time>
      </trkpt>
      <trkpt lat="43.27479" lon="-1.71131">
        <ele>33.641</ele>
        <time>2020-05-14T13:23:59Z</time>
      </trkpt>
      <trkpt lat="43.27477" lon="-1.71126">
        <ele>33.864</ele>
        <time>2020-05-14T13:24:19Z</time>
      </trkpt>
      <trkpt lat="43.27474" lon="-1.71121">
        <ele>33.706</ele>
        <time>2020-05-14T13:24:39Z</time>
      </trkpt>
      <trkpt lat="43.27467" lon="-1.71109">
        <ele>33.816</ele>
        <time>2020-05-14T13:24:59Z</time>
      </trkpt>
      <trkpt lat="43.2746" lon="-1.71097">
        <ele>33.608</ele>
        <time>2020-05-14T13:25:19Z</time>
      </trkpt>
      <trkpt lat="43.27457" lon="-1.71087">
        <ele>33.67</ele>
        <time>2020-05-14T13:25:39Z</time>
      </trkpt>
      <trkpt lat="43.27452" lon="-1.7107">
        <ele>33.685</ele>
        <time>2020-05-14T13:25:59Z</time>
      </trkpt>
      <trkpt lat="43.27445" lon="-1.7104">
        <ele>33.749</ele>
        <time>2020-05-14T13:26:19Z</time>
      </trkpt>
      <trkpt lat="43.27432" lon="-1.70993">
        <ele>33.997</ele>
        <time>2020-05-14T13:26:39Z</time>
      </trkpt>
      <trkpt lat="43.27424" lon="-1.70959">
        <ele>33.962</ele>
        <time>2020-05-14T13:26:59Z</time>
      </trkpt>
      <trkpt lat="43.27417" lon="-1.70927">
        <ele>32.982</ele>
        <time>2020-05-14T13:27:19Z</time>
      </trkpt>
      <trkpt lat="43.27415" lon="-1.70915">
        <ele>33.619</ele>
        <time>2020-05-14T13:27:39Z</time>
      </trkpt>
      <trkpt lat="43.27413" lon="-1.70901">
        <ele>33.771</ele>
        <time>2020-05-14T13:27:59Z</time>
      </trkpt>
      <trkpt lat="43.27413" lon="-1.70892">
        <ele>33.751</ele>
        <time>2020-05-14T13:28:19Z</time>
      </trkpt>
      <trkpt lat="43.27413" lon="-1.70769">
        <ele>41.201</ele>
        <time>2020-05-14T13:28:39Z</time>
      </trkpt>
      <trkpt lat="43.27413" lon="-1.70759">
        <ele>42.011</ele>
        <time>2020-05-14T13:28:59Z</time>
      </trkpt>
      <trkpt lat="43.27413" lon="-1.70751">
        <ele>41.608</ele>
        <time>2020-05-14T13:29:19Z</time>
      </trkpt>
      <trkpt lat="43.27413" lon="-1.70741">
        <ele>42.169</ele>
        <time>2020-05-14T13:29:39Z</time>
      </trkpt>
      <trkpt lat="43.27415" lon="-1.7073">
        <ele>38.364</ele>
        <time>2020-05-14T13:29:59Z</time>
      </trkpt>
      <trkpt lat="43.27417" lon="-1.70723">
        <ele>38.788</ele>
        <time>2020-05-14T13:30:19Z</time>
      </trkpt>
      <trkpt lat="43.27422" lon="-1.70707">
        <ele>38.796</ele>
        <time>2020-05-14T13:30:39Z</time>
      </trkpt>
      <trkpt lat="43.27427" lon="-1.70693">
        <ele>36.511</ele>
        <time>2020-05-14T13:30:59Z</time>
      </trkpt>
      <trkpt lat="43.27429" lon="-1.70686">
        <ele>34.211</ele>
        <time>2020-05-14T13:31:19Z</time>
      </trkpt>
      <trkpt lat="43.27429" lon="-1.70681">
        <ele>33.948</ele>
        <time>2020-05-14T13:31:39Z</time>
      </trkpt>
      <trkpt lat="43.2743" lon="-1.70674">
        <ele>34.27</ele>
        <time>2020-05-14T13:31:59Z</time>
      </trkpt>
      <trkpt lat="43.2743" lon="-1.70652">
        <ele>34.514</ele>
        <time>2020-05-14T13:32:19Z</time>
      </trkpt>
      <trkpt lat="43.2743" lon="-1.70652">
        <ele>34.254</ele>
        <time>2020-05-14T13:32:39Z</time>
      </trkpt>
      <trkpt lat="43.2743" lon="-1.70635">
        <ele>34.309</ele>
        <time>2020-05-14T13:32:59Z</time>
      </trkpt>
      <trkpt lat="43.27429" lon="-1.70624">
        <ele>35.608</ele>
        <time>2020-05-14T13:33:19Z</time>
      </trkpt>
      <trkpt lat="43.27426" lon="-1.70602">
        <ele>38.045</ele>
        <time>2020-05-14T13:33:39Z</time>
      </trkpt>
      <trkpt lat="43.27425" lon="-1.70592">
        <ele>37.44</ele>
        <time>2020-05-14T13:33:59Z</time>
      </trkpt>
      <trkpt lat="43.27426" lon="-1.70585">
        <ele>37.644</ele>
        <time>2020-05-14T13:34:19Z</time>
      </trkpt>
      <trkpt lat="43.27427" lon="-1.70578">
        <ele>35.342</ele>
        <time>2020-05-14T13:34:39Z</time>
      </trkpt>
      <trkpt lat="43.27429" lon="-1.7057">
        <ele>36.367</ele>
        <time>2020-05-14T13:34:59Z</time>
      </trkpt>
      <trkpt lat="43.27445" lon="-1.7052">
        <ele>33.427</ele>
        <time>2020-05-14T13:35:19Z</time>
      </trkpt>
      <trkpt lat="43.27448" lon="-1.70507">
        <ele>32.774</ele>
        <time>2020-05-14T13:35:39Z</time>
      </trkpt>
      <trkpt lat="43.2745" lon="-1.70498">
        <ele>33.026</ele>
        <time>2020-05-14T13:35:59Z</time>
      </trkpt>
      <trkpt lat="43.27451" lon="-1.70487">
        <ele>33.373</ele>
        <time>2020-05-14T13:36:19Z</time>
      </trkpt>
      <trkpt lat="43.27452" lon="-1.70473">
        <ele>32.985</ele>
        <time>2020-05-14T13:36:39Z</time>
      </trkpt>
      <trkpt lat="43.27454" lon="-1.70458">
        <ele>33.313</ele>
        <time>2020-05-14T13:36:59Z</time>
      </trkpt>
      <trkpt lat="43.27456" lon="-1.70429">
        <ele>33.108</ele>
        <time>2020-05-14T13:37:19Z</time>
      </trkpt>
      <trkpt lat="43.27459" lon="-1.70404">
        <ele>33.711</ele>
        <time>2020-05-14T13:37:39Z</time>
      </trkpt>
      <trkpt lat="43.2746" lon="-1.70394">
        <ele>33.376</ele>
        <time>2020-05-14T13:37:59Z</time>
      </trkpt>
      <trkpt lat="43.27464" lon="-1.70358">
        <ele>31.64</ele>
        <time>2020-05-14T13:38:19Z</time>
      </trkpt>
      <trkpt lat="43.27468" lon="-1.70327">
        <ele>33.498</ele>
        <time>2020-05-14T13:38:39Z</time>
      </trkpt>
      <trkpt lat="43.2747" lon="-1.70308">
        <ele>33.433</ele>
        <time>2020-05-14T13:38:59Z</time>
      </trkpt>
      <trkpt lat="43.27476" lon="-1.70246">
        <ele>33.673</ele>
        <time>2020-05-14T13:39:19Z</time>
      </trkpt>
      <trkpt lat="43.27477" lon="-1.70235">
        <ele>33.55</ele>
        <time>2020-05-14T13:39:39Z</time>
      </trkpt>
      <trkpt lat="43.27477" lon="-1.7022">
        <ele>36.432</ele>
        <time>2020-05-14T13:39:59Z</time>
      </trkpt>
      <trkpt lat="43.27479" lon="-1.70179">
        <ele>43.044</ele>
        <time>2020-05-14T13:40:19Z</time>
      </trkpt>
      <trkpt lat="43.27483" lon="-1.7014">
        <ele>36.305</ele>
        <time>2020-05-14T13:40:39Z</time>
      </trkpt>
      <trkpt lat="43.27485" lon="-1.70109">
        <ele>38.015</ele>
        <time>2020-05-14T13:40:59Z</time>
      </trkpt>
      <trkpt lat="43.27486" lon="-1.70091">
        <ele>45.008</ele>
        <time>2020-05-14T13:41:19Z</time>
      </trkpt>
      <trkpt lat="43.27488" lon="-1.70065">
        <ele>37.178</ele>
        <time>2020-05-14T13:41:39Z</time>
      </trkpt>
      <trkpt lat="43.27489" lon="-1.70052">
        <ele>40.923</ele>
        <time>2020-05-14T13:41:59Z</time>
      </trkpt>
      <trkpt lat="43.2749" lon="-1.70035">
        <ele>41.857</ele>
        <time>2020-05-14T13:42:19Z</time>
      </trkpt>
      <trkpt lat="43.2749" lon="-1.7002">
        <ele>44.965</ele>
        <time>2020-05-14T13:42:39Z</time>
      </trkpt>
      <trkpt lat="43.27492" lon="-1.70008">
        <ele>37.16</ele>
        <time>2020-05-14T13:42:59Z</time>
      </trkpt>
      <trkpt lat="43.27493" lon="-1.69999">
        <ele>41.66</ele>
        <time>2020-05-14T13:43:19Z</time>
      </trkpt>
      <trkpt lat="43.27495" lon="-1.69992">
        <ele>39.557</ele>
        <time>2020-05-14T13:43:39Z</time>
      </trkpt>
      <trkpt lat="43.27496" lon="-1.69979">
        <ele>37.379</ele>
        <time>2020-05-14T13:43:59Z</time>
      </trkpt>
      <trkpt lat="43.27496" lon="-1.69957">
        <ele>36.371</ele>
        <time>2020-05-14T13:44:19Z</time>
      </trkpt>
      <trkpt lat="43.27496" lon="-1.69926">
        <ele>32.741</ele>
        <time>2020-05-14T13:44:39Z</time>
      </trkpt>
      <trkpt lat="43.27495" lon="-1.69912">
        <ele>36.515</ele>
        <time>2020-05-14T13:44:59Z</time>
      </trkpt>
      <trkpt lat="43.27496" lon="-1.69866">
        <ele>33.208</ele>
        <time>2020-05-14T13:45:19Z</time>
      </trkpt>
      <trkpt lat="43.27496" lon="-1.69855">
        <ele>33.411</ele>
        <time>2020-05-14T13:45:39Z</time>
      </trkpt>
      <trkpt lat="43.27497" lon="-1.69827">
        <ele>33.336</ele>
        <time>2020-05-14T13:45:59Z</time>
      </trkpt>
      <trkpt lat="43.275" lon="-1.69813">
        <ele>33.43</ele>
        <time>2020-05-14T13:46:19Z</time>
      </trkpt>
      <trkpt lat="43.27504" lon="-1.69796">
        <ele>33.578</ele>
        <time>2020-05-14T13:46:39Z</time>
      </trkpt>
      <trkpt lat="43.27508" lon="-1.69782">
        <ele>33.333</ele>
        <time>2020-05-14T13:46:59Z</time>
      </trkpt>
      <trkpt lat="43.27515" lon="-1.69758">
        <ele>33.733</ele>
        <time>2020-05-14T13:47:19Z</time>
      </trkpt>
      <trkpt lat="43.27527" lon="-1.69719">
        <ele>34.49</ele>
        <time>2020-05-14T13:47:39Z</time>
      </trkpt>
      <trkpt lat="43.27538" lon="-1.69687">
        <ele>34.262</ele>
        <time>2020-05-14T13:47:59Z</time>
      </trkpt>
      <trkpt lat="43.2755" lon="-1.69642">
        <ele>31.546</ele>
        <time>2020-05-14T13:48:19Z</time>
      </trkpt>
      <trkpt lat="43.27555" lon="-1.69628">
        <ele>30.888</ele>
        <time>2020-05-14T13:48:39Z</time>
      </trkpt>
      <trkpt lat="43.27559" lon="-1.69619">
        <ele>30.416</ele>
        <time>2020-05-14T13:48:59Z</time>
      </trkpt>
      <trkpt lat="43.27564" lon="-1.69611">
        <ele>33.308</ele>
        <time>2020-05-14T13:49:19Z</time>
      </trkpt>
      <trkpt lat="43.27567" lon="-1.69607">
        <ele>36.668</ele>
        <time>2020-05-14T13:49:39Z</time>
      </trkpt>
      <trkpt lat="43.2757" lon="-1.69603">
        <ele>36.673</ele>
        <time>2020-05-14T13:49:59Z</time>
      </trkpt>
      <trkpt lat="43.27573" lon="-1.69599">
        <ele>33.997</ele>
        <time>2020-05-14T13:50:19Z</time>
      </trkpt>
      <trkpt lat="43.27575" lon="-1.69595">
        <ele>33.935</ele>
        <time>2020-05-14T13:50:39Z</time>
      </trkpt>
      <trkpt lat="43.27588" lon="-1.69581">
        <ele>31.12</ele>
        <time>2020-05-14T13:50:59Z</time>
      </trkpt>
      <trkpt lat="43.27599" lon="-1.69566">
        <ele>32.53</ele>
        <time>2020-05-14T13:51:19Z</time>
      </trkpt>
      <trkpt lat="43.27612" lon="-1.69549">
        <ele>34.097</ele>
        <time>2020-05-14T13:51:39Z</time>
      </trkpt>
      <trkpt lat="43.27624" lon="-1.69536">
        <ele>35.749</ele>
        <time>2020-05-14T13:51:59Z</time>
      </trkpt>
      <trkpt lat="43.27633" lon="-1.69528">
        <ele>35.796</ele>
        <time>2020-05-14T13:52:19Z</time>
      </trkpt>
      <trkpt lat="43.2766" lon="-1.69507">
        <ele>36.031</ele>
        <time>2020-05-14T13:52:39Z</time>
      </trkpt>
      <trkpt lat="43.27701" lon="-1.69471">
        <ele>36.324</ele>
        <time>2020-05-14T13:52:59Z</time>
      </trkpt>
      <trkpt lat="43.27714" lon="-1.6946">
        <ele>36.708</ele>
        <time>2020-05-14T13:53:19Z</time>
      </trkpt>
      <trkpt lat="43.27744" lon="-1.69436">
        <ele>36.783</ele>
        <time>2020-05-14T13:53:39Z</time>
      </trkpt>
      <trkpt lat="43.27772" lon="-1.69416">
        <ele>36.898</ele>
        <time>2020-05-14T13:53:59Z</time>
      </trkpt>
      <trkpt lat="43.27803" lon="-1.6939">
        <ele>37.222</ele>
        <time>2020-05-14T13:54:19Z</time>
      </trkpt>
      <trkpt lat="43.27821" lon="-1.69368">
        <ele>37.84</ele>
        <time>2020-05-14T13:54:39Z</time>
      </trkpt>
      <trkpt lat="43.27823" lon="-1.69363">
        <ele>37.825</ele>
        <time>2020-05-14T13:54:59Z</time>
      </trkpt>
      <trkpt lat="43.27824" lon="-1.69363">
        <ele>37.815</ele>
        <time>2020-05-14T13:55:19Z</time>
      </trkpt>
      <trkpt lat="43.27824" lon="-1.69361">
        <ele>37.962</ele>
        <time>2020-05-14T13:55:39Z</time>
      </trkpt>
      <trkpt lat="43.27825" lon="-1.69359">
        <ele>37.994</ele>
        <time>2020-05-14T13:55:59Z</time>
      </trkpt>
      <trkpt lat="43.27825" lon="-1.69359">
        <ele>37.944</ele>
        <time>2020-05-14T13:56:19Z</time>
      </trkpt>
      <trkpt lat="43.2783" lon="-1.6935">
        <ele>37.905</ele>
        <time>2020-05-14T13:56:39Z</time>
      </trkpt>
      <trkpt lat="43.27841" lon="-1.69323">
        <ele>38.515</ele>
        <time>2020-05-14T13:56:59Z</time>
      </trkpt>
      <trkpt lat="43.27847" lon="-1.69301">
        <ele>38.508</ele>
        <time>2020-05-14T13:57:19Z</time>
      </trkpt>
      <trkpt lat="43.27852" lon="-1.69267">
        <ele>39.078</ele>
        <time>2020-05-14T13:57:39Z</time>
      </trkpt>
      <trkpt lat="43.27853" lon="-1.69234">
        <ele>38.623</ele>
        <time>2020-05-14T13:57:59Z</time>
      </trkpt>
      <trkpt lat="43.2785" lon="-1.69203">
        <ele>38.827</ele>
        <time>2020-05-14T13:58:19Z</time>
      </trkpt>
      <trkpt lat="43.27841" lon="-1.69171">
        <ele>38.865</ele>
        <time>2020-05-14T13:58:39Z</time>
      </trkpt>
      <trkpt lat="43.27834" lon="-1.69152">
        <ele>38.76</ele>
        <time>2020-05-14T13:58:59Z</time>
      </trkpt>
      <trkpt lat="43.27833" lon="-1.6915">
        <ele>38.74</ele>
        <time>2020-05-14T13:59:19Z</time>
      </trkpt>
      <trkpt lat="43.27828" lon="-1.6914">
        <ele>38.947</ele>
        <time>2020-05-14T13:59:39Z</time>
      </trkpt>
      <trkpt lat="43.27819" lon="-1.69126">
        <ele>38.639</ele>
        <time>2020-05-14T13:59:59Z</time>
      </trkpt>
      <trkpt lat="43.27814" lon="-1.69118">
        <ele>38.598</ele>
        <time>2020-05-14T14:00:19Z</time>
      </trkpt>
      <trkpt lat="43.27814" lon="-1.69116">
        <ele>38.515</ele>
        <time>2020-05-14T14:00:39Z</time>
      </trkpt>
      <trkpt lat="43.27799" lon="-1.69101">
        <ele>38.326</ele>
        <time>2020-05-14T14:00:59Z</time>
      </trkpt>
      <trkpt lat="43.27786" lon="-1.69087">
        <ele>38.408</ele>
        <time>2020-05-14T14:01:19Z</time>
      </trkpt>
      <trkpt lat="43.27776" lon="-1.69081">
        <ele>38.593</ele>
        <time>2020-05-14T14:01:39Z</time>
      </trkpt>
      <trkpt lat="43.27768" lon="-1.69076">
        <ele>38.358</ele>
        <time>2020-05-14T14:01:59Z</time>
      </trkpt>
      <trkpt lat="43.27752" lon="-1.69068">
        <ele>38.382</ele>
        <time>2020-05-14T14:02:19Z</time>
      </trkpt>
      <trkpt lat="43.27733" lon="-1.69063">
        <ele>38.54</ele>
        <time>2020-05-14T14:02:39Z</time>
      </trkpt>
      <trkpt lat="43.27704" lon="-1.69062">
        <ele>37.865</ele>
        <time>2020-05-14T14:02:59Z</time>
      </trkpt>
      <trkpt lat="43.27673" lon="-1.69062">
        <ele>38.385</ele>
        <time>2020-05-14T14:03:19Z</time>
      </trkpt>
      <trkpt lat="43.27651" lon="-1.69061">
        <ele>38.432</ele>
        <time>2020-05-14T14:03:39Z</time>
      </trkpt>
      <trkpt lat="43.27625" lon="-1.69058">
        <ele>38.484</ele>
        <time>2020-05-14T14:03:59Z</time>
      </trkpt>
      <trkpt lat="43.27593" lon="-1.69055">
        <ele>38.369</ele>
        <time>2020-05-14T14:04:19Z</time>
      </trkpt>
      <trkpt lat="43.27573" lon="-1.69054">
        <ele>38.404</ele>
        <time>2020-05-14T14:04:39Z</time>
      </trkpt>
      <trkpt lat="43.27541" lon="-1.6905">
        <ele>38.424</ele>
        <time>2020-05-14T14:04:59Z</time>
      </trkpt>
      <trkpt lat="43.27527" lon="-1.69048">
        <ele>38.208</ele>
        <time>2020-05-14T14:05:19Z</time>
      </trkpt>
      <trkpt lat="43.27518" lon="-1.69042">
        <ele>37.71</ele>
        <time>2020-05-14T14:05:39Z</time>
      </trkpt>
      <trkpt lat="43.27515" lon="-1.69041">
        <ele>37.795</ele>
        <time>2020-05-14T14:05:59Z</time>
      </trkpt>
      <trkpt lat="43.27516" lon="-1.69037">
        <ele>37.799</ele>
        <time>2020-05-14T14:06:19Z</time>
      </trkpt>
      <trkpt lat="43.27514" lon="-1.69036">
        <ele>37.767</ele>
        <time>2020-05-14T14:06:39Z</time>
      </trkpt>
      <trkpt lat="43.27494" lon="-1.69026">
        <ele>37.712</ele>
        <time>2020-05-14T14:06:59Z</time>
      </trkpt>
      <trkpt lat="43.27476" lon="-1.6902">
        <ele>37.822</ele>
        <time>2020-05-14T14:07:19Z</time>
      </trkpt>
      <trkpt lat="43.27466" lon="-1.69016">
        <ele>37.669</ele>
        <time>2020-05-14T14:07:39Z</time>
      </trkpt>
      <trkpt lat="43.27453" lon="-1.69011">
        <ele>37.811</ele>
        <time>2020-05-14T14:07:59Z</time>
      </trkpt>
      <trkpt lat="43.27444" lon="-1.69009">
        <ele>37.968</ele>
        <time>2020-05-14T14:08:19Z</time>
      </trkpt>
      <trkpt lat="43.27435" lon="-1.69008">
        <ele>38.042</ele>
        <time>2020-05-14T14:08:39Z</time>
      </trkpt>
      <trkpt lat="43.27415" lon="-1.69006">
        <ele>38.026</ele>
        <time>2020-05-14T14:08:59Z</time>
      </trkpt>
      <trkpt lat="43.27404" lon="-1.69002">
        <ele>37.908</ele>
        <time>2020-05-14T14:09:19Z</time>
      </trkpt>
      <trkpt lat="43.27389" lon="-1.68996">
        <ele>38.12</ele>
        <time>2020-05-14T14:09:39Z</time>
      </trkpt>
      <trkpt lat="43.27372" lon="-1.68992">
        <ele>38.245</ele>
        <time>2020-05-14T14:09:59Z</time>
      </trkpt>
      <trkpt lat="43.27351" lon="-1.68987">
        <ele>38.229</ele>
        <time>2020-05-14T14:10:19Z</time>
      </trkpt>
      <trkpt lat="43.27345" lon="-1.68986">
        <ele>38.377</ele>
        <time>2020-05-14T14:10:39Z</time>
      </trkpt>
      <trkpt lat="43.27334" lon="-1.68985">
        <ele>38.262</ele>
        <time>2020-05-14T14:10:59Z</time>
      </trkpt>
      <trkpt lat="43.27323" lon="-1.68986">
        <ele>37.932</ele>
        <time>2020-05-14T14:11:19Z</time>
      </trkpt>
      <trkpt lat="43.27311" lon="-1.68984">
        <ele>37.159</ele>
        <time>2020-05-14T14:11:39Z</time>
      </trkpt>
      <trkpt lat="43.27303" lon="-1.6898">
        <ele>37.221</ele>
        <time>2020-05-14T14:11:59Z</time>
      </trkpt>
      <trkpt lat="43.27296" lon="-1.68976">
        <ele>36.259</ele>
        <time>2020-05-14T14:12:19Z</time>
      </trkpt>
      <trkpt lat="43.27281" lon="-1.68969">
        <ele>35.003</ele>
        <time>2020-05-14T14:12:39Z</time>
      </trkpt>
      <trkpt lat="43.27274" lon="-1.68966">
        <ele>34.823</ele>
        <time>2020-05-14T14:12:59Z</time>
      </trkpt>
      <trkpt lat="43.27261" lon="-1.68965">
        <ele>34.108</ele>
        <time>2020-05-14T14:13:19Z</time>
      </trkpt>
      <trkpt lat="43.27256" lon="-1.68966">
        <ele>38.399</ele>
        <time>2020-05-14T14:13:39Z</time>
      </trkpt>
      <trkpt lat="43.27252" lon="-1.68966">
        <ele>38.374</ele>
        <time>2020-05-14T14:13:59Z</time>
      </trkpt>
      <trkpt lat="43.27251" lon="-1.68967">
        <ele>38.338</ele>
        <time>2020-05-14T14:14:19Z</time>
      </trkpt>
      <trkpt lat="43.27236" lon="-1.68971">
        <ele>38.446</ele>
        <time>2020-05-14T14:14:39Z</time>
      </trkpt>
      <trkpt lat="43.27235" lon="-1.68971">
        <ele>38.461</ele>
        <time>2020-05-14T14:14:59Z</time>
      </trkpt>
      <trkpt lat="43.27228" lon="-1.68973">
        <ele>38.381</ele>
        <time>2020-05-14T14:15:19Z</time>
      </trkpt>
      <trkpt lat="43.27222" lon="-1.68974">
        <ele>38.358</ele>
        <time>2020-05-14T14:15:39Z</time>
      </trkpt>
      <trkpt lat="43.27219" lon="-1.68974">
        <ele>38.36</ele>
        <time>2020-05-14T14:15:59Z</time>
      </trkpt>
      <trkpt lat="43.27214" lon="-1.68974">
        <ele>37.218</ele>
        <time>2020-05-14T14:16:19Z</time>
      </trkpt>
      <trkpt lat="43.27213" lon="-1.68974">
        <ele>37.298</ele>
        <time>2020-05-14T14:16:39Z</time>
      </trkpt>
      <trkpt lat="43.27205" lon="-1.68972">
        <ele>35.417</ele>
        <time>2020-05-14T14:16:59Z</time>
      </trkpt>
      <trkpt lat="43.27201" lon="-1.6897">
        <ele>35.408</ele>
        <time>2020-05-14T14:17:19Z</time>
      </trkpt>
      <trkpt lat="43.27194" lon="-1.68956">
        <ele>36.995</ele>
        <time>2020-05-14T14:17:39Z</time>
      </trkpt>
      <trkpt lat="43.27191" lon="-1.68948">
        <ele>37.38</ele>
        <time>2020-05-14T14:17:59Z</time>
      </trkpt>
      <trkpt lat="43.27183" lon="-1.6894">
        <ele>37.654</ele>
        <time>2020-05-14T14:18:19Z</time>
      </trkpt>
      <trkpt lat="43.2716" lon="-1.68918">
        <ele>38.482</ele>
        <time>2020-05-14T14:18:39Z</time>
      </trkpt>
      <trkpt lat="43.27149" lon="-1.68912">
        <ele>38.587</ele>
        <time>2020-05-14T14:18:59Z</time>
      </trkpt>
      <trkpt lat="43.27142" lon="-1.68905">
        <ele>38.717</ele>
        <time>2020-05-14T14:19:19Z</time>
      </trkpt>
      <trkpt lat="43.27141" lon="-1.689">
        <ele>38.744</ele>
        <time>2020-05-14T14:19:39Z</time>
      </trkpt>
      <trkpt lat="43.27139" lon="-1.689">
        <ele>38.716</ele>
        <time>2020-05-14T14:19:59Z</time>
      </trkpt>
      <trkpt lat="43.27136" lon="-1.68896">
        <ele>39.148</ele>
        <time>2020-05-14T14:20:19Z</time>
      </trkpt>
      <trkpt lat="43.27134" lon="-1.68891">
        <ele>38.861</ele>
        <time>2020-05-14T14:20:39Z</time>
      </trkpt>
      <trkpt lat="43.27131" lon="-1.68886">
        <ele>39.017</ele>
        <time>2020-05-14T14:20:59Z</time>
      </trkpt>
      <trkpt lat="43.27128" lon="-1.68884">
        <ele>39.008</ele>
        <time>2020-05-14T14:21:19Z</time>
      </trkpt>
      <trkpt lat="43.27126" lon="-1.68882">
        <ele>39.228</ele>
        <time>2020-05-14T14:21:39Z</time>
      </trkpt>
      <trkpt lat="43.27123" lon="-1.68879">
        <ele>39.463</ele>
        <time>2020-05-14T14:21:59Z</time>
      </trkpt>
      <trkpt lat="43.27119" lon="-1.68875">
        <ele>39.357</ele>
        <time>2020-05-14T14:22:19Z</time>
      </trkpt>
      <trkpt lat="43.27111" lon="-1.68868">
        <ele>39.415</ele>
        <time>2020-05-14T14:22:39Z</time>
      </trkpt>
      <trkpt lat="43.27106" lon="-1.68865">
        <ele>39.67</ele>
        <time>2020-05-14T14:22:59Z</time>
      </trkpt>
      <trkpt lat="43.27102" lon="-1.68862">
        <ele>39.78</ele>
        <time>2020-05-14T14:23:19Z</time>
      </trkpt>
      <trkpt lat="43.27097" lon="-1.68859">
        <ele>39.827</ele>
        <time>2020-05-14T14:23:39Z</time>
      </trkpt>
      <trkpt lat="43.27093" lon="-1.68856">
        <ele>39.839</ele>
        <time>2020-05-14T14:23:59Z</time>
      </trkpt>
      <trkpt lat="43.27087" lon="-1.68852">
        <ele>39.884</ele>
        <time>2020-05-14T14:24:19Z</time>
      </trkpt>
      <trkpt lat="43.27085" lon="-1.68851">
        <ele>39.807</ele>
        <time>2020-05-14T14:24:39Z</time>
      </trkpt>
      <trkpt lat="43.27084" lon="-1.6885">
        <ele>39.817</ele>
        <time>2020-05-14T14:24:59Z</time>
      </trkpt>
      <trkpt lat="43.27083" lon="-1.6885">
        <ele>39.808</ele>
        <time>2020-05-14T14:25:19Z</time>
      </trkpt>
      <trkpt lat="43.27072" lon="-1.68844">
        <ele>39.832</ele>
        <time>2020-05-14T14:25:39Z</time>
      </trkpt>
      <trkpt lat="43.27066" lon="-1.68841">
        <ele>39.747</ele>
        <time>2020-05-14T14:25:59Z</time>
      </trkpt>
      <trkpt lat="43.2706" lon="-1.68838">
        <ele>39.881</ele>
        <time>2020-05-14T14:26:19Z</time>
      </trkpt>
      <trkpt lat="43.27055" lon="-1.68836">
        <ele>39.869</ele>
        <time>2020-05-14T14:26:39Z</time>
      </trkpt>
      <trkpt lat="43.27051" lon="-1.68834">
        <ele>39.854</ele>
        <time>2020-05-14T14:26:59Z</time>
      </trkpt>
      <trkpt lat="43.27046" lon="-1.68831">
        <ele>39.984</ele>
        <time>2020-05-14T14:27:19Z</time>
      </trkpt>
      <trkpt lat="43.27041" lon="-1.68828">
        <ele>40.041</ele>
        <time>2020-05-14T14:27:39Z</time>
      </trkpt>
      <trkpt lat="43.27039" lon="-1.68827">
        <ele>40.083</ele>
        <time>2020-05-14T14:27:59Z</time>
      </trkpt>
      <trkpt lat="43.27032" lon="-1.68824">
        <ele>40.235</ele>
        <time>2020-05-14T14:28:19Z</time>
      </trkpt>
      <trkpt lat="43.27026" lon="-1.68822">
        <ele>40.186</ele>
        <time>2020-05-14T14:28:39Z</time>
      </trkpt>
      <trkpt lat="43.27024" lon="-1.68821">
        <ele>40.114</ele>
        <time>2020-05-14T14:28:59Z</time>
      </trkpt>
      <trkpt lat="43.27021" lon="-1.68819">
        <ele>40.108</ele>
        <time>2020-05-14T14:29:19Z</time>
      </trkpt>
      <trkpt lat="43.2702" lon="-1.68819">
        <ele>40.127</ele>
        <time>2020-05-14T14:29:39Z</time>
      </trkpt>
      <trkpt lat="43.27014" lon="-1.68814">
        <ele>38.442</ele>
        <time>2020-05-14T14:29:59Z</time>
      </trkpt>
      <trkpt lat="43.27008" lon="-1.6881">
        <ele>39.716</ele>
        <time>2020-05-14T14:30:19Z</time>
      </trkpt>
      <trkpt lat="43.27004" lon="-1.68806">
        <ele>39.774</ele>
        <time>2020-05-14T14:30:39Z</time>
      </trkpt>
      <trkpt lat="43.26999" lon="-1.68802">
        <ele>39.869</ele>
        <time>2020-05-14T14:30:59Z</time>
      </trkpt>
      <trkpt lat="43.26992" lon="-1.68795">
        <ele>39.729</ele>
        <time>2020-05-14T14:31:19Z</time>
      </trkpt>
      <trkpt lat="43.26988" lon="-1.68789">
        <ele>39.866</ele>
        <time>2020-05-14T14:31:39Z</time>
      </trkpt>
      <trkpt lat="43.26986" lon="-1.68786">
        <ele>40.118</ele>
        <time>2020-05-14T14:31:59Z</time>
      </trkpt>
      <trkpt lat="43.26985" lon="-1.68785">
        <ele>40.127</ele>
        <time>2020-05-14T14:32:19Z</time>
      </trkpt>
      <trkpt lat="43.26983" lon="-1.68781">
        <ele>40.068</ele>
        <time>2020-05-14T14:32:39Z</time>
      </trkpt>
      <trkpt lat="43.26982" lon="-1.68779">
        <ele>46.314</ele>
        <time>2020-05-14T14:32:59Z</time>
      </trkpt>
      <trkpt lat="43.26976" lon="-1.68767">
        <ele>42.408</ele>
        <time>2020-05-14T14:33:19Z</time>
      </trkpt>
      <trkpt lat="43.26974" lon="-1.68761">
        <ele>40.516</ele>
        <time>2020-05-14T14:33:39Z</time>
      </trkpt>
      <trkpt lat="43.26971" lon="-1.68756">
        <ele>40.671</ele>
        <time>2020-05-14T14:33:59Z</time>
      </trkpt>
      <trkpt lat="43.26971" lon="-1.68754">
        <ele>40.685</ele>
        <time>2020-05-14T14:34:19Z</time>
      </trkpt>
      <trkpt lat="43.2697" lon="-1.68752">
        <ele>40.623</ele>
        <time>2020-05-14T14:34:39Z</time>
      </trkpt>
      <trkpt lat="43.2697" lon="-1.68751">
        <ele>40.658</ele>
        <time>2020-05-14T14:34:59Z</time>
      </trkpt>
      <trkpt lat="43.26968" lon="-1.68744">
        <ele>40.628</ele>
        <time>2020-05-14T14:35:19Z</time>
      </trkpt>
      <trkpt lat="43.26966" lon="-1.68736">
        <ele>40.555</ele>
        <time>2020-05-14T14:35:39Z</time>
      </trkpt>
      <trkpt lat="43.26963" lon="-1.68728">
        <ele>41.157</ele>
        <time>2020-05-14T14:35:59Z</time>
      </trkpt>
      <trkpt lat="43.26961" lon="-1.68719">
        <ele>40.881</ele>
        <time>2020-05-14T14:36:19Z</time>
      </trkpt>
      <trkpt lat="43.26959" lon="-1.68716">
        <ele>43.861</ele>
        <time>2020-05-14T14:36:39Z</time>
      </trkpt>
      <trkpt lat="43.26956" lon="-1.68713">
        <ele>41.017</ele>
        <time>2020-05-14T14:36:59Z</time>
      </trkpt>
      <trkpt lat="43.26955" lon="-1.68711">
        <ele>41.008</ele>
        <time>2020-05-14T14:37:19Z</time>
      </trkpt>
      <trkpt lat="43.26955" lon="-1.6871">
        <ele>41.022</ele>
        <time>2020-05-14T14:37:39Z</time>
      </trkpt>
      <trkpt lat="43.26954" lon="-1.68708">
        <ele>46.487</ele>
        <time>2020-05-14T14:37:59Z</time>
      </trkpt>
      <trkpt lat="43.26954" lon="-1.68707">
        <ele>46.431</ele>
        <time>2020-05-14T14:38:19Z</time>
      </trkpt>
      <trkpt lat="43.26951" lon="-1.68694">
        <ele>41.049</ele>
        <time>2020-05-14T14:38:39Z</time>
      </trkpt>
      <trkpt lat="43.26948" lon="-1.6868">
        <ele>41.114</ele>
        <time>2020-05-14T14:38:59Z</time>
      </trkpt>
      <trkpt lat="43.26943" lon="-1.68655">
        <ele>45.064</ele>
        <time>2020-05-14T14:39:19Z</time>
      </trkpt>
      <trkpt lat="43.26935" lon="-1.68609">
        <ele>41.381</ele>
        <time>2020-05-14T14:39:39Z</time>
      </trkpt>
      <trkpt lat="43.26933" lon="-1.68595">
        <ele>41.273</ele>
        <time>2020-05-14T14:39:59Z</time>
      </trkpt>
      <trkpt lat="43.26928" lon="-1.68574">
        <ele>41.399</ele>
        <time>2020-05-14T14:40:19Z</time>
      </trkpt>
      <trkpt lat="43.26926" lon="-1.68563">
        <ele>41.907</ele>
        <time>2020-05-14T14:40:39Z</time>
      </trkpt>
      <trkpt lat="43.26924" lon="-1.68556">
        <ele>41.627</ele>
        <time>2020-05-14T14:40:59Z</time>
      </trkpt>
      <trkpt lat="43.26921" lon="-1.68545">
        <ele>41.508</ele>
        <time>2020-05-14T14:41:19Z</time>
      </trkpt>
      <trkpt lat="43.2692" lon="-1.68541">
        <ele>41.663</ele>
        <time>2020-05-14T14:41:39Z</time>
      </trkpt>
      <trkpt lat="43.26918" lon="-1.68536">
        <ele>41.748</ele>
        <time>2020-05-14T14:41:59Z</time>
      </trkpt>
      <trkpt lat="43.26915" lon="-1.6853">
        <ele>41.672</ele>
        <time>2020-05-14T14:42:19Z</time>
      </trkpt>
      <trkpt lat="43.26913" lon="-1.68525">
        <ele>41.61</ele>
        <time>2020-05-14T14:42:39Z</time>
      </trkpt>
      <trkpt lat="43.2691" lon="-1.6852">
        <ele>41.915</ele>
        <time>2020-05-14T14:42:59Z</time>
      </trkpt>
      <trkpt lat="43.26907" lon="-1.68514">
        <ele>47.085</ele>
        <time>2020-05-14T14:43:19Z</time>
      </trkpt>
      <trkpt lat="43.26903" lon="-1.68509">
        <ele>46.122</ele>
        <time>2020-05-14T14:43:39Z</time>
      </trkpt>
      <trkpt lat="43.26896" lon="-1.685">
        <ele>41.844</ele>
        <time>2020-05-14T14:43:59Z</time>
      </trkpt>
      <trkpt lat="43.26892" lon="-1.68495">
        <ele>45.593</ele>
        <time>2020-05-14T14:44:19Z</time>
      </trkpt>
      <trkpt lat="43.26887" lon="-1.6849">
        <ele>42.265</ele>
        <time>2020-05-14T14:44:39Z</time>
      </trkpt>
      <trkpt lat="43.26881" lon="-1.68484">
        <ele>41.721</ele>
        <time>2020-05-14T14:44:59Z</time>
      </trkpt>
      <trkpt lat="43.26874" lon="-1.68478">
        <ele>41.808</ele>
        <time>2020-05-14T14:45:19Z</time>
      </trkpt>
      <trkpt lat="43.2686" lon="-1.68471">
        <ele>41.873</ele>
        <time>2020-05-14T14:45:39Z</time>
      </trkpt>
      <trkpt lat="43.26851" lon="-1.68467">
        <ele>41.758</ele>
        <time>2020-05-14T14:45:59Z</time>
      </trkpt>
      <trkpt lat="43.26842" lon="-1.68464">
        <ele>41.762</ele>
        <time>2020-05-14T14:46:19Z</time>
      </trkpt>
      <trkpt lat="43.26837" lon="-1.68463">
        <ele>41.72</ele>
        <time>2020-05-14T14:46:39Z</time>
      </trkpt>
      <trkpt lat="43.26831" lon="-1.68463">
        <ele>41.725</ele>
        <time>2020-05-14T14:46:59Z</time>
      </trkpt>
      <trkpt lat="43.26824" lon="-1.68463">
        <ele>41.755</ele>
        <time>2020-05-14T14:47:19Z</time>
      </trkpt>
      <trkpt lat="43.26816" lon="-1.68462">
        <ele>41.822</ele>
        <time>2020-05-14T14:47:39Z</time>
      </trkpt>
      <trkpt lat="43.26807" lon="-1.68463">
        <ele>41.894</ele>
        <time>2020-05-14T14:47:59Z</time>
      </trkpt>
      <trkpt lat="43.26802" lon="-1.68464">
        <ele>41.866</ele>
        <time>2020-05-14T14:48:19Z</time>
      </trkpt>
      <trkpt lat="43.26796" lon="-1.68467">
        <ele>41.729</ele>
        <time>2020-05-14T14:48:39Z</time>
      </trkpt>
      <trkpt lat="43.2679" lon="-1.68469">
        <ele>41.721</ele>
        <time>2020-05-14T14:48:59Z</time>
      </trkpt>
      <trkpt lat="43.26787" lon="-1.68471">
        <ele>41.808</ele>
        <time>2020-05-14T14:49:19Z</time>
      </trkpt>
      <trkpt lat="43.26784" lon="-1.68473">
        <ele>40.65</ele>
        <time>2020-05-14T14:49:39Z</time>
      </trkpt>
      <trkpt lat="43.26776" lon="-1.68478">
        <ele>41.725</ele>
        <time>2020-05-14T14:49:59Z</time>
      </trkpt>
      <trkpt lat="43.26758" lon="-1.68491">
        <ele>41.799</ele>
        <time>2020-05-14T14:50:19Z</time>
      </trkpt>
      <trkpt lat="43.26739" lon="-1.68504">
        <ele>41.627</ele>
        <time>2020-05-14T14:50:39Z</time>
      </trkpt>
      <trkpt lat="43.26733" lon="-1.68508">
        <ele>41.712</ele>
        <time>2020-05-14T14:50:59Z</time>
      </trkpt>
      <trkpt lat="43.26726" lon="-1.68512">
        <ele>41.192</ele>
        <time>2020-05-14T14:51:19Z</time>
      </trkpt>
      <trkpt lat="43.26714" lon="-1.6852">
        <ele>40.849</ele>
        <time>2020-05-14T14:51:39Z</time>
      </trkpt>
      <trkpt lat="43.26705" lon="-1.68527">
        <ele>40.441</ele>
        <time>2020-05-14T14:51:59Z</time>
      </trkpt>
      <trkpt lat="43.26699" lon="-1.68531">
        <ele>40.499</ele>
        <time>2020-05-14T14:52:19Z</time>
      </trkpt>
      <trkpt lat="43.26698" lon="-1.68532">
        <ele>40.407</ele>
        <time>2020-05-14T14:52:39Z</time>
      </trkpt>
      <trkpt lat="43.26696" lon="-1.68533">
        <ele>40.427</ele>
        <time>2020-05-14T14:52:59Z</time>
      </trkpt>
      <trkpt lat="43.26679" lon="-1.68546">
        <ele>41.708</ele>
        <time>2020-05-14T14:53:19Z</time>
      </trkpt>
      <trkpt lat="43.26662" lon="-1.68558">
        <ele>41.963</ele>
        <time>2020-05-14T14:53:39Z</time>
      </trkpt>
      <trkpt lat="43.2665" lon="-1.68566">
        <ele>42.028</ele>
        <time>2020-05-14T14:53:59Z</time>
      </trkpt>
      <trkpt lat="43.26638" lon="-1.68574">
        <ele>46.142</ele>
        <time>2020-05-14T14:54:19Z</time>
      </trkpt>
      <trkpt lat="43.26634" lon="-1.68577">
        <ele>43.13</ele>
        <time>2020-05-14T14:54:39Z</time>
      </trkpt>
      <trkpt lat="43.2663" lon="-1.6858">
        <ele>42.255</ele>
        <time>2020-05-14T14:54:59Z</time>
      </trkpt>
      <trkpt lat="43.26619" lon="-1.6859">
        <ele>41.995</ele>
        <time>2020-05-14T14:55:19Z</time>
      </trkpt>
      <trkpt lat="43.26613" lon="-1.68596">
        <ele>41.992</ele>
        <time>2020-05-14T14:55:39Z</time>
      </trkpt>
      <trkpt lat="43.26606" lon="-1.68603">
        <ele>41.984</ele>
        <time>2020-05-14T14:55:59Z</time>
      </trkpt>
      <trkpt lat="43.266" lon="-1.6861">
        <ele>41.983</ele>
        <time>2020-05-14T14:56:19Z</time>
      </trkpt>
      <trkpt lat="43.26594" lon="-1.68617">
        <ele>41.925</ele>
        <time>2020-05-14T14:56:39Z</time>
      </trkpt>
      <trkpt lat="43.26587" lon="-1.68626">
        <ele>42.017</ele>
        <time>2020-05-14T14:56:59Z</time>
      </trkpt>
      <trkpt lat="43.26579" lon="-1.68636">
        <ele>41.708</ele>
        <time>2020-05-14T14:57:19Z</time>
      </trkpt>
      <trkpt lat="43.26574" lon="-1.68641">
        <ele>41.782</ele>
        <time>2020-05-14T14:57:39Z</time>
      </trkpt>
      <trkpt lat="43.26569" lon="-1.68647">
        <ele>41.737</ele>
        <time>2020-05-14T14:57:59Z</time>
      </trkpt>
      <trkpt lat="43.26563" lon="-1.68653">
        <ele>42.061</ele>
        <time>2020-05-14T14:58:19Z</time>
      </trkpt>
      <trkpt lat="43.26556" lon="-1.6866">
        <ele>41.819</ele>
        <time>2020-05-14T14:58:39Z</time>
      </trkpt>
      <trkpt lat="43.26538" lon="-1.68677">
        <ele>42.214</ele>
        <time>2020-05-14T14:58:59Z</time>
      </trkpt>
      <trkpt lat="43.26527" lon="-1.68687">
        <ele>41.894</ele>
        <time>2020-05-14T14:59:19Z</time>
      </trkpt>
      <trkpt lat="43.26515" lon="-1.68697">
        <ele>41.981</ele>
        <time>2020-05-14T14:59:39Z</time>
      </trkpt>
      <trkpt lat="43.26503" lon="-1.68706">
        <ele>42.113</ele>
        <time>2020-05-14T14:59:59Z</time>
      </trkpt>
      <trkpt lat="43.2649" lon="-1.68717">
        <ele>41.089</ele>
        <time>2020-05-14T15:00:19Z</time>
      </trkpt>
      <trkpt lat="43.26478" lon="-1.68727">
        <ele>44.606</ele>
        <time>2020-05-14T15:00:39Z</time>
      </trkpt>
      <trkpt lat="43.26474" lon="-1.6873">
        <ele>42.026</ele>
        <time>2020-05-14T15:00:59Z</time>
      </trkpt>
      <trkpt lat="43.2647" lon="-1.68733">
        <ele>42.208</ele>
        <time>2020-05-14T15:01:19Z</time>
      </trkpt>
      <trkpt lat="43.26462" lon="-1.68738">
        <ele>42.382</ele>
        <time>2020-05-14T15:01:39Z</time>
      </trkpt>
      <trkpt lat="43.26456" lon="-1.68741">
        <ele>42.157</ele>
        <time>2020-05-14T15:01:59Z</time>
      </trkpt>
      <trkpt lat="43.26451" lon="-1.68744">
        <ele>42.211</ele>
        <time>2020-05-14T15:02:19Z</time>
      </trkpt>
      <trkpt lat="43.26445" lon="-1.68746">
        <ele>42.219</ele>
        <time>2020-05-14T15:02:39Z</time>
      </trkpt>
      <trkpt lat="43.2644" lon="-1.68748">
        <ele>42.114</ele>
        <time>2020-05-14T15:02:59Z</time>
      </trkpt>
      <trkpt lat="43.26437" lon="-1.6875">
        <ele>42.354</ele>
        <time>2020-05-14T15:03:19Z</time>
      </trkpt>
      <trkpt lat="43.2643" lon="-1.68752">
        <ele>42.651</ele>
        <time>2020-05-14T15:03:39Z</time>
      </trkpt>
      <trkpt lat="43.26429" lon="-1.68752">
        <ele>42.663</ele>
        <time>2020-05-14T15:03:59Z</time>
      </trkpt>
      <trkpt lat="43.26426" lon="-1.68753">
        <ele>42.521</ele>
        <time>2020-05-14T15:04:19Z</time>
      </trkpt>
      <trkpt lat="43.26414" lon="-1.68756">
        <ele>42.441</ele>
        <time>2020-05-14T15:04:39Z</time>
      </trkpt>
      <trkpt lat="43.26408" lon="-1.68757">
        <ele>42.405</ele>
        <time>2020-05-14T15:04:59Z</time>
      </trkpt>
      <trkpt lat="43.26402" lon="-1.68758">
        <ele>42.908</ele>
        <time>2020-05-14T15:05:19Z</time>
      </trkpt>
      <trkpt lat="43.26398" lon="-1.68759">
        <ele>42.866</ele>
        <time>2020-05-14T15:05:39Z</time>
      </trkpt>
      <trkpt lat="43.26393" lon="-1.68759">
        <ele>42.811</ele>
        <time>2020-05-14T15:05:59Z</time>
      </trkpt>
      <trkpt lat="43.26384" lon="-1.68759">
        <ele>42.825</ele>
        <time>2020-05-14T15:06:19Z</time>
      </trkpt>
      <trkpt lat="43.26377" lon="-1.68759">
        <ele>43.313</ele>
        <time>2020-05-14T15:06:39Z</time>
      </trkpt>
      <trkpt lat="43.26371" lon="-1.68758">
        <ele>43.748</ele>
        <time>2020-05-14T15:06:59Z</time>
      </trkpt>
      <trkpt lat="43.26355" lon="-1.68757">
        <ele>42.778</ele>
        <time>2020-05-14T15:07:19Z</time>
      </trkpt>
      <trkpt lat="43.26351" lon="-1.68756">
        <ele>42.935</ele>
        <time>2020-05-14T15:07:39Z</time>
      </trkpt>
      <trkpt lat="43.26348" lon="-1.68756">
        <ele>42.977</ele>
        <time>2020-05-14T15:07:59Z</time>
      </trkpt>
      <trkpt lat="43.26345" lon="-1.68755">
        <ele>43.986</ele>
        <time>2020-05-14T15:08:19Z</time>
      </trkpt>
      <trkpt lat="43.26341" lon="-1.68753">
        <ele>44.66</ele>
        <time>2020-05-14T15:08:39Z</time>
      </trkpt>
      <trkpt lat="43.26339" lon="-1.68752">
        <ele>42.426</ele>
        <time>2020-05-14T15:08:59Z</time>
      </trkpt>
      <trkpt lat="43.26339" lon="-1.68752">
        <ele>42.408</ele>
        <time>2020-05-14T15:09:19Z</time>
      </trkpt>
      <trkpt lat="43.26282" lon="-1.68724">
        <ele>43.272</ele>
        <time>2020-05-14T15:09:39Z</time>
      </trkpt>
      <trkpt lat="43.26276" lon="-1.68721">
        <ele>43.267</ele>
        <time>2020-05-14T15:09:59Z</time>
      </trkpt>
      <trkpt lat="43.2627" lon="-1.68717">
        <ele>44.021</ele>
        <time>2020-05-14T15:10:19Z</time>
      </trkpt>
      <trkpt lat="43.26264" lon="-1.68713">
        <ele>43.489</ele>
        <time>2020-05-14T15:10:39Z</time>
      </trkpt>
      <trkpt lat="43.2626" lon="-1.6871">
        <ele>43.484</ele>
        <time>2020-05-14T15:10:59Z</time>
      </trkpt>
      <trkpt lat="43.2625" lon="-1.68701">
        <ele>43.384</ele>
        <time>2020-05-14T15:11:19Z</time>
      </trkpt>
      <trkpt lat="43.26242" lon="-1.68693">
        <ele>43.691</ele>
        <time>2020-05-14T15:11:39Z</time>
      </trkpt>
      <trkpt lat="43.26234" lon="-1.68685">
        <ele>43.743</ele>
        <time>2020-05-14T15:11:59Z</time>
      </trkpt>
      <trkpt lat="43.2622" lon="-1.68672">
        <ele>43.666</ele>
        <time>2020-05-14T15:12:19Z</time>
      </trkpt>
      <trkpt lat="43.26207" lon="-1.68659">
        <ele>43.529</ele>
        <time>2020-05-14T15:12:39Z</time>
      </trkpt>
      <trkpt lat="43.26198" lon="-1.6865">
        <ele>42.521</ele>
        <time>2020-05-14T15:12:59Z</time>
      </trkpt>
      <trkpt lat="43.26189" lon="-1.68641">
        <ele>43.608</ele>
        <time>2020-05-14T15:13:19Z</time>
      </trkpt>
      <trkpt lat="43.26185" lon="-1.68636">
        <ele>43.77</ele>
        <time>2020-05-14T15:13:39Z</time>
      </trkpt>
      <trkpt lat="43.2618" lon="-1.68631">
        <ele>43.635</ele>
        <time>2020-05-14T15:13:59Z</time>
      </trkpt>
      <trkpt lat="43.26176" lon="-1.68625">
        <ele>43.519</ele>
        <time>2020-05-14T15:14:19Z</time>
      </trkpt>
      <trkpt lat="43.26172" lon="-1.6862">
        <ele>43.577</ele>
        <time>2020-05-14T15:14:39Z</time>
      </trkpt>
      <trkpt lat="43.26154" lon="-1.68596">
        <ele>44.112</ele>
        <time>2020-05-14T15:14:59Z</time>
      </trkpt>
      <trkpt lat="43.26146" lon="-1.68585">
        <ele>44.492</ele>
        <time>2020-05-14T15:15:19Z</time>
      </trkpt>
      <trkpt lat="43.26144" lon="-1.68581">
        <ele>44.459</ele>
        <time>2020-05-14T15:15:39Z</time>
      </trkpt>
      <trkpt lat="43.26142" lon="-1.68577">
        <ele>44.511</ele>
        <time>2020-05-14T15:15:59Z</time>
      </trkpt>
      <trkpt lat="43.26136" lon="-1.68566">
        <ele>44.291</ele>
        <time>2020-05-14T15:16:19Z</time>
      </trkpt>
      <trkpt lat="43.26127" lon="-1.68549">
        <ele>44.081</ele>
        <time>2020-05-14T15:16:39Z</time>
      </trkpt>
      <trkpt lat="43.26118" lon="-1.6853">
        <ele>44.019</ele>
        <time>2020-05-14T15:16:59Z</time>
      </trkpt>
      <trkpt lat="43.26108" lon="-1.68512">
        <ele>44.508</ele>
        <time>2020-05-14T15:17:19Z</time>
      </trkpt>
      <trkpt lat="43.26103" lon="-1.68502">
        <ele>44.433</ele>
        <time>2020-05-14T15:17:39Z</time>
      </trkpt>
      <trkpt lat="43.26097" lon="-1.68493">
        <ele>44.358</ele>
        <time>2020-05-14T15:17:59Z</time>
      </trkpt>
      <trkpt lat="43.26094" lon="-1.68486">
        <ele>44.462</ele>
        <time>2020-05-14T15:18:19Z</time>
      </trkpt>
      <trkpt lat="43.26091" lon="-1.6848">
        <ele>44.45</ele>
        <time>2020-05-14T15:18:39Z</time>
      </trkpt>
      <trkpt lat="43.26078" lon="-1.68451">
        <ele>44.835</ele>
        <time>2020-05-14T15:18:59Z</time>
      </trkpt>
      <trkpt lat="43.26068" lon="-1.68429">
        <ele>44.765</ele>
        <time>2020-05-14T15:19:19Z</time>
      </trkpt>
      <trkpt lat="43.26064" lon="-1.6842">
        <ele>45.092</ele>
        <time>2020-05-14T15:19:39Z</time>
      </trkpt>
      <trkpt lat="43.26059" lon="-1.68409">
        <ele>45.164</ele>
        <time>2020-05-14T15:19:59Z</time>
      </trkpt>
      <trkpt lat="43.2605" lon="-1.68385">
        <ele>45.532</ele>
        <time>2020-05-14T15:20:19Z</time>
      </trkpt>
      <trkpt lat="43.26044" lon="-1.68369">
        <ele>45.692</ele>
        <time>2020-05-14T15:20:39Z</time>
      </trkpt>
      <trkpt lat="43.26037" lon="-1.68353">
        <ele>44.911</ele>
        <time>2020-05-14T15:20:59Z</time>
      </trkpt>
      <trkpt lat="43.26035" lon="-1.68346">
        <ele>45.308</ele>
        <time>2020-05-14T15:21:19Z</time>
      </trkpt>
      <trkpt lat="43.26032" lon="-1.68339">
        <ele>45.747</ele>
        <time>2020-05-14T15:21:39Z</time>
      </trkpt>
      <trkpt lat="43.26025" lon="-1.68318">
        <ele>45.992</ele>
        <time>2020-05-14T15:21:59Z</time>
      </trkpt>
      <trkpt lat="43.26025" lon="-1.68315">
        <ele>45.526</ele>
        <time>2020-05-14T15:22:19Z</time>
      </trkpt>
      <trkpt lat="43.26024" lon="-1.68312">
        <ele>45.534</ele>
        <time>2020-05-14T15:22:39Z</time>
      </trkpt>
      <trkpt lat="43.26023" lon="-1.68306">
        <ele>45.569</ele>
        <time>2020-05-14T15:22:59Z</time>
      </trkpt>
      <trkpt lat="43.26022" lon="-1.68293">
        <ele>46.519</ele>
        <time>2020-05-14T15:23:19Z</time>
      </trkpt>
      <trkpt lat="43.26023" lon="-1.68279">
        <ele>43.846</ele>
        <time>2020-05-14T15:23:39Z</time>
      </trkpt>
      <trkpt lat="43.26023" lon="-1.68266">
        <ele>44.438</ele>
        <time>2020-05-14T15:23:59Z</time>
      </trkpt>
      <trkpt lat="43.26024" lon="-1.68241">
        <ele>45.273</ele>
        <time>2020-05-14T15:24:19Z</time>
      </trkpt>
      <trkpt lat="43.26024" lon="-1.68219">
        <ele>45.485</ele>
        <time>2020-05-14T15:24:39Z</time>
      </trkpt>
      <trkpt lat="43.26025" lon="-1.68206">
        <ele>45.613</ele>
        <time>2020-05-14T15:24:59Z</time>
      </trkpt>
      <trkpt lat="43.26027" lon="-1.68193">
        <ele>44.508</ele>
        <time>2020-05-14T15:25:19Z</time>
      </trkpt>
      <trkpt lat="43.26027" lon="-1.68184">
        <ele>45.211</ele>
        <time>2020-05-14T15:25:39Z</time>
      </trkpt>
      <trkpt lat="43.26027" lon="-1.68162">
        <ele>46.536</ele>
        <time>2020-05-14T15:25:59Z</time>
      </trkpt>
      <trkpt lat="43.26028" lon="-1.68144">
        <ele>47.26</ele>
        <time>2020-05-14T15:26:19Z</time>
      </trkpt>
      <trkpt lat="43.26026" lon="-1.68134">
        <ele>48.158</ele>
        <time>2020-05-14T15:26:39Z</time>
      </trkpt>
      <trkpt lat="43.26019" lon="-1.68119">
        <ele>50.123</ele>
        <time>2020-05-14T15:26:59Z</time>
      </trkpt>
      <trkpt lat="43.25997" lon="-1.68087">
        <ele>52.483</ele>
        <time>2020-05-14T15:27:19Z</time>
      </trkpt>
      <trkpt lat="43.2598" lon="-1.68062">
        <ele>53.06</ele>
        <time>2020-05-14T15:27:39Z</time>
      </trkpt>
      <trkpt lat="43.25965" lon="-1.68043">
        <ele>53.792</ele>
        <time>2020-05-14T15:27:59Z</time>
      </trkpt>
      <trkpt lat="43.25957" lon="-1.68033">
        <ele>54.058</ele>
        <time>2020-05-14T15:28:19Z</time>
      </trkpt>
      <trkpt lat="43.25947" lon="-1.68026">
        <ele>54.952</ele>
        <time>2020-05-14T15:28:39Z</time>
      </trkpt>
      <trkpt lat="43.25931" lon="-1.68018">
        <ele>55.617</ele>
        <time>2020-05-14T15:28:59Z</time>
      </trkpt>
      <trkpt lat="43.25929" lon="-1.68015">
        <ele>54.508</ele>
        <time>2020-05-14T15:29:19Z</time>
      </trkpt>
      <trkpt lat="43.25926" lon="-1.68013">
        <ele>54.529</ele>
        <time>2020-05-14T15:29:39Z</time>
      </trkpt>
      <trkpt lat="43.25921" lon="-1.68012">
        <ele>54.254</ele>
        <time>2020-05-14T15:29:59Z</time>
      </trkpt>
      <trkpt lat="43.25916" lon="-1.68012">
        <ele>53.828</ele>
        <time>2020-05-14T15:30:19Z</time>
      </trkpt>
      <trkpt lat="43.25912" lon="-1.68012">
        <ele>53.366</ele>
        <time>2020-05-14T15:30:39Z</time>
      </trkpt>
      <trkpt lat="43.25908" lon="-1.68013">
        <ele>53.361</ele>
        <time>2020-05-14T15:30:59Z</time>
      </trkpt>
      <trkpt lat="43.25906" lon="-1.68013">
        <ele>53.321</ele>
        <time>2020-05-14T15:31:19Z</time>
      </trkpt>
      <trkpt lat="43.25904" lon="-1.68013">
        <ele>53.338</ele>
        <time>2020-05-14T15:31:39Z</time>
      </trkpt>
      <trkpt lat="43.25899" lon="-1.68014">
        <ele>53.43</ele>
        <time>2020-05-14T15:31:59Z</time>
      </trkpt>
      <trkpt lat="43.25895" lon="-1.68015">
        <ele>53.237</ele>
        <time>2020-05-14T15:32:19Z</time>
      </trkpt>
      <trkpt lat="43.25891" lon="-1.68016">
        <ele>53.249</ele>
        <time>2020-05-14T15:32:39Z</time>
      </trkpt>
      <trkpt lat="43.25887" lon="-1.68017">
        <ele>54.213</ele>
        <time>2020-05-14T15:32:59Z</time>
      </trkpt>
      <trkpt lat="43.25884" lon="-1.68018">
        <ele>54.208</ele>
        <time>2020-05-14T15:33:19Z</time>
      </trkpt>
      <trkpt lat="43.25882" lon="-1.68019">
        <ele>53.427</ele>
        <time>2020-05-14T15:33:39Z</time>
      </trkpt>
      <trkpt lat="43.25879" lon="-1.68021">
        <ele>53.122</ele>
        <time>2020-05-14T15:33:59Z</time>
      </trkpt>
      <trkpt lat="43.25876" lon="-1.68023">
        <ele>53.156</ele>
        <time>2020-05-14T15:34:19Z</time>
      </trkpt>
      <trkpt lat="43.25871" lon="-1.68026">
        <ele>55.294</ele>
        <time>2020-05-14T15:34:39Z</time>
      </trkpt>
      <trkpt lat="43.25866" lon="-1.6803">
        <ele>53.079</ele>
        <time>2020-05-14T15:34:59Z</time>
      </trkpt>
      <trkpt lat="43.25858" lon="-1.68035">
        <ele>52.999</ele>
        <time>2020-05-14T15:35:19Z</time>
      </trkpt>
      <trkpt lat="43.2585" lon="-1.6804">
        <ele>52.996</ele>
        <time>2020-05-14T15:35:39Z</time>
      </trkpt>
      <trkpt lat="43.25832" lon="-1.6805">
        <ele>56.718</ele>
        <time>2020-05-14T15:35:59Z</time>
      </trkpt>
      <trkpt lat="43.25823" lon="-1.68055">
        <ele>52.715</ele>
        <time>2020-05-14T15:36:19Z</time>
      </trkpt>
      <trkpt lat="43.25809" lon="-1.68062">
        <ele>52.765</ele>
        <time>2020-05-14T15:36:39Z</time>
      </trkpt>
      <trkpt lat="43.25799" lon="-1.68067">
        <ele>52.811</ele>
        <time>2020-05-14T15:36:59Z</time>
      </trkpt>
      <trkpt lat="43.25779" lon="-1.68076">
        <ele>56.508</ele>
        <time>2020-05-14T15:37:19Z</time>
      </trkpt>
      <trkpt lat="43.25767" lon="-1.68083">
        <ele>54.855</ele>
        <time>2020-05-14T15:37:39Z</time>
      </trkpt>
      <trkpt lat="43.25761" lon="-1.68085">
        <ele>53.04</ele>
        <time>2020-05-14T15:37:59Z</time>
      </trkpt>
      <trkpt lat="43.25742" lon="-1.68092">
        <ele>52.024</ele>
        <time>2020-05-14T15:38:19Z</time>
      </trkpt>
      <trkpt lat="43.25737" lon="-1.68095">
        <ele>54.082</ele>
        <time>2020-05-14T15:38:39Z</time>
      </trkpt>
      <trkpt lat="43.25732" lon="-1.68097">
        <ele>51.697</ele>
        <time>2020-05-14T15:38:59Z</time>
      </trkpt>
      <trkpt lat="43.25728" lon="-1.68098">
        <ele>51.477</ele>
        <time>2020-05-14T15:39:19Z</time>
      </trkpt>
      <trkpt lat="43.25724" lon="-1.681">
        <ele>51.414</ele>
        <time>2020-05-14T15:39:39Z</time>
      </trkpt>
      <trkpt lat="43.25716" lon="-1.68102">
        <ele>52.146</ele>
        <time>2020-05-14T15:39:59Z</time>
      </trkpt>
      <trkpt lat="43.25709" lon="-1.68105">
        <ele>51.926</ele>
        <time>2020-05-14T15:40:19Z</time>
      </trkpt>
      <trkpt lat="43.25707" lon="-1.68105">
        <ele>51.947</ele>
        <time>2020-05-14T15:40:39Z</time>
      </trkpt>
      <trkpt lat="43.25705" lon="-1.68105">
        <ele>51.611</ele>
        <time>2020-05-14T15:40:59Z</time>
      </trkpt>
      <trkpt lat="43.25698" lon="-1.68106">
        <ele>49.808</ele>
        <time>2020-05-14T15:41:19Z</time>
      </trkpt>
      <trkpt lat="43.25691" lon="-1.68106">
        <ele>49.286</ele>
        <time>2020-05-14T15:41:39Z</time>
      </trkpt>
      <trkpt lat="43.2568" lon="-1.68106">
        <ele>48.531</ele>
        <time>2020-05-14T15:41:59Z</time>
      </trkpt>
      <trkpt lat="43.25679" lon="-1.68105">
        <ele>48.565</ele>
        <time>2020-05-14T15:42:19Z</time>
      </trkpt>
      <trkpt lat="43.25664" lon="-1.68113">
        <ele>48.613</ele>
        <time>2020-05-14T15:42:39Z</time>
      </trkpt>
      <trkpt lat="43.25654" lon="-1.68118">
        <ele>48.738</ele>
        <time>2020-05-14T15:42:59Z</time>
      </trkpt>
      <trkpt lat="43.25642" lon="-1.68125">
        <ele>49.018</ele>
        <time>2020-05-14T15:43:19Z</time>
      </trkpt>
      <trkpt lat="43.25625" lon="-1.68133">
        <ele>49.115</ele>
        <time>2020-05-14T15:43:39Z</time>
      </trkpt>
      <trkpt lat="43.25611" lon="-1.6814">
        <ele>49.397</ele>
        <time>2020-05-14T15:43:59Z</time>
      </trkpt>
      <trkpt lat="43.25593" lon="-1.68146">
        <ele>49.351</ele>
        <time>2020-05-14T15:44:19Z</time>
      </trkpt>
      <trkpt lat="43.2558" lon="-1.68151">
        <ele>49.401</ele>
        <time>2020-05-14T15:44:39Z</time>
      </trkpt>
      <trkpt lat="43.25572" lon="-1.68154">
        <ele>49.811</ele>
        <time>2020-05-14T15:44:59Z</time>
      </trkpt>
      <trkpt lat="43.2557" lon="-1.68155">
        <ele>49.708</ele>
        <time>2020-05-14T15:45:19Z</time>
      </trkpt>
      <trkpt lat="43.25564" lon="-1.68155">
        <ele>49.729</ele>
        <time>2020-05-14T15:45:39Z</time>
      </trkpt>
      <trkpt lat="43.25562" lon="-1.68158">
        <ele>49.744</ele>
        <time>2020-05-14T15:45:59Z</time>
      </trkpt>
      <trkpt lat="43.25558" lon="-1.68156">
        <ele>49.728</ele>
        <time>2020-05-14T15:46:19Z</time>
      </trkpt>
      <trkpt lat="43.25551" lon="-1.68154">
        <ele>49.726</ele>
        <time>2020-05-14T15:46:39Z</time>
      </trkpt>
      <trkpt lat="43.25541" lon="-1.68152">
        <ele>49.781</ele>
        <time>2020-05-14T15:46:59Z</time>
      </trkpt>
      <trkpt lat="43.25529" lon="-1.68146">
        <ele>49.681</ele>
        <time>2020-05-14T15:47:19Z</time>
      </trkpt>
      <trkpt lat="43.25516" lon="-1.68137">
        <ele>49.578</ele>
        <time>2020-05-14T15:47:39Z</time>
      </trkpt>
      <trkpt lat="43.25505" lon="-1.6813">
        <ele>49.64</ele>
        <time>2020-05-14T15:47:59Z</time>
      </trkpt>
      <trkpt lat="43.25494" lon="-1.68124">
        <ele>49.686</ele>
        <time>2020-05-14T15:48:19Z</time>
      </trkpt>
      <trkpt lat="43.25484" lon="-1.68123">
        <ele>49.46</ele>
        <time>2020-05-14T15:48:39Z</time>
      </trkpt>
      <trkpt lat="43.25476" lon="-1.68128">
        <ele>49.526</ele>
        <time>2020-05-14T15:48:59Z</time>
      </trkpt>
      <trkpt lat="43.25471" lon="-1.68133">
        <ele>49.508</ele>
        <time>2020-05-14T15:49:19Z</time>
      </trkpt>
      <trkpt lat="43.25466" lon="-1.68138">
        <ele>49.932</ele>
        <time>2020-05-14T15:49:39Z</time>
      </trkpt>
      <trkpt lat="43.25463" lon="-1.68141">
        <ele>49.957</ele>
        <time>2020-05-14T15:49:59Z</time>
      </trkpt>
      <trkpt lat="43.25461" lon="-1.68155">
        <ele>50.281</ele>
        <time>2020-05-14T15:50:19Z</time>
      </trkpt>
      <trkpt lat="43.25461" lon="-1.6816">
        <ele>50.439</ele>
        <time>2020-05-14T15:50:39Z</time>
      </trkpt>
      <trkpt lat="43.25411" lon="-1.68153">
        <ele>50.434</ele>
        <time>2020-05-14T15:50:59Z</time>
      </trkpt>
      <trkpt lat="43.25411" lon="-1.68153">
        <ele>50.424</ele>
        <time>2020-05-14T15:51:19Z</time>
      </trkpt>
      <trkpt lat="43.25403" lon="-1.68153">
        <ele>49.191</ele>
        <time>2020-05-14T15:51:39Z</time>
      </trkpt>
      <trkpt lat="43.25403" lon="-1.68153">
        <ele>49.153</ele>
        <time>2020-05-14T15:51:59Z</time>
      </trkpt>
      <trkpt lat="43.25388" lon="-1.68154">
        <ele>49.169</ele>
        <time>2020-05-14T15:52:19Z</time>
      </trkpt>
      <trkpt lat="43.25386" lon="-1.68154">
        <ele>49.004</ele>
        <time>2020-05-14T15:52:39Z</time>
      </trkpt>
      <trkpt lat="43.25379" lon="-1.68154">
        <ele>49.024</ele>
        <time>2020-05-14T15:52:59Z</time>
      </trkpt>
      <trkpt lat="43.25365" lon="-1.68155">
        <ele>49.108</ele>
        <time>2020-05-14T15:53:19Z</time>
      </trkpt>
      <trkpt lat="43.25355" lon="-1.68155">
        <ele>49.25</ele>
        <time>2020-05-14T15:53:39Z</time>
      </trkpt>
      <trkpt lat="43.25345" lon="-1.68155">
        <ele>49.265</ele>
        <time>2020-05-14T15:53:59Z</time>
      </trkpt>
      <trkpt lat="43.25334" lon="-1.68155">
        <ele>49.239</ele>
        <time>2020-05-14T15:54:19Z</time>
      </trkpt>
      <trkpt lat="43.25323" lon="-1.68154">
        <ele>49.997</ele>
        <time>2020-05-14T15:54:39Z</time>
      </trkpt>
      <trkpt lat="43.25311" lon="-1.68153">
        <ele>50.432</ele>
        <time>2020-05-14T15:54:59Z</time>
      </trkpt>
      <trkpt lat="43.25299" lon="-1.68152">
        <ele>49.342</ele>
        <time>2020-05-14T15:55:19Z</time>
      </trkpt>
      <trkpt lat="43.2529" lon="-1.68151">
        <ele>49.459</ele>
        <time>2020-05-14T15:55:39Z</time>
      </trkpt>
      <trkpt lat="43.25287" lon="-1.6815">
        <ele>49.491</ele>
        <time>2020-05-14T15:55:59Z</time>
      </trkpt>
      <trkpt lat="43.25284" lon="-1.68149">
        <ele>50.395</ele>
        <time>2020-05-14T15:56:19Z</time>
      </trkpt>
      <trkpt lat="43.25221" lon="-1.68131">
        <ele>51.049</ele>
        <time>2020-05-14T15:56:39Z</time>
      </trkpt>
      <trkpt lat="43.25216" lon="-1.68129">
        <ele>49.723</ele>
        <time>2020-05-14T15:56:59Z</time>
      </trkpt>
      <trkpt lat="43.25212" lon="-1.68127">
        <ele>50.308</ele>
        <time>2020-05-14T15:57:19Z</time>
      </trkpt>
      <trkpt lat="43.25191" lon="-1.68118">
        <ele>49.993</ele>
        <time>2020-05-14T15:57:39Z</time>
      </trkpt>
      <trkpt lat="43.25171" lon="-1.68109">
        <ele>50.118</ele>
        <time>2020-05-14T15:57:59Z</time>
      </trkpt>
      <trkpt lat="43.25167" lon="-1.68107">
        <ele>51.012</ele>
        <time>2020-05-14T15:58:19Z</time>
      </trkpt>
      <trkpt lat="43.25164" lon="-1.68105">
        <ele>50.27</ele>
        <time>2020-05-14T15:58:39Z</time>
      </trkpt>
      <trkpt lat="43.2516" lon="-1.68103">
        <ele>50.245</ele>
        <time>2020-05-14T15:58:59Z</time>
      </trkpt>
      <trkpt lat="43.25157" lon="-1.68101">
        <ele>51.165</ele>
        <time>2020-05-14T15:59:19Z</time>
      </trkpt>
      <trkpt lat="43.25149" lon="-1.68094">
        <ele>50.122</ele>
        <time>2020-05-14T15:59:39Z</time>
      </trkpt>
      <trkpt lat="43.25138" lon="-1.68082">
        <ele>50.554</ele>
        <time>2020-05-14T15:59:59Z</time>
      </trkpt>
      <trkpt lat="43.25134" lon="-1.68077">
        <ele>50.557</ele>
        <time>2020-05-14T16:00:19Z</time>
      </trkpt>
      <trkpt lat="43.25125" lon="-1.68065">
        <ele>50.2</ele>
        <time>2020-05-14T16:00:39Z</time>
      </trkpt>
      <trkpt lat="43.25122" lon="-1.6806">
        <ele>51.62</ele>
        <time>2020-05-14T16:00:59Z</time>
      </trkpt>
      <trkpt lat="43.25119" lon="-1.68054">
        <ele>51.408</ele>
        <time>2020-05-14T16:01:19Z</time>
      </trkpt>
      <trkpt lat="43.2511" lon="-1.68037">
        <ele>50.029</ele>
        <time>2020-05-14T16:01:39Z</time>
      </trkpt>
      <trkpt lat="43.25103" lon="-1.68016">
        <ele>50.374</ele>
        <time>2020-05-14T16:01:59Z</time>
      </trkpt>
      <trkpt lat="43.25101" lon="-1.68006">
        <ele>50.788</ele>
        <time>2020-05-14T16:02:19Z</time>
      </trkpt>
      <trkpt lat="43.25098" lon="-1.67996">
        <ele>50.236</ele>
        <time>2020-05-14T16:02:39Z</time>
      </trkpt>
      <trkpt lat="43.25094" lon="-1.67972">
        <ele>50.191</ele>
        <time>2020-05-14T16:02:59Z</time>
      </trkpt>
      <trkpt lat="43.25092" lon="-1.67955">
        <ele>50.471</ele>
        <time>2020-05-14T16:03:19Z</time>
      </trkpt>
      <trkpt lat="43.25089" lon="-1.67934">
        <ele>50.178</ele>
        <time>2020-05-14T16:03:39Z</time>
      </trkpt>
      <trkpt lat="43.25082" lon="-1.67887">
        <ele>49.74</ele>
        <time>2020-05-14T16:03:59Z</time>
      </trkpt>
      <trkpt lat="43.25081" lon="-1.6788">
        <ele>49.973</ele>
        <time>2020-05-14T16:04:19Z</time>
      </trkpt>
      <trkpt lat="43.2508" lon="-1.67879">
        <ele>49.985</ele>
        <time>2020-05-14T16:04:39Z</time>
      </trkpt>
      <trkpt lat="43.25079" lon="-1.67872">
        <ele>49.913</ele>
        <time>2020-05-14T16:04:59Z</time>
      </trkpt>
      <trkpt lat="43.25077" lon="-1.6786">
        <ele>50.108</ele>
        <time>2020-05-14T16:05:19Z</time>
      </trkpt>
      <trkpt lat="43.25075" lon="-1.67849">
        <ele>50.131</ele>
        <time>2020-05-14T16:05:39Z</time>
      </trkpt>
      <trkpt lat="43.25074" lon="-1.67837">
        <ele>50.226</ele>
        <time>2020-05-14T16:05:59Z</time>
      </trkpt>
      <trkpt lat="43.25071" lon="-1.67814">
        <ele>50.21</ele>
        <time>2020-05-14T16:06:19Z</time>
      </trkpt>
      <trkpt lat="43.25069" lon="-1.67802">
        <ele>50.258</ele>
        <time>2020-05-14T16:06:39Z</time>
      </trkpt>
      <trkpt lat="43.25067" lon="-1.6779">
        <ele>50.363</ele>
        <time>2020-05-14T16:06:59Z</time>
      </trkpt>
      <trkpt lat="43.25065" lon="-1.67778">
        <ele>50.513</ele>
        <time>2020-05-14T16:07:19Z</time>
      </trkpt>
      <trkpt lat="43.25065" lon="-1.67775">
        <ele>50.42</ele>
        <time>2020-05-14T16:07:39Z</time>
      </trkpt>
      <trkpt lat="43.25064" lon="-1.67772">
        <ele>50.432</ele>
        <time>2020-05-14T16:07:59Z</time>
      </trkpt>
      <trkpt lat="43.25063" lon="-1.67763">
        <ele>50.317</ele>
        <time>2020-05-14T16:08:19Z</time>
      </trkpt>
      <trkpt lat="43.25062" lon="-1.67754">
        <ele>50.287</ele>
        <time>2020-05-14T16:08:39Z</time>
      </trkpt>
      <trkpt lat="43.25059" lon="-1.67737">
        <ele>50.215</ele>
        <time>2020-05-14T16:08:59Z</time>
      </trkpt>
      <trkpt lat="43.25057" lon="-1.67719">
        <ele>50.308</ele>
        <time>2020-05-14T16:09:19Z</time>
      </trkpt>
      <trkpt lat="43.25054" lon="-1.67701">
        <ele>50.165</ele>
        <time>2020-05-14T16:09:39Z</time>
      </trkpt>
      <trkpt lat="43.25052" lon="-1.67684">
        <ele>50.34</ele>
        <time>2020-05-14T16:09:59Z</time>
      </trkpt>
      <trkpt lat="43.25048" lon="-1.67662">
        <ele>50.234</ele>
        <time>2020-05-14T16:10:19Z</time>
      </trkpt>
      <trkpt lat="43.25044" lon="-1.67633">
        <ele>50.492</ele>
        <time>2020-05-14T16:10:39Z</time>
      </trkpt>
      <trkpt lat="43.25042" lon="-1.67612">
        <ele>50.427</ele>
        <time>2020-05-14T16:10:59Z</time>
      </trkpt>
      <trkpt lat="43.25039" lon="-1.67597">
        <ele>50.327</ele>
        <time>2020-05-14T16:11:19Z</time>
      </trkpt>
      <trkpt lat="43.25035" lon="-1.67568">
        <ele>50.294</ele>
        <time>2020-05-14T16:11:39Z</time>
      </trkpt>
      <trkpt lat="43.25033" lon="-1.67555">
        <ele>49.956</ele>
        <time>2020-05-14T16:11:59Z</time>
      </trkpt>
      <trkpt lat="43.25031" lon="-1.67542">
        <ele>49.957</ele>
        <time>2020-05-14T16:12:19Z</time>
      </trkpt>
      <trkpt lat="43.25027" lon="-1.6751">
        <ele>48.9</ele>
        <time>2020-05-14T16:12:39Z</time>
      </trkpt>
      <trkpt lat="43.25025" lon="-1.67499">
        <ele>49.12</ele>
        <time>2020-05-14T16:12:59Z</time>
      </trkpt>
      <trkpt lat="43.25022" lon="-1.67479">
        <ele>49.008</ele>
        <time>2020-05-14T16:13:19Z</time>
      </trkpt>
      <trkpt lat="43.2502" lon="-1.67469">
        <ele>49.179</ele>
        <time>2020-05-14T16:13:39Z</time>
      </trkpt>
      <trkpt lat="43.2502" lon="-1.67467">
        <ele>49.184</ele>
        <time>2020-05-14T16:13:59Z</time>
      </trkpt>
      <trkpt lat="43.25019" lon="-1.67463">
        <ele>49.128</ele>
        <time>2020-05-14T16:14:19Z</time>
      </trkpt>
      <trkpt lat="43.25019" lon="-1.67454">
        <ele>49.146</ele>
        <time>2020-05-14T16:14:39Z</time>
      </trkpt>
      <trkpt lat="43.25019" lon="-1.67447">
        <ele>48.981</ele>
        <time>2020-05-14T16:14:59Z</time>
      </trkpt>
      <trkpt lat="43.25018" lon="-1.67438">
        <ele>50.031</ele>
        <time>2020-05-14T16:15:19Z</time>
      </trkpt>
      <trkpt lat="43.25017" lon="-1.67431">
        <ele>47.448</ele>
        <time>2020-05-14T16:15:39Z</time>
      </trkpt>
      <trkpt lat="43.25018" lon="-1.67427">
        <ele>53.67</ele>
        <time>2020-05-14T16:15:59Z</time>
      </trkpt>
      <trkpt lat="43.25019" lon="-1.67424">
        <ele>52.522</ele>
        <time>2020-05-14T16:16:19Z</time>
      </trkpt>
      <trkpt lat="43.25022" lon="-1.67415">
        <ele>53.362</ele>
        <time>2020-05-14T16:16:39Z</time>
      </trkpt>
      <trkpt lat="43.25024" lon="-1.67406">
        <ele>47.108</ele>
        <time>2020-05-14T16:16:59Z</time>
      </trkpt>
      <trkpt lat="43.25024" lon="-1.67391">
        <ele>47.308</ele>
        <time>2020-05-14T16:17:19Z</time>
      </trkpt>
      <trkpt lat="43.25014" lon="-1.67377">
        <ele>47.836</ele>
        <time>2020-05-14T16:17:39Z</time>
      </trkpt>
      <trkpt lat="43.25004" lon="-1.67365">
        <ele>48.741</ele>
        <time>2020-05-14T16:17:59Z</time>
      </trkpt>
      <trkpt lat="43.24989" lon="-1.67348">
        <ele>51.275</ele>
        <time>2020-05-14T16:18:19Z</time>
      </trkpt>
      <trkpt lat="43.2498" lon="-1.67335">
        <ele>49.533</ele>
        <time>2020-05-14T16:18:39Z</time>
      </trkpt>
      <trkpt lat="43.24967" lon="-1.67318">
        <ele>49.188</ele>
        <time>2020-05-14T16:18:59Z</time>
      </trkpt>
      <trkpt lat="43.24942" lon="-1.67285">
        <ele>50.138</ele>
        <time>2020-05-14T16:19:19Z</time>
      </trkpt>
      <trkpt lat="43.24925" lon="-1.67265">
        <ele>50.615</ele>
        <time>2020-05-14T16:19:39Z</time>
      </trkpt>
      <trkpt lat="43.24897" lon="-1.67234">
        <ele>52.087</ele>
        <time>2020-05-14T16:19:59Z</time>
      </trkpt>
      <trkpt lat="43.24884" lon="-1.67221">
        <ele>52.752</ele>
        <time>2020-05-14T16:20:19Z</time>
      </trkpt>
      <trkpt lat="43.24879" lon="-1.67217">
        <ele>52.253</ele>
        <time>2020-05-14T16:20:39Z</time>
      </trkpt>
      <trkpt lat="43.2487" lon="-1.67204">
        <ele>52.008</ele>
        <time>2020-05-14T16:20:59Z</time>
      </trkpt>
      <trkpt lat="43.24856" lon="-1.6719">
        <ele>51.208</ele>
        <time>2020-05-14T16:21:19Z</time>
      </trkpt>
      <trkpt lat="43.24851" lon="-1.67184">
        <ele>50.979</ele>
        <time>2020-05-14T16:21:39Z</time>
      </trkpt>
      <trkpt lat="43.24846" lon="-1.67177">
        <ele>50.754</ele>
        <time>2020-05-14T16:21:59Z</time>
      </trkpt>
      <trkpt lat="43.24844" lon="-1.67174">
        <ele>50.728</ele>
        <time>2020-05-14T16:22:19Z</time>
      </trkpt>
      <trkpt lat="43.24841" lon="-1.67172">
        <ele>50.746</ele>
        <time>2020-05-14T16:22:39Z</time>
      </trkpt>
      <trkpt lat="43.24839" lon="-1.6717">
        <ele>50.591</ele>
        <time>2020-05-14T16:22:59Z</time>
      </trkpt>
      <trkpt lat="43.24836" lon="-1.67168">
        <ele>50.511</ele>
        <time>2020-05-14T16:23:19Z</time>
      </trkpt>
      <trkpt lat="43.24826" lon="-1.67163">
        <ele>50.438</ele>
        <time>2020-05-14T16:23:39Z</time>
      </trkpt>
      <trkpt lat="43.24822" lon="-1.6716">
        <ele>51.94</ele>
        <time>2020-05-14T16:23:59Z</time>
      </trkpt>
      <trkpt lat="43.24817" lon="-1.67158">
        <ele>50.486</ele>
        <time>2020-05-14T16:24:19Z</time>
      </trkpt>
      <trkpt lat="43.24812" lon="-1.67154">
        <ele>52.66</ele>
        <time>2020-05-14T16:24:39Z</time>
      </trkpt>
      <trkpt lat="43.24809" lon="-1.67152">
        <ele>50.426</ele>
        <time>2020-05-14T16:24:59Z</time>
      </trkpt>
      <trkpt lat="43.24806" lon="-1.6715">
        <ele>52.508</ele>
        <time>2020-05-14T16:25:19Z</time>
      </trkpt>
      <trkpt lat="43.24786" lon="-1.67135">
        <ele>50.332</ele>
        <time>2020-05-14T16:25:39Z</time>
      </trkpt>
      <trkpt lat="43.24759" lon="-1.67111">
        <ele>50.487</ele>
        <time>2020-05-14T16:25:59Z</time>
      </trkpt>
      <trkpt lat="43.24746" lon="-1.67102">
        <ele>50.891</ele>
        <time>2020-05-14T16:26:19Z</time>
      </trkpt>
      <trkpt lat="43.24733" lon="-1.67093">
        <ele>50.669</ele>
        <time>2020-05-14T16:26:39Z</time>
      </trkpt>
      <trkpt lat="43.24712" lon="-1.67076">
        <ele>51.034</ele>
        <time>2020-05-14T16:26:59Z</time>
      </trkpt>
      <trkpt lat="43.2467" lon="-1.67044">
        <ele>51.354</ele>
        <time>2020-05-14T16:27:19Z</time>
      </trkpt>
      <trkpt lat="43.2466" lon="-1.67037">
        <ele>51.581</ele>
        <time>2020-05-14T16:27:39Z</time>
      </trkpt>
      <trkpt lat="43.24626" lon="-1.67011">
        <ele>51.553</ele>
        <time>2020-05-14T16:27:59Z</time>
      </trkpt>
      <trkpt lat="43.24618" lon="-1.67005">
        <ele>51.756</ele>
        <time>2020-05-14T16:28:19Z</time>
      </trkpt>
      <trkpt lat="43.2461" lon="-1.67">
        <ele>51.659</ele>
        <time>2020-05-14T16:28:39Z</time>
      </trkpt>
      <trkpt lat="43.24604" lon="-1.66996">
        <ele>51.714</ele>
        <time>2020-05-14T16:28:59Z</time>
      </trkpt>
      <trkpt lat="43.24598" lon="-1.66991">
        <ele>52.108</ele>
        <time>2020-05-14T16:29:19Z</time>
      </trkpt>
      <trkpt lat="43.24587" lon="-1.66985">
        <ele>53.079</ele>
        <time>2020-05-14T16:29:39Z</time>
      </trkpt>
      <trkpt lat="43.24583" lon="-1.66982">
        <ele>53.784</ele>
        <time>2020-05-14T16:29:59Z</time>
      </trkpt>
      <trkpt lat="43.2458" lon="-1.6698">
        <ele>53.758</ele>
        <time>2020-05-14T16:30:19Z</time>
      </trkpt>
      <trkpt lat="43.24576" lon="-1.66977">
        <ele>53.576</ele>
        <time>2020-05-14T16:30:39Z</time>
      </trkpt>
      <trkpt lat="43.24561" lon="-1.66968">
        <ele>52.671</ele>
        <time>2020-05-14T16:30:59Z</time>
      </trkpt>
      <trkpt lat="43.24557" lon="-1.66967">
        <ele>52.421</ele>
        <time>2020-05-14T16:31:19Z</time>
      </trkpt>
      <trkpt lat="43.24552" lon="-1.66967">
        <ele>52.168</ele>
        <time>2020-05-14T16:31:39Z</time>
      </trkpt>
      <trkpt lat="43.24542" lon="-1.66971">
        <ele>51.78</ele>
        <time>2020-05-14T16:31:59Z</time>
      </trkpt>
      <trkpt lat="43.24539" lon="-1.66972">
        <ele>51.766</ele>
        <time>2020-05-14T16:32:19Z</time>
      </trkpt>
      <trkpt lat="43.24536" lon="-1.66974">
        <ele>51.729</ele>
        <time>2020-05-14T16:32:39Z</time>
      </trkpt>
      <trkpt lat="43.24531" lon="-1.66976">
        <ele>51.521</ele>
        <time>2020-05-14T16:32:59Z</time>
      </trkpt>
      <trkpt lat="43.24521" lon="-1.66981">
        <ele>51.508</ele>
        <time>2020-05-14T16:33:19Z</time>
      </trkpt>
      <trkpt lat="43.2452" lon="-1.66981">
        <ele>52.36</ele>
        <time>2020-05-14T16:33:39Z</time>
      </trkpt>
      <trkpt lat="43.24516" lon="-1.66983">
        <ele>51.715</ele>
        <time>2020-05-14T16:33:59Z</time>
      </trkpt>
      <trkpt lat="43.24511" lon="-1.66985">
        <ele>51.749</ele>
        <time>2020-05-14T16:34:19Z</time>
      </trkpt>
      <trkpt lat="43.2451" lon="-1.66986">
        <ele>51.777</ele>
        <time>2020-05-14T16:34:39Z</time>
      </trkpt>
      <trkpt lat="43.24505" lon="-1.66988">
        <ele>51.582</ele>
        <time>2020-05-14T16:34:59Z</time>
      </trkpt>
      <trkpt lat="43.24503" lon="-1.66989">
        <ele>51.522</ele>
        <time>2020-05-14T16:35:19Z</time>
      </trkpt>
      <trkpt lat="43.245" lon="-1.6699">
        <ele>51.559</ele>
        <time>2020-05-14T16:35:39Z</time>
      </trkpt>
      <trkpt lat="43.24493" lon="-1.66994">
        <ele>51.681</ele>
        <time>2020-05-14T16:35:59Z</time>
      </trkpt>
      <trkpt lat="43.24487" lon="-1.66997">
        <ele>51.533</ele>
        <time>2020-05-14T16:36:19Z</time>
      </trkpt>
      <trkpt lat="43.24484" lon="-1.66999">
        <ele>51.523</ele>
        <time>2020-05-14T16:36:39Z</time>
      </trkpt>
      <trkpt lat="43.24481" lon="-1.67002">
        <ele>51.415</ele>
        <time>2020-05-14T16:36:59Z</time>
      </trkpt>
      <trkpt lat="43.24479" lon="-1.67003">
        <ele>51.408</ele>
        <time>2020-05-14T16:37:19Z</time>
      </trkpt>
      <trkpt lat="43.24477" lon="-1.67005">
        <ele>51.497</ele>
        <time>2020-05-14T16:37:39Z</time>
      </trkpt>
      <trkpt lat="43.24465" lon="-1.6702">
        <ele>52.392</ele>
        <time>2020-05-14T16:37:59Z</time>
      </trkpt>
      <trkpt lat="43.24455" lon="-1.67033">
        <ele>54.046</ele>
        <time>2020-05-14T16:38:19Z</time>
      </trkpt>
      <trkpt lat="43.24447" lon="-1.67044">
        <ele>53.134</ele>
        <time>2020-05-14T16:38:39Z</time>
      </trkpt>
      <trkpt lat="43.24444" lon="-1.67048">
        <ele>51.739</ele>
        <time>2020-05-14T16:38:59Z</time>
      </trkpt>
      <trkpt lat="43.24436" lon="-1.67059">
        <ele>52.819</ele>
        <time>2020-05-14T16:39:19Z</time>
      </trkpt>
      <trkpt lat="43.24429" lon="-1.6707">
        <ele>54.656</ele>
        <time>2020-05-14T16:39:39Z</time>
      </trkpt>
      <trkpt lat="43.24415" lon="-1.6709">
        <ele>52.148</ele>
        <time>2020-05-14T16:39:59Z</time>
      </trkpt>
      <trkpt lat="43.244" lon="-1.67111">
        <ele>52.351</ele>
        <time>2020-05-14T16:40:19Z</time>
      </trkpt>
      <trkpt lat="43.24392" lon="-1.67123">
        <ele>52.101</ele>
        <time>2020-05-14T16:40:39Z</time>
      </trkpt>
      <trkpt lat="43.24383" lon="-1.67136">
        <ele>52.211</ele>
        <time>2020-05-14T16:40:59Z</time>
      </trkpt>
      <trkpt lat="43.24373" lon="-1.67151">
        <ele>52.308</ele>
        <time>2020-05-14T16:41:19Z</time>
      </trkpt>
      <trkpt lat="43.2436" lon="-1.6717">
        <ele>52.019</ele>
        <time>2020-05-14T16:41:39Z</time>
      </trkpt>
      <trkpt lat="43.24356" lon="-1.67174">
        <ele>52.494</ele>
        <time>2020-05-14T16:41:59Z</time>
      </trkpt>
      <trkpt lat="43.24328" lon="-1.67217">
        <ele>52.698</ele>
        <time>2020-05-14T16:42:19Z</time>
      </trkpt>
      <trkpt lat="43.24311" lon="-1.6724">
        <ele>52.476</ele>
        <time>2020-05-14T16:42:39Z</time>
      </trkpt>
      <trkpt lat="43.24303" lon="-1.67252">
        <ele>53.041</ele>
        <time>2020-05-14T16:42:59Z</time>
      </trkpt>
      <trkpt lat="43.24296" lon="-1.67263">
        <ele>52.761</ele>
        <time>2020-05-14T16:43:19Z</time>
      </trkpt>
      <trkpt lat="43.2428" lon="-1.67285">
        <ele>52.998</ele>
        <time>2020-05-14T16:43:39Z</time>
      </trkpt>
      <trkpt lat="43.24271" lon="-1.67298">
        <ele>53.24</ele>
        <time>2020-05-14T16:43:59Z</time>
      </trkpt>
      <trkpt lat="43.24265" lon="-1.67306">
        <ele>53.626</ele>
        <time>2020-05-14T16:44:19Z</time>
      </trkpt>
      <trkpt lat="43.24259" lon="-1.67315">
        <ele>53.747</ele>
        <time>2020-05-14T16:44:39Z</time>
      </trkpt>
      <trkpt lat="43.24257" lon="-1.67317">
        <ele>53.711</ele>
        <time>2020-05-14T16:44:59Z</time>
      </trkpt>
      <trkpt lat="43.24254" lon="-1.67321">
        <ele>53.808</ele>
        <time>2020-05-14T16:45:19Z</time>
      </trkpt>
      <trkpt lat="43.2425" lon="-1.67326">
        <ele>54.066</ele>
        <time>2020-05-14T16:45:39Z</time>
      </trkpt>
      <trkpt lat="43.24245" lon="-1.67332">
        <ele>55.681</ele>
        <time>2020-05-14T16:45:59Z</time>
      </trkpt>
      <trkpt lat="43.2424" lon="-1.67339">
        <ele>55.445</ele>
        <time>2020-05-14T16:46:19Z</time>
      </trkpt>
      <trkpt lat="43.24231" lon="-1.67354">
        <ele>54.323</ele>
        <time>2020-05-14T16:46:39Z</time>
      </trkpt>
      <trkpt lat="43.24224" lon="-1.67366">
        <ele>55.168</ele>
        <time>2020-05-14T16:46:59Z</time>
      </trkpt>
      <trkpt lat="43.24217" lon="-1.67379">
        <ele>56.678</ele>
        <time>2020-05-14T16:47:19Z</time>
      </trkpt>
      <trkpt lat="43.24206" lon="-1.67395">
        <ele>55.035</ele>
        <time>2020-05-14T16:47:39Z</time>
      </trkpt>
      <trkpt lat="43.24189" lon="-1.67427">
        <ele>54.857</ele>
        <time>2020-05-14T16:47:59Z</time>
      </trkpt>
      <trkpt lat="43.24187" lon="-1.67432">
        <ele>54.846</ele>
        <time>2020-05-14T16:48:19Z</time>
      </trkpt>
      <trkpt lat="43.24184" lon="-1.67436">
        <ele>55.088</ele>
        <time>2020-05-14T16:48:39Z</time>
      </trkpt>
      <trkpt lat="43.24175" lon="-1.67457">
        <ele>55.316</ele>
        <time>2020-05-14T16:48:59Z</time>
      </trkpt>
      <trkpt lat="43.2417" lon="-1.67468">
        <ele>54.708</ele>
        <time>2020-05-14T16:49:19Z</time>
      </trkpt>
      <trkpt lat="43.24165" lon="-1.67478">
        <ele>55.178</ele>
        <time>2020-05-14T16:49:39Z</time>
      </trkpt>
      <trkpt lat="43.24161" lon="-1.67488">
        <ele>55.583</ele>
        <time>2020-05-14T16:49:59Z</time>
      </trkpt>
      <trkpt lat="43.24158" lon="-1.67493">
        <ele>55.527</ele>
        <time>2020-05-14T16:50:19Z</time>
      </trkpt>
      <trkpt lat="43.24141" lon="-1.67517">
        <ele>54.535</ele>
        <time>2020-05-14T16:50:39Z</time>
      </trkpt>
      <trkpt lat="43.24139" lon="-1.67521">
        <ele>54.72</ele>
        <time>2020-05-14T16:50:59Z</time>
      </trkpt>
      <trkpt lat="43.24133" lon="-1.67526">
        <ele>54.59</ele>
        <time>2020-05-14T16:51:19Z</time>
      </trkpt>
      <trkpt lat="43.2412" lon="-1.67536">
        <ele>54.517</ele>
        <time>2020-05-14T16:51:39Z</time>
      </trkpt>
      <trkpt lat="43.24117" lon="-1.67539">
        <ele>54.599</ele>
        <time>2020-05-14T16:51:59Z</time>
      </trkpt>
      <trkpt lat="43.24113" lon="-1.67541">
        <ele>54.524</ele>
        <time>2020-05-14T16:52:19Z</time>
      </trkpt>
      <trkpt lat="43.24106" lon="-1.67544">
        <ele>54.504</ele>
        <time>2020-05-14T16:52:39Z</time>
      </trkpt>
      <trkpt lat="43.241" lon="-1.67548">
        <ele>54.514</ele>
        <time>2020-05-14T16:52:59Z</time>
      </trkpt>
      <trkpt lat="43.24093" lon="-1.6755">
        <ele>54.508</ele>
        <time>2020-05-14T16:53:19Z</time>
      </trkpt>
      <trkpt lat="43.24087" lon="-1.67553">
        <ele>54.536</ele>
        <time>2020-05-14T16:53:39Z</time>
      </trkpt>
      <trkpt lat="43.24076" lon="-1.67556">
        <ele>54.581</ele>
        <time>2020-05-14T16:53:59Z</time>
      </trkpt>
      <trkpt lat="43.24072" lon="-1.67556">
        <ele>54.455</ele>
        <time>2020-05-14T16:54:19Z</time>
      </trkpt>
      <trkpt lat="43.24067" lon="-1.67557">
        <ele>54.533</ele>
        <time>2020-05-14T16:54:39Z</time>
      </trkpt>
      <trkpt lat="43.24063" lon="-1.67557">
        <ele>54.478</ele>
        <time>2020-05-14T16:54:59Z</time>
      </trkpt>
      <trkpt lat="43.24059" lon="-1.67557">
        <ele>54.598</ele>
        <time>2020-05-14T16:55:19Z</time>
      </trkpt>
      <trkpt lat="43.24051" lon="-1.67556">
        <ele>54.565</ele>
        <time>2020-05-14T16:55:39Z</time>
      </trkpt>
      <trkpt lat="43.24044" lon="-1.67556">
        <ele>54.647</ele>
        <time>2020-05-14T16:55:59Z</time>
      </trkpt>
      <trkpt lat="43.24037" lon="-1.67555">
        <ele>54.727</ele>
        <time>2020-05-14T16:56:19Z</time>
      </trkpt>
      <trkpt lat="43.2403" lon="-1.67554">
        <ele>54.868</ele>
        <time>2020-05-14T16:56:39Z</time>
      </trkpt>
      <trkpt lat="43.24028" lon="-1.67553">
        <ele>54.814</ele>
        <time>2020-05-14T16:56:59Z</time>
      </trkpt>
      <trkpt lat="43.24027" lon="-1.67553">
        <ele>54.908</ele>
        <time>2020-05-14T16:57:19Z</time>
      </trkpt>
      <trkpt lat="43.24024" lon="-1.67552">
        <ele>54.996</ele>
        <time>2020-05-14T16:57:39Z</time>
      </trkpt>
      <trkpt lat="43.24023" lon="-1.67552">
        <ele>54.911</ele>
        <time>2020-05-14T16:57:59Z</time>
      </trkpt>
      <trkpt lat="43.24018" lon="-1.6755">
        <ele>55.335</ele>
        <time>2020-05-14T16:58:19Z</time>
      </trkpt>
      <trkpt lat="43.24016" lon="-1.67549">
        <ele>55.363</ele>
        <time>2020-05-14T16:58:39Z</time>
      </trkpt>
      <trkpt lat="43.24012" lon="-1.67547">
        <ele>55.848</ele>
        <time>2020-05-14T16:58:59Z</time>
      </trkpt>
      <trkpt lat="43.24007" lon="-1.67544">
        <ele>55.068</ele>
        <time>2020-05-14T16:59:19Z</time>
      </trkpt>
      <trkpt lat="43.24002" lon="-1.67542">
        <ele>56.395</ele>
        <time>2020-05-14T16:59:39Z</time>
      </trkpt>
      <trkpt lat="43.23998" lon="-1.67539">
        <ele>55.947</ele>
        <time>2020-05-14T16:59:59Z</time>
      </trkpt>
      <trkpt lat="43.23993" lon="-1.67536">
        <ele>57.793</ele>
        <time>2020-05-14T17:00:19Z</time>
      </trkpt>
      <trkpt lat="43.23991" lon="-1.67534">
        <ele>55.365</ele>
        <time>2020-05-14T17:00:39Z</time>
      </trkpt>
      <trkpt lat="43.23989" lon="-1.67533">
        <ele>55.321</ele>
        <time>2020-05-14T17:00:59Z</time>
      </trkpt>
      <trkpt lat="43.23985" lon="-1.67529">
        <ele>59.408</ele>
        <time>2020-05-14T17:01:19Z</time>
      </trkpt>
      <trkpt lat="43.23981" lon="-1.67525">
        <ele>58.623</ele>
        <time>2020-05-14T17:01:39Z</time>
      </trkpt>
      <trkpt lat="43.23969" lon="-1.6751">
        <ele>61.998</ele>
        <time>2020-05-14T17:01:59Z</time>
      </trkpt>
      <trkpt lat="43.23962" lon="-1.67502">
        <ele>64.492</ele>
        <time>2020-05-14T17:02:19Z</time>
      </trkpt>
      <trkpt lat="43.2395" lon="-1.67495">
        <ele>63.44</ele>
        <time>2020-05-14T17:02:39Z</time>
      </trkpt>
      <trkpt lat="43.23945" lon="-1.67493">
        <ele>64.585</ele>
        <time>2020-05-14T17:02:59Z</time>
      </trkpt>
      <trkpt lat="43.23944" lon="-1.67492">
        <ele>64.695</ele>
        <time>2020-05-14T17:03:19Z</time>
      </trkpt>
      <trkpt lat="43.23942" lon="-1.67491">
        <ele>65.142</ele>
        <time>2020-05-14T17:03:39Z</time>
      </trkpt>
      <trkpt lat="43.23931" lon="-1.67489">
        <ele>71.774</ele>
        <time>2020-05-14T17:03:59Z</time>
      </trkpt>
      <trkpt lat="43.23927" lon="-1.67488">
        <ele>74.651</ele>
        <time>2020-05-14T17:04:19Z</time>
      </trkpt>
      <trkpt lat="43.23918" lon="-1.67486">
        <ele>78.401</ele>
        <time>2020-05-14T17:04:39Z</time>
      </trkpt>
      <trkpt lat="43.23917" lon="-1.67486">
        <ele>78.411</ele>
        <time>2020-05-14T17:04:59Z</time>
      </trkpt>
      <trkpt lat="43.23916" lon="-1.67486">
        <ele>78.408</ele>
        <time>2020-05-14T17:05:19Z</time>
      </trkpt>
      <trkpt lat="43.2391" lon="-1.67485">
        <ele>82.259</ele>
        <time>2020-05-14T17:05:39Z</time>
      </trkpt>
      <trkpt lat="43.23898" lon="-1.67483">
        <ele>86.284</ele>
        <time>2020-05-14T17:05:59Z</time>
      </trkpt>
      <trkpt lat="43.23879" lon="-1.6748">
        <ele>93.928</ele>
        <time>2020-05-14T17:06:19Z</time>
      </trkpt>
      <trkpt lat="43.23855" lon="-1.67476">
        <ele>89.446</ele>
        <time>2020-05-14T17:06:39Z</time>
      </trkpt>
      <trkpt lat="43.23836" lon="-1.67473">
        <ele>78.361</ele>
        <time>2020-05-14T17:06:59Z</time>
      </trkpt>
      <trkpt lat="43.23826" lon="-1.6747">
        <ele>69.621</ele>
        <time>2020-05-14T17:07:19Z</time>
      </trkpt>
      <trkpt lat="43.23817" lon="-1.67467">
        <ele>68.298</ele>
        <time>2020-05-14T17:07:39Z</time>
      </trkpt>
      <trkpt lat="43.23814" lon="-1.67467">
        <ele>68.48</ele>
        <time>2020-05-14T17:07:59Z</time>
      </trkpt>
      <trkpt lat="43.23808" lon="-1.67467">
        <ele>68.658</ele>
        <time>2020-05-14T17:08:19Z</time>
      </trkpt>
      <trkpt lat="43.23798" lon="-1.67467">
        <ele>65.152</ele>
        <time>2020-05-14T17:08:39Z</time>
      </trkpt>
      <trkpt lat="43.2379" lon="-1.67473">
        <ele>66.417</ele>
        <time>2020-05-14T17:08:59Z</time>
      </trkpt>
      <trkpt lat="43.23784" lon="-1.67478">
        <ele>55.108</ele>
        <time>2020-05-14T17:09:19Z</time>
      </trkpt>
      <trkpt lat="43.23781" lon="-1.67482">
        <ele>55.149</ele>
        <time>2020-05-14T17:09:39Z</time>
      </trkpt>
      <trkpt lat="43.23775" lon="-1.67491">
        <ele>62.994</ele>
        <time>2020-05-14T17:09:59Z</time>
      </trkpt>
      <trkpt lat="43.23772" lon="-1.67496">
        <ele>62.998</ele>
        <time>2020-05-14T17:10:19Z</time>
      </trkpt>
      <trkpt lat="43.23769" lon="-1.675">
        <ele>55.226</ele>
        <time>2020-05-14T17:10:39Z</time>
      </trkpt>
      <trkpt lat="43.23757" lon="-1.67515">
        <ele>67.921</ele>
        <time>2020-05-14T17:10:59Z</time>
      </trkpt>
      <trkpt lat="43.23743" lon="-1.67531">
        <ele>55.251</ele>
        <time>2020-05-14T17:11:19Z</time>
      </trkpt>
      <trkpt lat="43.23735" lon="-1.67542">
        <ele>55.438</ele>
        <time>2020-05-14T17:11:39Z</time>
      </trkpt>
      <trkpt lat="43.23729" lon="-1.67549">
        <ele>55.53</ele>
        <time>2020-05-14T17:11:59Z</time>
      </trkpt>
      <trkpt lat="43.23726" lon="-1.67553">
        <ele>55.354</ele>
        <time>2020-05-14T17:12:19Z</time>
      </trkpt>
      <trkpt lat="43.23723" lon="-1.67557">
        <ele>55.356</ele>
        <time>2020-05-14T17:12:39Z</time>
      </trkpt>
      <trkpt lat="43.23714" lon="-1.67569">
        <ele>58.111</ele>
        <time>2020-05-14T17:12:59Z</time>
      </trkpt>
      <trkpt lat="43.23706" lon="-1.67581">
        <ele>59.508</ele>
        <time>2020-05-14T17:13:19Z</time>
      </trkpt>
      <trkpt lat="43.23691" lon="-1.67603">
        <ele>58.569</ele>
        <time>2020-05-14T17:13:39Z</time>
      </trkpt>
      <trkpt lat="43.23676" lon="-1.67627">
        <ele>56.414</ele>
        <time>2020-05-14T17:13:59Z</time>
      </trkpt>
      <trkpt lat="43.23662" lon="-1.67646">
        <ele>56.788</ele>
        <time>2020-05-14T17:14:19Z</time>
      </trkpt>
      <trkpt lat="43.23658" lon="-1.67649">
        <ele>58.556</ele>
        <time>2020-05-14T17:14:39Z</time>
      </trkpt>
      <trkpt lat="43.23655" lon="-1.67653">
        <ele>59.831</ele>
        <time>2020-05-14T17:14:59Z</time>
      </trkpt>
      <trkpt lat="43.2365" lon="-1.67659">
        <ele>56.851</ele>
        <time>2020-05-14T17:15:19Z</time>
      </trkpt>
      <trkpt lat="43.23637" lon="-1.6767">
        <ele>56.788</ele>
        <time>2020-05-14T17:15:39Z</time>
      </trkpt>
      <trkpt lat="43.23627" lon="-1.67679">
        <ele>62.43</ele>
        <time>2020-05-14T17:15:59Z</time>
      </trkpt>
      <trkpt lat="43.23626" lon="-1.6768">
        <ele>62.464</ele>
        <time>2020-05-14T17:16:19Z</time>
      </trkpt>
      <trkpt lat="43.23624" lon="-1.67682">
        <ele>57.406</ele>
        <time>2020-05-14T17:16:39Z</time>
      </trkpt>
      <trkpt lat="43.23621" lon="-1.67683">
        <ele>57.416</ele>
        <time>2020-05-14T17:16:59Z</time>
      </trkpt>
      <trkpt lat="43.23618" lon="-1.67685">
        <ele>63.508</ele>
        <time>2020-05-14T17:17:19Z</time>
      </trkpt>
      <trkpt lat="43.23608" lon="-1.6769">
        <ele>57.31</ele>
        <time>2020-05-14T17:17:39Z</time>
      </trkpt>
      <trkpt lat="43.23598" lon="-1.67695">
        <ele>67.185</ele>
        <time>2020-05-14T17:17:59Z</time>
      </trkpt>
      <trkpt lat="43.23595" lon="-1.67697">
        <ele>60.729</ele>
        <time>2020-05-14T17:18:19Z</time>
      </trkpt>
      <trkpt lat="43.23591" lon="-1.67699">
        <ele>66.527</ele>
        <time>2020-05-14T17:18:39Z</time>
      </trkpt>
      <trkpt lat="43.23582" lon="-1.67702">
        <ele>60.382</ele>
        <time>2020-05-14T17:18:59Z</time>
      </trkpt>
      <trkpt lat="43.23579" lon="-1.67702">
        <ele>57.682</ele>
        <time>2020-05-14T17:19:19Z</time>
      </trkpt>
      <trkpt lat="43.23576" lon="-1.67703">
        <ele>57.679</ele>
        <time>2020-05-14T17:19:39Z</time>
      </trkpt>
      <trkpt lat="43.23564" lon="-1.67706">
        <ele>64.691</ele>
        <time>2020-05-14T17:19:59Z</time>
      </trkpt>
      <trkpt lat="43.23552" lon="-1.6771">
        <ele>57.819</ele>
        <time>2020-05-14T17:20:19Z</time>
      </trkpt>
      <trkpt lat="43.23548" lon="-1.6771">
        <ele>59.109</ele>
        <time>2020-05-14T17:20:39Z</time>
      </trkpt>
      <trkpt lat="43.23546" lon="-1.67711">
        <ele>59.119</ele>
        <time>2020-05-14T17:20:59Z</time>
      </trkpt>
      <trkpt lat="43.23545" lon="-1.67711">
        <ele>59.108</ele>
        <time>2020-05-14T17:21:19Z</time>
      </trkpt>
      <trkpt lat="43.23521" lon="-1.67711">
        <ele>58.275</ele>
        <time>2020-05-14T17:21:39Z</time>
      </trkpt>
      <trkpt lat="43.23494" lon="-1.6771">
        <ele>58.24</ele>
        <time>2020-05-14T17:21:59Z</time>
      </trkpt>
      <trkpt lat="43.2349" lon="-1.67708">
        <ele>58.264</ele>
        <time>2020-05-14T17:22:19Z</time>
      </trkpt>
      <trkpt lat="43.23478" lon="-1.67704">
        <ele>58.432</ele>
        <time>2020-05-14T17:22:39Z</time>
      </trkpt>
      <trkpt lat="43.23465" lon="-1.67699">
        <ele>58.617</ele>
        <time>2020-05-14T17:22:59Z</time>
      </trkpt>
      <trkpt lat="43.23461" lon="-1.67696">
        <ele>63.017</ele>
        <time>2020-05-14T17:23:19Z</time>
      </trkpt>
      <trkpt lat="43.23457" lon="-1.67694">
        <ele>63.624</ele>
        <time>2020-05-14T17:23:39Z</time>
      </trkpt>
      <trkpt lat="43.23454" lon="-1.67692">
        <ele>58.516</ele>
        <time>2020-05-14T17:23:59Z</time>
      </trkpt>
      <trkpt lat="43.23451" lon="-1.6769">
        <ele>58.773</ele>
        <time>2020-05-14T17:24:19Z</time>
      </trkpt>
      <trkpt lat="43.23448" lon="-1.67687">
        <ele>58.685</ele>
        <time>2020-05-14T17:24:39Z</time>
      </trkpt>
      <trkpt lat="43.23445" lon="-1.67685">
        <ele>58.613</ele>
        <time>2020-05-14T17:24:59Z</time>
      </trkpt>
      <trkpt lat="43.23442" lon="-1.67681">
        <ele>58.608</ele>
        <time>2020-05-14T17:25:19Z</time>
      </trkpt>
      <trkpt lat="43.23439" lon="-1.67678">
        <ele>58.811</ele>
        <time>2020-05-14T17:25:39Z</time>
      </trkpt>
      <trkpt lat="43.23429" lon="-1.67667">
        <ele>58.766</ele>
        <time>2020-05-14T17:25:59Z</time>
      </trkpt>
      <trkpt lat="43.23419" lon="-1.67656">
        <ele>59.05</ele>
        <time>2020-05-14T17:26:19Z</time>
      </trkpt>
      <trkpt lat="43.23416" lon="-1.67653">
        <ele>59.358</ele>
        <time>2020-05-14T17:26:39Z</time>
      </trkpt>
      <trkpt lat="43.23414" lon="-1.6765">
        <ele>59.143</ele>
        <time>2020-05-14T17:26:59Z</time>
      </trkpt>
      <trkpt lat="43.234" lon="-1.67634">
        <ele>59.033</ele>
        <time>2020-05-14T17:27:19Z</time>
      </trkpt>
      <trkpt lat="43.23389" lon="-1.6762">
        <ele>59.02</ele>
        <time>2020-05-14T17:27:39Z</time>
      </trkpt>
      <trkpt lat="43.23378" lon="-1.67606">
        <ele>59.132</ele>
        <time>2020-05-14T17:27:59Z</time>
      </trkpt>
      <trkpt lat="43.23367" lon="-1.67593">
        <ele>59.335</ele>
        <time>2020-05-14T17:28:19Z</time>
      </trkpt>
      <trkpt lat="43.23334" lon="-1.67555">
        <ele>59.786</ele>
        <time>2020-05-14T17:28:39Z</time>
      </trkpt>
      <trkpt lat="43.2332" lon="-1.67538">
        <ele>60.114</ele>
        <time>2020-05-14T17:28:59Z</time>
      </trkpt>
      <trkpt lat="43.23306" lon="-1.67522">
        <ele>60.008</ele>
        <time>2020-05-14T17:29:19Z</time>
      </trkpt>
      <trkpt lat="43.233" lon="-1.67516">
        <ele>60.137</ele>
        <time>2020-05-14T17:29:39Z</time>
      </trkpt>
      <trkpt lat="43.23295" lon="-1.6751">
        <ele>60.282</ele>
        <time>2020-05-14T17:29:59Z</time>
      </trkpt>
      <trkpt lat="43.23291" lon="-1.67506">
        <ele>60.346</ele>
        <time>2020-05-14T17:30:19Z</time>
      </trkpt>
      <trkpt lat="43.23287" lon="-1.67502">
        <ele>60.414</ele>
        <time>2020-05-14T17:30:39Z</time>
      </trkpt>
      <trkpt lat="43.23285" lon="-1.675">
        <ele>60.459</ele>
        <time>2020-05-14T17:30:59Z</time>
      </trkpt>
      <trkpt lat="43.23282" lon="-1.67497">
        <ele>60.449</ele>
        <time>2020-05-14T17:31:19Z</time>
      </trkpt>
      <trkpt lat="43.23279" lon="-1.67495">
        <ele>60.576</ele>
        <time>2020-05-14T17:31:39Z</time>
      </trkpt>
      <trkpt lat="43.23277" lon="-1.67493">
        <ele>60.488</ele>
        <time>2020-05-14T17:31:59Z</time>
      </trkpt>
      <trkpt lat="43.23273" lon="-1.67491">
        <ele>60.417</ele>
        <time>2020-05-14T17:32:19Z</time>
      </trkpt>
      <trkpt lat="43.23264" lon="-1.67487">
        <ele>60.487</ele>
        <time>2020-05-14T17:32:39Z</time>
      </trkpt>
      <trkpt lat="43.23253" lon="-1.67483">
        <ele>62.515</ele>
        <time>2020-05-14T17:32:59Z</time>
      </trkpt>
      <trkpt lat="43.23243" lon="-1.67481">
        <ele>60.508</ele>
        <time>2020-05-14T17:33:19Z</time>
      </trkpt>
      <trkpt lat="43.23237" lon="-1.67481">
        <ele>60.695</ele>
        <time>2020-05-14T17:33:39Z</time>
      </trkpt>
      <trkpt lat="43.23231" lon="-1.6748">
        <ele>62.09</ele>
        <time>2020-05-14T17:33:59Z</time>
      </trkpt>
      <trkpt lat="43.23229" lon="-1.6748">
        <ele>63.334</ele>
        <time>2020-05-14T17:34:19Z</time>
      </trkpt>
      <trkpt lat="43.23226" lon="-1.6748">
        <ele>62.192</ele>
        <time>2020-05-14T17:34:39Z</time>
      </trkpt>
      <trkpt lat="43.23224" lon="-1.6748">
        <ele>62.187</ele>
        <time>2020-05-14T17:34:59Z</time>
      </trkpt>
      <trkpt lat="43.23222" lon="-1.6748">
        <ele>61.357</ele>
        <time>2020-05-14T17:35:19Z</time>
      </trkpt>
      <trkpt lat="43.23217" lon="-1.67481">
        <ele>60.934</ele>
        <time>2020-05-14T17:35:39Z</time>
      </trkpt>
      <trkpt lat="43.23213" lon="-1.67482">
        <ele>60.986</ele>
        <time>2020-05-14T17:35:59Z</time>
      </trkpt>
      <trkpt lat="43.2321" lon="-1.67483">
        <ele>60.594</ele>
        <time>2020-05-14T17:36:19Z</time>
      </trkpt>
      <trkpt lat="43.23207" lon="-1.67484">
        <ele>62.857</ele>
        <time>2020-05-14T17:36:39Z</time>
      </trkpt>
      <trkpt lat="43.23202" lon="-1.67486">
        <ele>62.922</ele>
        <time>2020-05-14T17:36:59Z</time>
      </trkpt>
      <trkpt lat="43.23198" lon="-1.67488">
        <ele>61.308</ele>
        <time>2020-05-14T17:37:19Z</time>
      </trkpt>
      <trkpt lat="43.23192" lon="-1.67491">
        <ele>62.143</ele>
        <time>2020-05-14T17:37:39Z</time>
      </trkpt>
      <trkpt lat="43.23186" lon="-1.67494">
        <ele>60.618</ele>
        <time>2020-05-14T17:37:59Z</time>
      </trkpt>
      <trkpt lat="43.23182" lon="-1.67497">
        <ele>61.342</ele>
        <time>2020-05-14T17:38:19Z</time>
      </trkpt>
      <trkpt lat="43.2318" lon="-1.67499">
        <ele>60.53</ele>
        <time>2020-05-14T17:38:39Z</time>
      </trkpt>
      <trkpt lat="43.23178" lon="-1.67501">
        <ele>60.575</ele>
        <time>2020-05-14T17:38:59Z</time>
      </trkpt>
      <trkpt lat="43.23176" lon="-1.67503">
        <ele>60.585</ele>
        <time>2020-05-14T17:39:19Z</time>
      </trkpt>
      <trkpt lat="43.23173" lon="-1.67507">
        <ele>60.582</ele>
        <time>2020-05-14T17:39:39Z</time>
      </trkpt>
      <trkpt lat="43.23172" lon="-1.6751">
        <ele>60.354</ele>
        <time>2020-05-14T17:39:59Z</time>
      </trkpt>
      <trkpt lat="43.23163" lon="-1.6752">
        <ele>60.177</ele>
        <time>2020-05-14T17:40:19Z</time>
      </trkpt>
      <trkpt lat="43.23155" lon="-1.67532">
        <ele>60.561</ele>
        <time>2020-05-14T17:40:39Z</time>
      </trkpt>
      <trkpt lat="43.2315" lon="-1.67539">
        <ele>60.727</ele>
        <time>2020-05-14T17:40:59Z</time>
      </trkpt>
      <trkpt lat="43.23148" lon="-1.67546">
        <ele>60.808</ele>
        <time>2020-05-14T17:41:19Z</time>
      </trkpt>
      <trkpt lat="43.23146" lon="-1.67551">
        <ele>60.821</ele>
        <time>2020-05-14T17:41:39Z</time>
      </trkpt>
      <trkpt lat="43.23146" lon="-1.67553">
        <ele>61.096</ele>
        <time>2020-05-14T17:41:59Z</time>
      </trkpt>
      <trkpt lat="43.23141" lon="-1.67563">
        <ele>60.92</ele>
        <time>2020-05-14T17:42:19Z</time>
      </trkpt>
      <trkpt lat="43.23133" lon="-1.67578">
        <ele>61.688</ele>
        <time>2020-05-14T17:42:39Z</time>
      </trkpt>
      <trkpt lat="43.2312" lon="-1.67602">
        <ele>60.353</ele>
        <time>2020-05-14T17:42:59Z</time>
      </trkpt>
      <trkpt lat="43.23108" lon="-1.67626">
        <ele>60.643</ele>
        <time>2020-05-14T17:43:19Z</time>
      </trkpt>
      <trkpt lat="43.231" lon="-1.6765">
        <ele>60.88</ele>
        <time>2020-05-14T17:43:39Z</time>
      </trkpt>
      <trkpt lat="43.23097" lon="-1.67659">
        <ele>61.062</ele>
        <time>2020-05-14T17:43:59Z</time>
      </trkpt>
      <trkpt lat="43.23093" lon="-1.67669">
        <ele>62.763</ele>
        <time>2020-05-14T17:44:19Z</time>
      </trkpt>
      <trkpt lat="43.23086" lon="-1.6769">
        <ele>61.144</ele>
        <time>2020-05-14T17:44:39Z</time>
      </trkpt>
      <trkpt lat="43.23079" lon="-1.67711">
        <ele>61.318</ele>
        <time>2020-05-14T17:44:59Z</time>
      </trkpt>
      <trkpt lat="43.23072" lon="-1.67729">
        <ele>63.908</ele>
        <time>2020-05-14T17:45:19Z</time>
      </trkpt>
      <trkpt lat="43.23065" lon="-1.67746">
        <ele>61.57</ele>
        <time>2020-05-14T17:45:39Z</time>
      </trkpt>
      <trkpt lat="43.2306" lon="-1.67759">
        <ele>62.555</ele>
        <time>2020-05-14T17:45:59Z</time>
      </trkpt>
      <trkpt lat="43.23056" lon="-1.67771">
        <ele>62.719</ele>
        <time>2020-05-14T17:46:19Z</time>
      </trkpt>
      <trkpt lat="43.23053" lon="-1.67779">
        <ele>61.577</ele>
        <time>2020-05-14T17:46:39Z</time>
      </trkpt>
      <trkpt lat="43.2305" lon="-1.67785">
        <ele>61.772</ele>
        <time>2020-05-14T17:46:59Z</time>
      </trkpt>
      <trkpt lat="43.23048" lon="-1.67791">
        <ele>61.752</ele>
        <time>2020-05-14T17:47:19Z</time>
      </trkpt>
      <trkpt lat="43.23041" lon="-1.67803">
        <ele>65.099</ele>
        <time>2020-05-14T17:47:39Z</time>
      </trkpt>
      <trkpt lat="43.23033" lon="-1.67818">
        <ele>62.031</ele>
        <time>2020-05-14T17:47:59Z</time>
      </trkpt>
      <trkpt lat="43.2303" lon="-1.67822">
        <ele>62.157</ele>
        <time>2020-05-14T17:48:19Z</time>
      </trkpt>
      <trkpt lat="43.23027" lon="-1.67826">
        <ele>62.1</ele>
        <time>2020-05-14T17:48:39Z</time>
      </trkpt>
      <trkpt lat="43.23024" lon="-1.6783">
        <ele>63.92</ele>
        <time>2020-05-14T17:48:59Z</time>
      </trkpt>
      <trkpt lat="43.2302" lon="-1.67834">
        <ele>64.808</ele>
        <time>2020-05-14T17:49:19Z</time>
      </trkpt>
      <trkpt lat="43.23013" lon="-1.6784">
        <ele>62.719</ele>
        <time>2020-05-14T17:49:39Z</time>
      </trkpt>
      <trkpt lat="43.23005" lon="-1.67847">
        <ele>62.694</ele>
        <time>2020-05-14T17:49:59Z</time>
      </trkpt>
      <trkpt lat="43.22995" lon="-1.67854">
        <ele>63.538</ele>
        <time>2020-05-14T17:50:19Z</time>
      </trkpt>
      <trkpt lat="43.22985" lon="-1.67859">
        <ele>63.276</ele>
        <time>2020-05-14T17:50:39Z</time>
      </trkpt>
      <trkpt lat="43.22975" lon="-1.67864">
        <ele>62.621</ele>
        <time>2020-05-14T17:50:59Z</time>
      </trkpt>
      <trkpt lat="43.22965" lon="-1.67868">
        <ele>62.521</ele>
        <time>2020-05-14T17:51:19Z</time>
      </trkpt>
      <trkpt lat="43.22955" lon="-1.67872">
        <ele>64.638</ele>
        <time>2020-05-14T17:51:39Z</time>
      </trkpt>
      <trkpt lat="43.22933" lon="-1.67881">
        <ele>63.36</ele>
        <time>2020-05-14T17:51:59Z</time>
      </trkpt>
      <trkpt lat="43.2292" lon="-1.67886">
        <ele>64.798</ele>
        <time>2020-05-14T17:52:19Z</time>
      </trkpt>
      <trkpt lat="43.2292" lon="-1.67886">
        <ele>64.715</ele>
        <time>2020-05-14T17:52:39Z</time>
      </trkpt>
      <trkpt lat="43.22906" lon="-1.67891">
        <ele>64.526</ele>
        <time>2020-05-14T17:52:59Z</time>
      </trkpt>
      <trkpt lat="43.22892" lon="-1.67897">
        <ele>62.808</ele>
        <time>2020-05-14T17:53:19Z</time>
      </trkpt>
      <trkpt lat="43.2287" lon="-1.67904">
        <ele>64.353</ele>
        <time>2020-05-14T17:53:39Z</time>
      </trkpt>
      <trkpt lat="43.2286" lon="-1.67909">
        <ele>63.038</ele>
        <time>2020-05-14T17:53:59Z</time>
      </trkpt>
      <trkpt lat="43.22853" lon="-1.67913">
        <ele>63.072</ele>
        <time>2020-05-14T17:54:19Z</time>
      </trkpt>
      <trkpt lat="43.22847" lon="-1.67916">
        <ele>62.87</ele>
        <time>2020-05-14T17:54:39Z</time>
      </trkpt>
      <trkpt lat="43.22844" lon="-1.67918">
        <ele>62.825</ele>
        <time>2020-05-14T17:54:59Z</time>
      </trkpt>
      <trkpt lat="43.22829" lon="-1.67926">
        <ele>63.255</ele>
        <time>2020-05-14T17:55:19Z</time>
      </trkpt>
      <trkpt lat="43.22827" lon="-1.67927">
        <ele>63.282</ele>
        <time>2020-05-14T17:55:39Z</time>
      </trkpt>
      <trkpt lat="43.22826" lon="-1.67925">
        <ele>63.224</ele>
        <time>2020-05-14T17:55:59Z</time>
      </trkpt>
      <trkpt lat="43.22826" lon="-1.67922">
        <ele>63.292</ele>
        <time>2020-05-14T17:56:19Z</time>
      </trkpt>
      <trkpt lat="43.22825" lon="-1.67921">
        <ele>63.273</ele>
        <time>2020-05-14T17:56:39Z</time>
      </trkpt>
      <trkpt lat="43.22823" lon="-1.67921">
        <ele>63.22</ele>
        <time>2020-05-14T17:56:59Z</time>
      </trkpt>
      <trkpt lat="43.22816" lon="-1.67921">
        <ele>63.108</ele>
        <time>2020-05-14T17:57:19Z</time>
      </trkpt>
      <trkpt lat="43.2281" lon="-1.67922">
        <ele>63.023</ele>
        <time>2020-05-14T17:57:39Z</time>
      </trkpt>
      <trkpt lat="43.22806" lon="-1.67923">
        <ele>63.198</ele>
        <time>2020-05-14T17:57:59Z</time>
      </trkpt>
      <trkpt lat="43.22803" lon="-1.67923">
        <ele>63.092</ele>
        <time>2020-05-14T17:58:19Z</time>
      </trkpt>
      <trkpt lat="43.22802" lon="-1.67923">
        <ele>63.08</ele>
        <time>2020-05-14T17:58:39Z</time>
      </trkpt>
      <trkpt lat="43.22801" lon="-1.67923">
        <ele>63.045</ele>
        <time>2020-05-14T17:58:59Z</time>
      </trkpt>
      <trkpt lat="43.22787" lon="-1.67921">
        <ele>59.185</ele>
        <time>2020-05-14T17:59:19Z</time>
      </trkpt>
      <trkpt lat="43.22786" lon="-1.67921">
        <ele>63.012</ele>
        <time>2020-05-14T17:59:39Z</time>
      </trkpt>
      <trkpt lat="43.22784" lon="-1.67921">
        <ele>63.084</ele>
        <time>2020-05-14T17:59:59Z</time>
      </trkpt>
      <trkpt lat="43.22784" lon="-1.67921">
        <ele>63.023</ele>
        <time>2020-05-14T18:00:19Z</time>
      </trkpt>
      <trkpt lat="43.22781" lon="-1.6792">
        <ele>63.283</ele>
        <time>2020-05-14T18:00:39Z</time>
      </trkpt>
      <trkpt lat="43.22775" lon="-1.67919">
        <ele>63.311</ele>
        <time>2020-05-14T18:00:59Z</time>
      </trkpt>
      <trkpt lat="43.22766" lon="-1.67917">
        <ele>63.408</ele>
        <time>2020-05-14T18:01:19Z</time>
      </trkpt>
      <trkpt lat="43.2276" lon="-1.67914">
        <ele>63.466</ele>
        <time>2020-05-14T18:01:39Z</time>
      </trkpt>
      <trkpt lat="43.22755" lon="-1.67911">
        <ele>63.471</ele>
        <time>2020-05-14T18:01:59Z</time>
      </trkpt>
      <trkpt lat="43.22751" lon="-1.67908">
        <ele>63.415</ele>
        <time>2020-05-14T18:02:19Z</time>
      </trkpt>
      <trkpt lat="43.22746" lon="-1.67905">
        <ele>63.593</ele>
        <time>2020-05-14T18:02:39Z</time>
      </trkpt>
      <trkpt lat="43.22741" lon="-1.67901">
        <ele>63.598</ele>
        <time>2020-05-14T18:02:59Z</time>
      </trkpt>
      <trkpt lat="43.22733" lon="-1.67896">
        <ele>63.498</ele>
        <time>2020-05-14T18:03:19Z</time>
      </trkpt>
      <trkpt lat="43.22726" lon="-1.6789">
        <ele>63.495</ele>
        <time>2020-05-14T18:03:39Z</time>
      </trkpt>
      <trkpt lat="43.22716" lon="-1.67882">
        <ele>63.267</ele>
        <time>2020-05-14T18:03:59Z</time>
      </trkpt>
      <trkpt lat="43.22687" lon="-1.67856">
        <ele>63.042</ele>
        <time>2020-05-14T18:04:19Z</time>
      </trkpt>
      <trkpt lat="43.2267" lon="-1.67841">
        <ele>63.222</ele>
        <time>2020-05-14T18:04:39Z</time>
      </trkpt>
      <trkpt lat="43.22662" lon="-1.67833">
        <ele>62.914</ele>
        <time>2020-05-14T18:04:59Z</time>
      </trkpt>
      <trkpt lat="43.22653" lon="-1.67823">
        <ele>63.008</ele>
        <time>2020-05-14T18:05:19Z</time>
      </trkpt>
      <trkpt lat="43.22648" lon="-1.67815">
        <ele>63.048</ele>
        <time>2020-05-14T18:05:39Z</time>
      </trkpt>
      <trkpt lat="43.22642" lon="-1.67808">
        <ele>63.093</ele>
        <time>2020-05-14T18:05:59Z</time>
      </trkpt>
      <trkpt lat="43.22633" lon="-1.67796">
        <ele>63.167</ele>
        <time>2020-05-14T18:06:19Z</time>
      </trkpt>
      <trkpt lat="43.22624" lon="-1.67785">
        <ele>63.095</ele>
        <time>2020-05-14T18:06:39Z</time>
      </trkpt>
      <trkpt lat="43.2262" lon="-1.6778">
        <ele>63.27</ele>
        <time>2020-05-14T18:06:59Z</time>
      </trkpt>
      <trkpt lat="43.22616" lon="-1.67774">
        <ele>63.54</ele>
        <time>2020-05-14T18:07:19Z</time>
      </trkpt>
      <trkpt lat="43.22613" lon="-1.67771">
        <ele>63.257</ele>
        <time>2020-05-14T18:07:39Z</time>
      </trkpt>
      <trkpt lat="43.22609" lon="-1.67767">
        <ele>63.159</ele>
        <time>2020-05-14T18:07:59Z</time>
      </trkpt>
      <trkpt lat="43.22605" lon="-1.67762">
        <ele>63.277</ele>
        <time>2020-05-14T18:08:19Z</time>
      </trkpt>
      <trkpt lat="43.226" lon="-1.67757">
        <ele>62.961</ele>
        <time>2020-05-14T18:08:39Z</time>
      </trkpt>
      <trkpt lat="43.22591" lon="-1.67749">
        <ele>63.027</ele>
        <time>2020-05-14T18:08:59Z</time>
      </trkpt>
      <trkpt lat="43.22582" lon="-1.6774">
        <ele>63.008</ele>
        <time>2020-05-14T18:09:19Z</time>
      </trkpt>
      <trkpt lat="43.22569" lon="-1.67726">
        <ele>63.011</ele>
        <time>2020-05-14T18:09:39Z</time>
      </trkpt>
      <trkpt lat="43.22555" lon="-1.67712">
        <ele>63.086</ele>
        <time>2020-05-14T18:09:59Z</time>
      </trkpt>
      <trkpt lat="43.22554" lon="-1.67711">
        <ele>63.06</ele>
        <time>2020-05-14T18:10:19Z</time>
      </trkpt>
      <trkpt lat="43.22553" lon="-1.67711">
        <ele>63.088</ele>
        <time>2020-05-14T18:10:39Z</time>
      </trkpt>
      <trkpt lat="43.22527" lon="-1.67686">
        <ele>63.253</ele>
        <time>2020-05-14T18:10:59Z</time>
      </trkpt>
      <trkpt lat="43.22519" lon="-1.67678">
        <ele>65.573</ele>
        <time>2020-05-14T18:11:19Z</time>
      </trkpt>
      <trkpt lat="43.22512" lon="-1.6767">
        <ele>63.12</ele>
        <time>2020-05-14T18:11:39Z</time>
      </trkpt>
      <trkpt lat="43.22506" lon="-1.67663">
        <ele>63.232</ele>
        <time>2020-05-14T18:11:59Z</time>
      </trkpt>
      <trkpt lat="43.225" lon="-1.67656">
        <ele>63.244</ele>
        <time>2020-05-14T18:12:19Z</time>
      </trkpt>
      <trkpt lat="43.22497" lon="-1.67652">
        <ele>63.205</ele>
        <time>2020-05-14T18:12:39Z</time>
      </trkpt>
      <trkpt lat="43.22494" lon="-1.6765">
        <ele>63.215</ele>
        <time>2020-05-14T18:12:59Z</time>
      </trkpt>
      <trkpt lat="43.22492" lon="-1.67648">
        <ele>63.208</ele>
        <time>2020-05-14T18:13:19Z</time>
      </trkpt>
      <trkpt lat="43.22483" lon="-1.67638">
        <ele>63.258</ele>
        <time>2020-05-14T18:13:39Z</time>
      </trkpt>
      <trkpt lat="43.22481" lon="-1.67636">
        <ele>63.283</ele>
        <time>2020-05-14T18:13:59Z</time>
      </trkpt>
      <trkpt lat="43.2248" lon="-1.67634">
        <ele>63.287</ele>
        <time>2020-05-14T18:14:19Z</time>
      </trkpt>
      <trkpt lat="43.22455" lon="-1.67618">
        <ele>63.475</ele>
        <time>2020-05-14T18:14:39Z</time>
      </trkpt>
      <trkpt lat="43.22447" lon="-1.67614">
        <ele>63.31</ele>
        <time>2020-05-14T18:14:59Z</time>
      </trkpt>
      <trkpt lat="43.22443" lon="-1.67612">
        <ele>63.39</ele>
        <time>2020-05-14T18:15:19Z</time>
      </trkpt>
      <trkpt lat="43.22438" lon="-1.6761">
        <ele>63.467</ele>
        <time>2020-05-14T18:15:39Z</time>
      </trkpt>
      <trkpt lat="43.22424" lon="-1.67605">
        <ele>63.369</ele>
        <time>2020-05-14T18:15:59Z</time>
      </trkpt>
      <trkpt lat="43.22418" lon="-1.67603">
        <ele>63.344</ele>
        <time>2020-05-14T18:16:19Z</time>
      </trkpt>
      <trkpt lat="43.22413" lon="-1.67602">
        <ele>63.405</ele>
        <time>2020-05-14T18:16:39Z</time>
      </trkpt>
      <trkpt lat="43.22408" lon="-1.67601">
        <ele>63.415</ele>
        <time>2020-05-14T18:16:59Z</time>
      </trkpt>
      <trkpt lat="43.22403" lon="-1.67601">
        <ele>63.608</ele>
        <time>2020-05-14T18:17:19Z</time>
      </trkpt>
      <trkpt lat="43.22396" lon="-1.676">
        <ele>63.538</ele>
        <time>2020-05-14T18:17:39Z</time>
      </trkpt>
      <trkpt lat="43.22389" lon="-1.676">
        <ele>63.513</ele>
        <time>2020-05-14T18:17:59Z</time>
      </trkpt>
      <trkpt lat="43.22377" lon="-1.67601">
        <ele>64.027</ele>
        <time>2020-05-14T18:18:19Z</time>
      </trkpt>
      <trkpt lat="43.22365" lon="-1.67602">
        <ele>63.815</ele>
        <time>2020-05-14T18:18:39Z</time>
      </trkpt>
      <trkpt lat="43.22357" lon="-1.67603">
        <ele>64.23</ele>
        <time>2020-05-14T18:18:59Z</time>
      </trkpt>
      <trkpt lat="43.22349" lon="-1.67603">
        <ele>64.18</ele>
        <time>2020-05-14T18:19:19Z</time>
      </trkpt>
      <trkpt lat="43.22341" lon="-1.67605">
        <ele>64.157</ele>
        <time>2020-05-14T18:19:39Z</time>
      </trkpt>
      <trkpt lat="43.22285" lon="-1.67619">
        <ele>64.259</ele>
        <time>2020-05-14T18:19:59Z</time>
      </trkpt>
      <trkpt lat="43.22272" lon="-1.67622">
        <ele>66.546</ele>
        <time>2020-05-14T18:20:19Z</time>
      </trkpt>
      <trkpt lat="43.2226" lon="-1.67625">
        <ele>65.288</ele>
        <time>2020-05-14T18:20:39Z</time>
      </trkpt>
      <trkpt lat="43.22255" lon="-1.67627">
        <ele>64.316</ele>
        <time>2020-05-14T18:20:59Z</time>
      </trkpt>
      <trkpt lat="43.22249" lon="-1.67629">
        <ele>64.308</ele>
        <time>2020-05-14T18:21:19Z</time>
      </trkpt>
      <trkpt lat="43.2224" lon="-1.67633">
        <ele>64.278</ele>
        <time>2020-05-14T18:21:39Z</time>
      </trkpt>
      <trkpt lat="43.22231" lon="-1.67637">
        <ele>64.423</ele>
        <time>2020-05-14T18:21:59Z</time>
      </trkpt>
      <trkpt lat="43.22225" lon="-1.67641">
        <ele>64.567</ele>
        <time>2020-05-14T18:22:19Z</time>
      </trkpt>
      <trkpt lat="43.2222" lon="-1.67644">
        <ele>64.495</ele>
        <time>2020-05-14T18:22:39Z</time>
      </trkpt>
      <trkpt lat="43.22216" lon="-1.67647">
        <ele>64.98</ele>
        <time>2020-05-14T18:22:59Z</time>
      </trkpt>
      <trkpt lat="43.22213" lon="-1.6765">
        <ele>64.42</ele>
        <time>2020-05-14T18:23:19Z</time>
      </trkpt>
      <trkpt lat="43.22209" lon="-1.67654">
        <ele>64.327</ele>
        <time>2020-05-14T18:23:39Z</time>
      </trkpt>
      <trkpt lat="43.22205" lon="-1.67658">
        <ele>64.359</ele>
        <time>2020-05-14T18:23:59Z</time>
      </trkpt>
      <trkpt lat="43.22197" lon="-1.67667">
        <ele>64.457</ele>
        <time>2020-05-14T18:24:19Z</time>
      </trkpt>
      <trkpt lat="43.2219" lon="-1.67676">
        <ele>64.4</ele>
        <time>2020-05-14T18:24:39Z</time>
      </trkpt>
      <trkpt lat="43.22185" lon="-1.67683">
        <ele>64.42</ele>
        <time>2020-05-14T18:24:59Z</time>
      </trkpt>
      <trkpt lat="43.22181" lon="-1.67688">
        <ele>64.408</ele>
        <time>2020-05-14T18:25:19Z</time>
      </trkpt>
      <trkpt lat="43.22171" lon="-1.67707">
        <ele>64.879</ele>
        <time>2020-05-14T18:25:39Z</time>
      </trkpt>
      <trkpt lat="43.22165" lon="-1.6772">
        <ele>64.324</ele>
        <time>2020-05-14T18:25:59Z</time>
      </trkpt>
      <trkpt lat="43.22159" lon="-1.67739">
        <ele>64.448</ele>
        <time>2020-05-14T18:26:19Z</time>
      </trkpt>
      <trkpt lat="43.22153" lon="-1.6776">
        <ele>64.516</ele>
        <time>2020-05-14T18:26:39Z</time>
      </trkpt>
      <trkpt lat="43.22137" lon="-1.67824">
        <ele>67.441</ele>
        <time>2020-05-14T18:26:59Z</time>
      </trkpt>
      <trkpt lat="43.22127" lon="-1.67863">
        <ele>65.371</ele>
        <time>2020-05-14T18:27:19Z</time>
      </trkpt>
      <trkpt lat="43.22117" lon="-1.67901">
        <ele>65.348</ele>
        <time>2020-05-14T18:27:39Z</time>
      </trkpt>
      <trkpt lat="43.22107" lon="-1.67938">
        <ele>65.55</ele>
        <time>2020-05-14T18:27:59Z</time>
      </trkpt>
      <trkpt lat="43.22107" lon="-1.67941">
        <ele>65.446</ele>
        <time>2020-05-14T18:28:19Z</time>
      </trkpt>
      <trkpt lat="43.22106" lon="-1.67944">
        <ele>65.588</ele>
        <time>2020-05-14T18:28:39Z</time>
      </trkpt>
      <trkpt lat="43.22104" lon="-1.67949">
        <ele>65.416</ele>
        <time>2020-05-14T18:28:59Z</time>
      </trkpt>
      <trkpt lat="43.22101" lon="-1.67955">
        <ele>65.408</ele>
        <time>2020-05-14T18:29:19Z</time>
      </trkpt>
      <trkpt lat="43.22098" lon="-1.67961">
        <ele>65.698</ele>
        <time>2020-05-14T18:29:39Z</time>
      </trkpt>
      <trkpt lat="43.22095" lon="-1.67967">
        <ele>65.513</ele>
        <time>2020-05-14T18:29:59Z</time>
      </trkpt>
      <trkpt lat="43.22092" lon="-1.67973">
        <ele>65.637</ele>
        <time>2020-05-14T18:30:19Z</time>
      </trkpt>
      <trkpt lat="43.22089" lon="-1.67979">
        <ele>65.825</ele>
        <time>2020-05-14T18:30:39Z</time>
      </trkpt>
      <trkpt lat="43.22085" lon="-1.67984">
        <ele>65.93</ele>
        <time>2020-05-14T18:30:59Z</time>
      </trkpt>
      <trkpt lat="43.22082" lon="-1.67988">
        <ele>65.77</ele>
        <time>2020-05-14T18:31:19Z</time>
      </trkpt>
      <trkpt lat="43.22079" lon="-1.67993">
        <ele>65.667</ele>
        <time>2020-05-14T18:31:39Z</time>
      </trkpt>
      <trkpt lat="43.22071" lon="-1.68002">
        <ele>67.739</ele>
        <time>2020-05-14T18:31:59Z</time>
      </trkpt>
      <trkpt lat="43.22065" lon="-1.68009">
        <ele>66.056</ele>
        <time>2020-05-14T18:32:19Z</time>
      </trkpt>
      <trkpt lat="43.22056" lon="-1.68016">
        <ele>66.159</ele>
        <time>2020-05-14T18:32:39Z</time>
      </trkpt>
      <trkpt lat="43.22052" lon="-1.68019">
        <ele>66.014</ele>
        <time>2020-05-14T18:32:59Z</time>
      </trkpt>
      <trkpt lat="43.22048" lon="-1.68022">
        <ele>66.508</ele>
        <time>2020-05-14T18:33:19Z</time>
      </trkpt>
      <trkpt lat="43.2204" lon="-1.68026">
        <ele>67.959</ele>
        <time>2020-05-14T18:33:39Z</time>
      </trkpt>
      <trkpt lat="43.22031" lon="-1.68031">
        <ele>66.774</ele>
        <time>2020-05-14T18:33:59Z</time>
      </trkpt>
      <trkpt lat="43.22027" lon="-1.68033">
        <ele>66.538</ele>
        <time>2020-05-14T18:34:19Z</time>
      </trkpt>
      <trkpt lat="43.22023" lon="-1.68034">
        <ele>67.196</ele>
        <time>2020-05-14T18:34:39Z</time>
      </trkpt>
      <trkpt lat="43.22018" lon="-1.68035">
        <ele>67.051</ele>
        <time>2020-05-14T18:34:59Z</time>
      </trkpt>
      <trkpt lat="43.22014" lon="-1.68036">
        <ele>66.821</ele>
        <time>2020-05-14T18:35:19Z</time>
      </trkpt>
      <trkpt lat="43.22009" lon="-1.68037">
        <ele>66.978</ele>
        <time>2020-05-14T18:35:39Z</time>
      </trkpt>
      <trkpt lat="43.22004" lon="-1.68038">
        <ele>66.96</ele>
        <time>2020-05-14T18:35:59Z</time>
      </trkpt>
      <trkpt lat="43.21999" lon="-1.68038">
        <ele>66.919</ele>
        <time>2020-05-14T18:36:19Z</time>
      </trkpt>
      <trkpt lat="43.21995" lon="-1.68038">
        <ele>67.009</ele>
        <time>2020-05-14T18:36:39Z</time>
      </trkpt>
      <trkpt lat="43.21994" lon="-1.68039">
        <ele>66.819</ele>
        <time>2020-05-14T18:36:59Z</time>
      </trkpt>
      <trkpt lat="43.21992" lon="-1.68039">
        <ele>66.808</ele>
        <time>2020-05-14T18:37:19Z</time>
      </trkpt>
      <trkpt lat="43.21983" lon="-1.68039">
        <ele>66.975</ele>
        <time>2020-05-14T18:37:39Z</time>
      </trkpt>
      <trkpt lat="43.21975" lon="-1.68039">
        <ele>66.98</ele>
        <time>2020-05-14T18:37:59Z</time>
      </trkpt>
      <trkpt lat="43.21968" lon="-1.68038">
        <ele>67.094</ele>
        <time>2020-05-14T18:38:19Z</time>
      </trkpt>
      <trkpt lat="43.21963" lon="-1.68037">
        <ele>67.032</ele>
        <time>2020-05-14T18:38:39Z</time>
      </trkpt>
      <trkpt lat="43.21959" lon="-1.68036">
        <ele>67.367</ele>
        <time>2020-05-14T18:38:59Z</time>
      </trkpt>
      <trkpt lat="43.21945" lon="-1.68031">
        <ele>68.487</ele>
        <time>2020-05-14T18:39:19Z</time>
      </trkpt>
      <trkpt lat="43.2193" lon="-1.68027">
        <ele>67.524</ele>
        <time>2020-05-14T18:39:39Z</time>
      </trkpt>
      <trkpt lat="43.21915" lon="-1.68022">
        <ele>67.136</ele>
        <time>2020-05-14T18:39:59Z</time>
      </trkpt>
      <trkpt lat="43.21895" lon="-1.68016">
        <ele>67.148</ele>
        <time>2020-05-14T18:40:19Z</time>
      </trkpt>
      <trkpt lat="43.21876" lon="-1.68009">
        <ele>67.461</ele>
        <time>2020-05-14T18:40:39Z</time>
      </trkpt>
      <trkpt lat="43.21856" lon="-1.68005">
        <ele>67.617</ele>
        <time>2020-05-14T18:40:59Z</time>
      </trkpt>
      <trkpt lat="43.21844" lon="-1.68001">
        <ele>68.308</ele>
        <time>2020-05-14T18:41:19Z</time>
      </trkpt>
      <trkpt lat="43.21831" lon="-1.67996">
        <ele>67.798</ele>
        <time>2020-05-14T18:41:39Z</time>
      </trkpt>
      <trkpt lat="43.21824" lon="-1.67993">
        <ele>67.683</ele>
        <time>2020-05-14T18:41:59Z</time>
      </trkpt>
      <trkpt lat="43.21818" lon="-1.6799">
        <ele>67.897</ele>
        <time>2020-05-14T18:42:19Z</time>
      </trkpt>
      <trkpt lat="43.2181" lon="-1.67985">
        <ele>67.715</ele>
        <time>2020-05-14T18:42:39Z</time>
      </trkpt>
      <trkpt lat="43.21805" lon="-1.67982">
        <ele>67.61</ele>
        <time>2020-05-14T18:42:59Z</time>
      </trkpt>
      <trkpt lat="43.218" lon="-1.67978">
        <ele>68.78</ele>
        <time>2020-05-14T18:43:19Z</time>
      </trkpt>
      <trkpt lat="43.21796" lon="-1.67975">
        <ele>67.667</ele>
        <time>2020-05-14T18:43:39Z</time>
      </trkpt>
      <trkpt lat="43.21792" lon="-1.67972">
        <ele>67.939</ele>
        <time>2020-05-14T18:43:59Z</time>
      </trkpt>
      <trkpt lat="43.21787" lon="-1.67966">
        <ele>69.326</ele>
        <time>2020-05-14T18:44:19Z</time>
      </trkpt>
      <trkpt lat="43.2178" lon="-1.67957">
        <ele>68.847</ele>
        <time>2020-05-14T18:44:39Z</time>
      </trkpt>
      <trkpt lat="43.21776" lon="-1.67952">
        <ele>68.111</ele>
        <time>2020-05-14T18:44:59Z</time>
      </trkpt>
      <trkpt lat="43.21773" lon="-1.67946">
        <ele>68.908</ele>
        <time>2020-05-14T18:45:19Z</time>
      </trkpt>
      <trkpt lat="43.21769" lon="-1.6794">
        <ele>68.386</ele>
        <time>2020-05-14T18:45:39Z</time>
      </trkpt>
      <trkpt lat="43.21766" lon="-1.67934">
        <ele>68.441</ele>
        <time>2020-05-14T18:45:59Z</time>
      </trkpt>
      <trkpt lat="43.21762" lon="-1.67927">
        <ele>68.485</ele>
        <time>2020-05-14T18:46:19Z</time>
      </trkpt>
      <trkpt lat="43.21759" lon="-1.6792">
        <ele>68.443</ele>
        <time>2020-05-14T18:46:39Z</time>
      </trkpt>
      <trkpt lat="43.21753" lon="-1.67907">
        <ele>68.918</ele>
        <time>2020-05-14T18:46:59Z</time>
      </trkpt>
      <trkpt lat="43.21749" lon="-1.67896">
        <ele>68.328</ele>
        <time>2020-05-14T18:47:19Z</time>
      </trkpt>
      <trkpt lat="43.21748" lon="-1.67891">
        <ele>68.375</ele>
        <time>2020-05-14T18:47:39Z</time>
      </trkpt>
      <trkpt lat="43.21747" lon="-1.67886">
        <ele>68.337</ele>
        <time>2020-05-14T18:47:59Z</time>
      </trkpt>
      <trkpt lat="43.21745" lon="-1.67871">
        <ele>70.732</ele>
        <time>2020-05-14T18:48:19Z</time>
      </trkpt>
      <trkpt lat="43.21742" lon="-1.67856">
        <ele>68.392</ele>
        <time>2020-05-14T18:48:39Z</time>
      </trkpt>
      <trkpt lat="43.21736" lon="-1.67826">
        <ele>67.611</ele>
        <time>2020-05-14T18:48:59Z</time>
      </trkpt>
      <trkpt lat="43.21731" lon="-1.67796">
        <ele>68.008</ele>
        <time>2020-05-14T18:49:19Z</time>
      </trkpt>
      <trkpt lat="43.21726" lon="-1.67769">
        <ele>67.737</ele>
        <time>2020-05-14T18:49:39Z</time>
      </trkpt>
      <trkpt lat="43.21725" lon="-1.67757">
        <ele>69.072</ele>
        <time>2020-05-14T18:49:59Z</time>
      </trkpt>
      <trkpt lat="43.21723" lon="-1.67745">
        <ele>67.826</ele>
        <time>2020-05-14T18:50:19Z</time>
      </trkpt>
      <trkpt lat="43.21721" lon="-1.67714">
        <ele>68.164</ele>
        <time>2020-05-14T18:50:39Z</time>
      </trkpt>
      <trkpt lat="43.21719" lon="-1.67683">
        <ele>69.789</ele>
        <time>2020-05-14T18:50:59Z</time>
      </trkpt>
      <trkpt lat="43.21718" lon="-1.67658">
        <ele>68.939</ele>
        <time>2020-05-14T18:51:19Z</time>
      </trkpt>
      <trkpt lat="43.21718" lon="-1.6764">
        <ele>68.216</ele>
        <time>2020-05-14T18:51:39Z</time>
      </trkpt>
      <trkpt lat="43.2172" lon="-1.67594">
        <ele>68.358</ele>
        <time>2020-05-14T18:51:59Z</time>
      </trkpt>
      <trkpt lat="43.21721" lon="-1.67582">
        <ele>69.153</ele>
        <time>2020-05-14T18:52:19Z</time>
      </trkpt>
      <trkpt lat="43.21722" lon="-1.67573">
        <ele>68.404</ele>
        <time>2020-05-14T18:52:39Z</time>
      </trkpt>
      <trkpt lat="43.21724" lon="-1.6756">
        <ele>68.414</ele>
        <time>2020-05-14T18:52:59Z</time>
      </trkpt>
      <trkpt lat="43.21727" lon="-1.6755">
        <ele>68.408</ele>
        <time>2020-05-14T18:53:19Z</time>
      </trkpt>
      <trkpt lat="43.21729" lon="-1.6754">
        <ele>68.369</ele>
        <time>2020-05-14T18:53:39Z</time>
      </trkpt>
      <trkpt lat="43.21731" lon="-1.6753">
        <ele>68.644</ele>
        <time>2020-05-14T18:53:59Z</time>
      </trkpt>
      <trkpt lat="43.21743" lon="-1.67469">
        <ele>68.498</ele>
        <time>2020-05-14T18:54:19Z</time>
      </trkpt>
      <trkpt lat="43.21753" lon="-1.67421">
        <ele>68.916</ele>
        <time>2020-05-14T18:54:39Z</time>
      </trkpt>
      <trkpt lat="43.21759" lon="-1.67396">
        <ele>68.421</ele>
        <time>2020-05-14T18:54:59Z</time>
      </trkpt>
      <trkpt lat="43.21765" lon="-1.67377">
        <ele>68.341</ele>
        <time>2020-05-14T18:55:19Z</time>
      </trkpt>
      <trkpt lat="43.21768" lon="-1.67364">
        <ele>68.248</ele>
        <time>2020-05-14T18:55:39Z</time>
      </trkpt>
      <trkpt lat="43.21776" lon="-1.67334">
        <ele>68.05</ele>
        <time>2020-05-14T18:55:59Z</time>
      </trkpt>
      <trkpt lat="43.2178" lon="-1.67315">
        <ele>67.742</ele>
        <time>2020-05-14T18:56:19Z</time>
      </trkpt>
      <trkpt lat="43.21783" lon="-1.67296">
        <ele>68.822</ele>
        <time>2020-05-14T18:56:39Z</time>
      </trkpt>
      <trkpt lat="43.21784" lon="-1.67281">
        <ele>68.514</ele>
        <time>2020-05-14T18:56:59Z</time>
      </trkpt>
      <trkpt lat="43.21786" lon="-1.67263">
        <ele>68.408</ele>
        <time>2020-05-14T18:57:19Z</time>
      </trkpt>
      <trkpt lat="43.21785" lon="-1.67257">
        <ele>68.318</ele>
        <time>2020-05-14T18:57:39Z</time>
      </trkpt>
      <trkpt lat="43.21785" lon="-1.67255">
        <ele>68.083</ele>
        <time>2020-05-14T18:57:59Z</time>
      </trkpt>
      <trkpt lat="43.21784" lon="-1.67249">
        <ele>68.117</ele>
        <time>2020-05-14T18:58:19Z</time>
      </trkpt>
      <trkpt lat="43.21783" lon="-1.67244">
        <ele>67.945</ele>
        <time>2020-05-14T18:58:39Z</time>
      </trkpt>
      <trkpt lat="43.21783" lon="-1.67241">
        <ele>67.98</ele>
        <time>2020-05-14T18:58:59Z</time>
      </trkpt>
      <trkpt lat="43.21782" lon="-1.67236">
        <ele>68.07</ele>
        <time>2020-05-14T18:59:19Z</time>
      </trkpt>
      <trkpt lat="43.2178" lon="-1.67229">
        <ele>68.017</ele>
        <time>2020-05-14T18:59:39Z</time>
      </trkpt>
      <trkpt lat="43.21774" lon="-1.67217">
        <ele>68.299</ele>
        <time>2020-05-14T18:59:59Z</time>
      </trkpt>
      <trkpt lat="43.21772" lon="-1.67214">
        <ele>71.961</ele>
        <time>2020-05-14T19:00:19Z</time>
      </trkpt>
      <trkpt lat="43.21771" lon="-1.67211">
        <ele>68.521</ele>
        <time>2020-05-14T19:00:39Z</time>
      </trkpt>
      <trkpt lat="43.21769" lon="-1.67207">
        <ele>68.613</ele>
        <time>2020-05-14T19:00:59Z</time>
      </trkpt>
      <trkpt lat="43.21766" lon="-1.67202">
        <ele>68.708</ele>
        <time>2020-05-14T19:01:19Z</time>
      </trkpt>
      <trkpt lat="43.21765" lon="-1.67199">
        <ele>68.61</ele>
        <time>2020-05-14T19:01:39Z</time>
      </trkpt>
      <trkpt lat="43.21762" lon="-1.67193">
        <ele>68.625</ele>
        <time>2020-05-14T19:01:59Z</time>
      </trkpt>
      <trkpt lat="43.21759" lon="-1.67187">
        <ele>68.629</ele>
        <time>2020-05-14T19:02:19Z</time>
      </trkpt>
      <trkpt lat="43.21754" lon="-1.67177">
        <ele>69.197</ele>
        <time>2020-05-14T19:02:39Z</time>
      </trkpt>
      <trkpt lat="43.21751" lon="-1.67173">
        <ele>68.742</ele>
        <time>2020-05-14T19:02:59Z</time>
      </trkpt>
      <trkpt lat="43.21748" lon="-1.67168">
        <ele>68.942</ele>
        <time>2020-05-14T19:03:19Z</time>
      </trkpt>
      <trkpt lat="43.21745" lon="-1.67164">
        <ele>68.619</ele>
        <time>2020-05-14T19:03:39Z</time>
      </trkpt>
      <trkpt lat="43.21742" lon="-1.67161">
        <ele>68.681</ele>
        <time>2020-05-14T19:03:59Z</time>
      </trkpt>
      <trkpt lat="43.21738" lon="-1.67157">
        <ele>68.543</ele>
        <time>2020-05-14T19:04:19Z</time>
      </trkpt>
      <trkpt lat="43.21735" lon="-1.67153">
        <ele>68.864</ele>
        <time>2020-05-14T19:04:39Z</time>
      </trkpt>
      <trkpt lat="43.21732" lon="-1.6715">
        <ele>69.01</ele>
        <time>2020-05-14T19:04:59Z</time>
      </trkpt>
      <trkpt lat="43.21729" lon="-1.67148">
        <ele>69.008</ele>
        <time>2020-05-14T19:05:19Z</time>
      </trkpt>
      <trkpt lat="43.21725" lon="-1.67145">
        <ele>68.888</ele>
        <time>2020-05-14T19:05:39Z</time>
      </trkpt>
      <trkpt lat="43.21721" lon="-1.67141">
        <ele>68.813</ele>
        <time>2020-05-14T19:05:59Z</time>
      </trkpt>
      <trkpt lat="43.21716" lon="-1.67138">
        <ele>68.977</ele>
        <time>2020-05-14T19:06:19Z</time>
      </trkpt>
      <trkpt lat="43.21711" lon="-1.67135">
        <ele>69.185</ele>
        <time>2020-05-14T19:06:39Z</time>
      </trkpt>
      <trkpt lat="43.217" lon="-1.67128">
        <ele>69.16</ele>
        <time>2020-05-14T19:06:59Z</time>
      </trkpt>
      <trkpt lat="43.21694" lon="-1.67126">
        <ele>69.15</ele>
        <time>2020-05-14T19:07:19Z</time>
      </trkpt>
      <trkpt lat="43.21689" lon="-1.67125">
        <ele>69.297</ele>
        <time>2020-05-14T19:07:39Z</time>
      </trkpt>
      <trkpt lat="43.2168" lon="-1.67125">
        <ele>69.249</ele>
        <time>2020-05-14T19:07:59Z</time>
      </trkpt>
      <trkpt lat="43.2167" lon="-1.67124">
        <ele>69.146</ele>
        <time>2020-05-14T19:08:19Z</time>
      </trkpt>
      <trkpt lat="43.21659" lon="-1.67123">
        <ele>69.588</ele>
        <time>2020-05-14T19:08:39Z</time>
      </trkpt>
      <trkpt lat="43.21589" lon="-1.67114">
        <ele>70.216</ele>
        <time>2020-05-14T19:08:59Z</time>
      </trkpt>
      <trkpt lat="43.21576" lon="-1.67113">
        <ele>70.308</ele>
        <time>2020-05-14T19:09:19Z</time>
      </trkpt>
      <trkpt lat="43.21564" lon="-1.67112">
        <ele>70.238</ele>
        <time>2020-05-14T19:09:39Z</time>
      </trkpt>
      <trkpt lat="43.21561" lon="-1.67112">
        <ele>70.223</ele>
        <time>2020-05-14T19:09:59Z</time>
      </trkpt>
      <trkpt lat="43.21557" lon="-1.67112">
        <ele>70.347</ele>
        <time>2020-05-14T19:10:19Z</time>
      </trkpt>
      <trkpt lat="43.2155" lon="-1.67112">
        <ele>70.415</ele>
        <time>2020-05-14T19:10:39Z</time>
      </trkpt>
      <trkpt lat="43.21538" lon="-1.67114">
        <ele>70.94</ele>
        <time>2020-05-14T19:10:59Z</time>
      </trkpt>
      <trkpt lat="43.21516" lon="-1.67121">
        <ele>71.11</ele>
        <time>2020-05-14T19:11:19Z</time>
      </trkpt>
      <trkpt lat="43.21513" lon="-1.67122">
        <ele>71.367</ele>
        <time>2020-05-14T19:11:39Z</time>
      </trkpt>
      <trkpt lat="43.21509" lon="-1.67123">
        <ele>71.179</ele>
        <time>2020-05-14T19:11:59Z</time>
      </trkpt>
      <trkpt lat="43.21498" lon="-1.6713">
        <ele>71.788</ele>
        <time>2020-05-14T19:12:19Z</time>
      </trkpt>
      <trkpt lat="43.21492" lon="-1.67133">
        <ele>72.924</ele>
        <time>2020-05-14T19:12:39Z</time>
      </trkpt>
      <trkpt lat="43.21485" lon="-1.67137">
        <ele>72.026</ele>
        <time>2020-05-14T19:12:59Z</time>
      </trkpt>
      <trkpt lat="43.21468" lon="-1.67148">
        <ele>75.208</ele>
        <time>2020-05-14T19:13:19Z</time>
      </trkpt>
      <trkpt lat="43.21415" lon="-1.67182">
        <ele>74.382</ele>
        <time>2020-05-14T19:13:39Z</time>
      </trkpt>
      <trkpt lat="43.21411" lon="-1.67185">
        <ele>72.187</ele>
        <time>2020-05-14T19:13:59Z</time>
      </trkpt>
      <trkpt lat="43.21407" lon="-1.67188">
        <ele>72.091</ele>
        <time>2020-05-14T19:14:19Z</time>
      </trkpt>
      <trkpt lat="43.21404" lon="-1.67191">
        <ele>72.029</ele>
        <time>2020-05-14T19:14:39Z</time>
      </trkpt>
      <trkpt lat="43.21391" lon="-1.672">
        <ele>71.924</ele>
        <time>2020-05-14T19:14:59Z</time>
      </trkpt>
      <trkpt lat="43.2139" lon="-1.67201">
        <ele>71.924</ele>
        <time>2020-05-14T19:15:19Z</time>
      </trkpt>
      <trkpt lat="43.2138" lon="-1.67208">
        <ele>72.121</ele>
        <time>2020-05-14T19:15:39Z</time>
      </trkpt>
      <trkpt lat="43.2138" lon="-1.67208">
        <ele>72.113</ele>
        <time>2020-05-14T19:15:59Z</time>
      </trkpt>
      <trkpt lat="43.21368" lon="-1.67216">
        <ele>72.746</ele>
        <time>2020-05-14T19:16:19Z</time>
      </trkpt>
      <trkpt lat="43.21355" lon="-1.67224">
        <ele>73.188</ele>
        <time>2020-05-14T19:16:39Z</time>
      </trkpt>
      <trkpt lat="43.21333" lon="-1.67238">
        <ele>72.216</ele>
        <time>2020-05-14T19:16:59Z</time>
      </trkpt>
      <trkpt lat="43.21321" lon="-1.67246">
        <ele>72.208</ele>
        <time>2020-05-14T19:17:19Z</time>
      </trkpt>
      <trkpt lat="43.21309" lon="-1.67254">
        <ele>72.358</ele>
        <time>2020-05-14T19:17:39Z</time>
      </trkpt>
      <trkpt lat="43.21305" lon="-1.67256">
        <ele>72.533</ele>
        <time>2020-05-14T19:17:59Z</time>
      </trkpt>
      <trkpt lat="43.21301" lon="-1.67259">
        <ele>72.547</ele>
        <time>2020-05-14T19:18:19Z</time>
      </trkpt>
      <trkpt lat="43.21289" lon="-1.67265">
        <ele>72.315</ele>
        <time>2020-05-14T19:18:39Z</time>
      </trkpt>
      <trkpt lat="43.21286" lon="-1.67266">
        <ele>72.49</ele>
        <time>2020-05-14T19:18:59Z</time>
      </trkpt>
      <trkpt lat="43.21283" lon="-1.67268">
        <ele>72.63</ele>
        <time>2020-05-14T19:19:19Z</time>
      </trkpt>
      <trkpt lat="43.2128" lon="-1.67269">
        <ele>72.637</ele>
        <time>2020-05-14T19:19:39Z</time>
      </trkpt>
      <trkpt lat="43.21277" lon="-1.6727">
        <ele>72.599</ele>
        <time>2020-05-14T19:19:59Z</time>
      </trkpt>
      <trkpt lat="43.2127" lon="-1.67272">
        <ele>72.566</ele>
        <time>2020-05-14T19:20:19Z</time>
      </trkpt>
      <trkpt lat="43.21265" lon="-1.67273">
        <ele>72.729</ele>
        <time>2020-05-14T19:20:39Z</time>
      </trkpt>
      <trkpt lat="43.21259" lon="-1.67274">
        <ele>75.921</ele>
        <time>2020-05-14T19:20:59Z</time>
      </trkpt>
      <trkpt lat="43.21252" lon="-1.67274">
        <ele>76.008</ele>
        <time>2020-05-14T19:21:19Z</time>
      </trkpt>
      <trkpt lat="43.21243" lon="-1.67274">
        <ele>72.52</ele>
        <time>2020-05-14T19:21:39Z</time>
      </trkpt>
      <trkpt lat="43.21234" lon="-1.67273">
        <ele>72.575</ele>
        <time>2020-05-14T19:21:59Z</time>
      </trkpt>
      <trkpt lat="43.2123" lon="-1.67273">
        <ele>72.599</ele>
        <time>2020-05-14T19:22:19Z</time>
      </trkpt>
      <trkpt lat="43.21227" lon="-1.67272">
        <ele>72.577</ele>
        <time>2020-05-14T19:22:39Z</time>
      </trkpt>
      <trkpt lat="43.21223" lon="-1.67272">
        <ele>72.442</ele>
        <time>2020-05-14T19:22:59Z</time>
      </trkpt>
      <trkpt lat="43.2122" lon="-1.67271">
        <ele>72.542</ele>
        <time>2020-05-14T19:23:19Z</time>
      </trkpt>
      <trkpt lat="43.21213" lon="-1.67269">
        <ele>74.449</ele>
        <time>2020-05-14T19:23:39Z</time>
      </trkpt>
      <trkpt lat="43.2121" lon="-1.67268">
        <ele>72.391</ele>
        <time>2020-05-14T19:23:59Z</time>
      </trkpt>
      <trkpt lat="43.21207" lon="-1.67266">
        <ele>72.354</ele>
        <time>2020-05-14T19:24:19Z</time>
      </trkpt>
      <trkpt lat="43.21196" lon="-1.67261">
        <ele>72.656</ele>
        <time>2020-05-14T19:24:39Z</time>
      </trkpt>
      <trkpt lat="43.21191" lon="-1.67257">
        <ele>73.211</ele>
        <time>2020-05-14T19:24:59Z</time>
      </trkpt>
      <trkpt lat="43.21186" lon="-1.67254">
        <ele>72.408</ele>
        <time>2020-05-14T19:25:19Z</time>
      </trkpt>
      <trkpt lat="43.21178" lon="-1.67248">
        <ele>72.369</ele>
        <time>2020-05-14T19:25:39Z</time>
      </trkpt>
      <trkpt lat="43.21171" lon="-1.67242">
        <ele>72.444</ele>
        <time>2020-05-14T19:25:59Z</time>
      </trkpt>
      <trkpt lat="43.21165" lon="-1.67237">
        <ele>72.728</ele>
        <time>2020-05-14T19:26:19Z</time>
      </trkpt>
      <trkpt lat="43.21163" lon="-1.67235">
        <ele>72.736</ele>
        <time>2020-05-14T19:26:39Z</time>
      </trkpt>
      <trkpt lat="43.21162" lon="-1.67233">
        <ele>72.721</ele>
        <time>2020-05-14T19:26:59Z</time>
      </trkpt>
      <trkpt lat="43.2116" lon="-1.67231">
        <ele>73.781</ele>
        <time>2020-05-14T19:27:19Z</time>
      </trkpt>
      <trkpt lat="43.21158" lon="-1.67229">
        <ele>73.788</ele>
        <time>2020-05-14T19:27:39Z</time>
      </trkpt>
      <trkpt lat="43.21156" lon="-1.67225">
        <ele>73.07</ele>
        <time>2020-05-14T19:27:59Z</time>
      </trkpt>
      <trkpt lat="43.21154" lon="-1.67221">
        <ele>73.021</ele>
        <time>2020-05-14T19:28:19Z</time>
      </trkpt>
      <trkpt lat="43.21143" lon="-1.67202">
        <ele>73.441</ele>
        <time>2020-05-14T19:28:39Z</time>
      </trkpt>
      <trkpt lat="43.21124" lon="-1.67164">
        <ele>75.405</ele>
        <time>2020-05-14T19:28:59Z</time>
      </trkpt>
      <trkpt lat="43.21117" lon="-1.67148">
        <ele>74.008</ele>
        <time>2020-05-14T19:29:19Z</time>
      </trkpt>
      <trkpt lat="43.21112" lon="-1.67134">
        <ele>73.186</ele>
        <time>2020-05-14T19:29:39Z</time>
      </trkpt>
      <trkpt lat="43.21107" lon="-1.6712">
        <ele>73.181</ele>
        <time>2020-05-14T19:29:59Z</time>
      </trkpt>
      <trkpt lat="43.21105" lon="-1.67115">
        <ele>75.225</ele>
        <time>2020-05-14T19:30:19Z</time>
      </trkpt>
      <trkpt lat="43.21103" lon="-1.67109">
        <ele>73.493</ele>
        <time>2020-05-14T19:30:39Z</time>
      </trkpt>
      <trkpt lat="43.21092" lon="-1.67087">
        <ele>73.168</ele>
        <time>2020-05-14T19:30:59Z</time>
      </trkpt>
      <trkpt lat="43.21082" lon="-1.67064">
        <ele>74.798</ele>
        <time>2020-05-14T19:31:19Z</time>
      </trkpt>
      <trkpt lat="43.21061" lon="-1.6702">
        <ele>73.365</ele>
        <time>2020-05-14T19:31:39Z</time>
      </trkpt>
      <trkpt lat="43.21055" lon="-1.67006">
        <ele>73.267</ele>
        <time>2020-05-14T19:31:59Z</time>
      </trkpt>
      <trkpt lat="43.21048" lon="-1.66993">
        <ele>74.036</ele>
        <time>2020-05-14T19:32:19Z</time>
      </trkpt>
      <trkpt lat="43.21037" lon="-1.66966">
        <ele>73.617</ele>
        <time>2020-05-14T19:32:39Z</time>
      </trkpt>
      <trkpt lat="43.21025" lon="-1.6694">
        <ele>73.318</ele>
        <time>2020-05-14T19:32:59Z</time>
      </trkpt>
      <trkpt lat="43.21014" lon="-1.66915">
        <ele>71.708</ele>
        <time>2020-05-14T19:33:19Z</time>
      </trkpt>
      <trkpt lat="43.21003" lon="-1.6689">
        <ele>72.297</ele>
        <time>2020-05-14T19:33:39Z</time>
      </trkpt>
      <trkpt lat="43.20998" lon="-1.66879">
        <ele>72.422</ele>
        <time>2020-05-14T19:33:59Z</time>
      </trkpt>
      <trkpt lat="43.20994" lon="-1.66869">
        <ele>73.036</ele>
        <time>2020-05-14T19:34:19Z</time>
      </trkpt>
      <trkpt lat="43.20988" lon="-1.66855">
        <ele>73.124</ele>
        <time>2020-05-14T19:34:39Z</time>
      </trkpt>
      <trkpt lat="43.20983" lon="-1.66841">
        <ele>73.159</ele>
        <time>2020-05-14T19:34:59Z</time>
      </trkpt>
      <trkpt lat="43.20979" lon="-1.6683">
        <ele>72.629</ele>
        <time>2020-05-14T19:35:19Z</time>
      </trkpt>
      <trkpt lat="43.20977" lon="-1.66825">
        <ele>72.696</ele>
        <time>2020-05-14T19:35:39Z</time>
      </trkpt>
      <trkpt lat="43.20975" lon="-1.66819">
        <ele>73.778</ele>
        <time>2020-05-14T19:35:59Z</time>
      </trkpt>
      <trkpt lat="43.20974" lon="-1.66815">
        <ele>73.428</ele>
        <time>2020-05-14T19:36:19Z</time>
      </trkpt>
      <trkpt lat="43.20973" lon="-1.6681">
        <ele>73.489</ele>
        <time>2020-05-14T19:36:39Z</time>
      </trkpt>
      <trkpt lat="43.20972" lon="-1.66804">
        <ele>73.417</ele>
        <time>2020-05-14T19:36:59Z</time>
      </trkpt>
      <trkpt lat="43.20971" lon="-1.66798">
        <ele>73.708</ele>
        <time>2020-05-14T19:37:19Z</time>
      </trkpt>
      <trkpt lat="43.20969" lon="-1.66791">
        <ele>73.646</ele>
        <time>2020-05-14T19:37:39Z</time>
      </trkpt>
      <trkpt lat="43.20968" lon="-1.66783">
        <ele>73.631</ele>
        <time>2020-05-14T19:37:59Z</time>
      </trkpt>
      <trkpt lat="43.20967" lon="-1.66776">
        <ele>74.175</ele>
        <time>2020-05-14T19:38:19Z</time>
      </trkpt>
      <trkpt lat="43.20966" lon="-1.66768">
        <ele>73.823</ele>
        <time>2020-05-14T19:38:39Z</time>
      </trkpt>
      <trkpt lat="43.2096" lon="-1.66722">
        <ele>74.168</ele>
        <time>2020-05-14T19:38:59Z</time>
      </trkpt>
      <trkpt lat="43.20955" lon="-1.66699">
        <ele>74.278</ele>
        <time>2020-05-14T19:39:19Z</time>
      </trkpt>
      <trkpt lat="43.20951" lon="-1.66675">
        <ele>74.475</ele>
        <time>2020-05-14T19:39:39Z</time>
      </trkpt>
      <trkpt lat="43.20947" lon="-1.66652">
        <ele>74.297</ele>
        <time>2020-05-14T19:39:59Z</time>
      </trkpt>
      <trkpt lat="43.20944" lon="-1.66628">
        <ele>74.321</ele>
        <time>2020-05-14T19:40:19Z</time>
      </trkpt>
      <trkpt lat="43.20939" lon="-1.66601">
        <ele>73.241</ele>
        <time>2020-05-14T19:40:39Z</time>
      </trkpt>
      <trkpt lat="43.20936" lon="-1.6659">
        <ele>74.705</ele>
        <time>2020-05-14T19:40:59Z</time>
      </trkpt>
      <trkpt lat="43.20934" lon="-1.66584">
        <ele>74.708</ele>
        <time>2020-05-14T19:41:19Z</time>
      </trkpt>
      <trkpt lat="43.20933" lon="-1.66579">
        <ele>74.746</ele>
        <time>2020-05-14T19:41:39Z</time>
      </trkpt>
      <trkpt lat="43.2093" lon="-1.66572">
        <ele>74.771</ele>
        <time>2020-05-14T19:41:59Z</time>
      </trkpt>
      <trkpt lat="43.20928" lon="-1.66565">
        <ele>74.935</ele>
        <time>2020-05-14T19:42:19Z</time>
      </trkpt>
      <trkpt lat="43.20925" lon="-1.66558">
        <ele>74.783</ele>
        <time>2020-05-14T19:42:39Z</time>
      </trkpt>
      <trkpt lat="43.20923" lon="-1.66551">
        <ele>74.818</ele>
        <time>2020-05-14T19:42:59Z</time>
      </trkpt>
      <trkpt lat="43.20909" lon="-1.66515">
        <ele>75.078</ele>
        <time>2020-05-14T19:43:19Z</time>
      </trkpt>
      <trkpt lat="43.20902" lon="-1.66499">
        <ele>71.395</ele>
        <time>2020-05-14T19:43:39Z</time>
      </trkpt>
      <trkpt lat="43.20898" lon="-1.66491">
        <ele>75.037</ele>
        <time>2020-05-14T19:43:59Z</time>
      </trkpt>
      <trkpt lat="43.20894" lon="-1.66484">
        <ele>75.164</ele>
        <time>2020-05-14T19:44:19Z</time>
      </trkpt>
      <trkpt lat="43.20888" lon="-1.66474">
        <ele>74.806</ele>
        <time>2020-05-14T19:44:39Z</time>
      </trkpt>
      <trkpt lat="43.20882" lon="-1.66465">
        <ele>75.116</ele>
        <time>2020-05-14T19:44:59Z</time>
      </trkpt>
      <trkpt lat="43.20866" lon="-1.66438">
        <ele>73.208</ele>
        <time>2020-05-14T19:45:19Z</time>
      </trkpt>
      <trkpt lat="43.20849" lon="-1.66411">
        <ele>75.38</ele>
        <time>2020-05-14T19:45:39Z</time>
      </trkpt>
      <trkpt lat="43.20844" lon="-1.66404">
        <ele>75.615</ele>
        <time>2020-05-14T19:45:59Z</time>
      </trkpt>
      <trkpt lat="43.20837" lon="-1.66395">
        <ele>75.959</ele>
        <time>2020-05-14T19:46:19Z</time>
      </trkpt>
      <trkpt lat="43.20837" lon="-1.66395">
        <ele>75.967</ele>
        <time>2020-05-14T19:46:39Z</time>
      </trkpt>
      <trkpt lat="43.20817" lon="-1.66369">
        <ele>75.762</ele>
        <time>2020-05-14T19:46:59Z</time>
      </trkpt>
      <trkpt lat="43.20795" lon="-1.66342">
        <ele>75.792</ele>
        <time>2020-05-14T19:47:19Z</time>
      </trkpt>
      <trkpt lat="43.20788" lon="-1.66335">
        <ele>75.699</ele>
        <time>2020-05-14T19:47:39Z</time>
      </trkpt>
      <trkpt lat="43.2078" lon="-1.66326">
        <ele>76.671</ele>
        <time>2020-05-14T19:47:59Z</time>
      </trkpt>
      <trkpt lat="43.2077" lon="-1.66316">
        <ele>75.833</ele>
        <time>2020-05-14T19:48:19Z</time>
      </trkpt>
      <trkpt lat="43.20763" lon="-1.66308">
        <ele>75.723</ele>
        <time>2020-05-14T19:48:39Z</time>
      </trkpt>
      <trkpt lat="43.20758" lon="-1.66303">
        <ele>75.715</ele>
        <time>2020-05-14T19:48:59Z</time>
      </trkpt>
      <trkpt lat="43.20752" lon="-1.66298">
        <ele>75.608</ele>
        <time>2020-05-14T19:49:19Z</time>
      </trkpt>
      <trkpt lat="43.20748" lon="-1.66294">
        <ele>77.667</ele>
        <time>2020-05-14T19:49:39Z</time>
      </trkpt>
      <trkpt lat="43.20744" lon="-1.66291">
        <ele>75.752</ele>
        <time>2020-05-14T19:49:59Z</time>
      </trkpt>
      <trkpt lat="43.20736" lon="-1.66285">
        <ele>75.766</ele>
        <time>2020-05-14T19:50:19Z</time>
      </trkpt>
      <trkpt lat="43.20728" lon="-1.66279">
        <ele>75.684</ele>
        <time>2020-05-14T19:50:39Z</time>
      </trkpt>
      <trkpt lat="43.20725" lon="-1.66277">
        <ele>75.669</ele>
        <time>2020-05-14T19:50:59Z</time>
      </trkpt>
      <trkpt lat="43.20719" lon="-1.66273">
        <ele>74.869</ele>
        <time>2020-05-14T19:51:19Z</time>
      </trkpt>
      <trkpt lat="43.20718" lon="-1.66273">
        <ele>74.876</ele>
        <time>2020-05-14T19:51:39Z</time>
      </trkpt>
      <trkpt lat="43.20714" lon="-1.6627">
        <ele>75.778</ele>
        <time>2020-05-14T19:51:59Z</time>
      </trkpt>
      <trkpt lat="43.20711" lon="-1.66268">
        <ele>73.195</ele>
        <time>2020-05-14T19:52:19Z</time>
      </trkpt>
      <trkpt lat="43.20704" lon="-1.66265">
        <ele>73.949</ele>
        <time>2020-05-14T19:52:39Z</time>
      </trkpt>
      <trkpt lat="43.20698" lon="-1.66261">
        <ele>75.423</ele>
        <time>2020-05-14T19:52:59Z</time>
      </trkpt>
      <trkpt lat="43.20689" lon="-1.66257">
        <ele>73.808</ele>
        <time>2020-05-14T19:53:19Z</time>
      </trkpt>
      <trkpt lat="43.20671" lon="-1.66251">
        <ele>75.253</ele>
        <time>2020-05-14T19:53:39Z</time>
      </trkpt>
      <trkpt lat="43.20648" lon="-1.66242">
        <ele>74.698</ele>
        <time>2020-05-14T19:53:59Z</time>
      </trkpt>
      <trkpt lat="43.20635" lon="-1.66238">
        <ele>75.072</ele>
        <time>2020-05-14T19:54:19Z</time>
      </trkpt>
      <trkpt lat="43.20621" lon="-1.66233">
        <ele>75.14</ele>
        <time>2020-05-14T19:54:39Z</time>
      </trkpt>
      <trkpt lat="43.20612" lon="-1.66231">
        <ele>75.485</ele>
        <time>2020-05-14T19:54:59Z</time>
      </trkpt>
      <trkpt lat="43.20603" lon="-1.66228">
        <ele>75.335</ele>
        <time>2020-05-14T19:55:19Z</time>
      </trkpt>
      <trkpt lat="43.20597" lon="-1.66227">
        <ele>75.352</ele>
        <time>2020-05-14T19:55:39Z</time>
      </trkpt>
      <trkpt lat="43.20588" lon="-1.66225">
        <ele>76.394</ele>
        <time>2020-05-14T19:55:59Z</time>
      </trkpt>
      <trkpt lat="43.20577" lon="-1.66222">
        <ele>75.384</ele>
        <time>2020-05-14T19:56:19Z</time>
      </trkpt>
      <trkpt lat="43.20571" lon="-1.66221">
        <ele>75.407</ele>
        <time>2020-05-14T19:56:39Z</time>
      </trkpt>
      <trkpt lat="43.20565" lon="-1.6622">
        <ele>75.417</ele>
        <time>2020-05-14T19:56:59Z</time>
      </trkpt>
      <trkpt lat="43.20559" lon="-1.66219">
        <ele>75.608</ele>
        <time>2020-05-14T19:57:19Z</time>
      </trkpt>
      <trkpt lat="43.20554" lon="-1.66219">
        <ele>75.712</ele>
        <time>2020-05-14T19:57:39Z</time>
      </trkpt>
      <trkpt lat="43.20547" lon="-1.66219">
        <ele>75.927</ele>
        <time>2020-05-14T19:57:59Z</time>
      </trkpt>
      <trkpt lat="43.2054" lon="-1.66219">
        <ele>75.621</ele>
        <time>2020-05-14T19:58:19Z</time>
      </trkpt>
      <trkpt lat="43.20534" lon="-1.6622">
        <ele>75.689</ele>
        <time>2020-05-14T19:58:39Z</time>
      </trkpt>
      <trkpt lat="43.20527" lon="-1.6622">
        <ele>75.434</ele>
        <time>2020-05-14T19:58:59Z</time>
      </trkpt>
      <trkpt lat="43.20522" lon="-1.66222">
        <ele>75.494</ele>
        <time>2020-05-14T19:59:19Z</time>
      </trkpt>
      <trkpt lat="43.20517" lon="-1.66223">
        <ele>75.341</ele>
        <time>2020-05-14T19:59:39Z</time>
      </trkpt>
      <trkpt lat="43.20509" lon="-1.66226">
        <ele>75.813</ele>
        <time>2020-05-14T19:59:59Z</time>
      </trkpt>
      <trkpt lat="43.20503" lon="-1.66228">
        <ele>75.644</ele>
        <time>2020-05-14T20:00:19Z</time>
      </trkpt>
      <trkpt lat="43.20497" lon="-1.6623">
        <ele>75.405</ele>
        <time>2020-05-14T20:00:39Z</time>
      </trkpt>
      <trkpt lat="43.20493" lon="-1.66233">
        <ele>75.715</ele>
        <time>2020-05-14T20:00:59Z</time>
      </trkpt>
      <trkpt lat="43.20483" lon="-1.66241">
        <ele>75.608</ele>
        <time>2020-05-14T20:01:19Z</time>
      </trkpt>
      <trkpt lat="43.20472" lon="-1.66249">
        <ele>75.698</ele>
        <time>2020-05-14T20:01:39Z</time>
      </trkpt>
      <trkpt lat="43.20466" lon="-1.66257">
        <ele>76.243</ele>
        <time>2020-05-14T20:01:59Z</time>
      </trkpt>
      <trkpt lat="43.20459" lon="-1.66266">
        <ele>75.597</ele>
        <time>2020-05-14T20:02:19Z</time>
      </trkpt>
      <trkpt lat="43.20457" lon="-1.66271">
        <ele>75.925</ele>
        <time>2020-05-14T20:02:39Z</time>
      </trkpt>
      <trkpt lat="43.20455" lon="-1.66273">
        <ele>75.55</ele>
        <time>2020-05-14T20:02:59Z</time>
      </trkpt>
      <trkpt lat="43.20454" lon="-1.66276">
        <ele>76.06</ele>
        <time>2020-05-14T20:03:19Z</time>
      </trkpt>
      <trkpt lat="43.20451" lon="-1.6628">
        <ele>75.637</ele>
        <time>2020-05-14T20:03:39Z</time>
      </trkpt>
      <trkpt lat="43.20448" lon="-1.66286">
        <ele>75.969</ele>
        <time>2020-05-14T20:03:59Z</time>
      </trkpt>
      <trkpt lat="43.20446" lon="-1.6629">
        <ele>75.518</ele>
        <time>2020-05-14T20:04:19Z</time>
      </trkpt>
      <trkpt lat="43.20443" lon="-1.66297">
        <ele>75.598</ele>
        <time>2020-05-14T20:04:39Z</time>
      </trkpt>
      <trkpt lat="43.20439" lon="-1.66306">
        <ele>76.317</ele>
        <time>2020-05-14T20:04:59Z</time>
      </trkpt>
      <trkpt lat="43.20436" lon="-1.66315">
        <ele>76.208</ele>
        <time>2020-05-14T20:05:19Z</time>
      </trkpt>
      <trkpt lat="43.20433" lon="-1.66323">
        <ele>75.755</ele>
        <time>2020-05-14T20:05:39Z</time>
      </trkpt>
      <trkpt lat="43.20431" lon="-1.66329">
        <ele>77.48</ele>
        <time>2020-05-14T20:05:59Z</time>
      </trkpt>
      <trkpt lat="43.20428" lon="-1.66335">
        <ele>75.434</ele>
        <time>2020-05-14T20:06:19Z</time>
      </trkpt>
      <trkpt lat="43.20423" lon="-1.66347">
        <ele>75.552</ele>
        <time>2020-05-14T20:06:39Z</time>
      </trkpt>
      <trkpt lat="43.20419" lon="-1.66358">
        <ele>76.667</ele>
        <time>2020-05-14T20:06:59Z</time>
      </trkpt>
      <trkpt lat="43.20415" lon="-1.66369">
        <ele>75.597</ele>
        <time>2020-05-14T20:07:19Z</time>
      </trkpt>
      <trkpt lat="43.2041" lon="-1.66383">
        <ele>75.584</ele>
        <time>2020-05-14T20:07:39Z</time>
      </trkpt>
      <trkpt lat="43.20405" lon="-1.664">
        <ele>77.536</ele>
        <time>2020-05-14T20:07:59Z</time>
      </trkpt>
      <trkpt lat="43.20399" lon="-1.6642">
        <ele>75.643</ele>
        <time>2020-05-14T20:08:19Z</time>
      </trkpt>
      <trkpt lat="43.20393" lon="-1.66437">
        <ele>75.564</ele>
        <time>2020-05-14T20:08:39Z</time>
      </trkpt>
      <trkpt lat="43.20392" lon="-1.66442">
        <ele>75.51</ele>
        <time>2020-05-14T20:08:59Z</time>
      </trkpt>
      <trkpt lat="43.2039" lon="-1.6645">
        <ele>75.708</ele>
        <time>2020-05-14T20:09:19Z</time>
      </trkpt>
      <trkpt lat="43.20384" lon="-1.66466">
        <ele>75.658</ele>
        <time>2020-05-14T20:09:39Z</time>
      </trkpt>
      <trkpt lat="43.20379" lon="-1.66482">
        <ele>78.793</ele>
        <time>2020-05-14T20:09:59Z</time>
      </trkpt>
      <trkpt lat="43.20377" lon="-1.66489">
        <ele>75.927</ele>
        <time>2020-05-14T20:10:19Z</time>
      </trkpt>
      <trkpt lat="43.20375" lon="-1.66494">
        <ele>76.155</ele>
        <time>2020-05-14T20:10:39Z</time>
      </trkpt>
      <trkpt lat="43.20373" lon="-1.66507">
        <ele>76.22</ele>
        <time>2020-05-14T20:10:59Z</time>
      </trkpt>
      <trkpt lat="43.20369" lon="-1.66523">
        <ele>76.07</ele>
        <time>2020-05-14T20:11:19Z</time>
      </trkpt>
      <trkpt lat="43.20363" lon="-1.66552">
        <ele>76.697</ele>
        <time>2020-05-14T20:11:39Z</time>
      </trkpt>
      <trkpt lat="43.20358" lon="-1.66576">
        <ele>76.459</ele>
        <time>2020-05-14T20:11:59Z</time>
      </trkpt>
      <trkpt lat="43.20352" lon="-1.66604">
        <ele>76.683</ele>
        <time>2020-05-14T20:12:19Z</time>
      </trkpt>
      <trkpt lat="43.20347" lon="-1.66631">
        <ele>77.025</ele>
        <time>2020-05-14T20:12:39Z</time>
      </trkpt>
      <trkpt lat="43.20346" lon="-1.66636">
        <ele>77.717</ele>
        <time>2020-05-14T20:12:59Z</time>
      </trkpt>
      <trkpt lat="43.20343" lon="-1.66656">
        <ele>77.008</ele>
        <time>2020-05-14T20:13:19Z</time>
      </trkpt>
      <trkpt lat="43.2034" lon="-1.66671">
        <ele>77.312</ele>
        <time>2020-05-14T20:13:39Z</time>
      </trkpt>
      <trkpt lat="43.20334" lon="-1.66703">
        <ele>78.537</ele>
        <time>2020-05-14T20:13:59Z</time>
      </trkpt>
      <trkpt lat="43.20326" lon="-1.66739">
        <ele>77.351</ele>
        <time>2020-05-14T20:14:19Z</time>
      </trkpt>
      <trkpt lat="43.20325" lon="-1.66744">
        <ele>77.329</ele>
        <time>2020-05-14T20:14:39Z</time>
      </trkpt>
      <trkpt lat="43.20324" lon="-1.6675">
        <ele>77.574</ele>
        <time>2020-05-14T20:14:59Z</time>
      </trkpt>
      <trkpt lat="43.20323" lon="-1.66755">
        <ele>77.734</ele>
        <time>2020-05-14T20:15:19Z</time>
      </trkpt>
      <trkpt lat="43.20322" lon="-1.66767">
        <ele>77.551</ele>
        <time>2020-05-14T20:15:39Z</time>
      </trkpt>
      <trkpt lat="43.2032" lon="-1.66784">
        <ele>77.973</ele>
        <time>2020-05-14T20:15:59Z</time>
      </trkpt>
      <trkpt lat="43.20319" lon="-1.66801">
        <ele>79.434</ele>
        <time>2020-05-14T20:16:19Z</time>
      </trkpt>
      <trkpt lat="43.20318" lon="-1.66815">
        <ele>77.655</ele>
        <time>2020-05-14T20:16:39Z</time>
      </trkpt>
      <trkpt lat="43.20317" lon="-1.66829">
        <ele>78.71</ele>
        <time>2020-05-14T20:16:59Z</time>
      </trkpt>
      <trkpt lat="43.20315" lon="-1.66845">
        <ele>81.508</ele>
        <time>2020-05-14T20:17:19Z</time>
      </trkpt>
      <trkpt lat="43.2031" lon="-1.66896">
        <ele>77.967</ele>
        <time>2020-05-14T20:17:39Z</time>
      </trkpt>
      <trkpt lat="43.20304" lon="-1.66959">
        <ele>79.172</ele>
        <time>2020-05-14T20:17:59Z</time>
      </trkpt>
      <trkpt lat="43.20302" lon="-1.66988">
        <ele>78.766</ele>
        <time>2020-05-14T20:18:19Z</time>
      </trkpt>
      <trkpt lat="43.20299" lon="-1.67011">
        <ele>80.344</ele>
        <time>2020-05-14T20:18:39Z</time>
      </trkpt>
      <trkpt lat="43.20297" lon="-1.67037">
        <ele>78.749</ele>
        <time>2020-05-14T20:18:59Z</time>
      </trkpt>
      <trkpt lat="43.20295" lon="-1.67055">
        <ele>79.159</ele>
        <time>2020-05-14T20:19:19Z</time>
      </trkpt>
      <trkpt lat="43.20292" lon="-1.67082">
        <ele>78.716</ele>
        <time>2020-05-14T20:19:39Z</time>
      </trkpt>
      <trkpt lat="43.20291" lon="-1.67093">
        <ele>78.968</ele>
        <time>2020-05-14T20:19:59Z</time>
      </trkpt>
      <trkpt lat="43.20291" lon="-1.67097">
        <ele>78.943</ele>
        <time>2020-05-14T20:20:19Z</time>
      </trkpt>
      <trkpt lat="43.2029" lon="-1.67102">
        <ele>78.864</ele>
        <time>2020-05-14T20:20:39Z</time>
      </trkpt>
      <trkpt lat="43.20289" lon="-1.6711">
        <ele>78.91</ele>
        <time>2020-05-14T20:20:59Z</time>
      </trkpt>
      <trkpt lat="43.20287" lon="-1.67121">
        <ele>79.208</ele>
        <time>2020-05-14T20:21:19Z</time>
      </trkpt>
      <trkpt lat="43.20285" lon="-1.67129">
        <ele>79.178</ele>
        <time>2020-05-14T20:21:39Z</time>
      </trkpt>
      <trkpt lat="43.20284" lon="-1.67135">
        <ele>79.333</ele>
        <time>2020-05-14T20:21:59Z</time>
      </trkpt>
      <trkpt lat="43.20283" lon="-1.67139">
        <ele>79.327</ele>
        <time>2020-05-14T20:22:19Z</time>
      </trkpt>
      <trkpt lat="43.20281" lon="-1.67146">
        <ele>79.395</ele>
        <time>2020-05-14T20:22:39Z</time>
      </trkpt>
      <trkpt lat="43.20278" lon="-1.67154">
        <ele>79.82</ele>
        <time>2020-05-14T20:22:59Z</time>
      </trkpt>
      <trkpt lat="43.20276" lon="-1.67159">
        <ele>79.17</ele>
        <time>2020-05-14T20:23:19Z</time>
      </trkpt>
      <trkpt lat="43.20274" lon="-1.67165">
        <ele>79.337</ele>
        <time>2020-05-14T20:23:39Z</time>
      </trkpt>
      <trkpt lat="43.2027" lon="-1.67173">
        <ele>79.479</ele>
        <time>2020-05-14T20:23:59Z</time>
      </trkpt>
      <trkpt lat="43.20267" lon="-1.6718">
        <ele>79.565</ele>
        <time>2020-05-14T20:24:19Z</time>
      </trkpt>
      <trkpt lat="43.2026" lon="-1.67194">
        <ele>79.368</ele>
        <time>2020-05-14T20:24:39Z</time>
      </trkpt>
      <trkpt lat="43.20257" lon="-1.67198">
        <ele>79.714</ele>
        <time>2020-05-14T20:24:59Z</time>
      </trkpt>
      <trkpt lat="43.20254" lon="-1.67203">
        <ele>79.408</ele>
        <time>2020-05-14T20:25:19Z</time>
      </trkpt>
      <trkpt lat="43.20248" lon="-1.67212">
        <ele>79.91</ele>
        <time>2020-05-14T20:25:39Z</time>
      </trkpt>
      <trkpt lat="43.2024" lon="-1.67224">
        <ele>79.535</ele>
        <time>2020-05-14T20:25:59Z</time>
      </trkpt>
      <trkpt lat="43.20232" lon="-1.67238">
        <ele>79.549</ele>
        <time>2020-05-14T20:26:19Z</time>
      </trkpt>
      <trkpt lat="43.20223" lon="-1.67252">
        <ele>79.177</ele>
        <time>2020-05-14T20:26:39Z</time>
      </trkpt>
      <trkpt lat="43.20214" lon="-1.67266">
        <ele>80.022</ele>
        <time>2020-05-14T20:26:59Z</time>
      </trkpt>
      <trkpt lat="43.20203" lon="-1.67285">
        <ele>80.232</ele>
        <time>2020-05-14T20:27:19Z</time>
      </trkpt>
      <trkpt lat="43.20199" lon="-1.67292">
        <ele>80.379</ele>
        <time>2020-05-14T20:27:39Z</time>
      </trkpt>
      <trkpt lat="43.20197" lon="-1.67295">
        <ele>80.461</ele>
        <time>2020-05-14T20:27:59Z</time>
      </trkpt>
      <trkpt lat="43.20193" lon="-1.67301">
        <ele>80.417</ele>
        <time>2020-05-14T20:28:19Z</time>
      </trkpt>
      <trkpt lat="43.2019" lon="-1.67305">
        <ele>80.487</ele>
        <time>2020-05-14T20:28:39Z</time>
      </trkpt>
      <trkpt lat="43.20187" lon="-1.67309">
        <ele>80.515</ele>
        <time>2020-05-14T20:28:59Z</time>
      </trkpt>
      <trkpt lat="43.20183" lon="-1.67313">
        <ele>80.708</ele>
        <time>2020-05-14T20:29:19Z</time>
      </trkpt>
      <trkpt lat="43.20178" lon="-1.67319">
        <ele>80.615</ele>
        <time>2020-05-14T20:29:39Z</time>
      </trkpt>
      <trkpt lat="43.20172" lon="-1.67327">
        <ele>80.21</ele>
        <time>2020-05-14T20:29:59Z</time>
      </trkpt>
      <trkpt lat="43.20167" lon="-1.6733">
        <ele>80.524</ele>
        <time>2020-05-14T20:30:19Z</time>
      </trkpt>
      <trkpt lat="43.20163" lon="-1.67334">
        <ele>80.332</ele>
        <time>2020-05-14T20:30:39Z</time>
      </trkpt>
      <trkpt lat="43.20155" lon="-1.6734">
        <ele>80.277</ele>
        <time>2020-05-14T20:30:59Z</time>
      </trkpt>
      <trkpt lat="43.20149" lon="-1.67344">
        <ele>80.487</ele>
        <time>2020-05-14T20:31:19Z</time>
      </trkpt>
      <trkpt lat="43.20138" lon="-1.6735">
        <ele>80.834</ele>
        <time>2020-05-14T20:31:39Z</time>
      </trkpt>
      <trkpt lat="43.2013" lon="-1.67355">
        <ele>80.766</ele>
        <time>2020-05-14T20:31:59Z</time>
      </trkpt>
      <trkpt lat="43.20114" lon="-1.67362">
        <ele>80.895</ele>
        <time>2020-05-14T20:32:19Z</time>
      </trkpt>
      <trkpt lat="43.20099" lon="-1.6737">
        <ele>81.349</ele>
        <time>2020-05-14T20:32:39Z</time>
      </trkpt>
      <trkpt lat="43.20091" lon="-1.67373">
        <ele>81.523</ele>
        <time>2020-05-14T20:32:59Z</time>
      </trkpt>
      <trkpt lat="43.20082" lon="-1.67377">
        <ele>81.308</ele>
        <time>2020-05-14T20:33:19Z</time>
      </trkpt>
      <trkpt lat="43.20075" lon="-1.67379">
        <ele>81.293</ele>
        <time>2020-05-14T20:33:39Z</time>
      </trkpt>
      <trkpt lat="43.20068" lon="-1.67381">
        <ele>81.238</ele>
        <time>2020-05-14T20:33:59Z</time>
      </trkpt>
      <trkpt lat="43.20065" lon="-1.67382">
        <ele>81.252</ele>
        <time>2020-05-14T20:34:19Z</time>
      </trkpt>
      <trkpt lat="43.20061" lon="-1.67383">
        <ele>81.16</ele>
        <time>2020-05-14T20:34:39Z</time>
      </trkpt>
      <trkpt lat="43.20058" lon="-1.67383">
        <ele>81.185</ele>
        <time>2020-05-14T20:34:59Z</time>
      </trkpt>
      <trkpt lat="43.20054" lon="-1.67384">
        <ele>81.075</ele>
        <time>2020-05-14T20:35:19Z</time>
      </trkpt>
      <trkpt lat="43.20047" lon="-1.67384">
        <ele>81.062</ele>
        <time>2020-05-14T20:35:39Z</time>
      </trkpt>
      <trkpt lat="43.20043" lon="-1.67383">
        <ele>81.144</ele>
        <time>2020-05-14T20:35:59Z</time>
      </trkpt>
      <trkpt lat="43.2004" lon="-1.67383">
        <ele>81.134</ele>
        <time>2020-05-14T20:36:19Z</time>
      </trkpt>
      <trkpt lat="43.20037" lon="-1.67382">
        <ele>81.155</ele>
        <time>2020-05-14T20:36:39Z</time>
      </trkpt>
      <trkpt lat="43.20034" lon="-1.67381">
        <ele>81.11</ele>
        <time>2020-05-14T20:36:59Z</time>
      </trkpt>
      <trkpt lat="43.20027" lon="-1.67378">
        <ele>81.208</ele>
        <time>2020-05-14T20:37:19Z</time>
      </trkpt>
      <trkpt lat="43.20019" lon="-1.67375">
        <ele>81.937</ele>
        <time>2020-05-14T20:37:39Z</time>
      </trkpt>
      <trkpt lat="43.20011" lon="-1.67371">
        <ele>81.372</ele>
        <time>2020-05-14T20:37:59Z</time>
      </trkpt>
      <trkpt lat="43.20009" lon="-1.6737">
        <ele>81.956</ele>
        <time>2020-05-14T20:38:19Z</time>
      </trkpt>
      <trkpt lat="43.20007" lon="-1.67368">
        <ele>81.434</ele>
        <time>2020-05-14T20:38:39Z</time>
      </trkpt>
      <trkpt lat="43.19993" lon="-1.67358">
        <ele>81.469</ele>
        <time>2020-05-14T20:38:59Z</time>
      </trkpt>
      <trkpt lat="43.19991" lon="-1.67355">
        <ele>81.699</ele>
        <time>2020-05-14T20:39:19Z</time>
      </trkpt>
      <trkpt lat="43.19987" lon="-1.67353">
        <ele>81.696</ele>
        <time>2020-05-14T20:39:39Z</time>
      </trkpt>
      <trkpt lat="43.19986" lon="-1.67351">
        <ele>81.648</ele>
        <time>2020-05-14T20:39:59Z</time>
      </trkpt>
      <trkpt lat="43.19979" lon="-1.67343">
        <ele>81.569</ele>
        <time>2020-05-14T20:40:19Z</time>
      </trkpt>
      <trkpt lat="43.19974" lon="-1.67336">
        <ele>81.104</ele>
        <time>2020-05-14T20:40:39Z</time>
      </trkpt>
      <trkpt lat="43.19972" lon="-1.67334">
        <ele>81.724</ele>
        <time>2020-05-14T20:40:59Z</time>
      </trkpt>
      <trkpt lat="43.19967" lon="-1.67326">
        <ele>81.708</ele>
        <time>2020-05-14T20:41:19Z</time>
      </trkpt>
      <trkpt lat="43.19958" lon="-1.67313">
        <ele>81.94</ele>
        <time>2020-05-14T20:41:39Z</time>
      </trkpt>
      <trkpt lat="43.19954" lon="-1.67306">
        <ele>82.125</ele>
        <time>2020-05-14T20:41:59Z</time>
      </trkpt>
      <trkpt lat="43.19953" lon="-1.67303">
        <ele>82.129</ele>
        <time>2020-05-14T20:42:19Z</time>
      </trkpt>
      <trkpt lat="43.19951" lon="-1.673">
        <ele>82.187</ele>
        <time>2020-05-14T20:42:39Z</time>
      </trkpt>
      <trkpt lat="43.19951" lon="-1.67297">
        <ele>82.142</ele>
        <time>2020-05-14T20:42:59Z</time>
      </trkpt>
      <trkpt lat="43.1995" lon="-1.67295">
        <ele>82.132</ele>
        <time>2020-05-14T20:43:19Z</time>
      </trkpt>
      <trkpt lat="43.19949" lon="-1.67292">
        <ele>82.149</ele>
        <time>2020-05-14T20:43:39Z</time>
      </trkpt>
      <trkpt lat="43.19949" lon="-1.67289">
        <ele>82.171</ele>
        <time>2020-05-14T20:43:59Z</time>
      </trkpt>
      <trkpt lat="43.19947" lon="-1.6728">
        <ele>81.981</ele>
        <time>2020-05-14T20:44:19Z</time>
      </trkpt>
      <trkpt lat="43.19748" lon="-1.67203">
        <ele>84.061</ele>
        <time>2020-05-14T20:44:39Z</time>
      </trkpt>
      <trkpt lat="43.19741" lon="-1.67206">
        <ele>83.717</ele>
        <time>2020-05-14T20:44:59Z</time>
      </trkpt>
      <trkpt lat="43.19728" lon="-1.67213">
        <ele>83.808</ele>
        <time>2020-05-14T20:45:19Z</time>
      </trkpt>
      <trkpt lat="43.19722" lon="-1.67215">
        <ele>84.232</ele>
        <time>2020-05-14T20:45:39Z</time>
      </trkpt>
      <trkpt lat="43.19711" lon="-1.67219">
        <ele>83.817</ele>
        <time>2020-05-14T20:45:59Z</time>
      </trkpt>
      <trkpt lat="43.19702" lon="-1.67222">
        <ele>84.331</ele>
        <time>2020-05-14T20:46:19Z</time>
      </trkpt>
      <trkpt lat="43.19693" lon="-1.67224">
        <ele>84.239</ele>
        <time>2020-05-14T20:46:39Z</time>
      </trkpt>
      <trkpt lat="43.19684" lon="-1.67226">
        <ele>84.344</ele>
        <time>2020-05-14T20:46:59Z</time>
      </trkpt>
      <trkpt lat="43.19672" lon="-1.67227">
        <ele>84.394</ele>
        <time>2020-05-14T20:47:19Z</time>
      </trkpt>
      <trkpt lat="43.19659" lon="-1.67226">
        <ele>84.651</ele>
        <time>2020-05-14T20:47:39Z</time>
      </trkpt>
      <trkpt lat="43.19649" lon="-1.67224">
        <ele>84.953</ele>
        <time>2020-05-14T20:47:59Z</time>
      </trkpt>
      <trkpt lat="43.19642" lon="-1.67223">
        <ele>85.059</ele>
        <time>2020-05-14T20:48:19Z</time>
      </trkpt>
      <trkpt lat="43.19638" lon="-1.67221">
        <ele>84.903</ele>
        <time>2020-05-14T20:48:39Z</time>
      </trkpt>
      <trkpt lat="43.19631" lon="-1.67217">
        <ele>85.423</ele>
        <time>2020-05-14T20:48:59Z</time>
      </trkpt>
      <trkpt lat="43.19629" lon="-1.67216">
        <ele>84.608</ele>
        <time>2020-05-14T20:49:19Z</time>
      </trkpt>
      <trkpt lat="43.19627" lon="-1.67215">
        <ele>84.699</ele>
        <time>2020-05-14T20:49:39Z</time>
      </trkpt>
      <trkpt lat="43.19611" lon="-1.67205">
        <ele>84.994</ele>
        <time>2020-05-14T20:49:59Z</time>
      </trkpt>
      <trkpt lat="43.19594" lon="-1.67193">
        <ele>85.198</ele>
        <time>2020-05-14T20:50:19Z</time>
      </trkpt>
      <trkpt lat="43.19586" lon="-1.67187">
        <ele>85.756</ele>
        <time>2020-05-14T20:50:39Z</time>
      </trkpt>
      <trkpt lat="43.1958" lon="-1.67183">
        <ele>91.421</ele>
        <time>2020-05-14T20:50:59Z</time>
      </trkpt>
      <trkpt lat="43.19576" lon="-1.67179">
        <ele>85.441</ele>
        <time>2020-05-14T20:51:19Z</time>
      </trkpt>
      <trkpt lat="43.19573" lon="-1.67176">
        <ele>85.528</ele>
        <time>2020-05-14T20:51:39Z</time>
      </trkpt>
      <trkpt lat="43.19566" lon="-1.67169">
        <ele>85.82</ele>
        <time>2020-05-14T20:51:59Z</time>
      </trkpt>
      <trkpt lat="43.19557" lon="-1.67161">
        <ele>85.941</ele>
        <time>2020-05-14T20:52:19Z</time>
      </trkpt>
      <trkpt lat="43.19553" lon="-1.67156">
        <ele>85.781</ele>
        <time>2020-05-14T20:52:39Z</time>
      </trkpt>
      <trkpt lat="43.19547" lon="-1.67149">
        <ele>85.609</ele>
        <time>2020-05-14T20:52:59Z</time>
      </trkpt>
      <trkpt lat="43.19543" lon="-1.67144">
        <ele>86.008</ele>
        <time>2020-05-14T20:53:19Z</time>
      </trkpt>
      <trkpt lat="43.1954" lon="-1.6714">
        <ele>86.068</ele>
        <time>2020-05-14T20:53:39Z</time>
      </trkpt>
      <trkpt lat="43.19537" lon="-1.67136">
        <ele>86.023</ele>
        <time>2020-05-14T20:53:59Z</time>
      </trkpt>
      <trkpt lat="43.19527" lon="-1.6712">
        <ele>85.917</ele>
        <time>2020-05-14T20:54:19Z</time>
      </trkpt>
      <trkpt lat="43.19521" lon="-1.67109">
        <ele>86.445</ele>
        <time>2020-05-14T20:54:39Z</time>
      </trkpt>
      <trkpt lat="43.19516" lon="-1.67099">
        <ele>86.13</ele>
        <time>2020-05-14T20:54:59Z</time>
      </trkpt>
      <trkpt lat="43.1951" lon="-1.67088">
        <ele>86.18</ele>
        <time>2020-05-14T20:55:19Z</time>
      </trkpt>
      <trkpt lat="43.19503" lon="-1.67073">
        <ele>90.317</ele>
        <time>2020-05-14T20:55:39Z</time>
      </trkpt>
      <trkpt lat="43.19495" lon="-1.67057">
        <ele>86.199</ele>
        <time>2020-05-14T20:55:59Z</time>
      </trkpt>
      <trkpt lat="43.19492" lon="-1.67052">
        <ele>86.139</ele>
        <time>2020-05-14T20:56:19Z</time>
      </trkpt>
      <trkpt lat="43.1949" lon="-1.67047">
        <ele>86.401</ele>
        <time>2020-05-14T20:56:39Z</time>
      </trkpt>
      <trkpt lat="43.19482" lon="-1.67027">
        <ele>86.521</ele>
        <time>2020-05-14T20:56:59Z</time>
      </trkpt>
      <trkpt lat="43.19478" lon="-1.67016">
        <ele>86.608</ele>
        <time>2020-05-14T20:57:19Z</time>
      </trkpt>
      <trkpt lat="43.19476" lon="-1.6701">
        <ele>86.747</ele>
        <time>2020-05-14T20:57:39Z</time>
      </trkpt>
      <trkpt lat="43.19475" lon="-1.67005">
        <ele>86.942</ele>
        <time>2020-05-14T20:57:59Z</time>
      </trkpt>
      <trkpt lat="43.19474" lon="-1.67001">
        <ele>86.816</ele>
        <time>2020-05-14T20:58:19Z</time>
      </trkpt>
      <trkpt lat="43.19473" lon="-1.66997">
        <ele>86.944</ele>
        <time>2020-05-14T20:58:39Z</time>
      </trkpt>
      <trkpt lat="43.19472" lon="-1.66988">
        <ele>86.939</ele>
        <time>2020-05-14T20:58:59Z</time>
      </trkpt>
      <trkpt lat="43.1947" lon="-1.66971">
        <ele>87.229</ele>
        <time>2020-05-14T20:59:19Z</time>
      </trkpt>
      <trkpt lat="43.19469" lon="-1.66956">
        <ele>87.426</ele>
        <time>2020-05-14T20:59:39Z</time>
      </trkpt>
      <trkpt lat="43.19469" lon="-1.66949">
        <ele>87.538</ele>
        <time>2020-05-14T20:59:59Z</time>
      </trkpt>
      <trkpt lat="43.19468" lon="-1.66933">
        <ele>87.557</ele>
        <time>2020-05-14T21:00:19Z</time>
      </trkpt>
      <trkpt lat="43.19468" lon="-1.66911">
        <ele>87.6</ele>
        <time>2020-05-14T21:00:39Z</time>
      </trkpt>
      <trkpt lat="43.19468" lon="-1.66901">
        <ele>88.62</ele>
        <time>2020-05-14T21:00:59Z</time>
      </trkpt>
      <trkpt lat="43.19468" lon="-1.66892">
        <ele>89.508</ele>
        <time>2020-05-14T21:01:19Z</time>
      </trkpt>
      <trkpt lat="43.19468" lon="-1.66884">
        <ele>90.529</ele>
        <time>2020-05-14T21:01:39Z</time>
      </trkpt>
      <trkpt lat="43.19469" lon="-1.66858">
        <ele>87.714</ele>
        <time>2020-05-14T21:01:59Z</time>
      </trkpt>
      <trkpt lat="43.1947" lon="-1.66833">
        <ele>87.698</ele>
        <time>2020-05-14T21:02:19Z</time>
      </trkpt>
      <trkpt lat="43.1947" lon="-1.66826">
        <ele>87.626</ele>
        <time>2020-05-14T21:02:39Z</time>
      </trkpt>
      <trkpt lat="43.19471" lon="-1.66807">
        <ele>87.871</ele>
        <time>2020-05-14T21:02:59Z</time>
      </trkpt>
      <trkpt lat="43.19472" lon="-1.66794">
        <ele>87.921</ele>
        <time>2020-05-14T21:03:19Z</time>
      </trkpt>
      <trkpt lat="43.19472" lon="-1.66783">
        <ele>88.028</ele>
        <time>2020-05-14T21:03:39Z</time>
      </trkpt>
      <trkpt lat="43.19473" lon="-1.66768">
        <ele>88.02</ele>
        <time>2020-05-14T21:03:59Z</time>
      </trkpt>
      <trkpt lat="43.19474" lon="-1.6674">
        <ele>88.275</ele>
        <time>2020-05-14T21:04:19Z</time>
      </trkpt>
      <trkpt lat="43.19475" lon="-1.66716">
        <ele>88.528</ele>
        <time>2020-05-14T21:04:39Z</time>
      </trkpt>
      <trkpt lat="43.19475" lon="-1.66708">
        <ele>88.62</ele>
        <time>2020-05-14T21:04:59Z</time>
      </trkpt>
      <trkpt lat="43.19475" lon="-1.66701">
        <ele>88.608</ele>
        <time>2020-05-14T21:05:19Z</time>
      </trkpt>
      <trkpt lat="43.19475" lon="-1.66698">
        <ele>88.671</ele>
        <time>2020-05-14T21:05:39Z</time>
      </trkpt>
      <trkpt lat="43.19475" lon="-1.66695">
        <ele>88.796</ele>
        <time>2020-05-14T21:05:59Z</time>
      </trkpt>
      <trkpt lat="43.19475" lon="-1.66692">
        <ele>88.72</ele>
        <time>2020-05-14T21:06:19Z</time>
      </trkpt>
      <trkpt lat="43.19475" lon="-1.66689">
        <ele>88.868</ele>
        <time>2020-05-14T21:06:39Z</time>
      </trkpt>
      <trkpt lat="43.19474" lon="-1.66683">
        <ele>88.873</ele>
        <time>2020-05-14T21:06:59Z</time>
      </trkpt>
      <trkpt lat="43.19473" lon="-1.66678">
        <ele>88.963</ele>
        <time>2020-05-14T21:07:19Z</time>
      </trkpt>
      <trkpt lat="43.19469" lon="-1.66662">
        <ele>88.94</ele>
        <time>2020-05-14T21:07:39Z</time>
      </trkpt>
      <trkpt lat="43.19467" lon="-1.66657">
        <ele>88.922</ele>
        <time>2020-05-14T21:07:59Z</time>
      </trkpt>
      <trkpt lat="43.19466" lon="-1.66653">
        <ele>88.899</ele>
        <time>2020-05-14T21:08:19Z</time>
      </trkpt>
      <trkpt lat="43.19462" lon="-1.66643">
        <ele>89.107</ele>
        <time>2020-05-14T21:08:39Z</time>
      </trkpt>
      <trkpt lat="43.19459" lon="-1.66633">
        <ele>89.427</ele>
        <time>2020-05-14T21:08:59Z</time>
      </trkpt>
      <trkpt lat="43.19457" lon="-1.66628">
        <ele>89.708</ele>
        <time>2020-05-14T21:09:19Z</time>
      </trkpt>
      <trkpt lat="43.19456" lon="-1.66622">
        <ele>89.783</ele>
        <time>2020-05-14T21:09:39Z</time>
      </trkpt>
      <trkpt lat="43.19454" lon="-1.66614">
        <ele>89.658</ele>
        <time>2020-05-14T21:09:59Z</time>
      </trkpt>
      <trkpt lat="43.19453" lon="-1.66604">
        <ele>89.722</ele>
        <time>2020-05-14T21:10:19Z</time>
      </trkpt>
      <trkpt lat="43.19451" lon="-1.66591">
        <ele>89.96</ele>
        <time>2020-05-14T21:10:39Z</time>
      </trkpt>
      <trkpt lat="43.19449" lon="-1.66579">
        <ele>89.685</ele>
        <time>2020-05-14T21:10:59Z</time>
      </trkpt>
      <trkpt lat="43.19449" lon="-1.66576">
        <ele>89.665</ele>
        <time>2020-05-14T21:11:19Z</time>
      </trkpt>
      <trkpt lat="43.19447" lon="-1.66571">
        <ele>91.452</ele>
        <time>2020-05-14T21:11:39Z</time>
      </trkpt>
      <trkpt lat="43.19444" lon="-1.66562">
        <ele>89.224</ele>
        <time>2020-05-14T21:11:59Z</time>
      </trkpt>
      <trkpt lat="43.19443" lon="-1.66561">
        <ele>89.211</ele>
        <time>2020-05-14T21:12:19Z</time>
      </trkpt>
      <trkpt lat="43.19442" lon="-1.66559">
        <ele>89.421</ele>
        <time>2020-05-14T21:12:39Z</time>
      </trkpt>
      <trkpt lat="43.1944" lon="-1.66556">
        <ele>89.403</ele>
        <time>2020-05-14T21:12:59Z</time>
      </trkpt>
      <trkpt lat="43.19437" lon="-1.66554">
        <ele>89.408</ele>
        <time>2020-05-14T21:13:19Z</time>
      </trkpt>
      <trkpt lat="43.19435" lon="-1.66552">
        <ele>89.495</ele>
        <time>2020-05-14T21:13:39Z</time>
      </trkpt>
      <trkpt lat="43.19432" lon="-1.66551">
        <ele>90.61</ele>
        <time>2020-05-14T21:13:59Z</time>
      </trkpt>
      <trkpt lat="43.19428" lon="-1.66551">
        <ele>90.284</ele>
        <time>2020-05-14T21:14:19Z</time>
      </trkpt>
      <trkpt lat="43.19414" lon="-1.66554">
        <ele>89.812</ele>
        <time>2020-05-14T21:14:39Z</time>
      </trkpt>
      <trkpt lat="43.19397" lon="-1.66558">
        <ele>90.417</ele>
        <time>2020-05-14T21:14:59Z</time>
      </trkpt>
      <trkpt lat="43.19389" lon="-1.66559">
        <ele>90.147</ele>
        <time>2020-05-14T21:15:19Z</time>
      </trkpt>
      <trkpt lat="43.19384" lon="-1.6656">
        <ele>90.254</ele>
        <time>2020-05-14T21:15:39Z</time>
      </trkpt>
      <trkpt lat="43.19377" lon="-1.66562">
        <ele>90.236</ele>
        <time>2020-05-14T21:15:59Z</time>
      </trkpt>
      <trkpt lat="43.1937" lon="-1.66563">
        <ele>90.294</ele>
        <time>2020-05-14T21:16:19Z</time>
      </trkpt>
      <trkpt lat="43.19354" lon="-1.66565">
        <ele>90.557</ele>
        <time>2020-05-14T21:16:39Z</time>
      </trkpt>
      <trkpt lat="43.19349" lon="-1.66567">
        <ele>90.522</ele>
        <time>2020-05-14T21:16:59Z</time>
      </trkpt>
      <trkpt lat="43.19344" lon="-1.66568">
        <ele>90.608</ele>
        <time>2020-05-14T21:17:19Z</time>
      </trkpt>
      <trkpt lat="43.19339" lon="-1.6657">
        <ele>90.733</ele>
        <time>2020-05-14T21:17:39Z</time>
      </trkpt>
      <trkpt lat="43.19332" lon="-1.66573">
        <ele>95.928</ele>
        <time>2020-05-14T21:17:59Z</time>
      </trkpt>
      <trkpt lat="43.19328" lon="-1.66575">
        <ele>91.152</ele>
        <time>2020-05-14T21:18:19Z</time>
      </trkpt>
      <trkpt lat="43.19315" lon="-1.66583">
        <ele>91.22</ele>
        <time>2020-05-14T21:18:39Z</time>
      </trkpt>
      <trkpt lat="43.19304" lon="-1.66589">
        <ele>91.335</ele>
        <time>2020-05-14T21:18:59Z</time>
      </trkpt>
      <trkpt lat="43.19285" lon="-1.666">
        <ele>91.395</ele>
        <time>2020-05-14T21:19:19Z</time>
      </trkpt>
      <trkpt lat="43.19265" lon="-1.66611">
        <ele>91.712</ele>
        <time>2020-05-14T21:19:39Z</time>
      </trkpt>
      <trkpt lat="43.19256" lon="-1.66616">
        <ele>91.934</ele>
        <time>2020-05-14T21:19:59Z</time>
      </trkpt>
      <trkpt lat="43.19247" lon="-1.6662">
        <ele>91.582</ele>
        <time>2020-05-14T21:20:19Z</time>
      </trkpt>
      <trkpt lat="43.19239" lon="-1.66624">
        <ele>92.343</ele>
        <time>2020-05-14T21:20:39Z</time>
      </trkpt>
      <trkpt lat="43.19229" lon="-1.66629">
        <ele>92.717</ele>
        <time>2020-05-14T21:20:59Z</time>
      </trkpt>
      <trkpt lat="43.19221" lon="-1.66633">
        <ele>92.208</ele>
        <time>2020-05-14T21:21:19Z</time>
      </trkpt>
      <trkpt lat="43.19218" lon="-1.66635">
        <ele>93.262</ele>
        <time>2020-05-14T21:21:39Z</time>
      </trkpt>
      <trkpt lat="43.19212" lon="-1.66638">
        <ele>92.517</ele>
        <time>2020-05-14T21:21:59Z</time>
      </trkpt>
      <trkpt lat="43.19209" lon="-1.66639">
        <ele>92.511</ele>
        <time>2020-05-14T21:22:19Z</time>
      </trkpt>
      <trkpt lat="43.19208" lon="-1.66639">
        <ele>92.559</ele>
        <time>2020-05-14T21:22:39Z</time>
      </trkpt>
      <trkpt lat="43.19202" lon="-1.66641">
        <ele>92.724</ele>
        <time>2020-05-14T21:22:59Z</time>
      </trkpt>
      <trkpt lat="43.19197" lon="-1.66644">
        <ele>92.644</ele>
        <time>2020-05-14T21:23:19Z</time>
      </trkpt>
      <trkpt lat="43.19184" lon="-1.66648">
        <ele>92.461</ele>
        <time>2020-05-14T21:23:39Z</time>
      </trkpt>
      <trkpt lat="43.19181" lon="-1.66649">
        <ele>93.683</ele>
        <time>2020-05-14T21:23:59Z</time>
      </trkpt>
      <trkpt lat="43.19177" lon="-1.6665">
        <ele>92.725</ele>
        <time>2020-05-14T21:24:19Z</time>
      </trkpt>
      <trkpt lat="43.19167" lon="-1.66656">
        <ele>92.826</ele>
        <time>2020-05-14T21:24:39Z</time>
      </trkpt>
      <trkpt lat="43.19162" lon="-1.66658">
        <ele>92.708</ele>
        <time>2020-05-14T21:24:59Z</time>
      </trkpt>
      <trkpt lat="43.19158" lon="-1.66662">
        <ele>92.508</ele>
        <time>2020-05-14T21:25:19Z</time>
      </trkpt>
      <trkpt lat="43.1915" lon="-1.66665">
        <ele>92.486</ele>
        <time>2020-05-14T21:25:39Z</time>
      </trkpt>
      <trkpt lat="43.19145" lon="-1.66666">
        <ele>92.321</ele>
        <time>2020-05-14T21:25:59Z</time>
      </trkpt>
      <trkpt lat="43.19133" lon="-1.6667">
        <ele>92.485</ele>
        <time>2020-05-14T21:26:19Z</time>
      </trkpt>
      <trkpt lat="43.19125" lon="-1.66672">
        <ele>92.343</ele>
        <time>2020-05-14T21:26:39Z</time>
      </trkpt>
      <trkpt lat="43.19113" lon="-1.66676">
        <ele>92.788</ele>
        <time>2020-05-14T21:26:59Z</time>
      </trkpt>
      <trkpt lat="43.19093" lon="-1.66683">
        <ele>92.748</ele>
        <time>2020-05-14T21:27:19Z</time>
      </trkpt>
      <trkpt lat="43.19091" lon="-1.66684">
        <ele>92.725</ele>
        <time>2020-05-14T21:27:39Z</time>
      </trkpt>
      <trkpt lat="43.19083" lon="-1.66687">
        <ele>92.697</ele>
        <time>2020-05-14T21:27:59Z</time>
      </trkpt>
      <trkpt lat="43.19081" lon="-1.66688">
        <ele>92.623</ele>
        <time>2020-05-14T21:28:19Z</time>
      </trkpt>
      <trkpt lat="43.19078" lon="-1.6669">
        <ele>92.583</ele>
        <time>2020-05-14T21:28:39Z</time>
      </trkpt>
      <trkpt lat="43.19075" lon="-1.66691">
        <ele>92.511</ele>
        <time>2020-05-14T21:28:59Z</time>
      </trkpt>
      <trkpt lat="43.19073" lon="-1.66694">
        <ele>92.508</ele>
        <time>2020-05-14T21:29:19Z</time>
      </trkpt>
      <trkpt lat="43.1907" lon="-1.66697">
        <ele>92.656</ele>
        <time>2020-05-14T21:29:39Z</time>
      </trkpt>
      <trkpt lat="43.19062" lon="-1.66711">
        <ele>93.211</ele>
        <time>2020-05-14T21:29:59Z</time>
      </trkpt>
      <trkpt lat="43.19048" lon="-1.66732">
        <ele>99.075</ele>
        <time>2020-05-14T21:30:19Z</time>
      </trkpt>
      <trkpt lat="43.1904" lon="-1.66746">
        <ele>95.763</ele>
        <time>2020-05-14T21:30:39Z</time>
      </trkpt>
      <trkpt lat="43.19036" lon="-1.66752">
        <ele>95.728</ele>
        <time>2020-05-14T21:30:59Z</time>
      </trkpt>
      <trkpt lat="43.19031" lon="-1.66761">
        <ele>92.668</ele>
        <time>2020-05-14T21:31:19Z</time>
      </trkpt>
      <trkpt lat="43.19029" lon="-1.66768">
        <ele>92.815</ele>
        <time>2020-05-14T21:31:39Z</time>
      </trkpt>
      <trkpt lat="43.19028" lon="-1.66773">
        <ele>92.637</ele>
        <time>2020-05-14T21:31:59Z</time>
      </trkpt>
      <trkpt lat="43.19026" lon="-1.66787">
        <ele>92.443</ele>
        <time>2020-05-14T21:32:19Z</time>
      </trkpt>
      <trkpt lat="43.19024" lon="-1.66799">
        <ele>92.864</ele>
        <time>2020-05-14T21:32:39Z</time>
      </trkpt>
      <trkpt lat="43.19024" lon="-1.66806">
        <ele>92.61</ele>
        <time>2020-05-14T21:32:59Z</time>
      </trkpt>
      <trkpt lat="43.19024" lon="-1.66813">
        <ele>92.808</ele>
        <time>2020-05-14T21:33:19Z</time>
      </trkpt>
      <trkpt lat="43.19024" lon="-1.66814">
        <ele>92.838</ele>
        <time>2020-05-14T21:33:39Z</time>
      </trkpt>
      <trkpt lat="43.19024" lon="-1.66822">
        <ele>92.873</ele>
        <time>2020-05-14T21:33:59Z</time>
      </trkpt>
      <trkpt lat="43.19023" lon="-1.66829">
        <ele>92.857</ele>
        <time>2020-05-14T21:34:19Z</time>
      </trkpt>
      <trkpt lat="43.19023" lon="-1.66832">
        <ele>92.845</ele>
        <time>2020-05-14T21:34:39Z</time>
      </trkpt>
      <trkpt lat="43.19025" lon="-1.6686">
        <ele>92.52</ele>
        <time>2020-05-14T21:34:59Z</time>
      </trkpt>
      <trkpt lat="43.19028" lon="-1.66898">
        <ele>92.35</ele>
        <time>2020-05-14T21:35:19Z</time>
      </trkpt>
      <trkpt lat="43.19031" lon="-1.66958">
        <ele>92.367</ele>
        <time>2020-05-14T21:35:39Z</time>
      </trkpt>
      <trkpt lat="43.19035" lon="-1.67027">
        <ele>92.089</ele>
        <time>2020-05-14T21:35:59Z</time>
      </trkpt>
      <trkpt lat="43.19036" lon="-1.67044">
        <ele>92.026</ele>
        <time>2020-05-14T21:36:19Z</time>
      </trkpt>
      <trkpt lat="43.19036" lon="-1.67048">
        <ele>92.047</ele>
        <time>2020-05-14T21:36:39Z</time>
      </trkpt>
      <trkpt lat="43.19036" lon="-1.6705">
        <ele>92.011</ele>
        <time>2020-05-14T21:36:59Z</time>
      </trkpt>
      <trkpt lat="43.19037" lon="-1.67055">
        <ele>92.008</ele>
        <time>2020-05-14T21:37:19Z</time>
      </trkpt>
      <trkpt lat="43.19037" lon="-1.67058">
        <ele>92.076</ele>
        <time>2020-05-14T21:37:39Z</time>
      </trkpt>
      <trkpt lat="43.19037" lon="-1.67061">
        <ele>92.031</ele>
        <time>2020-05-14T21:37:59Z</time>
      </trkpt>
      <trkpt lat="43.19037" lon="-1.67066">
        <ele>91.935</ele>
        <time>2020-05-14T21:38:19Z</time>
      </trkpt>
      <trkpt lat="43.19037" lon="-1.6707">
        <ele>91.813</ele>
        <time>2020-05-14T21:38:39Z</time>
      </trkpt>
      <trkpt lat="43.19038" lon="-1.67071">
        <ele>91.898</ele>
        <time>2020-05-14T21:38:59Z</time>
      </trkpt>
      <trkpt lat="43.19037" lon="-1.67073">
        <ele>91.888</ele>
        <time>2020-05-14T21:39:19Z</time>
      </trkpt>
      <trkpt lat="43.19038" lon="-1.67085">
        <ele>91.865</ele>
        <time>2020-05-14T21:39:39Z</time>
      </trkpt>
      <trkpt lat="43.19041" lon="-1.6714">
        <ele>92.287</ele>
        <time>2020-05-14T21:39:59Z</time>
      </trkpt>
      <trkpt lat="43.19042" lon="-1.67152">
        <ele>92.159</ele>
        <time>2020-05-14T21:40:19Z</time>
      </trkpt>
      <trkpt lat="43.19042" lon="-1.67163">
        <ele>92.103</ele>
        <time>2020-05-14T21:40:39Z</time>
      </trkpt>
      <trkpt lat="43.19043" lon="-1.67174">
        <ele>92.323</ele>
        <time>2020-05-14T21:40:59Z</time>
      </trkpt>
      <trkpt lat="43.19044" lon="-1.67185">
        <ele>92.208</ele>
        <time>2020-05-14T21:41:19Z</time>
      </trkpt>
      <trkpt lat="43.19044" lon="-1.67201">
        <ele>92.389</ele>
        <time>2020-05-14T21:41:39Z</time>
      </trkpt>
      <trkpt lat="43.19044" lon="-1.6721">
        <ele>92.324</ele>
        <time>2020-05-14T21:41:59Z</time>
      </trkpt>
      <trkpt lat="43.19044" lon="-1.67219">
        <ele>92.468</ele>
        <time>2020-05-14T21:42:19Z</time>
      </trkpt>
      <trkpt lat="43.19044" lon="-1.67226">
        <ele>92.416</ele>
        <time>2020-05-14T21:42:39Z</time>
      </trkpt>
      <trkpt lat="43.19043" lon="-1.67233">
        <ele>92.581</ele>
        <time>2020-05-14T21:42:59Z</time>
      </trkpt>
      <trkpt lat="43.19042" lon="-1.67242">
        <ele>94.051</ele>
        <time>2020-05-14T21:43:19Z</time>
      </trkpt>
      <trkpt lat="43.19041" lon="-1.6725">
        <ele>92.668</ele>
        <time>2020-05-14T21:43:39Z</time>
      </trkpt>
      <trkpt lat="43.19038" lon="-1.67264">
        <ele>92.52</ele>
        <time>2020-05-14T21:43:59Z</time>
      </trkpt>
      <trkpt lat="43.19035" lon="-1.67279">
        <ele>92.694</ele>
        <time>2020-05-14T21:44:19Z</time>
      </trkpt>
      <trkpt lat="43.19026" lon="-1.67312">
        <ele>92.357</ele>
        <time>2020-05-14T21:44:39Z</time>
      </trkpt>
      <trkpt lat="43.19018" lon="-1.6734">
        <ele>92.022</ele>
        <time>2020-05-14T21:44:59Z</time>
      </trkpt>
      <trkpt lat="43.19011" lon="-1.67368">
        <ele>92.708</ele>
        <time>2020-05-14T21:45:19Z</time>
      </trkpt>
      <trkpt lat="43.19004" lon="-1.67393">
        <ele>92.283</ele>
        <time>2020-05-14T21:45:39Z</time>
      </trkpt>
      <trkpt lat="43.18996" lon="-1.6742">
        <ele>92.048</ele>
        <time>2020-05-14T21:45:59Z</time>
      </trkpt>
      <trkpt lat="43.18982" lon="-1.67471">
        <ele>92.162</ele>
        <time>2020-05-14T21:46:19Z</time>
      </trkpt>
      <trkpt lat="43.18979" lon="-1.67479">
        <ele>91.99</ele>
        <time>2020-05-14T21:46:39Z</time>
      </trkpt>
      <trkpt lat="43.18976" lon="-1.67487">
        <ele>91.945</ele>
        <time>2020-05-14T21:46:59Z</time>
      </trkpt>
      <trkpt lat="43.18971" lon="-1.67499">
        <ele>91.885</ele>
        <time>2020-05-14T21:47:19Z</time>
      </trkpt>
      <trkpt lat="43.18965" lon="-1.6751">
        <ele>92.142</ele>
        <time>2020-05-14T21:47:39Z</time>
      </trkpt>
      <trkpt lat="43.18958" lon="-1.67523">
        <ele>92.294</ele>
        <time>2020-05-14T21:47:59Z</time>
      </trkpt>
      <trkpt lat="43.18946" lon="-1.67542">
        <ele>92.617</ele>
        <time>2020-05-14T21:48:19Z</time>
      </trkpt>
      <trkpt lat="43.18938" lon="-1.67551">
        <ele>92.487</ele>
        <time>2020-05-14T21:48:39Z</time>
      </trkpt>
      <trkpt lat="43.18926" lon="-1.67561">
        <ele>92.515</ele>
        <time>2020-05-14T21:48:59Z</time>
      </trkpt>
      <trkpt lat="43.18919" lon="-1.67566">
        <ele>93.108</ele>
        <time>2020-05-14T21:49:19Z</time>
      </trkpt>
      <trkpt lat="43.18913" lon="-1.6757">
        <ele>92.515</ele>
        <time>2020-05-14T21:49:39Z</time>
      </trkpt>
      <trkpt lat="43.18903" lon="-1.67575">
        <ele>92.75</ele>
        <time>2020-05-14T21:49:59Z</time>
      </trkpt>
      <trkpt lat="43.18897" lon="-1.67578">
        <ele>92.794</ele>
        <time>2020-05-14T21:50:19Z</time>
      </trkpt>
      <trkpt lat="43.18891" lon="-1.6758">
        <ele>92.812</ele>
        <time>2020-05-14T21:50:39Z</time>
      </trkpt>
      <trkpt lat="43.18887" lon="-1.67581">
        <ele>92.887</ele>
        <time>2020-05-14T21:50:59Z</time>
      </trkpt>
      <trkpt lat="43.18884" lon="-1.67582">
        <ele>92.717</ele>
        <time>2020-05-14T21:51:19Z</time>
      </trkpt>
      <trkpt lat="43.1887" lon="-1.67584">
        <ele>92.994</ele>
        <time>2020-05-14T21:51:39Z</time>
      </trkpt>
      <trkpt lat="43.18867" lon="-1.67584">
        <ele>92.986</ele>
        <time>2020-05-14T21:51:59Z</time>
      </trkpt>
      <trkpt lat="43.18863" lon="-1.67584">
        <ele>92.928</ele>
        <time>2020-05-14T21:52:19Z</time>
      </trkpt>
      <trkpt lat="43.18856" lon="-1.67584">
        <ele>92.889</ele>
        <time>2020-05-14T21:52:39Z</time>
      </trkpt>
      <trkpt lat="43.18847" lon="-1.67583">
        <ele>92.817</ele>
        <time>2020-05-14T21:52:59Z</time>
      </trkpt>
      <trkpt lat="43.18841" lon="-1.6758">
        <ele>93.108</ele>
        <time>2020-05-14T21:53:19Z</time>
      </trkpt>
      <trkpt lat="43.18834" lon="-1.67578">
        <ele>93.066</ele>
        <time>2020-05-14T21:53:39Z</time>
      </trkpt>
      <trkpt lat="43.18827" lon="-1.67575">
        <ele>93.371</ele>
        <time>2020-05-14T21:53:59Z</time>
      </trkpt>
      <trkpt lat="43.18821" lon="-1.67572">
        <ele>93.225</ele>
        <time>2020-05-14T21:54:19Z</time>
      </trkpt>
      <trkpt lat="43.18798" lon="-1.67559">
        <ele>93.743</ele>
        <time>2020-05-14T21:54:39Z</time>
      </trkpt>
      <trkpt lat="43.18783" lon="-1.67547">
        <ele>93.968</ele>
        <time>2020-05-14T21:54:59Z</time>
      </trkpt>
      <trkpt lat="43.18779" lon="-1.67542">
        <ele>93.898</ele>
        <time>2020-05-14T21:55:19Z</time>
      </trkpt>
      <trkpt lat="43.18776" lon="-1.67537">
        <ele>93.915</ele>
        <time>2020-05-14T21:55:39Z</time>
      </trkpt>
      <trkpt lat="43.18771" lon="-1.67529">
        <ele>94.097</ele>
        <time>2020-05-14T21:55:59Z</time>
      </trkpt>
      <trkpt lat="43.18767" lon="-1.67521">
        <ele>94.221</ele>
        <time>2020-05-14T21:56:19Z</time>
      </trkpt>
      <trkpt lat="43.18761" lon="-1.67507">
        <ele>94.241</ele>
        <time>2020-05-14T21:56:39Z</time>
      </trkpt>
      <trkpt lat="43.18754" lon="-1.67491">
        <ele>94.305</ele>
        <time>2020-05-14T21:56:59Z</time>
      </trkpt>
      <trkpt lat="43.18754" lon="-1.67491">
        <ele>94.308</ele>
        <time>2020-05-14T21:57:19Z</time>
      </trkpt>
      <trkpt lat="43.18737" lon="-1.67443">
        <ele>94.676</ele>
        <time>2020-05-14T21:57:39Z</time>
      </trkpt>
      <trkpt lat="43.18735" lon="-1.6744">
        <ele>94.681</ele>
        <time>2020-05-14T21:57:59Z</time>
      </trkpt>
      <trkpt lat="43.18731" lon="-1.67429">
        <ele>94.625</ele>
        <time>2020-05-14T21:58:19Z</time>
      </trkpt>
      <trkpt lat="43.18726" lon="-1.67415">
        <ele>94.893</ele>
        <time>2020-05-14T21:58:39Z</time>
      </trkpt>
      <trkpt lat="43.18719" lon="-1.67395">
        <ele>94.798</ele>
        <time>2020-05-14T21:58:59Z</time>
      </trkpt>
      <trkpt lat="43.18715" lon="-1.67384">
        <ele>94.828</ele>
        <time>2020-05-14T21:59:19Z</time>
      </trkpt>
      <trkpt lat="43.1869" lon="-1.6731">
        <ele>95.325</ele>
        <time>2020-05-14T21:59:39Z</time>
      </trkpt>
      <trkpt lat="43.18668" lon="-1.67246">
        <ele>95.377</ele>
        <time>2020-05-14T21:59:59Z</time>
      </trkpt>
      <trkpt lat="43.18663" lon="-1.67229">
        <ele>95.286</ele>
        <time>2020-05-14T22:00:19Z</time>
      </trkpt>
      <trkpt lat="43.1866" lon="-1.67221">
        <ele>95.16</ele>
        <time>2020-05-14T22:00:39Z</time>
      </trkpt>
      <trkpt lat="43.1865" lon="-1.67194">
        <ele>95.026</ele>
        <time>2020-05-14T22:00:59Z</time>
      </trkpt>
      <trkpt lat="43.18643" lon="-1.67172">
        <ele>95.108</ele>
        <time>2020-05-14T22:01:19Z</time>
      </trkpt>
      <trkpt lat="43.18633" lon="-1.67143">
        <ele>95.172</ele>
        <time>2020-05-14T22:01:39Z</time>
      </trkpt>
      <trkpt lat="43.18625" lon="-1.67121">
        <ele>95.137</ele>
        <time>2020-05-14T22:01:59Z</time>
      </trkpt>
      <trkpt lat="43.18615" lon="-1.67093">
        <ele>95.181</ele>
        <time>2020-05-14T22:02:19Z</time>
      </trkpt>
      <trkpt lat="43.1861" lon="-1.67078">
        <ele>95.029</ele>
        <time>2020-05-14T22:02:39Z</time>
      </trkpt>
      <trkpt lat="43.18609" lon="-1.67075">
        <ele>95.074</ele>
        <time>2020-05-14T22:02:59Z</time>
      </trkpt>
      <trkpt lat="43.18607" lon="-1.67071">
        <ele>95.014</ele>
        <time>2020-05-14T22:03:19Z</time>
      </trkpt>
      <trkpt lat="43.18605" lon="-1.67066">
        <ele>95.031</ele>
        <time>2020-05-14T22:03:39Z</time>
      </trkpt>
      <trkpt lat="43.18593" lon="-1.67044">
        <ele>95.033</ele>
        <time>2020-05-14T22:03:59Z</time>
      </trkpt>
      <trkpt lat="43.1859" lon="-1.67041">
        <ele>95.085</ele>
        <time>2020-05-14T22:04:19Z</time>
      </trkpt>
      <trkpt lat="43.18588" lon="-1.67038">
        <ele>94.889</ele>
        <time>2020-05-14T22:04:39Z</time>
      </trkpt>
      <trkpt lat="43.18584" lon="-1.67033">
        <ele>94.717</ele>
        <time>2020-05-14T22:04:59Z</time>
      </trkpt>
      <trkpt lat="43.18582" lon="-1.67029">
        <ele>94.508</ele>
        <time>2020-05-14T22:05:19Z</time>
      </trkpt>
      <trkpt lat="43.18577" lon="-1.67024">
        <ele>99.772</ele>
        <time>2020-05-14T22:05:39Z</time>
      </trkpt>
      <trkpt lat="43.18577" lon="-1.67024">
        <ele>99.777</ele>
        <time>2020-05-14T22:05:59Z</time>
      </trkpt>
      <trkpt lat="43.18575" lon="-1.67022">
        <ele>99.731</ele>
        <time>2020-05-14T22:06:19Z</time>
      </trkpt>
      <trkpt lat="43.18572" lon="-1.67019">
        <ele>99.939</ele>
        <time>2020-05-14T22:06:39Z</time>
      </trkpt>
      <trkpt lat="43.18569" lon="-1.67016">
        <ele>99.994</ele>
        <time>2020-05-14T22:06:59Z</time>
      </trkpt>
      <trkpt lat="43.18567" lon="-1.67014">
        <ele>99.984</ele>
        <time>2020-05-14T22:07:19Z</time>
      </trkpt>
      <trkpt lat="43.18567" lon="-1.67013">
        <ele>99.921</ele>
        <time>2020-05-14T22:07:39Z</time>
      </trkpt>
      <trkpt lat="43.18565" lon="-1.67011">
        <ele>99.993</ele>
        <time>2020-05-14T22:07:59Z</time>
      </trkpt>
      <trkpt lat="43.18563" lon="-1.67009">
        <ele>99.921</ele>
        <time>2020-05-14T22:08:19Z</time>
      </trkpt>
      <trkpt lat="43.18559" lon="-1.67006">
        <ele>99.641</ele>
        <time>2020-05-14T22:08:39Z</time>
      </trkpt>
      <trkpt lat="43.18557" lon="-1.67003">
        <ele>99.605</ele>
        <time>2020-05-14T22:08:59Z</time>
      </trkpt>
      <trkpt lat="43.18556" lon="-1.67003">
        <ele>99.608</ele>
        <time>2020-05-14T22:09:19Z</time>
      </trkpt>
      <trkpt lat="43.18548" lon="-1.66998">
        <ele>94.626</ele>
        <time>2020-05-14T22:09:39Z</time>
      </trkpt>
      <trkpt lat="43.18543" lon="-1.66995">
        <ele>94.761</ele>
        <time>2020-05-14T22:09:59Z</time>
      </trkpt>
      <trkpt lat="43.18538" lon="-1.66992">
        <ele>94.915</ele>
        <time>2020-05-14T22:10:19Z</time>
      </trkpt>
      <trkpt lat="43.18531" lon="-1.66989">
        <ele>95.373</ele>
        <time>2020-05-14T22:10:39Z</time>
      </trkpt>
      <trkpt lat="43.18524" lon="-1.66987">
        <ele>95.258</ele>
        <time>2020-05-14T22:10:59Z</time>
      </trkpt>
      <trkpt lat="43.18518" lon="-1.66985">
        <ele>95.348</ele>
        <time>2020-05-14T22:11:19Z</time>
      </trkpt>
      <trkpt lat="43.18513" lon="-1.66984">
        <ele>95.325</ele>
        <time>2020-05-14T22:11:39Z</time>
      </trkpt>
      <trkpt lat="43.18504" lon="-1.66983">
        <ele>94.517</ele>
        <time>2020-05-14T22:11:59Z</time>
      </trkpt>
      <trkpt lat="43.18498" lon="-1.66982">
        <ele>94.619</ele>
        <time>2020-05-14T22:12:19Z</time>
      </trkpt>
      <trkpt lat="43.18494" lon="-1.66982">
        <ele>95.009</ele>
        <time>2020-05-14T22:12:39Z</time>
      </trkpt>
      <trkpt lat="43.1849" lon="-1.66982">
        <ele>95.019</ele>
        <time>2020-05-14T22:12:59Z</time>
      </trkpt>
      <trkpt lat="43.18484" lon="-1.66983">
        <ele>95.108</ele>
        <time>2020-05-14T22:13:19Z</time>
      </trkpt>
      <trkpt lat="43.18478" lon="-1.66984">
        <ele>95.295</ele>
        <time>2020-05-14T22:13:39Z</time>
      </trkpt>
      <trkpt lat="43.18466" lon="-1.66986">
        <ele>95.37</ele>
        <time>2020-05-14T22:13:59Z</time>
      </trkpt>
      <trkpt lat="43.18453" lon="-1.66989">
        <ele>95.114</ele>
        <time>2020-05-14T22:14:19Z</time>
      </trkpt>
      <trkpt lat="43.18417" lon="-1.66999">
        <ele>94.992</ele>
        <time>2020-05-14T22:14:39Z</time>
      </trkpt>
      <trkpt lat="43.18393" lon="-1.67006">
        <ele>94.827</ele>
        <time>2020-05-14T22:14:59Z</time>
      </trkpt>
      <trkpt lat="43.18392" lon="-1.67007">
        <ele>94.827</ele>
        <time>2020-05-14T22:15:19Z</time>
      </trkpt>
      <trkpt lat="43.18386" lon="-1.67008">
        <ele>94.994</ele>
        <time>2020-05-14T22:15:39Z</time>
      </trkpt>
      <trkpt lat="43.1838" lon="-1.6701">
        <ele>94.426</ele>
        <time>2020-05-14T22:15:59Z</time>
      </trkpt>
      <trkpt lat="43.1837" lon="-1.67013">
        <ele>94.784</ele>
        <time>2020-05-14T22:16:19Z</time>
      </trkpt>
      <trkpt lat="43.18349" lon="-1.67018">
        <ele>94.807</ele>
        <time>2020-05-14T22:16:39Z</time>
      </trkpt>
      <trkpt lat="43.18339" lon="-1.67021">
        <ele>94.817</ele>
        <time>2020-05-14T22:16:59Z</time>
      </trkpt>
      <trkpt lat="43.18331" lon="-1.67023">
        <ele>94.908</ele>
        <time>2020-05-14T22:17:19Z</time>
      </trkpt>
      <trkpt lat="43.18323" lon="-1.67025">
        <ele>94.972</ele>
        <time>2020-05-14T22:17:39Z</time>
      </trkpt>
      <trkpt lat="43.18322" lon="-1.67025">
        <ele>94.937</ele>
        <time>2020-05-14T22:17:59Z</time>
      </trkpt>
      <trkpt lat="43.18307" lon="-1.6703">
        <ele>94.971</ele>
        <time>2020-05-14T22:18:19Z</time>
      </trkpt>
      <trkpt lat="43.18298" lon="-1.67033">
        <ele>95.089</ele>
        <time>2020-05-14T22:18:39Z</time>
      </trkpt>
      <trkpt lat="43.18289" lon="-1.67035">
        <ele>95.144</ele>
        <time>2020-05-14T22:18:59Z</time>
      </trkpt>
      <trkpt lat="43.18268" lon="-1.67041">
        <ele>95.094</ele>
        <time>2020-05-14T22:19:19Z</time>
      </trkpt>
      <trkpt lat="43.18208" lon="-1.67057">
        <ele>95.061</ele>
        <time>2020-05-14T22:19:39Z</time>
      </trkpt>
      <trkpt lat="43.18192" lon="-1.67062">
        <ele>95.143</ele>
        <time>2020-05-14T22:19:59Z</time>
      </trkpt>
      <trkpt lat="43.18167" lon="-1.67069">
        <ele>94.972</ele>
        <time>2020-05-14T22:20:19Z</time>
      </trkpt>
      <trkpt lat="43.18147" lon="-1.67074">
        <ele>94.913</ele>
        <time>2020-05-14T22:20:39Z</time>
      </trkpt>
      <trkpt lat="43.18147" lon="-1.67074">
        <ele>94.914</ele>
        <time>2020-05-14T22:20:59Z</time>
      </trkpt>
      <trkpt lat="43.1814" lon="-1.67083">
        <ele>97.008</ele>
        <time>2020-05-14T22:21:19Z</time>
      </trkpt>
      <trkpt lat="43.18131" lon="-1.67095">
        <ele>102.351</ele>
        <time>2020-05-14T22:21:39Z</time>
      </trkpt>
      <trkpt lat="43.18056" lon="-1.67086">
        <ele>95.496</ele>
        <time>2020-05-14T22:21:59Z</time>
      </trkpt>
      <trkpt lat="43.18054" lon="-1.67074">
        <ele>93.34</ele>
        <time>2020-05-14T22:22:19Z</time>
      </trkpt>
      <trkpt lat="43.18052" lon="-1.67064">
        <ele>88.858</ele>
        <time>2020-05-14T22:22:39Z</time>
      </trkpt>
      <trkpt lat="43.18007" lon="-1.67052">
        <ele>89.873</ele>
        <time>2020-05-14T22:22:59Z</time>
      </trkpt>
      <trkpt lat="43.17981" lon="-1.67044">
        <ele>95.313</ele>
        <time>2020-05-14T22:23:19Z</time>
      </trkpt>
      <trkpt lat="43.17976" lon="-1.67041">
        <ele>94.75</ele>
        <time>2020-05-14T22:23:39Z</time>
      </trkpt>
      <trkpt lat="43.17962" lon="-1.67022">
        <ele>95.452</ele>
        <time>2020-05-14T22:23:59Z</time>
      </trkpt>
      <trkpt lat="43.17951" lon="-1.67004">
        <ele>95.657</ele>
        <time>2020-05-14T22:24:19Z</time>
      </trkpt>
      <trkpt lat="43.17936" lon="-1.66983">
        <ele>95.8</ele>
        <time>2020-05-14T22:24:39Z</time>
      </trkpt>
      <trkpt lat="43.17921" lon="-1.66962">
        <ele>95.92</ele>
        <time>2020-05-14T22:24:59Z</time>
      </trkpt>
      <trkpt lat="43.17907" lon="-1.66943">
        <ele>96.208</ele>
        <time>2020-05-14T22:25:19Z</time>
      </trkpt>
      <trkpt lat="43.17893" lon="-1.66924">
        <ele>96.129</ele>
        <time>2020-05-14T22:25:39Z</time>
      </trkpt>
      <trkpt lat="43.1785" lon="-1.66865">
        <ele>96.744</ele>
        <time>2020-05-14T22:25:59Z</time>
      </trkpt>
      <trkpt lat="43.17847" lon="-1.66861">
        <ele>96.918</ele>
        <time>2020-05-14T22:26:19Z</time>
      </trkpt>
      <trkpt lat="43.17815" lon="-1.66815">
        <ele>97.126</ele>
        <time>2020-05-14T22:26:39Z</time>
      </trkpt>
      <trkpt lat="43.17785" lon="-1.66774">
        <ele>97.471</ele>
        <time>2020-05-14T22:26:59Z</time>
      </trkpt>
      <trkpt lat="43.1778" lon="-1.66768">
        <ele>97.571</ele>
        <time>2020-05-14T22:27:19Z</time>
      </trkpt>
      <trkpt lat="43.17776" lon="-1.66762">
        <ele>97.538</ele>
        <time>2020-05-14T22:27:39Z</time>
      </trkpt>
      <trkpt lat="43.17772" lon="-1.66757">
        <ele>97.62</ele>
        <time>2020-05-14T22:27:59Z</time>
      </trkpt>
      <trkpt lat="43.17768" lon="-1.66753">
        <ele>97.237</ele>
        <time>2020-05-14T22:28:19Z</time>
      </trkpt>
      <trkpt lat="43.17758" lon="-1.66743">
        <ele>97.749</ele>
        <time>2020-05-14T22:28:39Z</time>
      </trkpt>
      <trkpt lat="43.17752" lon="-1.6674">
        <ele>97.813</ele>
        <time>2020-05-14T22:28:59Z</time>
      </trkpt>
      <trkpt lat="43.17747" lon="-1.66736">
        <ele>97.808</ele>
        <time>2020-05-14T22:29:19Z</time>
      </trkpt>
      <trkpt lat="43.17738" lon="-1.66731">
        <ele>97.987</ele>
        <time>2020-05-14T22:29:39Z</time>
      </trkpt>
      <trkpt lat="43.1773" lon="-1.66728">
        <ele>97.662</ele>
        <time>2020-05-14T22:29:59Z</time>
      </trkpt>
      <trkpt lat="43.1772" lon="-1.66725">
        <ele>98.246</ele>
        <time>2020-05-14T22:30:19Z</time>
      </trkpt>
      <trkpt lat="43.17715" lon="-1.66724">
        <ele>98.354</ele>
        <time>2020-05-14T22:30:39Z</time>
      </trkpt>
      <trkpt lat="43.1771" lon="-1.66723">
        <ele>98.359</ele>
        <time>2020-05-14T22:30:59Z</time>
      </trkpt>
      <trkpt lat="43.17705" lon="-1.66723">
        <ele>98.469</ele>
        <time>2020-05-14T22:31:19Z</time>
      </trkpt>
      <trkpt lat="43.177" lon="-1.66723">
        <ele>98.596</ele>
        <time>2020-05-14T22:31:39Z</time>
      </trkpt>
      <trkpt lat="43.17695" lon="-1.66723">
        <ele>98.688</ele>
        <time>2020-05-14T22:31:59Z</time>
      </trkpt>
      <trkpt lat="43.17691" lon="-1.66723">
        <ele>98.671</ele>
        <time>2020-05-14T22:32:19Z</time>
      </trkpt>
      <trkpt lat="43.17687" lon="-1.66724">
        <ele>98.541</ele>
        <time>2020-05-14T22:32:39Z</time>
      </trkpt>
      <trkpt lat="43.17683" lon="-1.66725">
        <ele>98.615</ele>
        <time>2020-05-14T22:32:59Z</time>
      </trkpt>
      <trkpt lat="43.17679" lon="-1.66726">
        <ele>98.708</ele>
        <time>2020-05-14T22:33:19Z</time>
      </trkpt>
      <trkpt lat="43.17676" lon="-1.66727">
        <ele>98.741</ele>
        <time>2020-05-14T22:33:39Z</time>
      </trkpt>
      <trkpt lat="43.17667" lon="-1.66731">
        <ele>101.726</ele>
        <time>2020-05-14T22:33:59Z</time>
      </trkpt>
      <trkpt lat="43.17663" lon="-1.66733">
        <ele>98.92</ele>
        <time>2020-05-14T22:34:19Z</time>
      </trkpt>
      <trkpt lat="43.17658" lon="-1.66735">
        <ele>98.818</ele>
        <time>2020-05-14T22:34:39Z</time>
      </trkpt>
      <trkpt lat="43.1765" lon="-1.66741">
        <ele>98.923</ele>
        <time>2020-05-14T22:34:59Z</time>
      </trkpt>
      <trkpt lat="43.17646" lon="-1.66744">
        <ele>98.973</ele>
        <time>2020-05-14T22:35:19Z</time>
      </trkpt>
      <trkpt lat="43.17642" lon="-1.66748">
        <ele>99.01</ele>
        <time>2020-05-14T22:35:39Z</time>
      </trkpt>
      <trkpt lat="43.17638" lon="-1.66751">
        <ele>99.022</ele>
        <time>2020-05-14T22:35:59Z</time>
      </trkpt>
      <trkpt lat="43.17634" lon="-1.66755">
        <ele>99.139</ele>
        <time>2020-05-14T22:36:19Z</time>
      </trkpt>
      <trkpt lat="43.17626" lon="-1.66767">
        <ele>99.101</ele>
        <time>2020-05-14T22:36:39Z</time>
      </trkpt>
      <trkpt lat="43.17622" lon="-1.66773">
        <ele>99.021</ele>
        <time>2020-05-14T22:36:59Z</time>
      </trkpt>
      <trkpt lat="43.17618" lon="-1.66779">
        <ele>99.108</ele>
        <time>2020-05-14T22:37:19Z</time>
      </trkpt>
      <trkpt lat="43.17614" lon="-1.66786">
        <ele>99.217</ele>
        <time>2020-05-14T22:37:39Z</time>
      </trkpt>
      <trkpt lat="43.17611" lon="-1.66793">
        <ele>99.322</ele>
        <time>2020-05-14T22:37:59Z</time>
      </trkpt>
      <trkpt lat="43.1761" lon="-1.66795">
        <ele>99.326</ele>
        <time>2020-05-14T22:38:19Z</time>
      </trkpt>
      <trkpt lat="43.17606" lon="-1.66804">
        <ele>99.424</ele>
        <time>2020-05-14T22:38:39Z</time>
      </trkpt>
      <trkpt lat="43.17604" lon="-1.66809">
        <ele>99.599</ele>
        <time>2020-05-14T22:38:59Z</time>
      </trkpt>
      <trkpt lat="43.17602" lon="-1.66816">
        <ele>99.619</ele>
        <time>2020-05-14T22:39:19Z</time>
      </trkpt>
      <trkpt lat="43.17599" lon="-1.66824">
        <ele>99.666</ele>
        <time>2020-05-14T22:39:39Z</time>
      </trkpt>
      <trkpt lat="43.17596" lon="-1.66838">
        <ele>99.598</ele>
        <time>2020-05-14T22:39:59Z</time>
      </trkpt>
      <trkpt lat="43.17594" lon="-1.66851">
        <ele>99.599</ele>
        <time>2020-05-14T22:40:19Z</time>
      </trkpt>
      <trkpt lat="43.17593" lon="-1.66869">
        <ele>99.407</ele>
        <time>2020-05-14T22:40:39Z</time>
      </trkpt>
      <trkpt lat="43.17594" lon="-1.66887">
        <ele>99.327</ele>
        <time>2020-05-14T22:40:59Z</time>
      </trkpt>
      <trkpt lat="43.17596" lon="-1.66897">
        <ele>99.508</ele>
        <time>2020-05-14T22:41:19Z</time>
      </trkpt>
      <trkpt lat="43.17597" lon="-1.66903">
        <ele>99.483</ele>
        <time>2020-05-14T22:41:39Z</time>
      </trkpt>
      <trkpt lat="43.17597" lon="-1.66906">
        <ele>99.228</ele>
        <time>2020-05-14T22:41:59Z</time>
      </trkpt>
      <trkpt lat="43.17601" lon="-1.66925">
        <ele>99.272</ele>
        <time>2020-05-14T22:42:19Z</time>
      </trkpt>
      <trkpt lat="43.17606" lon="-1.6696">
        <ele>99.17</ele>
        <time>2020-05-14T22:42:39Z</time>
      </trkpt>
      <trkpt lat="43.17623" lon="-1.67061">
        <ele>99.235</ele>
        <time>2020-05-14T22:42:59Z</time>
      </trkpt>
      <trkpt lat="43.17625" lon="-1.67075">
        <ele>99.175</ele>
        <time>2020-05-14T22:43:19Z</time>
      </trkpt>
      <trkpt lat="43.17628" lon="-1.67115">
        <ele>99.372</ele>
        <time>2020-05-14T22:43:39Z</time>
      </trkpt>
      <trkpt lat="43.17636" lon="-1.67194">
        <ele>99.254</ele>
        <time>2020-05-14T22:43:59Z</time>
      </trkpt>
      <trkpt lat="43.17638" lon="-1.67241">
        <ele>99.624</ele>
        <time>2020-05-14T22:44:19Z</time>
      </trkpt>
      <trkpt lat="43.17639" lon="-1.67254">
        <ele>97.804</ele>
        <time>2020-05-14T22:44:39Z</time>
      </trkpt>
      <trkpt lat="43.17639" lon="-1.67297">
        <ele>99.614</ele>
        <time>2020-05-14T22:44:59Z</time>
      </trkpt>
      <trkpt lat="43.17638" lon="-1.67327">
        <ele>99.808</ele>
        <time>2020-05-14T22:45:19Z</time>
      </trkpt>
      <trkpt lat="43.17636" lon="-1.67349">
        <ele>99.926</ele>
        <time>2020-05-14T22:45:39Z</time>
      </trkpt>
      <trkpt lat="43.17635" lon="-1.67356">
        <ele>99.931</ele>
        <time>2020-05-14T22:45:59Z</time>
      </trkpt>
      <trkpt lat="43.17634" lon="-1.67367">
        <ele>99.975</ele>
        <time>2020-05-14T22:46:19Z</time>
      </trkpt>
      <trkpt lat="43.17633" lon="-1.67377">
        <ele>100.023</ele>
        <time>2020-05-14T22:46:39Z</time>
      </trkpt>
      <trkpt lat="43.17631" lon="-1.67397">
        <ele>100.138</ele>
        <time>2020-05-14T22:46:59Z</time>
      </trkpt>
      <trkpt lat="43.17629" lon="-1.67417">
        <ele>100.368</ele>
        <time>2020-05-14T22:47:19Z</time>
      </trkpt>
      <trkpt lat="43.17627" lon="-1.67431">
        <ele>100.365</ele>
        <time>2020-05-14T22:47:39Z</time>
      </trkpt>
      <trkpt lat="43.17626" lon="-1.67444">
        <ele>100.597</ele>
        <time>2020-05-14T22:47:59Z</time>
      </trkpt>
      <trkpt lat="43.17624" lon="-1.67459">
        <ele>100.437</ele>
        <time>2020-05-14T22:48:19Z</time>
      </trkpt>
      <trkpt lat="43.17623" lon="-1.67473">
        <ele>100.649</ele>
        <time>2020-05-14T22:48:39Z</time>
      </trkpt>
      <trkpt lat="43.17621" lon="-1.67489">
        <ele>100.713</ele>
        <time>2020-05-14T22:48:59Z</time>
      </trkpt>
      <trkpt lat="43.1762" lon="-1.67505">
        <ele>100.708</ele>
        <time>2020-05-14T22:49:19Z</time>
      </trkpt>
      <trkpt lat="43.17619" lon="-1.6751">
        <ele>100.797</ele>
        <time>2020-05-14T22:49:39Z</time>
      </trkpt>
      <trkpt lat="43.17617" lon="-1.67519">
        <ele>101.382</ele>
        <time>2020-05-14T22:49:59Z</time>
      </trkpt>
      <trkpt lat="43.17617" lon="-1.67522">
        <ele>100.866</ele>
        <time>2020-05-14T22:50:19Z</time>
      </trkpt>
      <trkpt lat="43.17616" lon="-1.67525">
        <ele>100.884</ele>
        <time>2020-05-14T22:50:39Z</time>
      </trkpt>
      <trkpt lat="43.17615" lon="-1.67528">
        <ele>100.829</ele>
        <time>2020-05-14T22:50:59Z</time>
      </trkpt>
      <trkpt lat="43.17612" lon="-1.67538">
        <ele>100.899</ele>
        <time>2020-05-14T22:51:19Z</time>
      </trkpt>
      <trkpt lat="43.17608" lon="-1.67549">
        <ele>100.646</ele>
        <time>2020-05-14T22:51:39Z</time>
      </trkpt>
      <trkpt lat="43.17605" lon="-1.67557">
        <ele>100.748</ele>
        <time>2020-05-14T22:51:59Z</time>
      </trkpt>
      <trkpt lat="43.17602" lon="-1.67565">
        <ele>100.868</ele>
        <time>2020-05-14T22:52:19Z</time>
      </trkpt>
      <trkpt lat="43.176" lon="-1.67569">
        <ele>100.942</ele>
        <time>2020-05-14T22:52:39Z</time>
      </trkpt>
      <trkpt lat="43.17599" lon="-1.67573">
        <ele>100.926</ele>
        <time>2020-05-14T22:52:59Z</time>
      </trkpt>
      <trkpt lat="43.17598" lon="-1.67575">
        <ele>101.008</ele>
        <time>2020-05-14T22:53:19Z</time>
      </trkpt>
      <trkpt lat="43.17592" lon="-1.67584">
        <ele>101.09</ele>
        <time>2020-05-14T22:53:39Z</time>
      </trkpt>
      <trkpt lat="43.17591" lon="-1.67586">
        <ele>101.065</ele>
        <time>2020-05-14T22:53:59Z</time>
      </trkpt>
      <trkpt lat="43.17589" lon="-1.67588">
        <ele>101.019</ele>
        <time>2020-05-14T22:54:19Z</time>
      </trkpt>
      <trkpt lat="43.17587" lon="-1.67593">
        <ele>101.037</ele>
        <time>2020-05-14T22:54:39Z</time>
      </trkpt>
      <trkpt lat="43.17584" lon="-1.67597">
        <ele>101.132</ele>
        <time>2020-05-14T22:54:59Z</time>
      </trkpt>
      <trkpt lat="43.17558" lon="-1.67632">
        <ele>101.542</ele>
        <time>2020-05-14T22:55:19Z</time>
      </trkpt>
      <trkpt lat="43.17515" lon="-1.67688">
        <ele>102.319</ele>
        <time>2020-05-14T22:55:39Z</time>
      </trkpt>
      <trkpt lat="43.17506" lon="-1.67699">
        <ele>102.491</ele>
        <time>2020-05-14T22:55:59Z</time>
      </trkpt>
      <trkpt lat="43.17496" lon="-1.67711">
        <ele>102.646</ele>
        <time>2020-05-14T22:56:19Z</time>
      </trkpt>
      <trkpt lat="43.17493" lon="-1.67714">
        <ele>102.788</ele>
        <time>2020-05-14T22:56:39Z</time>
      </trkpt>
      <trkpt lat="43.17489" lon="-1.67718">
        <ele>102.716</ele>
        <time>2020-05-14T22:56:59Z</time>
      </trkpt>
      <trkpt lat="43.17488" lon="-1.67719">
        <ele>104.708</ele>
        <time>2020-05-14T22:57:19Z</time>
      </trkpt>
      <trkpt lat="43.17486" lon="-1.67721">
        <ele>104.768</ele>
        <time>2020-05-14T22:57:39Z</time>
      </trkpt>
      <trkpt lat="43.17482" lon="-1.67724">
        <ele>102.873</ele>
        <time>2020-05-14T22:57:59Z</time>
      </trkpt>
      <trkpt lat="43.1747" lon="-1.67731">
        <ele>102.937</ele>
        <time>2020-05-14T22:58:19Z</time>
      </trkpt>
      <trkpt lat="43.17466" lon="-1.67732">
        <ele>103.075</ele>
        <time>2020-05-14T22:58:39Z</time>
      </trkpt>
      <trkpt lat="43.17462" lon="-1.67734">
        <ele>103.08</ele>
        <time>2020-05-14T22:58:59Z</time>
      </trkpt>
      <trkpt lat="43.17457" lon="-1.67736">
        <ele>103.04</ele>
        <time>2020-05-14T22:59:19Z</time>
      </trkpt>
      <trkpt lat="43.17453" lon="-1.67738">
        <ele>103.197</ele>
        <time>2020-05-14T22:59:39Z</time>
      </trkpt>
      <trkpt lat="43.17451" lon="-1.67738">
        <ele>103.129</ele>
        <time>2020-05-14T22:59:59Z</time>
      </trkpt>
      <trkpt lat="43.17449" lon="-1.67739">
        <ele>103.129</ele>
        <time>2020-05-14T23:00:19Z</time>
      </trkpt>
      <trkpt lat="43.17423" lon="-1.67742">
        <ele>103.3</ele>
        <time>2020-05-14T23:00:39Z</time>
      </trkpt>
      <trkpt lat="43.17375" lon="-1.67744">
        <ele>103.92</ele>
        <time>2020-05-14T23:00:59Z</time>
      </trkpt>
      <trkpt lat="43.17366" lon="-1.67745">
        <ele>104.408</ele>
        <time>2020-05-14T23:01:19Z</time>
      </trkpt>
      <trkpt lat="43.17357" lon="-1.67744">
        <ele>104.016</ele>
        <time>2020-05-14T23:01:39Z</time>
      </trkpt>
      <trkpt lat="43.17346" lon="-1.67743">
        <ele>104.081</ele>
        <time>2020-05-14T23:01:59Z</time>
      </trkpt>
      <trkpt lat="43.17344" lon="-1.67743">
        <ele>104.175</ele>
        <time>2020-05-14T23:02:19Z</time>
      </trkpt>
      <trkpt lat="43.17342" lon="-1.67742">
        <ele>104.173</ele>
        <time>2020-05-14T23:02:39Z</time>
      </trkpt>
      <trkpt lat="43.17334" lon="-1.67739">
        <ele>104.258</ele>
        <time>2020-05-14T23:02:59Z</time>
      </trkpt>
      <trkpt lat="43.17323" lon="-1.67735">
        <ele>104.358</ele>
        <time>2020-05-14T23:03:19Z</time>
      </trkpt>
      <trkpt lat="43.17314" lon="-1.67731">
        <ele>104.495</ele>
        <time>2020-05-14T23:03:39Z</time>
      </trkpt>
      <trkpt lat="43.17311" lon="-1.6773">
        <ele>104.547</ele>
        <time>2020-05-14T23:03:59Z</time>
      </trkpt>
      <trkpt lat="43.17302" lon="-1.67726">
        <ele>104.664</ele>
        <time>2020-05-14T23:04:19Z</time>
      </trkpt>
      <trkpt lat="43.17296" lon="-1.67723">
        <ele>104.606</ele>
        <time>2020-05-14T23:04:39Z</time>
      </trkpt>
      <trkpt lat="43.17294" lon="-1.67723">
        <ele>104.816</ele>
        <time>2020-05-14T23:04:59Z</time>
      </trkpt>
      <trkpt lat="43.17292" lon="-1.67722">
        <ele>104.708</ele>
        <time>2020-05-14T23:05:19Z</time>
      </trkpt>
      <trkpt lat="43.17274" lon="-1.67717">
        <ele>104.74</ele>
        <time>2020-05-14T23:05:39Z</time>
      </trkpt>
      <trkpt lat="43.1726" lon="-1.67713">
        <ele>104.865</ele>
        <time>2020-05-14T23:05:59Z</time>
      </trkpt>
      <trkpt lat="43.17246" lon="-1.67708">
        <ele>104.869</ele>
        <time>2020-05-14T23:06:19Z</time>
      </trkpt>
      <trkpt lat="43.17231" lon="-1.67702">
        <ele>104.867</ele>
        <time>2020-05-14T23:06:39Z</time>
      </trkpt>
      <trkpt lat="43.17216" lon="-1.67697">
        <ele>104.842</ele>
        <time>2020-05-14T23:06:59Z</time>
      </trkpt>
      <trkpt lat="43.1719" lon="-1.67687">
        <ele>104.792</ele>
        <time>2020-05-14T23:07:19Z</time>
      </trkpt>
      <trkpt lat="43.17188" lon="-1.67686">
        <ele>104.719</ele>
        <time>2020-05-14T23:07:39Z</time>
      </trkpt>
      <trkpt lat="43.17184" lon="-1.67685">
        <ele>104.731</ele>
        <time>2020-05-14T23:07:59Z</time>
      </trkpt>
      <trkpt lat="43.17183" lon="-1.67684">
        <ele>104.718</ele>
        <time>2020-05-14T23:08:19Z</time>
      </trkpt>
      <trkpt lat="43.1716" lon="-1.67676">
        <ele>104.098</ele>
        <time>2020-05-14T23:08:39Z</time>
      </trkpt>
      <trkpt lat="43.17142" lon="-1.67669">
        <ele>104.617</ele>
        <time>2020-05-14T23:08:59Z</time>
      </trkpt>
      <trkpt lat="43.17138" lon="-1.67667">
        <ele>104.608</ele>
        <time>2020-05-14T23:09:19Z</time>
      </trkpt>
      <trkpt lat="43.17133" lon="-1.67666">
        <ele>104.635</ele>
        <time>2020-05-14T23:09:39Z</time>
      </trkpt>
      <trkpt lat="43.17124" lon="-1.67662">
        <ele>104.76</ele>
        <time>2020-05-14T23:09:59Z</time>
      </trkpt>
      <trkpt lat="43.17115" lon="-1.67659">
        <ele>104.874</ele>
        <time>2020-05-14T23:10:19Z</time>
      </trkpt>
      <trkpt lat="43.1706" lon="-1.67638">
        <ele>104.832</ele>
        <time>2020-05-14T23:10:39Z</time>
      </trkpt>
      <trkpt lat="43.1705" lon="-1.67634">
        <ele>104.977</ele>
        <time>2020-05-14T23:10:59Z</time>
      </trkpt>
      <trkpt lat="43.17044" lon="-1.67632">
        <ele>104.887</ele>
        <time>2020-05-14T23:11:19Z</time>
      </trkpt>
      <trkpt lat="43.17039" lon="-1.67631">
        <ele>105.024</ele>
        <time>2020-05-14T23:11:39Z</time>
      </trkpt>
      <trkpt lat="43.17032" lon="-1.67629">
        <ele>104.476</ele>
        <time>2020-05-14T23:11:59Z</time>
      </trkpt>
      <trkpt lat="43.17031" lon="-1.67629">
        <ele>104.431</ele>
        <time>2020-05-14T23:12:19Z</time>
      </trkpt>
      <trkpt lat="43.17029" lon="-1.67628">
        <ele>104.461</ele>
        <time>2020-05-14T23:12:39Z</time>
      </trkpt>
      <trkpt lat="43.17021" lon="-1.67628">
        <ele>104.907</ele>
        <time>2020-05-14T23:12:59Z</time>
      </trkpt>
      <trkpt lat="43.17016" lon="-1.67627">
        <ele>105.008</ele>
        <time>2020-05-14T23:13:19Z</time>
      </trkpt>
      <trkpt lat="43.17011" lon="-1.67627">
        <ele>105.187</ele>
        <time>2020-05-14T23:13:39Z</time>
      </trkpt>
      <trkpt lat="43.17005" lon="-1.67627">
        <ele>105.252</ele>
        <time>2020-05-14T23:13:59Z</time>
      </trkpt>
      <trkpt lat="43.16999" lon="-1.67628">
        <ele>105.246</ele>
        <time>2020-05-14T23:14:19Z</time>
      </trkpt>
      <trkpt lat="43.16993" lon="-1.6763">
        <ele>105.324</ele>
        <time>2020-05-14T23:14:39Z</time>
      </trkpt>
      <trkpt lat="43.16978" lon="-1.67634">
        <ele>105.429</ele>
        <time>2020-05-14T23:14:59Z</time>
      </trkpt>
      <trkpt lat="43.16962" lon="-1.6764">
        <ele>105.789</ele>
        <time>2020-05-14T23:15:19Z</time>
      </trkpt>
      <trkpt lat="43.16935" lon="-1.6765">
        <ele>105.966</ele>
        <time>2020-05-14T23:15:39Z</time>
      </trkpt>
      <trkpt lat="43.16909" lon="-1.67661">
        <ele>108.718</ele>
        <time>2020-05-14T23:15:59Z</time>
      </trkpt>
      <trkpt lat="43.16902" lon="-1.67663">
        <ele>107.899</ele>
        <time>2020-05-14T23:16:19Z</time>
      </trkpt>
      <trkpt lat="43.16894" lon="-1.67666">
        <ele>106.907</ele>
        <time>2020-05-14T23:16:39Z</time>
      </trkpt>
      <trkpt lat="43.16888" lon="-1.67668">
        <ele>106.027</ele>
        <time>2020-05-14T23:16:59Z</time>
      </trkpt>
      <trkpt lat="43.16877" lon="-1.67669">
        <ele>106.008</ele>
        <time>2020-05-14T23:17:19Z</time>
      </trkpt>
      <trkpt lat="43.1687" lon="-1.67669">
        <ele>106.043</ele>
        <time>2020-05-14T23:17:39Z</time>
      </trkpt>
      <trkpt lat="43.16862" lon="-1.67669">
        <ele>106.098</ele>
        <time>2020-05-14T23:17:59Z</time>
      </trkpt>
      <trkpt lat="43.16858" lon="-1.67668">
        <ele>106.122</ele>
        <time>2020-05-14T23:18:19Z</time>
      </trkpt>
      <trkpt lat="43.16854" lon="-1.67668">
        <ele>106.11</ele>
        <time>2020-05-14T23:18:39Z</time>
      </trkpt>
      <trkpt lat="43.16844" lon="-1.67664">
        <ele>106.075</ele>
        <time>2020-05-14T23:18:59Z</time>
      </trkpt>
      <trkpt lat="43.16833" lon="-1.67661">
        <ele>106.165</ele>
        <time>2020-05-14T23:19:19Z</time>
      </trkpt>
      <trkpt lat="43.16825" lon="-1.67656">
        <ele>106.162</ele>
        <time>2020-05-14T23:19:39Z</time>
      </trkpt>
      <trkpt lat="43.16816" lon="-1.67652">
        <ele>106.214</ele>
        <time>2020-05-14T23:19:59Z</time>
      </trkpt>
      <trkpt lat="43.16811" lon="-1.67649">
        <ele>106.318</ele>
        <time>2020-05-14T23:20:19Z</time>
      </trkpt>
      <trkpt lat="43.16803" lon="-1.67644">
        <ele>106.498</ele>
        <time>2020-05-14T23:20:39Z</time>
      </trkpt>
      <trkpt lat="43.168" lon="-1.67641">
        <ele>106.417</ele>
        <time>2020-05-14T23:20:59Z</time>
      </trkpt>
      <trkpt lat="43.16796" lon="-1.67639">
        <ele>106.508</ele>
        <time>2020-05-14T23:21:19Z</time>
      </trkpt>
      <trkpt lat="43.16794" lon="-1.67637">
        <ele>106.095</ele>
        <time>2020-05-14T23:21:39Z</time>
      </trkpt>
      <trkpt lat="43.16793" lon="-1.67636">
        <ele>106.04</ele>
        <time>2020-05-14T23:21:59Z</time>
      </trkpt>
      <trkpt lat="43.16792" lon="-1.67636">
        <ele>106.034</ele>
        <time>2020-05-14T23:22:19Z</time>
      </trkpt>
      <trkpt lat="43.16791" lon="-1.67634">
        <ele>106.562</ele>
        <time>2020-05-14T23:22:39Z</time>
      </trkpt>
      <trkpt lat="43.16788" lon="-1.67631">
        <ele>106.627</ele>
        <time>2020-05-14T23:22:59Z</time>
      </trkpt>
      <trkpt lat="43.16786" lon="-1.67628">
        <ele>106.517</ele>
        <time>2020-05-14T23:23:19Z</time>
      </trkpt>
      <trkpt lat="43.16777" lon="-1.67614">
        <ele>106.714</ele>
        <time>2020-05-14T23:23:39Z</time>
      </trkpt>
      <trkpt lat="43.16767" lon="-1.67598">
        <ele>106.156</ele>
        <time>2020-05-14T23:23:59Z</time>
      </trkpt>
      <trkpt lat="43.16762" lon="-1.67588">
        <ele>106.741</ele>
        <time>2020-05-14T23:24:19Z</time>
      </trkpt>
      <trkpt lat="43.16758" lon="-1.67578">
        <ele>106.981</ele>
        <time>2020-05-14T23:24:39Z</time>
      </trkpt>
      <trkpt lat="43.1675" lon="-1.67559">
        <ele>107.109</ele>
        <time>2020-05-14T23:24:59Z</time>
      </trkpt>
      <trkpt lat="43.16739" lon="-1.67535">
        <ele>107.108</ele>
        <time>2020-05-14T23:25:19Z</time>
      </trkpt>
      <trkpt lat="43.16727" lon="-1.6751">
        <ele>108.758</ele>
        <time>2020-05-14T23:25:39Z</time>
      </trkpt>
      <trkpt lat="43.16721" lon="-1.67496">
        <ele>107.363</ele>
        <time>2020-05-14T23:25:59Z</time>
      </trkpt>
      <trkpt lat="43.16709" lon="-1.67468">
        <ele>107.437</ele>
        <time>2020-05-14T23:26:19Z</time>
      </trkpt>
      <trkpt lat="43.167" lon="-1.67447">
        <ele>107.475</ele>
        <time>2020-05-14T23:26:39Z</time>
      </trkpt>
      <trkpt lat="43.16684" lon="-1.6741">
        <ele>107.36</ele>
        <time>2020-05-14T23:26:59Z</time>
      </trkpt>
      <trkpt lat="43.16676" lon="-1.6739">
        <ele>107.36</ele>
        <time>2020-05-14T23:27:19Z</time>
      </trkpt>
      <trkpt lat="43.16671" lon="-1.67379">
        <ele>107.377</ele>
        <time>2020-05-14T23:27:39Z</time>
      </trkpt>
      <trkpt lat="43.16669" lon="-1.67376">
        <ele>107.359</ele>
        <time>2020-05-14T23:27:59Z</time>
      </trkpt>
      <trkpt lat="43.16668" lon="-1.67373">
        <ele>107.354</ele>
        <time>2020-05-14T23:28:19Z</time>
      </trkpt>
      <trkpt lat="43.1666" lon="-1.67357">
        <ele>107.356</ele>
        <time>2020-05-14T23:28:39Z</time>
      </trkpt>
      <trkpt lat="43.16652" lon="-1.67339">
        <ele>107.211</ele>
        <time>2020-05-14T23:28:59Z</time>
      </trkpt>
      <trkpt lat="43.16651" lon="-1.67338">
        <ele>107.308</ele>
        <time>2020-05-14T23:29:19Z</time>
      </trkpt>
      <trkpt lat="43.16644" lon="-1.67324">
        <ele>107.329</ele>
        <time>2020-05-14T23:29:39Z</time>
      </trkpt>
      <trkpt lat="43.16639" lon="-1.67314">
        <ele>107.394</ele>
        <time>2020-05-14T23:29:59Z</time>
      </trkpt>
      <trkpt lat="43.16637" lon="-1.6731">
        <ele>107.338</ele>
        <time>2020-05-14T23:30:19Z</time>
      </trkpt>
      <trkpt lat="43.1663" lon="-1.67299">
        <ele>107.366</ele>
        <time>2020-05-14T23:30:39Z</time>
      </trkpt>
      <trkpt lat="43.16624" lon="-1.67289">
        <ele>107.481</ele>
        <time>2020-05-14T23:30:59Z</time>
      </trkpt>
      <trkpt lat="43.16618" lon="-1.67279">
        <ele>107.551</ele>
        <time>2020-05-14T23:31:19Z</time>
      </trkpt>
      <trkpt lat="43.16612" lon="-1.6727">
        <ele>107.718</ele>
        <time>2020-05-14T23:31:39Z</time>
      </trkpt>
      <trkpt lat="43.16599" lon="-1.67253">
        <ele>107.97</ele>
        <time>2020-05-14T23:31:59Z</time>
      </trkpt>
      <trkpt lat="43.16591" lon="-1.67243">
        <ele>107.939</ele>
        <time>2020-05-14T23:32:19Z</time>
      </trkpt>
      <trkpt lat="43.16584" lon="-1.67235">
        <ele>107.901</ele>
        <time>2020-05-14T23:32:39Z</time>
      </trkpt>
      <trkpt lat="43.16571" lon="-1.67223">
        <ele>107.521</ele>
        <time>2020-05-14T23:32:59Z</time>
      </trkpt>
      <trkpt lat="43.1657" lon="-1.67222">
        <ele>107.508</ele>
        <time>2020-05-14T23:33:19Z</time>
      </trkpt>
      <trkpt lat="43.16569" lon="-1.67221">
        <ele>107.497</ele>
        <time>2020-05-14T23:33:39Z</time>
      </trkpt>
      <trkpt lat="43.16543" lon="-1.67208">
        <ele>107.772</ele>
        <time>2020-05-14T23:33:59Z</time>
      </trkpt>
      <trkpt lat="43.16535" lon="-1.67203">
        <ele>107.896</ele>
        <time>2020-05-14T23:34:19Z</time>
      </trkpt>
      <trkpt lat="43.16527" lon="-1.67199">
        <ele>108.734</ele>
        <time>2020-05-14T23:34:39Z</time>
      </trkpt>
      <trkpt lat="43.1652" lon="-1.67195">
        <ele>108.329</ele>
        <time>2020-05-14T23:34:59Z</time>
      </trkpt>
      <trkpt lat="43.16513" lon="-1.67192">
        <ele>109.799</ele>
        <time>2020-05-14T23:35:19Z</time>
      </trkpt>
      <trkpt lat="43.16503" lon="-1.67186">
        <ele>108.156</ele>
        <time>2020-05-14T23:35:39Z</time>
      </trkpt>
      <trkpt lat="43.16493" lon="-1.67181">
        <ele>108.018</ele>
        <time>2020-05-14T23:35:59Z</time>
      </trkpt>
      <trkpt lat="43.16486" lon="-1.67178">
        <ele>108.451</ele>
        <time>2020-05-14T23:36:19Z</time>
      </trkpt>
      <trkpt lat="43.16479" lon="-1.67174">
        <ele>111.401</ele>
        <time>2020-05-14T23:36:39Z</time>
      </trkpt>
      <trkpt lat="43.16462" lon="-1.67166">
        <ele>117.911</ele>
        <time>2020-05-14T23:36:59Z</time>
      </trkpt>
      <trkpt lat="43.16451" lon="-1.6716">
        <ele>119.108</ele>
        <time>2020-05-14T23:37:19Z</time>
      </trkpt>
      <trkpt lat="43.16403" lon="-1.67134">
        <ele>116.239</ele>
        <time>2020-05-14T23:37:39Z</time>
      </trkpt>
      <trkpt lat="43.1635" lon="-1.67106">
        <ele>108.964</ele>
        <time>2020-05-14T23:37:59Z</time>
      </trkpt>
      <trkpt lat="43.16341" lon="-1.67102">
        <ele>108.998</ele>
        <time>2020-05-14T23:38:19Z</time>
      </trkpt>
      <trkpt lat="43.16332" lon="-1.67097">
        <ele>109.616</ele>
        <time>2020-05-14T23:38:39Z</time>
      </trkpt>
      <trkpt lat="43.163" lon="-1.67089">
        <ele>108.911</ele>
        <time>2020-05-14T23:38:59Z</time>
      </trkpt>
      <trkpt lat="43.16285" lon="-1.67088">
        <ele>109.021</ele>
        <time>2020-05-14T23:39:19Z</time>
      </trkpt>
      <trkpt lat="43.16272" lon="-1.67091">
        <ele>108.748</ele>
        <time>2020-05-14T23:39:39Z</time>
      </trkpt>
      <trkpt lat="43.1626" lon="-1.67094">
        <ele>108.61</ele>
        <time>2020-05-14T23:39:59Z</time>
      </trkpt>
      <trkpt lat="43.16248" lon="-1.67098">
        <ele>108.751</ele>
        <time>2020-05-14T23:40:19Z</time>
      </trkpt>
      <trkpt lat="43.16237" lon="-1.67101">
        <ele>108.601</ele>
        <time>2020-05-14T23:40:39Z</time>
      </trkpt>
      <trkpt lat="43.16157" lon="-1.67128">
        <ele>108.711</ele>
        <time>2020-05-14T23:40:59Z</time>
      </trkpt>
      <trkpt lat="43.16103" lon="-1.67147">
        <ele>108.808</ele>
        <time>2020-05-14T23:41:19Z</time>
      </trkpt>
      <trkpt lat="43.16057" lon="-1.67162">
        <ele>108.969</ele>
        <time>2020-05-14T23:41:39Z</time>
      </trkpt>
      <trkpt lat="43.16045" lon="-1.67166">
        <ele>109.084</ele>
        <time>2020-05-14T23:41:59Z</time>
      </trkpt>
      <trkpt lat="43.15997" lon="-1.67184">
        <ele>108.928</ele>
        <time>2020-05-14T23:42:19Z</time>
      </trkpt>
      <trkpt lat="43.15984" lon="-1.67188">
        <ele>108.896</ele>
        <time>2020-05-14T23:42:39Z</time>
      </trkpt>
      <trkpt lat="43.1598" lon="-1.67189">
        <ele>108.891</ele>
        <time>2020-05-14T23:42:59Z</time>
      </trkpt>
      <trkpt lat="43.15975" lon="-1.67189">
        <ele>108.881</ele>
        <time>2020-05-14T23:43:19Z</time>
      </trkpt>
      <trkpt lat="43.15964" lon="-1.67189">
        <ele>108.728</ele>
        <time>2020-05-14T23:43:39Z</time>
      </trkpt>
      <trkpt lat="43.15934" lon="-1.67188">
        <ele>108.58</ele>
        <time>2020-05-14T23:43:59Z</time>
      </trkpt>
      <trkpt lat="43.15922" lon="-1.67187">
        <ele>108.367</ele>
        <time>2020-05-14T23:44:19Z</time>
      </trkpt>
      <trkpt lat="43.1591" lon="-1.67187">
        <ele>108.681</ele>
        <time>2020-05-14T23:44:39Z</time>
      </trkpt>
      <trkpt lat="43.15869" lon="-1.67184">
        <ele>108.919</ele>
        <time>2020-05-14T23:44:59Z</time>
      </trkpt>
      <trkpt lat="43.15838" lon="-1.67182">
        <ele>108.908</ele>
        <time>2020-05-14T23:45:19Z</time>
      </trkpt>
      <trkpt lat="43.15791" lon="-1.67178">
        <ele>108.94</ele>
        <time>2020-05-14T23:45:39Z</time>
      </trkpt>
      <trkpt lat="43.15777" lon="-1.67177">
        <ele>108.995</ele>
        <time>2020-05-14T23:45:59Z</time>
      </trkpt>
      <trkpt lat="43.15764" lon="-1.67176">
        <ele>108.939</ele>
        <time>2020-05-14T23:46:19Z</time>
      </trkpt>
      <trkpt lat="43.15753" lon="-1.67174">
        <ele>108.957</ele>
        <time>2020-05-14T23:46:39Z</time>
      </trkpt>
      <trkpt lat="43.15741" lon="-1.67173">
        <ele>108.982</ele>
        <time>2020-05-14T23:46:59Z</time>
      </trkpt>
      <trkpt lat="43.15727" lon="-1.67169">
        <ele>108.942</ele>
        <time>2020-05-14T23:47:19Z</time>
      </trkpt>
      <trkpt lat="43.157" lon="-1.67162">
        <ele>108.829</ele>
        <time>2020-05-14T23:47:39Z</time>
      </trkpt>
      <trkpt lat="43.15686" lon="-1.67158">
        <ele>108.871</ele>
        <time>2020-05-14T23:47:59Z</time>
      </trkpt>
      <trkpt lat="43.15662" lon="-1.67152">
        <ele>108.891</ele>
        <time>2020-05-14T23:48:19Z</time>
      </trkpt>
      <trkpt lat="43.15641" lon="-1.67148">
        <ele>108.881</ele>
        <time>2020-05-14T23:48:39Z</time>
      </trkpt>
      <trkpt lat="43.15623" lon="-1.67143">
        <ele>108.619</ele>
        <time>2020-05-14T23:48:59Z</time>
      </trkpt>
      <trkpt lat="43.15619" lon="-1.67143">
        <ele>108.708</ele>
        <time>2020-05-14T23:49:19Z</time>
      </trkpt>
      <trkpt lat="43.15612" lon="-1.67141">
        <ele>108.793</ele>
        <time>2020-05-14T23:49:39Z</time>
      </trkpt>
      <trkpt lat="43.15597" lon="-1.67137">
        <ele>108.668</ele>
        <time>2020-05-14T23:49:59Z</time>
      </trkpt>
      <trkpt lat="43.15582" lon="-1.67132">
        <ele>108.752</ele>
        <time>2020-05-14T23:50:19Z</time>
      </trkpt>
      <trkpt lat="43.15577" lon="-1.6713">
        <ele>108.74</ele>
        <time>2020-05-14T23:50:39Z</time>
      </trkpt>
      <trkpt lat="43.15573" lon="-1.67128">
        <ele>108.755</ele>
        <time>2020-05-14T23:50:59Z</time>
      </trkpt>
      <trkpt lat="43.15561" lon="-1.67122">
        <ele>108.755</ele>
        <time>2020-05-14T23:51:19Z</time>
      </trkpt>
      <trkpt lat="43.1555" lon="-1.67115">
        <ele>108.712</ele>
        <time>2020-05-14T23:51:39Z</time>
      </trkpt>
      <trkpt lat="43.15527" lon="-1.67103">
        <ele>108.574</ele>
        <time>2020-05-14T23:51:59Z</time>
      </trkpt>
      <trkpt lat="43.15518" lon="-1.67098">
        <ele>108.531</ele>
        <time>2020-05-14T23:52:19Z</time>
      </trkpt>
      <trkpt lat="43.15507" lon="-1.67091">
        <ele>108.661</ele>
        <time>2020-05-14T23:52:39Z</time>
      </trkpt>
      <trkpt lat="43.155" lon="-1.67088">
        <ele>108.707</ele>
        <time>2020-05-14T23:52:59Z</time>
      </trkpt>
      <trkpt lat="43.15497" lon="-1.67086">
        <ele>108.708</ele>
        <time>2020-05-14T23:53:19Z</time>
      </trkpt>
      <trkpt lat="43.15492" lon="-1.67083">
        <ele>108.737</ele>
        <time>2020-05-14T23:53:39Z</time>
      </trkpt>
      <trkpt lat="43.15489" lon="-1.67081">
        <ele>108.792</ele>
        <time>2020-05-14T23:53:59Z</time>
      </trkpt>
      <trkpt lat="43.15488" lon="-1.67081">
        <ele>108.796</ele>
        <time>2020-05-14T23:54:19Z</time>
      </trkpt>
      <trkpt lat="43.15469" lon="-1.6707">
        <ele>108.894</ele>
        <time>2020-05-14T23:54:39Z</time>
      </trkpt>
      <trkpt lat="43.15454" lon="-1.67061">
        <ele>108.839</ele>
        <time>2020-05-14T23:54:59Z</time>
      </trkpt>
      <trkpt lat="43.15441" lon="-1.67054">
        <ele>108.849</ele>
        <time>2020-05-14T23:55:19Z</time>
      </trkpt>
      <trkpt lat="43.1543" lon="-1.67048">
        <ele>108.736</ele>
        <time>2020-05-14T23:55:39Z</time>
      </trkpt>
      <trkpt lat="43.15424" lon="-1.67044">
        <ele>108.988</ele>
        <time>2020-05-14T23:55:59Z</time>
      </trkpt>
      <trkpt lat="43.15418" lon="-1.67041">
        <ele>108.955</ele>
        <time>2020-05-14T23:56:19Z</time>
      </trkpt>
      <trkpt lat="43.15394" lon="-1.67027">
        <ele>109.107</ele>
        <time>2020-05-14T23:56:39Z</time>
      </trkpt>
      <trkpt lat="43.15383" lon="-1.67021">
        <ele>109.117</ele>
        <time>2020-05-14T23:56:59Z</time>
      </trkpt>
      <trkpt lat="43.15331" lon="-1.66991">
        <ele>109.308</ele>
        <time>2020-05-14T23:57:19Z</time>
      </trkpt>
      <trkpt lat="43.1528" lon="-1.66961">
        <ele>109.759</ele>
        <time>2020-05-14T23:57:39Z</time>
      </trkpt>
      <trkpt lat="43.15249" lon="-1.66943">
        <ele>110.064</ele>
        <time>2020-05-14T23:57:59Z</time>
      </trkpt>
      <trkpt lat="43.1523" lon="-1.66934">
        <ele>110.068</ele>
        <time>2020-05-14T23:58:19Z</time>
      </trkpt>
      <trkpt lat="43.15212" lon="-1.66927">
        <ele>110.216</ele>
        <time>2020-05-14T23:58:39Z</time>
      </trkpt>
      <trkpt lat="43.15202" lon="-1.66923">
        <ele>110.341</ele>
        <time>2020-05-14T23:58:59Z</time>
      </trkpt>
      <trkpt lat="43.15191" lon="-1.6692">
        <ele>110.271</ele>
        <time>2020-05-14T23:59:19Z</time>
      </trkpt>
      <trkpt lat="43.15143" lon="-1.66904">
        <ele>110.848</ele>
        <time>2020-05-14T23:59:39Z</time>
      </trkpt>
      <trkpt lat="43.15112" lon="-1.66892">
        <ele>111.03</ele>
        <time>2020-05-14T23:59:59Z</time>
      </trkpt>
      <trkpt lat="43.151" lon="-1.66889">
        <ele>111.223</ele>
        <time>2020-05-15T00:00:19Z</time>
      </trkpt>
      <trkpt lat="43.15088" lon="-1.66886">
        <ele>111.483</ele>
        <time>2020-05-15T00:00:39Z</time>
      </trkpt>
      <trkpt lat="43.15066" lon="-1.66883">
        <ele>111.611</ele>
        <time>2020-05-15T00:00:59Z</time>
      </trkpt>
      <trkpt lat="43.15046" lon="-1.66883">
        <ele>109.508</ele>
        <time>2020-05-15T00:01:19Z</time>
      </trkpt>
      <trkpt lat="43.15027" lon="-1.66885">
        <ele>108.886</ele>
        <time>2020-05-15T00:01:39Z</time>
      </trkpt>
      <trkpt lat="43.15005" lon="-1.66896">
        <ele>112.011</ele>
        <time>2020-05-15T00:01:59Z</time>
      </trkpt>
      <trkpt lat="43.14991" lon="-1.66904">
        <ele>112.075</ele>
        <time>2020-05-15T00:02:19Z</time>
      </trkpt>
      <trkpt lat="43.14978" lon="-1.66913">
        <ele>112.843</ele>
        <time>2020-05-15T00:02:39Z</time>
      </trkpt>
      <trkpt lat="43.14973" lon="-1.66915">
        <ele>112.278</ele>
        <time>2020-05-15T00:02:59Z</time>
      </trkpt>
      <trkpt lat="43.14962" lon="-1.66919">
        <ele>112.478</ele>
        <time>2020-05-15T00:03:19Z</time>
      </trkpt>
      <trkpt lat="43.14946" lon="-1.66923">
        <ele>112.685</ele>
        <time>2020-05-15T00:03:39Z</time>
      </trkpt>
      <trkpt lat="43.14939" lon="-1.66925">
        <ele>112.697</ele>
        <time>2020-05-15T00:03:59Z</time>
      </trkpt>
      <trkpt lat="43.14932" lon="-1.66926">
        <ele>112.669</ele>
        <time>2020-05-15T00:04:19Z</time>
      </trkpt>
      <trkpt lat="43.14919" lon="-1.66927">
        <ele>112.604</ele>
        <time>2020-05-15T00:04:39Z</time>
      </trkpt>
      <trkpt lat="43.14914" lon="-1.66927">
        <ele>112.624</ele>
        <time>2020-05-15T00:04:59Z</time>
      </trkpt>
      <trkpt lat="43.14908" lon="-1.66926">
        <ele>112.608</ele>
        <time>2020-05-15T00:05:19Z</time>
      </trkpt>
      <trkpt lat="43.14895" lon="-1.66923">
        <ele>112.75</ele>
        <time>2020-05-15T00:05:39Z</time>
      </trkpt>
      <trkpt lat="43.14866" lon="-1.66913">
        <ele>113.155</ele>
        <time>2020-05-15T00:05:59Z</time>
      </trkpt>
      <trkpt lat="43.14858" lon="-1.66909">
        <ele>113.149</ele>
        <time>2020-05-15T00:06:19Z</time>
      </trkpt>
      <trkpt lat="43.14849" lon="-1.66906">
        <ele>113.297</ele>
        <time>2020-05-15T00:06:39Z</time>
      </trkpt>
      <trkpt lat="43.1481" lon="-1.6689">
        <ele>113.692</ele>
        <time>2020-05-15T00:06:59Z</time>
      </trkpt>
      <trkpt lat="43.14779" lon="-1.66881">
        <ele>113.982</ele>
        <time>2020-05-15T00:07:19Z</time>
      </trkpt>
      <trkpt lat="43.14764" lon="-1.66878">
        <ele>113.969</ele>
        <time>2020-05-15T00:07:39Z</time>
      </trkpt>
      <trkpt lat="43.1475" lon="-1.66876">
        <ele>113.931</ele>
        <time>2020-05-15T00:07:59Z</time>
      </trkpt>
      <trkpt lat="43.14745" lon="-1.66876">
        <ele>113.922</ele>
        <time>2020-05-15T00:08:19Z</time>
      </trkpt>
      <trkpt lat="43.1474" lon="-1.66876">
        <ele>113.962</ele>
        <time>2020-05-15T00:08:39Z</time>
      </trkpt>
      <trkpt lat="43.14728" lon="-1.66878">
        <ele>114.108</ele>
        <time>2020-05-15T00:08:59Z</time>
      </trkpt>
      <trkpt lat="43.14684" lon="-1.66886">
        <ele>114.408</ele>
        <time>2020-05-15T00:09:19Z</time>
      </trkpt>
      <trkpt lat="43.14672" lon="-1.66889">
        <ele>114.596</ele>
        <time>2020-05-15T00:09:39Z</time>
      </trkpt>
      <trkpt lat="43.14659" lon="-1.66893">
        <ele>114.791</ele>
        <time>2020-05-15T00:09:59Z</time>
      </trkpt>
      <trkpt lat="43.14654" lon="-1.66893">
        <ele>114.835</ele>
        <time>2020-05-15T00:10:19Z</time>
      </trkpt>
      <trkpt lat="43.14648" lon="-1.66893">
        <ele>114.843</ele>
        <time>2020-05-15T00:10:39Z</time>
      </trkpt>
      <trkpt lat="43.14636" lon="-1.66894">
        <ele>114.858</ele>
        <time>2020-05-15T00:10:59Z</time>
      </trkpt>
      <trkpt lat="43.14625" lon="-1.66895">
        <ele>115.538</ele>
        <time>2020-05-15T00:11:19Z</time>
      </trkpt>
      <trkpt lat="43.14623" lon="-1.66895">
        <ele>115.555</ele>
        <time>2020-05-15T00:11:39Z</time>
      </trkpt>
      <trkpt lat="43.14621" lon="-1.66896">
        <ele>115.537</ele>
        <time>2020-05-15T00:11:59Z</time>
      </trkpt>
      <trkpt lat="43.14616" lon="-1.66895">
        <ele>116.642</ele>
        <time>2020-05-15T00:12:19Z</time>
      </trkpt>
      <trkpt lat="43.14612" lon="-1.66895">
        <ele>116.422</ele>
        <time>2020-05-15T00:12:39Z</time>
      </trkpt>
      <trkpt lat="43.14607" lon="-1.66895">
        <ele>115.414</ele>
        <time>2020-05-15T00:12:59Z</time>
      </trkpt>
      <trkpt lat="43.14602" lon="-1.66894">
        <ele>115.508</ele>
        <time>2020-05-15T00:13:19Z</time>
      </trkpt>
      <trkpt lat="43.14598" lon="-1.66893">
        <ele>115.668</ele>
        <time>2020-05-15T00:13:39Z</time>
      </trkpt>
      <trkpt lat="43.14593" lon="-1.66891">
        <ele>115.563</ele>
        <time>2020-05-15T00:13:59Z</time>
      </trkpt>
      <trkpt lat="43.14587" lon="-1.66889">
        <ele>115.737</ele>
        <time>2020-05-15T00:14:19Z</time>
      </trkpt>
      <trkpt lat="43.14587" lon="-1.66889">
        <ele>115.755</ele>
        <time>2020-05-15T00:14:39Z</time>
      </trkpt>
      <trkpt lat="43.14585" lon="-1.66889">
        <ele>115.76</ele>
        <time>2020-05-15T00:14:59Z</time>
      </trkpt>
      <trkpt lat="43.14583" lon="-1.66889">
        <ele>116.26</ele>
        <time>2020-05-15T00:15:19Z</time>
      </trkpt>
      <trkpt lat="43.14581" lon="-1.66889">
        <ele>116.297</ele>
        <time>2020-05-15T00:15:39Z</time>
      </trkpt>
      <trkpt lat="43.14579" lon="-1.6689">
        <ele>115.589</ele>
        <time>2020-05-15T00:15:59Z</time>
      </trkpt>
      <trkpt lat="43.14575" lon="-1.6689">
        <ele>115.573</ele>
        <time>2020-05-15T00:16:19Z</time>
      </trkpt>
      <trkpt lat="43.14572" lon="-1.6689">
        <ele>115.985</ele>
        <time>2020-05-15T00:16:39Z</time>
      </trkpt>
      <trkpt lat="43.14567" lon="-1.66889">
        <ele>115.813</ele>
        <time>2020-05-15T00:16:59Z</time>
      </trkpt>
      <trkpt lat="43.14562" lon="-1.66889">
        <ele>115.608</ele>
        <time>2020-05-15T00:17:19Z</time>
      </trkpt>
      <trkpt lat="43.14558" lon="-1.66888">
        <ele>115.651</ele>
        <time>2020-05-15T00:17:39Z</time>
      </trkpt>
      <trkpt lat="43.14554" lon="-1.66887">
        <ele>115.676</ele>
        <time>2020-05-15T00:17:59Z</time>
      </trkpt>
      <trkpt lat="43.14544" lon="-1.66886">
        <ele>115.61</ele>
        <time>2020-05-15T00:18:19Z</time>
      </trkpt>
      <trkpt lat="43.14539" lon="-1.66886">
        <ele>115.658</ele>
        <time>2020-05-15T00:18:39Z</time>
      </trkpt>
      <trkpt lat="43.14533" lon="-1.66885">
        <ele>115.663</ele>
        <time>2020-05-15T00:18:59Z</time>
      </trkpt>
      <trkpt lat="43.14529" lon="-1.66885">
        <ele>115.743</ele>
        <time>2020-05-15T00:19:19Z</time>
      </trkpt>
      <trkpt lat="43.14524" lon="-1.66885">
        <ele>115.88</ele>
        <time>2020-05-15T00:19:39Z</time>
      </trkpt>
      <trkpt lat="43.14513" lon="-1.66884">
        <ele>115.842</ele>
        <time>2020-05-15T00:19:59Z</time>
      </trkpt>
      <trkpt lat="43.14504" lon="-1.66885">
        <ele>115.937</ele>
        <time>2020-05-15T00:20:19Z</time>
      </trkpt>
      <trkpt lat="43.14493" lon="-1.66884">
        <ele>115.949</ele>
        <time>2020-05-15T00:20:39Z</time>
      </trkpt>
      <trkpt lat="43.14482" lon="-1.66884">
        <ele>115.913</ele>
        <time>2020-05-15T00:20:59Z</time>
      </trkpt>
      <trkpt lat="43.14467" lon="-1.66886">
        <ele>115.908</ele>
        <time>2020-05-15T00:21:19Z</time>
      </trkpt>
      <trkpt lat="43.14455" lon="-1.66885">
        <ele>115.917</ele>
        <time>2020-05-15T00:21:39Z</time>
      </trkpt>
      <trkpt lat="43.14435" lon="-1.66886">
        <ele>116.022</ele>
        <time>2020-05-15T00:21:59Z</time>
      </trkpt>
      <trkpt lat="43.1443" lon="-1.66886">
        <ele>116.056</ele>
        <time>2020-05-15T00:22:19Z</time>
      </trkpt>
      <trkpt lat="43.14426" lon="-1.66886">
        <ele>116.054</ele>
        <time>2020-05-15T00:22:39Z</time>
      </trkpt>
      <trkpt lat="43.14421" lon="-1.66886">
        <ele>116.089</ele>
        <time>2020-05-15T00:22:59Z</time>
      </trkpt>
      <trkpt lat="43.14417" lon="-1.66885">
        <ele>116.089</ele>
        <time>2020-05-15T00:23:19Z</time>
      </trkpt>
      <trkpt lat="43.14408" lon="-1.66884">
        <ele>115.926</ele>
        <time>2020-05-15T00:23:39Z</time>
      </trkpt>
      <trkpt lat="43.14404" lon="-1.66883">
        <ele>115.918</ele>
        <time>2020-05-15T00:23:59Z</time>
      </trkpt>
      <trkpt lat="43.144" lon="-1.66881">
        <ele>115.931</ele>
        <time>2020-05-15T00:24:19Z</time>
      </trkpt>
      <trkpt lat="43.14389" lon="-1.66877">
        <ele>115.861</ele>
        <time>2020-05-15T00:24:39Z</time>
      </trkpt>
      <trkpt lat="43.14379" lon="-1.66871">
        <ele>115.707</ele>
        <time>2020-05-15T00:24:59Z</time>
      </trkpt>
      <trkpt lat="43.14374" lon="-1.66868">
        <ele>115.708</ele>
        <time>2020-05-15T00:25:19Z</time>
      </trkpt>
      <trkpt lat="43.14368" lon="-1.66864">
        <ele>115.717</ele>
        <time>2020-05-15T00:25:39Z</time>
      </trkpt>
      <trkpt lat="43.14357" lon="-1.66854">
        <ele>115.682</ele>
        <time>2020-05-15T00:25:59Z</time>
      </trkpt>
      <trkpt lat="43.14346" lon="-1.66841">
        <ele>115.776</ele>
        <time>2020-05-15T00:26:19Z</time>
      </trkpt>
      <trkpt lat="43.14334" lon="-1.66829">
        <ele>115.884</ele>
        <time>2020-05-15T00:26:39Z</time>
      </trkpt>
      <trkpt lat="43.14329" lon="-1.66823">
        <ele>115.919</ele>
        <time>2020-05-15T00:26:59Z</time>
      </trkpt>
      <trkpt lat="43.14324" lon="-1.66818">
        <ele>115.999</ele>
        <time>2020-05-15T00:27:19Z</time>
      </trkpt>
      <trkpt lat="43.14315" lon="-1.66808">
        <ele>115.926</ele>
        <time>2020-05-15T00:27:39Z</time>
      </trkpt>
      <trkpt lat="43.14306" lon="-1.66797">
        <ele>116.188</ele>
        <time>2020-05-15T00:27:59Z</time>
      </trkpt>
      <trkpt lat="43.14306" lon="-1.66797">
        <ele>116.191</ele>
        <time>2020-05-15T00:28:19Z</time>
      </trkpt>
      <trkpt lat="43.14306" lon="-1.66797">
        <ele>116.181</ele>
        <time>2020-05-15T00:28:39Z</time>
      </trkpt>
      <trkpt lat="43.14281" lon="-1.66771">
        <ele>133.519</ele>
        <time>2020-05-15T00:28:59Z</time>
      </trkpt>
      <trkpt lat="43.14257" lon="-1.66744">
        <ele>116.408</ele>
        <time>2020-05-15T00:29:19Z</time>
      </trkpt>
      <trkpt lat="43.14257" lon="-1.66744">
        <ele>116.473</ele>
        <time>2020-05-15T00:29:39Z</time>
      </trkpt>
      <trkpt lat="43.14257" lon="-1.66744">
        <ele>116.448</ele>
        <time>2020-05-15T00:29:59Z</time>
      </trkpt>
      <trkpt lat="43.1425" lon="-1.66739">
        <ele>116.692</ele>
        <time>2020-05-15T00:30:19Z</time>
      </trkpt>
      <trkpt lat="43.14244" lon="-1.66735">
        <ele>116.67</ele>
        <time>2020-05-15T00:30:39Z</time>
      </trkpt>
      <trkpt lat="43.14237" lon="-1.6673">
        <ele>116.775</ele>
        <time>2020-05-15T00:30:59Z</time>
      </trkpt>
      <trkpt lat="43.14231" lon="-1.66726">
        <ele>116.775</ele>
        <time>2020-05-15T00:31:19Z</time>
      </trkpt>
      <trkpt lat="43.14208" lon="-1.66715">
        <ele>116.752</ele>
        <time>2020-05-15T00:31:39Z</time>
      </trkpt>
      <trkpt lat="43.14185" lon="-1.66704">
        <ele>116.844</ele>
        <time>2020-05-15T00:31:59Z</time>
      </trkpt>
      <trkpt lat="43.14169" lon="-1.66696">
        <ele>116.991</ele>
        <time>2020-05-15T00:32:19Z</time>
      </trkpt>
      <trkpt lat="43.14152" lon="-1.66688">
        <ele>117.181</ele>
        <time>2020-05-15T00:32:39Z</time>
      </trkpt>
      <trkpt lat="43.14145" lon="-1.66686">
        <ele>117.219</ele>
        <time>2020-05-15T00:32:59Z</time>
      </trkpt>
      <trkpt lat="43.14139" lon="-1.66683">
        <ele>117.308</ele>
        <time>2020-05-15T00:33:19Z</time>
      </trkpt>
      <trkpt lat="43.14134" lon="-1.66682">
        <ele>117.223</ele>
        <time>2020-05-15T00:33:39Z</time>
      </trkpt>
      <trkpt lat="43.14129" lon="-1.66681">
        <ele>117.348</ele>
        <time>2020-05-15T00:33:59Z</time>
      </trkpt>
      <trkpt lat="43.14124" lon="-1.6668">
        <ele>117.342</ele>
        <time>2020-05-15T00:34:19Z</time>
      </trkpt>
      <trkpt lat="43.14119" lon="-1.66679">
        <ele>117.39</ele>
        <time>2020-05-15T00:34:39Z</time>
      </trkpt>
      <trkpt lat="43.14086" lon="-1.66676">
        <ele>117.885</ele>
        <time>2020-05-15T00:34:59Z</time>
      </trkpt>
      <trkpt lat="43.14073" lon="-1.66675">
        <ele>117.745</ele>
        <time>2020-05-15T00:35:19Z</time>
      </trkpt>
      <trkpt lat="43.14059" lon="-1.66674">
        <ele>117.622</ele>
        <time>2020-05-15T00:35:39Z</time>
      </trkpt>
      <trkpt lat="43.14053" lon="-1.66674">
        <ele>117.744</ele>
        <time>2020-05-15T00:35:59Z</time>
      </trkpt>
      <trkpt lat="43.14046" lon="-1.66674">
        <ele>117.863</ele>
        <time>2020-05-15T00:36:19Z</time>
      </trkpt>
      <trkpt lat="43.14017" lon="-1.66669">
        <ele>119.244</ele>
        <time>2020-05-15T00:36:39Z</time>
      </trkpt>
      <trkpt lat="43.14006" lon="-1.66666">
        <ele>117.718</ele>
        <time>2020-05-15T00:36:59Z</time>
      </trkpt>
      <trkpt lat="43.13994" lon="-1.66661">
        <ele>117.808</ele>
        <time>2020-05-15T00:37:19Z</time>
      </trkpt>
      <trkpt lat="43.13989" lon="-1.66658">
        <ele>117.81</ele>
        <time>2020-05-15T00:37:39Z</time>
      </trkpt>
      <trkpt lat="43.13984" lon="-1.66655">
        <ele>117.875</ele>
        <time>2020-05-15T00:37:59Z</time>
      </trkpt>
      <trkpt lat="43.13954" lon="-1.66635">
        <ele>117.959</ele>
        <time>2020-05-15T00:38:19Z</time>
      </trkpt>
      <trkpt lat="43.13923" lon="-1.66614">
        <ele>117.867</ele>
        <time>2020-05-15T00:38:39Z</time>
      </trkpt>
      <trkpt lat="43.13909" lon="-1.66604">
        <ele>118.312</ele>
        <time>2020-05-15T00:38:59Z</time>
      </trkpt>
      <trkpt lat="43.13892" lon="-1.66592">
        <ele>118.442</ele>
        <time>2020-05-15T00:39:19Z</time>
      </trkpt>
      <trkpt lat="43.13872" lon="-1.66584">
        <ele>118.449</ele>
        <time>2020-05-15T00:39:39Z</time>
      </trkpt>
      <trkpt lat="43.13858" lon="-1.6658">
        <ele>118.451</ele>
        <time>2020-05-15T00:39:59Z</time>
      </trkpt>
      <trkpt lat="43.1385" lon="-1.66579">
        <ele>118.565</ele>
        <time>2020-05-15T00:40:19Z</time>
      </trkpt>
      <trkpt lat="43.13843" lon="-1.66578">
        <ele>118.568</ele>
        <time>2020-05-15T00:40:39Z</time>
      </trkpt>
      <trkpt lat="43.13829" lon="-1.66576">
        <ele>118.514</ele>
        <time>2020-05-15T00:40:59Z</time>
      </trkpt>
      <trkpt lat="43.13815" lon="-1.66575">
        <ele>118.508</ele>
        <time>2020-05-15T00:41:19Z</time>
      </trkpt>
      <trkpt lat="43.13804" lon="-1.66575">
        <ele>118.95</ele>
        <time>2020-05-15T00:41:39Z</time>
      </trkpt>
      <trkpt lat="43.13788" lon="-1.66573">
        <ele>118.835</ele>
        <time>2020-05-15T00:41:59Z</time>
      </trkpt>
      <trkpt lat="43.13771" lon="-1.66572">
        <ele>118.999</ele>
        <time>2020-05-15T00:42:19Z</time>
      </trkpt>
      <trkpt lat="43.13754" lon="-1.66571">
        <ele>119.677</ele>
        <time>2020-05-15T00:42:39Z</time>
      </trkpt>
      <trkpt lat="43.13736" lon="-1.6657">
        <ele>123.212</ele>
        <time>2020-05-15T00:42:59Z</time>
      </trkpt>
      <trkpt lat="43.13729" lon="-1.66569">
        <ele>119.332</ele>
        <time>2020-05-15T00:43:19Z</time>
      </trkpt>
      <trkpt lat="43.13722" lon="-1.66569">
        <ele>119.479</ele>
        <time>2020-05-15T00:43:39Z</time>
      </trkpt>
      <trkpt lat="43.13684" lon="-1.66566">
        <ele>119.661</ele>
        <time>2020-05-15T00:43:59Z</time>
      </trkpt>
      <trkpt lat="43.13645" lon="-1.66563">
        <ele>119.831</ele>
        <time>2020-05-15T00:44:19Z</time>
      </trkpt>
      <trkpt lat="43.13635" lon="-1.66563">
        <ele>119.961</ele>
        <time>2020-05-15T00:44:39Z</time>
      </trkpt>
      <trkpt lat="43.13611" lon="-1.66564">
        <ele>120.007</ele>
        <time>2020-05-15T00:44:59Z</time>
      </trkpt>
      <trkpt lat="43.13595" lon="-1.66567">
        <ele>119.908</ele>
        <time>2020-05-15T00:45:19Z</time>
      </trkpt>
      <trkpt lat="43.13579" lon="-1.6657">
        <ele>120.057</ele>
        <time>2020-05-15T00:45:39Z</time>
      </trkpt>
      <trkpt lat="43.13576" lon="-1.66571">
        <ele>120.012</ele>
        <time>2020-05-15T00:45:59Z</time>
      </trkpt>
      <trkpt lat="43.13573" lon="-1.66572">
        <ele>119.886</ele>
        <time>2020-05-15T00:46:19Z</time>
      </trkpt>
      <trkpt lat="43.13565" lon="-1.66576">
        <ele>119.794</ele>
        <time>2020-05-15T00:46:39Z</time>
      </trkpt>
      <trkpt lat="43.13558" lon="-1.66581">
        <ele>119.629</ele>
        <time>2020-05-15T00:46:59Z</time>
      </trkpt>
      <trkpt lat="43.13549" lon="-1.66587">
        <ele>119.559</ele>
        <time>2020-05-15T00:47:19Z</time>
      </trkpt>
      <trkpt lat="43.13541" lon="-1.66594">
        <ele>119.416</ele>
        <time>2020-05-15T00:47:39Z</time>
      </trkpt>
      <trkpt lat="43.1354" lon="-1.66593">
        <ele>119.388</ele>
        <time>2020-05-15T00:47:59Z</time>
      </trkpt>
      <trkpt lat="43.13539" lon="-1.66593">
        <ele>119.315</ele>
        <time>2020-05-15T00:48:19Z</time>
      </trkpt>
      <trkpt lat="43.13536" lon="-1.66591">
        <ele>118.665</ele>
        <time>2020-05-15T00:48:39Z</time>
      </trkpt>
      <trkpt lat="43.13529" lon="-1.66587">
        <ele>114.511</ele>
        <time>2020-05-15T00:48:59Z</time>
      </trkpt>
      <trkpt lat="43.13517" lon="-1.66582">
        <ele>115.108</ele>
        <time>2020-05-15T00:49:19Z</time>
      </trkpt>
      <trkpt lat="43.1351" lon="-1.6658">
        <ele>117.065</ele>
        <time>2020-05-15T00:49:39Z</time>
      </trkpt>
      <trkpt lat="43.13506" lon="-1.66579">
        <ele>119.45</ele>
        <time>2020-05-15T00:49:59Z</time>
      </trkpt>
      <trkpt lat="43.135" lon="-1.6658">
        <ele>119.414</ele>
        <time>2020-05-15T00:50:19Z</time>
      </trkpt>
      <trkpt lat="43.1349" lon="-1.66582">
        <ele>119.812</ele>
        <time>2020-05-15T00:50:39Z</time>
      </trkpt>
      <trkpt lat="43.13483" lon="-1.66584">
        <ele>119.697</ele>
        <time>2020-05-15T00:50:59Z</time>
      </trkpt>
      <trkpt lat="43.13479" lon="-1.66602">
        <ele>118.957</ele>
        <time>2020-05-15T00:51:19Z</time>
      </trkpt>
      <trkpt lat="43.13467" lon="-1.66608">
        <ele>118.814</ele>
        <time>2020-05-15T00:51:39Z</time>
      </trkpt>
      <trkpt lat="43.13444" lon="-1.6662">
        <ele>118.716</ele>
        <time>2020-05-15T00:51:59Z</time>
      </trkpt>
      <trkpt lat="43.13404" lon="-1.6664">
        <ele>118.791</ele>
        <time>2020-05-15T00:52:19Z</time>
      </trkpt>
      <trkpt lat="43.13378" lon="-1.66654">
        <ele>118.981</ele>
        <time>2020-05-15T00:52:39Z</time>
      </trkpt>
      <trkpt lat="43.13352" lon="-1.66671">
        <ele>119.119</ele>
        <time>2020-05-15T00:52:59Z</time>
      </trkpt>
      <trkpt lat="43.13338" lon="-1.66677">
        <ele>119.008</ele>
        <time>2020-05-15T00:53:19Z</time>
      </trkpt>
      <trkpt lat="43.13324" lon="-1.66685">
        <ele>118.923</ele>
        <time>2020-05-15T00:53:39Z</time>
      </trkpt>
      <trkpt lat="43.1331" lon="-1.66712">
        <ele>119.018</ele>
        <time>2020-05-15T00:53:59Z</time>
      </trkpt>
      <trkpt lat="43.13301" lon="-1.66727">
        <ele>119.072</ele>
        <time>2020-05-15T00:54:19Z</time>
      </trkpt>
      <trkpt lat="43.13274" lon="-1.66767">
        <ele>119.48</ele>
        <time>2020-05-15T00:54:39Z</time>
      </trkpt>
      <trkpt lat="43.13266" lon="-1.66782">
        <ele>119.915</ele>
        <time>2020-05-15T00:54:59Z</time>
      </trkpt>
      <trkpt lat="43.13264" lon="-1.66807">
        <ele>116.165</ele>
        <time>2020-05-15T00:55:19Z</time>
      </trkpt>
      <trkpt lat="43.13257" lon="-1.66825">
        <ele>119.912</ele>
        <time>2020-05-15T00:55:39Z</time>
      </trkpt>
      <trkpt lat="43.1325" lon="-1.66851">
        <ele>119.964</ele>
        <time>2020-05-15T00:55:59Z</time>
      </trkpt>
      <trkpt lat="43.13242" lon="-1.66882">
        <ele>119.738</ele>
        <time>2020-05-15T00:56:19Z</time>
      </trkpt>
      <trkpt lat="43.13236" lon="-1.66908">
        <ele>120.07</ele>
        <time>2020-05-15T00:56:39Z</time>
      </trkpt>
      <trkpt lat="43.13233" lon="-1.66932">
        <ele>120.117</ele>
        <time>2020-05-15T00:56:59Z</time>
      </trkpt>
      <trkpt lat="43.13229" lon="-1.66957">
        <ele>120.808</ele>
        <time>2020-05-15T00:57:19Z</time>
      </trkpt>
      <trkpt lat="43.13227" lon="-1.66983">
        <ele>117.797</ele>
        <time>2020-05-15T00:57:39Z</time>
      </trkpt>
      <trkpt lat="43.13224" lon="-1.67007">
        <ele>117.492</ele>
        <time>2020-05-15T00:57:59Z</time>
      </trkpt>
      <trkpt lat="43.1322" lon="-1.67034">
        <ele>120.436</ele>
        <time>2020-05-15T00:58:19Z</time>
      </trkpt>
      <trkpt lat="43.13216" lon="-1.6705">
        <ele>120.624</ele>
        <time>2020-05-15T00:58:39Z</time>
      </trkpt>
      <trkpt lat="43.13205" lon="-1.67085">
        <ele>117.749</ele>
        <time>2020-05-15T00:58:59Z</time>
      </trkpt>
      <trkpt lat="43.13199" lon="-1.67102">
        <ele>121.229</ele>
        <time>2020-05-15T00:59:19Z</time>
      </trkpt>
      <trkpt lat="43.13189" lon="-1.67125">
        <ele>119.096</ele>
        <time>2020-05-15T00:59:39Z</time>
      </trkpt>
      <trkpt lat="43.13185" lon="-1.67135">
        <ele>121.668</ele>
        <time>2020-05-15T00:59:59Z</time>
      </trkpt>
      <trkpt lat="43.13171" lon="-1.67155">
        <ele>118.557</ele>
        <time>2020-05-15T01:00:19Z</time>
      </trkpt>
      <trkpt lat="43.13163" lon="-1.67157">
        <ele>121.9</ele>
        <time>2020-05-15T01:00:39Z</time>
      </trkpt>
      <trkpt lat="43.13159" lon="-1.67144">
        <ele>121.92</ele>
        <time>2020-05-15T01:00:59Z</time>
      </trkpt>
      <trkpt lat="43.13157" lon="-1.67139">
        <ele>121.808</ele>
        <time>2020-05-15T01:01:19Z</time>
      </trkpt>
      <trkpt lat="43.13149" lon="-1.6715">
        <ele>123.059</ele>
        <time>2020-05-15T01:01:39Z</time>
      </trkpt>
      <trkpt lat="43.13144" lon="-1.67147">
        <ele>122.454</ele>
        <time>2020-05-15T01:01:59Z</time>
      </trkpt>
      <trkpt lat="43.13142" lon="-1.67146">
        <ele>122.478</ele>
        <time>2020-05-15T01:02:19Z</time>
      </trkpt>
      <trkpt lat="43.1314" lon="-1.67145">
        <ele>122.466</ele>
        <time>2020-05-15T01:02:39Z</time>
      </trkpt>
      <trkpt lat="43.13135" lon="-1.67143">
        <ele>122.211</ele>
        <time>2020-05-15T01:02:59Z</time>
      </trkpt>
      <trkpt lat="43.13134" lon="-1.67142">
        <ele>121.981</ele>
        <time>2020-05-15T01:03:19Z</time>
      </trkpt>
      <trkpt lat="43.13132" lon="-1.67141">
        <ele>121.858</ele>
        <time>2020-05-15T01:03:39Z</time>
      </trkpt>
      <trkpt lat="43.13129" lon="-1.67139">
        <ele>121.85</ele>
        <time>2020-05-15T01:03:59Z</time>
      </trkpt>
      <trkpt lat="43.13122" lon="-1.67135">
        <ele>121.693</ele>
        <time>2020-05-15T01:04:19Z</time>
      </trkpt>
      <trkpt lat="43.13118" lon="-1.67131">
        <ele>121.665</ele>
        <time>2020-05-15T01:04:39Z</time>
      </trkpt>
      <trkpt lat="43.13115" lon="-1.67129">
        <ele>121.521</ele>
        <time>2020-05-15T01:04:59Z</time>
      </trkpt>
      <trkpt lat="43.13113" lon="-1.67127">
        <ele>121.708</ele>
        <time>2020-05-15T01:05:19Z</time>
      </trkpt>
      <trkpt lat="43.1311" lon="-1.67123">
        <ele>121.563</ele>
        <time>2020-05-15T01:05:39Z</time>
      </trkpt>
      <trkpt lat="43.13107" lon="-1.67119">
        <ele>121.628</ele>
        <time>2020-05-15T01:05:59Z</time>
      </trkpt>
      <trkpt lat="43.13101" lon="-1.67111">
        <ele>121.672</ele>
        <time>2020-05-15T01:06:19Z</time>
      </trkpt>
      <trkpt lat="43.13096" lon="-1.67102">
        <ele>121.66</ele>
        <time>2020-05-15T01:06:39Z</time>
      </trkpt>
      <trkpt lat="43.13092" lon="-1.67096">
        <ele>121.795</ele>
        <time>2020-05-15T01:06:59Z</time>
      </trkpt>
      <trkpt lat="43.13089" lon="-1.6709">
        <ele>121.735</ele>
        <time>2020-05-15T01:07:19Z</time>
      </trkpt>
      <trkpt lat="43.13088" lon="-1.67087">
        <ele>121.722</ele>
        <time>2020-05-15T01:07:39Z</time>
      </trkpt>
      <trkpt lat="43.13084" lon="-1.67083">
        <ele>121.884</ele>
        <time>2020-05-15T01:07:59Z</time>
      </trkpt>
      <trkpt lat="43.13083" lon="-1.67081">
        <ele>121.858</ele>
        <time>2020-05-15T01:08:19Z</time>
      </trkpt>
      <trkpt lat="43.1308" lon="-1.67078">
        <ele>121.952</ele>
        <time>2020-05-15T01:08:39Z</time>
      </trkpt>
      <trkpt lat="43.13076" lon="-1.67076">
        <ele>122.217</ele>
        <time>2020-05-15T01:08:59Z</time>
      </trkpt>
      <trkpt lat="43.13066" lon="-1.6707">
        <ele>122.408</ele>
        <time>2020-05-15T01:09:19Z</time>
      </trkpt>
      <trkpt lat="43.13052" lon="-1.67061">
        <ele>122.859</ele>
        <time>2020-05-15T01:09:39Z</time>
      </trkpt>
      <trkpt lat="43.13014" lon="-1.67036">
        <ele>123.674</ele>
        <time>2020-05-15T01:09:59Z</time>
      </trkpt>
      <trkpt lat="43.12996" lon="-1.67024">
        <ele>123.988</ele>
        <time>2020-05-15T01:10:19Z</time>
      </trkpt>
      <trkpt lat="43.12994" lon="-1.67022">
        <ele>124.066</ele>
        <time>2020-05-15T01:10:39Z</time>
      </trkpt>
      <trkpt lat="43.12992" lon="-1.67021">
        <ele>124.071</ele>
        <time>2020-05-15T01:10:59Z</time>
      </trkpt>
      <trkpt lat="43.12999" lon="-1.67016">
        <ele>124.821</ele>
        <time>2020-05-15T01:11:19Z</time>
      </trkpt>
      <trkpt lat="43.13007" lon="-1.67012">
        <ele>125.628</ele>
        <time>2020-05-15T01:11:39Z</time>
      </trkpt>
      <trkpt lat="43.13015" lon="-1.6701">
        <ele>125.99</ele>
        <time>2020-05-15T01:11:59Z</time>
      </trkpt>
      <trkpt lat="43.13025" lon="-1.67004">
        <ele>125.938</ele>
        <time>2020-05-15T01:12:19Z</time>
      </trkpt>
      <trkpt lat="43.13029" lon="-1.67">
        <ele>125.67</ele>
        <time>2020-05-15T01:12:39Z</time>
      </trkpt>
      <trkpt lat="43.13032" lon="-1.66996">
        <ele>126.017</ele>
        <time>2020-05-15T01:12:59Z</time>
      </trkpt>
      <trkpt lat="43.13036" lon="-1.66993">
        <ele>126.008</ele>
        <time>2020-05-15T01:13:19Z</time>
      </trkpt>
      <trkpt lat="43.13041" lon="-1.66987">
        <ele>126.767</ele>
        <time>2020-05-15T01:13:39Z</time>
      </trkpt>
      <trkpt lat="43.13043" lon="-1.66984">
        <ele>127.442</ele>
        <time>2020-05-15T01:13:59Z</time>
      </trkpt>
      <trkpt lat="43.13046" lon="-1.66978">
        <ele>128.426</ele>
        <time>2020-05-15T01:14:19Z</time>
      </trkpt>
      <trkpt lat="43.1305" lon="-1.66966">
        <ele>127.544</ele>
        <time>2020-05-15T01:14:39Z</time>
      </trkpt>
      <trkpt lat="43.13039" lon="-1.66969">
        <ele>130.039</ele>
        <time>2020-05-15T01:14:59Z</time>
      </trkpt>
      <trkpt lat="43.13032" lon="-1.66973">
        <ele>130.569</ele>
        <time>2020-05-15T01:15:19Z</time>
      </trkpt>
      <trkpt lat="43.13025" lon="-1.66978">
        <ele>131.586</ele>
        <time>2020-05-15T01:15:39Z</time>
      </trkpt>
      <trkpt lat="43.13015" lon="-1.66981">
        <ele>132.318</ele>
        <time>2020-05-15T01:15:59Z</time>
      </trkpt>
      <trkpt lat="43.13012" lon="-1.66978">
        <ele>134.544</ele>
        <time>2020-05-15T01:16:19Z</time>
      </trkpt>
      <trkpt lat="43.13002" lon="-1.66965">
        <ele>136.705</ele>
        <time>2020-05-15T01:16:39Z</time>
      </trkpt>
      <trkpt lat="43.12999" lon="-1.66961">
        <ele>137.015</ele>
        <time>2020-05-15T01:16:59Z</time>
      </trkpt>
      <trkpt lat="43.12994" lon="-1.66954">
        <ele>139.308</ele>
        <time>2020-05-15T01:17:19Z</time>
      </trkpt>
      <trkpt lat="43.12982" lon="-1.66936">
        <ele>142.468</ele>
        <time>2020-05-15T01:17:39Z</time>
      </trkpt>
      <trkpt lat="43.12976" lon="-1.66927">
        <ele>144.863</ele>
        <time>2020-05-15T01:17:59Z</time>
      </trkpt>
      <trkpt lat="43.12973" lon="-1.66923">
        <ele>145.877</ele>
        <time>2020-05-15T01:18:19Z</time>
      </trkpt>
      <trkpt lat="43.12971" lon="-1.66922">
        <ele>145.865</ele>
        <time>2020-05-15T01:18:39Z</time>
      </trkpt>
      <trkpt lat="43.12971" lon="-1.6692">
        <ele>145.85</ele>
        <time>2020-05-15T01:18:59Z</time>
      </trkpt>
      <trkpt lat="43.12967" lon="-1.6691">
        <ele>149.23</ele>
        <time>2020-05-15T01:19:19Z</time>
      </trkpt>
      <trkpt lat="43.12966" lon="-1.66904">
        <ele>150.377</ele>
        <time>2020-05-15T01:19:39Z</time>
      </trkpt>
      <trkpt lat="43.12966" lon="-1.66892">
        <ele>151.419</ele>
        <time>2020-05-15T01:19:59Z</time>
      </trkpt>
      <trkpt lat="43.12966" lon="-1.66888">
        <ele>151.425</ele>
        <time>2020-05-15T01:20:19Z</time>
      </trkpt>
      <trkpt lat="43.12964" lon="-1.66883">
        <ele>150.926</ele>
        <time>2020-05-15T01:20:39Z</time>
      </trkpt>
      <trkpt lat="43.12962" lon="-1.66879">
        <ele>152.208</ele>
        <time>2020-05-15T01:20:59Z</time>
      </trkpt>
      <trkpt lat="43.12959" lon="-1.66876">
        <ele>152.208</ele>
        <time>2020-05-15T01:21:19Z</time>
      </trkpt>
      <trkpt lat="43.12955" lon="-1.66871">
        <ele>153.356</ele>
        <time>2020-05-15T01:21:39Z</time>
      </trkpt>
      <trkpt lat="43.12952" lon="-1.66869">
        <ele>154.531</ele>
        <time>2020-05-15T01:21:59Z</time>
      </trkpt>
      <trkpt lat="43.12949" lon="-1.66867">
        <ele>155.915</ele>
        <time>2020-05-15T01:22:19Z</time>
      </trkpt>
      <trkpt lat="43.12945" lon="-1.66865">
        <ele>155.963</ele>
        <time>2020-05-15T01:22:39Z</time>
      </trkpt>
      <trkpt lat="43.1294" lon="-1.66865">
        <ele>157.268</ele>
        <time>2020-05-15T01:22:59Z</time>
      </trkpt>
      <trkpt lat="43.12938" lon="-1.66865">
        <ele>157.298</ele>
        <time>2020-05-15T01:23:19Z</time>
      </trkpt>
      <trkpt lat="43.12936" lon="-1.66866">
        <ele>157.225</ele>
        <time>2020-05-15T01:23:39Z</time>
      </trkpt>
      <trkpt lat="43.12931" lon="-1.66868">
        <ele>159.237</ele>
        <time>2020-05-15T01:23:59Z</time>
      </trkpt>
      <trkpt lat="43.12926" lon="-1.66872">
        <ele>159.187</ele>
        <time>2020-05-15T01:24:19Z</time>
      </trkpt>
      <trkpt lat="43.12921" lon="-1.66877">
        <ele>159.642</ele>
        <time>2020-05-15T01:24:39Z</time>
      </trkpt>
      <trkpt lat="43.12916" lon="-1.66882">
        <ele>161.726</ele>
        <time>2020-05-15T01:24:59Z</time>
      </trkpt>
      <trkpt lat="43.12907" lon="-1.66894">
        <ele>162.308</ele>
        <time>2020-05-15T01:25:19Z</time>
      </trkpt>
      <trkpt lat="43.129" lon="-1.66904">
        <ele>164.382</ele>
        <time>2020-05-15T01:25:39Z</time>
      </trkpt>
      <trkpt lat="43.12896" lon="-1.66907">
        <ele>164.357</ele>
        <time>2020-05-15T01:25:59Z</time>
      </trkpt>
      <trkpt lat="43.12891" lon="-1.66912">
        <ele>164.051</ele>
        <time>2020-05-15T01:26:19Z</time>
      </trkpt>
      <trkpt lat="43.12885" lon="-1.66915">
        <ele>164.789</ele>
        <time>2020-05-15T01:26:39Z</time>
      </trkpt>
      <trkpt lat="43.12875" lon="-1.66918">
        <ele>165.044</ele>
        <time>2020-05-15T01:26:59Z</time>
      </trkpt>
      <trkpt lat="43.12867" lon="-1.66921">
        <ele>165.214</ele>
        <time>2020-05-15T01:27:19Z</time>
      </trkpt>
      <trkpt lat="43.12861" lon="-1.66923">
        <ele>166.071</ele>
        <time>2020-05-15T01:27:39Z</time>
      </trkpt>
      <trkpt lat="43.12855" lon="-1.66926">
        <ele>167.973</ele>
        <time>2020-05-15T01:27:59Z</time>
      </trkpt>
      <trkpt lat="43.12843" lon="-1.66938">
        <ele>167.359</ele>
        <time>2020-05-15T01:28:19Z</time>
      </trkpt>
      <trkpt lat="43.12839" lon="-1.66943">
        <ele>167.603</ele>
        <time>2020-05-15T01:28:39Z</time>
      </trkpt>
      <trkpt lat="43.12836" lon="-1.66949">
        <ele>167.623</ele>
        <time>2020-05-15T01:28:59Z</time>
      </trkpt>
      <trkpt lat="43.12817" lon="-1.66971">
        <ele>169.108</ele>
        <time>2020-05-15T01:29:19Z</time>
      </trkpt>
      <trkpt lat="43.12793" lon="-1.66989">
        <ele>170.319</ele>
        <time>2020-05-15T01:29:39Z</time>
      </trkpt>
      <trkpt lat="43.12775" lon="-1.67006">
        <ele>173.144</ele>
        <time>2020-05-15T01:29:59Z</time>
      </trkpt>
      <trkpt lat="43.12755" lon="-1.6702">
        <ele>176.038</ele>
        <time>2020-05-15T01:30:19Z</time>
      </trkpt>
      <trkpt lat="43.12749" lon="-1.67027">
        <ele>176.576</ele>
        <time>2020-05-15T01:30:39Z</time>
      </trkpt>
      <trkpt lat="43.12738" lon="-1.67038">
        <ele>178.181</ele>
        <time>2020-05-15T01:30:59Z</time>
      </trkpt>
      <trkpt lat="43.12728" lon="-1.6705">
        <ele>178.651</ele>
        <time>2020-05-15T01:31:19Z</time>
      </trkpt>
      <trkpt lat="43.12721" lon="-1.67058">
        <ele>180.788</ele>
        <time>2020-05-15T01:31:39Z</time>
      </trkpt>
      <trkpt lat="43.12711" lon="-1.67065">
        <ele>180.72</ele>
        <time>2020-05-15T01:31:59Z</time>
      </trkpt>
      <trkpt lat="43.12703" lon="-1.67069">
        <ele>181.817</ele>
        <time>2020-05-15T01:32:19Z</time>
      </trkpt>
      <trkpt lat="43.12697" lon="-1.67073">
        <ele>181.787</ele>
        <time>2020-05-15T01:32:39Z</time>
      </trkpt>
      <trkpt lat="43.1269" lon="-1.67074">
        <ele>183.615</ele>
        <time>2020-05-15T01:32:59Z</time>
      </trkpt>
      <trkpt lat="43.12683" lon="-1.67074">
        <ele>184.208</ele>
        <time>2020-05-15T01:33:19Z</time>
      </trkpt>
      <trkpt lat="43.12677" lon="-1.67075">
        <ele>184.275</ele>
        <time>2020-05-15T01:33:39Z</time>
      </trkpt>
      <trkpt lat="43.12672" lon="-1.67075">
        <ele>184.64</ele>
        <time>2020-05-15T01:33:59Z</time>
      </trkpt>
      <trkpt lat="43.12662" lon="-1.67072">
        <ele>186.844</ele>
        <time>2020-05-15T01:34:19Z</time>
      </trkpt>
      <trkpt lat="43.12658" lon="-1.67069">
        <ele>187.412</ele>
        <time>2020-05-15T01:34:39Z</time>
      </trkpt>
      <trkpt lat="43.12655" lon="-1.67066">
        <ele>187.917</ele>
        <time>2020-05-15T01:34:59Z</time>
      </trkpt>
      <trkpt lat="43.12652" lon="-1.67062">
        <ele>187.997</ele>
        <time>2020-05-15T01:35:19Z</time>
      </trkpt>
      <trkpt lat="43.12651" lon="-1.67055">
        <ele>188.314</ele>
        <time>2020-05-15T01:35:39Z</time>
      </trkpt>
      <trkpt lat="43.12652" lon="-1.67052">
        <ele>189.356</ele>
        <time>2020-05-15T01:35:59Z</time>
      </trkpt>
      <trkpt lat="43.12652" lon="-1.67049">
        <ele>189.372</ele>
        <time>2020-05-15T01:36:19Z</time>
      </trkpt>
      <trkpt lat="43.12654" lon="-1.67043">
        <ele>190.013</ele>
        <time>2020-05-15T01:36:39Z</time>
      </trkpt>
      <trkpt lat="43.12655" lon="-1.67038">
        <ele>190.514</ele>
        <time>2020-05-15T01:36:59Z</time>
      </trkpt>
      <trkpt lat="43.12656" lon="-1.67033">
        <ele>191.108</ele>
        <time>2020-05-15T01:37:19Z</time>
      </trkpt>
      <trkpt lat="43.12656" lon="-1.6702">
        <ele>192.931</ele>
        <time>2020-05-15T01:37:39Z</time>
      </trkpt>
      <trkpt lat="43.12655" lon="-1.67015">
        <ele>193.766</ele>
        <time>2020-05-15T01:37:59Z</time>
      </trkpt>
      <trkpt lat="43.12655" lon="-1.67011">
        <ele>194.47</ele>
        <time>2020-05-15T01:38:19Z</time>
      </trkpt>
      <trkpt lat="43.12654" lon="-1.67006">
        <ele>194.468</ele>
        <time>2020-05-15T01:38:39Z</time>
      </trkpt>
      <trkpt lat="43.12653" lon="-1.67004">
        <ele>194.463</ele>
        <time>2020-05-15T01:38:59Z</time>
      </trkpt>
      <trkpt lat="43.12652" lon="-1.67001">
        <ele>194.443</ele>
        <time>2020-05-15T01:39:19Z</time>
      </trkpt>
      <trkpt lat="43.12652" lon="-1.66998">
        <ele>195.43</ele>
        <time>2020-05-15T01:39:39Z</time>
      </trkpt>
      <trkpt lat="43.12652" lon="-1.66997">
        <ele>195.492</ele>
        <time>2020-05-15T01:39:59Z</time>
      </trkpt>
      <trkpt lat="43.12653" lon="-1.66995">
        <ele>195.468</ele>
        <time>2020-05-15T01:40:19Z</time>
      </trkpt>
      <trkpt lat="43.12654" lon="-1.66994">
        <ele>196.242</ele>
        <time>2020-05-15T01:40:39Z</time>
      </trkpt>
      <trkpt lat="43.12655" lon="-1.66993">
        <ele>196.226</ele>
        <time>2020-05-15T01:40:59Z</time>
      </trkpt>
      <trkpt lat="43.12658" lon="-1.66991">
        <ele>196.308</ele>
        <time>2020-05-15T01:41:19Z</time>
      </trkpt>
      <trkpt lat="43.1266" lon="-1.66988">
        <ele>196.83</ele>
        <time>2020-05-15T01:41:39Z</time>
      </trkpt>
      <trkpt lat="43.12665" lon="-1.66985">
        <ele>197.545</ele>
        <time>2020-05-15T01:41:59Z</time>
      </trkpt>
      <trkpt lat="43.12669" lon="-1.66982">
        <ele>198.379</ele>
        <time>2020-05-15T01:42:19Z</time>
      </trkpt>
      <trkpt lat="43.12673" lon="-1.66979">
        <ele>199.367</ele>
        <time>2020-05-15T01:42:39Z</time>
      </trkpt>
      <trkpt lat="43.12677" lon="-1.66974">
        <ele>199.572</ele>
        <time>2020-05-15T01:42:59Z</time>
      </trkpt>
      <trkpt lat="43.12679" lon="-1.66972">
        <ele>199.832</ele>
        <time>2020-05-15T01:43:19Z</time>
      </trkpt>
      <trkpt lat="43.12676" lon="-1.66967">
        <ele>200.399</ele>
        <time>2020-05-15T01:43:39Z</time>
      </trkpt>
      <trkpt lat="43.12674" lon="-1.66963">
        <ele>200.731</ele>
        <time>2020-05-15T01:43:59Z</time>
      </trkpt>
      <trkpt lat="43.12671" lon="-1.66959">
        <ele>201.622</ele>
        <time>2020-05-15T01:44:19Z</time>
      </trkpt>
      <trkpt lat="43.12665" lon="-1.66957">
        <ele>201.662</ele>
        <time>2020-05-15T01:44:39Z</time>
      </trkpt>
      <trkpt lat="43.12634" lon="-1.66949">
        <ele>201.608</ele>
        <time>2020-05-15T01:44:59Z</time>
      </trkpt>
      <trkpt lat="43.12624" lon="-1.66946">
        <ele>200.008</ele>
        <time>2020-05-15T01:45:19Z</time>
      </trkpt>
      <trkpt lat="43.12615" lon="-1.66943">
        <ele>200.336</ele>
        <time>2020-05-15T01:45:39Z</time>
      </trkpt>
      <trkpt lat="43.126" lon="-1.66935">
        <ele>200.131</ele>
        <time>2020-05-15T01:45:59Z</time>
      </trkpt>
      <trkpt lat="43.1259" lon="-1.66931">
        <ele>200.285</ele>
        <time>2020-05-15T01:46:19Z</time>
      </trkpt>
      <trkpt lat="43.1258" lon="-1.66926">
        <ele>203.673</ele>
        <time>2020-05-15T01:46:39Z</time>
      </trkpt>
      <trkpt lat="43.12569" lon="-1.6692">
        <ele>205.038</ele>
        <time>2020-05-15T01:46:59Z</time>
      </trkpt>
      <trkpt lat="43.12557" lon="-1.66913">
        <ele>206.498</ele>
        <time>2020-05-15T01:47:19Z</time>
      </trkpt>
      <trkpt lat="43.12544" lon="-1.66905">
        <ele>207.455</ele>
        <time>2020-05-15T01:47:39Z</time>
      </trkpt>
      <trkpt lat="43.1253" lon="-1.66897">
        <ele>210.627</ele>
        <time>2020-05-15T01:47:59Z</time>
      </trkpt>
      <trkpt lat="43.1252" lon="-1.66891">
        <ele>212.285</ele>
        <time>2020-05-15T01:48:19Z</time>
      </trkpt>
      <trkpt lat="43.12509" lon="-1.66885">
        <ele>213.789</ele>
        <time>2020-05-15T01:48:39Z</time>
      </trkpt>
      <trkpt lat="43.12507" lon="-1.66883">
        <ele>212.817</ele>
        <time>2020-05-15T01:48:59Z</time>
      </trkpt>
      <trkpt lat="43.12504" lon="-1.66882">
        <ele>212.808</ele>
        <time>2020-05-15T01:49:19Z</time>
      </trkpt>
      <trkpt lat="43.12486" lon="-1.66869">
        <ele>217.832</ele>
        <time>2020-05-15T01:49:39Z</time>
      </trkpt>
      <trkpt lat="43.12483" lon="-1.66868">
        <ele>218.037</ele>
        <time>2020-05-15T01:49:59Z</time>
      </trkpt>
      <trkpt lat="43.12473" lon="-1.66864">
        <ele>218.881</ele>
        <time>2020-05-15T01:50:19Z</time>
      </trkpt>
      <trkpt lat="43.12463" lon="-1.66858">
        <ele>221.469</ele>
        <time>2020-05-15T01:50:39Z</time>
      </trkpt>
      <trkpt lat="43.12452" lon="-1.66852">
        <ele>223.044</ele>
        <time>2020-05-15T01:50:59Z</time>
      </trkpt>
      <trkpt lat="43.12449" lon="-1.66851">
        <ele>223.024</ele>
        <time>2020-05-15T01:51:19Z</time>
      </trkpt>
      <trkpt lat="43.12444" lon="-1.6685">
        <ele>223.391</ele>
        <time>2020-05-15T01:51:39Z</time>
      </trkpt>
      <trkpt lat="43.12439" lon="-1.66848">
        <ele>224.443</ele>
        <time>2020-05-15T01:51:59Z</time>
      </trkpt>
      <trkpt lat="43.12435" lon="-1.66847">
        <ele>224.128</ele>
        <time>2020-05-15T01:52:19Z</time>
      </trkpt>
      <trkpt lat="43.12429" lon="-1.66844">
        <ele>225.489</ele>
        <time>2020-05-15T01:52:39Z</time>
      </trkpt>
      <trkpt lat="43.12422" lon="-1.6684">
        <ele>224.917</ele>
        <time>2020-05-15T01:52:59Z</time>
      </trkpt>
      <trkpt lat="43.12419" lon="-1.66839">
        <ele>225.508</ele>
        <time>2020-05-15T01:53:19Z</time>
      </trkpt>
      <trkpt lat="43.12415" lon="-1.66837">
        <ele>225.756</ele>
        <time>2020-05-15T01:53:39Z</time>
      </trkpt>
      <trkpt lat="43.12412" lon="-1.66836">
        <ele>226.191</ele>
        <time>2020-05-15T01:53:59Z</time>
      </trkpt>
      <trkpt lat="43.12403" lon="-1.66834">
        <ele>226.925</ele>
        <time>2020-05-15T01:54:19Z</time>
      </trkpt>
      <trkpt lat="43.12395" lon="-1.66833">
        <ele>227.883</ele>
        <time>2020-05-15T01:54:39Z</time>
      </trkpt>
      <trkpt lat="43.12385" lon="-1.6683">
        <ele>227.768</ele>
        <time>2020-05-15T01:54:59Z</time>
      </trkpt>
      <trkpt lat="43.12375" lon="-1.66828">
        <ele>228.148</ele>
        <time>2020-05-15T01:55:19Z</time>
      </trkpt>
      <trkpt lat="43.12359" lon="-1.66825">
        <ele>228.775</ele>
        <time>2020-05-15T01:55:39Z</time>
      </trkpt>
      <trkpt lat="43.12344" lon="-1.66821">
        <ele>229.467</ele>
        <time>2020-05-15T01:55:59Z</time>
      </trkpt>
      <trkpt lat="43.12338" lon="-1.6682">
        <ele>229.525</ele>
        <time>2020-05-15T01:56:19Z</time>
      </trkpt>
      <trkpt lat="43.12323" lon="-1.66817">
        <ele>229.926</ele>
        <time>2020-05-15T01:56:39Z</time>
      </trkpt>
      <trkpt lat="43.12322" lon="-1.66818">
        <ele>230.208</ele>
        <time>2020-05-15T01:56:59Z</time>
      </trkpt>
      <trkpt lat="43.12316" lon="-1.66819">
        <ele>230.308</ele>
        <time>2020-05-15T01:57:19Z</time>
      </trkpt>
      <trkpt lat="43.12311" lon="-1.6682">
        <ele>230.586</ele>
        <time>2020-05-15T01:57:39Z</time>
      </trkpt>
      <trkpt lat="43.123" lon="-1.6682">
        <ele>230.821</ele>
        <time>2020-05-15T01:57:59Z</time>
      </trkpt>
      <trkpt lat="43.12294" lon="-1.66819">
        <ele>231.025</ele>
        <time>2020-05-15T01:58:19Z</time>
      </trkpt>
      <trkpt lat="43.12288" lon="-1.66819">
        <ele>231.143</ele>
        <time>2020-05-15T01:58:39Z</time>
      </trkpt>
      <trkpt lat="43.12281" lon="-1.66817">
        <ele>231.388</ele>
        <time>2020-05-15T01:58:59Z</time>
      </trkpt>
      <trkpt lat="43.12273" lon="-1.66816">
        <ele>231.378</ele>
        <time>2020-05-15T01:59:19Z</time>
      </trkpt>
      <trkpt lat="43.12267" lon="-1.66814">
        <ele>231.485</ele>
        <time>2020-05-15T01:59:39Z</time>
      </trkpt>
      <trkpt lat="43.1226" lon="-1.66811">
        <ele>231.757</ele>
        <time>2020-05-15T01:59:59Z</time>
      </trkpt>
      <trkpt lat="43.12256" lon="-1.66811">
        <ele>232.028</ele>
        <time>2020-05-15T02:00:19Z</time>
      </trkpt>
      <trkpt lat="43.12253" lon="-1.6681">
        <ele>231.689</ele>
        <time>2020-05-15T02:00:39Z</time>
      </trkpt>
      <trkpt lat="43.12229" lon="-1.66811">
        <ele>233.717</ele>
        <time>2020-05-15T02:00:59Z</time>
      </trkpt>
      <trkpt lat="43.12223" lon="-1.66812">
        <ele>234.108</ele>
        <time>2020-05-15T02:01:19Z</time>
      </trkpt>
      <trkpt lat="43.12217" lon="-1.66812">
        <ele>234.276</ele>
        <time>2020-05-15T02:01:39Z</time>
      </trkpt>
      <trkpt lat="43.12207" lon="-1.66813">
        <ele>235.181</ele>
        <time>2020-05-15T02:01:59Z</time>
      </trkpt>
      <trkpt lat="43.12197" lon="-1.66815">
        <ele>235.465</ele>
        <time>2020-05-15T02:02:19Z</time>
      </trkpt>
      <trkpt lat="43.12192" lon="-1.66814">
        <ele>235.753</ele>
        <time>2020-05-15T02:02:39Z</time>
      </trkpt>
      <trkpt lat="43.12188" lon="-1.66813">
        <ele>235.948</ele>
        <time>2020-05-15T02:02:59Z</time>
      </trkpt>
      <trkpt lat="43.12183" lon="-1.66812">
        <ele>235.758</ele>
        <time>2020-05-15T02:03:19Z</time>
      </trkpt>
      <trkpt lat="43.12179" lon="-1.66811">
        <ele>236.495</ele>
        <time>2020-05-15T02:03:39Z</time>
      </trkpt>
      <trkpt lat="43.12175" lon="-1.6681">
        <ele>236.497</ele>
        <time>2020-05-15T02:03:59Z</time>
      </trkpt>
      <trkpt lat="43.12172" lon="-1.66808">
        <ele>236.569</ele>
        <time>2020-05-15T02:04:19Z</time>
      </trkpt>
      <trkpt lat="43.12172" lon="-1.66807">
        <ele>236.504</ele>
        <time>2020-05-15T02:04:39Z</time>
      </trkpt>
      <trkpt lat="43.12171" lon="-1.66806">
        <ele>236.224</ele>
        <time>2020-05-15T02:04:59Z</time>
      </trkpt>
      <trkpt lat="43.1217" lon="-1.66805">
        <ele>236.208</ele>
        <time>2020-05-15T02:05:19Z</time>
      </trkpt>
      <trkpt lat="43.1217" lon="-1.66805">
        <ele>236.24</ele>
        <time>2020-05-15T02:05:39Z</time>
      </trkpt>
      <trkpt lat="43.12168" lon="-1.668">
        <ele>236.535</ele>
        <time>2020-05-15T02:05:59Z</time>
      </trkpt>
      <trkpt lat="43.12166" lon="-1.66795">
        <ele>236.569</ele>
        <time>2020-05-15T02:06:19Z</time>
      </trkpt>
      <trkpt lat="43.12165" lon="-1.66791">
        <ele>236.677</ele>
        <time>2020-05-15T02:06:39Z</time>
      </trkpt>
      <trkpt lat="43.12163" lon="-1.66786">
        <ele>236.532</ele>
        <time>2020-05-15T02:06:59Z</time>
      </trkpt>
      <trkpt lat="43.12163" lon="-1.66784">
        <ele>236.582</ele>
        <time>2020-05-15T02:07:19Z</time>
      </trkpt>
      <trkpt lat="43.12162" lon="-1.66781">
        <ele>236.469</ele>
        <time>2020-05-15T02:07:39Z</time>
      </trkpt>
      <trkpt lat="43.12162" lon="-1.66777">
        <ele>236.481</ele>
        <time>2020-05-15T02:07:59Z</time>
      </trkpt>
      <trkpt lat="43.12161" lon="-1.66773">
        <ele>236.341</ele>
        <time>2020-05-15T02:08:19Z</time>
      </trkpt>
      <trkpt lat="43.12161" lon="-1.66768">
        <ele>236.381</ele>
        <time>2020-05-15T02:08:39Z</time>
      </trkpt>
      <trkpt lat="43.12161" lon="-1.66763">
        <ele>236.309</ele>
        <time>2020-05-15T02:08:59Z</time>
      </trkpt>
      <trkpt lat="43.1216" lon="-1.66742">
        <ele>237.208</ele>
        <time>2020-05-15T02:09:19Z</time>
      </trkpt>
      <trkpt lat="43.12159" lon="-1.6672">
        <ele>236.698</ele>
        <time>2020-05-15T02:09:39Z</time>
      </trkpt>
      <trkpt lat="43.12158" lon="-1.66712">
        <ele>236.283</ele>
        <time>2020-05-15T02:09:59Z</time>
      </trkpt>
      <trkpt lat="43.12157" lon="-1.66705">
        <ele>236.257</ele>
        <time>2020-05-15T02:10:19Z</time>
      </trkpt>
      <trkpt lat="43.12157" lon="-1.66702">
        <ele>236.115</ele>
        <time>2020-05-15T02:10:39Z</time>
      </trkpt>
      <trkpt lat="43.12156" lon="-1.66699">
        <ele>236.17</ele>
        <time>2020-05-15T02:10:59Z</time>
      </trkpt>
      <trkpt lat="43.12155" lon="-1.66696">
        <ele>236.12</ele>
        <time>2020-05-15T02:11:19Z</time>
      </trkpt>
      <trkpt lat="43.12155" lon="-1.66694">
        <ele>236.277</ele>
        <time>2020-05-15T02:11:39Z</time>
      </trkpt>
      <trkpt lat="43.12154" lon="-1.66692">
        <ele>236.019</ele>
        <time>2020-05-15T02:11:59Z</time>
      </trkpt>
      <trkpt lat="43.12153" lon="-1.66689">
        <ele>235.994</ele>
        <time>2020-05-15T02:12:19Z</time>
      </trkpt>
      <trkpt lat="43.1215" lon="-1.66683">
        <ele>236.157</ele>
        <time>2020-05-15T02:12:39Z</time>
      </trkpt>
      <trkpt lat="43.12148" lon="-1.66676">
        <ele>236.022</ele>
        <time>2020-05-15T02:12:59Z</time>
      </trkpt>
      <trkpt lat="43.12145" lon="-1.6667">
        <ele>235.908</ele>
        <time>2020-05-15T02:13:19Z</time>
      </trkpt>
      <trkpt lat="43.12142" lon="-1.66663">
        <ele>235.933</ele>
        <time>2020-05-15T02:13:39Z</time>
      </trkpt>
      <trkpt lat="43.1214" lon="-1.66658">
        <ele>235.818</ele>
        <time>2020-05-15T02:13:59Z</time>
      </trkpt>
      <trkpt lat="43.12137" lon="-1.66652">
        <ele>236.182</ele>
        <time>2020-05-15T02:14:19Z</time>
      </trkpt>
      <trkpt lat="43.12135" lon="-1.66647">
        <ele>236.12</ele>
        <time>2020-05-15T02:14:39Z</time>
      </trkpt>
      <trkpt lat="43.12132" lon="-1.66641">
        <ele>237.685</ele>
        <time>2020-05-15T02:14:59Z</time>
      </trkpt>
      <trkpt lat="43.1213" lon="-1.66637">
        <ele>236.525</ele>
        <time>2020-05-15T02:15:19Z</time>
      </trkpt>
      <trkpt lat="43.12127" lon="-1.66633">
        <ele>237.542</ele>
        <time>2020-05-15T02:15:39Z</time>
      </trkpt>
      <trkpt lat="43.1212" lon="-1.66621">
        <ele>236.694</ele>
        <time>2020-05-15T02:15:59Z</time>
      </trkpt>
      <trkpt lat="43.12112" lon="-1.66608">
        <ele>236.892</ele>
        <time>2020-05-15T02:16:19Z</time>
      </trkpt>
      <trkpt lat="43.12108" lon="-1.66602">
        <ele>236.973</ele>
        <time>2020-05-15T02:16:39Z</time>
      </trkpt>
      <trkpt lat="43.12105" lon="-1.66597">
        <ele>237.52</ele>
        <time>2020-05-15T02:16:59Z</time>
      </trkpt>
      <trkpt lat="43.12104" lon="-1.66593">
        <ele>236.508</ele>
        <time>2020-05-15T02:17:19Z</time>
      </trkpt>
      <trkpt lat="43.12102" lon="-1.66589">
        <ele>237.133</ele>
        <time>2020-05-15T02:17:39Z</time>
      </trkpt>
      <trkpt lat="43.12098" lon="-1.66581">
        <ele>237.318</ele>
        <time>2020-05-15T02:17:59Z</time>
      </trkpt>
      <trkpt lat="43.12095" lon="-1.66572">
        <ele>237.232</ele>
        <time>2020-05-15T02:18:19Z</time>
      </trkpt>
      <trkpt lat="43.12089" lon="-1.6656">
        <ele>237.38</ele>
        <time>2020-05-15T02:18:39Z</time>
      </trkpt>
      <trkpt lat="43.12081" lon="-1.66541">
        <ele>238.145</ele>
        <time>2020-05-15T02:18:59Z</time>
      </trkpt>
      <trkpt lat="43.12078" lon="-1.66533">
        <ele>237.555</ele>
        <time>2020-05-15T02:19:19Z</time>
      </trkpt>
      <trkpt lat="43.12076" lon="-1.66524">
        <ele>237.512</ele>
        <time>2020-05-15T02:19:39Z</time>
      </trkpt>
      <trkpt lat="43.12073" lon="-1.66515">
        <ele>238.564</ele>
        <time>2020-05-15T02:19:59Z</time>
      </trkpt>
      <trkpt lat="43.12071" lon="-1.66505">
        <ele>237.615</ele>
        <time>2020-05-15T02:20:19Z</time>
      </trkpt>
      <trkpt lat="43.12069" lon="-1.66496">
        <ele>237.765</ele>
        <time>2020-05-15T02:20:39Z</time>
      </trkpt>
      <trkpt lat="43.12066" lon="-1.6648">
        <ele>237.811</ele>
        <time>2020-05-15T02:20:59Z</time>
      </trkpt>
      <trkpt lat="43.12063" lon="-1.66464">
        <ele>238.208</ele>
        <time>2020-05-15T02:21:19Z</time>
      </trkpt>
      <trkpt lat="43.1206" lon="-1.66451">
        <ele>238.395</ele>
        <time>2020-05-15T02:21:39Z</time>
      </trkpt>
      <trkpt lat="43.12058" lon="-1.66439">
        <ele>239.37</ele>
        <time>2020-05-15T02:21:59Z</time>
      </trkpt>
      <trkpt lat="43.12057" lon="-1.66436">
        <ele>239.384</ele>
        <time>2020-05-15T02:22:19Z</time>
      </trkpt>
      <trkpt lat="43.12057" lon="-1.66434">
        <ele>238.522</ele>
        <time>2020-05-15T02:22:39Z</time>
      </trkpt>
      <trkpt lat="43.12057" lon="-1.66429">
        <ele>238.527</ele>
        <time>2020-05-15T02:22:59Z</time>
      </trkpt>
      <trkpt lat="43.12056" lon="-1.66424">
        <ele>238.617</ele>
        <time>2020-05-15T02:23:19Z</time>
      </trkpt>
      <trkpt lat="43.12056" lon="-1.66417">
        <ele>238.964</ele>
        <time>2020-05-15T02:23:39Z</time>
      </trkpt>
      <trkpt lat="43.12056" lon="-1.66411">
        <ele>238.926</ele>
        <time>2020-05-15T02:23:59Z</time>
      </trkpt>
      <trkpt lat="43.12056" lon="-1.66408">
        <ele>239.024</ele>
        <time>2020-05-15T02:24:19Z</time>
      </trkpt>
      <trkpt lat="43.12056" lon="-1.66405">
        <ele>239.004</ele>
        <time>2020-05-15T02:24:39Z</time>
      </trkpt>
      <trkpt lat="43.12056" lon="-1.664">
        <ele>239.014</ele>
        <time>2020-05-15T02:24:59Z</time>
      </trkpt>
      <trkpt lat="43.12057" lon="-1.66393">
        <ele>239.208</ele>
        <time>2020-05-15T02:25:19Z</time>
      </trkpt>
      <trkpt lat="43.12057" lon="-1.66387">
        <ele>240.276</ele>
        <time>2020-05-15T02:25:39Z</time>
      </trkpt>
      <trkpt lat="43.12057" lon="-1.66382">
        <ele>240.521</ele>
        <time>2020-05-15T02:25:59Z</time>
      </trkpt>
      <trkpt lat="43.12058" lon="-1.66377">
        <ele>240.515</ele>
        <time>2020-05-15T02:26:19Z</time>
      </trkpt>
      <trkpt lat="43.12059" lon="-1.6637">
        <ele>240.413</ele>
        <time>2020-05-15T02:26:39Z</time>
      </trkpt>
      <trkpt lat="43.12062" lon="-1.66349">
        <ele>240.998</ele>
        <time>2020-05-15T02:26:59Z</time>
      </trkpt>
      <trkpt lat="43.12064" lon="-1.66334">
        <ele>241.428</ele>
        <time>2020-05-15T02:27:19Z</time>
      </trkpt>
      <trkpt lat="43.12065" lon="-1.66328">
        <ele>241.465</ele>
        <time>2020-05-15T02:27:39Z</time>
      </trkpt>
      <trkpt lat="43.12066" lon="-1.66322">
        <ele>242.777</ele>
        <time>2020-05-15T02:27:59Z</time>
      </trkpt>
      <trkpt lat="43.12066" lon="-1.6632">
        <ele>242.731</ele>
        <time>2020-05-15T02:28:19Z</time>
      </trkpt>
      <trkpt lat="43.12066" lon="-1.66318">
        <ele>242.761</ele>
        <time>2020-05-15T02:28:39Z</time>
      </trkpt>
      <trkpt lat="43.12067" lon="-1.66313">
        <ele>242.307</ele>
        <time>2020-05-15T02:28:59Z</time>
      </trkpt>
      <trkpt lat="43.12068" lon="-1.663">
        <ele>241.608</ele>
        <time>2020-05-15T02:29:19Z</time>
      </trkpt>
      <trkpt lat="43.12069" lon="-1.66295">
        <ele>241.347</ele>
        <time>2020-05-15T02:29:39Z</time>
      </trkpt>
      <trkpt lat="43.12069" lon="-1.66284">
        <ele>242.832</ele>
        <time>2020-05-15T02:29:59Z</time>
      </trkpt>
      <trkpt lat="43.1207" lon="-1.66278">
        <ele>242.656</ele>
        <time>2020-05-15T02:30:19Z</time>
      </trkpt>
      <trkpt lat="43.1207" lon="-1.66263">
        <ele>241.724</ele>
        <time>2020-05-15T02:30:39Z</time>
      </trkpt>
      <trkpt lat="43.1207" lon="-1.66254">
        <ele>241.579</ele>
        <time>2020-05-15T02:30:59Z</time>
      </trkpt>
      <trkpt lat="43.12069" lon="-1.66244">
        <ele>240.389</ele>
        <time>2020-05-15T02:31:19Z</time>
      </trkpt>
      <trkpt lat="43.12068" lon="-1.66234">
        <ele>240.236</ele>
        <time>2020-05-15T02:31:39Z</time>
      </trkpt>
      <trkpt lat="43.12067" lon="-1.66223">
        <ele>240.228</ele>
        <time>2020-05-15T02:31:59Z</time>
      </trkpt>
      <trkpt lat="43.12065" lon="-1.66212">
        <ele>240.649</ele>
        <time>2020-05-15T02:32:19Z</time>
      </trkpt>
      <trkpt lat="43.12063" lon="-1.66199">
        <ele>239.602</ele>
        <time>2020-05-15T02:32:39Z</time>
      </trkpt>
      <trkpt lat="43.12062" lon="-1.6619">
        <ele>239.522</ele>
        <time>2020-05-15T02:32:59Z</time>
      </trkpt>
      <trkpt lat="43.12061" lon="-1.66185">
        <ele>239.408</ele>
        <time>2020-05-15T02:33:19Z</time>
      </trkpt>
      <trkpt lat="43.12061" lon="-1.66184">
        <ele>239.418</ele>
        <time>2020-05-15T02:33:39Z</time>
      </trkpt>
      <trkpt lat="43.1206" lon="-1.66176">
        <ele>239.263</ele>
        <time>2020-05-15T02:33:59Z</time>
      </trkpt>
      <trkpt lat="43.12059" lon="-1.66169">
        <ele>240.087</ele>
        <time>2020-05-15T02:34:19Z</time>
      </trkpt>
      <trkpt lat="43.12057" lon="-1.66159">
        <ele>238.595</ele>
        <time>2020-05-15T02:34:39Z</time>
      </trkpt>
      <trkpt lat="43.12055" lon="-1.66149">
        <ele>237.93</ele>
        <time>2020-05-15T02:34:59Z</time>
      </trkpt>
      <trkpt lat="43.12052" lon="-1.66137">
        <ele>237.19</ele>
        <time>2020-05-15T02:35:19Z</time>
      </trkpt>
      <trkpt lat="43.12049" lon="-1.66126">
        <ele>236.637</ele>
        <time>2020-05-15T02:35:39Z</time>
      </trkpt>
      <trkpt lat="43.12045" lon="-1.66112">
        <ele>236.899</ele>
        <time>2020-05-15T02:35:59Z</time>
      </trkpt>
      <trkpt lat="43.1204" lon="-1.66098">
        <ele>234.742</ele>
        <time>2020-05-15T02:36:19Z</time>
      </trkpt>
      <trkpt lat="43.12039" lon="-1.66094">
        <ele>233.022</ele>
        <time>2020-05-15T02:36:39Z</time>
      </trkpt>
      <trkpt lat="43.12038" lon="-1.6609">
        <ele>232.614</ele>
        <time>2020-05-15T02:36:59Z</time>
      </trkpt>
      <trkpt lat="43.12035" lon="-1.66075">
        <ele>231.408</ele>
        <time>2020-05-15T02:37:19Z</time>
      </trkpt>
      <trkpt lat="43.12033" lon="-1.66067">
        <ele>231.558</ele>
        <time>2020-05-15T02:37:39Z</time>
      </trkpt>
      <trkpt lat="43.12031" lon="-1.6606">
        <ele>233.383</ele>
        <time>2020-05-15T02:37:59Z</time>
      </trkpt>
      <trkpt lat="43.12027" lon="-1.66044">
        <ele>230.117</ele>
        <time>2020-05-15T02:38:19Z</time>
      </trkpt>
      <trkpt lat="43.12025" lon="-1.66037">
        <ele>228.385</ele>
        <time>2020-05-15T02:38:39Z</time>
      </trkpt>
      <trkpt lat="43.12024" lon="-1.66033">
        <ele>227.96</ele>
        <time>2020-05-15T02:38:59Z</time>
      </trkpt>
      <trkpt lat="43.12024" lon="-1.66024">
        <ele>227.47</ele>
        <time>2020-05-15T02:39:19Z</time>
      </trkpt>
      <trkpt lat="43.12023" lon="-1.6602">
        <ele>227.167</ele>
        <time>2020-05-15T02:39:39Z</time>
      </trkpt>
      <trkpt lat="43.12023" lon="-1.66016">
        <ele>227.069</ele>
        <time>2020-05-15T02:39:59Z</time>
      </trkpt>
      <trkpt lat="43.12023" lon="-1.66007">
        <ele>226.819</ele>
        <time>2020-05-15T02:40:19Z</time>
      </trkpt>
      <trkpt lat="43.12023" lon="-1.66003">
        <ele>226.609</ele>
        <time>2020-05-15T02:40:39Z</time>
      </trkpt>
      <trkpt lat="43.12023" lon="-1.65999">
        <ele>226.619</ele>
        <time>2020-05-15T02:40:59Z</time>
      </trkpt>
      <trkpt lat="43.12023" lon="-1.65992">
        <ele>226.508</ele>
        <time>2020-05-15T02:41:19Z</time>
      </trkpt>
      <trkpt lat="43.12024" lon="-1.65989">
        <ele>226.575</ele>
        <time>2020-05-15T02:41:39Z</time>
      </trkpt>
      <trkpt lat="43.12023" lon="-1.65986">
        <ele>226.48</ele>
        <time>2020-05-15T02:41:59Z</time>
      </trkpt>
      <trkpt lat="43.12023" lon="-1.65979">
        <ele>226.434</ele>
        <time>2020-05-15T02:42:19Z</time>
      </trkpt>
      <trkpt lat="43.12023" lon="-1.65973">
        <ele>226.492</ele>
        <time>2020-05-15T02:42:39Z</time>
      </trkpt>
      <trkpt lat="43.12021" lon="-1.65968">
        <ele>226.417</ele>
        <time>2020-05-15T02:42:59Z</time>
      </trkpt>
      <trkpt lat="43.1202" lon="-1.65964">
        <ele>226.237</ele>
        <time>2020-05-15T02:43:19Z</time>
      </trkpt>
      <trkpt lat="43.12016" lon="-1.65956">
        <ele>225.874</ele>
        <time>2020-05-15T02:43:39Z</time>
      </trkpt>
      <trkpt lat="43.12012" lon="-1.65948">
        <ele>228.666</ele>
        <time>2020-05-15T02:43:59Z</time>
      </trkpt>
      <trkpt lat="43.12008" lon="-1.65943">
        <ele>227.821</ele>
        <time>2020-05-15T02:44:19Z</time>
      </trkpt>
      <trkpt lat="43.12004" lon="-1.65936">
        <ele>226.641</ele>
        <time>2020-05-15T02:44:39Z</time>
      </trkpt>
      <trkpt lat="43.12004" lon="-1.65935">
        <ele>226.605</ele>
        <time>2020-05-15T02:44:59Z</time>
      </trkpt>
      <trkpt lat="43.12003" lon="-1.65932">
        <ele>226.608</ele>
        <time>2020-05-15T02:45:19Z</time>
      </trkpt>
      <trkpt lat="43.12002" lon="-1.65929">
        <ele>226.736</ele>
        <time>2020-05-15T02:45:39Z</time>
      </trkpt>
      <trkpt lat="43.12" lon="-1.65925">
        <ele>226.771</ele>
        <time>2020-05-15T02:45:59Z</time>
      </trkpt>
      <trkpt lat="43.11999" lon="-1.65922">
        <ele>227.095</ele>
        <time>2020-05-15T02:46:19Z</time>
      </trkpt>
      <trkpt lat="43.11998" lon="-1.65914">
        <ele>228.873</ele>
        <time>2020-05-15T02:46:39Z</time>
      </trkpt>
      <trkpt lat="43.11997" lon="-1.65906">
        <ele>226.128</ele>
        <time>2020-05-15T02:46:59Z</time>
      </trkpt>
      <trkpt lat="43.11997" lon="-1.65905">
        <ele>226.188</ele>
        <time>2020-05-15T02:47:19Z</time>
      </trkpt>
      <trkpt lat="43.11996" lon="-1.65897">
        <ele>226.135</ele>
        <time>2020-05-15T02:47:39Z</time>
      </trkpt>
      <trkpt lat="43.11996" lon="-1.65893">
        <ele>226.117</ele>
        <time>2020-05-15T02:47:59Z</time>
      </trkpt>
      <trkpt lat="43.11994" lon="-1.65892">
        <ele>226.169</ele>
        <time>2020-05-15T02:48:19Z</time>
      </trkpt>
      <trkpt lat="43.11993" lon="-1.65893">
        <ele>226.104</ele>
        <time>2020-05-15T02:48:39Z</time>
      </trkpt>
      <trkpt lat="43.11992" lon="-1.65894">
        <ele>225.924</ele>
        <time>2020-05-15T02:48:59Z</time>
      </trkpt>
      <trkpt lat="43.11989" lon="-1.65897">
        <ele>225.808</ele>
        <time>2020-05-15T02:49:19Z</time>
      </trkpt>
      <trkpt lat="43.11986" lon="-1.659">
        <ele>225.33</ele>
        <time>2020-05-15T02:49:39Z</time>
      </trkpt>
      <trkpt lat="43.11984" lon="-1.65903">
        <ele>225.045</ele>
        <time>2020-05-15T02:49:59Z</time>
      </trkpt>
      <trkpt lat="43.11982" lon="-1.65905">
        <ele>224.829</ele>
        <time>2020-05-15T02:50:19Z</time>
      </trkpt>
      <trkpt lat="43.11979" lon="-1.65909">
        <ele>224.417</ele>
        <time>2020-05-15T02:50:39Z</time>
      </trkpt>
      <trkpt lat="43.11977" lon="-1.65913">
        <ele>223.832</ele>
        <time>2020-05-15T02:50:59Z</time>
      </trkpt>
      <trkpt lat="43.11967" lon="-1.65928">
        <ele>223.112</ele>
        <time>2020-05-15T02:51:19Z</time>
      </trkpt>
      <trkpt lat="43.11963" lon="-1.65933">
        <ele>222.499</ele>
        <time>2020-05-15T02:51:39Z</time>
      </trkpt>
      <trkpt lat="43.11958" lon="-1.65942">
        <ele>222.271</ele>
        <time>2020-05-15T02:51:59Z</time>
      </trkpt>
      <trkpt lat="43.11946" lon="-1.65959">
        <ele>221.125</ele>
        <time>2020-05-15T02:52:19Z</time>
      </trkpt>
      <trkpt lat="43.11935" lon="-1.65976">
        <ele>220.426</ele>
        <time>2020-05-15T02:52:39Z</time>
      </trkpt>
      <trkpt lat="43.11925" lon="-1.6599">
        <ele>219.108</ele>
        <time>2020-05-15T02:52:59Z</time>
      </trkpt>
      <trkpt lat="43.11915" lon="-1.66005">
        <ele>218.608</ele>
        <time>2020-05-15T02:53:19Z</time>
      </trkpt>
      <trkpt lat="43.11902" lon="-1.66025">
        <ele>217.916</ele>
        <time>2020-05-15T02:53:39Z</time>
      </trkpt>
      <trkpt lat="43.11889" lon="-1.66045">
        <ele>217.051</ele>
        <time>2020-05-15T02:53:59Z</time>
      </trkpt>
      <trkpt lat="43.11876" lon="-1.66064">
        <ele>216.235</ele>
        <time>2020-05-15T02:54:19Z</time>
      </trkpt>
      <trkpt lat="43.11864" lon="-1.66083">
        <ele>215.553</ele>
        <time>2020-05-15T02:54:39Z</time>
      </trkpt>
      <trkpt lat="43.11849" lon="-1.66103">
        <ele>214.968</ele>
        <time>2020-05-15T02:54:59Z</time>
      </trkpt>
      <trkpt lat="43.11835" lon="-1.66124">
        <ele>214.168</ele>
        <time>2020-05-15T02:55:19Z</time>
      </trkpt>
      <trkpt lat="43.11822" lon="-1.66144">
        <ele>213.395</ele>
        <time>2020-05-15T02:55:39Z</time>
      </trkpt>
      <trkpt lat="43.11809" lon="-1.66163">
        <ele>212.777</ele>
        <time>2020-05-15T02:55:59Z</time>
      </trkpt>
      <trkpt lat="43.11784" lon="-1.66199">
        <ele>212.525</ele>
        <time>2020-05-15T02:56:19Z</time>
      </trkpt>
      <trkpt lat="43.1177" lon="-1.6622">
        <ele>212.426</ele>
        <time>2020-05-15T02:56:39Z</time>
      </trkpt>
      <trkpt lat="43.11757" lon="-1.66241">
        <ele>212.408</ele>
        <time>2020-05-15T02:56:59Z</time>
      </trkpt>
      <trkpt lat="43.11746" lon="-1.66257">
        <ele>213.008</ele>
        <time>2020-05-15T02:57:19Z</time>
      </trkpt>
      <trkpt lat="43.11734" lon="-1.66273">
        <ele>212.576</ele>
        <time>2020-05-15T02:57:39Z</time>
      </trkpt>
      <trkpt lat="43.1172" lon="-1.66295">
        <ele>212.551</ele>
        <time>2020-05-15T02:57:59Z</time>
      </trkpt>
      <trkpt lat="43.11706" lon="-1.66317">
        <ele>213.215</ele>
        <time>2020-05-15T02:58:19Z</time>
      </trkpt>
      <trkpt lat="43.11698" lon="-1.66328">
        <ele>212.543</ele>
        <time>2020-05-15T02:58:39Z</time>
      </trkpt>
      <trkpt lat="43.11691" lon="-1.66338">
        <ele>212.998</ele>
        <time>2020-05-15T02:58:59Z</time>
      </trkpt>
      <trkpt lat="43.11689" lon="-1.66342">
        <ele>212.918</ele>
        <time>2020-05-15T02:59:19Z</time>
      </trkpt>
      <trkpt lat="43.11686" lon="-1.66346">
        <ele>212.695</ele>
        <time>2020-05-15T02:59:39Z</time>
      </trkpt>
      <trkpt lat="43.11679" lon="-1.66358">
        <ele>213.257</ele>
        <time>2020-05-15T02:59:59Z</time>
      </trkpt>
      <trkpt lat="43.11675" lon="-1.66364">
        <ele>212.996</ele>
        <time>2020-05-15T03:00:19Z</time>
      </trkpt>
      <trkpt lat="43.11672" lon="-1.6637">
        <ele>212.831</ele>
        <time>2020-05-15T03:00:39Z</time>
      </trkpt>
      <trkpt lat="43.11663" lon="-1.66386">
        <ele>211.024</ele>
        <time>2020-05-15T03:00:59Z</time>
      </trkpt>
      <trkpt lat="43.11654" lon="-1.66402">
        <ele>209.908</ele>
        <time>2020-05-15T03:01:19Z</time>
      </trkpt>
      <trkpt lat="43.11649" lon="-1.66411">
        <ele>209.043</ele>
        <time>2020-05-15T03:01:39Z</time>
      </trkpt>
      <trkpt lat="43.11644" lon="-1.6642">
        <ele>208.288</ele>
        <time>2020-05-15T03:01:59Z</time>
      </trkpt>
      <trkpt lat="43.11641" lon="-1.66424">
        <ele>207.912</ele>
        <time>2020-05-15T03:02:19Z</time>
      </trkpt>
      <trkpt lat="43.11638" lon="-1.66429">
        <ele>207.52</ele>
        <time>2020-05-15T03:02:39Z</time>
      </trkpt>
      <trkpt lat="43.11634" lon="-1.66434">
        <ele>207.285</ele>
        <time>2020-05-15T03:02:59Z</time>
      </trkpt>
      <trkpt lat="43.11628" lon="-1.66441">
        <ele>206.045</ele>
        <time>2020-05-15T03:03:19Z</time>
      </trkpt>
      <trkpt lat="43.1162" lon="-1.66452">
        <ele>205.172</ele>
        <time>2020-05-15T03:03:39Z</time>
      </trkpt>
      <trkpt lat="43.11615" lon="-1.66458">
        <ele>204.184</ele>
        <time>2020-05-15T03:03:59Z</time>
      </trkpt>
      <trkpt lat="43.11606" lon="-1.6647">
        <ele>203.183</ele>
        <time>2020-05-15T03:04:19Z</time>
      </trkpt>
      <trkpt lat="43.11605" lon="-1.66471">
        <ele>203.125</ele>
        <time>2020-05-15T03:04:39Z</time>
      </trkpt>
      <trkpt lat="43.11593" lon="-1.66487">
        <ele>201.417</ele>
        <time>2020-05-15T03:04:59Z</time>
      </trkpt>
      <trkpt lat="43.11582" lon="-1.66502">
        <ele>200.908</ele>
        <time>2020-05-15T03:05:19Z</time>
      </trkpt>
      <trkpt lat="43.11576" lon="-1.66509">
        <ele>199.072</ele>
        <time>2020-05-15T03:05:39Z</time>
      </trkpt>
      <trkpt lat="43.1157" lon="-1.66516">
        <ele>198.597</ele>
        <time>2020-05-15T03:05:59Z</time>
      </trkpt>
      <trkpt lat="43.11565" lon="-1.66522">
        <ele>198.091</ele>
        <time>2020-05-15T03:06:19Z</time>
      </trkpt>
      <trkpt lat="43.11561" lon="-1.66529">
        <ele>197.429</ele>
        <time>2020-05-15T03:06:39Z</time>
      </trkpt>
      <trkpt lat="43.11559" lon="-1.6653">
        <ele>197.434</ele>
        <time>2020-05-15T03:06:59Z</time>
      </trkpt>
      <trkpt lat="43.11555" lon="-1.66532">
        <ele>196.684</ele>
        <time>2020-05-15T03:07:19Z</time>
      </trkpt>
      <trkpt lat="43.11553" lon="-1.66548">
        <ele>195.951</ele>
        <time>2020-05-15T03:07:39Z</time>
      </trkpt>
      <trkpt lat="43.11553" lon="-1.66551">
        <ele>195.623</ele>
        <time>2020-05-15T03:07:59Z</time>
      </trkpt>
      <trkpt lat="43.11553" lon="-1.66554">
        <ele>195.666</ele>
        <time>2020-05-15T03:08:19Z</time>
      </trkpt>
      <trkpt lat="43.11552" lon="-1.66558">
        <ele>195.129</ele>
        <time>2020-05-15T03:08:39Z</time>
      </trkpt>
      <trkpt lat="43.11553" lon="-1.66585">
        <ele>193.921</ele>
        <time>2020-05-15T03:08:59Z</time>
      </trkpt>
      <trkpt lat="43.11553" lon="-1.66612">
        <ele>192.608</ele>
        <time>2020-05-15T03:09:19Z</time>
      </trkpt>
      <trkpt lat="43.11553" lon="-1.6662">
        <ele>192.44</ele>
        <time>2020-05-15T03:09:39Z</time>
      </trkpt>
      <trkpt lat="43.11554" lon="-1.66628">
        <ele>192.285</ele>
        <time>2020-05-15T03:09:59Z</time>
      </trkpt>
      <trkpt lat="43.11555" lon="-1.66635">
        <ele>191.949</ele>
        <time>2020-05-15T03:10:19Z</time>
      </trkpt>
      <trkpt lat="43.11556" lon="-1.66642">
        <ele>191.517</ele>
        <time>2020-05-15T03:10:39Z</time>
      </trkpt>
      <trkpt lat="43.11556" lon="-1.66647">
        <ele>191.542</ele>
        <time>2020-05-15T03:10:59Z</time>
      </trkpt>
      <trkpt lat="43.11557" lon="-1.66652">
        <ele>191.342</ele>
        <time>2020-05-15T03:11:19Z</time>
      </trkpt>
      <trkpt lat="43.11557" lon="-1.66656">
        <ele>191.059</ele>
        <time>2020-05-15T03:11:39Z</time>
      </trkpt>
      <trkpt lat="43.11557" lon="-1.66661">
        <ele>190.731</ele>
        <time>2020-05-15T03:11:59Z</time>
      </trkpt>
      <trkpt lat="43.11557" lon="-1.66666">
        <ele>190.722</ele>
        <time>2020-05-15T03:12:19Z</time>
      </trkpt>
      <trkpt lat="43.11557" lon="-1.6667">
        <ele>190.662</ele>
        <time>2020-05-15T03:12:39Z</time>
      </trkpt>
      <trkpt lat="43.11556" lon="-1.66685">
        <ele>189.808</ele>
        <time>2020-05-15T03:12:59Z</time>
      </trkpt>
      <trkpt lat="43.11554" lon="-1.667">
        <ele>189.408</ele>
        <time>2020-05-15T03:13:19Z</time>
      </trkpt>
      <trkpt lat="43.11552" lon="-1.66716">
        <ele>188.476</ele>
        <time>2020-05-15T03:13:39Z</time>
      </trkpt>
      <trkpt lat="43.1155" lon="-1.66733">
        <ele>188.821</ele>
        <time>2020-05-15T03:13:59Z</time>
      </trkpt>
      <trkpt lat="43.11536" lon="-1.66842">
        <ele>190.135</ele>
        <time>2020-05-15T03:14:19Z</time>
      </trkpt>
      <trkpt lat="43.11534" lon="-1.66852">
        <ele>188.583</ele>
        <time>2020-05-15T03:14:39Z</time>
      </trkpt>
      <trkpt lat="43.11532" lon="-1.66862">
        <ele>188.688</ele>
        <time>2020-05-15T03:14:59Z</time>
      </trkpt>
      <trkpt lat="43.11531" lon="-1.66866">
        <ele>188.668</ele>
        <time>2020-05-15T03:15:19Z</time>
      </trkpt>
      <trkpt lat="43.1153" lon="-1.6687">
        <ele>188.535</ele>
        <time>2020-05-15T03:15:39Z</time>
      </trkpt>
      <trkpt lat="43.11529" lon="-1.66874">
        <ele>188.537</ele>
        <time>2020-05-15T03:15:59Z</time>
      </trkpt>
      <trkpt lat="43.11528" lon="-1.66878">
        <ele>188.542</ele>
        <time>2020-05-15T03:16:19Z</time>
      </trkpt>
      <trkpt lat="43.11525" lon="-1.66885">
        <ele>188.422</ele>
        <time>2020-05-15T03:16:39Z</time>
      </trkpt>
      <trkpt lat="43.11523" lon="-1.66892">
        <ele>188.114</ele>
        <time>2020-05-15T03:16:59Z</time>
      </trkpt>
      <trkpt lat="43.11522" lon="-1.66893">
        <ele>188.208</ele>
        <time>2020-05-15T03:17:19Z</time>
      </trkpt>
      <trkpt lat="43.11519" lon="-1.669">
        <ele>188.018</ele>
        <time>2020-05-15T03:17:39Z</time>
      </trkpt>
      <trkpt lat="43.11515" lon="-1.66908">
        <ele>187.233</ele>
        <time>2020-05-15T03:17:59Z</time>
      </trkpt>
      <trkpt lat="43.11508" lon="-1.66923">
        <ele>186.557</ele>
        <time>2020-05-15T03:18:19Z</time>
      </trkpt>
      <trkpt lat="43.115" lon="-1.66937">
        <ele>186.235</ele>
        <time>2020-05-15T03:18:39Z</time>
      </trkpt>
      <trkpt lat="43.11494" lon="-1.6695">
        <ele>184.77</ele>
        <time>2020-05-15T03:18:59Z</time>
      </trkpt>
      <trkpt lat="43.11488" lon="-1.66963">
        <ele>184.74</ele>
        <time>2020-05-15T03:19:19Z</time>
      </trkpt>
      <trkpt lat="43.11482" lon="-1.66975">
        <ele>183.197</ele>
        <time>2020-05-15T03:19:39Z</time>
      </trkpt>
      <trkpt lat="43.11475" lon="-1.66987">
        <ele>182.899</ele>
        <time>2020-05-15T03:19:59Z</time>
      </trkpt>
      <trkpt lat="43.1146" lon="-1.67018">
        <ele>180.913</ele>
        <time>2020-05-15T03:20:19Z</time>
      </trkpt>
      <trkpt lat="43.11446" lon="-1.67049">
        <ele>179.443</ele>
        <time>2020-05-15T03:20:39Z</time>
      </trkpt>
      <trkpt lat="43.11444" lon="-1.67053">
        <ele>179.207</ele>
        <time>2020-05-15T03:20:59Z</time>
      </trkpt>
      <trkpt lat="43.11439" lon="-1.67062">
        <ele>179.208</ele>
        <time>2020-05-15T03:21:19Z</time>
      </trkpt>
      <trkpt lat="43.11436" lon="-1.67069">
        <ele>179.045</ele>
        <time>2020-05-15T03:21:39Z</time>
      </trkpt>
      <trkpt lat="43.11434" lon="-1.67073">
        <ele>178.94</ele>
        <time>2020-05-15T03:21:59Z</time>
      </trkpt>
      <trkpt lat="43.11433" lon="-1.67074">
        <ele>178.924</ele>
        <time>2020-05-15T03:22:19Z</time>
      </trkpt>
      <trkpt lat="43.11431" lon="-1.67078">
        <ele>178.982</ele>
        <time>2020-05-15T03:22:39Z</time>
      </trkpt>
      <trkpt lat="43.11427" lon="-1.67086">
        <ele>178.887</ele>
        <time>2020-05-15T03:22:59Z</time>
      </trkpt>
      <trkpt lat="43.11424" lon="-1.67094">
        <ele>178.777</ele>
        <time>2020-05-15T03:23:19Z</time>
      </trkpt>
      <trkpt lat="43.1142" lon="-1.67103">
        <ele>178.714</ele>
        <time>2020-05-15T03:23:39Z</time>
      </trkpt>
      <trkpt lat="43.11417" lon="-1.67109">
        <ele>178.836</ele>
        <time>2020-05-15T03:23:59Z</time>
      </trkpt>
      <trkpt lat="43.11417" lon="-1.6711">
        <ele>178.844</ele>
        <time>2020-05-15T03:24:19Z</time>
      </trkpt>
      <trkpt lat="43.11415" lon="-1.67116">
        <ele>178.605</ele>
        <time>2020-05-15T03:24:39Z</time>
      </trkpt>
      <trkpt lat="43.11412" lon="-1.67125">
        <ele>178.415</ele>
        <time>2020-05-15T03:24:59Z</time>
      </trkpt>
      <trkpt lat="43.11411" lon="-1.67131">
        <ele>178.508</ele>
        <time>2020-05-15T03:25:19Z</time>
      </trkpt>
      <trkpt lat="43.1141" lon="-1.67131">
        <ele>178.598</ele>
        <time>2020-05-15T03:25:39Z</time>
      </trkpt>
      <trkpt lat="43.11409" lon="-1.67134">
        <ele>178.533</ele>
        <time>2020-05-15T03:25:59Z</time>
      </trkpt>
      <trkpt lat="43.11405" lon="-1.67152">
        <ele>178.427</ele>
        <time>2020-05-15T03:26:19Z</time>
      </trkpt>
      <trkpt lat="43.114" lon="-1.67169">
        <ele>178.655</ele>
        <time>2020-05-15T03:26:39Z</time>
      </trkpt>
      <trkpt lat="43.11397" lon="-1.67181">
        <ele>178.81</ele>
        <time>2020-05-15T03:26:59Z</time>
      </trkpt>
      <trkpt lat="43.11393" lon="-1.67192">
        <ele>178.23</ele>
        <time>2020-05-15T03:27:19Z</time>
      </trkpt>
      <trkpt lat="43.11393" lon="-1.67194">
        <ele>178.357</ele>
        <time>2020-05-15T03:27:39Z</time>
      </trkpt>
      <trkpt lat="43.11388" lon="-1.67213">
        <ele>178.459</ele>
        <time>2020-05-15T03:27:59Z</time>
      </trkpt>
      <trkpt lat="43.11384" lon="-1.67227">
        <ele>178.398</ele>
        <time>2020-05-15T03:28:19Z</time>
      </trkpt>
      <trkpt lat="43.11383" lon="-1.67229">
        <ele>178.315</ele>
        <time>2020-05-15T03:28:39Z</time>
      </trkpt>
      <trkpt lat="43.11381" lon="-1.67238">
        <ele>178.226</ele>
        <time>2020-05-15T03:28:59Z</time>
      </trkpt>
      <trkpt lat="43.11378" lon="-1.67247">
        <ele>178.308</ele>
        <time>2020-05-15T03:29:19Z</time>
      </trkpt>
      <trkpt lat="43.11375" lon="-1.67256">
        <ele>177.773</ele>
        <time>2020-05-15T03:29:39Z</time>
      </trkpt>
      <trkpt lat="43.11372" lon="-1.67264">
        <ele>177.558</ele>
        <time>2020-05-15T03:29:59Z</time>
      </trkpt>
      <trkpt lat="43.1137" lon="-1.67271">
        <ele>177.422</ele>
        <time>2020-05-15T03:30:19Z</time>
      </trkpt>
      <trkpt lat="43.11367" lon="-1.67277">
        <ele>177.24</ele>
        <time>2020-05-15T03:30:39Z</time>
      </trkpt>
      <trkpt lat="43.11365" lon="-1.67282">
        <ele>178.125</ele>
        <time>2020-05-15T03:30:59Z</time>
      </trkpt>
      <trkpt lat="43.11363" lon="-1.67286">
        <ele>177.115</ele>
        <time>2020-05-15T03:31:19Z</time>
      </trkpt>
      <trkpt lat="43.1136" lon="-1.67291">
        <ele>176.592</ele>
        <time>2020-05-15T03:31:39Z</time>
      </trkpt>
      <trkpt lat="43.11358" lon="-1.67296">
        <ele>176.334</ele>
        <time>2020-05-15T03:31:59Z</time>
      </trkpt>
      <trkpt lat="43.11353" lon="-1.67304">
        <ele>175.699</ele>
        <time>2020-05-15T03:32:19Z</time>
      </trkpt>
      <trkpt lat="43.11348" lon="-1.67313">
        <ele>175.207</ele>
        <time>2020-05-15T03:32:39Z</time>
      </trkpt>
      <trkpt lat="43.11343" lon="-1.67319">
        <ele>174.727</ele>
        <time>2020-05-15T03:32:59Z</time>
      </trkpt>
      <trkpt lat="43.11339" lon="-1.67326">
        <ele>173.908</ele>
        <time>2020-05-15T03:33:19Z</time>
      </trkpt>
      <trkpt lat="43.11333" lon="-1.67336">
        <ele>173.053</ele>
        <time>2020-05-15T03:33:39Z</time>
      </trkpt>
      <trkpt lat="43.11326" lon="-1.67345">
        <ele>172.698</ele>
        <time>2020-05-15T03:33:59Z</time>
      </trkpt>
      <trkpt lat="43.11322" lon="-1.67351">
        <ele>171.992</ele>
        <time>2020-05-15T03:34:19Z</time>
      </trkpt>
      <trkpt lat="43.11318" lon="-1.67356">
        <ele>171.45</ele>
        <time>2020-05-15T03:34:39Z</time>
      </trkpt>
      <trkpt lat="43.11313" lon="-1.67363">
        <ele>171.065</ele>
        <time>2020-05-15T03:34:59Z</time>
      </trkpt>
      <trkpt lat="43.11308" lon="-1.6737">
        <ele>170.785</ele>
        <time>2020-05-15T03:35:19Z</time>
      </trkpt>
      <trkpt lat="43.11304" lon="-1.67376">
        <ele>169.872</ele>
        <time>2020-05-15T03:35:39Z</time>
      </trkpt>
      <trkpt lat="43.11299" lon="-1.67383">
        <ele>169.454</ele>
        <time>2020-05-15T03:35:59Z</time>
      </trkpt>
      <trkpt lat="43.11294" lon="-1.6739">
        <ele>169.028</ele>
        <time>2020-05-15T03:36:19Z</time>
      </trkpt>
      <trkpt lat="43.11286" lon="-1.67401">
        <ele>168.089</ele>
        <time>2020-05-15T03:36:39Z</time>
      </trkpt>
      <trkpt lat="43.11279" lon="-1.67411">
        <ele>167.717</ele>
        <time>2020-05-15T03:36:59Z</time>
      </trkpt>
      <trkpt lat="43.11277" lon="-1.67414">
        <ele>167.708</ele>
        <time>2020-05-15T03:37:19Z</time>
      </trkpt>
      <trkpt lat="43.11273" lon="-1.67423">
        <ele>168.766</ele>
        <time>2020-05-15T03:37:39Z</time>
      </trkpt>
      <trkpt lat="43.11269" lon="-1.67432">
        <ele>167.591</ele>
        <time>2020-05-15T03:37:59Z</time>
      </trkpt>
      <trkpt lat="43.11264" lon="-1.67446">
        <ele>167.355</ele>
        <time>2020-05-15T03:38:19Z</time>
      </trkpt>
      <trkpt lat="43.11259" lon="-1.6746">
        <ele>167.023</ele>
        <time>2020-05-15T03:38:39Z</time>
      </trkpt>
      <trkpt lat="43.11255" lon="-1.67469">
        <ele>166.968</ele>
        <time>2020-05-15T03:38:59Z</time>
      </trkpt>
      <trkpt lat="43.11254" lon="-1.67476">
        <ele>166.658</ele>
        <time>2020-05-15T03:39:19Z</time>
      </trkpt>
      <trkpt lat="43.11252" lon="-1.67483">
        <ele>166.555</ele>
        <time>2020-05-15T03:39:39Z</time>
      </trkpt>
      <trkpt lat="43.11248" lon="-1.67501">
        <ele>166.047</ele>
        <time>2020-05-15T03:39:59Z</time>
      </trkpt>
      <trkpt lat="43.11244" lon="-1.6752">
        <ele>165.688</ele>
        <time>2020-05-15T03:40:19Z</time>
      </trkpt>
      <trkpt lat="43.11243" lon="-1.67525">
        <ele>165.124</ele>
        <time>2020-05-15T03:40:39Z</time>
      </trkpt>
      <trkpt lat="43.11243" lon="-1.6753">
        <ele>164.926</ele>
        <time>2020-05-15T03:40:59Z</time>
      </trkpt>
      <trkpt lat="43.11243" lon="-1.67535">
        <ele>164.608</ele>
        <time>2020-05-15T03:41:19Z</time>
      </trkpt>
      <trkpt lat="43.11242" lon="-1.67542">
        <ele>164.442</ele>
        <time>2020-05-15T03:41:39Z</time>
      </trkpt>
      <trkpt lat="43.11242" lon="-1.67545">
        <ele>164.457</ele>
        <time>2020-05-15T03:41:59Z</time>
      </trkpt>
      <trkpt lat="43.11243" lon="-1.67549">
        <ele>164.021</ele>
        <time>2020-05-15T03:42:19Z</time>
      </trkpt>
      <trkpt lat="43.11243" lon="-1.67556">
        <ele>163.859</ele>
        <time>2020-05-15T03:42:39Z</time>
      </trkpt>
      <trkpt lat="43.11245" lon="-1.67564">
        <ele>163.534</ele>
        <time>2020-05-15T03:42:59Z</time>
      </trkpt>
      <trkpt lat="43.11245" lon="-1.6757">
        <ele>163.214</ele>
        <time>2020-05-15T03:43:19Z</time>
      </trkpt>
      <trkpt lat="43.11247" lon="-1.67577">
        <ele>162.751</ele>
        <time>2020-05-15T03:43:39Z</time>
      </trkpt>
      <trkpt lat="43.11247" lon="-1.67581">
        <ele>162.763</ele>
        <time>2020-05-15T03:43:59Z</time>
      </trkpt>
      <trkpt lat="43.11248" lon="-1.67584">
        <ele>162.258</ele>
        <time>2020-05-15T03:44:19Z</time>
      </trkpt>
      <trkpt lat="43.1125" lon="-1.67597">
        <ele>162.352</ele>
        <time>2020-05-15T03:44:39Z</time>
      </trkpt>
      <trkpt lat="43.11251" lon="-1.676">
        <ele>162.317</ele>
        <time>2020-05-15T03:44:59Z</time>
      </trkpt>
      <trkpt lat="43.11251" lon="-1.67603">
        <ele>162.308</ele>
        <time>2020-05-15T03:45:19Z</time>
      </trkpt>
      <trkpt lat="43.11253" lon="-1.67613">
        <ele>162.279</ele>
        <time>2020-05-15T03:45:39Z</time>
      </trkpt>
      <trkpt lat="43.11254" lon="-1.67623">
        <ele>162.144</ele>
        <time>2020-05-15T03:45:59Z</time>
      </trkpt>
      <trkpt lat="43.11255" lon="-1.67626">
        <ele>162.128</ele>
        <time>2020-05-15T03:46:19Z</time>
      </trkpt>
      <trkpt lat="43.11255" lon="-1.6763">
        <ele>162.176</ele>
        <time>2020-05-15T03:46:39Z</time>
      </trkpt>
      <trkpt lat="43.11255" lon="-1.67643">
        <ele>162.161</ele>
        <time>2020-05-15T03:46:59Z</time>
      </trkpt>
      <trkpt lat="43.11254" lon="-1.67647">
        <ele>162.291</ele>
        <time>2020-05-15T03:47:19Z</time>
      </trkpt>
      <trkpt lat="43.11254" lon="-1.67651">
        <ele>162.348</ele>
        <time>2020-05-15T03:47:39Z</time>
      </trkpt>
      <trkpt lat="43.11254" lon="-1.67656">
        <ele>162.38</ele>
        <time>2020-05-15T03:47:59Z</time>
      </trkpt>
      <trkpt lat="43.11253" lon="-1.6766">
        <ele>162.496</ele>
        <time>2020-05-15T03:48:19Z</time>
      </trkpt>
      <trkpt lat="43.11252" lon="-1.67666">
        <ele>162.431</ele>
        <time>2020-05-15T03:48:39Z</time>
      </trkpt>
      <trkpt lat="43.11251" lon="-1.67672">
        <ele>162.624</ele>
        <time>2020-05-15T03:48:59Z</time>
      </trkpt>
      <trkpt lat="43.1125" lon="-1.67678">
        <ele>162.708</ele>
        <time>2020-05-15T03:49:19Z</time>
      </trkpt>
      <trkpt lat="43.11248" lon="-1.67685">
        <ele>162.873</ele>
        <time>2020-05-15T03:49:39Z</time>
      </trkpt>
      <trkpt lat="43.11245" lon="-1.677">
        <ele>163.028</ele>
        <time>2020-05-15T03:49:59Z</time>
      </trkpt>
      <trkpt lat="43.11243" lon="-1.67708">
        <ele>163.082</ele>
        <time>2020-05-15T03:50:19Z</time>
      </trkpt>
      <trkpt lat="43.11241" lon="-1.67718">
        <ele>162.54</ele>
        <time>2020-05-15T03:50:39Z</time>
      </trkpt>
      <trkpt lat="43.11239" lon="-1.67728">
        <ele>163.355</ele>
        <time>2020-05-15T03:50:59Z</time>
      </trkpt>
      <trkpt lat="43.11236" lon="-1.6774">
        <ele>163.395</ele>
        <time>2020-05-15T03:51:19Z</time>
      </trkpt>
      <trkpt lat="43.11234" lon="-1.67751">
        <ele>163.672</ele>
        <time>2020-05-15T03:51:39Z</time>
      </trkpt>
      <trkpt lat="43.11231" lon="-1.67765">
        <ele>163.664</ele>
        <time>2020-05-15T03:51:59Z</time>
      </trkpt>
      <trkpt lat="43.11228" lon="-1.67778">
        <ele>163.613</ele>
        <time>2020-05-15T03:52:19Z</time>
      </trkpt>
      <trkpt lat="43.11223" lon="-1.67805">
        <ele>163.643</ele>
        <time>2020-05-15T03:52:39Z</time>
      </trkpt>
      <trkpt lat="43.11222" lon="-1.67808">
        <ele>163.607</ele>
        <time>2020-05-15T03:52:59Z</time>
      </trkpt>
      <trkpt lat="43.11222" lon="-1.67811">
        <ele>167.608</ele>
        <time>2020-05-15T03:53:19Z</time>
      </trkpt>
      <trkpt lat="43.11222" lon="-1.67814">
        <ele>167.625</ele>
        <time>2020-05-15T03:53:39Z</time>
      </trkpt>
      <trkpt lat="43.11222" lon="-1.67818">
        <ele>165.17</ele>
        <time>2020-05-15T03:53:59Z</time>
      </trkpt>
      <trkpt lat="43.11222" lon="-1.67825">
        <ele>164.084</ele>
        <time>2020-05-15T03:54:19Z</time>
      </trkpt>
      <trkpt lat="43.11223" lon="-1.67833">
        <ele>163.842</ele>
        <time>2020-05-15T03:54:39Z</time>
      </trkpt>
      <trkpt lat="43.11223" lon="-1.67843">
        <ele>163.557</ele>
        <time>2020-05-15T03:54:59Z</time>
      </trkpt>
      <trkpt lat="43.11223" lon="-1.67853">
        <ele>163.457</ele>
        <time>2020-05-15T03:55:19Z</time>
      </trkpt>
      <trkpt lat="43.11223" lon="-1.67862">
        <ele>162.694</ele>
        <time>2020-05-15T03:55:39Z</time>
      </trkpt>
      <trkpt lat="43.11223" lon="-1.67872">
        <ele>162.086</ele>
        <time>2020-05-15T03:55:59Z</time>
      </trkpt>
      <trkpt lat="43.11223" lon="-1.67886">
        <ele>162.251</ele>
        <time>2020-05-15T03:56:19Z</time>
      </trkpt>
      <trkpt lat="43.11223" lon="-1.679">
        <ele>161.401</ele>
        <time>2020-05-15T03:56:39Z</time>
      </trkpt>
      <trkpt lat="43.11222" lon="-1.67929">
        <ele>160.011</ele>
        <time>2020-05-15T03:56:59Z</time>
      </trkpt>
      <trkpt lat="43.11222" lon="-1.67948">
        <ele>159.208</ele>
        <time>2020-05-15T03:57:19Z</time>
      </trkpt>
      <trkpt lat="43.11222" lon="-1.67966">
        <ele>158.649</ele>
        <time>2020-05-15T03:57:39Z</time>
      </trkpt>
      <trkpt lat="43.11222" lon="-1.6797">
        <ele>158.494</ele>
        <time>2020-05-15T03:57:59Z</time>
      </trkpt>
      <trkpt lat="43.11223" lon="-1.67975">
        <ele>158.458</ele>
        <time>2020-05-15T03:58:19Z</time>
      </trkpt>
      <trkpt lat="43.11223" lon="-1.67979">
        <ele>158.326</ele>
        <time>2020-05-15T03:58:39Z</time>
      </trkpt>
      <trkpt lat="43.11223" lon="-1.67984">
        <ele>158.991</ele>
        <time>2020-05-15T03:58:59Z</time>
      </trkpt>
      <trkpt lat="43.11224" lon="-1.67988">
        <ele>158.911</ele>
        <time>2020-05-15T03:59:19Z</time>
      </trkpt>
      <trkpt lat="43.11225" lon="-1.67992">
        <ele>158.368</ele>
        <time>2020-05-15T03:59:39Z</time>
      </trkpt>
      <trkpt lat="43.11227" lon="-1.67997">
        <ele>158.06</ele>
        <time>2020-05-15T03:59:59Z</time>
      </trkpt>
      <trkpt lat="43.11228" lon="-1.68002">
        <ele>158.161</ele>
        <time>2020-05-15T04:00:19Z</time>
      </trkpt>
      <trkpt lat="43.1123" lon="-1.68006">
        <ele>158.321</ele>
        <time>2020-05-15T04:00:39Z</time>
      </trkpt>
      <trkpt lat="43.11231" lon="-1.68009">
        <ele>158.113</ele>
        <time>2020-05-15T04:00:59Z</time>
      </trkpt>
      <trkpt lat="43.11233" lon="-1.68013">
        <ele>158.308</ele>
        <time>2020-05-15T04:01:19Z</time>
      </trkpt>
      <trkpt lat="43.11235" lon="-1.68018">
        <ele>158.03</ele>
        <time>2020-05-15T04:01:39Z</time>
      </trkpt>
      <trkpt lat="43.11239" lon="-1.68025">
        <ele>158.095</ele>
        <time>2020-05-15T04:01:59Z</time>
      </trkpt>
      <trkpt lat="43.11244" lon="-1.68033">
        <ele>158.079</ele>
        <time>2020-05-15T04:02:19Z</time>
      </trkpt>
      <trkpt lat="43.11247" lon="-1.68039">
        <ele>158.017</ele>
        <time>2020-05-15T04:02:39Z</time>
      </trkpt>
      <trkpt lat="43.1125" lon="-1.68045">
        <ele>157.932</ele>
        <time>2020-05-15T04:02:59Z</time>
      </trkpt>
      <trkpt lat="43.11252" lon="-1.68048">
        <ele>157.952</ele>
        <time>2020-05-15T04:03:19Z</time>
      </trkpt>
      <trkpt lat="43.11253" lon="-1.68051">
        <ele>157.849</ele>
        <time>2020-05-15T04:03:39Z</time>
      </trkpt>
      <trkpt lat="43.11254" lon="-1.68054">
        <ele>157.831</ele>
        <time>2020-05-15T04:03:59Z</time>
      </trkpt>
      <trkpt lat="43.11255" lon="-1.68059">
        <ele>157.516</ele>
        <time>2020-05-15T04:04:19Z</time>
      </trkpt>
      <trkpt lat="43.11256" lon="-1.68061">
        <ele>157.576</ele>
        <time>2020-05-15T04:04:39Z</time>
      </trkpt>
      <trkpt lat="43.11256" lon="-1.68063">
        <ele>157.313</ele>
        <time>2020-05-15T04:04:59Z</time>
      </trkpt>
      <trkpt lat="43.11256" lon="-1.68066">
        <ele>157.308</ele>
        <time>2020-05-15T04:05:19Z</time>
      </trkpt>
      <trkpt lat="43.11256" lon="-1.68069">
        <ele>157.135</ele>
        <time>2020-05-15T04:05:39Z</time>
      </trkpt>
      <trkpt lat="43.11257" lon="-1.68072">
        <ele>157.12</ele>
        <time>2020-05-15T04:05:59Z</time>
      </trkpt>
      <trkpt lat="43.11257" lon="-1.68079">
        <ele>156.814</ele>
        <time>2020-05-15T04:06:19Z</time>
      </trkpt>
      <trkpt lat="43.11257" lon="-1.68086">
        <ele>156.492</ele>
        <time>2020-05-15T04:06:39Z</time>
      </trkpt>
      <trkpt lat="43.11257" lon="-1.68122">
        <ele>155.457</ele>
        <time>2020-05-15T04:06:59Z</time>
      </trkpt>
      <trkpt lat="43.11255" lon="-1.68123">
        <ele>155.317</ele>
        <time>2020-05-15T04:07:19Z</time>
      </trkpt>
      <trkpt lat="43.11253" lon="-1.68126">
        <ele>155.384</ele>
        <time>2020-05-15T04:07:39Z</time>
      </trkpt>
      <trkpt lat="43.1125" lon="-1.68131">
        <ele>155.376</ele>
        <time>2020-05-15T04:07:59Z</time>
      </trkpt>
      <trkpt lat="43.1125" lon="-1.68135">
        <ele>155.313</ele>
        <time>2020-05-15T04:08:19Z</time>
      </trkpt>
      <trkpt lat="43.11251" lon="-1.68141">
        <ele>155.143</ele>
        <time>2020-05-15T04:08:39Z</time>
      </trkpt>
      <trkpt lat="43.1125" lon="-1.68154">
        <ele>154.107</ele>
        <time>2020-05-15T04:08:59Z</time>
      </trkpt>
      <trkpt lat="43.1125" lon="-1.68163">
        <ele>153.908</ele>
        <time>2020-05-15T04:09:19Z</time>
      </trkpt>
      <trkpt lat="43.1125" lon="-1.6817">
        <ele>154.455</ele>
        <time>2020-05-15T04:09:39Z</time>
      </trkpt>
      <trkpt lat="43.11248" lon="-1.68185">
        <ele>152.53</ele>
        <time>2020-05-15T04:09:59Z</time>
      </trkpt>
      <trkpt lat="43.11247" lon="-1.68196">
        <ele>152.274</ele>
        <time>2020-05-15T04:10:19Z</time>
      </trkpt>
      <trkpt lat="43.11247" lon="-1.68204">
        <ele>152.112</ele>
        <time>2020-05-15T04:10:39Z</time>
      </trkpt>
      <trkpt lat="43.11247" lon="-1.68211">
        <ele>151.957</ele>
        <time>2020-05-15T04:10:59Z</time>
      </trkpt>
      <trkpt lat="43.11247" lon="-1.68219">
        <ele>151.897</ele>
        <time>2020-05-15T04:11:19Z</time>
      </trkpt>
      <trkpt lat="43.11247" lon="-1.68226">
        <ele>151.924</ele>
        <time>2020-05-15T04:11:39Z</time>
      </trkpt>
      <trkpt lat="43.11248" lon="-1.68239">
        <ele>151.716</ele>
        <time>2020-05-15T04:11:59Z</time>
      </trkpt>
      <trkpt lat="43.11249" lon="-1.68251">
        <ele>151.995</ele>
        <time>2020-05-15T04:12:19Z</time>
      </trkpt>
      <trkpt lat="43.11249" lon="-1.68255">
        <ele>152.449</ele>
        <time>2020-05-15T04:12:39Z</time>
      </trkpt>
      <trkpt lat="43.1125" lon="-1.68259">
        <ele>152.823</ele>
        <time>2020-05-15T04:12:59Z</time>
      </trkpt>
      <trkpt lat="43.1125" lon="-1.68263">
        <ele>152.808</ele>
        <time>2020-05-15T04:13:19Z</time>
      </trkpt>
      <trkpt lat="43.11251" lon="-1.68269">
        <ele>152.973</ele>
        <time>2020-05-15T04:13:39Z</time>
      </trkpt>
      <trkpt lat="43.11251" lon="-1.6827">
        <ele>152.978</ele>
        <time>2020-05-15T04:13:59Z</time>
      </trkpt>
      <trkpt lat="43.11252" lon="-1.68273">
        <ele>152.792</ele>
        <time>2020-05-15T04:14:19Z</time>
      </trkpt>
      <trkpt lat="43.11254" lon="-1.68285">
        <ele>154.12</ele>
        <time>2020-05-15T04:14:39Z</time>
      </trkpt>
      <trkpt lat="43.11254" lon="-1.68286">
        <ele>154.115</ele>
        <time>2020-05-15T04:14:59Z</time>
      </trkpt>
      <trkpt lat="43.11254" lon="-1.68287">
        <ele>154.135</ele>
        <time>2020-05-15T04:15:19Z</time>
      </trkpt>
      <trkpt lat="43.11254" lon="-1.68288">
        <ele>154.152</ele>
        <time>2020-05-15T04:15:39Z</time>
      </trkpt>
      <trkpt lat="43.11254" lon="-1.68289">
        <ele>154.294</ele>
        <time>2020-05-15T04:15:59Z</time>
      </trkpt>
      <trkpt lat="43.11254" lon="-1.68291">
        <ele>154.265</ele>
        <time>2020-05-15T04:16:19Z</time>
      </trkpt>
      <trkpt lat="43.11254" lon="-1.68293">
        <ele>154.268</ele>
        <time>2020-05-15T04:16:39Z</time>
      </trkpt>
      <trkpt lat="43.11253" lon="-1.68295">
        <ele>154.314</ele>
        <time>2020-05-15T04:16:59Z</time>
      </trkpt>
      <trkpt lat="43.11253" lon="-1.68298">
        <ele>154.308</ele>
        <time>2020-05-15T04:17:19Z</time>
      </trkpt>
      <trkpt lat="43.11252" lon="-1.68299">
        <ele>154.36</ele>
        <time>2020-05-15T04:17:39Z</time>
      </trkpt>
      <trkpt lat="43.11252" lon="-1.683">
        <ele>154.335</ele>
        <time>2020-05-15T04:17:59Z</time>
      </trkpt>
      <trkpt lat="43.11251" lon="-1.68301">
        <ele>154.329</ele>
        <time>2020-05-15T04:18:19Z</time>
      </trkpt>
      <trkpt lat="43.11251" lon="-1.68302">
        <ele>156.247</ele>
        <time>2020-05-15T04:18:39Z</time>
      </trkpt>
      <trkpt lat="43.1125" lon="-1.68304">
        <ele>154.512</ele>
        <time>2020-05-15T04:18:59Z</time>
      </trkpt>
      <trkpt lat="43.11247" lon="-1.68306">
        <ele>154.522</ele>
        <time>2020-05-15T04:19:19Z</time>
      </trkpt>
      <trkpt lat="43.11245" lon="-1.68309">
        <ele>154.789</ele>
        <time>2020-05-15T04:19:39Z</time>
      </trkpt>
      <trkpt lat="43.11239" lon="-1.68315">
        <ele>155.321</ele>
        <time>2020-05-15T04:19:59Z</time>
      </trkpt>
      <trkpt lat="43.1123" lon="-1.68321">
        <ele>155.474</ele>
        <time>2020-05-15T04:20:19Z</time>
      </trkpt>
      <trkpt lat="43.11222" lon="-1.68328">
        <ele>157.556</ele>
        <time>2020-05-15T04:20:39Z</time>
      </trkpt>
      <trkpt lat="43.11216" lon="-1.68334">
        <ele>160.321</ele>
        <time>2020-05-15T04:20:59Z</time>
      </trkpt>
      <trkpt lat="43.1121" lon="-1.6834">
        <ele>159.608</ele>
        <time>2020-05-15T04:21:19Z</time>
      </trkpt>
      <trkpt lat="43.11205" lon="-1.68345">
        <ele>160.091</ele>
        <time>2020-05-15T04:21:39Z</time>
      </trkpt>
      <trkpt lat="43.112" lon="-1.6835">
        <ele>160.986</ele>
        <time>2020-05-15T04:21:59Z</time>
      </trkpt>
      <trkpt lat="43.11195" lon="-1.68357">
        <ele>163.28</ele>
        <time>2020-05-15T04:22:19Z</time>
      </trkpt>
      <trkpt lat="43.11189" lon="-1.68364">
        <ele>163.538</ele>
        <time>2020-05-15T04:22:39Z</time>
      </trkpt>
      <trkpt lat="43.11185" lon="-1.68369">
        <ele>164.513</ele>
        <time>2020-05-15T04:22:59Z</time>
      </trkpt>
      <trkpt lat="43.11181" lon="-1.68374">
        <ele>165.293</ele>
        <time>2020-05-15T04:23:19Z</time>
      </trkpt>
      <trkpt lat="43.11169" lon="-1.68386">
        <ele>167.84</ele>
        <time>2020-05-15T04:23:39Z</time>
      </trkpt>
      <trkpt lat="43.11156" lon="-1.68399">
        <ele>170.232</ele>
        <time>2020-05-15T04:23:59Z</time>
      </trkpt>
      <trkpt lat="43.11151" lon="-1.68406">
        <ele>170.658</ele>
        <time>2020-05-15T04:24:19Z</time>
      </trkpt>
      <trkpt lat="43.11142" lon="-1.68418">
        <ele>170.652</ele>
        <time>2020-05-15T04:24:39Z</time>
      </trkpt>
      <trkpt lat="43.11139" lon="-1.68422">
        <ele>170.617</ele>
        <time>2020-05-15T04:24:59Z</time>
      </trkpt>
      <trkpt lat="43.11137" lon="-1.68425">
        <ele>170.608</ele>
        <time>2020-05-15T04:25:19Z</time>
      </trkpt>
      <trkpt lat="43.11135" lon="-1.68427">
        <ele>171.089</ele>
        <time>2020-05-15T04:25:39Z</time>
      </trkpt>
      <trkpt lat="43.11133" lon="-1.68428">
        <ele>170.734</ele>
        <time>2020-05-15T04:25:59Z</time>
      </trkpt>
      <trkpt lat="43.11131" lon="-1.6843">
        <ele>170.778</ele>
        <time>2020-05-15T04:26:19Z</time>
      </trkpt>
      <trkpt lat="43.1113" lon="-1.6843">
        <ele>170.416</ele>
        <time>2020-05-15T04:26:39Z</time>
      </trkpt>
      <trkpt lat="43.11129" lon="-1.68431">
        <ele>170.471</ele>
        <time>2020-05-15T04:26:59Z</time>
      </trkpt>
      <trkpt lat="43.11127" lon="-1.68431">
        <ele>170.441</ele>
        <time>2020-05-15T04:27:19Z</time>
      </trkpt>
      <trkpt lat="43.1112" lon="-1.68431">
        <ele>172.768</ele>
        <time>2020-05-15T04:27:39Z</time>
      </trkpt>
      <trkpt lat="43.11113" lon="-1.6843">
        <ele>172.52</ele>
        <time>2020-05-15T04:27:59Z</time>
      </trkpt>
      <trkpt lat="43.11108" lon="-1.68431">
        <ele>174.143</ele>
        <time>2020-05-15T04:28:19Z</time>
      </trkpt>
      <trkpt lat="43.11103" lon="-1.68431">
        <ele>173.964</ele>
        <time>2020-05-15T04:28:39Z</time>
      </trkpt>
      <trkpt lat="43.11099" lon="-1.68433">
        <ele>173.91</ele>
        <time>2020-05-15T04:28:59Z</time>
      </trkpt>
      <trkpt lat="43.11095" lon="-1.68434">
        <ele>176.508</ele>
        <time>2020-05-15T04:29:19Z</time>
      </trkpt>
      <trkpt lat="43.11093" lon="-1.68435">
        <ele>176.188</ele>
        <time>2020-05-15T04:29:39Z</time>
      </trkpt>
      <trkpt lat="43.1109" lon="-1.68437">
        <ele>176.173</ele>
        <time>2020-05-15T04:29:59Z</time>
      </trkpt>
      <trkpt lat="43.11087" lon="-1.68439">
        <ele>174.737</ele>
        <time>2020-05-15T04:30:19Z</time>
      </trkpt>
      <trkpt lat="43.11084" lon="-1.6844">
        <ele>176.365</ele>
        <time>2020-05-15T04:30:39Z</time>
      </trkpt>
      <trkpt lat="43.11081" lon="-1.68443">
        <ele>174.62</ele>
        <time>2020-05-15T04:30:59Z</time>
      </trkpt>
      <trkpt lat="43.11077" lon="-1.68446">
        <ele>174.69</ele>
        <time>2020-05-15T04:31:19Z</time>
      </trkpt>
      <trkpt lat="43.11073" lon="-1.68449">
        <ele>176.527</ele>
        <time>2020-05-15T04:31:39Z</time>
      </trkpt>
      <trkpt lat="43.11068" lon="-1.68453">
        <ele>179.259</ele>
        <time>2020-05-15T04:31:59Z</time>
      </trkpt>
      <trkpt lat="43.11064" lon="-1.68457">
        <ele>177.971</ele>
        <time>2020-05-15T04:32:19Z</time>
      </trkpt>
      <trkpt lat="43.1106" lon="-1.68461">
        <ele>178.541</ele>
        <time>2020-05-15T04:32:39Z</time>
      </trkpt>
      <trkpt lat="43.11053" lon="-1.6847">
        <ele>177.915</ele>
        <time>2020-05-15T04:32:59Z</time>
      </trkpt>
      <trkpt lat="43.11048" lon="-1.68477">
        <ele>178.908</ele>
        <time>2020-05-15T04:33:19Z</time>
      </trkpt>
      <trkpt lat="43.11043" lon="-1.68485">
        <ele>182.681</ele>
        <time>2020-05-15T04:33:39Z</time>
      </trkpt>
      <trkpt lat="43.11039" lon="-1.68491">
        <ele>182.696</ele>
        <time>2020-05-15T04:33:59Z</time>
      </trkpt>
      <trkpt lat="43.11038" lon="-1.68492">
        <ele>182.67</ele>
        <time>2020-05-15T04:34:19Z</time>
      </trkpt>
      <trkpt lat="43.11033" lon="-1.68499">
        <ele>183.368</ele>
        <time>2020-05-15T04:34:39Z</time>
      </trkpt>
      <trkpt lat="43.1103" lon="-1.68503">
        <ele>182.313</ele>
        <time>2020-05-15T04:34:59Z</time>
      </trkpt>
      <trkpt lat="43.11027" lon="-1.68507">
        <ele>182.283</ele>
        <time>2020-05-15T04:35:19Z</time>
      </trkpt>
      <trkpt lat="43.11015" lon="-1.68526">
        <ele>182.91</ele>
        <time>2020-05-15T04:35:39Z</time>
      </trkpt>
      <trkpt lat="43.11014" lon="-1.68527">
        <ele>182.922</ele>
        <time>2020-05-15T04:35:59Z</time>
      </trkpt>
      <trkpt lat="43.11" lon="-1.68549">
        <ele>183.991</ele>
        <time>2020-05-15T04:36:19Z</time>
      </trkpt>
      <trkpt lat="43.10994" lon="-1.68558">
        <ele>183.681</ele>
        <time>2020-05-15T04:36:39Z</time>
      </trkpt>
      <trkpt lat="43.10988" lon="-1.68565">
        <ele>184.919</ele>
        <time>2020-05-15T04:36:59Z</time>
      </trkpt>
      <trkpt lat="43.10982" lon="-1.68574">
        <ele>183.908</ele>
        <time>2020-05-15T04:37:19Z</time>
      </trkpt>
      <trkpt lat="43.10977" lon="-1.68583">
        <ele>184.143</ele>
        <time>2020-05-15T04:37:39Z</time>
      </trkpt>
      <trkpt lat="43.10977" lon="-1.68584">
        <ele>184.268</ele>
        <time>2020-05-15T04:37:59Z</time>
      </trkpt>
      <trkpt lat="43.10977" lon="-1.68586">
        <ele>184.252</ele>
        <time>2020-05-15T04:38:19Z</time>
      </trkpt>
      <trkpt lat="43.10976" lon="-1.68587">
        <ele>184.25</ele>
        <time>2020-05-15T04:38:39Z</time>
      </trkpt>
      <trkpt lat="43.10974" lon="-1.6859">
        <ele>183.735</ele>
        <time>2020-05-15T04:38:59Z</time>
      </trkpt>
      <trkpt lat="43.10972" lon="-1.68592">
        <ele>184.175</ele>
        <time>2020-05-15T04:39:19Z</time>
      </trkpt>
      <trkpt lat="43.10971" lon="-1.68591">
        <ele>184.142</ele>
        <time>2020-05-15T04:39:39Z</time>
      </trkpt>
      <trkpt lat="43.1097" lon="-1.68591">
        <ele>184.174</ele>
        <time>2020-05-15T04:39:59Z</time>
      </trkpt>
      <trkpt lat="43.10969" lon="-1.6859">
        <ele>183.939</ele>
        <time>2020-05-15T04:40:19Z</time>
      </trkpt>
      <trkpt lat="43.10965" lon="-1.68591">
        <ele>184.401</ele>
        <time>2020-05-15T04:40:39Z</time>
      </trkpt>
      <trkpt lat="43.10958" lon="-1.68591">
        <ele>183.421</ele>
        <time>2020-05-15T04:40:59Z</time>
      </trkpt>
      <trkpt lat="43.10955" lon="-1.68591">
        <ele>183.108</ele>
        <time>2020-05-15T04:41:19Z</time>
      </trkpt>
      <trkpt lat="43.10954" lon="-1.68591">
        <ele>183.187</ele>
        <time>2020-05-15T04:41:39Z</time>
      </trkpt>
      <trkpt lat="43.1095" lon="-1.68591">
        <ele>182.092</ele>
        <time>2020-05-15T04:41:59Z</time>
      </trkpt>
      <trkpt lat="43.1095" lon="-1.68591">
        <ele>182.076</ele>
        <time>2020-05-15T04:42:19Z</time>
      </trkpt>
      <trkpt lat="43.10949" lon="-1.68589">
        <ele>181.774</ele>
        <time>2020-05-15T04:42:39Z</time>
      </trkpt>
      <trkpt lat="43.10948" lon="-1.68587">
        <ele>181.769</ele>
        <time>2020-05-15T04:42:59Z</time>
      </trkpt>
      <trkpt lat="43.10947" lon="-1.68584">
        <ele>181.439</ele>
        <time>2020-05-15T04:43:19Z</time>
      </trkpt>
      <trkpt lat="43.10945" lon="-1.68583">
        <ele>181.186</ele>
        <time>2020-05-15T04:43:39Z</time>
      </trkpt>
      <trkpt lat="43.10944" lon="-1.6858">
        <ele>181.168</ele>
        <time>2020-05-15T04:43:59Z</time>
      </trkpt>
      <trkpt lat="43.10943" lon="-1.68579">
        <ele>181.162</ele>
        <time>2020-05-15T04:44:19Z</time>
      </trkpt>
      <trkpt lat="43.10943" lon="-1.68577">
        <ele>180.083</ele>
        <time>2020-05-15T04:44:39Z</time>
      </trkpt>
      <trkpt lat="43.10941" lon="-1.68576">
        <ele>180.011</ele>
        <time>2020-05-15T04:44:59Z</time>
      </trkpt>
      <trkpt lat="43.10941" lon="-1.68575">
        <ele>180.008</ele>
        <time>2020-05-15T04:45:19Z</time>
      </trkpt>
      <trkpt lat="43.10939" lon="-1.68573">
        <ele>180.03</ele>
        <time>2020-05-15T04:45:39Z</time>
      </trkpt>
      <trkpt lat="43.10938" lon="-1.68573">
        <ele>179.765</ele>
        <time>2020-05-15T04:45:59Z</time>
      </trkpt>
      <trkpt lat="43.10937" lon="-1.68572">
        <ele>179.719</ele>
        <time>2020-05-15T04:46:19Z</time>
      </trkpt>
      <trkpt lat="43.10936" lon="-1.68573">
        <ele>179.767</ele>
        <time>2020-05-15T04:46:39Z</time>
      </trkpt>
      <trkpt lat="43.10933" lon="-1.68574">
        <ele>179.342</ele>
        <time>2020-05-15T04:46:59Z</time>
      </trkpt>
      <trkpt lat="43.10929" lon="-1.68575">
        <ele>179.042</ele>
        <time>2020-05-15T04:47:19Z</time>
      </trkpt>
      <trkpt lat="43.10925" lon="-1.68577">
        <ele>179.099</ele>
        <time>2020-05-15T04:47:39Z</time>
      </trkpt>
      <trkpt lat="43.10923" lon="-1.68578">
        <ele>178.691</ele>
        <time>2020-05-15T04:47:59Z</time>
      </trkpt>
      <trkpt lat="43.10922" lon="-1.68578">
        <ele>178.633</ele>
        <time>2020-05-15T04:48:19Z</time>
      </trkpt>
      <trkpt lat="43.10921" lon="-1.68579">
        <ele>180.223</ele>
        <time>2020-05-15T04:48:39Z</time>
      </trkpt>
      <trkpt lat="43.10918" lon="-1.68581">
        <ele>179.915</ele>
        <time>2020-05-15T04:48:59Z</time>
      </trkpt>
      <trkpt lat="43.10916" lon="-1.68583">
        <ele>179.908</ele>
        <time>2020-05-15T04:49:19Z</time>
      </trkpt>
      <trkpt lat="43.10914" lon="-1.68585">
        <ele>178.317</ele>
        <time>2020-05-15T04:49:39Z</time>
      </trkpt>
      <trkpt lat="43.10913" lon="-1.68587">
        <ele>180.082</ele>
        <time>2020-05-15T04:49:59Z</time>
      </trkpt>
      <trkpt lat="43.10912" lon="-1.6859">
        <ele>180.046</ele>
        <time>2020-05-15T04:50:19Z</time>
      </trkpt>
      <trkpt lat="43.10909" lon="-1.68595">
        <ele>179.934</ele>
        <time>2020-05-15T04:50:39Z</time>
      </trkpt>
      <trkpt lat="43.10907" lon="-1.68599">
        <ele>177.559</ele>
        <time>2020-05-15T04:50:59Z</time>
      </trkpt>
      <trkpt lat="43.10906" lon="-1.686">
        <ele>177.559</ele>
        <time>2020-05-15T04:51:19Z</time>
      </trkpt>
      <trkpt lat="43.10906" lon="-1.68601">
        <ele>177.546</ele>
        <time>2020-05-15T04:51:39Z</time>
      </trkpt>
      <trkpt lat="43.10905" lon="-1.68602">
        <ele>177.588</ele>
        <time>2020-05-15T04:51:59Z</time>
      </trkpt>
      <trkpt lat="43.10902" lon="-1.68605">
        <ele>176.938</ele>
        <time>2020-05-15T04:52:19Z</time>
      </trkpt>
      <trkpt lat="43.10901" lon="-1.68606">
        <ele>176.97</ele>
        <time>2020-05-15T04:52:39Z</time>
      </trkpt>
      <trkpt lat="43.10899" lon="-1.68607">
        <ele>176.917</ele>
        <time>2020-05-15T04:52:59Z</time>
      </trkpt>
      <trkpt lat="43.10898" lon="-1.68608">
        <ele>176.408</ele>
        <time>2020-05-15T04:53:19Z</time>
      </trkpt>
      <trkpt lat="43.10896" lon="-1.68608">
        <ele>176.417</ele>
        <time>2020-05-15T04:53:39Z</time>
      </trkpt>
      <trkpt lat="43.10894" lon="-1.68609">
        <ele>176.412</ele>
        <time>2020-05-15T04:53:59Z</time>
      </trkpt>
      <trkpt lat="43.10891" lon="-1.6861">
        <ele>175.756</ele>
        <time>2020-05-15T04:54:19Z</time>
      </trkpt>
      <trkpt lat="43.10884" lon="-1.68612">
        <ele>174.034</ele>
        <time>2020-05-15T04:54:39Z</time>
      </trkpt>
      <trkpt lat="43.10873" lon="-1.68617">
        <ele>176.969</ele>
        <time>2020-05-15T04:54:59Z</time>
      </trkpt>
      <trkpt lat="43.10868" lon="-1.68619">
        <ele>171.419</ele>
        <time>2020-05-15T04:55:19Z</time>
      </trkpt>
      <trkpt lat="43.10867" lon="-1.6862">
        <ele>171.066</ele>
        <time>2020-05-15T04:55:39Z</time>
      </trkpt>
      <trkpt lat="43.10864" lon="-1.68623">
        <ele>171.058</ele>
        <time>2020-05-15T04:55:59Z</time>
      </trkpt>
      <trkpt lat="43.10862" lon="-1.68624">
        <ele>170.392</ele>
        <time>2020-05-15T04:56:19Z</time>
      </trkpt>
      <trkpt lat="43.10859" lon="-1.68627">
        <ele>170.373</ele>
        <time>2020-05-15T04:56:39Z</time>
      </trkpt>
      <trkpt lat="43.10856" lon="-1.6863">
        <ele>171.92</ele>
        <time>2020-05-15T04:56:59Z</time>
      </trkpt>
      <trkpt lat="43.10855" lon="-1.68631">
        <ele>171.908</ele>
        <time>2020-05-15T04:57:19Z</time>
      </trkpt>
      <trkpt lat="43.10851" lon="-1.68635">
        <ele>168.453</ele>
        <time>2020-05-15T04:57:39Z</time>
      </trkpt>
      <trkpt lat="43.10848" lon="-1.68639">
        <ele>167.898</ele>
        <time>2020-05-15T04:57:59Z</time>
      </trkpt>
      <trkpt lat="43.10844" lon="-1.68643">
        <ele>167.182</ele>
        <time>2020-05-15T04:58:19Z</time>
      </trkpt>
      <trkpt lat="43.10834" lon="-1.68656">
        <ele>165.13</ele>
        <time>2020-05-15T04:58:39Z</time>
      </trkpt>
      <trkpt lat="43.10825" lon="-1.68668">
        <ele>163.695</ele>
        <time>2020-05-15T04:58:59Z</time>
      </trkpt>
      <trkpt lat="43.10812" lon="-1.68684">
        <ele>161.565</ele>
        <time>2020-05-15T04:59:19Z</time>
      </trkpt>
      <trkpt lat="43.10811" lon="-1.68684">
        <ele>161.592</ele>
        <time>2020-05-15T04:59:39Z</time>
      </trkpt>
      <trkpt lat="43.1081" lon="-1.68686">
        <ele>161.564</ele>
        <time>2020-05-15T04:59:59Z</time>
      </trkpt>
      <trkpt lat="43.10809" lon="-1.68686">
        <ele>161.229</ele>
        <time>2020-05-15T05:00:19Z</time>
      </trkpt>
      <trkpt lat="43.10808" lon="-1.68687">
        <ele>161.2</ele>
        <time>2020-05-15T05:00:39Z</time>
      </trkpt>
      <trkpt lat="43.10806" lon="-1.68687">
        <ele>161.22</ele>
        <time>2020-05-15T05:00:59Z</time>
      </trkpt>
      <trkpt lat="43.10804" lon="-1.68688">
        <ele>160.908</ele>
        <time>2020-05-15T05:01:19Z</time>
      </trkpt>
      <trkpt lat="43.10801" lon="-1.68688">
        <ele>160.946</ele>
        <time>2020-05-15T05:01:39Z</time>
      </trkpt>
      <trkpt lat="43.10799" lon="-1.68688">
        <ele>160.411</ele>
        <time>2020-05-15T05:01:59Z</time>
      </trkpt>
      <trkpt lat="43.10798" lon="-1.68687">
        <ele>160.425</ele>
        <time>2020-05-15T05:02:19Z</time>
      </trkpt>
      <trkpt lat="43.10796" lon="-1.68686">
        <ele>160.243</ele>
        <time>2020-05-15T05:02:39Z</time>
      </trkpt>
      <trkpt lat="43.10794" lon="-1.68686">
        <ele>160.388</ele>
        <time>2020-05-15T05:02:59Z</time>
      </trkpt>
      <trkpt lat="43.10793" lon="-1.68685">
        <ele>160.388</ele>
        <time>2020-05-15T05:03:19Z</time>
      </trkpt>
      <trkpt lat="43.10792" lon="-1.68684">
        <ele>160.365</ele>
        <time>2020-05-15T05:03:39Z</time>
      </trkpt>
      <trkpt lat="43.10788" lon="-1.68681">
        <ele>160.217</ele>
        <time>2020-05-15T05:03:59Z</time>
      </trkpt>
      <trkpt lat="43.10779" lon="-1.68673">
        <ele>160.293</ele>
        <time>2020-05-15T05:04:19Z</time>
      </trkpt>
      <trkpt lat="43.10773" lon="-1.68667">
        <ele>160.365</ele>
        <time>2020-05-15T05:04:39Z</time>
      </trkpt>
      <trkpt lat="43.10765" lon="-1.6866">
        <ele>159.221</ele>
        <time>2020-05-15T05:04:59Z</time>
      </trkpt>
      <trkpt lat="43.10764" lon="-1.68659">
        <ele>159.208</ele>
        <time>2020-05-15T05:05:19Z</time>
      </trkpt>
      <trkpt lat="43.1076" lon="-1.68656">
        <ele>159.453</ele>
        <time>2020-05-15T05:05:39Z</time>
      </trkpt>
      <trkpt lat="43.10757" lon="-1.68655">
        <ele>160.048</ele>
        <time>2020-05-15T05:05:59Z</time>
      </trkpt>
      <trkpt lat="43.10751" lon="-1.68652">
        <ele>159.922</ele>
        <time>2020-05-15T05:06:19Z</time>
      </trkpt>
      <trkpt lat="43.10747" lon="-1.6865">
        <ele>159.97</ele>
        <time>2020-05-15T05:06:39Z</time>
      </trkpt>
      <trkpt lat="43.10745" lon="-1.68649">
        <ele>159.935</ele>
        <time>2020-05-15T05:06:59Z</time>
      </trkpt>
      <trkpt lat="43.10744" lon="-1.68649">
        <ele>159.945</ele>
        <time>2020-05-15T05:07:19Z</time>
      </trkpt>
      <trkpt lat="43.10738" lon="-1.68646">
        <ele>159.912</ele>
        <time>2020-05-15T05:07:39Z</time>
      </trkpt>
      <trkpt lat="43.10731" lon="-1.68644">
        <ele>160.034</ele>
        <time>2020-05-15T05:07:59Z</time>
      </trkpt>
      <trkpt lat="43.10725" lon="-1.68643">
        <ele>160.063</ele>
        <time>2020-05-15T05:08:19Z</time>
      </trkpt>
      <trkpt lat="43.1072" lon="-1.68641">
        <ele>160.044</ele>
        <time>2020-05-15T05:08:39Z</time>
      </trkpt>
      <trkpt lat="43.10714" lon="-1.6864">
        <ele>159.918</ele>
        <time>2020-05-15T05:08:59Z</time>
      </trkpt>
      <trkpt lat="43.10708" lon="-1.6864">
        <ele>160.008</ele>
        <time>2020-05-15T05:09:19Z</time>
      </trkpt>
      <trkpt lat="43.10679" lon="-1.68637">
        <ele>160.34</ele>
        <time>2020-05-15T05:09:39Z</time>
      </trkpt>
      <trkpt lat="43.10651" lon="-1.68634">
        <ele>162.755</ele>
        <time>2020-05-15T05:09:59Z</time>
      </trkpt>
      <trkpt lat="43.10639" lon="-1.68633">
        <ele>161.129</ele>
        <time>2020-05-15T05:10:19Z</time>
      </trkpt>
      <trkpt lat="43.10626" lon="-1.68632">
        <ele>162.017</ele>
        <time>2020-05-15T05:10:39Z</time>
      </trkpt>
      <trkpt lat="43.1062" lon="-1.68631">
        <ele>162.372</ele>
        <time>2020-05-15T05:10:59Z</time>
      </trkpt>
      <trkpt lat="43.10613" lon="-1.6863">
        <ele>163.172</ele>
        <time>2020-05-15T05:11:19Z</time>
      </trkpt>
      <trkpt lat="43.10609" lon="-1.6863">
        <ele>163.439</ele>
        <time>2020-05-15T05:11:39Z</time>
      </trkpt>
      <trkpt lat="43.106" lon="-1.68629">
        <ele>164.171</ele>
        <time>2020-05-15T05:11:59Z</time>
      </trkpt>
      <trkpt lat="43.1059" lon="-1.6863">
        <ele>164.214</ele>
        <time>2020-05-15T05:12:19Z</time>
      </trkpt>
      <trkpt lat="43.10591" lon="-1.68631">
        <ele>164.254</ele>
        <time>2020-05-15T05:12:39Z</time>
      </trkpt>
      <trkpt lat="43.10595" lon="-1.68634">
        <ele>164.209</ele>
        <time>2020-05-15T05:12:59Z</time>
      </trkpt>
      <trkpt lat="43.10596" lon="-1.68636">
        <ele>164.508</ele>
        <time>2020-05-15T05:13:19Z</time>
      </trkpt>
      <trkpt lat="43.10597" lon="-1.68637">
        <ele>164.345</ele>
        <time>2020-05-15T05:13:39Z</time>
      </trkpt>
      <trkpt lat="43.10598" lon="-1.68639">
        <ele>164.32</ele>
        <time>2020-05-15T05:13:59Z</time>
      </trkpt>
      <trkpt lat="43.10601" lon="-1.68642">
        <ele>164.684</ele>
        <time>2020-05-15T05:14:19Z</time>
      </trkpt>
      <trkpt lat="43.10604" lon="-1.68647">
        <ele>164.972</ele>
        <time>2020-05-15T05:14:39Z</time>
      </trkpt>
      <trkpt lat="43.10605" lon="-1.68649">
        <ele>164.847</ele>
        <time>2020-05-15T05:14:59Z</time>
      </trkpt>
      <trkpt lat="43.10606" lon="-1.68652">
        <ele>165.287</ele>
        <time>2020-05-15T05:15:19Z</time>
      </trkpt>
      <trkpt lat="43.10608" lon="-1.68656">
        <ele>165.264</ele>
        <time>2020-05-15T05:15:39Z</time>
      </trkpt>
      <trkpt lat="43.10609" lon="-1.68661">
        <ele>165.356</ele>
        <time>2020-05-15T05:15:59Z</time>
      </trkpt>
      <trkpt lat="43.1061" lon="-1.68665">
        <ele>165.339</ele>
        <time>2020-05-15T05:16:19Z</time>
      </trkpt>
      <trkpt lat="43.10611" lon="-1.68671">
        <ele>165.701</ele>
        <time>2020-05-15T05:16:39Z</time>
      </trkpt>
      <trkpt lat="43.10613" lon="-1.68681">
        <ele>165.921</ele>
        <time>2020-05-15T05:16:59Z</time>
      </trkpt>
      <trkpt lat="43.10614" lon="-1.68691">
        <ele>166.308</ele>
        <time>2020-05-15T05:17:19Z</time>
      </trkpt>
      <trkpt lat="43.10614" lon="-1.68694">
        <ele>166.397</ele>
        <time>2020-05-15T05:17:39Z</time>
      </trkpt>
      <trkpt lat="43.10615" lon="-1.68703">
        <ele>166.542</ele>
        <time>2020-05-15T05:17:59Z</time>
      </trkpt>
      <trkpt lat="43.10616" lon="-1.68719">
        <ele>167.086</ele>
        <time>2020-05-15T05:18:19Z</time>
      </trkpt>
      <trkpt lat="43.10618" lon="-1.68734">
        <ele>167.454</ele>
        <time>2020-05-15T05:18:39Z</time>
      </trkpt>
      <trkpt lat="43.10618" lon="-1.68736">
        <ele>167.439</ele>
        <time>2020-05-15T05:18:59Z</time>
      </trkpt>
      <trkpt lat="43.10618" lon="-1.68736">
        <ele>167.499</ele>
        <time>2020-05-15T05:19:19Z</time>
      </trkpt>
      <trkpt lat="43.10619" lon="-1.68745">
        <ele>167.526</ele>
        <time>2020-05-15T05:19:39Z</time>
      </trkpt>
      <trkpt lat="43.10619" lon="-1.6875">
        <ele>167.658</ele>
        <time>2020-05-15T05:19:59Z</time>
      </trkpt>
      <trkpt lat="43.10619" lon="-1.68751">
        <ele>167.693</ele>
        <time>2020-05-15T05:20:19Z</time>
      </trkpt>
      <trkpt lat="43.10621" lon="-1.68767">
        <ele>168.065</ele>
        <time>2020-05-15T05:20:39Z</time>
      </trkpt>
      <trkpt lat="43.10621" lon="-1.68775">
        <ele>167.821</ele>
        <time>2020-05-15T05:20:59Z</time>
      </trkpt>
      <trkpt lat="43.10622" lon="-1.68783">
        <ele>168.208</ele>
        <time>2020-05-15T05:21:19Z</time>
      </trkpt>
      <trkpt lat="43.10624" lon="-1.68799">
        <ele>168.433</ele>
        <time>2020-05-15T05:21:39Z</time>
      </trkpt>
      <trkpt lat="43.10625" lon="-1.68814">
        <ele>168.958</ele>
        <time>2020-05-15T05:21:59Z</time>
      </trkpt>
      <trkpt lat="43.10628" lon="-1.68839">
        <ele>169.682</ele>
        <time>2020-05-15T05:22:19Z</time>
      </trkpt>
      <trkpt lat="43.1063" lon="-1.68864">
        <ele>170.46</ele>
        <time>2020-05-15T05:22:39Z</time>
      </trkpt>
      <trkpt lat="43.10632" lon="-1.6888">
        <ele>171.255</ele>
        <time>2020-05-15T05:22:59Z</time>
      </trkpt>
      <trkpt lat="43.10633" lon="-1.68896">
        <ele>171.815</ele>
        <time>2020-05-15T05:23:19Z</time>
      </trkpt>
      <trkpt lat="43.10636" lon="-1.68913">
        <ele>172.982</ele>
        <time>2020-05-15T05:23:39Z</time>
      </trkpt>
      <trkpt lat="43.10637" lon="-1.68916">
        <ele>172.854</ele>
        <time>2020-05-15T05:23:59Z</time>
      </trkpt>
      <trkpt lat="43.10638" lon="-1.68919">
        <ele>172.927</ele>
        <time>2020-05-15T05:24:19Z</time>
      </trkpt>
      <trkpt lat="43.1064" lon="-1.68925">
        <ele>173.268</ele>
        <time>2020-05-15T05:24:39Z</time>
      </trkpt>
      <trkpt lat="43.10642" lon="-1.68931">
        <ele>173.714</ele>
        <time>2020-05-15T05:24:59Z</time>
      </trkpt>
      <trkpt lat="43.10646" lon="-1.68942">
        <ele>174.208</ele>
        <time>2020-05-15T05:25:19Z</time>
      </trkpt>
      <trkpt lat="43.1065" lon="-1.68953">
        <ele>174.656</ele>
        <time>2020-05-15T05:25:39Z</time>
      </trkpt>
      <trkpt lat="43.10657" lon="-1.68971">
        <ele>175.591</ele>
        <time>2020-05-15T05:25:59Z</time>
      </trkpt>
      <trkpt lat="43.10664" lon="-1.68989">
        <ele>176.485</ele>
        <time>2020-05-15T05:26:19Z</time>
      </trkpt>
      <trkpt lat="43.1067" lon="-1.69005">
        <ele>177.433</ele>
        <time>2020-05-15T05:26:39Z</time>
      </trkpt>
      <trkpt lat="43.10675" lon="-1.69021">
        <ele>177.938</ele>
        <time>2020-05-15T05:26:59Z</time>
      </trkpt>
      <trkpt lat="43.10678" lon="-1.69026">
        <ele>177.948</ele>
        <time>2020-05-15T05:27:19Z</time>
      </trkpt>
      <trkpt lat="43.1068" lon="-1.69031">
        <ele>178.445</ele>
        <time>2020-05-15T05:27:39Z</time>
      </trkpt>
      <trkpt lat="43.10681" lon="-1.69033">
        <ele>178.757</ele>
        <time>2020-05-15T05:27:59Z</time>
      </trkpt>
      <trkpt lat="43.10684" lon="-1.69038">
        <ele>178.584</ele>
        <time>2020-05-15T05:28:19Z</time>
      </trkpt>
      <trkpt lat="43.10685" lon="-1.69041">
        <ele>178.907</ele>
        <time>2020-05-15T05:28:39Z</time>
      </trkpt>
      <trkpt lat="43.10688" lon="-1.69044">
        <ele>178.817</ele>
        <time>2020-05-15T05:28:59Z</time>
      </trkpt>
      <trkpt lat="43.10691" lon="-1.69048">
        <ele>179.208</ele>
        <time>2020-05-15T05:29:19Z</time>
      </trkpt>
      <trkpt lat="43.10694" lon="-1.69052">
        <ele>179.832</ele>
        <time>2020-05-15T05:29:39Z</time>
      </trkpt>
      <trkpt lat="43.10698" lon="-1.69056">
        <ele>179.747</ele>
        <time>2020-05-15T05:29:59Z</time>
      </trkpt>
      <trkpt lat="43.10705" lon="-1.69064">
        <ele>180.441</ele>
        <time>2020-05-15T05:30:19Z</time>
      </trkpt>
      <trkpt lat="43.10713" lon="-1.69072">
        <ele>180.749</ele>
        <time>2020-05-15T05:30:39Z</time>
      </trkpt>
      <trkpt lat="43.10716" lon="-1.69075">
        <ele>180.864</ele>
        <time>2020-05-15T05:30:59Z</time>
      </trkpt>
      <trkpt lat="43.10719" lon="-1.69077">
        <ele>181.544</ele>
        <time>2020-05-15T05:31:19Z</time>
      </trkpt>
      <trkpt lat="43.10721" lon="-1.69079">
        <ele>181.591</ele>
        <time>2020-05-15T05:31:39Z</time>
      </trkpt>
      <trkpt lat="43.10723" lon="-1.6908">
        <ele>181.583</ele>
        <time>2020-05-15T05:31:59Z</time>
      </trkpt>
      <trkpt lat="43.10725" lon="-1.69082">
        <ele>181.684</ele>
        <time>2020-05-15T05:32:19Z</time>
      </trkpt>
      <trkpt lat="43.10727" lon="-1.69083">
        <ele>181.607</ele>
        <time>2020-05-15T05:32:39Z</time>
      </trkpt>
      <trkpt lat="43.10731" lon="-1.69085">
        <ele>181.817</ele>
        <time>2020-05-15T05:32:59Z</time>
      </trkpt>
      <trkpt lat="43.10734" lon="-1.69086">
        <ele>181.808</ele>
        <time>2020-05-15T05:33:19Z</time>
      </trkpt>
      <trkpt lat="43.10736" lon="-1.69087">
        <ele>182.272</ele>
        <time>2020-05-15T05:33:39Z</time>
      </trkpt>
      <trkpt lat="43.10738" lon="-1.69088">
        <ele>182.227</ele>
        <time>2020-05-15T05:33:59Z</time>
      </trkpt>
      <trkpt lat="43.10742" lon="-1.69089">
        <ele>182.261</ele>
        <time>2020-05-15T05:34:19Z</time>
      </trkpt>
      <trkpt lat="43.10742" lon="-1.69089">
        <ele>182.239</ele>
        <time>2020-05-15T05:34:39Z</time>
      </trkpt>
      <trkpt lat="43.10745" lon="-1.6909">
        <ele>182.274</ele>
        <time>2020-05-15T05:34:59Z</time>
      </trkpt>
      <trkpt lat="43.10756" lon="-1.69091">
        <ele>183.064</ele>
        <time>2020-05-15T05:35:19Z</time>
      </trkpt>
      <trkpt lat="43.10767" lon="-1.69093">
        <ele>184.041</ele>
        <time>2020-05-15T05:35:39Z</time>
      </trkpt>
      <trkpt lat="43.10779" lon="-1.69094">
        <ele>184.553</ele>
        <time>2020-05-15T05:35:59Z</time>
      </trkpt>
      <trkpt lat="43.10791" lon="-1.69096">
        <ele>185.348</ele>
        <time>2020-05-15T05:36:19Z</time>
      </trkpt>
      <trkpt lat="43.10797" lon="-1.69097">
        <ele>185.561</ele>
        <time>2020-05-15T05:36:39Z</time>
      </trkpt>
      <trkpt lat="43.10804" lon="-1.69098">
        <ele>186.017</ele>
        <time>2020-05-15T05:36:59Z</time>
      </trkpt>
      <trkpt lat="43.10809" lon="-1.69098">
        <ele>186.008</ele>
        <time>2020-05-15T05:37:19Z</time>
      </trkpt>
      <trkpt lat="43.10813" lon="-1.69099">
        <ele>186.148</ele>
        <time>2020-05-15T05:37:39Z</time>
      </trkpt>
      <trkpt lat="43.1082" lon="-1.691">
        <ele>186.343</ele>
        <time>2020-05-15T05:37:59Z</time>
      </trkpt>
      <trkpt lat="43.10827" lon="-1.69101">
        <ele>186.527</ele>
        <time>2020-05-15T05:38:19Z</time>
      </trkpt>
      <trkpt lat="43.10832" lon="-1.69102">
        <ele>186.695</ele>
        <time>2020-05-15T05:38:39Z</time>
      </trkpt>
      <trkpt lat="43.10839" lon="-1.69103">
        <ele>186.98</ele>
        <time>2020-05-15T05:38:59Z</time>
      </trkpt>
      <trkpt lat="43.1084" lon="-1.69103">
        <ele>186.83</ele>
        <time>2020-05-15T05:39:19Z</time>
      </trkpt>
      <trkpt lat="43.10847" lon="-1.69105">
        <ele>187.267</ele>
        <time>2020-05-15T05:39:39Z</time>
      </trkpt>
      <trkpt lat="43.10854" lon="-1.69105">
        <ele>187.429</ele>
        <time>2020-05-15T05:39:59Z</time>
      </trkpt>
      <trkpt lat="43.10856" lon="-1.69106">
        <ele>187.961</ele>
        <time>2020-05-15T05:40:19Z</time>
      </trkpt>
      <trkpt lat="43.10859" lon="-1.69107">
        <ele>187.921</ele>
        <time>2020-05-15T05:40:39Z</time>
      </trkpt>
      <trkpt lat="43.10861" lon="-1.69108">
        <ele>188.313</ele>
        <time>2020-05-15T05:40:59Z</time>
      </trkpt>
      <trkpt lat="43.10863" lon="-1.69109">
        <ele>188.108</ele>
        <time>2020-05-15T05:41:19Z</time>
      </trkpt>
      <trkpt lat="43.10865" lon="-1.69111">
        <ele>188.45</ele>
        <time>2020-05-15T05:41:39Z</time>
      </trkpt>
      <trkpt lat="43.10868" lon="-1.69113">
        <ele>188.445</ele>
        <time>2020-05-15T05:41:59Z</time>
      </trkpt>
      <trkpt lat="43.1087" lon="-1.69115">
        <ele>188.779</ele>
        <time>2020-05-15T05:42:19Z</time>
      </trkpt>
      <trkpt lat="43.10872" lon="-1.69117">
        <ele>188.717</ele>
        <time>2020-05-15T05:42:39Z</time>
      </trkpt>
      <trkpt lat="43.10874" lon="-1.6912">
        <ele>189.582</ele>
        <time>2020-05-15T05:42:59Z</time>
      </trkpt>
      <trkpt lat="43.10876" lon="-1.69123">
        <ele>189.532</ele>
        <time>2020-05-15T05:43:19Z</time>
      </trkpt>
      <trkpt lat="43.10878" lon="-1.69126">
        <ele>189.989</ele>
        <time>2020-05-15T05:43:39Z</time>
      </trkpt>
      <trkpt lat="43.1088" lon="-1.69129">
        <ele>189.931</ele>
        <time>2020-05-15T05:43:59Z</time>
      </trkpt>
      <trkpt lat="43.10881" lon="-1.69132">
        <ele>189.935</ele>
        <time>2020-05-15T05:44:19Z</time>
      </trkpt>
      <trkpt lat="43.10883" lon="-1.69136">
        <ele>190.386</ele>
        <time>2020-05-15T05:44:39Z</time>
      </trkpt>
      <trkpt lat="43.10886" lon="-1.69143">
        <ele>190.514</ele>
        <time>2020-05-15T05:44:59Z</time>
      </trkpt>
      <trkpt lat="43.10889" lon="-1.69152">
        <ele>191.308</ele>
        <time>2020-05-15T05:45:19Z</time>
      </trkpt>
      <trkpt lat="43.10892" lon="-1.69159">
        <ele>192.047</ele>
        <time>2020-05-15T05:45:39Z</time>
      </trkpt>
      <trkpt lat="43.10894" lon="-1.69164">
        <ele>192.192</ele>
        <time>2020-05-15T05:45:59Z</time>
      </trkpt>
      <trkpt lat="43.10896" lon="-1.6917">
        <ele>192.726</ele>
        <time>2020-05-15T05:46:19Z</time>
      </trkpt>
      <trkpt lat="43.10897" lon="-1.69173">
        <ele>192.794</ele>
        <time>2020-05-15T05:46:39Z</time>
      </trkpt>
      <trkpt lat="43.10898" lon="-1.69176">
        <ele>192.999</ele>
        <time>2020-05-15T05:46:59Z</time>
      </trkpt>
      <trkpt lat="43.10899" lon="-1.69178">
        <ele>192.999</ele>
        <time>2020-05-15T05:47:19Z</time>
      </trkpt>
      <trkpt lat="43.10899" lon="-1.69181">
        <ele>192.916</ele>
        <time>2020-05-15T05:47:39Z</time>
      </trkpt>
      <trkpt lat="43.109" lon="-1.69186">
        <ele>193.148</ele>
        <time>2020-05-15T05:47:59Z</time>
      </trkpt>
      <trkpt lat="43.109" lon="-1.69188">
        <ele>193.397</ele>
        <time>2020-05-15T05:48:19Z</time>
      </trkpt>
      <trkpt lat="43.109" lon="-1.69191">
        <ele>193.323</ele>
        <time>2020-05-15T05:48:39Z</time>
      </trkpt>
      <trkpt lat="43.109" lon="-1.69194">
        <ele>193.725</ele>
        <time>2020-05-15T05:48:59Z</time>
      </trkpt>
      <trkpt lat="43.109" lon="-1.69199">
        <ele>193.708</ele>
        <time>2020-05-15T05:49:19Z</time>
      </trkpt>
      <trkpt lat="43.10901" lon="-1.69202">
        <ele>194.063</ele>
        <time>2020-05-15T05:49:39Z</time>
      </trkpt>
      <trkpt lat="43.109" lon="-1.69209">
        <ele>194.348</ele>
        <time>2020-05-15T05:49:59Z</time>
      </trkpt>
      <trkpt lat="43.109" lon="-1.69215">
        <ele>194.562</ele>
        <time>2020-05-15T05:50:19Z</time>
      </trkpt>
      <trkpt lat="43.109" lon="-1.69225">
        <ele>194.93</ele>
        <time>2020-05-15T05:50:39Z</time>
      </trkpt>
      <trkpt lat="43.10899" lon="-1.69234">
        <ele>195.485</ele>
        <time>2020-05-15T05:50:59Z</time>
      </trkpt>
      <trkpt lat="43.10899" lon="-1.6924">
        <ele>195.535</ele>
        <time>2020-05-15T05:51:19Z</time>
      </trkpt>
      <trkpt lat="43.10899" lon="-1.69247">
        <ele>195.952</ele>
        <time>2020-05-15T05:51:39Z</time>
      </trkpt>
      <trkpt lat="43.10899" lon="-1.69252">
        <ele>196.114</ele>
        <time>2020-05-15T05:51:59Z</time>
      </trkpt>
      <trkpt lat="43.10899" lon="-1.69257">
        <ele>196.327</ele>
        <time>2020-05-15T05:52:19Z</time>
      </trkpt>
      <trkpt lat="43.10899" lon="-1.69274">
        <ele>197.268</ele>
        <time>2020-05-15T05:52:39Z</time>
      </trkpt>
      <trkpt lat="43.109" lon="-1.69291">
        <ele>197.714</ele>
        <time>2020-05-15T05:52:59Z</time>
      </trkpt>
      <trkpt lat="43.109" lon="-1.69313">
        <ele>198.608</ele>
        <time>2020-05-15T05:53:19Z</time>
      </trkpt>
      <trkpt lat="43.10901" lon="-1.69325">
        <ele>199.336</ele>
        <time>2020-05-15T05:53:39Z</time>
      </trkpt>
      <trkpt lat="43.10901" lon="-1.69338">
        <ele>199.761</ele>
        <time>2020-05-15T05:53:59Z</time>
      </trkpt>
      <trkpt lat="43.10901" lon="-1.6934">
        <ele>199.765</ele>
        <time>2020-05-15T05:54:19Z</time>
      </trkpt>
      <trkpt lat="43.10901" lon="-1.69343">
        <ele>200.283</ele>
        <time>2020-05-15T05:54:39Z</time>
      </trkpt>
      <trkpt lat="43.10901" lon="-1.69345">
        <ele>200.218</ele>
        <time>2020-05-15T05:54:59Z</time>
      </trkpt>
      <trkpt lat="43.109" lon="-1.69347">
        <ele>200.298</ele>
        <time>2020-05-15T05:55:19Z</time>
      </trkpt>
      <trkpt lat="43.109" lon="-1.6935">
        <ele>200.435</ele>
        <time>2020-05-15T05:55:39Z</time>
      </trkpt>
      <trkpt lat="43.10899" lon="-1.69355">
        <ele>200.657</ele>
        <time>2020-05-15T05:55:59Z</time>
      </trkpt>
      <trkpt lat="43.10897" lon="-1.6936">
        <ele>200.581</ele>
        <time>2020-05-15T05:56:19Z</time>
      </trkpt>
      <trkpt lat="43.10895" lon="-1.69366">
        <ele>200.961</ele>
        <time>2020-05-15T05:56:39Z</time>
      </trkpt>
      <trkpt lat="43.10893" lon="-1.6937">
        <ele>201.317</ele>
        <time>2020-05-15T05:56:59Z</time>
      </trkpt>
      <trkpt lat="43.10892" lon="-1.69373">
        <ele>201.608</ele>
        <time>2020-05-15T05:57:19Z</time>
      </trkpt>
      <trkpt lat="43.10889" lon="-1.69377">
        <ele>201.872</ele>
        <time>2020-05-15T05:57:39Z</time>
      </trkpt>
      <trkpt lat="43.10886" lon="-1.69382">
        <ele>201.927</ele>
        <time>2020-05-15T05:57:59Z</time>
      </trkpt>
      <trkpt lat="43.10883" lon="-1.69385">
        <ele>202.291</ele>
        <time>2020-05-15T05:58:19Z</time>
      </trkpt>
      <trkpt lat="43.1088" lon="-1.69389">
        <ele>202.329</ele>
        <time>2020-05-15T05:58:39Z</time>
      </trkpt>
      <trkpt lat="43.10876" lon="-1.69392">
        <ele>202.544</ele>
        <time>2020-05-15T05:58:59Z</time>
      </trkpt>
      <trkpt lat="43.10872" lon="-1.69394">
        <ele>203.054</ele>
        <time>2020-05-15T05:59:19Z</time>
      </trkpt>
      <trkpt lat="43.10869" lon="-1.69397">
        <ele>203.241</ele>
        <time>2020-05-15T05:59:39Z</time>
      </trkpt>
      <trkpt lat="43.10865" lon="-1.694">
        <ele>203.413</ele>
        <time>2020-05-15T05:59:59Z</time>
      </trkpt>
      <trkpt lat="43.10862" lon="-1.69403">
        <ele>203.612</ele>
        <time>2020-05-15T06:00:19Z</time>
      </trkpt>
      <trkpt lat="43.10858" lon="-1.69406">
        <ele>203.532</ele>
        <time>2020-05-15T06:00:39Z</time>
      </trkpt>
      <trkpt lat="43.10855" lon="-1.69409">
        <ele>204.105</ele>
        <time>2020-05-15T06:00:59Z</time>
      </trkpt>
      <trkpt lat="43.10852" lon="-1.69412">
        <ele>204.408</ele>
        <time>2020-05-15T06:01:19Z</time>
      </trkpt>
      <trkpt lat="43.10849" lon="-1.69416">
        <ele>204.625</ele>
        <time>2020-05-15T06:01:39Z</time>
      </trkpt>
      <trkpt lat="43.10845" lon="-1.6942">
        <ele>204.68</ele>
        <time>2020-05-15T06:01:59Z</time>
      </trkpt>
      <trkpt lat="43.10843" lon="-1.69424">
        <ele>204.914</ele>
        <time>2020-05-15T06:02:19Z</time>
      </trkpt>
      <trkpt lat="43.10841" lon="-1.69428">
        <ele>204.982</ele>
        <time>2020-05-15T06:02:39Z</time>
      </trkpt>
      <trkpt lat="43.10838" lon="-1.69431">
        <ele>205.577</ele>
        <time>2020-05-15T06:02:59Z</time>
      </trkpt>
      <trkpt lat="43.10836" lon="-1.69435">
        <ele>205.547</ele>
        <time>2020-05-15T06:03:19Z</time>
      </trkpt>
      <trkpt lat="43.10834" lon="-1.6944">
        <ele>205.944</ele>
        <time>2020-05-15T06:03:39Z</time>
      </trkpt>
      <trkpt lat="43.10832" lon="-1.69444">
        <ele>205.926</ele>
        <time>2020-05-15T06:03:59Z</time>
      </trkpt>
      <trkpt lat="43.1083" lon="-1.69448">
        <ele>206.391</ele>
        <time>2020-05-15T06:04:19Z</time>
      </trkpt>
      <trkpt lat="43.10829" lon="-1.69453">
        <ele>206.381</ele>
        <time>2020-05-15T06:04:39Z</time>
      </trkpt>
      <trkpt lat="43.10827" lon="-1.69457">
        <ele>206.419</ele>
        <time>2020-05-15T06:04:59Z</time>
      </trkpt>
      <trkpt lat="43.10825" lon="-1.69464">
        <ele>206.708</ele>
        <time>2020-05-15T06:05:19Z</time>
      </trkpt>
      <trkpt lat="43.10825" lon="-1.69465">
        <ele>206.723</ele>
        <time>2020-05-15T06:05:39Z</time>
      </trkpt>
      <trkpt lat="43.10823" lon="-1.69471">
        <ele>206.968</ele>
        <time>2020-05-15T06:05:59Z</time>
      </trkpt>
      <trkpt lat="43.10821" lon="-1.69479">
        <ele>207.662</ele>
        <time>2020-05-15T06:06:19Z</time>
      </trkpt>
      <trkpt lat="43.10818" lon="-1.69488">
        <ele>207.67</ele>
        <time>2020-05-15T06:06:39Z</time>
      </trkpt>
      <trkpt lat="43.10817" lon="-1.69493">
        <ele>208.165</ele>
        <time>2020-05-15T06:06:59Z</time>
      </trkpt>
      <trkpt lat="43.10816" lon="-1.69499">
        <ele>208.135</ele>
        <time>2020-05-15T06:07:19Z</time>
      </trkpt>
      <trkpt lat="43.10815" lon="-1.69505">
        <ele>208.222</ele>
        <time>2020-05-15T06:07:39Z</time>
      </trkpt>
      <trkpt lat="43.10814" lon="-1.69517">
        <ele>208.844</ele>
        <time>2020-05-15T06:07:59Z</time>
      </trkpt>
      <trkpt lat="43.10812" lon="-1.69529">
        <ele>209.211</ele>
        <time>2020-05-15T06:08:19Z</time>
      </trkpt>
      <trkpt lat="43.10811" lon="-1.69538">
        <ele>209.421</ele>
        <time>2020-05-15T06:08:39Z</time>
      </trkpt>
      <trkpt lat="43.1081" lon="-1.69547">
        <ele>210.003</ele>
        <time>2020-05-15T06:08:59Z</time>
      </trkpt>
      <trkpt lat="43.10808" lon="-1.69556">
        <ele>210.308</ele>
        <time>2020-05-15T06:09:19Z</time>
      </trkpt>
      <trkpt lat="43.10806" lon="-1.69565">
        <ele>210.825</ele>
        <time>2020-05-15T06:09:39Z</time>
      </trkpt>
      <trkpt lat="43.10805" lon="-1.69573">
        <ele>211.17</ele>
        <time>2020-05-15T06:09:59Z</time>
      </trkpt>
      <trkpt lat="43.10804" lon="-1.69577">
        <ele>211.164</ele>
        <time>2020-05-15T06:10:19Z</time>
      </trkpt>
      <trkpt lat="43.10803" lon="-1.69581">
        <ele>211.492</ele>
        <time>2020-05-15T06:10:39Z</time>
      </trkpt>
      <trkpt lat="43.10801" lon="-1.69585">
        <ele>211.737</ele>
        <time>2020-05-15T06:10:59Z</time>
      </trkpt>
      <trkpt lat="43.108" lon="-1.6959">
        <ele>212.197</ele>
        <time>2020-05-15T06:11:19Z</time>
      </trkpt>
      <trkpt lat="43.10797" lon="-1.69595">
        <ele>212.114</ele>
        <time>2020-05-15T06:11:39Z</time>
      </trkpt>
      <trkpt lat="43.10795" lon="-1.696">
        <ele>212.526</ele>
        <time>2020-05-15T06:11:59Z</time>
      </trkpt>
      <trkpt lat="43.10794" lon="-1.69602">
        <ele>212.942</ele>
        <time>2020-05-15T06:12:19Z</time>
      </trkpt>
      <trkpt lat="43.10791" lon="-1.69607">
        <ele>212.722</ele>
        <time>2020-05-15T06:12:39Z</time>
      </trkpt>
      <trkpt lat="43.10789" lon="-1.69609">
        <ele>213.214</ele>
        <time>2020-05-15T06:12:59Z</time>
      </trkpt>
      <trkpt lat="43.10787" lon="-1.69611">
        <ele>213.308</ele>
        <time>2020-05-15T06:13:19Z</time>
      </trkpt>
      <trkpt lat="43.10784" lon="-1.69614">
        <ele>213.678</ele>
        <time>2020-05-15T06:13:39Z</time>
      </trkpt>
      <trkpt lat="43.10781" lon="-1.69616">
        <ele>214.033</ele>
        <time>2020-05-15T06:13:59Z</time>
      </trkpt>
      <trkpt lat="43.10777" lon="-1.69618">
        <ele>214.327</ele>
        <time>2020-05-15T06:14:19Z</time>
      </trkpt>
      <trkpt lat="43.10771" lon="-1.69621">
        <ele>214.515</ele>
        <time>2020-05-15T06:14:39Z</time>
      </trkpt>
      <trkpt lat="43.10768" lon="-1.69623">
        <ele>214.88</ele>
        <time>2020-05-15T06:14:59Z</time>
      </trkpt>
      <trkpt lat="43.10766" lon="-1.69625">
        <ele>214.86</ele>
        <time>2020-05-15T06:15:19Z</time>
      </trkpt>
      <trkpt lat="43.10763" lon="-1.69628">
        <ele>215.027</ele>
        <time>2020-05-15T06:15:39Z</time>
      </trkpt>
      <trkpt lat="43.10761" lon="-1.6963">
        <ele>215.249</ele>
        <time>2020-05-15T06:15:59Z</time>
      </trkpt>
      <trkpt lat="43.10759" lon="-1.69632">
        <ele>215.271</ele>
        <time>2020-05-15T06:16:19Z</time>
      </trkpt>
      <trkpt lat="43.10758" lon="-1.69634">
        <ele>215.141</ele>
        <time>2020-05-15T06:16:39Z</time>
      </trkpt>
      <trkpt lat="43.10757" lon="-1.69636">
        <ele>215.115</ele>
        <time>2020-05-15T06:16:59Z</time>
      </trkpt>
      <trkpt lat="43.10757" lon="-1.69638">
        <ele>215.508</ele>
        <time>2020-05-15T06:17:19Z</time>
      </trkpt>
      <trkpt lat="43.10756" lon="-1.6964">
        <ele>215.551</ele>
        <time>2020-05-15T06:17:39Z</time>
      </trkpt>
      <trkpt lat="43.10755" lon="-1.69643">
        <ele>215.516</ele>
        <time>2020-05-15T06:17:59Z</time>
      </trkpt>
      <trkpt lat="43.10755" lon="-1.69645">
        <ele>215.55</ele>
        <time>2020-05-15T06:18:19Z</time>
      </trkpt>
      <trkpt lat="43.10755" lon="-1.69648">
        <ele>215.838</ele>
        <time>2020-05-15T06:18:39Z</time>
      </trkpt>
      <trkpt lat="43.10755" lon="-1.69652">
        <ele>215.863</ele>
        <time>2020-05-15T06:18:59Z</time>
      </trkpt>
      <trkpt lat="43.10755" lon="-1.69653">
        <ele>215.923</ele>
        <time>2020-05-15T06:19:19Z</time>
      </trkpt>
      <trkpt lat="43.10755" lon="-1.69656">
        <ele>215.95</ele>
        <time>2020-05-15T06:19:39Z</time>
      </trkpt>
      <trkpt lat="43.10755" lon="-1.69658">
        <ele>216.592</ele>
        <time>2020-05-15T06:19:59Z</time>
      </trkpt>
      <trkpt lat="43.10757" lon="-1.69665">
        <ele>216.586</ele>
        <time>2020-05-15T06:20:19Z</time>
      </trkpt>
      <trkpt lat="43.10758" lon="-1.69668">
        <ele>216.56</ele>
        <time>2020-05-15T06:20:39Z</time>
      </trkpt>
      <trkpt lat="43.10759" lon="-1.69673">
        <ele>216.626</ele>
        <time>2020-05-15T06:20:59Z</time>
      </trkpt>
      <trkpt lat="43.10761" lon="-1.69678">
        <ele>217.008</ele>
        <time>2020-05-15T06:21:19Z</time>
      </trkpt>
      <trkpt lat="43.10764" lon="-1.69685">
        <ele>217.382</ele>
        <time>2020-05-15T06:21:39Z</time>
      </trkpt>
      <trkpt lat="43.10768" lon="-1.69692">
        <ele>217.857</ele>
        <time>2020-05-15T06:21:59Z</time>
      </trkpt>
      <trkpt lat="43.10774" lon="-1.69704">
        <ele>217.961</ele>
        <time>2020-05-15T06:22:19Z</time>
      </trkpt>
      <trkpt lat="43.1078" lon="-1.69717">
        <ele>218.549</ele>
        <time>2020-05-15T06:22:39Z</time>
      </trkpt>
      <trkpt lat="43.10781" lon="-1.6972">
        <ele>218.894</ele>
        <time>2020-05-15T06:22:59Z</time>
      </trkpt>
      <trkpt lat="43.10783" lon="-1.69723">
        <ele>218.814</ele>
        <time>2020-05-15T06:23:19Z</time>
      </trkpt>
      <trkpt lat="43.10783" lon="-1.69725">
        <ele>219.071</ele>
        <time>2020-05-15T06:23:39Z</time>
      </trkpt>
      <trkpt lat="43.10784" lon="-1.69727">
        <ele>219.033</ele>
        <time>2020-05-15T06:23:59Z</time>
      </trkpt>
      <trkpt lat="43.10785" lon="-1.69729">
        <ele>219.065</ele>
        <time>2020-05-15T06:24:19Z</time>
      </trkpt>
      <trkpt lat="43.10785" lon="-1.69732">
        <ele>219.568</ele>
        <time>2020-05-15T06:24:39Z</time>
      </trkpt>
      <trkpt lat="43.10786" lon="-1.69736">
        <ele>219.514</ele>
        <time>2020-05-15T06:24:59Z</time>
      </trkpt>
      <trkpt lat="43.10786" lon="-1.6974">
        <ele>219.608</ele>
        <time>2020-05-15T06:25:19Z</time>
      </trkpt>
      <trkpt lat="43.10786" lon="-1.69745">
        <ele>219.99</ele>
        <time>2020-05-15T06:25:39Z</time>
      </trkpt>
      <trkpt lat="43.10786" lon="-1.69749">
        <ele>219.935</ele>
        <time>2020-05-15T06:25:59Z</time>
      </trkpt>
      <trkpt lat="43.10786" lon="-1.69752">
        <ele>220.379</ele>
        <time>2020-05-15T06:26:19Z</time>
      </trkpt>
      <trkpt lat="43.10785" lon="-1.69755">
        <ele>220.787</ele>
        <time>2020-05-15T06:26:39Z</time>
      </trkpt>
      <trkpt lat="43.10784" lon="-1.69758">
        <ele>220.732</ele>
        <time>2020-05-15T06:26:59Z</time>
      </trkpt>
      <trkpt lat="43.10784" lon="-1.6976">
        <ele>220.772</ele>
        <time>2020-05-15T06:27:19Z</time>
      </trkpt>
      <trkpt lat="43.10783" lon="-1.69762">
        <ele>221.039</ele>
        <time>2020-05-15T06:27:39Z</time>
      </trkpt>
      <trkpt lat="43.1078" lon="-1.69772">
        <ele>221.171</ele>
        <time>2020-05-15T06:27:59Z</time>
      </trkpt>
      <trkpt lat="43.10777" lon="-1.69777">
        <ele>221.436</ele>
        <time>2020-05-15T06:28:19Z</time>
      </trkpt>
      <trkpt lat="43.10775" lon="-1.69782">
        <ele>221.717</ele>
        <time>2020-05-15T06:28:39Z</time>
      </trkpt>
      <trkpt lat="43.10768" lon="-1.69793">
        <ele>222.518</ele>
        <time>2020-05-15T06:28:59Z</time>
      </trkpt>
      <trkpt lat="43.10764" lon="-1.698">
        <ele>222.808</ele>
        <time>2020-05-15T06:29:19Z</time>
      </trkpt>
      <trkpt lat="43.10759" lon="-1.69807">
        <ele>222.977</ele>
        <time>2020-05-15T06:29:39Z</time>
      </trkpt>
      <trkpt lat="43.10755" lon="-1.69814">
        <ele>223.342</ele>
        <time>2020-05-15T06:29:59Z</time>
      </trkpt>
      <trkpt lat="43.1075" lon="-1.69821">
        <ele>224.426</ele>
        <time>2020-05-15T06:30:19Z</time>
      </trkpt>
      <trkpt lat="43.10746" lon="-1.69827">
        <ele>224.484</ele>
        <time>2020-05-15T06:30:39Z</time>
      </trkpt>
      <trkpt lat="43.10742" lon="-1.69833">
        <ele>224.819</ele>
        <time>2020-05-15T06:30:59Z</time>
      </trkpt>
      <trkpt lat="43.10741" lon="-1.69835">
        <ele>225.119</ele>
        <time>2020-05-15T06:31:19Z</time>
      </trkpt>
      <trkpt lat="43.1074" lon="-1.69837">
        <ele>225.196</ele>
        <time>2020-05-15T06:31:39Z</time>
      </trkpt>
      <trkpt lat="43.10737" lon="-1.69842">
        <ele>225.128</ele>
        <time>2020-05-15T06:31:59Z</time>
      </trkpt>
      <trkpt lat="43.10734" lon="-1.69847">
        <ele>225.833</ele>
        <time>2020-05-15T06:32:19Z</time>
      </trkpt>
      <trkpt lat="43.10728" lon="-1.6986">
        <ele>226.523</ele>
        <time>2020-05-15T06:32:39Z</time>
      </trkpt>
      <trkpt lat="43.10721" lon="-1.69873">
        <ele>226.815</ele>
        <time>2020-05-15T06:32:59Z</time>
      </trkpt>
      <trkpt lat="43.1072" lon="-1.69876">
        <ele>226.908</ele>
        <time>2020-05-15T06:33:19Z</time>
      </trkpt>
      <trkpt lat="43.10718" lon="-1.6988">
        <ele>228.847</ele>
        <time>2020-05-15T06:33:39Z</time>
      </trkpt>
      <trkpt lat="43.10716" lon="-1.69883">
        <ele>227.642</ele>
        <time>2020-05-15T06:33:59Z</time>
      </trkpt>
      <trkpt lat="43.10715" lon="-1.69886">
        <ele>227.656</ele>
        <time>2020-05-15T06:34:19Z</time>
      </trkpt>
      <trkpt lat="43.10714" lon="-1.69891">
        <ele>228.084</ele>
        <time>2020-05-15T06:34:39Z</time>
      </trkpt>
      <trkpt lat="43.10712" lon="-1.69894">
        <ele>228.089</ele>
        <time>2020-05-15T06:34:59Z</time>
      </trkpt>
      <trkpt lat="43.10711" lon="-1.69902">
        <ele>228.079</ele>
        <time>2020-05-15T06:35:19Z</time>
      </trkpt>
      <trkpt lat="43.1071" lon="-1.6991">
        <ele>228.646</ele>
        <time>2020-05-15T06:35:39Z</time>
      </trkpt>
      <trkpt lat="43.1071" lon="-1.69914">
        <ele>228.838</ele>
        <time>2020-05-15T06:35:59Z</time>
      </trkpt>
      <trkpt lat="43.10709" lon="-1.69918">
        <ele>229.033</ele>
        <time>2020-05-15T06:36:19Z</time>
      </trkpt>
      <trkpt lat="43.1071" lon="-1.69922">
        <ele>229.023</ele>
        <time>2020-05-15T06:36:39Z</time>
      </trkpt>
      <trkpt lat="43.1071" lon="-1.69927">
        <ele>229.315</ele>
        <time>2020-05-15T06:36:59Z</time>
      </trkpt>
      <trkpt lat="43.1071" lon="-1.69928">
        <ele>229.308</ele>
        <time>2020-05-15T06:37:19Z</time>
      </trkpt>
      <trkpt lat="43.1071" lon="-1.69929">
        <ele>229.847</ele>
        <time>2020-05-15T06:37:39Z</time>
      </trkpt>
      <trkpt lat="43.10712" lon="-1.69936">
        <ele>230.012</ele>
        <time>2020-05-15T06:37:59Z</time>
      </trkpt>
      <trkpt lat="43.10714" lon="-1.69948">
        <ele>230.476</ele>
        <time>2020-05-15T06:38:19Z</time>
      </trkpt>
      <trkpt lat="43.10715" lon="-1.6995">
        <ele>230.414</ele>
        <time>2020-05-15T06:38:39Z</time>
      </trkpt>
      <trkpt lat="43.10715" lon="-1.69951">
        <ele>230.479</ele>
        <time>2020-05-15T06:38:59Z</time>
      </trkpt>
      <trkpt lat="43.10716" lon="-1.69952">
        <ele>230.499</ele>
        <time>2020-05-15T06:39:19Z</time>
      </trkpt>
      <trkpt lat="43.10716" lon="-1.69953">
        <ele>230.396</ele>
        <time>2020-05-15T06:39:39Z</time>
      </trkpt>
      <trkpt lat="43.10716" lon="-1.69956">
        <ele>230.848</ele>
        <time>2020-05-15T06:39:59Z</time>
      </trkpt>
      <trkpt lat="43.10719" lon="-1.69968">
        <ele>231.477</ele>
        <time>2020-05-15T06:40:19Z</time>
      </trkpt>
      <trkpt lat="43.10722" lon="-1.69979">
        <ele>232.061</ele>
        <time>2020-05-15T06:40:39Z</time>
      </trkpt>
      <trkpt lat="43.10723" lon="-1.69987">
        <ele>232.227</ele>
        <time>2020-05-15T06:40:59Z</time>
      </trkpt>
      <trkpt lat="43.10726" lon="-1.70002">
        <ele>232.608</ele>
        <time>2020-05-15T06:41:19Z</time>
      </trkpt>
      <trkpt lat="43.10726" lon="-1.70008">
        <ele>233.021</ele>
        <time>2020-05-15T06:41:39Z</time>
      </trkpt>
      <trkpt lat="43.10727" lon="-1.70015">
        <ele>233.336</ele>
        <time>2020-05-15T06:41:59Z</time>
      </trkpt>
      <trkpt lat="43.10728" lon="-1.70022">
        <ele>233.65</ele>
        <time>2020-05-15T06:42:19Z</time>
      </trkpt>
      <trkpt lat="43.10728" lon="-1.70027">
        <ele>234.198</ele>
        <time>2020-05-15T06:42:39Z</time>
      </trkpt>
      <trkpt lat="43.10728" lon="-1.70034">
        <ele>234.393</ele>
        <time>2020-05-15T06:42:59Z</time>
      </trkpt>
      <trkpt lat="43.10728" lon="-1.7004">
        <ele>234.673</ele>
        <time>2020-05-15T06:43:19Z</time>
      </trkpt>
      <trkpt lat="43.10728" lon="-1.70046">
        <ele>234.83</ele>
        <time>2020-05-15T06:43:39Z</time>
      </trkpt>
      <trkpt lat="43.10728" lon="-1.7005">
        <ele>234.892</ele>
        <time>2020-05-15T06:43:59Z</time>
      </trkpt>
      <trkpt lat="43.10727" lon="-1.70055">
        <ele>235.348</ele>
        <time>2020-05-15T06:44:19Z</time>
      </trkpt>
      <trkpt lat="43.10726" lon="-1.70063">
        <ele>235.561</ele>
        <time>2020-05-15T06:44:39Z</time>
      </trkpt>
      <trkpt lat="43.10725" lon="-1.70067">
        <ele>235.717</ele>
        <time>2020-05-15T06:44:59Z</time>
      </trkpt>
      <trkpt lat="43.10725" lon="-1.70072">
        <ele>236.008</ele>
        <time>2020-05-15T06:45:19Z</time>
      </trkpt>
      <trkpt lat="43.10724" lon="-1.70075">
        <ele>236.048</ele>
        <time>2020-05-15T06:45:39Z</time>
      </trkpt>
      <trkpt lat="43.10723" lon="-1.7008">
        <ele>236.233</ele>
        <time>2020-05-15T06:45:59Z</time>
      </trkpt>
      <trkpt lat="43.1072" lon="-1.70089">
        <ele>236.827</ele>
        <time>2020-05-15T06:46:19Z</time>
      </trkpt>
      <trkpt lat="43.10718" lon="-1.70093">
        <ele>236.825</ele>
        <time>2020-05-15T06:46:39Z</time>
      </trkpt>
      <trkpt lat="43.10717" lon="-1.70098">
        <ele>237.09</ele>
        <time>2020-05-15T06:46:59Z</time>
      </trkpt>
      <trkpt lat="43.10711" lon="-1.70113">
        <ele>237.79</ele>
        <time>2020-05-15T06:47:19Z</time>
      </trkpt>
      <trkpt lat="43.10707" lon="-1.70124">
        <ele>238.387</ele>
        <time>2020-05-15T06:47:39Z</time>
      </trkpt>
      <trkpt lat="43.10704" lon="-1.70131">
        <ele>240.299</ele>
        <time>2020-05-15T06:47:59Z</time>
      </trkpt>
      <trkpt lat="43.10701" lon="-1.7014">
        <ele>239.374</ele>
        <time>2020-05-15T06:48:19Z</time>
      </trkpt>
      <trkpt lat="43.10698" lon="-1.70147">
        <ele>239.756</ele>
        <time>2020-05-15T06:48:39Z</time>
      </trkpt>
      <trkpt lat="43.10697" lon="-1.70154">
        <ele>239.821</ele>
        <time>2020-05-15T06:48:59Z</time>
      </trkpt>
      <trkpt lat="43.10695" lon="-1.70162">
        <ele>240.408</ele>
        <time>2020-05-15T06:49:19Z</time>
      </trkpt>
      <trkpt lat="43.10694" lon="-1.70169">
        <ele>240.871</ele>
        <time>2020-05-15T06:49:39Z</time>
      </trkpt>
      <trkpt lat="43.10694" lon="-1.70177">
        <ele>241.226</ele>
        <time>2020-05-15T06:49:59Z</time>
      </trkpt>
      <trkpt lat="43.10694" lon="-1.70185">
        <ele>241.42</ele>
        <time>2020-05-15T06:50:19Z</time>
      </trkpt>
      <trkpt lat="43.10694" lon="-1.70193">
        <ele>241.798</ele>
        <time>2020-05-15T06:50:39Z</time>
      </trkpt>
      <trkpt lat="43.10694" lon="-1.70199">
        <ele>241.943</ele>
        <time>2020-05-15T06:50:59Z</time>
      </trkpt>
      <trkpt lat="43.10695" lon="-1.70205">
        <ele>242.383</ele>
        <time>2020-05-15T06:51:19Z</time>
      </trkpt>
      <trkpt lat="43.10696" lon="-1.70213">
        <ele>242.68</ele>
        <time>2020-05-15T06:51:39Z</time>
      </trkpt>
      <trkpt lat="43.10699" lon="-1.70238">
        <ele>243.612</ele>
        <time>2020-05-15T06:51:59Z</time>
      </trkpt>
      <trkpt lat="43.107" lon="-1.70243">
        <ele>243.757</ele>
        <time>2020-05-15T06:52:19Z</time>
      </trkpt>
      <trkpt lat="43.107" lon="-1.70249">
        <ele>244</ele>
        <time>2020-05-15T06:52:39Z</time>
      </trkpt>
      <trkpt lat="43.10701" lon="-1.70264">
        <ele>244.52</ele>
        <time>2020-05-15T06:52:59Z</time>
      </trkpt>
      <trkpt lat="43.10701" lon="-1.70272">
        <ele>244.808</ele>
        <time>2020-05-15T06:53:19Z</time>
      </trkpt>
      <trkpt lat="43.10701" lon="-1.70279">
        <ele>245.279</ele>
        <time>2020-05-15T06:53:39Z</time>
      </trkpt>
      <trkpt lat="43.107" lon="-1.70287">
        <ele>245.674</ele>
        <time>2020-05-15T06:53:59Z</time>
      </trkpt>
      <trkpt lat="43.107" lon="-1.70295">
        <ele>245.948</ele>
        <time>2020-05-15T06:54:19Z</time>
      </trkpt>
      <trkpt lat="43.10699" lon="-1.703">
        <ele>246.366</ele>
        <time>2020-05-15T06:54:39Z</time>
      </trkpt>
      <trkpt lat="43.10699" lon="-1.70305">
        <ele>246.561</ele>
        <time>2020-05-15T06:54:59Z</time>
      </trkpt>
      <trkpt lat="43.10698" lon="-1.7031">
        <ele>246.531</ele>
        <time>2020-05-15T06:55:19Z</time>
      </trkpt>
      <trkpt lat="43.10697" lon="-1.70315">
        <ele>246.618</ele>
        <time>2020-05-15T06:55:39Z</time>
      </trkpt>
      <trkpt lat="43.10695" lon="-1.70322">
        <ele>246.95</ele>
        <time>2020-05-15T06:55:59Z</time>
      </trkpt>
      <trkpt lat="43.10693" lon="-1.70329">
        <ele>247.284</ele>
        <time>2020-05-15T06:56:19Z</time>
      </trkpt>
      <trkpt lat="43.10691" lon="-1.70335">
        <ele>247.607</ele>
        <time>2020-05-15T06:56:39Z</time>
      </trkpt>
      <trkpt lat="43.10688" lon="-1.70341">
        <ele>249.317</ele>
        <time>2020-05-15T06:56:59Z</time>
      </trkpt>
      <trkpt lat="43.10686" lon="-1.70345">
        <ele>248.108</ele>
        <time>2020-05-15T06:57:19Z</time>
      </trkpt>
      <trkpt lat="43.10684" lon="-1.70349">
        <ele>248.322</ele>
        <time>2020-05-15T06:57:39Z</time>
      </trkpt>
      <trkpt lat="43.1068" lon="-1.70356">
        <ele>248.997</ele>
        <time>2020-05-15T06:57:59Z</time>
      </trkpt>
      <trkpt lat="43.10676" lon="-1.70363">
        <ele>249.351</ele>
        <time>2020-05-15T06:58:19Z</time>
      </trkpt>
      <trkpt lat="43.10672" lon="-1.70368">
        <ele>249.599</ele>
        <time>2020-05-15T06:58:39Z</time>
      </trkpt>
      <trkpt lat="43.10668" lon="-1.70374">
        <ele>250.114</ele>
        <time>2020-05-15T06:58:59Z</time>
      </trkpt>
      <trkpt lat="43.10664" lon="-1.70379">
        <ele>250.324</ele>
        <time>2020-05-15T06:59:19Z</time>
      </trkpt>
      <trkpt lat="43.1066" lon="-1.70384">
        <ele>250.541</ele>
        <time>2020-05-15T06:59:39Z</time>
      </trkpt>
      <trkpt lat="43.1065" lon="-1.70396">
        <ele>251.383</ele>
        <time>2020-05-15T06:59:59Z</time>
      </trkpt>
      <trkpt lat="43.10646" lon="-1.70402">
        <ele>251.786</ele>
        <time>2020-05-15T07:00:19Z</time>
      </trkpt>
      <trkpt lat="43.10638" lon="-1.70411">
        <ele>252.56</ele>
        <time>2020-05-15T07:00:39Z</time>
      </trkpt>
      <trkpt lat="43.10636" lon="-1.70413">
        <ele>252.526</ele>
        <time>2020-05-15T07:00:59Z</time>
      </trkpt>
      <trkpt lat="43.10631" lon="-1.70419">
        <ele>253.008</ele>
        <time>2020-05-15T07:01:19Z</time>
      </trkpt>
      <trkpt lat="43.10627" lon="-1.70424">
        <ele>253.262</ele>
        <time>2020-05-15T07:01:39Z</time>
      </trkpt>
      <trkpt lat="43.10621" lon="-1.70431">
        <ele>254.057</ele>
        <time>2020-05-15T07:01:59Z</time>
      </trkpt>
      <trkpt lat="43.10612" lon="-1.70442">
        <ele>255.061</ele>
        <time>2020-05-15T07:02:19Z</time>
      </trkpt>
      <trkpt lat="43.10608" lon="-1.70448">
        <ele>255.369</ele>
        <time>2020-05-15T07:02:39Z</time>
      </trkpt>
      <trkpt lat="43.10607" lon="-1.7045">
        <ele>255.354</ele>
        <time>2020-05-15T07:02:59Z</time>
      </trkpt>
      <trkpt lat="43.10605" lon="-1.70453">
        <ele>255.374</ele>
        <time>2020-05-15T07:03:19Z</time>
      </trkpt>
      <trkpt lat="43.10604" lon="-1.70456">
        <ele>255.721</ele>
        <time>2020-05-15T07:03:39Z</time>
      </trkpt>
      <trkpt lat="43.10603" lon="-1.7046">
        <ele>255.733</ele>
        <time>2020-05-15T07:03:59Z</time>
      </trkpt>
      <trkpt lat="43.106" lon="-1.7047">
        <ele>256.047</ele>
        <time>2020-05-15T07:04:19Z</time>
      </trkpt>
      <trkpt lat="43.10596" lon="-1.70509">
        <ele>258.429</ele>
        <time>2020-05-15T07:04:39Z</time>
      </trkpt>
      <trkpt lat="43.10591" lon="-1.70544">
        <ele>260.021</ele>
        <time>2020-05-15T07:04:59Z</time>
      </trkpt>
      <trkpt lat="43.10591" lon="-1.70548">
        <ele>260.408</ele>
        <time>2020-05-15T07:05:19Z</time>
      </trkpt>
      <trkpt lat="43.1059" lon="-1.70553">
        <ele>260.678</ele>
        <time>2020-05-15T07:05:39Z</time>
      </trkpt>
      <trkpt lat="43.10589" lon="-1.70562">
        <ele>260.843</ele>
        <time>2020-05-15T07:05:59Z</time>
      </trkpt>
      <trkpt lat="43.10587" lon="-1.7057">
        <ele>261.037</ele>
        <time>2020-05-15T07:06:19Z</time>
      </trkpt>
      <trkpt lat="43.10586" lon="-1.70577">
        <ele>261.845</ele>
        <time>2020-05-15T07:06:39Z</time>
      </trkpt>
      <trkpt lat="43.10584" lon="-1.70587">
        <ele>261.71</ele>
        <time>2020-05-15T07:06:59Z</time>
      </trkpt>
      <trkpt lat="43.10582" lon="-1.70592">
        <ele>262.29</ele>
        <time>2020-05-15T07:07:19Z</time>
      </trkpt>
      <trkpt lat="43.10581" lon="-1.70596">
        <ele>262.887</ele>
        <time>2020-05-15T07:07:39Z</time>
      </trkpt>
      <trkpt lat="43.10579" lon="-1.706">
        <ele>262.819</ele>
        <time>2020-05-15T07:07:59Z</time>
      </trkpt>
      <trkpt lat="43.10578" lon="-1.70605">
        <ele>263.098</ele>
        <time>2020-05-15T07:08:19Z</time>
      </trkpt>
      <trkpt lat="43.10574" lon="-1.70611">
        <ele>263.215</ele>
        <time>2020-05-15T07:08:39Z</time>
      </trkpt>
      <trkpt lat="43.10571" lon="-1.70618">
        <ele>263.526</ele>
        <time>2020-05-15T07:08:59Z</time>
      </trkpt>
      <trkpt lat="43.10565" lon="-1.70629">
        <ele>264.408</ele>
        <time>2020-05-15T07:09:19Z</time>
      </trkpt>
      <trkpt lat="43.1056" lon="-1.7064">
        <ele>265.013</ele>
        <time>2020-05-15T07:09:39Z</time>
      </trkpt>
      <trkpt lat="43.10555" lon="-1.70648">
        <ele>265.478</ele>
        <time>2020-05-15T07:09:59Z</time>
      </trkpt>
      <trkpt lat="43.10551" lon="-1.70656">
        <ele>265.722</ele>
        <time>2020-05-15T07:10:19Z</time>
      </trkpt>
      <trkpt lat="43.10549" lon="-1.70659">
        <ele>265.96</ele>
        <time>2020-05-15T07:10:39Z</time>
      </trkpt>
      <trkpt lat="43.10546" lon="-1.70665">
        <ele>266.475</ele>
        <time>2020-05-15T07:10:59Z</time>
      </trkpt>
      <trkpt lat="43.10541" lon="-1.70673">
        <ele>267.035</ele>
        <time>2020-05-15T07:11:19Z</time>
      </trkpt>
      <trkpt lat="43.10539" lon="-1.70676">
        <ele>267.322</ele>
        <time>2020-05-15T07:11:39Z</time>
      </trkpt>
      <trkpt lat="43.10537" lon="-1.7068">
        <ele>267.324</ele>
        <time>2020-05-15T07:11:59Z</time>
      </trkpt>
      <trkpt lat="43.10535" lon="-1.70683">
        <ele>267.676</ele>
        <time>2020-05-15T07:12:19Z</time>
      </trkpt>
      <trkpt lat="43.10532" lon="-1.70686">
        <ele>267.69</ele>
        <time>2020-05-15T07:12:39Z</time>
      </trkpt>
      <trkpt lat="43.10523" lon="-1.70698">
        <ele>268.619</ele>
        <time>2020-05-15T07:12:59Z</time>
      </trkpt>
      <trkpt lat="43.10514" lon="-1.70709">
        <ele>269.208</ele>
        <time>2020-05-15T07:13:19Z</time>
      </trkpt>
      <trkpt lat="43.1051" lon="-1.70714">
        <ele>269.851</ele>
        <time>2020-05-15T07:13:39Z</time>
      </trkpt>
      <trkpt lat="43.10507" lon="-1.70719">
        <ele>270.266</ele>
        <time>2020-05-15T07:13:59Z</time>
      </trkpt>
      <trkpt lat="43.10505" lon="-1.70724">
        <ele>270.25</ele>
        <time>2020-05-15T07:14:19Z</time>
      </trkpt>
      <trkpt lat="43.10503" lon="-1.70727">
        <ele>270.738</ele>
        <time>2020-05-15T07:14:39Z</time>
      </trkpt>
      <trkpt lat="43.105" lon="-1.70733">
        <ele>270.983</ele>
        <time>2020-05-15T07:14:59Z</time>
      </trkpt>
      <trkpt lat="43.10498" lon="-1.7074">
        <ele>271.233</ele>
        <time>2020-05-15T07:15:19Z</time>
      </trkpt>
      <trkpt lat="43.10495" lon="-1.70744">
        <ele>271.27</ele>
        <time>2020-05-15T07:15:39Z</time>
      </trkpt>
      <trkpt lat="43.10493" lon="-1.70748">
        <ele>271.812</ele>
        <time>2020-05-15T07:15:59Z</time>
      </trkpt>
      <trkpt lat="43.10491" lon="-1.70753">
        <ele>272.015</ele>
        <time>2020-05-15T07:16:19Z</time>
      </trkpt>
      <trkpt lat="43.10488" lon="-1.70759">
        <ele>272.365</ele>
        <time>2020-05-15T07:16:39Z</time>
      </trkpt>
      <trkpt lat="43.10485" lon="-1.70763">
        <ele>272.411</ele>
        <time>2020-05-15T07:16:59Z</time>
      </trkpt>
      <trkpt lat="43.10482" lon="-1.70767">
        <ele>272.708</ele>
        <time>2020-05-15T07:17:19Z</time>
      </trkpt>
      <trkpt lat="43.1048" lon="-1.7077">
        <ele>273.035</ele>
        <time>2020-05-15T07:17:39Z</time>
      </trkpt>
      <trkpt lat="43.10477" lon="-1.70773">
        <ele>273.06</ele>
        <time>2020-05-15T07:17:59Z</time>
      </trkpt>
      <trkpt lat="43.10474" lon="-1.70776">
        <ele>273.674</ele>
        <time>2020-05-15T07:18:19Z</time>
      </trkpt>
      <trkpt lat="43.1047" lon="-1.7078">
        <ele>273.892</ele>
        <time>2020-05-15T07:18:39Z</time>
      </trkpt>
      <trkpt lat="43.10466" lon="-1.70782">
        <ele>274.287</ele>
        <time>2020-05-15T07:18:59Z</time>
      </trkpt>
      <trkpt lat="43.10463" lon="-1.70785">
        <ele>274.397</ele>
        <time>2020-05-15T07:19:19Z</time>
      </trkpt>
      <trkpt lat="43.1046" lon="-1.70787">
        <ele>274.334</ele>
        <time>2020-05-15T07:19:39Z</time>
      </trkpt>
      <trkpt lat="43.10457" lon="-1.70788">
        <ele>274.766</ele>
        <time>2020-05-15T07:19:59Z</time>
      </trkpt>
      <trkpt lat="43.10453" lon="-1.7079">
        <ele>275.029</ele>
        <time>2020-05-15T07:20:19Z</time>
      </trkpt>
      <trkpt lat="43.10448" lon="-1.70792">
        <ele>275.2</ele>
        <time>2020-05-15T07:20:39Z</time>
      </trkpt>
      <trkpt lat="43.10444" lon="-1.70794">
        <ele>275.52</ele>
        <time>2020-05-15T07:20:59Z</time>
      </trkpt>
      <trkpt lat="43.10439" lon="-1.70796">
        <ele>276.108</ele>
        <time>2020-05-15T07:21:19Z</time>
      </trkpt>
      <trkpt lat="43.10421" lon="-1.70801">
        <ele>277.166</ele>
        <time>2020-05-15T07:21:39Z</time>
      </trkpt>
      <trkpt lat="43.10414" lon="-1.70803">
        <ele>277.631</ele>
        <time>2020-05-15T07:21:59Z</time>
      </trkpt>
      <trkpt lat="43.10403" lon="-1.70806">
        <ele>278.485</ele>
        <time>2020-05-15T07:22:19Z</time>
      </trkpt>
      <trkpt lat="43.10351" lon="-1.70821">
        <ele>282.013</ele>
        <time>2020-05-15T07:22:39Z</time>
      </trkpt>
      <trkpt lat="43.10295" lon="-1.70836">
        <ele>285.498</ele>
        <time>2020-05-15T07:22:59Z</time>
      </trkpt>
      <trkpt lat="43.10285" lon="-1.70839">
        <ele>285.938</ele>
        <time>2020-05-15T07:23:19Z</time>
      </trkpt>
      <trkpt lat="43.1027" lon="-1.70842">
        <ele>287.125</ele>
        <time>2020-05-15T07:23:39Z</time>
      </trkpt>
      <trkpt lat="43.10266" lon="-1.70844">
        <ele>287.387</ele>
        <time>2020-05-15T07:23:59Z</time>
      </trkpt>
      <trkpt lat="43.10258" lon="-1.70845">
        <ele>287.856</ele>
        <time>2020-05-15T07:24:19Z</time>
      </trkpt>
      <trkpt lat="43.1025" lon="-1.70847">
        <ele>288.259</ele>
        <time>2020-05-15T07:24:39Z</time>
      </trkpt>
      <trkpt lat="43.10247" lon="-1.70847">
        <ele>288.514</ele>
        <time>2020-05-15T07:24:59Z</time>
      </trkpt>
      <trkpt lat="43.10244" lon="-1.70847">
        <ele>288.508</ele>
        <time>2020-05-15T07:25:19Z</time>
      </trkpt>
      <trkpt lat="43.10242" lon="-1.70846">
        <ele>289.029</ele>
        <time>2020-05-15T07:25:39Z</time>
      </trkpt>
      <trkpt lat="43.1024" lon="-1.70846">
        <ele>289.084</ele>
        <time>2020-05-15T07:25:59Z</time>
      </trkpt>
      <trkpt lat="43.10237" lon="-1.70845">
        <ele>289.358</ele>
        <time>2020-05-15T07:26:19Z</time>
      </trkpt>
      <trkpt lat="43.10234" lon="-1.70844">
        <ele>289.686</ele>
        <time>2020-05-15T07:26:39Z</time>
      </trkpt>
      <trkpt lat="43.10232" lon="-1.70843">
        <ele>289.641</ele>
        <time>2020-05-15T07:26:59Z</time>
      </trkpt>
      <trkpt lat="43.10225" lon="-1.7084">
        <ele>290.451</ele>
        <time>2020-05-15T07:27:19Z</time>
      </trkpt>
      <trkpt lat="43.10221" lon="-1.70837">
        <ele>290.768</ele>
        <time>2020-05-15T07:27:39Z</time>
      </trkpt>
      <trkpt lat="43.10212" lon="-1.70832">
        <ele>291.13</ele>
        <time>2020-05-15T07:27:59Z</time>
      </trkpt>
      <trkpt lat="43.10204" lon="-1.70827">
        <ele>291.591</ele>
        <time>2020-05-15T07:28:19Z</time>
      </trkpt>
      <trkpt lat="43.10196" lon="-1.70822">
        <ele>292.281</ele>
        <time>2020-05-15T07:28:39Z</time>
      </trkpt>
      <trkpt lat="43.10189" lon="-1.70818">
        <ele>293.119</ele>
        <time>2020-05-15T07:28:59Z</time>
      </trkpt>
      <trkpt lat="43.10183" lon="-1.70813">
        <ele>293.308</ele>
        <time>2020-05-15T07:29:19Z</time>
      </trkpt>
      <trkpt lat="43.10177" lon="-1.70809">
        <ele>293.773</ele>
        <time>2020-05-15T07:29:39Z</time>
      </trkpt>
      <trkpt lat="43.10174" lon="-1.70807">
        <ele>294.048</ele>
        <time>2020-05-15T07:29:59Z</time>
      </trkpt>
      <trkpt lat="43.10171" lon="-1.70804">
        <ele>294.052</ele>
        <time>2020-05-15T07:30:19Z</time>
      </trkpt>
      <trkpt lat="43.10167" lon="-1.70801">
        <ele>295.15</ele>
        <time>2020-05-15T07:30:39Z</time>
      </trkpt>
      <trkpt lat="43.10163" lon="-1.70797">
        <ele>294.935</ele>
        <time>2020-05-15T07:30:59Z</time>
      </trkpt>
      <trkpt lat="43.10159" lon="-1.70793">
        <ele>295.285</ele>
        <time>2020-05-15T07:31:19Z</time>
      </trkpt>
      <trkpt lat="43.10154" lon="-1.70788">
        <ele>295.982</ele>
        <time>2020-05-15T07:31:39Z</time>
      </trkpt>
      <trkpt lat="43.10151" lon="-1.70784">
        <ele>296.134</ele>
        <time>2020-05-15T07:31:59Z</time>
      </trkpt>
      <trkpt lat="43.10148" lon="-1.7078">
        <ele>296.512</ele>
        <time>2020-05-15T07:32:19Z</time>
      </trkpt>
      <trkpt lat="43.10141" lon="-1.7077">
        <ele>297.332</ele>
        <time>2020-05-15T07:32:39Z</time>
      </trkpt>
      <trkpt lat="43.10134" lon="-1.70759">
        <ele>298.005</ele>
        <time>2020-05-15T07:32:59Z</time>
      </trkpt>
      <trkpt lat="43.10132" lon="-1.70756">
        <ele>298.208</ele>
        <time>2020-05-15T07:33:19Z</time>
      </trkpt>
      <trkpt lat="43.10127" lon="-1.70751">
        <ele>298.945</ele>
        <time>2020-05-15T07:33:39Z</time>
      </trkpt>
      <trkpt lat="43.10124" lon="-1.70749">
        <ele>299.09</ele>
        <time>2020-05-15T07:33:59Z</time>
      </trkpt>
      <trkpt lat="43.10123" lon="-1.70748">
        <ele>299.024</ele>
        <time>2020-05-15T07:34:19Z</time>
      </trkpt>
      <trkpt lat="43.10122" lon="-1.70748">
        <ele>299.072</ele>
        <time>2020-05-15T07:34:39Z</time>
      </trkpt>
      <trkpt lat="43.10121" lon="-1.70747">
        <ele>299.117</ele>
        <time>2020-05-15T07:34:59Z</time>
      </trkpt>
      <trkpt lat="43.10119" lon="-1.70747">
        <ele>299.127</ele>
        <time>2020-05-15T07:35:19Z</time>
      </trkpt>
      <trkpt lat="43.10117" lon="-1.70747">
        <ele>299.194</ele>
        <time>2020-05-15T07:35:39Z</time>
      </trkpt>
      <trkpt lat="43.10115" lon="-1.70747">
        <ele>299.546</ele>
        <time>2020-05-15T07:35:59Z</time>
      </trkpt>
      <trkpt lat="43.10114" lon="-1.70747">
        <ele>299.526</ele>
        <time>2020-05-15T07:36:19Z</time>
      </trkpt>
      <trkpt lat="43.10113" lon="-1.70748">
        <ele>299.547</ele>
        <time>2020-05-15T07:36:39Z</time>
      </trkpt>
      <trkpt lat="43.10112" lon="-1.70749">
        <ele>299.811</ele>
        <time>2020-05-15T07:36:59Z</time>
      </trkpt>
      <trkpt lat="43.10111" lon="-1.7075">
        <ele>299.808</ele>
        <time>2020-05-15T07:37:19Z</time>
      </trkpt>
      <trkpt lat="43.10109" lon="-1.70752">
        <ele>299.896</ele>
        <time>2020-05-15T07:37:39Z</time>
      </trkpt>
      <trkpt lat="43.10109" lon="-1.70754">
        <ele>299.881</ele>
        <time>2020-05-15T07:37:59Z</time>
      </trkpt>
      <trkpt lat="43.10108" lon="-1.70755">
        <ele>299.855</ele>
        <time>2020-05-15T07:38:19Z</time>
      </trkpt>
      <trkpt lat="43.10108" lon="-1.70758">
        <ele>300.193</ele>
        <time>2020-05-15T07:38:39Z</time>
      </trkpt>
      <trkpt lat="43.10107" lon="-1.7076">
        <ele>300.388</ele>
        <time>2020-05-15T07:38:59Z</time>
      </trkpt>
      <trkpt lat="43.10107" lon="-1.70762">
        <ele>300.368</ele>
        <time>2020-05-15T07:39:19Z</time>
      </trkpt>
      <trkpt lat="43.10107" lon="-1.70764">
        <ele>300.325</ele>
        <time>2020-05-15T07:39:39Z</time>
      </trkpt>
      <trkpt lat="43.10107" lon="-1.70769">
        <ele>300.627</ele>
        <time>2020-05-15T07:39:59Z</time>
      </trkpt>
      <trkpt lat="43.10108" lon="-1.70779">
        <ele>301.679</ele>
        <time>2020-05-15T07:40:19Z</time>
      </trkpt>
      <trkpt lat="43.10109" lon="-1.70792">
        <ele>302.305</ele>
        <time>2020-05-15T07:40:39Z</time>
      </trkpt>
      <trkpt lat="43.10109" lon="-1.70796">
        <ele>302.725</ele>
        <time>2020-05-15T07:40:59Z</time>
      </trkpt>
      <trkpt lat="43.10109" lon="-1.70797">
        <ele>302.708</ele>
        <time>2020-05-15T07:41:19Z</time>
      </trkpt>
      <trkpt lat="43.10108" lon="-1.70801">
        <ele>302.421</ele>
        <time>2020-05-15T07:41:39Z</time>
      </trkpt>
      <trkpt lat="43.10108" lon="-1.70802">
        <ele>303.026</ele>
        <time>2020-05-15T07:41:59Z</time>
      </trkpt>
      <trkpt lat="43.10107" lon="-1.70804">
        <ele>303.02</ele>
        <time>2020-05-15T07:42:19Z</time>
      </trkpt>
      <trkpt lat="43.10107" lon="-1.70805">
        <ele>303.068</ele>
        <time>2020-05-15T07:42:39Z</time>
      </trkpt>
      <trkpt lat="43.10106" lon="-1.70807">
        <ele>303.013</ele>
        <time>2020-05-15T07:42:59Z</time>
      </trkpt>
      <trkpt lat="43.10105" lon="-1.70809">
        <ele>303.123</ele>
        <time>2020-05-15T07:43:19Z</time>
      </trkpt>
      <trkpt lat="43.10104" lon="-1.7081">
        <ele>303.11</ele>
        <time>2020-05-15T07:43:39Z</time>
      </trkpt>
      <trkpt lat="43.10103" lon="-1.70811">
        <ele>303.252</ele>
        <time>2020-05-15T07:43:59Z</time>
      </trkpt>
      <trkpt lat="43.10102" lon="-1.70812">
        <ele>303.231</ele>
        <time>2020-05-15T07:44:19Z</time>
      </trkpt>
      <trkpt lat="43.10098" lon="-1.70814">
        <ele>303.061</ele>
        <time>2020-05-15T07:44:39Z</time>
      </trkpt>
      <trkpt lat="43.10095" lon="-1.70817">
        <ele>303.407</ele>
        <time>2020-05-15T07:44:59Z</time>
      </trkpt>
      <trkpt lat="43.10086" lon="-1.70822">
        <ele>303.608</ele>
        <time>2020-05-15T07:45:19Z</time>
      </trkpt>
      <trkpt lat="43.10078" lon="-1.70827">
        <ele>302.467</ele>
        <time>2020-05-15T07:45:39Z</time>
      </trkpt>
      <trkpt lat="43.1007" lon="-1.70831">
        <ele>304.162</ele>
        <time>2020-05-15T07:45:59Z</time>
      </trkpt>
      <trkpt lat="43.10067" lon="-1.70833">
        <ele>304.466</ele>
        <time>2020-05-15T07:46:19Z</time>
      </trkpt>
      <trkpt lat="43.10061" lon="-1.70836">
        <ele>304.614</ele>
        <time>2020-05-15T07:46:39Z</time>
      </trkpt>
      <trkpt lat="43.1006" lon="-1.70836">
        <ele>304.689</ele>
        <time>2020-05-15T07:46:59Z</time>
      </trkpt>
      <trkpt lat="43.10059" lon="-1.70837">
        <ele>304.639</ele>
        <time>2020-05-15T07:47:19Z</time>
      </trkpt>
      <trkpt lat="43.10058" lon="-1.70838">
        <ele>304.856</ele>
        <time>2020-05-15T07:47:39Z</time>
      </trkpt>
      <trkpt lat="43.10057" lon="-1.7084">
        <ele>304.868</ele>
        <time>2020-05-15T07:47:59Z</time>
      </trkpt>
      <trkpt lat="43.10055" lon="-1.70842">
        <ele>304.894</ele>
        <time>2020-05-15T07:48:19Z</time>
      </trkpt>
      <trkpt lat="43.10055" lon="-1.70843">
        <ele>305.157</ele>
        <time>2020-05-15T07:48:39Z</time>
      </trkpt>
      <trkpt lat="43.10053" lon="-1.70845">
        <ele>305.122</ele>
        <time>2020-05-15T07:48:59Z</time>
      </trkpt>
      <trkpt lat="43.10052" lon="-1.70848">
        <ele>305.108</ele>
        <time>2020-05-15T07:49:19Z</time>
      </trkpt>
      <trkpt lat="43.10052" lon="-1.7085">
        <ele>305.163</ele>
        <time>2020-05-15T07:49:39Z</time>
      </trkpt>
      <trkpt lat="43.10052" lon="-1.70852">
        <ele>305.178</ele>
        <time>2020-05-15T07:49:59Z</time>
      </trkpt>
      <trkpt lat="43.10052" lon="-1.70854">
        <ele>305.722</ele>
        <time>2020-05-15T07:50:19Z</time>
      </trkpt>
      <trkpt lat="43.10052" lon="-1.70855">
        <ele>305.76</ele>
        <time>2020-05-15T07:50:39Z</time>
      </trkpt>
      <trkpt lat="43.10053" lon="-1.70858">
        <ele>305.785</ele>
        <time>2020-05-15T07:50:59Z</time>
      </trkpt>
      <trkpt lat="43.10054" lon="-1.7086">
        <ele>306.265</ele>
        <time>2020-05-15T07:51:19Z</time>
      </trkpt>
      <trkpt lat="43.10055" lon="-1.70862">
        <ele>306.262</ele>
        <time>2020-05-15T07:51:39Z</time>
      </trkpt>
      <trkpt lat="43.10056" lon="-1.70863">
        <ele>306.254</ele>
        <time>2020-05-15T07:51:59Z</time>
      </trkpt>
      <trkpt lat="43.10056" lon="-1.70864">
        <ele>306.214</ele>
        <time>2020-05-15T07:52:19Z</time>
      </trkpt>
      <trkpt lat="43.10057" lon="-1.70865">
        <ele>306.654</ele>
        <time>2020-05-15T07:52:39Z</time>
      </trkpt>
      <trkpt lat="43.10059" lon="-1.70866">
        <ele>306.609</ele>
        <time>2020-05-15T07:52:59Z</time>
      </trkpt>
      <trkpt lat="43.10061" lon="-1.70867">
        <ele>306.608</ele>
        <time>2020-05-15T07:53:19Z</time>
      </trkpt>
      <trkpt lat="43.10063" lon="-1.70868">
        <ele>306.685</ele>
        <time>2020-05-15T07:53:39Z</time>
      </trkpt>
      <trkpt lat="43.10066" lon="-1.7087">
        <ele>307.04</ele>
        <time>2020-05-15T07:53:59Z</time>
      </trkpt>
      <trkpt lat="43.10075" lon="-1.70872">
        <ele>307.434</ele>
        <time>2020-05-15T07:54:19Z</time>
      </trkpt>
      <trkpt lat="43.10079" lon="-1.70873">
        <ele>307.572</ele>
        <time>2020-05-15T07:54:39Z</time>
      </trkpt>
      <trkpt lat="43.10085" lon="-1.70875">
        <ele>307.837</ele>
        <time>2020-05-15T07:54:59Z</time>
      </trkpt>
      <trkpt lat="43.10089" lon="-1.70876">
        <ele>309.257</ele>
        <time>2020-05-15T07:55:19Z</time>
      </trkpt>
      <trkpt lat="43.10093" lon="-1.70878">
        <ele>308.564</ele>
        <time>2020-05-15T07:55:39Z</time>
      </trkpt>
      <trkpt lat="43.10096" lon="-1.70879">
        <ele>308.536</ele>
        <time>2020-05-15T07:55:59Z</time>
      </trkpt>
      <trkpt lat="43.10099" lon="-1.70881">
        <ele>308.714</ele>
        <time>2020-05-15T07:56:19Z</time>
      </trkpt>
      <trkpt lat="43.10102" lon="-1.70882">
        <ele>309.254</ele>
        <time>2020-05-15T07:56:39Z</time>
      </trkpt>
      <trkpt lat="43.10104" lon="-1.70884">
        <ele>309.209</ele>
        <time>2020-05-15T07:56:59Z</time>
      </trkpt>
      <trkpt lat="43.10106" lon="-1.70885">
        <ele>309.508</ele>
        <time>2020-05-15T07:57:19Z</time>
      </trkpt>
      <trkpt lat="43.10107" lon="-1.70886">
        <ele>309.545</ele>
        <time>2020-05-15T07:57:39Z</time>
      </trkpt>
      <trkpt lat="43.10108" lon="-1.70887">
        <ele>309.53</ele>
        <time>2020-05-15T07:57:59Z</time>
      </trkpt>
      <trkpt lat="43.10112" lon="-1.70892">
        <ele>309.894</ele>
        <time>2020-05-15T07:58:19Z</time>
      </trkpt>
      <trkpt lat="43.10115" lon="-1.70896">
        <ele>310.082</ele>
        <time>2020-05-15T07:58:39Z</time>
      </trkpt>
      <trkpt lat="43.10117" lon="-1.70899">
        <ele>310.057</ele>
        <time>2020-05-15T07:58:59Z</time>
      </trkpt>
      <trkpt lat="43.1012" lon="-1.70903">
        <ele>310.647</ele>
        <time>2020-05-15T07:59:19Z</time>
      </trkpt>
      <trkpt lat="43.10129" lon="-1.70919">
        <ele>311.394</ele>
        <time>2020-05-15T07:59:39Z</time>
      </trkpt>
      <trkpt lat="43.10138" lon="-1.70935">
        <ele>312.386</ele>
        <time>2020-05-15T07:59:59Z</time>
      </trkpt>
      <trkpt lat="43.10149" lon="-1.70954">
        <ele>313.313</ele>
        <time>2020-05-15T08:00:19Z</time>
      </trkpt>
      <trkpt lat="43.10159" lon="-1.70972">
        <ele>314.343</ele>
        <time>2020-05-15T08:00:39Z</time>
      </trkpt>
      <trkpt lat="43.10168" lon="-1.70987">
        <ele>315.307</ele>
        <time>2020-05-15T08:00:59Z</time>
      </trkpt>
      <trkpt lat="43.10177" lon="-1.71001">
        <ele>316.108</ele>
        <time>2020-05-15T08:01:19Z</time>
      </trkpt>
      <trkpt lat="43.10179" lon="-1.71006">
        <ele>316.555</ele>
        <time>2020-05-15T08:01:39Z</time>
      </trkpt>
      <trkpt lat="43.10182" lon="-1.71011">
        <ele>316.65</ele>
        <time>2020-05-15T08:01:59Z</time>
      </trkpt>
      <trkpt lat="43.10183" lon="-1.71015">
        <ele>316.674</ele>
        <time>2020-05-15T08:02:19Z</time>
      </trkpt>
      <trkpt lat="43.10185" lon="-1.71019">
        <ele>316.942</ele>
        <time>2020-05-15T08:02:39Z</time>
      </trkpt>
      <trkpt lat="43.10186" lon="-1.71024">
        <ele>317.297</ele>
        <time>2020-05-15T08:02:59Z</time>
      </trkpt>
      <trkpt lat="43.10187" lon="-1.71029">
        <ele>317.437</ele>
        <time>2020-05-15T08:03:19Z</time>
      </trkpt>
      <trkpt lat="43.10188" lon="-1.71035">
        <ele>317.864</ele>
        <time>2020-05-15T08:03:39Z</time>
      </trkpt>
      <trkpt lat="43.10189" lon="-1.71041">
        <ele>318.056</ele>
        <time>2020-05-15T08:03:59Z</time>
      </trkpt>
      <trkpt lat="43.10189" lon="-1.7105">
        <ele>318.334</ele>
        <time>2020-05-15T08:04:19Z</time>
      </trkpt>
      <trkpt lat="43.1019" lon="-1.71059">
        <ele>318.855</ele>
        <time>2020-05-15T08:04:39Z</time>
      </trkpt>
      <trkpt lat="43.1019" lon="-1.71067">
        <ele>319.01</ele>
        <time>2020-05-15T08:04:59Z</time>
      </trkpt>
      <trkpt lat="43.1019" lon="-1.71075">
        <ele>319.408</ele>
        <time>2020-05-15T08:05:19Z</time>
      </trkpt>
      <trkpt lat="43.1019" lon="-1.71083">
        <ele>319.817</ele>
        <time>2020-05-15T08:05:39Z</time>
      </trkpt>
      <trkpt lat="43.10189" lon="-1.71091">
        <ele>319.922</ele>
        <time>2020-05-15T08:05:59Z</time>
      </trkpt>
      <trkpt lat="43.10189" lon="-1.71097">
        <ele>320.496</ele>
        <time>2020-05-15T08:06:19Z</time>
      </trkpt>
      <trkpt lat="43.10188" lon="-1.71103">
        <ele>320.644</ele>
        <time>2020-05-15T08:06:39Z</time>
      </trkpt>
      <trkpt lat="43.10187" lon="-1.7111">
        <ele>320.819</ele>
        <time>2020-05-15T08:06:59Z</time>
      </trkpt>
      <trkpt lat="43.10186" lon="-1.71116">
        <ele>321.079</ele>
        <time>2020-05-15T08:07:19Z</time>
      </trkpt>
      <trkpt lat="43.10184" lon="-1.71123">
        <ele>321.656</ele>
        <time>2020-05-15T08:07:39Z</time>
      </trkpt>
      <trkpt lat="43.10184" lon="-1.71124">
        <ele>321.638</ele>
        <time>2020-05-15T08:07:59Z</time>
      </trkpt>
      <trkpt lat="43.10183" lon="-1.71127">
        <ele>321.868</ele>
        <time>2020-05-15T08:08:19Z</time>
      </trkpt>
      <trkpt lat="43.10181" lon="-1.71132">
        <ele>321.842</ele>
        <time>2020-05-15T08:08:39Z</time>
      </trkpt>
      <trkpt lat="43.10175" lon="-1.7115">
        <ele>322.826</ele>
        <time>2020-05-15T08:08:59Z</time>
      </trkpt>
      <trkpt lat="43.10173" lon="-1.71154">
        <ele>323.008</ele>
        <time>2020-05-15T08:09:19Z</time>
      </trkpt>
      <trkpt lat="43.10171" lon="-1.71158">
        <ele>323.34</ele>
        <time>2020-05-15T08:09:39Z</time>
      </trkpt>
      <trkpt lat="43.10164" lon="-1.71174">
        <ele>323.875</ele>
        <time>2020-05-15T08:09:59Z</time>
      </trkpt>
      <trkpt lat="43.10163" lon="-1.71178">
        <ele>323.539</ele>
        <time>2020-05-15T08:10:19Z</time>
      </trkpt>
      <trkpt lat="43.10161" lon="-1.71182">
        <ele>324.147</ele>
        <time>2020-05-15T08:10:39Z</time>
      </trkpt>
      <trkpt lat="43.1016" lon="-1.71185">
        <ele>324.152</ele>
        <time>2020-05-15T08:10:59Z</time>
      </trkpt>
      <trkpt lat="43.10159" lon="-1.71189">
        <ele>323.552</ele>
        <time>2020-05-15T08:11:19Z</time>
      </trkpt>
      <trkpt lat="43.10159" lon="-1.71192">
        <ele>323.529</ele>
        <time>2020-05-15T08:11:39Z</time>
      </trkpt>
      <trkpt lat="43.10158" lon="-1.71196">
        <ele>322.911</ele>
        <time>2020-05-15T08:11:59Z</time>
      </trkpt>
      <trkpt lat="43.10158" lon="-1.71198">
        <ele>322.994</ele>
        <time>2020-05-15T08:12:19Z</time>
      </trkpt>
      <trkpt lat="43.10158" lon="-1.71199">
        <ele>322.957</ele>
        <time>2020-05-15T08:12:39Z</time>
      </trkpt>
      <trkpt lat="43.10158" lon="-1.71202">
        <ele>323.622</ele>
        <time>2020-05-15T08:12:59Z</time>
      </trkpt>
      <trkpt lat="43.10159" lon="-1.71204">
        <ele>323.608</ele>
        <time>2020-05-15T08:13:19Z</time>
      </trkpt>
      <trkpt lat="43.10159" lon="-1.71207">
        <ele>325.383</ele>
        <time>2020-05-15T08:13:39Z</time>
      </trkpt>
      <trkpt lat="43.1016" lon="-1.7121">
        <ele>325.368</ele>
        <time>2020-05-15T08:13:59Z</time>
      </trkpt>
      <trkpt lat="43.1016" lon="-1.71213">
        <ele>325.822</ele>
        <time>2020-05-15T08:14:19Z</time>
      </trkpt>
      <trkpt lat="43.10161" lon="-1.71215">
        <ele>325.85</ele>
        <time>2020-05-15T08:14:39Z</time>
      </trkpt>
      <trkpt lat="43.10162" lon="-1.71219">
        <ele>326.545</ele>
        <time>2020-05-15T08:14:59Z</time>
      </trkpt>
      <trkpt lat="43.10164" lon="-1.71223">
        <ele>326.445</ele>
        <time>2020-05-15T08:15:19Z</time>
      </trkpt>
      <trkpt lat="43.10165" lon="-1.71226">
        <ele>326.752</ele>
        <time>2020-05-15T08:15:39Z</time>
      </trkpt>
      <trkpt lat="43.10166" lon="-1.71229">
        <ele>326.784</ele>
        <time>2020-05-15T08:15:59Z</time>
      </trkpt>
      <trkpt lat="43.10169" lon="-1.71237">
        <ele>326.943</ele>
        <time>2020-05-15T08:16:19Z</time>
      </trkpt>
      <trkpt lat="43.10174" lon="-1.71245">
        <ele>327.764</ele>
        <time>2020-05-15T08:16:39Z</time>
      </trkpt>
      <trkpt lat="43.10176" lon="-1.71253">
        <ele>327.81</ele>
        <time>2020-05-15T08:16:59Z</time>
      </trkpt>
      <trkpt lat="43.10177" lon="-1.71256">
        <ele>328.108</ele>
        <time>2020-05-15T08:17:19Z</time>
      </trkpt>
      <trkpt lat="43.10179" lon="-1.71262">
        <ele>328.578</ele>
        <time>2020-05-15T08:17:39Z</time>
      </trkpt>
      <trkpt lat="43.1018" lon="-1.71266">
        <ele>328.593</ele>
        <time>2020-05-15T08:17:59Z</time>
      </trkpt>
      <trkpt lat="43.10181" lon="-1.71272">
        <ele>329.027</ele>
        <time>2020-05-15T08:18:19Z</time>
      </trkpt>
      <trkpt lat="43.10182" lon="-1.71278">
        <ele>329.725</ele>
        <time>2020-05-15T08:18:39Z</time>
      </trkpt>
      <trkpt lat="43.10182" lon="-1.71282">
        <ele>329.92</ele>
        <time>2020-05-15T08:18:59Z</time>
      </trkpt>
      <trkpt lat="43.10182" lon="-1.71286">
        <ele>329.54</ele>
        <time>2020-05-15T08:19:19Z</time>
      </trkpt>
      <trkpt lat="43.10182" lon="-1.7129">
        <ele>329.537</ele>
        <time>2020-05-15T08:19:39Z</time>
      </trkpt>
      <trkpt lat="43.10182" lon="-1.71294">
        <ele>329.279</ele>
        <time>2020-05-15T08:19:59Z</time>
      </trkpt>
      <trkpt lat="43.10181" lon="-1.71317">
        <ele>331.175</ele>
        <time>2020-05-15T08:20:19Z</time>
      </trkpt>
      <trkpt lat="43.1018" lon="-1.71324">
        <ele>331.328</ele>
        <time>2020-05-15T08:20:39Z</time>
      </trkpt>
      <trkpt lat="43.10179" lon="-1.71332">
        <ele>330.92</ele>
        <time>2020-05-15T08:20:59Z</time>
      </trkpt>
      <trkpt lat="43.10178" lon="-1.71338">
        <ele>330.508</ele>
        <time>2020-05-15T08:21:19Z</time>
      </trkpt>
      <trkpt lat="43.10177" lon="-1.71344">
        <ele>332.311</ele>
        <time>2020-05-15T08:21:39Z</time>
      </trkpt>
      <trkpt lat="43.10176" lon="-1.71349">
        <ele>332.576</ele>
        <time>2020-05-15T08:21:59Z</time>
      </trkpt>
      <trkpt lat="43.10174" lon="-1.71359">
        <ele>332.79</ele>
        <time>2020-05-15T08:22:19Z</time>
      </trkpt>
      <trkpt lat="43.10171" lon="-1.71367">
        <ele>333.418</ele>
        <time>2020-05-15T08:22:39Z</time>
      </trkpt>
      <trkpt lat="43.1017" lon="-1.71373">
        <ele>332.283</ele>
        <time>2020-05-15T08:22:59Z</time>
      </trkpt>
      <trkpt lat="43.10168" lon="-1.71379">
        <ele>333.713</ele>
        <time>2020-05-15T08:23:19Z</time>
      </trkpt>
      <trkpt lat="43.10162" lon="-1.7139">
        <ele>334.27</ele>
        <time>2020-05-15T08:23:39Z</time>
      </trkpt>
      <trkpt lat="43.10158" lon="-1.71401">
        <ele>334.922</ele>
        <time>2020-05-15T08:23:59Z</time>
      </trkpt>
      <trkpt lat="43.10153" lon="-1.7141">
        <ele>335.447</ele>
        <time>2020-05-15T08:24:19Z</time>
      </trkpt>
      <trkpt lat="43.10148" lon="-1.71419">
        <ele>334.629</ele>
        <time>2020-05-15T08:24:39Z</time>
      </trkpt>
      <trkpt lat="43.1014" lon="-1.71432">
        <ele>336.621</ele>
        <time>2020-05-15T08:24:59Z</time>
      </trkpt>
      <trkpt lat="43.10131" lon="-1.71447">
        <ele>336.208</ele>
        <time>2020-05-15T08:25:19Z</time>
      </trkpt>
      <trkpt lat="43.10123" lon="-1.71459">
        <ele>338.128</ele>
        <time>2020-05-15T08:25:39Z</time>
      </trkpt>
      <trkpt lat="43.10121" lon="-1.71462">
        <ele>338.333</ele>
        <time>2020-05-15T08:25:59Z</time>
      </trkpt>
      <trkpt lat="43.10109" lon="-1.71479">
        <ele>339.057</ele>
        <time>2020-05-15T08:26:19Z</time>
      </trkpt>
      <trkpt lat="43.10105" lon="-1.71485">
        <ele>339.955</ele>
        <time>2020-05-15T08:26:39Z</time>
      </trkpt>
      <trkpt lat="43.10101" lon="-1.71491">
        <ele>339.77</ele>
        <time>2020-05-15T08:26:59Z</time>
      </trkpt>
      <trkpt lat="43.10089" lon="-1.71508">
        <ele>341.39</ele>
        <time>2020-05-15T08:27:19Z</time>
      </trkpt>
      <trkpt lat="43.10082" lon="-1.71515">
        <ele>341.877</ele>
        <time>2020-05-15T08:27:39Z</time>
      </trkpt>
      <trkpt lat="43.10078" lon="-1.7152">
        <ele>342.299</ele>
        <time>2020-05-15T08:27:59Z</time>
      </trkpt>
      <trkpt lat="43.10076" lon="-1.71522">
        <ele>342.429</ele>
        <time>2020-05-15T08:28:19Z</time>
      </trkpt>
      <trkpt lat="43.10073" lon="-1.71524">
        <ele>342.4</ele>
        <time>2020-05-15T08:28:39Z</time>
      </trkpt>
      <trkpt lat="43.1007" lon="-1.71526">
        <ele>342.92</ele>
        <time>2020-05-15T08:28:59Z</time>
      </trkpt>
      <trkpt lat="43.10067" lon="-1.71527">
        <ele>342.908</ele>
        <time>2020-05-15T08:29:19Z</time>
      </trkpt>
      <trkpt lat="43.10067" lon="-1.71528">
        <ele>343.076</ele>
        <time>2020-05-15T08:29:39Z</time>
      </trkpt>
      <trkpt lat="43.10066" lon="-1.71528">
        <ele>343.431</ele>
        <time>2020-05-15T08:29:59Z</time>
      </trkpt>
      <trkpt lat="43.10062" lon="-1.71529">
        <ele>343.595</ele>
        <time>2020-05-15T08:30:19Z</time>
      </trkpt>
      <trkpt lat="43.10059" lon="-1.7153">
        <ele>343.533</ele>
        <time>2020-05-15T08:30:39Z</time>
      </trkpt>
      <trkpt lat="43.10057" lon="-1.7153">
        <ele>343.778</ele>
        <time>2020-05-15T08:30:59Z</time>
      </trkpt>
      <trkpt lat="43.10055" lon="-1.7153">
        <ele>343.788</ele>
        <time>2020-05-15T08:31:19Z</time>
      </trkpt>
      <trkpt lat="43.10052" lon="-1.7153">
        <ele>344.185</ele>
        <time>2020-05-15T08:31:39Z</time>
      </trkpt>
      <trkpt lat="43.1005" lon="-1.7153">
        <ele>344.197</ele>
        <time>2020-05-15T08:31:59Z</time>
      </trkpt>
      <trkpt lat="43.10047" lon="-1.71529">
        <ele>344.454</ele>
        <time>2020-05-15T08:32:19Z</time>
      </trkpt>
      <trkpt lat="43.10043" lon="-1.71528">
        <ele>344.556</ele>
        <time>2020-05-15T08:32:39Z</time>
      </trkpt>
      <trkpt lat="43.10035" lon="-1.71524">
        <ele>344.711</ele>
        <time>2020-05-15T08:32:59Z</time>
      </trkpt>
      <trkpt lat="43.10027" lon="-1.7152">
        <ele>345.508</ele>
        <time>2020-05-15T08:33:19Z</time>
      </trkpt>
      <trkpt lat="43.10019" lon="-1.71517">
        <ele>346.049</ele>
        <time>2020-05-15T08:33:39Z</time>
      </trkpt>
      <trkpt lat="43.1001" lon="-1.71513">
        <ele>346.734</ele>
        <time>2020-05-15T08:33:59Z</time>
      </trkpt>
      <trkpt lat="43.10004" lon="-1.71511">
        <ele>347.498</ele>
        <time>2020-05-15T08:34:19Z</time>
      </trkpt>
      <trkpt lat="43.10001" lon="-1.7151">
        <ele>347.476</ele>
        <time>2020-05-15T08:34:39Z</time>
      </trkpt>
      <trkpt lat="43.09997" lon="-1.71509">
        <ele>347.831</ele>
        <time>2020-05-15T08:34:59Z</time>
      </trkpt>
      <trkpt lat="43.09994" lon="-1.71509">
        <ele>348.121</ele>
        <time>2020-05-15T08:35:19Z</time>
      </trkpt>
      <trkpt lat="43.0999" lon="-1.71509">
        <ele>348.258</ele>
        <time>2020-05-15T08:35:39Z</time>
      </trkpt>
      <trkpt lat="43.09984" lon="-1.71509">
        <ele>348.54</ele>
        <time>2020-05-15T08:35:59Z</time>
      </trkpt>
      <trkpt lat="43.09974" lon="-1.71511">
        <ele>349.113</ele>
        <time>2020-05-15T08:36:19Z</time>
      </trkpt>
      <trkpt lat="43.09962" lon="-1.71513">
        <ele>350.043</ele>
        <time>2020-05-15T08:36:39Z</time>
      </trkpt>
      <trkpt lat="43.09954" lon="-1.71514">
        <ele>350.507</ele>
        <time>2020-05-15T08:36:59Z</time>
      </trkpt>
      <trkpt lat="43.0995" lon="-1.71514">
        <ele>350.508</ele>
        <time>2020-05-15T08:37:19Z</time>
      </trkpt>
      <trkpt lat="43.09946" lon="-1.71513">
        <ele>350.625</ele>
        <time>2020-05-15T08:37:39Z</time>
      </trkpt>
      <trkpt lat="43.09943" lon="-1.71512">
        <ele>351.16</ele>
        <time>2020-05-15T08:37:59Z</time>
      </trkpt>
      <trkpt lat="43.09941" lon="-1.71512">
        <ele>350.774</ele>
        <time>2020-05-15T08:38:19Z</time>
      </trkpt>
      <trkpt lat="43.09937" lon="-1.7151">
        <ele>351.022</ele>
        <time>2020-05-15T08:38:39Z</time>
      </trkpt>
      <trkpt lat="43.09934" lon="-1.71507">
        <ele>351.377</ele>
        <time>2020-05-15T08:38:59Z</time>
      </trkpt>
      <trkpt lat="43.09931" lon="-1.71505">
        <ele>351.467</ele>
        <time>2020-05-15T08:39:19Z</time>
      </trkpt>
      <trkpt lat="43.09927" lon="-1.71501">
        <ele>351.414</ele>
        <time>2020-05-15T08:39:39Z</time>
      </trkpt>
      <trkpt lat="43.09925" lon="-1.71499">
        <ele>351.986</ele>
        <time>2020-05-15T08:39:59Z</time>
      </trkpt>
      <trkpt lat="43.09923" lon="-1.71496">
        <ele>351.936</ele>
        <time>2020-05-15T08:40:19Z</time>
      </trkpt>
      <trkpt lat="43.0992" lon="-1.71492">
        <ele>352.117</ele>
        <time>2020-05-15T08:40:39Z</time>
      </trkpt>
      <trkpt lat="43.09916" lon="-1.71486">
        <ele>352.418</ele>
        <time>2020-05-15T08:40:59Z</time>
      </trkpt>
      <trkpt lat="43.09913" lon="-1.7148">
        <ele>352.808</ele>
        <time>2020-05-15T08:41:19Z</time>
      </trkpt>
      <trkpt lat="43.09911" lon="-1.71476">
        <ele>352.827</ele>
        <time>2020-05-15T08:41:39Z</time>
      </trkpt>
      <trkpt lat="43.09909" lon="-1.71472">
        <ele>352.962</ele>
        <time>2020-05-15T08:41:59Z</time>
      </trkpt>
      <trkpt lat="43.09907" lon="-1.71466">
        <ele>353.486</ele>
        <time>2020-05-15T08:42:19Z</time>
      </trkpt>
      <trkpt lat="43.09903" lon="-1.71455">
        <ele>353.984</ele>
        <time>2020-05-15T08:42:39Z</time>
      </trkpt>
      <trkpt lat="43.09898" lon="-1.71441">
        <ele>354.689</ele>
        <time>2020-05-15T08:42:59Z</time>
      </trkpt>
      <trkpt lat="43.09892" lon="-1.71422">
        <ele>355.329</ele>
        <time>2020-05-15T08:43:19Z</time>
      </trkpt>
      <trkpt lat="43.09885" lon="-1.71394">
        <ele>356.946</ele>
        <time>2020-05-15T08:43:39Z</time>
      </trkpt>
      <trkpt lat="43.0988" lon="-1.71377">
        <ele>357.638</ele>
        <time>2020-05-15T08:43:59Z</time>
      </trkpt>
      <trkpt lat="43.09875" lon="-1.71358">
        <ele>358.598</ele>
        <time>2020-05-15T08:44:19Z</time>
      </trkpt>
      <trkpt lat="43.0987" lon="-1.71337">
        <ele>359.315</ele>
        <time>2020-05-15T08:44:39Z</time>
      </trkpt>
      <trkpt lat="43.0987" lon="-1.71335">
        <ele>359.526</ele>
        <time>2020-05-15T08:44:59Z</time>
      </trkpt>
      <trkpt lat="43.09868" lon="-1.71325">
        <ele>359.808</ele>
        <time>2020-05-15T08:45:19Z</time>
      </trkpt>
      <trkpt lat="43.09866" lon="-1.71315">
        <ele>360.683</ele>
        <time>2020-05-15T08:45:39Z</time>
      </trkpt>
      <trkpt lat="43.09864" lon="-1.71304">
        <ele>360.928</ele>
        <time>2020-05-15T08:45:59Z</time>
      </trkpt>
      <trkpt lat="43.09863" lon="-1.71297">
        <ele>361.422</ele>
        <time>2020-05-15T08:46:19Z</time>
      </trkpt>
      <trkpt lat="43.09862" lon="-1.71288">
        <ele>362.12</ele>
        <time>2020-05-15T08:46:39Z</time>
      </trkpt>
      <trkpt lat="43.09862" lon="-1.71277">
        <ele>362.255</ele>
        <time>2020-05-15T08:46:59Z</time>
      </trkpt>
      <trkpt lat="43.09862" lon="-1.71267">
        <ele>363.385</ele>
        <time>2020-05-15T08:47:19Z</time>
      </trkpt>
      <trkpt lat="43.09862" lon="-1.71247">
        <ele>363.752</ele>
        <time>2020-05-15T08:47:39Z</time>
      </trkpt>
      <trkpt lat="43.09863" lon="-1.71218">
        <ele>364.964</ele>
        <time>2020-05-15T08:47:59Z</time>
      </trkpt>
      <trkpt lat="43.09863" lon="-1.71167">
        <ele>366.998</ele>
        <time>2020-05-15T08:48:19Z</time>
      </trkpt>
      <trkpt lat="43.09864" lon="-1.71129">
        <ele>368.115</ele>
        <time>2020-05-15T08:48:39Z</time>
      </trkpt>
      <trkpt lat="43.09864" lon="-1.71118">
        <ele>368.626</ele>
        <time>2020-05-15T08:48:59Z</time>
      </trkpt>
      <trkpt lat="43.09863" lon="-1.71106">
        <ele>369.008</ele>
        <time>2020-05-15T08:49:19Z</time>
      </trkpt>
      <trkpt lat="43.09863" lon="-1.71101">
        <ele>369.593</ele>
        <time>2020-05-15T08:49:39Z</time>
      </trkpt>
      <trkpt lat="43.09862" lon="-1.71097">
        <ele>369.518</ele>
        <time>2020-05-15T08:49:59Z</time>
      </trkpt>
      <trkpt lat="43.09862" lon="-1.71094">
        <ele>369.712</ele>
        <time>2020-05-15T08:50:19Z</time>
      </trkpt>
      <trkpt lat="43.0986" lon="-1.71087">
        <ele>370.13</ele>
        <time>2020-05-15T08:50:39Z</time>
      </trkpt>
      <trkpt lat="43.09859" lon="-1.71084">
        <ele>369.875</ele>
        <time>2020-05-15T08:50:59Z</time>
      </trkpt>
      <trkpt lat="43.09858" lon="-1.71082">
        <ele>370.245</ele>
        <time>2020-05-15T08:51:19Z</time>
      </trkpt>
      <trkpt lat="43.09857" lon="-1.7108">
        <ele>370.232</ele>
        <time>2020-05-15T08:51:39Z</time>
      </trkpt>
      <trkpt lat="43.09855" lon="-1.71078">
        <ele>370.234</ele>
        <time>2020-05-15T08:51:59Z</time>
      </trkpt>
      <trkpt lat="43.09854" lon="-1.71077">
        <ele>370.959</ele>
        <time>2020-05-15T08:52:19Z</time>
      </trkpt>
      <trkpt lat="43.09853" lon="-1.71076">
        <ele>370.903</ele>
        <time>2020-05-15T08:52:39Z</time>
      </trkpt>
      <trkpt lat="43.09851" lon="-1.71074">
        <ele>370.923</ele>
        <time>2020-05-15T08:52:59Z</time>
      </trkpt>
      <trkpt lat="43.09849" lon="-1.71073">
        <ele>371.108</ele>
        <time>2020-05-15T08:53:19Z</time>
      </trkpt>
      <trkpt lat="43.09847" lon="-1.71072">
        <ele>371.119</ele>
        <time>2020-05-15T08:53:39Z</time>
      </trkpt>
      <trkpt lat="43.09843" lon="-1.71072">
        <ele>371.694</ele>
        <time>2020-05-15T08:53:59Z</time>
      </trkpt>
      <trkpt lat="43.09842" lon="-1.71071">
        <ele>371.638</ele>
        <time>2020-05-15T08:54:19Z</time>
      </trkpt>
      <trkpt lat="43.09838" lon="-1.71072">
        <ele>371.526</ele>
        <time>2020-05-15T08:54:39Z</time>
      </trkpt>
      <trkpt lat="43.09835" lon="-1.71072">
        <ele>372.031</ele>
        <time>2020-05-15T08:54:59Z</time>
      </trkpt>
      <trkpt lat="43.09832" lon="-1.71073">
        <ele>372.061</ele>
        <time>2020-05-15T08:55:19Z</time>
      </trkpt>
      <trkpt lat="43.0983" lon="-1.71074">
        <ele>372.288</ele>
        <time>2020-05-15T08:55:39Z</time>
      </trkpt>
      <trkpt lat="43.09825" lon="-1.71076">
        <ele>372.53</ele>
        <time>2020-05-15T08:55:59Z</time>
      </trkpt>
      <trkpt lat="43.09806" lon="-1.71084">
        <ele>373.573</ele>
        <time>2020-05-15T08:56:19Z</time>
      </trkpt>
      <trkpt lat="43.09797" lon="-1.71088">
        <ele>374.285</ele>
        <time>2020-05-15T08:56:39Z</time>
      </trkpt>
      <trkpt lat="43.09793" lon="-1.7109">
        <ele>374.413</ele>
        <time>2020-05-15T08:56:59Z</time>
      </trkpt>
      <trkpt lat="43.09791" lon="-1.71091">
        <ele>374.508</ele>
        <time>2020-05-15T08:57:19Z</time>
      </trkpt>
      <trkpt lat="43.09789" lon="-1.71094">
        <ele>374.581</ele>
        <time>2020-05-15T08:57:39Z</time>
      </trkpt>
      <trkpt lat="43.09787" lon="-1.71095">
        <ele>374.856</ele>
        <time>2020-05-15T08:57:59Z</time>
      </trkpt>
      <trkpt lat="43.09785" lon="-1.71097">
        <ele>374.86</ele>
        <time>2020-05-15T08:58:19Z</time>
      </trkpt>
      <trkpt lat="43.09782" lon="-1.71101">
        <ele>375.328</ele>
        <time>2020-05-15T08:58:39Z</time>
      </trkpt>
      <trkpt lat="43.0978" lon="-1.71103">
        <ele>375.313</ele>
        <time>2020-05-15T08:58:59Z</time>
      </trkpt>
      <trkpt lat="43.09779" lon="-1.71105">
        <ele>375.493</ele>
        <time>2020-05-15T08:59:19Z</time>
      </trkpt>
      <trkpt lat="43.09778" lon="-1.71107">
        <ele>375.89</ele>
        <time>2020-05-15T08:59:39Z</time>
      </trkpt>
      <trkpt lat="43.09777" lon="-1.7111">
        <ele>375.842</ele>
        <time>2020-05-15T08:59:59Z</time>
      </trkpt>
      <trkpt lat="43.09776" lon="-1.71113">
        <ele>375.936</ele>
        <time>2020-05-15T09:00:19Z</time>
      </trkpt>
      <trkpt lat="43.09774" lon="-1.71118">
        <ele>376.017</ele>
        <time>2020-05-15T09:00:39Z</time>
      </trkpt>
      <trkpt lat="43.09774" lon="-1.71127">
        <ele>376.718</ele>
        <time>2020-05-15T09:00:59Z</time>
      </trkpt>
      <trkpt lat="43.09773" lon="-1.71134">
        <ele>377.208</ele>
        <time>2020-05-15T09:01:19Z</time>
      </trkpt>
      <trkpt lat="43.09773" lon="-1.71138">
        <ele>377.427</ele>
        <time>2020-05-15T09:01:39Z</time>
      </trkpt>
      <trkpt lat="43.09773" lon="-1.71158">
        <ele>378.142</ele>
        <time>2020-05-15T09:01:59Z</time>
      </trkpt>
      <trkpt lat="43.09773" lon="-1.71175">
        <ele>378.766</ele>
        <time>2020-05-15T09:02:19Z</time>
      </trkpt>
      <trkpt lat="43.09772" lon="-1.71181">
        <ele>379.214</ele>
        <time>2020-05-15T09:02:39Z</time>
      </trkpt>
      <trkpt lat="43.09772" lon="-1.71186">
        <ele>379.449</ele>
        <time>2020-05-15T09:02:59Z</time>
      </trkpt>
      <trkpt lat="43.09771" lon="-1.7119">
        <ele>379.529</ele>
        <time>2020-05-15T09:03:19Z</time>
      </trkpt>
      <trkpt lat="43.0977" lon="-1.71195">
        <ele>379.586</ele>
        <time>2020-05-15T09:03:39Z</time>
      </trkpt>
      <trkpt lat="43.09769" lon="-1.71199">
        <ele>379.988</ele>
        <time>2020-05-15T09:03:59Z</time>
      </trkpt>
      <trkpt lat="43.09765" lon="-1.71209">
        <ele>380.554</ele>
        <time>2020-05-15T09:04:19Z</time>
      </trkpt>
      <trkpt lat="43.09758" lon="-1.71227">
        <ele>380.456</ele>
        <time>2020-05-15T09:04:39Z</time>
      </trkpt>
      <trkpt lat="43.09755" lon="-1.71236">
        <ele>381.311</ele>
        <time>2020-05-15T09:04:59Z</time>
      </trkpt>
      <trkpt lat="43.09752" lon="-1.71243">
        <ele>382.008</ele>
        <time>2020-05-15T09:05:19Z</time>
      </trkpt>
      <trkpt lat="43.0975" lon="-1.71247">
        <ele>381.779</ele>
        <time>2020-05-15T09:05:39Z</time>
      </trkpt>
      <trkpt lat="43.09748" lon="-1.71255">
        <ele>383.044</ele>
        <time>2020-05-15T09:05:59Z</time>
      </trkpt>
      <trkpt lat="43.09746" lon="-1.71262">
        <ele>383.368</ele>
        <time>2020-05-15T09:06:19Z</time>
      </trkpt>
      <trkpt lat="43.09741" lon="-1.71282">
        <ele>384.016</ele>
        <time>2020-05-15T09:06:39Z</time>
      </trkpt>
      <trkpt lat="43.09735" lon="-1.71303">
        <ele>385.591</ele>
        <time>2020-05-15T09:06:59Z</time>
      </trkpt>
      <trkpt lat="43.09732" lon="-1.71314">
        <ele>385.011</ele>
        <time>2020-05-15T09:07:19Z</time>
      </trkpt>
      <trkpt lat="43.09728" lon="-1.71328">
        <ele>386.878</ele>
        <time>2020-05-15T09:07:39Z</time>
      </trkpt>
      <trkpt lat="43.09726" lon="-1.71334">
        <ele>387.18</ele>
        <time>2020-05-15T09:07:59Z</time>
      </trkpt>
      <trkpt lat="43.09725" lon="-1.71338">
        <ele>387.159</ele>
        <time>2020-05-15T09:08:19Z</time>
      </trkpt>
      <trkpt lat="43.09725" lon="-1.71339">
        <ele>387.303</ele>
        <time>2020-05-15T09:08:39Z</time>
      </trkpt>
      <trkpt lat="43.09721" lon="-1.7135">
        <ele>387.723</ele>
        <time>2020-05-15T09:08:59Z</time>
      </trkpt>
      <trkpt lat="43.09717" lon="-1.71361">
        <ele>388.508</ele>
        <time>2020-05-15T09:09:19Z</time>
      </trkpt>
      <trkpt lat="43.09716" lon="-1.71365">
        <ele>388.529</ele>
        <time>2020-05-15T09:09:39Z</time>
      </trkpt>
      <trkpt lat="43.09714" lon="-1.71369">
        <ele>388.584</ele>
        <time>2020-05-15T09:09:59Z</time>
      </trkpt>
      <trkpt lat="43.09708" lon="-1.71391">
        <ele>390.078</ele>
        <time>2020-05-15T09:10:19Z</time>
      </trkpt>
      <trkpt lat="43.09703" lon="-1.71412">
        <ele>390.946</ele>
        <time>2020-05-15T09:10:39Z</time>
      </trkpt>
      <trkpt lat="43.09696" lon="-1.71432">
        <ele>392.341</ele>
        <time>2020-05-15T09:10:59Z</time>
      </trkpt>
      <trkpt lat="43.0969" lon="-1.71451">
        <ele>393.381</ele>
        <time>2020-05-15T09:11:19Z</time>
      </trkpt>
      <trkpt lat="43.09688" lon="-1.71457">
        <ele>393.678</ele>
        <time>2020-05-15T09:11:39Z</time>
      </trkpt>
      <trkpt lat="43.09685" lon="-1.71463">
        <ele>393.83</ele>
        <time>2020-05-15T09:11:59Z</time>
      </trkpt>
      <trkpt lat="43.09677" lon="-1.71478">
        <ele>394.824</ele>
        <time>2020-05-15T09:12:19Z</time>
      </trkpt>
      <trkpt lat="43.09669" lon="-1.71493">
        <ele>395.504</ele>
        <time>2020-05-15T09:12:39Z</time>
      </trkpt>
      <trkpt lat="43.0966" lon="-1.71507">
        <ele>396.714</ele>
        <time>2020-05-15T09:12:59Z</time>
      </trkpt>
      <trkpt lat="43.09657" lon="-1.71514">
        <ele>397.108</ele>
        <time>2020-05-15T09:13:19Z</time>
      </trkpt>
      <trkpt lat="43.09653" lon="-1.71523">
        <ele>397.466</ele>
        <time>2020-05-15T09:13:39Z</time>
      </trkpt>
      <trkpt lat="43.09649" lon="-1.71532">
        <ele>397.621</ele>
        <time>2020-05-15T09:13:59Z</time>
      </trkpt>
      <trkpt lat="43.09645" lon="-1.71538">
        <ele>398.155</ele>
        <time>2020-05-15T09:14:19Z</time>
      </trkpt>
      <trkpt lat="43.09642" lon="-1.71544">
        <ele>399.023</ele>
        <time>2020-05-15T09:14:39Z</time>
      </trkpt>
      <trkpt lat="43.0964" lon="-1.71547">
        <ele>399.098</ele>
        <time>2020-05-15T09:14:59Z</time>
      </trkpt>
      <trkpt lat="43.09637" lon="-1.7155">
        <ele>399.518</ele>
        <time>2020-05-15T09:15:19Z</time>
      </trkpt>
      <trkpt lat="43.09635" lon="-1.71553">
        <ele>399.525</ele>
        <time>2020-05-15T09:15:39Z</time>
      </trkpt>
      <trkpt lat="43.09633" lon="-1.71556">
        <ele>397.917</ele>
        <time>2020-05-15T09:15:59Z</time>
      </trkpt>
      <trkpt lat="43.09629" lon="-1.7156">
        <ele>400.129</ele>
        <time>2020-05-15T09:16:19Z</time>
      </trkpt>
      <trkpt lat="43.09624" lon="-1.71564">
        <ele>400.5</ele>
        <time>2020-05-15T09:16:39Z</time>
      </trkpt>
      <trkpt lat="43.0962" lon="-1.71569">
        <ele>400.82</ele>
        <time>2020-05-15T09:16:59Z</time>
      </trkpt>
      <trkpt lat="43.09615" lon="-1.71573">
        <ele>401.008</ele>
        <time>2020-05-15T09:17:19Z</time>
      </trkpt>
      <trkpt lat="43.09611" lon="-1.71577">
        <ele>401.086</ele>
        <time>2020-05-15T09:17:39Z</time>
      </trkpt>
      <trkpt lat="43.09606" lon="-1.7158">
        <ele>401.871</ele>
        <time>2020-05-15T09:17:59Z</time>
      </trkpt>
      <trkpt lat="43.09601" lon="-1.71584">
        <ele>402.165</ele>
        <time>2020-05-15T09:18:19Z</time>
      </trkpt>
      <trkpt lat="43.09596" lon="-1.71588">
        <ele>402.563</ele>
        <time>2020-05-15T09:18:39Z</time>
      </trkpt>
      <trkpt lat="43.09594" lon="-1.71589">
        <ele>402.738</ele>
        <time>2020-05-15T09:18:59Z</time>
      </trkpt>
      <trkpt lat="43.09592" lon="-1.7159">
        <ele>402.798</ele>
        <time>2020-05-15T09:19:19Z</time>
      </trkpt>
      <trkpt lat="43.09589" lon="-1.71591">
        <ele>403.065</ele>
        <time>2020-05-15T09:19:39Z</time>
      </trkpt>
      <trkpt lat="43.09587" lon="-1.71592">
        <ele>403.017</ele>
        <time>2020-05-15T09:19:59Z</time>
      </trkpt>
      <trkpt lat="43.09584" lon="-1.71593">
        <ele>403.216</ele>
        <time>2020-05-15T09:20:19Z</time>
      </trkpt>
      <trkpt lat="43.09583" lon="-1.71593">
        <ele>403.276</ele>
        <time>2020-05-15T09:20:39Z</time>
      </trkpt>
      <trkpt lat="43.0958" lon="-1.71592">
        <ele>403.513</ele>
        <time>2020-05-15T09:20:59Z</time>
      </trkpt>
      <trkpt lat="43.09579" lon="-1.71592">
        <ele>403.508</ele>
        <time>2020-05-15T09:21:19Z</time>
      </trkpt>
      <trkpt lat="43.09563" lon="-1.71586">
        <ele>404.865</ele>
        <time>2020-05-15T09:21:39Z</time>
      </trkpt>
      <trkpt lat="43.09546" lon="-1.7158">
        <ele>405.61</ele>
        <time>2020-05-15T09:21:59Z</time>
      </trkpt>
      <trkpt lat="43.09535" lon="-1.71578">
        <ele>403.974</ele>
        <time>2020-05-15T09:22:19Z</time>
      </trkpt>
      <trkpt lat="43.09524" lon="-1.71575">
        <ele>407.192</ele>
        <time>2020-05-15T09:22:39Z</time>
      </trkpt>
      <trkpt lat="43.09521" lon="-1.71575">
        <ele>407.217</ele>
        <time>2020-05-15T09:22:59Z</time>
      </trkpt>
      <trkpt lat="43.09519" lon="-1.71575">
        <ele>407.237</ele>
        <time>2020-05-15T09:23:19Z</time>
      </trkpt>
      <trkpt lat="43.09517" lon="-1.71576">
        <ele>407.454</ele>
        <time>2020-05-15T09:23:39Z</time>
      </trkpt>
      <trkpt lat="43.09516" lon="-1.71576">
        <ele>407.476</ele>
        <time>2020-05-15T09:23:59Z</time>
      </trkpt>
      <trkpt lat="43.09514" lon="-1.71577">
        <ele>405.991</ele>
        <time>2020-05-15T09:24:19Z</time>
      </trkpt>
      <trkpt lat="43.09513" lon="-1.71578">
        <ele>407.681</ele>
        <time>2020-05-15T09:24:39Z</time>
      </trkpt>
      <trkpt lat="43.09512" lon="-1.71579">
        <ele>407.619</ele>
        <time>2020-05-15T09:24:59Z</time>
      </trkpt>
      <trkpt lat="43.0951" lon="-1.7158">
        <ele>407.608</ele>
        <time>2020-05-15T09:25:19Z</time>
      </trkpt>
      <trkpt lat="43.09508" lon="-1.71582">
        <ele>407.673</ele>
        <time>2020-05-15T09:25:39Z</time>
      </trkpt>
      <trkpt lat="43.09506" lon="-1.71585">
        <ele>406.578</ele>
        <time>2020-05-15T09:25:59Z</time>
      </trkpt>
      <trkpt lat="43.09504" lon="-1.71588">
        <ele>407.772</ele>
        <time>2020-05-15T09:26:19Z</time>
      </trkpt>
      <trkpt lat="43.09503" lon="-1.71591">
        <ele>407.53</ele>
        <time>2020-05-15T09:26:39Z</time>
      </trkpt>
      <trkpt lat="43.09502" lon="-1.71592">
        <ele>407.565</ele>
        <time>2020-05-15T09:26:59Z</time>
      </trkpt>
      <trkpt lat="43.09501" lon="-1.71594">
        <ele>407.525</ele>
        <time>2020-05-15T09:27:19Z</time>
      </trkpt>
      <trkpt lat="43.09501" lon="-1.71598">
        <ele>407.442</ele>
        <time>2020-05-15T09:27:39Z</time>
      </trkpt>
      <trkpt lat="43.09501" lon="-1.716">
        <ele>407.454</ele>
        <time>2020-05-15T09:27:59Z</time>
      </trkpt>
      <trkpt lat="43.095" lon="-1.71604">
        <ele>408.521</ele>
        <time>2020-05-15T09:28:19Z</time>
      </trkpt>
      <trkpt lat="43.095" lon="-1.71607">
        <ele>408.541</ele>
        <time>2020-05-15T09:28:39Z</time>
      </trkpt>
      <trkpt lat="43.09501" lon="-1.71613">
        <ele>408.005</ele>
        <time>2020-05-15T09:28:59Z</time>
      </trkpt>
      <trkpt lat="43.09501" lon="-1.71619">
        <ele>408.208</ele>
        <time>2020-05-15T09:29:19Z</time>
      </trkpt>
      <trkpt lat="43.09502" lon="-1.71624">
        <ele>408.476</ele>
        <time>2020-05-15T09:29:39Z</time>
      </trkpt>
      <trkpt lat="43.09502" lon="-1.71625">
        <ele>408.431</ele>
        <time>2020-05-15T09:29:59Z</time>
      </trkpt>
      <trkpt lat="43.09503" lon="-1.7163">
        <ele>409.295</ele>
        <time>2020-05-15T09:30:19Z</time>
      </trkpt>
      <trkpt lat="43.09504" lon="-1.71635">
        <ele>409.693</ele>
        <time>2020-05-15T09:30:39Z</time>
      </trkpt>
      <trkpt lat="43.09505" lon="-1.71639">
        <ele>410.048</ele>
        <time>2020-05-15T09:30:59Z</time>
      </trkpt>
      <trkpt lat="43.09506" lon="-1.71642">
        <ele>409.838</ele>
        <time>2020-05-15T09:31:19Z</time>
      </trkpt>
      <trkpt lat="43.09507" lon="-1.71645">
        <ele>410.325</ele>
        <time>2020-05-15T09:31:39Z</time>
      </trkpt>
      <trkpt lat="43.09517" lon="-1.71666">
        <ele>411.447</ele>
        <time>2020-05-15T09:31:59Z</time>
      </trkpt>
      <trkpt lat="43.0952" lon="-1.71673">
        <ele>411.289</ele>
        <time>2020-05-15T09:32:19Z</time>
      </trkpt>
      <trkpt lat="43.09524" lon="-1.71679">
        <ele>412.106</ele>
        <time>2020-05-15T09:32:39Z</time>
      </trkpt>
      <trkpt lat="43.0953" lon="-1.71691">
        <ele>412.926</ele>
        <time>2020-05-15T09:32:59Z</time>
      </trkpt>
      <trkpt lat="43.09532" lon="-1.71697">
        <ele>413.108</ele>
        <time>2020-05-15T09:33:19Z</time>
      </trkpt>
      <trkpt lat="43.09535" lon="-1.71704">
        <ele>413.682</ele>
        <time>2020-05-15T09:33:39Z</time>
      </trkpt>
      <trkpt lat="43.09538" lon="-1.71712">
        <ele>413.957</ele>
        <time>2020-05-15T09:33:59Z</time>
      </trkpt>
      <trkpt lat="43.09539" lon="-1.71717">
        <ele>413.561</ele>
        <time>2020-05-15T09:34:19Z</time>
      </trkpt>
      <trkpt lat="43.09539" lon="-1.71721">
        <ele>414.019</ele>
        <time>2020-05-15T09:34:39Z</time>
      </trkpt>
      <trkpt lat="43.0954" lon="-1.71724">
        <ele>415.074</ele>
        <time>2020-05-15T09:34:59Z</time>
      </trkpt>
      <trkpt lat="43.09541" lon="-1.71728">
        <ele>415.024</ele>
        <time>2020-05-15T09:35:19Z</time>
      </trkpt>
      <trkpt lat="43.09541" lon="-1.71732">
        <ele>415.251</ele>
        <time>2020-05-15T09:35:39Z</time>
      </trkpt>
      <trkpt lat="43.09541" lon="-1.71737">
        <ele>415.593</ele>
        <time>2020-05-15T09:35:59Z</time>
      </trkpt>
      <trkpt lat="43.09541" lon="-1.71741">
        <ele>415.514</ele>
        <time>2020-05-15T09:36:19Z</time>
      </trkpt>
      <trkpt lat="43.0954" lon="-1.71745">
        <ele>415.754</ele>
        <time>2020-05-15T09:36:39Z</time>
      </trkpt>
      <trkpt lat="43.09539" lon="-1.7175">
        <ele>415.609</ele>
        <time>2020-05-15T09:36:59Z</time>
      </trkpt>
      <trkpt lat="43.09538" lon="-1.71754">
        <ele>414.808</ele>
        <time>2020-05-15T09:37:19Z</time>
      </trkpt>
      <trkpt lat="43.09536" lon="-1.71761">
        <ele>416.545</ele>
        <time>2020-05-15T09:37:39Z</time>
      </trkpt>
      <trkpt lat="43.09534" lon="-1.71768">
        <ele>416.86</ele>
        <time>2020-05-15T09:37:59Z</time>
      </trkpt>
      <trkpt lat="43.09532" lon="-1.71774">
        <ele>417.174</ele>
        <time>2020-05-15T09:38:19Z</time>
      </trkpt>
      <trkpt lat="43.09529" lon="-1.7178">
        <ele>417.552</ele>
        <time>2020-05-15T09:38:39Z</time>
      </trkpt>
      <trkpt lat="43.09522" lon="-1.71797">
        <ele>415.757</ele>
        <time>2020-05-15T09:38:59Z</time>
      </trkpt>
      <trkpt lat="43.09518" lon="-1.71805">
        <ele>418.937</ele>
        <time>2020-05-15T09:39:19Z</time>
      </trkpt>
      <trkpt lat="43.09514" lon="-1.71813">
        <ele>419.224</ele>
        <time>2020-05-15T09:39:39Z</time>
      </trkpt>
      <trkpt lat="43.09512" lon="-1.71818">
        <ele>419.696</ele>
        <time>2020-05-15T09:39:59Z</time>
      </trkpt>
      <trkpt lat="43.09509" lon="-1.71823">
        <ele>420.668</ele>
        <time>2020-05-15T09:40:19Z</time>
      </trkpt>
      <trkpt lat="43.09504" lon="-1.71831">
        <ele>420.242</ele>
        <time>2020-05-15T09:40:39Z</time>
      </trkpt>
      <trkpt lat="43.09499" lon="-1.71839">
        <ele>420.926</ele>
        <time>2020-05-15T09:40:59Z</time>
      </trkpt>
      <trkpt lat="43.09497" lon="-1.71843">
        <ele>421.008</ele>
        <time>2020-05-15T09:41:19Z</time>
      </trkpt>
      <trkpt lat="43.09495" lon="-1.71846">
        <ele>421.09</ele>
        <time>2020-05-15T09:41:39Z</time>
      </trkpt>
      <trkpt lat="43.09494" lon="-1.71849">
        <ele>421.425</ele>
        <time>2020-05-15T09:41:59Z</time>
      </trkpt>
      <trkpt lat="43.09493" lon="-1.71852">
        <ele>421.429</ele>
        <time>2020-05-15T09:42:19Z</time>
      </trkpt>
      <trkpt lat="43.09492" lon="-1.71854">
        <ele>421.597</ele>
        <time>2020-05-15T09:42:39Z</time>
      </trkpt>
      <trkpt lat="43.09492" lon="-1.71856">
        <ele>421.522</ele>
        <time>2020-05-15T09:42:59Z</time>
      </trkpt>
      <trkpt lat="43.09492" lon="-1.71858">
        <ele>421.552</ele>
        <time>2020-05-15T09:43:19Z</time>
      </trkpt>
      <trkpt lat="43.09491" lon="-1.7186">
        <ele>421.479</ele>
        <time>2020-05-15T09:43:39Z</time>
      </trkpt>
      <trkpt lat="43.09491" lon="-1.71863">
        <ele>421.481</ele>
        <time>2020-05-15T09:43:59Z</time>
      </trkpt>
      <trkpt lat="43.09492" lon="-1.71866">
        <ele>422.313</ele>
        <time>2020-05-15T09:44:19Z</time>
      </trkpt>
      <trkpt lat="43.09492" lon="-1.71869">
        <ele>422.343</ele>
        <time>2020-05-15T09:44:39Z</time>
      </trkpt>
      <trkpt lat="43.09492" lon="-1.71872">
        <ele>422.507</ele>
        <time>2020-05-15T09:44:59Z</time>
      </trkpt>
      <trkpt lat="43.09494" lon="-1.71879">
        <ele>422.808</ele>
        <time>2020-05-15T09:45:19Z</time>
      </trkpt>
      <trkpt lat="43.09496" lon="-1.71886">
        <ele>423.035</ele>
        <time>2020-05-15T09:45:39Z</time>
      </trkpt>
      <trkpt lat="43.09501" lon="-1.71906">
        <ele>423.71</ele>
        <time>2020-05-15T09:45:59Z</time>
      </trkpt>
      <trkpt lat="43.09503" lon="-1.71914">
        <ele>424.134</ele>
        <time>2020-05-15T09:46:19Z</time>
      </trkpt>
      <trkpt lat="43.09507" lon="-1.71926">
        <ele>424.842</ele>
        <time>2020-05-15T09:46:39Z</time>
      </trkpt>
      <trkpt lat="43.09512" lon="-1.71941">
        <ele>425.787</ele>
        <time>2020-05-15T09:46:59Z</time>
      </trkpt>
      <trkpt lat="43.09515" lon="-1.71951">
        <ele>426.257</ele>
        <time>2020-05-15T09:47:19Z</time>
      </trkpt>
      <trkpt lat="43.0952" lon="-1.71963">
        <ele>426.424</ele>
        <time>2020-05-15T09:47:39Z</time>
      </trkpt>
      <trkpt lat="43.09522" lon="-1.71969">
        <ele>427.056</ele>
        <time>2020-05-15T09:47:59Z</time>
      </trkpt>
      <trkpt lat="43.09525" lon="-1.71976">
        <ele>427.214</ele>
        <time>2020-05-15T09:48:19Z</time>
      </trkpt>
      <trkpt lat="43.09528" lon="-1.71981">
        <ele>426.854</ele>
        <time>2020-05-15T09:48:39Z</time>
      </trkpt>
      <trkpt lat="43.09529" lon="-1.71984">
        <ele>427.409</ele>
        <time>2020-05-15T09:48:59Z</time>
      </trkpt>
      <trkpt lat="43.09531" lon="-1.71986">
        <ele>427.408</ele>
        <time>2020-05-15T09:49:19Z</time>
      </trkpt>
      <trkpt lat="43.09533" lon="-1.71989">
        <ele>428.065</ele>
        <time>2020-05-15T09:49:39Z</time>
      </trkpt>
      <trkpt lat="43.09535" lon="-1.7199">
        <ele>428.08</ele>
        <time>2020-05-15T09:49:59Z</time>
      </trkpt>
      <trkpt lat="43.09537" lon="-1.71992">
        <ele>428.134</ele>
        <time>2020-05-15T09:50:19Z</time>
      </trkpt>
      <trkpt lat="43.09539" lon="-1.71993">
        <ele>428.142</ele>
        <time>2020-05-15T09:50:39Z</time>
      </trkpt>
      <trkpt lat="43.0954" lon="-1.71994">
        <ele>428.197</ele>
        <time>2020-05-15T09:50:59Z</time>
      </trkpt>
      <trkpt lat="43.09542" lon="-1.71995">
        <ele>428.497</ele>
        <time>2020-05-15T09:51:19Z</time>
      </trkpt>
      <trkpt lat="43.09545" lon="-1.71995">
        <ele>428.444</ele>
        <time>2020-05-15T09:51:39Z</time>
      </trkpt>
      <trkpt lat="43.09552" lon="-1.71996">
        <ele>428.826</ele>
        <time>2020-05-15T09:51:59Z</time>
      </trkpt>
      <trkpt lat="43.09558" lon="-1.71995">
        <ele>428.944</ele>
        <time>2020-05-15T09:52:19Z</time>
      </trkpt>
      <trkpt lat="43.09562" lon="-1.71996">
        <ele>429.105</ele>
        <time>2020-05-15T09:52:39Z</time>
      </trkpt>
      <trkpt lat="43.09566" lon="-1.71997">
        <ele>429.315</ele>
        <time>2020-05-15T09:52:59Z</time>
      </trkpt>
      <trkpt lat="43.09569" lon="-1.71998">
        <ele>429.608</ele>
        <time>2020-05-15T09:53:19Z</time>
      </trkpt>
      <trkpt lat="43.09572" lon="-1.72">
        <ele>429.498</ele>
        <time>2020-05-15T09:53:39Z</time>
      </trkpt>
      <trkpt lat="43.09575" lon="-1.72002">
        <ele>429.773</ele>
        <time>2020-05-15T09:53:59Z</time>
      </trkpt>
      <trkpt lat="43.09577" lon="-1.72004">
        <ele>429.777</ele>
        <time>2020-05-15T09:54:19Z</time>
      </trkpt>
      <trkpt lat="43.09579" lon="-1.72006">
        <ele>430.235</ele>
        <time>2020-05-15T09:54:39Z</time>
      </trkpt>
      <trkpt lat="43.09582" lon="-1.7201">
        <ele>430.66</ele>
        <time>2020-05-15T09:54:59Z</time>
      </trkpt>
      <trkpt lat="43.09584" lon="-1.72012">
        <ele>430.58</ele>
        <time>2020-05-15T09:55:19Z</time>
      </trkpt>
      <trkpt lat="43.09586" lon="-1.72015">
        <ele>430.567</ele>
        <time>2020-05-15T09:55:39Z</time>
      </trkpt>
      <trkpt lat="43.09587" lon="-1.72017">
        <ele>430.739</ele>
        <time>2020-05-15T09:55:59Z</time>
      </trkpt>
      <trkpt lat="43.09589" lon="-1.72022">
        <ele>430.872</ele>
        <time>2020-05-15T09:56:19Z</time>
      </trkpt>
      <trkpt lat="43.09591" lon="-1.72027">
        <ele>431.113</ele>
        <time>2020-05-15T09:56:39Z</time>
      </trkpt>
      <trkpt lat="43.09593" lon="-1.72032">
        <ele>431.214</ele>
        <time>2020-05-15T09:56:59Z</time>
      </trkpt>
      <trkpt lat="43.09595" lon="-1.72038">
        <ele>431.508</ele>
        <time>2020-05-15T09:57:19Z</time>
      </trkpt>
      <trkpt lat="43.09598" lon="-1.72045">
        <ele>431.921</ele>
        <time>2020-05-15T09:57:39Z</time>
      </trkpt>
      <trkpt lat="43.09601" lon="-1.72053">
        <ele>431.946</ele>
        <time>2020-05-15T09:57:59Z</time>
      </trkpt>
      <trkpt lat="43.09602" lon="-1.72058">
        <ele>432.21</ele>
        <time>2020-05-15T09:58:19Z</time>
      </trkpt>
      <trkpt lat="43.09604" lon="-1.72064">
        <ele>432.648</ele>
        <time>2020-05-15T09:58:39Z</time>
      </trkpt>
      <trkpt lat="43.09607" lon="-1.72073">
        <ele>432.983</ele>
        <time>2020-05-15T09:58:59Z</time>
      </trkpt>
      <trkpt lat="43.09609" lon="-1.72086">
        <ele>433.473</ele>
        <time>2020-05-15T09:59:19Z</time>
      </trkpt>
      <trkpt lat="43.09611" lon="-1.72098">
        <ele>433.84</ele>
        <time>2020-05-15T09:59:39Z</time>
      </trkpt>
      <trkpt lat="43.09614" lon="-1.72123">
        <ele>434.552</ele>
        <time>2020-05-15T09:59:59Z</time>
      </trkpt>
      <trkpt lat="43.09617" lon="-1.72147">
        <ele>435.554</ele>
        <time>2020-05-15T10:00:19Z</time>
      </trkpt>
      <trkpt lat="43.09618" lon="-1.72157">
        <ele>435.656</ele>
        <time>2020-05-15T10:00:39Z</time>
      </trkpt>
      <trkpt lat="43.0962" lon="-1.7217">
        <ele>435.911</ele>
        <time>2020-05-15T10:00:59Z</time>
      </trkpt>
      <trkpt lat="43.09621" lon="-1.72172">
        <ele>436.208</ele>
        <time>2020-05-15T10:01:19Z</time>
      </trkpt>
      <trkpt lat="43.09622" lon="-1.72177">
        <ele>436.469</ele>
        <time>2020-05-15T10:01:39Z</time>
      </trkpt>
      <trkpt lat="43.09623" lon="-1.72181">
        <ele>436.454</ele>
        <time>2020-05-15T10:01:59Z</time>
      </trkpt>
      <trkpt lat="43.09624" lon="-1.72185">
        <ele>436.898</ele>
        <time>2020-05-15T10:02:19Z</time>
      </trkpt>
      <trkpt lat="43.09625" lon="-1.7219">
        <ele>436.996</ele>
        <time>2020-05-15T10:02:39Z</time>
      </trkpt>
      <trkpt lat="43.09627" lon="-1.72194">
        <ele>436.921</ele>
        <time>2020-05-15T10:02:59Z</time>
      </trkpt>
      <trkpt lat="43.09628" lon="-1.72198">
        <ele>437.241</ele>
        <time>2020-05-15T10:03:19Z</time>
      </trkpt>
      <trkpt lat="43.09632" lon="-1.72207">
        <ele>437.258</ele>
        <time>2020-05-15T10:03:39Z</time>
      </trkpt>
      <trkpt lat="43.09635" lon="-1.72215">
        <ele>437.92</ele>
        <time>2020-05-15T10:03:59Z</time>
      </trkpt>
      <trkpt lat="43.09639" lon="-1.72223">
        <ele>438.134</ele>
        <time>2020-05-15T10:04:19Z</time>
      </trkpt>
      <trkpt lat="43.09642" lon="-1.7223">
        <ele>438.355</ele>
        <time>2020-05-15T10:04:39Z</time>
      </trkpt>
      <trkpt lat="43.09649" lon="-1.72246">
        <ele>439.11</ele>
        <time>2020-05-15T10:04:59Z</time>
      </trkpt>
      <trkpt lat="43.0965" lon="-1.72249">
        <ele>439.108</ele>
        <time>2020-05-15T10:05:19Z</time>
      </trkpt>
      <trkpt lat="43.09652" lon="-1.72252">
        <ele>439.227</ele>
        <time>2020-05-15T10:05:39Z</time>
      </trkpt>
      <trkpt lat="43.09653" lon="-1.72256">
        <ele>440.092</ele>
        <time>2020-05-15T10:05:59Z</time>
      </trkpt>
      <trkpt lat="43.09654" lon="-1.72259">
        <ele>440.016</ele>
        <time>2020-05-15T10:06:19Z</time>
      </trkpt>
      <trkpt lat="43.09654" lon="-1.72263">
        <ele>440.114</ele>
        <time>2020-05-15T10:06:39Z</time>
      </trkpt>
      <trkpt lat="43.09655" lon="-1.72266">
        <ele>440.169</ele>
        <time>2020-05-15T10:06:59Z</time>
      </trkpt>
      <trkpt lat="43.09656" lon="-1.7227">
        <ele>440.299</ele>
        <time>2020-05-15T10:07:19Z</time>
      </trkpt>
      <trkpt lat="43.09656" lon="-1.72273">
        <ele>440.286</ele>
        <time>2020-05-15T10:07:39Z</time>
      </trkpt>
      <trkpt lat="43.09657" lon="-1.72285">
        <ele>440.888</ele>
        <time>2020-05-15T10:07:59Z</time>
      </trkpt>
      <trkpt lat="43.09658" lon="-1.72297">
        <ele>441.478</ele>
        <time>2020-05-15T10:08:19Z</time>
      </trkpt>
      <trkpt lat="43.09659" lon="-1.72301">
        <ele>441.633</ele>
        <time>2020-05-15T10:08:39Z</time>
      </trkpt>
      <trkpt lat="43.0966" lon="-1.72305">
        <ele>442.026</ele>
        <time>2020-05-15T10:08:59Z</time>
      </trkpt>
      <trkpt lat="43.09661" lon="-1.72311">
        <ele>442.208</ele>
        <time>2020-05-15T10:09:19Z</time>
      </trkpt>
      <trkpt lat="43.09662" lon="-1.72318">
        <ele>442.371</ele>
        <time>2020-05-15T10:09:39Z</time>
      </trkpt>
      <trkpt lat="43.09663" lon="-1.72322">
        <ele>442.326</ele>
        <time>2020-05-15T10:09:59Z</time>
      </trkpt>
      <trkpt lat="43.09664" lon="-1.72326">
        <ele>442.63</ele>
        <time>2020-05-15T10:10:19Z</time>
      </trkpt>
      <trkpt lat="43.09666" lon="-1.7233">
        <ele>443.028</ele>
        <time>2020-05-15T10:10:39Z</time>
      </trkpt>
      <trkpt lat="43.09667" lon="-1.72334">
        <ele>443.133</ele>
        <time>2020-05-15T10:10:59Z</time>
      </trkpt>
      <trkpt lat="43.09669" lon="-1.72339">
        <ele>443.493</ele>
        <time>2020-05-15T10:11:19Z</time>
      </trkpt>
      <trkpt lat="43.09671" lon="-1.72345">
        <ele>443.73</ele>
        <time>2020-05-15T10:11:39Z</time>
      </trkpt>
      <trkpt lat="43.09679" lon="-1.72358">
        <ele>444.572</ele>
        <time>2020-05-15T10:11:59Z</time>
      </trkpt>
      <trkpt lat="43.09687" lon="-1.72371">
        <ele>445.066</ele>
        <time>2020-05-15T10:12:19Z</time>
      </trkpt>
      <trkpt lat="43.09689" lon="-1.72375">
        <ele>445.129</ele>
        <time>2020-05-15T10:12:39Z</time>
      </trkpt>
      <trkpt lat="43.09692" lon="-1.7238">
        <ele>445.821</ele>
        <time>2020-05-15T10:12:59Z</time>
      </trkpt>
      <trkpt lat="43.09694" lon="-1.72385">
        <ele>446.108</ele>
        <time>2020-05-15T10:13:19Z</time>
      </trkpt>
      <trkpt lat="43.09698" lon="-1.72392">
        <ele>446.27</ele>
        <time>2020-05-15T10:13:39Z</time>
      </trkpt>
      <trkpt lat="43.09699" lon="-1.72394">
        <ele>446.585</ele>
        <time>2020-05-15T10:13:59Z</time>
      </trkpt>
      <trkpt lat="43.097" lon="-1.72397">
        <ele>446.639</ele>
        <time>2020-05-15T10:14:19Z</time>
      </trkpt>
      <trkpt lat="43.09701" lon="-1.724">
        <ele>446.697</ele>
        <time>2020-05-15T10:14:39Z</time>
      </trkpt>
      <trkpt lat="43.09701" lon="-1.72403">
        <ele>446.892</ele>
        <time>2020-05-15T10:14:59Z</time>
      </trkpt>
      <trkpt lat="43.09702" lon="-1.72405">
        <ele>446.872</ele>
        <time>2020-05-15T10:15:19Z</time>
      </trkpt>
      <trkpt lat="43.09702" lon="-1.72408">
        <ele>447.089</ele>
        <time>2020-05-15T10:15:39Z</time>
      </trkpt>
      <trkpt lat="43.09703" lon="-1.72412">
        <ele>447.041</ele>
        <time>2020-05-15T10:15:59Z</time>
      </trkpt>
      <trkpt lat="43.09703" lon="-1.72415">
        <ele>447.283</ele>
        <time>2020-05-15T10:16:19Z</time>
      </trkpt>
      <trkpt lat="43.09703" lon="-1.72418">
        <ele>447.225</ele>
        <time>2020-05-15T10:16:39Z</time>
      </trkpt>
      <trkpt lat="43.09703" lon="-1.72422">
        <ele>447.517</ele>
        <time>2020-05-15T10:16:59Z</time>
      </trkpt>
      <trkpt lat="43.09703" lon="-1.72425">
        <ele>447.508</ele>
        <time>2020-05-15T10:17:19Z</time>
      </trkpt>
      <trkpt lat="43.09702" lon="-1.72427">
        <ele>448.072</ele>
        <time>2020-05-15T10:17:39Z</time>
      </trkpt>
      <trkpt lat="43.09702" lon="-1.72429">
        <ele>448.097</ele>
        <time>2020-05-15T10:17:59Z</time>
      </trkpt>
      <trkpt lat="43.09702" lon="-1.72433">
        <ele>448.291</ele>
        <time>2020-05-15T10:18:19Z</time>
      </trkpt>
      <trkpt lat="43.097" lon="-1.72436">
        <ele>448.219</ele>
        <time>2020-05-15T10:18:39Z</time>
      </trkpt>
      <trkpt lat="43.09699" lon="-1.7244">
        <ele>448.294</ele>
        <time>2020-05-15T10:18:59Z</time>
      </trkpt>
      <trkpt lat="43.09698" lon="-1.72443">
        <ele>448.224</ele>
        <time>2020-05-15T10:19:19Z</time>
      </trkpt>
      <trkpt lat="43.09697" lon="-1.72446">
        <ele>448.331</ele>
        <time>2020-05-15T10:19:39Z</time>
      </trkpt>
      <trkpt lat="43.09694" lon="-1.72451">
        <ele>448.313</ele>
        <time>2020-05-15T10:19:59Z</time>
      </trkpt>
      <trkpt lat="43.09692" lon="-1.72456">
        <ele>448.445</ele>
        <time>2020-05-15T10:20:19Z</time>
      </trkpt>
      <trkpt lat="43.09685" lon="-1.7247">
        <ele>448.747</ele>
        <time>2020-05-15T10:20:39Z</time>
      </trkpt>
      <trkpt lat="43.09682" lon="-1.72476">
        <ele>448.811</ele>
        <time>2020-05-15T10:20:59Z</time>
      </trkpt>
      <trkpt lat="43.09679" lon="-1.72481">
        <ele>449.008</ele>
        <time>2020-05-15T10:21:19Z</time>
      </trkpt>
      <trkpt lat="43.09676" lon="-1.72488">
        <ele>449.168</ele>
        <time>2020-05-15T10:21:39Z</time>
      </trkpt>
      <trkpt lat="43.09673" lon="-1.72492">
        <ele>449.113</ele>
        <time>2020-05-15T10:21:59Z</time>
      </trkpt>
      <trkpt lat="43.09672" lon="-1.72495">
        <ele>449.437</ele>
        <time>2020-05-15T10:22:19Z</time>
      </trkpt>
      <trkpt lat="43.0967" lon="-1.72497">
        <ele>449.425</ele>
        <time>2020-05-15T10:22:39Z</time>
      </trkpt>
      <trkpt lat="43.09669" lon="-1.725">
        <ele>449.42</ele>
        <time>2020-05-15T10:22:59Z</time>
      </trkpt>
      <trkpt lat="43.09667" lon="-1.72502">
        <ele>449.64</ele>
        <time>2020-05-15T10:23:19Z</time>
      </trkpt>
      <trkpt lat="43.09666" lon="-1.72504">
        <ele>449.697</ele>
        <time>2020-05-15T10:23:39Z</time>
      </trkpt>
      <trkpt lat="43.09663" lon="-1.72507">
        <ele>449.389</ele>
        <time>2020-05-15T10:23:59Z</time>
      </trkpt>
      <trkpt lat="43.0966" lon="-1.7251">
        <ele>449.336</ele>
        <time>2020-05-15T10:24:19Z</time>
      </trkpt>
      <trkpt lat="43.09658" lon="-1.72512">
        <ele>449.917</ele>
        <time>2020-05-15T10:24:39Z</time>
      </trkpt>
      <trkpt lat="43.09656" lon="-1.72514">
        <ele>448.718</ele>
        <time>2020-05-15T10:24:59Z</time>
      </trkpt>
      <trkpt lat="43.09654" lon="-1.72515">
        <ele>450.408</ele>
        <time>2020-05-15T10:25:19Z</time>
      </trkpt>
      <trkpt lat="43.09652" lon="-1.72517">
        <ele>450.487</ele>
        <time>2020-05-15T10:25:39Z</time>
      </trkpt>
      <trkpt lat="43.09648" lon="-1.72519">
        <ele>450.492</ele>
        <time>2020-05-15T10:25:59Z</time>
      </trkpt>
      <trkpt lat="43.09644" lon="-1.72522">
        <ele>450.736</ele>
        <time>2020-05-15T10:26:19Z</time>
      </trkpt>
      <trkpt lat="43.09637" lon="-1.72525">
        <ele>451.184</ele>
        <time>2020-05-15T10:26:39Z</time>
      </trkpt>
      <trkpt lat="43.09629" lon="-1.72529">
        <ele>450.249</ele>
        <time>2020-05-15T10:26:59Z</time>
      </trkpt>
      <trkpt lat="43.09623" lon="-1.72532">
        <ele>451.759</ele>
        <time>2020-05-15T10:27:19Z</time>
      </trkpt>
      <trkpt lat="43.09618" lon="-1.72535">
        <ele>452.086</ele>
        <time>2020-05-15T10:27:39Z</time>
      </trkpt>
      <trkpt lat="43.09613" lon="-1.72537">
        <ele>452.228</ele>
        <time>2020-05-15T10:27:59Z</time>
      </trkpt>
      <trkpt lat="43.09609" lon="-1.7254">
        <ele>452.381</ele>
        <time>2020-05-15T10:28:19Z</time>
      </trkpt>
      <trkpt lat="43.09607" lon="-1.72542">
        <ele>452.361</ele>
        <time>2020-05-15T10:28:39Z</time>
      </trkpt>
      <trkpt lat="43.09606" lon="-1.72543">
        <ele>452.317</ele>
        <time>2020-05-15T10:28:59Z</time>
      </trkpt>
      <trkpt lat="43.09604" lon="-1.72545">
        <ele>452.608</ele>
        <time>2020-05-15T10:29:19Z</time>
      </trkpt>
      <trkpt lat="43.09603" lon="-1.72547">
        <ele>452.632</ele>
        <time>2020-05-15T10:29:39Z</time>
      </trkpt>
      <trkpt lat="43.09603" lon="-1.72549">
        <ele>452.627</ele>
        <time>2020-05-15T10:29:59Z</time>
      </trkpt>
      <trkpt lat="43.09602" lon="-1.7255">
        <ele>452.611</ele>
        <time>2020-05-15T10:30:19Z</time>
      </trkpt>
      <trkpt lat="43.09601" lon="-1.72552">
        <ele>452.079</ele>
        <time>2020-05-15T10:30:39Z</time>
      </trkpt>
      <trkpt lat="43.09601" lon="-1.72554">
        <ele>453.364</ele>
        <time>2020-05-15T10:30:59Z</time>
      </trkpt>
      <trkpt lat="43.096" lon="-1.72556">
        <ele>453.324</ele>
        <time>2020-05-15T10:31:19Z</time>
      </trkpt>
      <trkpt lat="43.096" lon="-1.72557">
        <ele>453.351</ele>
        <time>2020-05-15T10:31:39Z</time>
      </trkpt>
      <trkpt lat="43.096" lon="-1.72563">
        <ele>453.793</ele>
        <time>2020-05-15T10:31:59Z</time>
      </trkpt>
      <trkpt lat="43.096" lon="-1.72564">
        <ele>453.937</ele>
        <time>2020-05-15T10:32:19Z</time>
      </trkpt>
      <trkpt lat="43.096" lon="-1.72566">
        <ele>453.949</ele>
        <time>2020-05-15T10:32:39Z</time>
      </trkpt>
      <trkpt lat="43.09602" lon="-1.72574">
        <ele>453.113</ele>
        <time>2020-05-15T10:32:59Z</time>
      </trkpt>
      <trkpt lat="43.09604" lon="-1.72583">
        <ele>453.708</ele>
        <time>2020-05-15T10:33:19Z</time>
      </trkpt>
      <trkpt lat="43.09606" lon="-1.72587">
        <ele>453.767</ele>
        <time>2020-05-15T10:33:39Z</time>
      </trkpt>
      <trkpt lat="43.09606" lon="-1.72589">
        <ele>453.962</ele>
        <time>2020-05-15T10:33:59Z</time>
      </trkpt>
      <trkpt lat="43.09607" lon="-1.72597">
        <ele>454.046</ele>
        <time>2020-05-15T10:34:19Z</time>
      </trkpt>
      <trkpt lat="43.09608" lon="-1.72602">
        <ele>454.234</ele>
        <time>2020-05-15T10:34:39Z</time>
      </trkpt>
      <trkpt lat="43.09608" lon="-1.72605">
        <ele>454.239</ele>
        <time>2020-05-15T10:34:59Z</time>
      </trkpt>
      <trkpt lat="43.09608" lon="-1.7261">
        <ele>454.469</ele>
        <time>2020-05-15T10:35:19Z</time>
      </trkpt>
      <trkpt lat="43.09608" lon="-1.72612">
        <ele>454.486</ele>
        <time>2020-05-15T10:35:39Z</time>
      </trkpt>
      <trkpt lat="43.09608" lon="-1.72617">
        <ele>454.558</ele>
        <time>2020-05-15T10:35:59Z</time>
      </trkpt>
      <trkpt lat="43.09607" lon="-1.72622">
        <ele>454.621</ele>
        <time>2020-05-15T10:36:19Z</time>
      </trkpt>
      <trkpt lat="43.09607" lon="-1.72626">
        <ele>452.241</ele>
        <time>2020-05-15T10:36:39Z</time>
      </trkpt>
      <trkpt lat="43.09605" lon="-1.72631">
        <ele>454.805</ele>
        <time>2020-05-15T10:36:59Z</time>
      </trkpt>
      <trkpt lat="43.09604" lon="-1.72634">
        <ele>454.908</ele>
        <time>2020-05-15T10:37:19Z</time>
      </trkpt>
      <trkpt lat="43.09601" lon="-1.72642">
        <ele>456.036</ele>
        <time>2020-05-15T10:37:39Z</time>
      </trkpt>
      <trkpt lat="43.09596" lon="-1.72656">
        <ele>455.451</ele>
        <time>2020-05-15T10:37:59Z</time>
      </trkpt>
      <trkpt lat="43.09592" lon="-1.72669">
        <ele>455.515</ele>
        <time>2020-05-15T10:38:19Z</time>
      </trkpt>
      <trkpt lat="43.09585" lon="-1.72689">
        <ele>456.063</ele>
        <time>2020-05-15T10:38:39Z</time>
      </trkpt>
      <trkpt lat="43.09583" lon="-1.72693">
        <ele>456.148</ele>
        <time>2020-05-15T10:38:59Z</time>
      </trkpt>
      <trkpt lat="43.09579" lon="-1.72709">
        <ele>456.328</ele>
        <time>2020-05-15T10:39:19Z</time>
      </trkpt>
      <trkpt lat="43.09574" lon="-1.72725">
        <ele>457.215</ele>
        <time>2020-05-15T10:39:39Z</time>
      </trkpt>
      <trkpt lat="43.0957" lon="-1.72739">
        <ele>457.097</ele>
        <time>2020-05-15T10:39:59Z</time>
      </trkpt>
      <trkpt lat="43.09566" lon="-1.72753">
        <ele>457.326</ele>
        <time>2020-05-15T10:40:19Z</time>
      </trkpt>
      <trkpt lat="43.09564" lon="-1.72759">
        <ele>457.447</ele>
        <time>2020-05-15T10:40:39Z</time>
      </trkpt>
      <trkpt lat="43.09563" lon="-1.72764">
        <ele>457.511</ele>
        <time>2020-05-15T10:40:59Z</time>
      </trkpt>
      <trkpt lat="43.0956" lon="-1.72769">
        <ele>457.708</ele>
        <time>2020-05-15T10:41:19Z</time>
      </trkpt>
      <trkpt lat="43.09558" lon="-1.72775">
        <ele>457.846</ele>
        <time>2020-05-15T10:41:39Z</time>
      </trkpt>
      <trkpt lat="43.09549" lon="-1.7279">
        <ele>458.471</ele>
        <time>2020-05-15T10:41:59Z</time>
      </trkpt>
      <trkpt lat="43.09541" lon="-1.72805">
        <ele>458.145</ele>
        <time>2020-05-15T10:42:19Z</time>
      </trkpt>
      <trkpt lat="43.09528" lon="-1.72831">
        <ele>459.153</ele>
        <time>2020-05-15T10:42:39Z</time>
      </trkpt>
      <trkpt lat="43.09514" lon="-1.72857">
        <ele>459.558</ele>
        <time>2020-05-15T10:42:59Z</time>
      </trkpt>
      <trkpt lat="43.09512" lon="-1.72862">
        <ele>459.638</ele>
        <time>2020-05-15T10:43:19Z</time>
      </trkpt>
      <trkpt lat="43.09509" lon="-1.72867">
        <ele>459.665</ele>
        <time>2020-05-15T10:43:39Z</time>
      </trkpt>
      <trkpt lat="43.09508" lon="-1.72872">
        <ele>459.617</ele>
        <time>2020-05-15T10:43:59Z</time>
      </trkpt>
      <trkpt lat="43.09506" lon="-1.72876">
        <ele>459.672</ele>
        <time>2020-05-15T10:44:19Z</time>
      </trkpt>
      <trkpt lat="43.09506" lon="-1.72877">
        <ele>459.613</ele>
        <time>2020-05-15T10:44:39Z</time>
      </trkpt>
      <trkpt lat="43.09506" lon="-1.7288">
        <ele>459.914</ele>
        <time>2020-05-15T10:44:59Z</time>
      </trkpt>
      <trkpt lat="43.09505" lon="-1.72884">
        <ele>459.908</ele>
        <time>2020-05-15T10:45:19Z</time>
      </trkpt>
      <trkpt lat="43.09505" lon="-1.72888">
        <ele>459.851</ele>
        <time>2020-05-15T10:45:39Z</time>
      </trkpt>
      <trkpt lat="43.09505" lon="-1.72903">
        <ele>459.966</ele>
        <time>2020-05-15T10:45:59Z</time>
      </trkpt>
      <trkpt lat="43.09504" lon="-1.7291">
        <ele>459.84</ele>
        <time>2020-05-15T10:46:19Z</time>
      </trkpt>
      <trkpt lat="43.09504" lon="-1.72917">
        <ele>459.858</ele>
        <time>2020-05-15T10:46:39Z</time>
      </trkpt>
      <trkpt lat="43.09504" lon="-1.72918">
        <ele>459.873</ele>
        <time>2020-05-15T10:46:59Z</time>
      </trkpt>
      <trkpt lat="43.09501" lon="-1.72928">
        <ele>459.543</ele>
        <time>2020-05-15T10:47:19Z</time>
      </trkpt>
      <trkpt lat="43.09499" lon="-1.72938">
        <ele>459.56</ele>
        <time>2020-05-15T10:47:39Z</time>
      </trkpt>
      <trkpt lat="43.09498" lon="-1.72942">
        <ele>459.532</ele>
        <time>2020-05-15T10:47:59Z</time>
      </trkpt>
      <trkpt lat="43.09497" lon="-1.72946">
        <ele>459.779</ele>
        <time>2020-05-15T10:48:19Z</time>
      </trkpt>
      <trkpt lat="43.09496" lon="-1.7295">
        <ele>459.405</ele>
        <time>2020-05-15T10:48:39Z</time>
      </trkpt>
      <trkpt lat="43.09495" lon="-1.72954">
        <ele>459.425</ele>
        <time>2020-05-15T10:48:59Z</time>
      </trkpt>
      <trkpt lat="43.09491" lon="-1.72966">
        <ele>459.208</ele>
        <time>2020-05-15T10:49:19Z</time>
      </trkpt>
      <trkpt lat="43.09488" lon="-1.72976">
        <ele>459.251</ele>
        <time>2020-05-15T10:49:39Z</time>
      </trkpt>
      <trkpt lat="43.09485" lon="-1.72986">
        <ele>459.146</ele>
        <time>2020-05-15T10:49:59Z</time>
      </trkpt>
      <trkpt lat="43.09484" lon="-1.72993">
        <ele>459.21</ele>
        <time>2020-05-15T10:50:19Z</time>
      </trkpt>
      <trkpt lat="43.09483" lon="-1.73">
        <ele>459.118</ele>
        <time>2020-05-15T10:50:39Z</time>
      </trkpt>
      <trkpt lat="43.09483" lon="-1.73016">
        <ele>459.163</ele>
        <time>2020-05-15T10:50:59Z</time>
      </trkpt>
      <trkpt lat="43.09482" lon="-1.73031">
        <ele>459.173</ele>
        <time>2020-05-15T10:51:19Z</time>
      </trkpt>
      <trkpt lat="43.09481" lon="-1.73037">
        <ele>459.05</ele>
        <time>2020-05-15T10:51:39Z</time>
      </trkpt>
      <trkpt lat="43.09481" lon="-1.73043">
        <ele>459.032</ele>
        <time>2020-05-15T10:51:59Z</time>
      </trkpt>
      <trkpt lat="43.09479" lon="-1.73054">
        <ele>458.742</ele>
        <time>2020-05-15T10:52:19Z</time>
      </trkpt>
      <trkpt lat="43.09477" lon="-1.73065">
        <ele>458.722</ele>
        <time>2020-05-15T10:52:39Z</time>
      </trkpt>
      <trkpt lat="43.09474" lon="-1.73077">
        <ele>458.814</ele>
        <time>2020-05-15T10:52:59Z</time>
      </trkpt>
      <trkpt lat="43.09471" lon="-1.73089">
        <ele>458.808</ele>
        <time>2020-05-15T10:53:19Z</time>
      </trkpt>
      <trkpt lat="43.09469" lon="-1.73098">
        <ele>458.948</ele>
        <time>2020-05-15T10:53:39Z</time>
      </trkpt>
      <trkpt lat="43.09466" lon="-1.73107">
        <ele>458.863</ele>
        <time>2020-05-15T10:53:59Z</time>
      </trkpt>
      <trkpt lat="43.09462" lon="-1.73121">
        <ele>458.897</ele>
        <time>2020-05-15T10:54:19Z</time>
      </trkpt>
      <trkpt lat="43.09455" lon="-1.73136">
        <ele>458.715</ele>
        <time>2020-05-15T10:54:39Z</time>
      </trkpt>
      <trkpt lat="43.09449" lon="-1.73153">
        <ele>458.67</ele>
        <time>2020-05-15T10:54:59Z</time>
      </trkpt>
      <trkpt lat="43.09443" lon="-1.73165">
        <ele>458.51</ele>
        <time>2020-05-15T10:55:19Z</time>
      </trkpt>
      <trkpt lat="43.09435" lon="-1.73185">
        <ele>458.137</ele>
        <time>2020-05-15T10:55:39Z</time>
      </trkpt>
      <trkpt lat="43.09433" lon="-1.73189">
        <ele>457.969</ele>
        <time>2020-05-15T10:55:59Z</time>
      </trkpt>
      <trkpt lat="43.09432" lon="-1.73193">
        <ele>458.163</ele>
        <time>2020-05-15T10:56:19Z</time>
      </trkpt>
      <trkpt lat="43.09431" lon="-1.73198">
        <ele>457.944</ele>
        <time>2020-05-15T10:56:39Z</time>
      </trkpt>
      <trkpt lat="43.09429" lon="-1.73206">
        <ele>457.518</ele>
        <time>2020-05-15T10:56:59Z</time>
      </trkpt>
      <trkpt lat="43.09428" lon="-1.73211">
        <ele>459.808</ele>
        <time>2020-05-15T10:57:19Z</time>
      </trkpt>
      <trkpt lat="43.09427" lon="-1.73215">
        <ele>458.58</ele>
        <time>2020-05-15T10:57:39Z</time>
      </trkpt>
      <trkpt lat="43.09426" lon="-1.7322">
        <ele>457.865</ele>
        <time>2020-05-15T10:57:59Z</time>
      </trkpt>
      <trkpt lat="43.09426" lon="-1.73223">
        <ele>457.819</ele>
        <time>2020-05-15T10:58:19Z</time>
      </trkpt>
      <trkpt lat="43.09426" lon="-1.73226">
        <ele>457.947</ele>
        <time>2020-05-15T10:58:39Z</time>
      </trkpt>
      <trkpt lat="43.09426" lon="-1.73229">
        <ele>457.912</ele>
        <time>2020-05-15T10:58:59Z</time>
      </trkpt>
      <trkpt lat="43.09426" lon="-1.73231">
        <ele>457.982</ele>
        <time>2020-05-15T10:59:19Z</time>
      </trkpt>
      <trkpt lat="43.09426" lon="-1.73234">
        <ele>457.999</ele>
        <time>2020-05-15T10:59:39Z</time>
      </trkpt>
      <trkpt lat="43.09426" lon="-1.73237">
        <ele>457.921</ele>
        <time>2020-05-15T10:59:59Z</time>
      </trkpt>
      <trkpt lat="43.09427" lon="-1.73243">
        <ele>457.941</ele>
        <time>2020-05-15T11:00:19Z</time>
      </trkpt>
      <trkpt lat="43.09428" lon="-1.73248">
        <ele>458.081</ele>
        <time>2020-05-15T11:00:39Z</time>
      </trkpt>
      <trkpt lat="43.09431" lon="-1.73261">
        <ele>457.809</ele>
        <time>2020-05-15T11:00:59Z</time>
      </trkpt>
      <trkpt lat="43.09434" lon="-1.73273">
        <ele>457.908</ele>
        <time>2020-05-15T11:01:19Z</time>
      </trkpt>
      <trkpt lat="43.09438" lon="-1.73288">
        <ele>458.488</ele>
        <time>2020-05-15T11:01:39Z</time>
      </trkpt>
      <trkpt lat="43.09442" lon="-1.73305">
        <ele>458.653</ele>
        <time>2020-05-15T11:01:59Z</time>
      </trkpt>
      <trkpt lat="43.09444" lon="-1.73312">
        <ele>458.627</ele>
        <time>2020-05-15T11:02:19Z</time>
      </trkpt>
      <trkpt lat="43.09445" lon="-1.73318">
        <ele>458.835</ele>
        <time>2020-05-15T11:02:39Z</time>
      </trkpt>
      <trkpt lat="43.09446" lon="-1.73324">
        <ele>458.85</ele>
        <time>2020-05-15T11:02:59Z</time>
      </trkpt>
      <trkpt lat="43.09448" lon="-1.73332">
        <ele>458.34</ele>
        <time>2020-05-15T11:03:19Z</time>
      </trkpt>
      <trkpt lat="43.09449" lon="-1.73336">
        <ele>458.767</ele>
        <time>2020-05-15T11:03:39Z</time>
      </trkpt>
      <trkpt lat="43.09449" lon="-1.73339">
        <ele>458.719</ele>
        <time>2020-05-15T11:03:59Z</time>
      </trkpt>
      <trkpt lat="43.0945" lon="-1.73345">
        <ele>459.086</ele>
        <time>2020-05-15T11:04:19Z</time>
      </trkpt>
      <trkpt lat="43.0945" lon="-1.73348">
        <ele>459.06</ele>
        <time>2020-05-15T11:04:39Z</time>
      </trkpt>
      <trkpt lat="43.09449" lon="-1.73351">
        <ele>459.026</ele>
        <time>2020-05-15T11:04:59Z</time>
      </trkpt>
      <trkpt lat="43.09449" lon="-1.73355">
        <ele>458.808</ele>
        <time>2020-05-15T11:05:19Z</time>
      </trkpt>
      <trkpt lat="43.09449" lon="-1.73356">
        <ele>458.852</ele>
        <time>2020-05-15T11:05:39Z</time>
      </trkpt>
      <trkpt lat="43.09449" lon="-1.73358">
        <ele>458.847</ele>
        <time>2020-05-15T11:05:59Z</time>
      </trkpt>
      <trkpt lat="43.09448" lon="-1.73361">
        <ele>458.371</ele>
        <time>2020-05-15T11:06:19Z</time>
      </trkpt>
      <trkpt lat="43.09447" lon="-1.73363">
        <ele>458.359</ele>
        <time>2020-05-15T11:06:39Z</time>
      </trkpt>
      <trkpt lat="43.09445" lon="-1.73367">
        <ele>458.464</ele>
        <time>2020-05-15T11:06:59Z</time>
      </trkpt>
      <trkpt lat="43.09444" lon="-1.73369">
        <ele>458.454</ele>
        <time>2020-05-15T11:07:19Z</time>
      </trkpt>
      <trkpt lat="43.09443" lon="-1.73369">
        <ele>458.161</ele>
        <time>2020-05-15T11:07:39Z</time>
      </trkpt>
      <trkpt lat="43.09442" lon="-1.73372">
        <ele>458.213</ele>
        <time>2020-05-15T11:07:59Z</time>
      </trkpt>
      <trkpt lat="43.0944" lon="-1.73374">
        <ele>458.216</ele>
        <time>2020-05-15T11:08:19Z</time>
      </trkpt>
      <trkpt lat="43.09438" lon="-1.73376">
        <ele>457.976</ele>
        <time>2020-05-15T11:08:39Z</time>
      </trkpt>
      <trkpt lat="43.09434" lon="-1.73378">
        <ele>457.713</ele>
        <time>2020-05-15T11:08:59Z</time>
      </trkpt>
      <trkpt lat="43.09433" lon="-1.73379">
        <ele>457.708</ele>
        <time>2020-05-15T11:09:19Z</time>
      </trkpt>
      <trkpt lat="43.09431" lon="-1.73379">
        <ele>457.795</ele>
        <time>2020-05-15T11:09:39Z</time>
      </trkpt>
      <trkpt lat="43.09429" lon="-1.7338">
        <ele>457.38</ele>
        <time>2020-05-15T11:09:59Z</time>
      </trkpt>
      <trkpt lat="43.09427" lon="-1.73379">
        <ele>457.314</ele>
        <time>2020-05-15T11:10:19Z</time>
      </trkpt>
      <trkpt lat="43.09425" lon="-1.7338">
        <ele>457.052</ele>
        <time>2020-05-15T11:10:39Z</time>
      </trkpt>
      <trkpt lat="43.09422" lon="-1.73378">
        <ele>456.757</ele>
        <time>2020-05-15T11:10:59Z</time>
      </trkpt>
      <trkpt lat="43.09419" lon="-1.73378">
        <ele>456.637</ele>
        <time>2020-05-15T11:11:19Z</time>
      </trkpt>
      <trkpt lat="43.09417" lon="-1.73376">
        <ele>456.574</ele>
        <time>2020-05-15T11:11:39Z</time>
      </trkpt>
      <trkpt lat="43.09416" lon="-1.73376">
        <ele>456.546</ele>
        <time>2020-05-15T11:11:59Z</time>
      </trkpt>
      <trkpt lat="43.09411" lon="-1.73374">
        <ele>456.015</ele>
        <time>2020-05-15T11:12:19Z</time>
      </trkpt>
      <trkpt lat="43.09405" lon="-1.73371">
        <ele>455.665</ele>
        <time>2020-05-15T11:12:39Z</time>
      </trkpt>
      <trkpt lat="43.09401" lon="-1.73369">
        <ele>455.411</ele>
        <time>2020-05-15T11:12:59Z</time>
      </trkpt>
      <trkpt lat="43.09393" lon="-1.73364">
        <ele>454.608</ele>
        <time>2020-05-15T11:13:19Z</time>
      </trkpt>
      <trkpt lat="43.09386" lon="-1.73359">
        <ele>455.315</ele>
        <time>2020-05-15T11:13:39Z</time>
      </trkpt>
      <trkpt lat="43.09384" lon="-1.73358">
        <ele>454.37</ele>
        <time>2020-05-15T11:13:59Z</time>
      </trkpt>
      <trkpt lat="43.09379" lon="-1.73357">
        <ele>454.134</ele>
        <time>2020-05-15T11:14:19Z</time>
      </trkpt>
      <trkpt lat="43.09377" lon="-1.73357">
        <ele>454.132</ele>
        <time>2020-05-15T11:14:39Z</time>
      </trkpt>
      <trkpt lat="43.09375" lon="-1.73356">
        <ele>453.827</ele>
        <time>2020-05-15T11:14:59Z</time>
      </trkpt>
      <trkpt lat="43.09372" lon="-1.73357">
        <ele>453.827</ele>
        <time>2020-05-15T11:15:19Z</time>
      </trkpt>
      <trkpt lat="43.0937" lon="-1.73357">
        <ele>453.894</ele>
        <time>2020-05-15T11:15:39Z</time>
      </trkpt>
      <trkpt lat="43.09368" lon="-1.73359">
        <ele>453.886</ele>
        <time>2020-05-15T11:15:59Z</time>
      </trkpt>
      <trkpt lat="43.09367" lon="-1.73359">
        <ele>453.917</ele>
        <time>2020-05-15T11:16:19Z</time>
      </trkpt>
      <trkpt lat="43.09366" lon="-1.73361">
        <ele>453.987</ele>
        <time>2020-05-15T11:16:39Z</time>
      </trkpt>
      <trkpt lat="43.09364" lon="-1.73363">
        <ele>453.615</ele>
        <time>2020-05-15T11:16:59Z</time>
      </trkpt>
      <trkpt lat="43.09363" lon="-1.73364">
        <ele>453.608</ele>
        <time>2020-05-15T11:17:19Z</time>
      </trkpt>
      <trkpt lat="43.09361" lon="-1.73366">
        <ele>453.945</ele>
        <time>2020-05-15T11:17:39Z</time>
      </trkpt>
      <trkpt lat="43.09361" lon="-1.73368">
        <ele>453.79</ele>
        <time>2020-05-15T11:17:59Z</time>
      </trkpt>
      <trkpt lat="43.0936" lon="-1.73369">
        <ele>453.784</ele>
        <time>2020-05-15T11:18:19Z</time>
      </trkpt>
      <trkpt lat="43.09359" lon="-1.73371">
        <ele>453.772</ele>
        <time>2020-05-15T11:18:39Z</time>
      </trkpt>
      <trkpt lat="43.09359" lon="-1.73374">
        <ele>453.757</ele>
        <time>2020-05-15T11:18:59Z</time>
      </trkpt>
      <trkpt lat="43.09359" lon="-1.73375">
        <ele>453.797</ele>
        <time>2020-05-15T11:19:19Z</time>
      </trkpt>
      <trkpt lat="43.09359" lon="-1.73378">
        <ele>453.724</ele>
        <time>2020-05-15T11:19:39Z</time>
      </trkpt>
      <trkpt lat="43.09359" lon="-1.7338">
        <ele>453.766</ele>
        <time>2020-05-15T11:19:59Z</time>
      </trkpt>
      <trkpt lat="43.09359" lon="-1.73387">
        <ele>454.413</ele>
        <time>2020-05-15T11:20:19Z</time>
      </trkpt>
      <trkpt lat="43.0936" lon="-1.73395">
        <ele>454.743</ele>
        <time>2020-05-15T11:20:39Z</time>
      </trkpt>
      <trkpt lat="43.0936" lon="-1.73403">
        <ele>454.707</ele>
        <time>2020-05-15T11:20:59Z</time>
      </trkpt>
      <trkpt lat="43.09361" lon="-1.73409">
        <ele>454.808</ele>
        <time>2020-05-15T11:21:19Z</time>
      </trkpt>
      <trkpt lat="43.09362" lon="-1.73416">
        <ele>455.385</ele>
        <time>2020-05-15T11:21:39Z</time>
      </trkpt>
      <trkpt lat="43.09362" lon="-1.7342">
        <ele>455.39</ele>
        <time>2020-05-15T11:21:59Z</time>
      </trkpt>
      <trkpt lat="43.09362" lon="-1.73422">
        <ele>455.334</ele>
        <time>2020-05-15T11:22:19Z</time>
      </trkpt>
      <trkpt lat="43.09362" lon="-1.73426">
        <ele>455.312</ele>
        <time>2020-05-15T11:22:39Z</time>
      </trkpt>
      <trkpt lat="43.09362" lon="-1.73431">
        <ele>455.467</ele>
        <time>2020-05-15T11:22:59Z</time>
      </trkpt>
      <trkpt lat="43.09362" lon="-1.73435">
        <ele>455.457</ele>
        <time>2020-05-15T11:23:19Z</time>
      </trkpt>
      <trkpt lat="43.09361" lon="-1.73438">
        <ele>455.514</ele>
        <time>2020-05-15T11:23:39Z</time>
      </trkpt>
      <trkpt lat="43.09361" lon="-1.73441">
        <ele>454.966</ele>
        <time>2020-05-15T11:23:59Z</time>
      </trkpt>
      <trkpt lat="43.09359" lon="-1.73446">
        <ele>454.963</ele>
        <time>2020-05-15T11:24:19Z</time>
      </trkpt>
      <trkpt lat="43.09358" lon="-1.73451">
        <ele>455.744</ele>
        <time>2020-05-15T11:24:39Z</time>
      </trkpt>
      <trkpt lat="43.09355" lon="-1.73459">
        <ele>455.818</ele>
        <time>2020-05-15T11:24:59Z</time>
      </trkpt>
      <trkpt lat="43.09352" lon="-1.73467">
        <ele>455.908</ele>
        <time>2020-05-15T11:25:19Z</time>
      </trkpt>
      <trkpt lat="43.0935" lon="-1.73472">
        <ele>455.66</ele>
        <time>2020-05-15T11:25:39Z</time>
      </trkpt>
      <trkpt lat="43.09348" lon="-1.73478">
        <ele>455.985</ele>
        <time>2020-05-15T11:25:59Z</time>
      </trkpt>
      <trkpt lat="43.09347" lon="-1.7348">
        <ele>455.839</ele>
        <time>2020-05-15T11:26:19Z</time>
      </trkpt>
      <trkpt lat="43.09345" lon="-1.73484">
        <ele>455.997</ele>
        <time>2020-05-15T11:26:39Z</time>
      </trkpt>
      <trkpt lat="43.09341" lon="-1.73493">
        <ele>455.912</ele>
        <time>2020-05-15T11:26:59Z</time>
      </trkpt>
      <trkpt lat="43.09337" lon="-1.73502">
        <ele>455.992</ele>
        <time>2020-05-15T11:27:19Z</time>
      </trkpt>
      <trkpt lat="43.09334" lon="-1.73507">
        <ele>455.989</ele>
        <time>2020-05-15T11:27:39Z</time>
      </trkpt>
      <trkpt lat="43.09331" lon="-1.73513">
        <ele>455.971</ele>
        <time>2020-05-15T11:27:59Z</time>
      </trkpt>
      <trkpt lat="43.09329" lon="-1.73516">
        <ele>455.076</ele>
        <time>2020-05-15T11:28:19Z</time>
      </trkpt>
      <trkpt lat="43.09325" lon="-1.73523">
        <ele>455.29</ele>
        <time>2020-05-15T11:28:39Z</time>
      </trkpt>
      <trkpt lat="43.09321" lon="-1.73528">
        <ele>455.719</ele>
        <time>2020-05-15T11:28:59Z</time>
      </trkpt>
      <trkpt lat="43.09315" lon="-1.73536">
        <ele>455.808</ele>
        <time>2020-05-15T11:29:19Z</time>
      </trkpt>
      <trkpt lat="43.0931" lon="-1.73543">
        <ele>455.741</ele>
        <time>2020-05-15T11:29:39Z</time>
      </trkpt>
      <trkpt lat="43.09302" lon="-1.73555">
        <ele>455.636</ele>
        <time>2020-05-15T11:29:59Z</time>
      </trkpt>
      <trkpt lat="43.09295" lon="-1.73563">
        <ele>455.61</ele>
        <time>2020-05-15T11:30:19Z</time>
      </trkpt>
      <trkpt lat="43.09282" lon="-1.73579">
        <ele>455.448</ele>
        <time>2020-05-15T11:30:39Z</time>
      </trkpt>
      <trkpt lat="43.0927" lon="-1.73596">
        <ele>455.263</ele>
        <time>2020-05-15T11:30:59Z</time>
      </trkpt>
      <trkpt lat="43.09264" lon="-1.73602">
        <ele>455.293</ele>
        <time>2020-05-15T11:31:19Z</time>
      </trkpt>
      <trkpt lat="43.09256" lon="-1.73612">
        <ele>455.24</ele>
        <time>2020-05-15T11:31:39Z</time>
      </trkpt>
      <trkpt lat="43.09251" lon="-1.73618">
        <ele>455.392</ele>
        <time>2020-05-15T11:31:59Z</time>
      </trkpt>
      <trkpt lat="43.09247" lon="-1.73622">
        <ele>455.399</ele>
        <time>2020-05-15T11:32:19Z</time>
      </trkpt>
      <trkpt lat="43.09243" lon="-1.73626">
        <ele>455.307</ele>
        <time>2020-05-15T11:32:39Z</time>
      </trkpt>
      <trkpt lat="43.09241" lon="-1.73628">
        <ele>455.427</ele>
        <time>2020-05-15T11:32:59Z</time>
      </trkpt>
      <trkpt lat="43.0924" lon="-1.73629">
        <ele>455.408</ele>
        <time>2020-05-15T11:33:19Z</time>
      </trkpt>
      <trkpt lat="43.09236" lon="-1.7363">
        <ele>455.493</ele>
        <time>2020-05-15T11:33:39Z</time>
      </trkpt>
      <trkpt lat="43.09222" lon="-1.73633">
        <ele>455.388</ele>
        <time>2020-05-15T11:33:59Z</time>
      </trkpt>
      <trkpt lat="43.09209" lon="-1.73636">
        <ele>455.462</ele>
        <time>2020-05-15T11:34:19Z</time>
      </trkpt>
      <trkpt lat="43.09205" lon="-1.73638">
        <ele>455.56</ele>
        <time>2020-05-15T11:34:39Z</time>
      </trkpt>
      <trkpt lat="43.09203" lon="-1.73639">
        <ele>455.665</ele>
        <time>2020-05-15T11:34:59Z</time>
      </trkpt>
      <trkpt lat="43.092" lon="-1.73641">
        <ele>455.665</ele>
        <time>2020-05-15T11:35:19Z</time>
      </trkpt>
      <trkpt lat="43.09197" lon="-1.73645">
        <ele>455.582</ele>
        <time>2020-05-15T11:35:39Z</time>
      </trkpt>
      <trkpt lat="43.09194" lon="-1.73648">
        <ele>455.674</ele>
        <time>2020-05-15T11:35:59Z</time>
      </trkpt>
      <trkpt lat="43.09193" lon="-1.7365">
        <ele>455.625</ele>
        <time>2020-05-15T11:36:19Z</time>
      </trkpt>
      <trkpt lat="43.09191" lon="-1.73654">
        <ele>455.426</ele>
        <time>2020-05-15T11:36:39Z</time>
      </trkpt>
      <trkpt lat="43.0919" lon="-1.73657">
        <ele>455.408</ele>
        <time>2020-05-15T11:36:59Z</time>
      </trkpt>
      <trkpt lat="43.0919" lon="-1.73661">
        <ele>455.708</ele>
        <time>2020-05-15T11:37:19Z</time>
      </trkpt>
      <trkpt lat="43.09189" lon="-1.73667">
        <ele>455.736</ele>
        <time>2020-05-15T11:37:39Z</time>
      </trkpt>
      <trkpt lat="43.09188" lon="-1.73677">
        <ele>455.711</ele>
        <time>2020-05-15T11:37:59Z</time>
      </trkpt>
      <trkpt lat="43.09186" lon="-1.73694">
        <ele>455.585</ele>
        <time>2020-05-15T11:38:19Z</time>
      </trkpt>
      <trkpt lat="43.09185" lon="-1.73708">
        <ele>456.173</ele>
        <time>2020-05-15T11:38:39Z</time>
      </trkpt>
      <trkpt lat="43.09184" lon="-1.73713">
        <ele>456.268</ele>
        <time>2020-05-15T11:38:59Z</time>
      </trkpt>
      <trkpt lat="43.09183" lon="-1.73717">
        <ele>455.978</ele>
        <time>2020-05-15T11:39:19Z</time>
      </trkpt>
      <trkpt lat="43.09183" lon="-1.73719">
        <ele>455.995</ele>
        <time>2020-05-15T11:39:39Z</time>
      </trkpt>
      <trkpt lat="43.09182" lon="-1.73722">
        <ele>456.097</ele>
        <time>2020-05-15T11:39:59Z</time>
      </trkpt>
      <trkpt lat="43.0918" lon="-1.73728">
        <ele>456.788</ele>
        <time>2020-05-15T11:40:19Z</time>
      </trkpt>
      <trkpt lat="43.09178" lon="-1.73733">
        <ele>456.724</ele>
        <time>2020-05-15T11:40:39Z</time>
      </trkpt>
      <trkpt lat="43.09176" lon="-1.73737">
        <ele>457.026</ele>
        <time>2020-05-15T11:40:59Z</time>
      </trkpt>
      <trkpt lat="43.09174" lon="-1.73741">
        <ele>457.308</ele>
        <time>2020-05-15T11:41:19Z</time>
      </trkpt>
      <trkpt lat="43.09172" lon="-1.73745">
        <ele>457.562</ele>
        <time>2020-05-15T11:41:39Z</time>
      </trkpt>
      <trkpt lat="43.0917" lon="-1.73748">
        <ele>458.177</ele>
        <time>2020-05-15T11:41:59Z</time>
      </trkpt>
      <trkpt lat="43.09167" lon="-1.73752">
        <ele>457.911</ele>
        <time>2020-05-15T11:42:19Z</time>
      </trkpt>
      <trkpt lat="43.09165" lon="-1.73755">
        <ele>458.159</ele>
        <time>2020-05-15T11:42:39Z</time>
      </trkpt>
      <trkpt lat="43.09162" lon="-1.73758">
        <ele>458.384</ele>
        <time>2020-05-15T11:42:59Z</time>
      </trkpt>
      <trkpt lat="43.0916" lon="-1.73761">
        <ele>458.674</ele>
        <time>2020-05-15T11:43:19Z</time>
      </trkpt>
      <trkpt lat="43.09158" lon="-1.73763">
        <ele>458.641</ele>
        <time>2020-05-15T11:43:39Z</time>
      </trkpt>
      <trkpt lat="43.09156" lon="-1.73765">
        <ele>458.613</ele>
        <time>2020-05-15T11:43:59Z</time>
      </trkpt>
      <trkpt lat="43.09153" lon="-1.73767">
        <ele>459.175</ele>
        <time>2020-05-15T11:44:19Z</time>
      </trkpt>
      <trkpt lat="43.09151" lon="-1.73768">
        <ele>459.328</ele>
        <time>2020-05-15T11:44:39Z</time>
      </trkpt>
      <trkpt lat="43.09146" lon="-1.73771">
        <ele>459.52</ele>
        <time>2020-05-15T11:44:59Z</time>
      </trkpt>
      <trkpt lat="43.09144" lon="-1.73772">
        <ele>459.808</ele>
        <time>2020-05-15T11:45:19Z</time>
      </trkpt>
      <trkpt lat="43.09133" lon="-1.73775">
        <ele>460.191</ele>
        <time>2020-05-15T11:45:39Z</time>
      </trkpt>
      <trkpt lat="43.09118" lon="-1.7378">
        <ele>461.226</ele>
        <time>2020-05-15T11:45:59Z</time>
      </trkpt>
      <trkpt lat="43.0911" lon="-1.73782">
        <ele>461.82</ele>
        <time>2020-05-15T11:46:19Z</time>
      </trkpt>
      <trkpt lat="43.09106" lon="-1.73783">
        <ele>461.848</ele>
        <time>2020-05-15T11:46:39Z</time>
      </trkpt>
      <trkpt lat="43.09104" lon="-1.73783">
        <ele>461.973</ele>
        <time>2020-05-15T11:46:59Z</time>
      </trkpt>
      <trkpt lat="43.09102" lon="-1.73783">
        <ele>461.973</ele>
        <time>2020-05-15T11:47:19Z</time>
      </trkpt>
      <trkpt lat="43.091" lon="-1.73783">
        <ele>462.13</ele>
        <time>2020-05-15T11:47:39Z</time>
      </trkpt>
      <trkpt lat="43.09097" lon="-1.73783">
        <ele>462.382</ele>
        <time>2020-05-15T11:47:59Z</time>
      </trkpt>
      <trkpt lat="43.09095" lon="-1.73783">
        <ele>462.351</ele>
        <time>2020-05-15T11:48:19Z</time>
      </trkpt>
      <trkpt lat="43.09092" lon="-1.73782">
        <ele>462.801</ele>
        <time>2020-05-15T11:48:39Z</time>
      </trkpt>
      <trkpt lat="43.0909" lon="-1.73781">
        <ele>462.811</ele>
        <time>2020-05-15T11:48:59Z</time>
      </trkpt>
      <trkpt lat="43.09088" lon="-1.7378">
        <ele>463.108</ele>
        <time>2020-05-15T11:49:19Z</time>
      </trkpt>
      <trkpt lat="43.09082" lon="-1.73777">
        <ele>463.329</ele>
        <time>2020-05-15T11:49:39Z</time>
      </trkpt>
      <trkpt lat="43.09077" lon="-1.73774">
        <ele>463.634</ele>
        <time>2020-05-15T11:49:59Z</time>
      </trkpt>
      <trkpt lat="43.09071" lon="-1.7377">
        <ele>464.078</ele>
        <time>2020-05-15T11:50:19Z</time>
      </trkpt>
      <trkpt lat="43.09066" lon="-1.73766">
        <ele>465.756</ele>
        <time>2020-05-15T11:50:39Z</time>
      </trkpt>
      <trkpt lat="43.09062" lon="-1.73764">
        <ele>464.661</ele>
        <time>2020-05-15T11:50:59Z</time>
      </trkpt>
      <trkpt lat="43.09058" lon="-1.73762">
        <ele>464.741</ele>
        <time>2020-05-15T11:51:19Z</time>
      </trkpt>
      <trkpt lat="43.09056" lon="-1.73761">
        <ele>465.168</ele>
        <time>2020-05-15T11:51:39Z</time>
      </trkpt>
      <trkpt lat="43.09053" lon="-1.73759">
        <ele>465.15</ele>
        <time>2020-05-15T11:51:59Z</time>
      </trkpt>
      <trkpt lat="43.09049" lon="-1.73759">
        <ele>465.484</ele>
        <time>2020-05-15T11:52:19Z</time>
      </trkpt>
      <trkpt lat="43.09046" lon="-1.73758">
        <ele>465.507</ele>
        <time>2020-05-15T11:52:39Z</time>
      </trkpt>
      <trkpt lat="43.09042" lon="-1.73758">
        <ele>465.717</ele>
        <time>2020-05-15T11:52:59Z</time>
      </trkpt>
      <trkpt lat="43.09038" lon="-1.73758">
        <ele>465.708</ele>
        <time>2020-05-15T11:53:19Z</time>
      </trkpt>
      <trkpt lat="43.09035" lon="-1.73759">
        <ele>466.272</ele>
        <time>2020-05-15T11:53:39Z</time>
      </trkpt>
      <trkpt lat="43.09031" lon="-1.7376">
        <ele>466.497</ele>
        <time>2020-05-15T11:53:59Z</time>
      </trkpt>
      <trkpt lat="43.09025" lon="-1.73761">
        <ele>466.261</ele>
        <time>2020-05-15T11:54:19Z</time>
      </trkpt>
      <trkpt lat="43.09023" lon="-1.73762">
        <ele>466.259</ele>
        <time>2020-05-15T11:54:39Z</time>
      </trkpt>
      <trkpt lat="43.09018" lon="-1.73763">
        <ele>465.754</ele>
        <time>2020-05-15T11:54:59Z</time>
      </trkpt>
      <trkpt lat="43.09006" lon="-1.73766">
        <ele>465.924</ele>
        <time>2020-05-15T11:55:19Z</time>
      </trkpt>
      <trkpt lat="43.08994" lon="-1.7377">
        <ele>464.231</ele>
        <time>2020-05-15T11:55:39Z</time>
      </trkpt>
      <trkpt lat="43.08988" lon="-1.73771">
        <ele>463.813</ele>
        <time>2020-05-15T11:55:59Z</time>
      </trkpt>
      <trkpt lat="43.08982" lon="-1.73772">
        <ele>463.225</ele>
        <time>2020-05-15T11:56:19Z</time>
      </trkpt>
      <trkpt lat="43.08981" lon="-1.73772">
        <ele>463.226</ele>
        <time>2020-05-15T11:56:39Z</time>
      </trkpt>
      <trkpt lat="43.08979" lon="-1.73772">
        <ele>463.008</ele>
        <time>2020-05-15T11:56:59Z</time>
      </trkpt>
      <trkpt lat="43.08977" lon="-1.73772">
        <ele>463.008</ele>
        <time>2020-05-15T11:57:19Z</time>
      </trkpt>
      <trkpt lat="43.08975" lon="-1.73771">
        <ele>462.886</ele>
        <time>2020-05-15T11:57:39Z</time>
      </trkpt>
      <trkpt lat="43.08968" lon="-1.73769">
        <ele>462.781</ele>
        <time>2020-05-15T11:57:59Z</time>
      </trkpt>
      <trkpt lat="43.08964" lon="-1.73768">
        <ele>462.295</ele>
        <time>2020-05-15T11:58:19Z</time>
      </trkpt>
      <trkpt lat="43.08961" lon="-1.73767">
        <ele>461.813</ele>
        <time>2020-05-15T11:58:39Z</time>
      </trkpt>
      <trkpt lat="43.08959" lon="-1.73765">
        <ele>461.868</ele>
        <time>2020-05-15T11:58:59Z</time>
      </trkpt>
      <trkpt lat="43.08956" lon="-1.73764">
        <ele>461.788</ele>
        <time>2020-05-15T11:59:19Z</time>
      </trkpt>
      <trkpt lat="43.08953" lon="-1.73762">
        <ele>464.115</ele>
        <time>2020-05-15T11:59:39Z</time>
      </trkpt>
      <trkpt lat="43.0895" lon="-1.7376">
        <ele>461.717</ele>
        <time>2020-05-15T11:59:59Z</time>
      </trkpt>
      <trkpt lat="43.08945" lon="-1.73756">
        <ele>461.038</ele>
        <time>2020-05-15T12:00:19Z</time>
      </trkpt>
      <trkpt lat="43.08943" lon="-1.73754">
        <ele>460.97</ele>
        <time>2020-05-15T12:00:39Z</time>
      </trkpt>
      <trkpt lat="43.08941" lon="-1.73752">
        <ele>460.917</ele>
        <time>2020-05-15T12:00:59Z</time>
      </trkpt>
      <trkpt lat="43.0894" lon="-1.7375">
        <ele>460.908</ele>
        <time>2020-05-15T12:01:19Z</time>
      </trkpt>
      <trkpt lat="43.08939" lon="-1.73749">
        <ele>460.867</ele>
        <time>2020-05-15T12:01:39Z</time>
      </trkpt>
      <trkpt lat="43.08936" lon="-1.73744">
        <ele>463.032</ele>
        <time>2020-05-15T12:01:59Z</time>
      </trkpt>
      <trkpt lat="43.08933" lon="-1.73741">
        <ele>460.586</ele>
        <time>2020-05-15T12:02:19Z</time>
      </trkpt>
      <trkpt lat="43.08929" lon="-1.73732">
        <ele>460.194</ele>
        <time>2020-05-15T12:02:39Z</time>
      </trkpt>
      <trkpt lat="43.08924" lon="-1.73724">
        <ele>459.839</ele>
        <time>2020-05-15T12:02:59Z</time>
      </trkpt>
      <trkpt lat="43.08922" lon="-1.73722">
        <ele>459.819</ele>
        <time>2020-05-15T12:03:19Z</time>
      </trkpt>
      <trkpt lat="43.08921" lon="-1.73719">
        <ele>460.546</ele>
        <time>2020-05-15T12:03:39Z</time>
      </trkpt>
      <trkpt lat="43.08919" lon="-1.73716">
        <ele>459.548</ele>
        <time>2020-05-15T12:03:59Z</time>
      </trkpt>
      <trkpt lat="43.08916" lon="-1.73713">
        <ele>459.458</ele>
        <time>2020-05-15T12:04:19Z</time>
      </trkpt>
      <trkpt lat="43.08914" lon="-1.73712">
        <ele>459.452</ele>
        <time>2020-05-15T12:04:39Z</time>
      </trkpt>
      <trkpt lat="43.08913" lon="-1.7371">
        <ele>459.417</ele>
        <time>2020-05-15T12:04:59Z</time>
      </trkpt>
      <trkpt lat="43.08911" lon="-1.73708">
        <ele>459.208</ele>
        <time>2020-05-15T12:05:19Z</time>
      </trkpt>
      <trkpt lat="43.08909" lon="-1.73707">
        <ele>459.289</ele>
        <time>2020-05-15T12:05:39Z</time>
      </trkpt>
      <trkpt lat="43.08907" lon="-1.73706">
        <ele>459.054</ele>
        <time>2020-05-15T12:05:59Z</time>
      </trkpt>
      <trkpt lat="43.08905" lon="-1.73706">
        <ele>459.028</ele>
        <time>2020-05-15T12:06:19Z</time>
      </trkpt>
      <trkpt lat="43.08904" lon="-1.73706">
        <ele>459.026</ele>
        <time>2020-05-15T12:06:39Z</time>
      </trkpt>
      <trkpt lat="43.08903" lon="-1.73706">
        <ele>459.081</ele>
        <time>2020-05-15T12:06:59Z</time>
      </trkpt>
      <trkpt lat="43.08899" lon="-1.73706">
        <ele>458.941</ele>
        <time>2020-05-15T12:07:19Z</time>
      </trkpt>
      <trkpt lat="43.08896" lon="-1.73705">
        <ele>458.858</ele>
        <time>2020-05-15T12:07:39Z</time>
      </trkpt>
      <trkpt lat="43.08891" lon="-1.73706">
        <ele>458.51</ele>
        <time>2020-05-15T12:07:59Z</time>
      </trkpt>
      <trkpt lat="43.08882" lon="-1.73706">
        <ele>458.351</ele>
        <time>2020-05-15T12:08:19Z</time>
      </trkpt>
      <trkpt lat="43.08878" lon="-1.73706">
        <ele>458.201</ele>
        <time>2020-05-15T12:08:39Z</time>
      </trkpt>
      <trkpt lat="43.08876" lon="-1.73705">
        <ele>458.211</ele>
        <time>2020-05-15T12:08:59Z</time>
      </trkpt>
      <trkpt lat="43.08874" lon="-1.73705">
        <ele>458.008</ele>
        <time>2020-05-15T12:09:19Z</time>
      </trkpt>
      <trkpt lat="43.08873" lon="-1.73704">
        <ele>458.089</ele>
        <time>2020-05-15T12:09:39Z</time>
      </trkpt>
      <trkpt lat="43.08871" lon="-1.73704">
        <ele>458.024</ele>
        <time>2020-05-15T12:09:59Z</time>
      </trkpt>
      <trkpt lat="43.08869" lon="-1.73702">
        <ele>457.698</ele>
        <time>2020-05-15T12:10:19Z</time>
      </trkpt>
      <trkpt lat="43.08867" lon="-1.737">
        <ele>457.616</ele>
        <time>2020-05-15T12:10:39Z</time>
      </trkpt>
      <trkpt lat="43.08866" lon="-1.73699">
        <ele>457.611</ele>
        <time>2020-05-15T12:10:59Z</time>
      </trkpt>
      <trkpt lat="43.08865" lon="-1.73697">
        <ele>457.621</ele>
        <time>2020-05-15T12:11:19Z</time>
      </trkpt>
      <trkpt lat="43.08863" lon="-1.73695">
        <ele>457.118</ele>
        <time>2020-05-15T12:11:39Z</time>
      </trkpt>
      <trkpt lat="43.08862" lon="-1.73692">
        <ele>457.12</ele>
        <time>2020-05-15T12:11:59Z</time>
      </trkpt>
      <trkpt lat="43.08861" lon="-1.73689">
        <ele>457.031</ele>
        <time>2020-05-15T12:12:19Z</time>
      </trkpt>
      <trkpt lat="43.0886" lon="-1.73685">
        <ele>457.061</ele>
        <time>2020-05-15T12:12:39Z</time>
      </trkpt>
      <trkpt lat="43.08859" lon="-1.73682">
        <ele>456.907</ele>
        <time>2020-05-15T12:12:59Z</time>
      </trkpt>
      <trkpt lat="43.08859" lon="-1.73681">
        <ele>456.908</ele>
        <time>2020-05-15T12:13:19Z</time>
      </trkpt>
      <trkpt lat="43.08859" lon="-1.73668">
        <ele>457.967</ele>
        <time>2020-05-15T12:13:39Z</time>
      </trkpt>
      <trkpt lat="43.08857" lon="-1.73648">
        <ele>459.122</ele>
        <time>2020-05-15T12:13:59Z</time>
      </trkpt>
      <trkpt lat="43.08856" lon="-1.73638">
        <ele>456.186</ele>
        <time>2020-05-15T12:14:19Z</time>
      </trkpt>
      <trkpt lat="43.08856" lon="-1.73637">
        <ele>456.194</ele>
        <time>2020-05-15T12:14:39Z</time>
      </trkpt>
      <trkpt lat="43.08855" lon="-1.73632">
        <ele>456.049</ele>
        <time>2020-05-15T12:14:59Z</time>
      </trkpt>
      <trkpt lat="43.08854" lon="-1.7363">
        <ele>456.049</ele>
        <time>2020-05-15T12:15:19Z</time>
      </trkpt>
      <trkpt lat="43.08852" lon="-1.73625">
        <ele>455.996</ele>
        <time>2020-05-15T12:15:39Z</time>
      </trkpt>
      <trkpt lat="43.0885" lon="-1.73621">
        <ele>455.598</ele>
        <time>2020-05-15T12:15:59Z</time>
      </trkpt>
      <trkpt lat="43.08848" lon="-1.73617">
        <ele>455.695</ele>
        <time>2020-05-15T12:16:19Z</time>
      </trkpt>
      <trkpt lat="43.08845" lon="-1.73614">
        <ele>455.349</ele>
        <time>2020-05-15T12:16:39Z</time>
      </trkpt>
      <trkpt lat="43.08844" lon="-1.73612">
        <ele>455.323</ele>
        <time>2020-05-15T12:16:59Z</time>
      </trkpt>
      <trkpt lat="43.08842" lon="-1.7361">
        <ele>455.208</ele>
        <time>2020-05-15T12:17:19Z</time>
      </trkpt>
      <trkpt lat="43.08841" lon="-1.7361">
        <ele>455.243</ele>
        <time>2020-05-15T12:17:39Z</time>
      </trkpt>
      <trkpt lat="43.08839" lon="-1.73609">
        <ele>455.298</ele>
        <time>2020-05-15T12:17:59Z</time>
      </trkpt>
      <trkpt lat="43.08837" lon="-1.73608">
        <ele>454.862</ele>
        <time>2020-05-15T12:18:19Z</time>
      </trkpt>
      <trkpt lat="43.08835" lon="-1.73607">
        <ele>454.85</ele>
        <time>2020-05-15T12:18:39Z</time>
      </trkpt>
      <trkpt lat="43.08834" lon="-1.73607">
        <ele>454.855</ele>
        <time>2020-05-15T12:18:59Z</time>
      </trkpt>
      <trkpt lat="43.08832" lon="-1.73607">
        <ele>454.865</ele>
        <time>2020-05-15T12:19:19Z</time>
      </trkpt>
      <trkpt lat="43.08831" lon="-1.73608">
        <ele>454.822</ele>
        <time>2020-05-15T12:19:39Z</time>
      </trkpt>
      <trkpt lat="43.08828" lon="-1.73608">
        <ele>454.864</ele>
        <time>2020-05-15T12:19:59Z</time>
      </trkpt>
      <trkpt lat="43.08827" lon="-1.7361">
        <ele>454.817</ele>
        <time>2020-05-15T12:20:19Z</time>
      </trkpt>
      <trkpt lat="43.08824" lon="-1.73612">
        <ele>454.887</ele>
        <time>2020-05-15T12:20:39Z</time>
      </trkpt>
      <trkpt lat="43.08821" lon="-1.73617">
        <ele>455.115</ele>
        <time>2020-05-15T12:20:59Z</time>
      </trkpt>
      <trkpt lat="43.08815" lon="-1.73625">
        <ele>454.308</ele>
        <time>2020-05-15T12:21:19Z</time>
      </trkpt>
      <trkpt lat="43.08812" lon="-1.7363">
        <ele>454.145</ele>
        <time>2020-05-15T12:21:39Z</time>
      </trkpt>
      <trkpt lat="43.0881" lon="-1.73632">
        <ele>454.33</ele>
        <time>2020-05-15T12:21:59Z</time>
      </trkpt>
      <trkpt lat="43.08808" lon="-1.73634">
        <ele>454.344</ele>
        <time>2020-05-15T12:22:19Z</time>
      </trkpt>
      <trkpt lat="43.08806" lon="-1.73636">
        <ele>454.062</ele>
        <time>2020-05-15T12:22:39Z</time>
      </trkpt>
      <trkpt lat="43.08803" lon="-1.73638">
        <ele>454.027</ele>
        <time>2020-05-15T12:22:59Z</time>
      </trkpt>
      <trkpt lat="43.08802" lon="-1.73639">
        <ele>453.767</ele>
        <time>2020-05-15T12:23:19Z</time>
      </trkpt>
      <trkpt lat="43.08801" lon="-1.73639">
        <ele>453.794</ele>
        <time>2020-05-15T12:23:39Z</time>
      </trkpt>
      <trkpt lat="43.08798" lon="-1.73641">
        <ele>453.576</ele>
        <time>2020-05-15T12:23:59Z</time>
      </trkpt>
      <trkpt lat="43.08795" lon="-1.73642">
        <ele>453.577</ele>
        <time>2020-05-15T12:24:19Z</time>
      </trkpt>
      <trkpt lat="43.08784" lon="-1.73647">
        <ele>452.961</ele>
        <time>2020-05-15T12:24:39Z</time>
      </trkpt>
      <trkpt lat="43.08773" lon="-1.73651">
        <ele>452.227</ele>
        <time>2020-05-15T12:24:59Z</time>
      </trkpt>
      <trkpt lat="43.08771" lon="-1.73652">
        <ele>452.208</ele>
        <time>2020-05-15T12:25:19Z</time>
      </trkpt>
      <trkpt lat="43.0877" lon="-1.73653">
        <ele>452.071</ele>
        <time>2020-05-15T12:25:39Z</time>
      </trkpt>
      <trkpt lat="43.08768" lon="-1.73655">
        <ele>452.096</ele>
        <time>2020-05-15T12:25:59Z</time>
      </trkpt>
      <trkpt lat="43.08764" lon="-1.73659">
        <ele>451.79</ele>
        <time>2020-05-15T12:26:19Z</time>
      </trkpt>
      <trkpt lat="43.08757" lon="-1.73665">
        <ele>451.418</ele>
        <time>2020-05-15T12:26:39Z</time>
      </trkpt>
      <trkpt lat="43.08744" lon="-1.73681">
        <ele>450.123</ele>
        <time>2020-05-15T12:26:59Z</time>
      </trkpt>
      <trkpt lat="43.08712" lon="-1.73719">
        <ele>447.933</ele>
        <time>2020-05-15T12:27:19Z</time>
      </trkpt>
      <trkpt lat="43.08704" lon="-1.73729">
        <ele>447.49</ele>
        <time>2020-05-15T12:27:39Z</time>
      </trkpt>
      <trkpt lat="43.08695" lon="-1.73739">
        <ele>446.752</ele>
        <time>2020-05-15T12:27:59Z</time>
      </trkpt>
      <trkpt lat="43.08684" lon="-1.73752">
        <ele>446.094</ele>
        <time>2020-05-15T12:28:19Z</time>
      </trkpt>
      <trkpt lat="43.08673" lon="-1.73764">
        <ele>445.257</ele>
        <time>2020-05-15T12:28:39Z</time>
      </trkpt>
      <trkpt lat="43.08672" lon="-1.73766">
        <ele>445.222</ele>
        <time>2020-05-15T12:28:59Z</time>
      </trkpt>
      <trkpt lat="43.08669" lon="-1.73769">
        <ele>445.008</ele>
        <time>2020-05-15T12:29:19Z</time>
      </trkpt>
      <trkpt lat="43.08669" lon="-1.73771">
        <ele>445.093</ele>
        <time>2020-05-15T12:29:39Z</time>
      </trkpt>
      <trkpt lat="43.08668" lon="-1.73772">
        <ele>445.048</ele>
        <time>2020-05-15T12:29:59Z</time>
      </trkpt>
      <trkpt lat="43.08667" lon="-1.73773">
        <ele>445.042</ele>
        <time>2020-05-15T12:30:19Z</time>
      </trkpt>
      <trkpt lat="43.08667" lon="-1.73774">
        <ele>445.04</ele>
        <time>2020-05-15T12:30:39Z</time>
      </trkpt>
      <trkpt lat="43.08666" lon="-1.73777">
        <ele>442.995</ele>
        <time>2020-05-15T12:30:59Z</time>
      </trkpt>
      <trkpt lat="43.08665" lon="-1.7378">
        <ele>442.985</ele>
        <time>2020-05-15T12:31:19Z</time>
      </trkpt>
      <trkpt lat="43.08665" lon="-1.73781">
        <ele>444.492</ele>
        <time>2020-05-15T12:31:39Z</time>
      </trkpt>
      <trkpt lat="43.08664" lon="-1.73783">
        <ele>444.464</ele>
        <time>2020-05-15T12:31:59Z</time>
      </trkpt>
      <trkpt lat="43.08664" lon="-1.73786">
        <ele>444.496</ele>
        <time>2020-05-15T12:32:19Z</time>
      </trkpt>
      <trkpt lat="43.08664" lon="-1.73787">
        <ele>444.431</ele>
        <time>2020-05-15T12:32:39Z</time>
      </trkpt>
      <trkpt lat="43.08665" lon="-1.73789">
        <ele>444.524</ele>
        <time>2020-05-15T12:32:59Z</time>
      </trkpt>
      <trkpt lat="43.08665" lon="-1.73791">
        <ele>444.008</ele>
        <time>2020-05-15T12:33:19Z</time>
      </trkpt>
      <trkpt lat="43.08666" lon="-1.73793">
        <ele>444.063</ele>
        <time>2020-05-15T12:33:39Z</time>
      </trkpt>
      <trkpt lat="43.08666" lon="-1.73795">
        <ele>444.028</ele>
        <time>2020-05-15T12:33:59Z</time>
      </trkpt>
      <trkpt lat="43.08667" lon="-1.73798">
        <ele>444.072</ele>
        <time>2020-05-15T12:34:19Z</time>
      </trkpt>
      <trkpt lat="43.08671" lon="-1.73807">
        <ele>443.59</ele>
        <time>2020-05-15T12:34:39Z</time>
      </trkpt>
      <trkpt lat="43.08678" lon="-1.73822">
        <ele>443.285</ele>
        <time>2020-05-15T12:34:59Z</time>
      </trkpt>
      <trkpt lat="43.08682" lon="-1.73831">
        <ele>443.475</ele>
        <time>2020-05-15T12:35:19Z</time>
      </trkpt>
      <trkpt lat="43.08686" lon="-1.73839">
        <ele>442.592</ele>
        <time>2020-05-15T12:35:39Z</time>
      </trkpt>
      <trkpt lat="43.08689" lon="-1.73847">
        <ele>442.134</ele>
        <time>2020-05-15T12:35:59Z</time>
      </trkpt>
      <trkpt lat="43.08691" lon="-1.73852">
        <ele>442.121</ele>
        <time>2020-05-15T12:36:19Z</time>
      </trkpt>
      <trkpt lat="43.08693" lon="-1.73858">
        <ele>442.041</ele>
        <time>2020-05-15T12:36:39Z</time>
      </trkpt>
      <trkpt lat="43.08695" lon="-1.73862">
        <ele>442.005</ele>
        <time>2020-05-15T12:36:59Z</time>
      </trkpt>
      <trkpt lat="43.08698" lon="-1.73871">
        <ele>442.008</ele>
        <time>2020-05-15T12:37:19Z</time>
      </trkpt>
      <trkpt lat="43.08698" lon="-1.73874">
        <ele>441.896</ele>
        <time>2020-05-15T12:37:39Z</time>
      </trkpt>
      <trkpt lat="43.08699" lon="-1.73879">
        <ele>441.781</ele>
        <time>2020-05-15T12:37:59Z</time>
      </trkpt>
      <trkpt lat="43.087" lon="-1.73882">
        <ele>441.755</ele>
        <time>2020-05-15T12:38:19Z</time>
      </trkpt>
      <trkpt lat="43.087" lon="-1.73885">
        <ele>441.873</ele>
        <time>2020-05-15T12:38:39Z</time>
      </trkpt>
      <trkpt lat="43.087" lon="-1.73888">
        <ele>441.888</ele>
        <time>2020-05-15T12:38:59Z</time>
      </trkpt>
      <trkpt lat="43.08699" lon="-1.73891">
        <ele>441.868</ele>
        <time>2020-05-15T12:39:19Z</time>
      </trkpt>
      <trkpt lat="43.08699" lon="-1.73895">
        <ele>441.865</ele>
        <time>2020-05-15T12:39:39Z</time>
      </trkpt>
      <trkpt lat="43.08698" lon="-1.73897">
        <ele>441.877</ele>
        <time>2020-05-15T12:39:59Z</time>
      </trkpt>
      <trkpt lat="43.08697" lon="-1.739">
        <ele>441.753</ele>
        <time>2020-05-15T12:40:19Z</time>
      </trkpt>
      <trkpt lat="43.08696" lon="-1.73902">
        <ele>441.704</ele>
        <time>2020-05-15T12:40:39Z</time>
      </trkpt>
      <trkpt lat="43.08695" lon="-1.73905">
        <ele>441.714</ele>
        <time>2020-05-15T12:40:59Z</time>
      </trkpt>
      <trkpt lat="43.08694" lon="-1.73908">
        <ele>441.708</ele>
        <time>2020-05-15T12:41:19Z</time>
      </trkpt>
      <trkpt lat="43.08689" lon="-1.73918">
        <ele>441.729</ele>
        <time>2020-05-15T12:41:39Z</time>
      </trkpt>
      <trkpt lat="43.08686" lon="-1.73923">
        <ele>441.084</ele>
        <time>2020-05-15T12:41:59Z</time>
      </trkpt>
      <trkpt lat="43.08673" lon="-1.73946">
        <ele>441.838</ele>
        <time>2020-05-15T12:42:19Z</time>
      </trkpt>
      <trkpt lat="43.08659" lon="-1.73969">
        <ele>442.496</ele>
        <time>2020-05-15T12:42:39Z</time>
      </trkpt>
      <trkpt lat="43.08657" lon="-1.73973">
        <ele>442.741</ele>
        <time>2020-05-15T12:42:59Z</time>
      </trkpt>
      <trkpt lat="43.08655" lon="-1.73977">
        <ele>442.711</ele>
        <time>2020-05-15T12:43:19Z</time>
      </trkpt>
      <trkpt lat="43.08655" lon="-1.73979">
        <ele>442.818</ele>
        <time>2020-05-15T12:43:39Z</time>
      </trkpt>
      <trkpt lat="43.08653" lon="-1.73982">
        <ele>442.91</ele>
        <time>2020-05-15T12:43:59Z</time>
      </trkpt>
      <trkpt lat="43.08651" lon="-1.7399">
        <ele>443.053</ele>
        <time>2020-05-15T12:44:19Z</time>
      </trkpt>
      <trkpt lat="43.08648" lon="-1.73997">
        <ele>443.504</ele>
        <time>2020-05-15T12:44:39Z</time>
      </trkpt>
      <trkpt lat="43.08646" lon="-1.74005">
        <ele>443.514</ele>
        <time>2020-05-15T12:44:59Z</time>
      </trkpt>
      <trkpt lat="43.08644" lon="-1.74014">
        <ele>443.808</ele>
        <time>2020-05-15T12:45:19Z</time>
      </trkpt>
      <trkpt lat="43.08643" lon="-1.74017">
        <ele>443.879</ele>
        <time>2020-05-15T12:45:39Z</time>
      </trkpt>
      <trkpt lat="43.08643" lon="-1.7402">
        <ele>443.874</ele>
        <time>2020-05-15T12:45:59Z</time>
      </trkpt>
      <trkpt lat="43.08642" lon="-1.74023">
        <ele>443.978</ele>
        <time>2020-05-15T12:46:19Z</time>
      </trkpt>
      <trkpt lat="43.08642" lon="-1.74026">
        <ele>443.936</ele>
        <time>2020-05-15T12:46:39Z</time>
      </trkpt>
      <trkpt lat="43.08642" lon="-1.7403">
        <ele>443.931</ele>
        <time>2020-05-15T12:46:59Z</time>
      </trkpt>
      <trkpt lat="43.08642" lon="-1.74035">
        <ele>444.031</ele>
        <time>2020-05-15T12:47:19Z</time>
      </trkpt>
      <trkpt lat="43.08642" lon="-1.74041">
        <ele>444.018</ele>
        <time>2020-05-15T12:47:39Z</time>
      </trkpt>
      <trkpt lat="43.08643" lon="-1.74047">
        <ele>444.02</ele>
        <time>2020-05-15T12:47:59Z</time>
      </trkpt>
      <trkpt lat="43.08644" lon="-1.74053">
        <ele>444.085</ele>
        <time>2020-05-15T12:48:19Z</time>
      </trkpt>
      <trkpt lat="43.08644" lon="-1.74056">
        <ele>444.089</ele>
        <time>2020-05-15T12:48:39Z</time>
      </trkpt>
      <trkpt lat="43.08645" lon="-1.74063">
        <ele>444.017</ele>
        <time>2020-05-15T12:48:59Z</time>
      </trkpt>
      <trkpt lat="43.08646" lon="-1.74068">
        <ele>444.008</ele>
        <time>2020-05-15T12:49:19Z</time>
      </trkpt>
      <trkpt lat="43.08647" lon="-1.74071">
        <ele>444.032</ele>
        <time>2020-05-15T12:49:39Z</time>
      </trkpt>
      <trkpt lat="43.0865" lon="-1.74087">
        <ele>444.067</ele>
        <time>2020-05-15T12:49:59Z</time>
      </trkpt>
      <trkpt lat="43.08651" lon="-1.74092">
        <ele>443.811</ele>
        <time>2020-05-15T12:50:19Z</time>
      </trkpt>
      <trkpt lat="43.08655" lon="-1.74113">
        <ele>444.459</ele>
        <time>2020-05-15T12:50:39Z</time>
      </trkpt>
      <trkpt lat="43.08655" lon="-1.74115">
        <ele>444.484</ele>
        <time>2020-05-15T12:50:59Z</time>
      </trkpt>
      <trkpt lat="43.08658" lon="-1.74127">
        <ele>444.514</ele>
        <time>2020-05-15T12:51:19Z</time>
      </trkpt>
      <trkpt lat="43.0866" lon="-1.74135">
        <ele>444.691</ele>
        <time>2020-05-15T12:51:39Z</time>
      </trkpt>
      <trkpt lat="43.08661" lon="-1.74141">
        <ele>444.893</ele>
        <time>2020-05-15T12:51:59Z</time>
      </trkpt>
      <trkpt lat="43.08664" lon="-1.74152">
        <ele>445.015</ele>
        <time>2020-05-15T12:52:19Z</time>
      </trkpt>
      <trkpt lat="43.08667" lon="-1.74164">
        <ele>445.265</ele>
        <time>2020-05-15T12:52:39Z</time>
      </trkpt>
      <trkpt lat="43.0867" lon="-1.74178">
        <ele>445.211</ele>
        <time>2020-05-15T12:52:59Z</time>
      </trkpt>
      <trkpt lat="43.08673" lon="-1.74193">
        <ele>445.208</ele>
        <time>2020-05-15T12:53:19Z</time>
      </trkpt>
      <trkpt lat="43.08674" lon="-1.74197">
        <ele>445.385</ele>
        <time>2020-05-15T12:53:39Z</time>
      </trkpt>
      <trkpt lat="43.08675" lon="-1.74203">
        <ele>445.26</ele>
        <time>2020-05-15T12:53:59Z</time>
      </trkpt>
      <trkpt lat="43.08675" lon="-1.74205">
        <ele>445.034</ele>
        <time>2020-05-15T12:54:19Z</time>
      </trkpt>
      <trkpt lat="43.08675" lon="-1.74208">
        <ele>445.092</ele>
        <time>2020-05-15T12:54:39Z</time>
      </trkpt>
      <trkpt lat="43.08675" lon="-1.74212">
        <ele>444.627</ele>
        <time>2020-05-15T12:54:59Z</time>
      </trkpt>
      <trkpt lat="43.08675" lon="-1.74217">
        <ele>444.657</ele>
        <time>2020-05-15T12:55:19Z</time>
      </trkpt>
      <trkpt lat="43.08675" lon="-1.74219">
        <ele>444.214</ele>
        <time>2020-05-15T12:55:39Z</time>
      </trkpt>
      <trkpt lat="43.08675" lon="-1.74227">
        <ele>443.996</ele>
        <time>2020-05-15T12:55:59Z</time>
      </trkpt>
      <trkpt lat="43.08675" lon="-1.74234">
        <ele>443.487</ele>
        <time>2020-05-15T12:56:19Z</time>
      </trkpt>
      <trkpt lat="43.08674" lon="-1.7424">
        <ele>442.642</ele>
        <time>2020-05-15T12:56:39Z</time>
      </trkpt>
      <trkpt lat="43.08674" lon="-1.74248">
        <ele>441.926</ele>
        <time>2020-05-15T12:56:59Z</time>
      </trkpt>
      <trkpt lat="43.08673" lon="-1.74256">
        <ele>441.608</ele>
        <time>2020-05-15T12:57:19Z</time>
      </trkpt>
      <trkpt lat="43.08673" lon="-1.74259">
        <ele>441.612</ele>
        <time>2020-05-15T12:57:39Z</time>
      </trkpt>
      <trkpt lat="43.08673" lon="-1.74261">
        <ele>441.077</ele>
        <time>2020-05-15T12:57:59Z</time>
      </trkpt>
      <trkpt lat="43.08673" lon="-1.74264">
        <ele>441.071</ele>
        <time>2020-05-15T12:58:19Z</time>
      </trkpt>
      <trkpt lat="43.08674" lon="-1.74267">
        <ele>440.739</ele>
        <time>2020-05-15T12:58:39Z</time>
      </trkpt>
      <trkpt lat="43.08674" lon="-1.7427">
        <ele>440.754</ele>
        <time>2020-05-15T12:58:59Z</time>
      </trkpt>
      <trkpt lat="43.08675" lon="-1.74273">
        <ele>440.344</ele>
        <time>2020-05-15T12:59:19Z</time>
      </trkpt>
      <trkpt lat="43.08676" lon="-1.74278">
        <ele>440.011</ele>
        <time>2020-05-15T12:59:39Z</time>
      </trkpt>
      <trkpt lat="43.08678" lon="-1.74284">
        <ele>440.043</ele>
        <time>2020-05-15T12:59:59Z</time>
      </trkpt>
      <trkpt lat="43.08682" lon="-1.74294">
        <ele>439.065</ele>
        <time>2020-05-15T13:00:19Z</time>
      </trkpt>
      <trkpt lat="43.08684" lon="-1.74301">
        <ele>438.768</ele>
        <time>2020-05-15T13:00:39Z</time>
      </trkpt>
      <trkpt lat="43.08691" lon="-1.74318">
        <ele>437.814</ele>
        <time>2020-05-15T13:00:59Z</time>
      </trkpt>
      <trkpt lat="43.08691" lon="-1.74321">
        <ele>437.808</ele>
        <time>2020-05-15T13:01:19Z</time>
      </trkpt>
      <trkpt lat="43.08692" lon="-1.74324">
        <ele>437.65</ele>
        <time>2020-05-15T13:01:39Z</time>
      </trkpt>
      <trkpt lat="43.08694" lon="-1.74333">
        <ele>437.475</ele>
        <time>2020-05-15T13:01:59Z</time>
      </trkpt>
      <trkpt lat="43.08695" lon="-1.74342">
        <ele>436.659</ele>
        <time>2020-05-15T13:02:19Z</time>
      </trkpt>
      <trkpt lat="43.08696" lon="-1.74348">
        <ele>436.367</ele>
        <time>2020-05-15T13:02:39Z</time>
      </trkpt>
      <trkpt lat="43.08697" lon="-1.74355">
        <ele>436.192</ele>
        <time>2020-05-15T13:02:59Z</time>
      </trkpt>
      <trkpt lat="43.08699" lon="-1.74371">
        <ele>435.192</ele>
        <time>2020-05-15T13:03:19Z</time>
      </trkpt>
      <trkpt lat="43.08701" lon="-1.74388">
        <ele>434.399</ele>
        <time>2020-05-15T13:03:39Z</time>
      </trkpt>
      <trkpt lat="43.08703" lon="-1.74405">
        <ele>433.411</ele>
        <time>2020-05-15T13:03:59Z</time>
      </trkpt>
      <trkpt lat="43.08705" lon="-1.74421">
        <ele>432.595</ele>
        <time>2020-05-15T13:04:19Z</time>
      </trkpt>
      <trkpt lat="43.08706" lon="-1.74429">
        <ele>432.349</ele>
        <time>2020-05-15T13:04:39Z</time>
      </trkpt>
      <trkpt lat="43.08708" lon="-1.74441">
        <ele>431.823</ele>
        <time>2020-05-15T13:04:59Z</time>
      </trkpt>
      <trkpt lat="43.08709" lon="-1.74446">
        <ele>431.208</ele>
        <time>2020-05-15T13:05:19Z</time>
      </trkpt>
      <trkpt lat="43.0871" lon="-1.74449">
        <ele>431.233</ele>
        <time>2020-05-15T13:05:39Z</time>
      </trkpt>
      <trkpt lat="43.0871" lon="-1.7445">
        <ele>431.118</ele>
        <time>2020-05-15T13:05:59Z</time>
      </trkpt>
      <trkpt lat="43.08712" lon="-1.74453">
        <ele>431.162</ele>
        <time>2020-05-15T13:06:19Z</time>
      </trkpt>
      <trkpt lat="43.08713" lon="-1.74458">
        <ele>430.76</ele>
        <time>2020-05-15T13:06:39Z</time>
      </trkpt>
      <trkpt lat="43.08715" lon="-1.74461">
        <ele>430.715</ele>
        <time>2020-05-15T13:06:59Z</time>
      </trkpt>
      <trkpt lat="43.08716" lon="-1.74463">
        <ele>430.695</ele>
        <time>2020-05-15T13:07:19Z</time>
      </trkpt>
      <trkpt lat="43.08719" lon="-1.74468">
        <ele>430.492</ele>
        <time>2020-05-15T13:07:39Z</time>
      </trkpt>
      <trkpt lat="43.0872" lon="-1.7447">
        <ele>430.414</ele>
        <time>2020-05-15T13:07:59Z</time>
      </trkpt>
      <trkpt lat="43.08722" lon="-1.74473">
        <ele>430.263</ele>
        <time>2020-05-15T13:08:19Z</time>
      </trkpt>
      <trkpt lat="43.08724" lon="-1.74474">
        <ele>430.244</ele>
        <time>2020-05-15T13:08:39Z</time>
      </trkpt>
      <trkpt lat="43.08726" lon="-1.74477">
        <ele>430.218</ele>
        <time>2020-05-15T13:08:59Z</time>
      </trkpt>
      <trkpt lat="43.08729" lon="-1.74479">
        <ele>429.908</ele>
        <time>2020-05-15T13:09:19Z</time>
      </trkpt>
      <trkpt lat="43.08731" lon="-1.74481">
        <ele>429.79</ele>
        <time>2020-05-15T13:09:39Z</time>
      </trkpt>
      <trkpt lat="43.08735" lon="-1.74484">
        <ele>429.665</ele>
        <time>2020-05-15T13:09:59Z</time>
      </trkpt>
      <trkpt lat="43.08738" lon="-1.74486">
        <ele>429.439</ele>
        <time>2020-05-15T13:10:19Z</time>
      </trkpt>
      <trkpt lat="43.0874" lon="-1.74489">
        <ele>429.447</ele>
        <time>2020-05-15T13:10:39Z</time>
      </trkpt>
      <trkpt lat="43.08742" lon="-1.74491">
        <ele>429.452</ele>
        <time>2020-05-15T13:10:59Z</time>
      </trkpt>
      <trkpt lat="43.08743" lon="-1.74492">
        <ele>429.212</ele>
        <time>2020-05-15T13:11:19Z</time>
      </trkpt>
      <trkpt lat="43.08743" lon="-1.74494">
        <ele>429.239</ele>
        <time>2020-05-15T13:11:39Z</time>
      </trkpt>
      <trkpt lat="43.08744" lon="-1.74495">
        <ele>429.231</ele>
        <time>2020-05-15T13:11:59Z</time>
      </trkpt>
      <trkpt lat="43.08744" lon="-1.74497">
        <ele>429.227</ele>
        <time>2020-05-15T13:12:19Z</time>
      </trkpt>
      <trkpt lat="43.08745" lon="-1.74498">
        <ele>428.868</ele>
        <time>2020-05-15T13:12:39Z</time>
      </trkpt>
      <trkpt lat="43.08745" lon="-1.74501">
        <ele>429.214</ele>
        <time>2020-05-15T13:12:59Z</time>
      </trkpt>
      <trkpt lat="43.08745" lon="-1.74502">
        <ele>428.808</ele>
        <time>2020-05-15T13:13:19Z</time>
      </trkpt>
      <trkpt lat="43.08744" lon="-1.74505">
        <ele>428.466</ele>
        <time>2020-05-15T13:13:39Z</time>
      </trkpt>
      <trkpt lat="43.08744" lon="-1.74507">
        <ele>428.491</ele>
        <time>2020-05-15T13:13:59Z</time>
      </trkpt>
      <trkpt lat="43.08743" lon="-1.74508">
        <ele>428.445</ele>
        <time>2020-05-15T13:14:19Z</time>
      </trkpt>
      <trkpt lat="43.08742" lon="-1.74509">
        <ele>428.413</ele>
        <time>2020-05-15T13:14:39Z</time>
      </trkpt>
      <trkpt lat="43.0874" lon="-1.74509">
        <ele>428.138</ele>
        <time>2020-05-15T13:14:59Z</time>
      </trkpt>
      <trkpt lat="43.08739" lon="-1.74509">
        <ele>428.128</ele>
        <time>2020-05-15T13:15:19Z</time>
      </trkpt>
      <trkpt lat="43.08737" lon="-1.74509">
        <ele>428.165</ele>
        <time>2020-05-15T13:15:39Z</time>
      </trkpt>
      <trkpt lat="43.08735" lon="-1.74508">
        <ele>427.867</ele>
        <time>2020-05-15T13:15:59Z</time>
      </trkpt>
      <trkpt lat="43.08734" lon="-1.74508">
        <ele>427.816</ele>
        <time>2020-05-15T13:16:19Z</time>
      </trkpt>
      <trkpt lat="43.08733" lon="-1.74507">
        <ele>427.876</ele>
        <time>2020-05-15T13:16:39Z</time>
      </trkpt>
      <trkpt lat="43.08726" lon="-1.74501">
        <ele>426.513</ele>
        <time>2020-05-15T13:16:59Z</time>
      </trkpt>
      <trkpt lat="43.08721" lon="-1.74497">
        <ele>426.008</ele>
        <time>2020-05-15T13:17:19Z</time>
      </trkpt>
      <trkpt lat="43.08711" lon="-1.74488">
        <ele>425.345</ele>
        <time>2020-05-15T13:17:39Z</time>
      </trkpt>
      <trkpt lat="43.087" lon="-1.74478">
        <ele>423.86</ele>
        <time>2020-05-15T13:17:59Z</time>
      </trkpt>
      <trkpt lat="43.08695" lon="-1.74472">
        <ele>423.294</ele>
        <time>2020-05-15T13:18:19Z</time>
      </trkpt>
      <trkpt lat="43.0869" lon="-1.74466">
        <ele>422.342</ele>
        <time>2020-05-15T13:18:39Z</time>
      </trkpt>
      <trkpt lat="43.08688" lon="-1.74464">
        <ele>422.357</ele>
        <time>2020-05-15T13:18:59Z</time>
      </trkpt>
      <trkpt lat="43.08685" lon="-1.74462">
        <ele>422.037</ele>
        <time>2020-05-15T13:19:19Z</time>
      </trkpt>
      <trkpt lat="43.08683" lon="-1.74461">
        <ele>422.034</ele>
        <time>2020-05-15T13:19:39Z</time>
      </trkpt>
      <trkpt lat="43.08683" lon="-1.7446">
        <ele>422.066</ele>
        <time>2020-05-15T13:19:59Z</time>
      </trkpt>
      <trkpt lat="43.08682" lon="-1.7446">
        <ele>422.057</ele>
        <time>2020-05-15T13:20:19Z</time>
      </trkpt>
      <trkpt lat="43.0868" lon="-1.74459">
        <ele>421.7</ele>
        <time>2020-05-15T13:20:39Z</time>
      </trkpt>
      <trkpt lat="43.08677" lon="-1.74458">
        <ele>421.72</ele>
        <time>2020-05-15T13:20:59Z</time>
      </trkpt>
      <trkpt lat="43.08675" lon="-1.74458">
        <ele>421.508</ele>
        <time>2020-05-15T13:21:19Z</time>
      </trkpt>
      <trkpt lat="43.08673" lon="-1.74459">
        <ele>421.529</ele>
        <time>2020-05-15T13:21:39Z</time>
      </trkpt>
      <trkpt lat="43.0867" lon="-1.74459">
        <ele>421.334</ele>
        <time>2020-05-15T13:21:59Z</time>
      </trkpt>
      <trkpt lat="43.08668" lon="-1.7446">
        <ele>421.328</ele>
        <time>2020-05-15T13:22:19Z</time>
      </trkpt>
      <trkpt lat="43.08666" lon="-1.74461">
        <ele>421.426</ele>
        <time>2020-05-15T13:22:39Z</time>
      </trkpt>
      <trkpt lat="43.08664" lon="-1.74463">
        <ele>421.181</ele>
        <time>2020-05-15T13:22:59Z</time>
      </trkpt>
      <trkpt lat="43.08661" lon="-1.74466">
        <ele>421.291</ele>
        <time>2020-05-15T13:23:19Z</time>
      </trkpt>
      <trkpt lat="43.08658" lon="-1.74469">
        <ele>421.378</ele>
        <time>2020-05-15T13:23:39Z</time>
      </trkpt>
      <trkpt lat="43.08656" lon="-1.74473">
        <ele>421.13</ele>
        <time>2020-05-15T13:23:59Z</time>
      </trkpt>
      <trkpt lat="43.08654" lon="-1.74476">
        <ele>421.025</ele>
        <time>2020-05-15T13:24:19Z</time>
      </trkpt>
      <trkpt lat="43.0865" lon="-1.74484">
        <ele>421.426</ele>
        <time>2020-05-15T13:24:39Z</time>
      </trkpt>
      <trkpt lat="43.08645" lon="-1.74495">
        <ele>421.908</ele>
        <time>2020-05-15T13:24:59Z</time>
      </trkpt>
      <trkpt lat="43.0864" lon="-1.74508">
        <ele>422.308</ele>
        <time>2020-05-15T13:25:19Z</time>
      </trkpt>
      <trkpt lat="43.08635" lon="-1.74517">
        <ele>422.926</ele>
        <time>2020-05-15T13:25:39Z</time>
      </trkpt>
      <trkpt lat="43.08632" lon="-1.74524">
        <ele>423.971</ele>
        <time>2020-05-15T13:25:59Z</time>
      </trkpt>
      <trkpt lat="43.0863" lon="-1.7453">
        <ele>423.325</ele>
        <time>2020-05-15T13:26:19Z</time>
      </trkpt>
      <trkpt lat="43.08628" lon="-1.74533">
        <ele>423.563</ele>
        <time>2020-05-15T13:26:39Z</time>
      </trkpt>
      <trkpt lat="43.08626" lon="-1.74537">
        <ele>423.678</ele>
        <time>2020-05-15T13:26:59Z</time>
      </trkpt>
      <trkpt lat="43.08623" lon="-1.74542">
        <ele>423.678</ele>
        <time>2020-05-15T13:27:19Z</time>
      </trkpt>
      <trkpt lat="43.08621" lon="-1.74545">
        <ele>424.325</ele>
        <time>2020-05-15T13:27:39Z</time>
      </trkpt>
      <trkpt lat="43.08617" lon="-1.74548">
        <ele>423.587</ele>
        <time>2020-05-15T13:27:59Z</time>
      </trkpt>
      <trkpt lat="43.08614" lon="-1.74552">
        <ele>423.565</ele>
        <time>2020-05-15T13:28:19Z</time>
      </trkpt>
      <trkpt lat="43.08602" lon="-1.74562">
        <ele>423.468</ele>
        <time>2020-05-15T13:28:39Z</time>
      </trkpt>
      <trkpt lat="43.0859" lon="-1.74573">
        <ele>423.414</ele>
        <time>2020-05-15T13:28:59Z</time>
      </trkpt>
      <trkpt lat="43.08586" lon="-1.74578">
        <ele>423.408</ele>
        <time>2020-05-15T13:29:19Z</time>
      </trkpt>
      <trkpt lat="43.08582" lon="-1.74582">
        <ele>423.51</ele>
        <time>2020-05-15T13:29:39Z</time>
      </trkpt>
      <trkpt lat="43.08576" lon="-1.74589">
        <ele>423.555</ele>
        <time>2020-05-15T13:29:59Z</time>
      </trkpt>
      <trkpt lat="43.0857" lon="-1.74596">
        <ele>423.779</ele>
        <time>2020-05-15T13:30:19Z</time>
      </trkpt>
      <trkpt lat="43.08567" lon="-1.74599">
        <ele>423.727</ele>
        <time>2020-05-15T13:30:39Z</time>
      </trkpt>
      <trkpt lat="43.08565" lon="-1.74603">
        <ele>424.052</ele>
        <time>2020-05-15T13:30:59Z</time>
      </trkpt>
      <trkpt lat="43.08563" lon="-1.74605">
        <ele>424.012</ele>
        <time>2020-05-15T13:31:19Z</time>
      </trkpt>
      <trkpt lat="43.08562" lon="-1.74608">
        <ele>423.789</ele>
        <time>2020-05-15T13:31:39Z</time>
      </trkpt>
      <trkpt lat="43.08561" lon="-1.74609">
        <ele>424.171</ele>
        <time>2020-05-15T13:31:59Z</time>
      </trkpt>
      <trkpt lat="43.0856" lon="-1.74613">
        <ele>424.097</ele>
        <time>2020-05-15T13:32:19Z</time>
      </trkpt>
      <trkpt lat="43.08559" lon="-1.74614">
        <ele>424.023</ele>
        <time>2020-05-15T13:32:39Z</time>
      </trkpt>
      <trkpt lat="43.08559" lon="-1.74617">
        <ele>424.025</ele>
        <time>2020-05-15T13:32:59Z</time>
      </trkpt>
      <trkpt lat="43.08558" lon="-1.74619">
        <ele>424.108</ele>
        <time>2020-05-15T13:33:19Z</time>
      </trkpt>
      <trkpt lat="43.08558" lon="-1.74623">
        <ele>424.193</ele>
        <time>2020-05-15T13:33:39Z</time>
      </trkpt>
      <trkpt lat="43.08558" lon="-1.74626">
        <ele>424.268</ele>
        <time>2020-05-15T13:33:59Z</time>
      </trkpt>
      <trkpt lat="43.08559" lon="-1.74629">
        <ele>424.232</ele>
        <time>2020-05-15T13:34:19Z</time>
      </trkpt>
      <trkpt lat="43.08559" lon="-1.74632">
        <ele>424.64</ele>
        <time>2020-05-15T13:34:39Z</time>
      </trkpt>
      <trkpt lat="43.0856" lon="-1.74635">
        <ele>424.655</ele>
        <time>2020-05-15T13:34:59Z</time>
      </trkpt>
      <trkpt lat="43.0856" lon="-1.74637">
        <ele>424.825</ele>
        <time>2020-05-15T13:35:19Z</time>
      </trkpt>
      <trkpt lat="43.08562" lon="-1.74641">
        <ele>424.972</ele>
        <time>2020-05-15T13:35:39Z</time>
      </trkpt>
      <trkpt lat="43.08565" lon="-1.7465">
        <ele>425.434</ele>
        <time>2020-05-15T13:35:59Z</time>
      </trkpt>
      <trkpt lat="43.08566" lon="-1.74654">
        <ele>425.475</ele>
        <time>2020-05-15T13:36:19Z</time>
      </trkpt>
      <trkpt lat="43.08567" lon="-1.74657">
        <ele>425.928</ele>
        <time>2020-05-15T13:36:39Z</time>
      </trkpt>
      <trkpt lat="43.08568" lon="-1.74661">
        <ele>425.92</ele>
        <time>2020-05-15T13:36:59Z</time>
      </trkpt>
      <trkpt lat="43.08569" lon="-1.74664">
        <ele>426.108</ele>
        <time>2020-05-15T13:37:19Z</time>
      </trkpt>
      <trkpt lat="43.08569" lon="-1.74667">
        <ele>426.111</ele>
        <time>2020-05-15T13:37:39Z</time>
      </trkpt>
      <trkpt lat="43.0857" lon="-1.7467">
        <ele>426.326</ele>
        <time>2020-05-15T13:37:59Z</time>
      </trkpt>
      <trkpt lat="43.0857" lon="-1.74673">
        <ele>426.37</ele>
        <time>2020-05-15T13:38:19Z</time>
      </trkpt>
      <trkpt lat="43.08571" lon="-1.74685">
        <ele>427.138</ele>
        <time>2020-05-15T13:38:39Z</time>
      </trkpt>
      <trkpt lat="43.08572" lon="-1.74696">
        <ele>427.793</ele>
        <time>2020-05-15T13:38:59Z</time>
      </trkpt>
      <trkpt lat="43.08572" lon="-1.74705">
        <ele>428.673</ele>
        <time>2020-05-15T13:39:19Z</time>
      </trkpt>
      <trkpt lat="43.08573" lon="-1.74714">
        <ele>428.93</ele>
        <time>2020-05-15T13:39:39Z</time>
      </trkpt>
      <trkpt lat="43.08574" lon="-1.74719">
        <ele>429.222</ele>
        <time>2020-05-15T13:39:59Z</time>
      </trkpt>
      <trkpt lat="43.08575" lon="-1.74726">
        <ele>429.454</ele>
        <time>2020-05-15T13:40:19Z</time>
      </trkpt>
      <trkpt lat="43.08577" lon="-1.74733">
        <ele>429.856</ele>
        <time>2020-05-15T13:40:39Z</time>
      </trkpt>
      <trkpt lat="43.08579" lon="-1.74738">
        <ele>429.911</ele>
        <time>2020-05-15T13:40:59Z</time>
      </trkpt>
      <trkpt lat="43.0858" lon="-1.74743">
        <ele>430.008</ele>
        <time>2020-05-15T13:41:19Z</time>
      </trkpt>
      <trkpt lat="43.08581" lon="-1.74748">
        <ele>430.249</ele>
        <time>2020-05-15T13:41:39Z</time>
      </trkpt>
      <trkpt lat="43.08582" lon="-1.74752">
        <ele>430.234</ele>
        <time>2020-05-15T13:41:59Z</time>
      </trkpt>
      <trkpt lat="43.08582" lon="-1.74755">
        <ele>430.458</ele>
        <time>2020-05-15T13:42:19Z</time>
      </trkpt>
      <trkpt lat="43.08582" lon="-1.74761">
        <ele>430.466</ele>
        <time>2020-05-15T13:42:39Z</time>
      </trkpt>
      <trkpt lat="43.08582" lon="-1.74766">
        <ele>430.471</ele>
        <time>2020-05-15T13:42:59Z</time>
      </trkpt>
      <trkpt lat="43.08582" lon="-1.74771">
        <ele>430.421</ele>
        <time>2020-05-15T13:43:19Z</time>
      </trkpt>
      <trkpt lat="43.08581" lon="-1.7478">
        <ele>430.548</ele>
        <time>2020-05-15T13:43:39Z</time>
      </trkpt>
      <trkpt lat="43.0858" lon="-1.74788">
        <ele>430.23</ele>
        <time>2020-05-15T13:43:59Z</time>
      </trkpt>
      <trkpt lat="43.08579" lon="-1.74795">
        <ele>430.131</ele>
        <time>2020-05-15T13:44:19Z</time>
      </trkpt>
      <trkpt lat="43.08577" lon="-1.74804">
        <ele>430.261</ele>
        <time>2020-05-15T13:44:39Z</time>
      </trkpt>
      <trkpt lat="43.08576" lon="-1.7481">
        <ele>429.407</ele>
        <time>2020-05-15T13:44:59Z</time>
      </trkpt>
      <trkpt lat="43.08575" lon="-1.74814">
        <ele>429.408</ele>
        <time>2020-05-15T13:45:19Z</time>
      </trkpt>
      <trkpt lat="43.08574" lon="-1.7482">
        <ele>429.287</ele>
        <time>2020-05-15T13:45:39Z</time>
      </trkpt>
      <trkpt lat="43.08572" lon="-1.74829">
        <ele>428.722</ele>
        <time>2020-05-15T13:45:59Z</time>
      </trkpt>
      <trkpt lat="43.0857" lon="-1.74836">
        <ele>428.686</ele>
        <time>2020-05-15T13:46:19Z</time>
      </trkpt>
      <trkpt lat="43.08566" lon="-1.74847">
        <ele>428.024</ele>
        <time>2020-05-15T13:46:39Z</time>
      </trkpt>
      <trkpt lat="43.08559" lon="-1.74867">
        <ele>427.279</ele>
        <time>2020-05-15T13:46:59Z</time>
      </trkpt>
      <trkpt lat="43.0855" lon="-1.74897">
        <ele>425.889</ele>
        <time>2020-05-15T13:47:19Z</time>
      </trkpt>
      <trkpt lat="43.08549" lon="-1.749">
        <ele>425.816</ele>
        <time>2020-05-15T13:47:39Z</time>
      </trkpt>
      <trkpt lat="43.08549" lon="-1.74903">
        <ele>425.348</ele>
        <time>2020-05-15T13:47:59Z</time>
      </trkpt>
      <trkpt lat="43.08549" lon="-1.74907">
        <ele>425.368</ele>
        <time>2020-05-15T13:48:19Z</time>
      </trkpt>
      <trkpt lat="43.08549" lon="-1.7491">
        <ele>425.242</ele>
        <time>2020-05-15T13:48:39Z</time>
      </trkpt>
      <trkpt lat="43.08549" lon="-1.74912">
        <ele>425.226</ele>
        <time>2020-05-15T13:48:59Z</time>
      </trkpt>
      <trkpt lat="43.08549" lon="-1.74914">
        <ele>425.008</ele>
        <time>2020-05-15T13:49:19Z</time>
      </trkpt>
      <trkpt lat="43.0855" lon="-1.74916">
        <ele>425.05</ele>
        <time>2020-05-15T13:49:39Z</time>
      </trkpt>
      <trkpt lat="43.0855" lon="-1.74917">
        <ele>425.075</ele>
        <time>2020-05-15T13:49:59Z</time>
      </trkpt>
      <trkpt lat="43.08551" lon="-1.7492">
        <ele>424.179</ele>
        <time>2020-05-15T13:50:19Z</time>
      </trkpt>
      <trkpt lat="43.08552" lon="-1.74922">
        <ele>424.357</ele>
        <time>2020-05-15T13:50:39Z</time>
      </trkpt>
      <trkpt lat="43.08555" lon="-1.74928">
        <ele>424.182</ele>
        <time>2020-05-15T13:50:59Z</time>
      </trkpt>
      <trkpt lat="43.08558" lon="-1.74934">
        <ele>423.912</ele>
        <time>2020-05-15T13:51:19Z</time>
      </trkpt>
      <trkpt lat="43.08563" lon="-1.74945">
        <ele>423.569</ele>
        <time>2020-05-15T13:51:39Z</time>
      </trkpt>
      <trkpt lat="43.08565" lon="-1.74947">
        <ele>423.541</ele>
        <time>2020-05-15T13:51:59Z</time>
      </trkpt>
      <trkpt lat="43.08567" lon="-1.74952">
        <ele>423.163</ele>
        <time>2020-05-15T13:52:19Z</time>
      </trkpt>
      <trkpt lat="43.08568" lon="-1.74954">
        <ele>423.144</ele>
        <time>2020-05-15T13:52:39Z</time>
      </trkpt>
      <trkpt lat="43.08571" lon="-1.7496">
        <ele>422.618</ele>
        <time>2020-05-15T13:52:59Z</time>
      </trkpt>
      <trkpt lat="43.08572" lon="-1.74964">
        <ele>422.308</ele>
        <time>2020-05-15T13:53:19Z</time>
      </trkpt>
      <trkpt lat="43.08573" lon="-1.74968">
        <ele>422.38</ele>
        <time>2020-05-15T13:53:39Z</time>
      </trkpt>
      <trkpt lat="43.08574" lon="-1.74972">
        <ele>422.155</ele>
        <time>2020-05-15T13:53:59Z</time>
      </trkpt>
      <trkpt lat="43.08575" lon="-1.74976">
        <ele>421.559</ele>
        <time>2020-05-15T13:54:19Z</time>
      </trkpt>
      <trkpt lat="43.08575" lon="-1.74978">
        <ele>421.527</ele>
        <time>2020-05-15T13:54:39Z</time>
      </trkpt>
      <trkpt lat="43.08576" lon="-1.74981">
        <ele>421.352</ele>
        <time>2020-05-15T13:54:59Z</time>
      </trkpt>
      <trkpt lat="43.08575" lon="-1.74987">
        <ele>421.032</ele>
        <time>2020-05-15T13:55:19Z</time>
      </trkpt>
      <trkpt lat="43.08575" lon="-1.74993">
        <ele>420.969</ele>
        <time>2020-05-15T13:55:39Z</time>
      </trkpt>
      <trkpt lat="43.08575" lon="-1.75005">
        <ele>420.541</ele>
        <time>2020-05-15T13:55:59Z</time>
      </trkpt>
      <trkpt lat="43.08575" lon="-1.75011">
        <ele>420.382</ele>
        <time>2020-05-15T13:56:19Z</time>
      </trkpt>
      <trkpt lat="43.08575" lon="-1.75014">
        <ele>420.243</ele>
        <time>2020-05-15T13:56:39Z</time>
      </trkpt>
      <trkpt lat="43.08575" lon="-1.75017">
        <ele>420.217</ele>
        <time>2020-05-15T13:56:59Z</time>
      </trkpt>
      <trkpt lat="43.08575" lon="-1.75028">
        <ele>420.208</ele>
        <time>2020-05-15T13:57:19Z</time>
      </trkpt>
      <trkpt lat="43.08575" lon="-1.75038">
        <ele>420.222</ele>
        <time>2020-05-15T13:57:39Z</time>
      </trkpt>
      <trkpt lat="43.08575" lon="-1.75051">
        <ele>420.317</ele>
        <time>2020-05-15T13:57:59Z</time>
      </trkpt>
      <trkpt lat="43.08575" lon="-1.75068">
        <ele>420.741</ele>
        <time>2020-05-15T13:58:19Z</time>
      </trkpt>
      <trkpt lat="43.08575" lon="-1.75069">
        <ele>420.769</ele>
        <time>2020-05-15T13:58:39Z</time>
      </trkpt>
      <trkpt lat="43.08575" lon="-1.75073">
        <ele>420.764</ele>
        <time>2020-05-15T13:58:59Z</time>
      </trkpt>
      <trkpt lat="43.08576" lon="-1.75076">
        <ele>421.264</ele>
        <time>2020-05-15T13:59:19Z</time>
      </trkpt>
      <trkpt lat="43.08576" lon="-1.75082">
        <ele>421.661</ele>
        <time>2020-05-15T13:59:39Z</time>
      </trkpt>
      <trkpt lat="43.08578" lon="-1.75087">
        <ele>421.973</ele>
        <time>2020-05-15T13:59:59Z</time>
      </trkpt>
      <trkpt lat="43.08579" lon="-1.75093">
        <ele>422.399</ele>
        <time>2020-05-15T14:00:19Z</time>
      </trkpt>
      <trkpt lat="43.08582" lon="-1.75102">
        <ele>423.007</ele>
        <time>2020-05-15T14:00:39Z</time>
      </trkpt>
      <trkpt lat="43.08585" lon="-1.7511">
        <ele>423.627</ele>
        <time>2020-05-15T14:00:59Z</time>
      </trkpt>
      <trkpt lat="43.08594" lon="-1.75133">
        <ele>425.208</ele>
        <time>2020-05-15T14:01:19Z</time>
      </trkpt>
      <trkpt lat="43.08603" lon="-1.75157">
        <ele>426.783</ele>
        <time>2020-05-15T14:01:39Z</time>
      </trkpt>
      <trkpt lat="43.08605" lon="-1.75164">
        <ele>427.188</ele>
        <time>2020-05-15T14:01:59Z</time>
      </trkpt>
      <trkpt lat="43.08608" lon="-1.75174">
        <ele>428.092</ele>
        <time>2020-05-15T14:02:19Z</time>
      </trkpt>
      <trkpt lat="43.0861" lon="-1.75178">
        <ele>428.16</ele>
        <time>2020-05-15T14:02:39Z</time>
      </trkpt>
      <trkpt lat="43.0861" lon="-1.75181">
        <ele>428.145</ele>
        <time>2020-05-15T14:02:59Z</time>
      </trkpt>
      <trkpt lat="43.08611" lon="-1.75185">
        <ele>428.395</ele>
        <time>2020-05-15T14:03:19Z</time>
      </trkpt>
      <trkpt lat="43.08612" lon="-1.7519">
        <ele>428.522</ele>
        <time>2020-05-15T14:03:39Z</time>
      </trkpt>
      <trkpt lat="43.08613" lon="-1.75194">
        <ele>428.594</ele>
        <time>2020-05-15T14:03:59Z</time>
      </trkpt>
      <trkpt lat="43.08613" lon="-1.75199">
        <ele>428.921</ele>
        <time>2020-05-15T14:04:19Z</time>
      </trkpt>
      <trkpt lat="43.08615" lon="-1.75229">
        <ele>430.241</ele>
        <time>2020-05-15T14:04:39Z</time>
      </trkpt>
      <trkpt lat="43.08617" lon="-1.75265">
        <ele>431.905</ele>
        <time>2020-05-15T14:04:59Z</time>
      </trkpt>
      <trkpt lat="43.08618" lon="-1.75273">
        <ele>432.408</ele>
        <time>2020-05-15T14:05:19Z</time>
      </trkpt>
      <trkpt lat="43.08619" lon="-1.7528">
        <ele>432.586</ele>
        <time>2020-05-15T14:05:39Z</time>
      </trkpt>
      <trkpt lat="43.0862" lon="-1.75284">
        <ele>432.771</ele>
        <time>2020-05-15T14:05:59Z</time>
      </trkpt>
      <trkpt lat="43.08621" lon="-1.75289">
        <ele>433.035</ele>
        <time>2020-05-15T14:06:19Z</time>
      </trkpt>
      <trkpt lat="43.08622" lon="-1.75294">
        <ele>433.373</ele>
        <time>2020-05-15T14:06:39Z</time>
      </trkpt>
      <trkpt lat="43.08624" lon="-1.753">
        <ele>433.688</ele>
        <time>2020-05-15T14:06:59Z</time>
      </trkpt>
      <trkpt lat="43.08626" lon="-1.75304">
        <ele>433.618</ele>
        <time>2020-05-15T14:07:19Z</time>
      </trkpt>
      <trkpt lat="43.08632" lon="-1.75317">
        <ele>434.145</ele>
        <time>2020-05-15T14:07:39Z</time>
      </trkpt>
      <trkpt lat="43.08635" lon="-1.75325">
        <ele>434.717</ele>
        <time>2020-05-15T14:07:59Z</time>
      </trkpt>
      <trkpt lat="43.08636" lon="-1.75328">
        <ele>434.787</ele>
        <time>2020-05-15T14:08:19Z</time>
      </trkpt>
      <trkpt lat="43.08638" lon="-1.75333">
        <ele>435.042</ele>
        <time>2020-05-15T14:08:39Z</time>
      </trkpt>
      <trkpt lat="43.08639" lon="-1.75339">
        <ele>435.126</ele>
        <time>2020-05-15T14:08:59Z</time>
      </trkpt>
      <trkpt lat="43.0864" lon="-1.75345">
        <ele>435.408</ele>
        <time>2020-05-15T14:09:19Z</time>
      </trkpt>
      <trkpt lat="43.08641" lon="-1.75357">
        <ele>435.742</ele>
        <time>2020-05-15T14:09:39Z</time>
      </trkpt>
      <trkpt lat="43.08641" lon="-1.75368">
        <ele>436.267</ele>
        <time>2020-05-15T14:09:59Z</time>
      </trkpt>
      <trkpt lat="43.08642" lon="-1.75383">
        <ele>436.611</ele>
        <time>2020-05-15T14:10:19Z</time>
      </trkpt>
      <trkpt lat="43.08643" lon="-1.75403">
        <ele>437.419</ele>
        <time>2020-05-15T14:10:39Z</time>
      </trkpt>
      <trkpt lat="43.08644" lon="-1.75428">
        <ele>438.534</ele>
        <time>2020-05-15T14:10:59Z</time>
      </trkpt>
      <trkpt lat="43.08645" lon="-1.7545">
        <ele>439.414</ele>
        <time>2020-05-15T14:11:19Z</time>
      </trkpt>
      <trkpt lat="43.08645" lon="-1.75456">
        <ele>439.691</ele>
        <time>2020-05-15T14:11:39Z</time>
      </trkpt>
      <trkpt lat="43.08645" lon="-1.75461">
        <ele>439.863</ele>
        <time>2020-05-15T14:11:59Z</time>
      </trkpt>
      <trkpt lat="43.08644" lon="-1.75466">
        <ele>440.424</ele>
        <time>2020-05-15T14:12:19Z</time>
      </trkpt>
      <trkpt lat="43.08644" lon="-1.75472">
        <ele>440.704</ele>
        <time>2020-05-15T14:12:39Z</time>
      </trkpt>
      <trkpt lat="43.08643" lon="-1.75476">
        <ele>440.714</ele>
        <time>2020-05-15T14:12:59Z</time>
      </trkpt>
      <trkpt lat="43.08642" lon="-1.75481">
        <ele>440.808</ele>
        <time>2020-05-15T14:13:19Z</time>
      </trkpt>
      <trkpt lat="43.08639" lon="-1.75493">
        <ele>441.636</ele>
        <time>2020-05-15T14:13:39Z</time>
      </trkpt>
      <trkpt lat="43.08633" lon="-1.75512">
        <ele>442.321</ele>
        <time>2020-05-15T14:13:59Z</time>
      </trkpt>
      <trkpt lat="43.08627" lon="-1.75533">
        <ele>443.745</ele>
        <time>2020-05-15T14:14:19Z</time>
      </trkpt>
      <trkpt lat="43.08623" lon="-1.75547">
        <ele>444.673</ele>
        <time>2020-05-15T14:14:39Z</time>
      </trkpt>
      <trkpt lat="43.08621" lon="-1.75556">
        <ele>445.148</ele>
        <time>2020-05-15T14:14:59Z</time>
      </trkpt>
      <trkpt lat="43.08618" lon="-1.75566">
        <ele>445.988</ele>
        <time>2020-05-15T14:15:19Z</time>
      </trkpt>
      <trkpt lat="43.08616" lon="-1.75579">
        <ele>446.615</ele>
        <time>2020-05-15T14:15:39Z</time>
      </trkpt>
      <trkpt lat="43.08612" lon="-1.75595">
        <ele>447.997</ele>
        <time>2020-05-15T14:15:59Z</time>
      </trkpt>
      <trkpt lat="43.0861" lon="-1.75607">
        <ele>448.635</ele>
        <time>2020-05-15T14:16:19Z</time>
      </trkpt>
      <trkpt lat="43.08608" lon="-1.75615">
        <ele>449.286</ele>
        <time>2020-05-15T14:16:39Z</time>
      </trkpt>
      <trkpt lat="43.08607" lon="-1.75623">
        <ele>449.714</ele>
        <time>2020-05-15T14:16:59Z</time>
      </trkpt>
      <trkpt lat="43.08605" lon="-1.75635">
        <ele>450.308</ele>
        <time>2020-05-15T14:17:19Z</time>
      </trkpt>
      <trkpt lat="43.08606" lon="-1.75639">
        <ele>450.877</ele>
        <time>2020-05-15T14:17:39Z</time>
      </trkpt>
      <trkpt lat="43.08605" lon="-1.75641">
        <ele>450.892</ele>
        <time>2020-05-15T14:17:59Z</time>
      </trkpt>
      <trkpt lat="43.08606" lon="-1.75642">
        <ele>450.816</ele>
        <time>2020-05-15T14:18:19Z</time>
      </trkpt>
      <trkpt lat="43.08606" lon="-1.75646">
        <ele>451.264</ele>
        <time>2020-05-15T14:18:39Z</time>
      </trkpt>
      <trkpt lat="43.08607" lon="-1.75648">
        <ele>451.279</ele>
        <time>2020-05-15T14:18:59Z</time>
      </trkpt>
      <trkpt lat="43.08608" lon="-1.75652">
        <ele>451.599</ele>
        <time>2020-05-15T14:19:19Z</time>
      </trkpt>
      <trkpt lat="43.0861" lon="-1.75654">
        <ele>451.396</ele>
        <time>2020-05-15T14:19:39Z</time>
      </trkpt>
      <trkpt lat="43.08613" lon="-1.75657">
        <ele>451.758</ele>
        <time>2020-05-15T14:19:59Z</time>
      </trkpt>
      <trkpt lat="43.08614" lon="-1.75657">
        <ele>451.652</ele>
        <time>2020-05-15T14:20:19Z</time>
      </trkpt>
      <trkpt lat="43.08615" lon="-1.75658">
        <ele>451.653</ele>
        <time>2020-05-15T14:20:39Z</time>
      </trkpt>
      <trkpt lat="43.08616" lon="-1.75659">
        <ele>451.608</ele>
        <time>2020-05-15T14:20:59Z</time>
      </trkpt>
      <trkpt lat="43.08619" lon="-1.75659">
        <ele>451.808</ele>
        <time>2020-05-15T14:21:19Z</time>
      </trkpt>
      <trkpt lat="43.08621" lon="-1.7566">
        <ele>451.889</ele>
        <time>2020-05-15T14:21:39Z</time>
      </trkpt>
      <trkpt lat="43.08623" lon="-1.75659">
        <ele>452.024</ele>
        <time>2020-05-15T14:21:59Z</time>
      </trkpt>
      <trkpt lat="43.08628" lon="-1.75658">
        <ele>452.378</ele>
        <time>2020-05-15T14:22:19Z</time>
      </trkpt>
      <trkpt lat="43.08632" lon="-1.75657">
        <ele>452.826</ele>
        <time>2020-05-15T14:22:39Z</time>
      </trkpt>
      <trkpt lat="43.08638" lon="-1.75653">
        <ele>453.141</ele>
        <time>2020-05-15T14:22:59Z</time>
      </trkpt>
      <trkpt lat="43.08644" lon="-1.75649">
        <ele>453.411</ele>
        <time>2020-05-15T14:23:19Z</time>
      </trkpt>
      <trkpt lat="43.08651" lon="-1.75643">
        <ele>454.198</ele>
        <time>2020-05-15T14:23:39Z</time>
      </trkpt>
      <trkpt lat="43.08661" lon="-1.75635">
        <ele>455.04</ele>
        <time>2020-05-15T14:23:59Z</time>
      </trkpt>
      <trkpt lat="43.08688" lon="-1.75614">
        <ele>457.546</ele>
        <time>2020-05-15T14:24:19Z</time>
      </trkpt>
      <trkpt lat="43.08711" lon="-1.75595">
        <ele>459.888</ele>
        <time>2020-05-15T14:24:39Z</time>
      </trkpt>
      <trkpt lat="43.08725" lon="-1.75585">
        <ele>461.216</ele>
        <time>2020-05-15T14:24:59Z</time>
      </trkpt>
      <trkpt lat="43.08738" lon="-1.75574">
        <ele>462.208</ele>
        <time>2020-05-15T14:25:19Z</time>
      </trkpt>
      <trkpt lat="43.08741" lon="-1.75573">
        <ele>462.978</ele>
        <time>2020-05-15T14:25:39Z</time>
      </trkpt>
      <trkpt lat="43.08747" lon="-1.75569">
        <ele>463.163</ele>
        <time>2020-05-15T14:25:59Z</time>
      </trkpt>
      <trkpt lat="43.08754" lon="-1.75566">
        <ele>463.827</ele>
        <time>2020-05-15T14:26:19Z</time>
      </trkpt>
      <trkpt lat="43.08757" lon="-1.75566">
        <ele>464.275</ele>
        <time>2020-05-15T14:26:39Z</time>
      </trkpt>
      <trkpt lat="43.0876" lon="-1.75566">
        <ele>464.21</ele>
        <time>2020-05-15T14:26:59Z</time>
      </trkpt>
      <trkpt lat="43.08763" lon="-1.75566">
        <ele>464.47</ele>
        <time>2020-05-15T14:27:19Z</time>
      </trkpt>
      <trkpt lat="43.08773" lon="-1.75567">
        <ele>464.697</ele>
        <time>2020-05-15T14:27:39Z</time>
      </trkpt>
      <trkpt lat="43.08788" lon="-1.75568">
        <ele>466.459</ele>
        <time>2020-05-15T14:27:59Z</time>
      </trkpt>
      <trkpt lat="43.08797" lon="-1.75569">
        <ele>466.884</ele>
        <time>2020-05-15T14:28:19Z</time>
      </trkpt>
      <trkpt lat="43.08802" lon="-1.75569">
        <ele>467.407</ele>
        <time>2020-05-15T14:28:39Z</time>
      </trkpt>
      <trkpt lat="43.08831" lon="-1.75571">
        <ele>469.417</ele>
        <time>2020-05-15T14:28:59Z</time>
      </trkpt>
      <trkpt lat="43.08834" lon="-1.75571">
        <ele>469.608</ele>
        <time>2020-05-15T14:29:19Z</time>
      </trkpt>
      <trkpt lat="43.08838" lon="-1.75572">
        <ele>469.822</ele>
        <time>2020-05-15T14:29:39Z</time>
      </trkpt>
      <trkpt lat="43.0884" lon="-1.75573">
        <ele>469.837</ele>
        <time>2020-05-15T14:29:59Z</time>
      </trkpt>
      <trkpt lat="43.08842" lon="-1.75574">
        <ele>469.881</ele>
        <time>2020-05-15T14:30:19Z</time>
      </trkpt>
      <trkpt lat="43.08844" lon="-1.75575">
        <ele>470.339</ele>
        <time>2020-05-15T14:30:39Z</time>
      </trkpt>
      <trkpt lat="43.08846" lon="-1.75576">
        <ele>470.364</ele>
        <time>2020-05-15T14:30:59Z</time>
      </trkpt>
      <trkpt lat="43.08847" lon="-1.75578">
        <ele>470.774</ele>
        <time>2020-05-15T14:31:19Z</time>
      </trkpt>
      <trkpt lat="43.08849" lon="-1.7558">
        <ele>470.781</ele>
        <time>2020-05-15T14:31:39Z</time>
      </trkpt>
      <trkpt lat="43.0885" lon="-1.75582">
        <ele>470.783</ele>
        <time>2020-05-15T14:31:59Z</time>
      </trkpt>
      <trkpt lat="43.08851" lon="-1.75583">
        <ele>470.728</ele>
        <time>2020-05-15T14:32:19Z</time>
      </trkpt>
      <trkpt lat="43.08853" lon="-1.75586">
        <ele>471.389</ele>
        <time>2020-05-15T14:32:39Z</time>
      </trkpt>
      <trkpt lat="43.08853" lon="-1.75587">
        <ele>471.317</ele>
        <time>2020-05-15T14:32:59Z</time>
      </trkpt>
      <trkpt lat="43.08853" lon="-1.75588">
        <ele>471.308</ele>
        <time>2020-05-15T14:33:19Z</time>
      </trkpt>
      <trkpt lat="43.08855" lon="-1.75592">
        <ele>471.526</ele>
        <time>2020-05-15T14:33:39Z</time>
      </trkpt>
      <trkpt lat="43.08855" lon="-1.75594">
        <ele>471.541</ele>
        <time>2020-05-15T14:33:59Z</time>
      </trkpt>
      <trkpt lat="43.08856" lon="-1.75597">
        <ele>472.145</ele>
        <time>2020-05-15T14:34:19Z</time>
      </trkpt>
      <trkpt lat="43.08856" lon="-1.75601">
        <ele>472.133</ele>
        <time>2020-05-15T14:34:39Z</time>
      </trkpt>
      <trkpt lat="43.08856" lon="-1.75603">
        <ele>472.418</ele>
        <time>2020-05-15T14:34:59Z</time>
      </trkpt>
      <trkpt lat="43.08857" lon="-1.75605">
        <ele>472.498</ele>
        <time>2020-05-15T14:35:19Z</time>
      </trkpt>
      <trkpt lat="43.08857" lon="-1.75609">
        <ele>472.925</ele>
        <time>2020-05-15T14:35:39Z</time>
      </trkpt>
      <trkpt lat="43.08856" lon="-1.75615">
        <ele>473.177</ele>
        <time>2020-05-15T14:35:59Z</time>
      </trkpt>
      <trkpt lat="43.08854" lon="-1.75625">
        <ele>473.463</ele>
        <time>2020-05-15T14:36:19Z</time>
      </trkpt>
      <trkpt lat="43.08852" lon="-1.75635">
        <ele>474.044</ele>
        <time>2020-05-15T14:36:39Z</time>
      </trkpt>
      <trkpt lat="43.08848" lon="-1.75659">
        <ele>475.118</ele>
        <time>2020-05-15T14:36:59Z</time>
      </trkpt>
      <trkpt lat="43.08848" lon="-1.75664">
        <ele>475.308</ele>
        <time>2020-05-15T14:37:19Z</time>
      </trkpt>
      <trkpt lat="43.08847" lon="-1.75669">
        <ele>475.46</ele>
        <time>2020-05-15T14:37:39Z</time>
      </trkpt>
      <trkpt lat="43.08847" lon="-1.75675">
        <ele>475.515</ele>
        <time>2020-05-15T14:37:59Z</time>
      </trkpt>
      <trkpt lat="43.08846" lon="-1.75682">
        <ele>476.149</ele>
        <time>2020-05-15T14:38:19Z</time>
      </trkpt>
      <trkpt lat="43.08846" lon="-1.75692">
        <ele>476.287</ele>
        <time>2020-05-15T14:38:39Z</time>
      </trkpt>
      <trkpt lat="43.08845" lon="-1.75702">
        <ele>476.542</ele>
        <time>2020-05-15T14:38:59Z</time>
      </trkpt>
      <trkpt lat="43.08846" lon="-1.75712">
        <ele>477.052</ele>
        <time>2020-05-15T14:39:19Z</time>
      </trkpt>
      <trkpt lat="43.08846" lon="-1.75732">
        <ele>477.329</ele>
        <time>2020-05-15T14:39:39Z</time>
      </trkpt>
      <trkpt lat="43.08846" lon="-1.7574">
        <ele>477.481</ele>
        <time>2020-05-15T14:39:59Z</time>
      </trkpt>
      <trkpt lat="43.08847" lon="-1.75746">
        <ele>477.466</ele>
        <time>2020-05-15T14:40:19Z</time>
      </trkpt>
      <trkpt lat="43.08847" lon="-1.75751">
        <ele>477.529</ele>
        <time>2020-05-15T14:40:39Z</time>
      </trkpt>
      <trkpt lat="43.08848" lon="-1.75753">
        <ele>477.521</ele>
        <time>2020-05-15T14:40:59Z</time>
      </trkpt>
      <trkpt lat="43.08848" lon="-1.75755">
        <ele>477.508</ele>
        <time>2020-05-15T14:41:19Z</time>
      </trkpt>
      <trkpt lat="43.0885" lon="-1.75759">
        <ele>477.54</ele>
        <time>2020-05-15T14:41:39Z</time>
      </trkpt>
      <trkpt lat="43.08851" lon="-1.75762">
        <ele>477.735</ele>
        <time>2020-05-15T14:41:59Z</time>
      </trkpt>
      <trkpt lat="43.08852" lon="-1.75764">
        <ele>477.719</ele>
        <time>2020-05-15T14:42:19Z</time>
      </trkpt>
      <trkpt lat="43.08853" lon="-1.75766">
        <ele>477.757</ele>
        <time>2020-05-15T14:42:39Z</time>
      </trkpt>
      <trkpt lat="43.08855" lon="-1.75768">
        <ele>477.732</ele>
        <time>2020-05-15T14:42:59Z</time>
      </trkpt>
      <trkpt lat="43.08857" lon="-1.7577">
        <ele>477.792</ele>
        <time>2020-05-15T14:43:19Z</time>
      </trkpt>
      <trkpt lat="43.08859" lon="-1.75772">
        <ele>477.579</ele>
        <time>2020-05-15T14:43:39Z</time>
      </trkpt>
      <trkpt lat="43.08861" lon="-1.75773">
        <ele>477.591</ele>
        <time>2020-05-15T14:43:59Z</time>
      </trkpt>
      <trkpt lat="43.08864" lon="-1.75774">
        <ele>477.626</ele>
        <time>2020-05-15T14:44:19Z</time>
      </trkpt>
      <trkpt lat="43.08866" lon="-1.75775">
        <ele>477.647</ele>
        <time>2020-05-15T14:44:39Z</time>
      </trkpt>
      <trkpt lat="43.08868" lon="-1.75775">
        <ele>477.611</ele>
        <time>2020-05-15T14:44:59Z</time>
      </trkpt>
      <trkpt lat="43.08869" lon="-1.75775">
        <ele>477.608</ele>
        <time>2020-05-15T14:45:19Z</time>
      </trkpt>
      <trkpt lat="43.08871" lon="-1.75775">
        <ele>477.656</ele>
        <time>2020-05-15T14:45:39Z</time>
      </trkpt>
      <trkpt lat="43.08882" lon="-1.75774">
        <ele>477.781</ele>
        <time>2020-05-15T14:45:59Z</time>
      </trkpt>
      <trkpt lat="43.08895" lon="-1.75773">
        <ele>477.815</ele>
        <time>2020-05-15T14:46:19Z</time>
      </trkpt>
      <trkpt lat="43.08897" lon="-1.75773">
        <ele>477.843</ele>
        <time>2020-05-15T14:46:39Z</time>
      </trkpt>
      <trkpt lat="43.08899" lon="-1.75774">
        <ele>478.128</ele>
        <time>2020-05-15T14:46:59Z</time>
      </trkpt>
      <trkpt lat="43.08901" lon="-1.75774">
        <ele>478.148</ele>
        <time>2020-05-15T14:47:19Z</time>
      </trkpt>
      <trkpt lat="43.08903" lon="-1.75775">
        <ele>478.415</ele>
        <time>2020-05-15T14:47:39Z</time>
      </trkpt>
      <trkpt lat="43.08906" lon="-1.75776">
        <ele>478.427</ele>
        <time>2020-05-15T14:47:59Z</time>
      </trkpt>
      <trkpt lat="43.08909" lon="-1.75778">
        <ele>478.553</ele>
        <time>2020-05-15T14:48:19Z</time>
      </trkpt>
      <trkpt lat="43.08912" lon="-1.7578">
        <ele>478.504</ele>
        <time>2020-05-15T14:48:39Z</time>
      </trkpt>
      <trkpt lat="43.08916" lon="-1.75783">
        <ele>478.514</ele>
        <time>2020-05-15T14:48:59Z</time>
      </trkpt>
      <trkpt lat="43.08918" lon="-1.75786">
        <ele>479.008</ele>
        <time>2020-05-15T14:49:19Z</time>
      </trkpt>
      <trkpt lat="43.0892" lon="-1.75788">
        <ele>479.019</ele>
        <time>2020-05-15T14:49:39Z</time>
      </trkpt>
      <trkpt lat="43.08922" lon="-1.75792">
        <ele>479.344</ele>
        <time>2020-05-15T14:49:59Z</time>
      </trkpt>
      <trkpt lat="43.08924" lon="-1.75795">
        <ele>479.378</ele>
        <time>2020-05-15T14:50:19Z</time>
      </trkpt>
      <trkpt lat="43.08926" lon="-1.75797">
        <ele>479.676</ele>
        <time>2020-05-15T14:50:39Z</time>
      </trkpt>
      <trkpt lat="43.08928" lon="-1.75804">
        <ele>479.961</ele>
        <time>2020-05-15T14:50:59Z</time>
      </trkpt>
      <trkpt lat="43.08928" lon="-1.75806">
        <ele>479.961</ele>
        <time>2020-05-15T14:51:19Z</time>
      </trkpt>
      <trkpt lat="43.08929" lon="-1.7581">
        <ele>480.098</ele>
        <time>2020-05-15T14:51:39Z</time>
      </trkpt>
      <trkpt lat="43.08929" lon="-1.75814">
        <ele>480.06</ele>
        <time>2020-05-15T14:51:59Z</time>
      </trkpt>
      <trkpt lat="43.08929" lon="-1.75816">
        <ele>480.212</ele>
        <time>2020-05-15T14:52:19Z</time>
      </trkpt>
      <trkpt lat="43.08929" lon="-1.7582">
        <ele>480.232</ele>
        <time>2020-05-15T14:52:39Z</time>
      </trkpt>
      <trkpt lat="43.08928" lon="-1.75834">
        <ele>481.105</ele>
        <time>2020-05-15T14:52:59Z</time>
      </trkpt>
      <trkpt lat="43.08926" lon="-1.75851">
        <ele>481.408</ele>
        <time>2020-05-15T14:53:19Z</time>
      </trkpt>
      <trkpt lat="43.08926" lon="-1.75857">
        <ele>481.875</ele>
        <time>2020-05-15T14:53:39Z</time>
      </trkpt>
      <trkpt lat="43.08925" lon="-1.75864">
        <ele>482.09</ele>
        <time>2020-05-15T14:53:59Z</time>
      </trkpt>
      <trkpt lat="43.08925" lon="-1.75879">
        <ele>482.754</ele>
        <time>2020-05-15T14:54:19Z</time>
      </trkpt>
      <trkpt lat="43.08926" lon="-1.759">
        <ele>483.232</ele>
        <time>2020-05-15T14:54:39Z</time>
      </trkpt>
      <trkpt lat="43.08926" lon="-1.75912">
        <ele>483.747</ele>
        <time>2020-05-15T14:54:59Z</time>
      </trkpt>
      <trkpt lat="43.08927" lon="-1.75928">
        <ele>484.277</ele>
        <time>2020-05-15T14:55:19Z</time>
      </trkpt>
      <trkpt lat="43.08927" lon="-1.75942">
        <ele>484.374</ele>
        <time>2020-05-15T14:55:39Z</time>
      </trkpt>
      <trkpt lat="43.08928" lon="-1.75948">
        <ele>484.586</ele>
        <time>2020-05-15T14:55:59Z</time>
      </trkpt>
      <trkpt lat="43.08928" lon="-1.75951">
        <ele>484.845</ele>
        <time>2020-05-15T14:56:19Z</time>
      </trkpt>
      <trkpt lat="43.08929" lon="-1.75956">
        <ele>484.847</ele>
        <time>2020-05-15T14:56:39Z</time>
      </trkpt>
      <trkpt lat="43.0893" lon="-1.75961">
        <ele>485.011</ele>
        <time>2020-05-15T14:56:59Z</time>
      </trkpt>
      <trkpt lat="43.08932" lon="-1.75965">
        <ele>485.208</ele>
        <time>2020-05-15T14:57:19Z</time>
      </trkpt>
      <trkpt lat="43.08933" lon="-1.75966">
        <ele>484.838</ele>
        <time>2020-05-15T14:57:39Z</time>
      </trkpt>
      <trkpt lat="43.08935" lon="-1.7597">
        <ele>485.193</ele>
        <time>2020-05-15T14:57:59Z</time>
      </trkpt>
      <trkpt lat="43.08938" lon="-1.75975">
        <ele>485.397</ele>
        <time>2020-05-15T14:58:19Z</time>
      </trkpt>
      <trkpt lat="43.0894" lon="-1.75977">
        <ele>485.355</ele>
        <time>2020-05-15T14:58:39Z</time>
      </trkpt>
      <trkpt lat="43.08944" lon="-1.7598">
        <ele>485.15</ele>
        <time>2020-05-15T14:58:59Z</time>
      </trkpt>
      <trkpt lat="43.08947" lon="-1.75983">
        <ele>485.39</ele>
        <time>2020-05-15T14:59:19Z</time>
      </trkpt>
      <trkpt lat="43.08952" lon="-1.75986">
        <ele>485.237</ele>
        <time>2020-05-15T14:59:39Z</time>
      </trkpt>
      <trkpt lat="43.08959" lon="-1.7599">
        <ele>485.259</ele>
        <time>2020-05-15T14:59:59Z</time>
      </trkpt>
      <trkpt lat="43.08964" lon="-1.75992">
        <ele>484.993</ele>
        <time>2020-05-15T15:00:19Z</time>
      </trkpt>
      <trkpt lat="43.08968" lon="-1.75994">
        <ele>485.565</ele>
        <time>2020-05-15T15:00:39Z</time>
      </trkpt>
      <trkpt lat="43.0897" lon="-1.75994">
        <ele>485.421</ele>
        <time>2020-05-15T15:00:59Z</time>
      </trkpt>
      <trkpt lat="43.08972" lon="-1.75994">
        <ele>485.408</ele>
        <time>2020-05-15T15:01:19Z</time>
      </trkpt>
      <trkpt lat="43.08973" lon="-1.75994">
        <ele>485.793</ele>
        <time>2020-05-15T15:01:39Z</time>
      </trkpt>
      <trkpt lat="43.08976" lon="-1.75994">
        <ele>485.718</ele>
        <time>2020-05-15T15:01:59Z</time>
      </trkpt>
      <trkpt lat="43.08979" lon="-1.75993">
        <ele>485.982</ele>
        <time>2020-05-15T15:02:19Z</time>
      </trkpt>
      <trkpt lat="43.08981" lon="-1.75992">
        <ele>485.66</ele>
        <time>2020-05-15T15:02:39Z</time>
      </trkpt>
      <trkpt lat="43.08985" lon="-1.7599">
        <ele>485.965</ele>
        <time>2020-05-15T15:02:59Z</time>
      </trkpt>
      <trkpt lat="43.08986" lon="-1.75989">
        <ele>486.275</ele>
        <time>2020-05-15T15:03:19Z</time>
      </trkpt>
      <trkpt lat="43.0899" lon="-1.75984">
        <ele>486.052</ele>
        <time>2020-05-15T15:03:39Z</time>
      </trkpt>
      <trkpt lat="43.08992" lon="-1.75982">
        <ele>486.734</ele>
        <time>2020-05-15T15:03:59Z</time>
      </trkpt>
      <trkpt lat="43.08995" lon="-1.75978">
        <ele>487.026</ele>
        <time>2020-05-15T15:04:19Z</time>
      </trkpt>
      <trkpt lat="43.09006" lon="-1.75965">
        <ele>487.847</ele>
        <time>2020-05-15T15:04:39Z</time>
      </trkpt>
      <trkpt lat="43.09011" lon="-1.75956">
        <ele>488.411</ele>
        <time>2020-05-15T15:04:59Z</time>
      </trkpt>
      <trkpt lat="43.0902" lon="-1.75944">
        <ele>489.608</ele>
        <time>2020-05-15T15:05:19Z</time>
      </trkpt>
      <trkpt lat="43.0903" lon="-1.75932">
        <ele>490.716</ele>
        <time>2020-05-15T15:05:39Z</time>
      </trkpt>
      <trkpt lat="43.09032" lon="-1.7593">
        <ele>491.341</ele>
        <time>2020-05-15T15:05:59Z</time>
      </trkpt>
      <trkpt lat="43.09035" lon="-1.75926">
        <ele>491.555</ele>
        <time>2020-05-15T15:06:19Z</time>
      </trkpt>
      <trkpt lat="43.09039" lon="-1.75923">
        <ele>491.983</ele>
        <time>2020-05-15T15:06:39Z</time>
      </trkpt>
      <trkpt lat="43.09044" lon="-1.7592">
        <ele>492.418</ele>
        <time>2020-05-15T15:06:59Z</time>
      </trkpt>
      <trkpt lat="43.09047" lon="-1.75918">
        <ele>492.858</ele>
        <time>2020-05-15T15:07:19Z</time>
      </trkpt>
      <trkpt lat="43.09049" lon="-1.75917">
        <ele>493.445</ele>
        <time>2020-05-15T15:07:39Z</time>
      </trkpt>
      <trkpt lat="43.09052" lon="-1.75916">
        <ele>493.437</ele>
        <time>2020-05-15T15:07:59Z</time>
      </trkpt>
      <trkpt lat="43.09055" lon="-1.75916">
        <ele>493.677</ele>
        <time>2020-05-15T15:08:19Z</time>
      </trkpt>
      <trkpt lat="43.09068" lon="-1.75918">
        <ele>494.361</ele>
        <time>2020-05-15T15:08:39Z</time>
      </trkpt>
      <trkpt lat="43.0908" lon="-1.75919">
        <ele>494.927</ele>
        <time>2020-05-15T15:08:59Z</time>
      </trkpt>
      <trkpt lat="43.09083" lon="-1.75919">
        <ele>494.908</ele>
        <time>2020-05-15T15:09:19Z</time>
      </trkpt>
      <trkpt lat="43.09086" lon="-1.75919">
        <ele>495.151</ele>
        <time>2020-05-15T15:09:39Z</time>
      </trkpt>
      <trkpt lat="43.09088" lon="-1.75919">
        <ele>495.126</ele>
        <time>2020-05-15T15:09:59Z</time>
      </trkpt>
      <trkpt lat="43.09089" lon="-1.75919">
        <ele>495.44</ele>
        <time>2020-05-15T15:10:19Z</time>
      </trkpt>
      <trkpt lat="43.09091" lon="-1.75918">
        <ele>495.418</ele>
        <time>2020-05-15T15:10:39Z</time>
      </trkpt>
      <trkpt lat="43.09092" lon="-1.75918">
        <ele>495.453</ele>
        <time>2020-05-15T15:10:59Z</time>
      </trkpt>
      <trkpt lat="43.09095" lon="-1.75917">
        <ele>495.773</ele>
        <time>2020-05-15T15:11:19Z</time>
      </trkpt>
      <trkpt lat="43.09097" lon="-1.75915">
        <ele>495.47</ele>
        <time>2020-05-15T15:11:39Z</time>
      </trkpt>
      <trkpt lat="43.09099" lon="-1.75914">
        <ele>496.182</ele>
        <time>2020-05-15T15:11:59Z</time>
      </trkpt>
      <trkpt lat="43.09101" lon="-1.75912">
        <ele>496.175</ele>
        <time>2020-05-15T15:12:19Z</time>
      </trkpt>
      <trkpt lat="43.09102" lon="-1.75911">
        <ele>496.128</ele>
        <time>2020-05-15T15:12:39Z</time>
      </trkpt>
      <trkpt lat="43.09103" lon="-1.75909">
        <ele>496.32</ele>
        <time>2020-05-15T15:12:59Z</time>
      </trkpt>
      <trkpt lat="43.09105" lon="-1.75906">
        <ele>496.308</ele>
        <time>2020-05-15T15:13:19Z</time>
      </trkpt>
      <trkpt lat="43.09105" lon="-1.75905">
        <ele>496.331</ele>
        <time>2020-05-15T15:13:39Z</time>
      </trkpt>
      <trkpt lat="43.09106" lon="-1.75903">
        <ele>496.386</ele>
        <time>2020-05-15T15:13:59Z</time>
      </trkpt>
      <trkpt lat="43.09108" lon="-1.75899">
        <ele>496.66</ele>
        <time>2020-05-15T15:14:19Z</time>
      </trkpt>
      <trkpt lat="43.09109" lon="-1.75896">
        <ele>496.858</ele>
        <time>2020-05-15T15:14:39Z</time>
      </trkpt>
      <trkpt lat="43.09109" lon="-1.75892">
        <ele>496.863</ele>
        <time>2020-05-15T15:14:59Z</time>
      </trkpt>
      <trkpt lat="43.0911" lon="-1.75889">
        <ele>496.943</ele>
        <time>2020-05-15T15:15:19Z</time>
      </trkpt>
      <trkpt lat="43.0911" lon="-1.75877">
        <ele>497.25</ele>
        <time>2020-05-15T15:15:39Z</time>
      </trkpt>
      <trkpt lat="43.0911" lon="-1.75859">
        <ele>498.082</ele>
        <time>2020-05-15T15:15:59Z</time>
      </trkpt>
      <trkpt lat="43.0911" lon="-1.75856">
        <ele>498.049</ele>
        <time>2020-05-15T15:16:19Z</time>
      </trkpt>
      <trkpt lat="43.09111" lon="-1.7585">
        <ele>498.202</ele>
        <time>2020-05-15T15:16:39Z</time>
      </trkpt>
      <trkpt lat="43.09111" lon="-1.75826">
        <ele>499.322</ele>
        <time>2020-05-15T15:16:59Z</time>
      </trkpt>
      <trkpt lat="43.09111" lon="-1.75817">
        <ele>499.908</ele>
        <time>2020-05-15T15:17:19Z</time>
      </trkpt>
      <trkpt lat="43.09112" lon="-1.7581">
        <ele>500.228</ele>
        <time>2020-05-15T15:17:39Z</time>
      </trkpt>
      <trkpt lat="43.09112" lon="-1.75802">
        <ele>500.453</ele>
        <time>2020-05-15T15:17:59Z</time>
      </trkpt>
      <trkpt lat="43.09114" lon="-1.75795">
        <ele>501.047</ele>
        <time>2020-05-15T15:18:19Z</time>
      </trkpt>
      <trkpt lat="43.09115" lon="-1.7579">
        <ele>501.665</ele>
        <time>2020-05-15T15:18:39Z</time>
      </trkpt>
      <trkpt lat="43.09117" lon="-1.75784">
        <ele>501.31</ele>
        <time>2020-05-15T15:18:59Z</time>
      </trkpt>
      <trkpt lat="43.09119" lon="-1.75777">
        <ele>501.72</ele>
        <time>2020-05-15T15:19:19Z</time>
      </trkpt>
      <trkpt lat="43.0912" lon="-1.75772">
        <ele>502.277</ele>
        <time>2020-05-15T15:19:39Z</time>
      </trkpt>
      <trkpt lat="43.09124" lon="-1.75762">
        <ele>502.559</ele>
        <time>2020-05-15T15:19:59Z</time>
      </trkpt>
      <trkpt lat="43.09127" lon="-1.75756">
        <ele>502.885</ele>
        <time>2020-05-15T15:20:19Z</time>
      </trkpt>
      <trkpt lat="43.09131" lon="-1.75749">
        <ele>503.889</ele>
        <time>2020-05-15T15:20:39Z</time>
      </trkpt>
      <trkpt lat="43.09139" lon="-1.75734">
        <ele>504.517</ele>
        <time>2020-05-15T15:20:59Z</time>
      </trkpt>
      <trkpt lat="43.09144" lon="-1.75725">
        <ele>504.808</ele>
        <time>2020-05-15T15:21:19Z</time>
      </trkpt>
      <trkpt lat="43.09146" lon="-1.75722">
        <ele>505.572</ele>
        <time>2020-05-15T15:21:39Z</time>
      </trkpt>
      <trkpt lat="43.09147" lon="-1.7572">
        <ele>505.527</ele>
        <time>2020-05-15T15:21:59Z</time>
      </trkpt>
      <trkpt lat="43.0915" lon="-1.75716">
        <ele>506.031</ele>
        <time>2020-05-15T15:22:19Z</time>
      </trkpt>
      <trkpt lat="43.09154" lon="-1.7571">
        <ele>506.479</ele>
        <time>2020-05-15T15:22:39Z</time>
      </trkpt>
      <trkpt lat="43.09167" lon="-1.75694">
        <ele>507.694</ele>
        <time>2020-05-15T15:22:59Z</time>
      </trkpt>
      <trkpt lat="43.09181" lon="-1.75676">
        <ele>509.184</ele>
        <time>2020-05-15T15:23:19Z</time>
      </trkpt>
      <trkpt lat="43.09214" lon="-1.75634">
        <ele>513.451</ele>
        <time>2020-05-15T15:23:39Z</time>
      </trkpt>
      <trkpt lat="43.09245" lon="-1.75593">
        <ele>517.283</ele>
        <time>2020-05-15T15:23:59Z</time>
      </trkpt>
      <trkpt lat="43.0925" lon="-1.75588">
        <ele>517.324</ele>
        <time>2020-05-15T15:24:19Z</time>
      </trkpt>
      <trkpt lat="43.09257" lon="-1.7558">
        <ele>518.304</ele>
        <time>2020-05-15T15:24:39Z</time>
      </trkpt>
      <trkpt lat="43.0926" lon="-1.75576">
        <ele>518.314</ele>
        <time>2020-05-15T15:24:59Z</time>
      </trkpt>
      <trkpt lat="43.09264" lon="-1.75573">
        <ele>519.208</ele>
        <time>2020-05-15T15:25:19Z</time>
      </trkpt>
      <trkpt lat="43.09266" lon="-1.75572">
        <ele>519.556</ele>
        <time>2020-05-15T15:25:39Z</time>
      </trkpt>
      <trkpt lat="43.09268" lon="-1.7557">
        <ele>519.531</ele>
        <time>2020-05-15T15:25:59Z</time>
      </trkpt>
      <trkpt lat="43.09271" lon="-1.75569">
        <ele>519.755</ele>
        <time>2020-05-15T15:26:19Z</time>
      </trkpt>
      <trkpt lat="43.09273" lon="-1.75568">
        <ele>520.023</ele>
        <time>2020-05-15T15:26:39Z</time>
      </trkpt>
      <trkpt lat="43.09275" lon="-1.75567">
        <ele>520.548</ele>
        <time>2020-05-15T15:26:59Z</time>
      </trkpt>
      <trkpt lat="43.09278" lon="-1.75565">
        <ele>520.538</ele>
        <time>2020-05-15T15:27:19Z</time>
      </trkpt>
      <trkpt lat="43.09283" lon="-1.75564">
        <ele>520.855</ele>
        <time>2020-05-15T15:27:39Z</time>
      </trkpt>
      <trkpt lat="43.09287" lon="-1.75563">
        <ele>521.197</ele>
        <time>2020-05-15T15:27:59Z</time>
      </trkpt>
      <trkpt lat="43.09292" lon="-1.75562">
        <ele>521.689</ele>
        <time>2020-05-15T15:28:19Z</time>
      </trkpt>
      <trkpt lat="43.09297" lon="-1.75561">
        <ele>522.406</ele>
        <time>2020-05-15T15:28:39Z</time>
      </trkpt>
      <trkpt lat="43.09308" lon="-1.7556">
        <ele>523.126</ele>
        <time>2020-05-15T15:28:59Z</time>
      </trkpt>
      <trkpt lat="43.09315" lon="-1.75559">
        <ele>524.208</ele>
        <time>2020-05-15T15:29:19Z</time>
      </trkpt>
      <trkpt lat="43.09318" lon="-1.75558">
        <ele>524.232</ele>
        <time>2020-05-15T15:29:39Z</time>
      </trkpt>
      <trkpt lat="43.09321" lon="-1.75556">
        <ele>524.497</ele>
        <time>2020-05-15T15:29:59Z</time>
      </trkpt>
      <trkpt lat="43.09322" lon="-1.75555">
        <ele>524.431</ele>
        <time>2020-05-15T15:30:19Z</time>
      </trkpt>
      <trkpt lat="43.09326" lon="-1.75552">
        <ele>524.699</ele>
        <time>2020-05-15T15:30:39Z</time>
      </trkpt>
      <trkpt lat="43.09328" lon="-1.7555">
        <ele>525.294</ele>
        <time>2020-05-15T15:30:59Z</time>
      </trkpt>
      <trkpt lat="43.09329" lon="-1.75549">
        <ele>525.224</ele>
        <time>2020-05-15T15:31:19Z</time>
      </trkpt>
      <trkpt lat="43.09331" lon="-1.75547">
        <ele>525.271</ele>
        <time>2020-05-15T15:31:39Z</time>
      </trkpt>
      <trkpt lat="43.09332" lon="-1.75545">
        <ele>525.293</ele>
        <time>2020-05-15T15:31:59Z</time>
      </trkpt>
      <trkpt lat="43.09335" lon="-1.75539">
        <ele>525.612</ele>
        <time>2020-05-15T15:32:19Z</time>
      </trkpt>
      <trkpt lat="43.09337" lon="-1.75536">
        <ele>525.632</ele>
        <time>2020-05-15T15:32:39Z</time>
      </trkpt>
      <trkpt lat="43.09344" lon="-1.7552">
        <ele>526.405</ele>
        <time>2020-05-15T15:32:59Z</time>
      </trkpt>
      <trkpt lat="43.09351" lon="-1.75503">
        <ele>527.208</ele>
        <time>2020-05-15T15:33:19Z</time>
      </trkpt>
      <trkpt lat="43.09358" lon="-1.75487">
        <ele>528.075</ele>
        <time>2020-05-15T15:33:39Z</time>
      </trkpt>
      <trkpt lat="43.09375" lon="-1.7545">
        <ele>530.18</ele>
        <time>2020-05-15T15:33:59Z</time>
      </trkpt>
      <trkpt lat="43.09389" lon="-1.75419">
        <ele>532.374</ele>
        <time>2020-05-15T15:34:19Z</time>
      </trkpt>
      <trkpt lat="43.09392" lon="-1.75411">
        <ele>533.072</ele>
        <time>2020-05-15T15:34:39Z</time>
      </trkpt>
      <trkpt lat="43.09396" lon="-1.75405">
        <ele>533.387</ele>
        <time>2020-05-15T15:34:59Z</time>
      </trkpt>
      <trkpt lat="43.09399" lon="-1.75399">
        <ele>534.187</ele>
        <time>2020-05-15T15:35:19Z</time>
      </trkpt>
      <trkpt lat="43.09403" lon="-1.75391">
        <ele>534.444</ele>
        <time>2020-05-15T15:35:39Z</time>
      </trkpt>
      <trkpt lat="43.09408" lon="-1.75382">
        <ele>534.846</ele>
        <time>2020-05-15T15:35:59Z</time>
      </trkpt>
      <trkpt lat="43.09412" lon="-1.75377">
        <ele>535.347</ele>
        <time>2020-05-15T15:36:19Z</time>
      </trkpt>
      <trkpt lat="43.09415" lon="-1.75372">
        <ele>536.129</ele>
        <time>2020-05-15T15:36:39Z</time>
      </trkpt>
      <trkpt lat="43.0942" lon="-1.75366">
        <ele>536.621</ele>
        <time>2020-05-15T15:36:59Z</time>
      </trkpt>
      <trkpt lat="43.09425" lon="-1.7536">
        <ele>537.108</ele>
        <time>2020-05-15T15:37:19Z</time>
      </trkpt>
      <trkpt lat="43.09425" lon="-1.75359">
        <ele>537.058</ele>
        <time>2020-05-15T15:37:39Z</time>
      </trkpt>
      <trkpt lat="43.09428" lon="-1.75355">
        <ele>537.543</ele>
        <time>2020-05-15T15:37:59Z</time>
      </trkpt>
      <trkpt lat="43.09434" lon="-1.7535">
        <ele>538.687</ele>
        <time>2020-05-15T15:38:19Z</time>
      </trkpt>
      <trkpt lat="43.09437" lon="-1.75347">
        <ele>538.615</ele>
        <time>2020-05-15T15:38:39Z</time>
      </trkpt>
      <trkpt lat="43.09443" lon="-1.75342">
        <ele>539.23</ele>
        <time>2020-05-15T15:38:59Z</time>
      </trkpt>
      <trkpt lat="43.09447" lon="-1.75339">
        <ele>539.32</ele>
        <time>2020-05-15T15:39:19Z</time>
      </trkpt>
      <trkpt lat="43.09451" lon="-1.75337">
        <ele>539.927</ele>
        <time>2020-05-15T15:39:39Z</time>
      </trkpt>
      <trkpt lat="43.09457" lon="-1.75333">
        <ele>540.689</ele>
        <time>2020-05-15T15:39:59Z</time>
      </trkpt>
      <trkpt lat="43.09463" lon="-1.7533">
        <ele>541.265</ele>
        <time>2020-05-15T15:40:19Z</time>
      </trkpt>
      <trkpt lat="43.09473" lon="-1.75325">
        <ele>542.468</ele>
        <time>2020-05-15T15:40:39Z</time>
      </trkpt>
      <trkpt lat="43.09482" lon="-1.75321">
        <ele>543.114</ele>
        <time>2020-05-15T15:40:59Z</time>
      </trkpt>
      <trkpt lat="43.09486" lon="-1.75319">
        <ele>543.308</ele>
        <time>2020-05-15T15:41:19Z</time>
      </trkpt>
      <trkpt lat="43.09491" lon="-1.75317">
        <ele>544.14</ele>
        <time>2020-05-15T15:41:39Z</time>
      </trkpt>
      <trkpt lat="43.09499" lon="-1.75313">
        <ele>544.585</ele>
        <time>2020-05-15T15:41:59Z</time>
      </trkpt>
      <trkpt lat="43.09502" lon="-1.75313">
        <ele>544.739</ele>
        <time>2020-05-15T15:42:19Z</time>
      </trkpt>
      <trkpt lat="43.09505" lon="-1.75312">
        <ele>544.747</ele>
        <time>2020-05-15T15:42:39Z</time>
      </trkpt>
      <trkpt lat="43.09507" lon="-1.75312">
        <ele>545.012</ele>
        <time>2020-05-15T15:42:59Z</time>
      </trkpt>
      <trkpt lat="43.09509" lon="-1.75312">
        <ele>545.062</ele>
        <time>2020-05-15T15:43:19Z</time>
      </trkpt>
      <trkpt lat="43.09513" lon="-1.75313">
        <ele>545.279</ele>
        <time>2020-05-15T15:43:39Z</time>
      </trkpt>
      <trkpt lat="43.09517" lon="-1.75313">
        <ele>545.451</ele>
        <time>2020-05-15T15:43:59Z</time>
      </trkpt>
      <trkpt lat="43.0952" lon="-1.75315">
        <ele>545.621</ele>
        <time>2020-05-15T15:44:19Z</time>
      </trkpt>
      <trkpt lat="43.09523" lon="-1.75316">
        <ele>545.641</ele>
        <time>2020-05-15T15:44:39Z</time>
      </trkpt>
      <trkpt lat="43.09531" lon="-1.7532">
        <ele>546.005</ele>
        <time>2020-05-15T15:44:59Z</time>
      </trkpt>
      <trkpt lat="43.09539" lon="-1.75324">
        <ele>546.008</ele>
        <time>2020-05-15T15:45:19Z</time>
      </trkpt>
      <trkpt lat="43.0956" lon="-1.75337">
        <ele>546.546</ele>
        <time>2020-05-15T15:45:39Z</time>
      </trkpt>
      <trkpt lat="43.09582" lon="-1.7535">
        <ele>546.911</ele>
        <time>2020-05-15T15:45:59Z</time>
      </trkpt>
      <trkpt lat="43.09585" lon="-1.75352">
        <ele>546.875</ele>
        <time>2020-05-15T15:46:19Z</time>
      </trkpt>
      <trkpt lat="43.09589" lon="-1.75354">
        <ele>547.263</ele>
        <time>2020-05-15T15:46:39Z</time>
      </trkpt>
      <trkpt lat="43.09592" lon="-1.75355">
        <ele>547.278</ele>
        <time>2020-05-15T15:46:59Z</time>
      </trkpt>
      <trkpt lat="43.09597" lon="-1.75356">
        <ele>547.488</ele>
        <time>2020-05-15T15:47:19Z</time>
      </trkpt>
      <trkpt lat="43.09602" lon="-1.75356">
        <ele>547.475</ele>
        <time>2020-05-15T15:47:39Z</time>
      </trkpt>
      <trkpt lat="43.09607" lon="-1.75356">
        <ele>547.687</ele>
        <time>2020-05-15T15:47:59Z</time>
      </trkpt>
      <trkpt lat="43.09612" lon="-1.75355">
        <ele>547.675</ele>
        <time>2020-05-15T15:48:19Z</time>
      </trkpt>
      <trkpt lat="43.09615" lon="-1.75354">
        <ele>547.928</ele>
        <time>2020-05-15T15:48:39Z</time>
      </trkpt>
      <trkpt lat="43.0962" lon="-1.75353">
        <ele>548.12</ele>
        <time>2020-05-15T15:48:59Z</time>
      </trkpt>
      <trkpt lat="43.09631" lon="-1.7535">
        <ele>548.208</ele>
        <time>2020-05-15T15:49:19Z</time>
      </trkpt>
      <trkpt lat="43.09636" lon="-1.75348">
        <ele>548.491</ele>
        <time>2020-05-15T15:49:39Z</time>
      </trkpt>
      <trkpt lat="43.0964" lon="-1.75348">
        <ele>548.676</ele>
        <time>2020-05-15T15:49:59Z</time>
      </trkpt>
      <trkpt lat="43.09644" lon="-1.75347">
        <ele>548.86</ele>
        <time>2020-05-15T15:50:19Z</time>
      </trkpt>
      <trkpt lat="43.09648" lon="-1.75347">
        <ele>548.918</ele>
        <time>2020-05-15T15:50:39Z</time>
      </trkpt>
      <trkpt lat="43.09649" lon="-1.75347">
        <ele>548.913</ele>
        <time>2020-05-15T15:50:59Z</time>
      </trkpt>
      <trkpt lat="43.09652" lon="-1.75347">
        <ele>549.493</ele>
        <time>2020-05-15T15:51:19Z</time>
      </trkpt>
      <trkpt lat="43.09658" lon="-1.75349">
        <ele>549.75</ele>
        <time>2020-05-15T15:51:39Z</time>
      </trkpt>
      <trkpt lat="43.09661" lon="-1.75351">
        <ele>549.972</ele>
        <time>2020-05-15T15:51:59Z</time>
      </trkpt>
      <trkpt lat="43.09662" lon="-1.75351">
        <ele>549.952</ele>
        <time>2020-05-15T15:52:19Z</time>
      </trkpt>
      <trkpt lat="43.09663" lon="-1.75352">
        <ele>549.753</ele>
        <time>2020-05-15T15:52:39Z</time>
      </trkpt>
      <trkpt lat="43.09664" lon="-1.75353">
        <ele>550.008</ele>
        <time>2020-05-15T15:52:59Z</time>
      </trkpt>
      <trkpt lat="43.09666" lon="-1.75355">
        <ele>550.008</ele>
        <time>2020-05-15T15:53:19Z</time>
      </trkpt>
      <trkpt lat="43.09666" lon="-1.75356">
        <ele>550.019</ele>
        <time>2020-05-15T15:53:39Z</time>
      </trkpt>
      <trkpt lat="43.09667" lon="-1.75358">
        <ele>550.084</ele>
        <time>2020-05-15T15:53:59Z</time>
      </trkpt>
      <trkpt lat="43.0967" lon="-1.75363">
        <ele>550.478</ele>
        <time>2020-05-15T15:54:19Z</time>
      </trkpt>
      <trkpt lat="43.09671" lon="-1.75367">
        <ele>550.496</ele>
        <time>2020-05-15T15:54:39Z</time>
      </trkpt>
      <trkpt lat="43.09672" lon="-1.7537">
        <ele>550.431</ele>
        <time>2020-05-15T15:54:59Z</time>
      </trkpt>
      <trkpt lat="43.09672" lon="-1.75375">
        <ele>550.531</ele>
        <time>2020-05-15T15:55:19Z</time>
      </trkpt>
      <trkpt lat="43.09673" lon="-1.75381">
        <ele>550.638</ele>
        <time>2020-05-15T15:55:39Z</time>
      </trkpt>
      <trkpt lat="43.09673" lon="-1.75398">
        <ele>550.99</ele>
        <time>2020-05-15T15:55:59Z</time>
      </trkpt>
      <trkpt lat="43.09673" lon="-1.75418">
        <ele>551.299</ele>
        <time>2020-05-15T15:56:19Z</time>
      </trkpt>
      <trkpt lat="43.09674" lon="-1.7544">
        <ele>551.007</ele>
        <time>2020-05-15T15:56:39Z</time>
      </trkpt>
      <trkpt lat="43.09674" lon="-1.7545">
        <ele>551.527</ele>
        <time>2020-05-15T15:56:59Z</time>
      </trkpt>
      <trkpt lat="43.09674" lon="-1.75456">
        <ele>551.908</ele>
        <time>2020-05-15T15:57:19Z</time>
      </trkpt>
      <trkpt lat="43.09675" lon="-1.75475">
        <ele>552.673</ele>
        <time>2020-05-15T15:57:39Z</time>
      </trkpt>
      <trkpt lat="43.09677" lon="-1.755">
        <ele>552.938</ele>
        <time>2020-05-15T15:57:59Z</time>
      </trkpt>
      <trkpt lat="43.09677" lon="-1.75506">
        <ele>553.012</ele>
        <time>2020-05-15T15:58:19Z</time>
      </trkpt>
      <trkpt lat="43.09677" lon="-1.75512">
        <ele>553.12</ele>
        <time>2020-05-15T15:58:39Z</time>
      </trkpt>
      <trkpt lat="43.09676" lon="-1.7552">
        <ele>553.175</ele>
        <time>2020-05-15T15:58:59Z</time>
      </trkpt>
      <trkpt lat="43.09675" lon="-1.75528">
        <ele>553.085</ele>
        <time>2020-05-15T15:59:19Z</time>
      </trkpt>
      <trkpt lat="43.09675" lon="-1.75534">
        <ele>552.972</ele>
        <time>2020-05-15T15:59:39Z</time>
      </trkpt>
      <trkpt lat="43.09674" lon="-1.7554">
        <ele>553.214</ele>
        <time>2020-05-15T15:59:59Z</time>
      </trkpt>
      <trkpt lat="43.09673" lon="-1.75543">
        <ele>553.298</ele>
        <time>2020-05-15T16:00:19Z</time>
      </trkpt>
      <trkpt lat="43.09672" lon="-1.75548">
        <ele>553.215</ele>
        <time>2020-05-15T16:00:39Z</time>
      </trkpt>
      <trkpt lat="43.0967" lon="-1.75554">
        <ele>553.126</ele>
        <time>2020-05-15T16:00:59Z</time>
      </trkpt>
      <trkpt lat="43.09668" lon="-1.7556">
        <ele>553.108</ele>
        <time>2020-05-15T16:01:19Z</time>
      </trkpt>
      <trkpt lat="43.09665" lon="-1.75567">
        <ele>553.183</ele>
        <time>2020-05-15T16:01:39Z</time>
      </trkpt>
      <trkpt lat="43.09663" lon="-1.75573">
        <ele>553.018</ele>
        <time>2020-05-15T16:01:59Z</time>
      </trkpt>
      <trkpt lat="43.09656" lon="-1.75587">
        <ele>553.132</ele>
        <time>2020-05-15T16:02:19Z</time>
      </trkpt>
      <trkpt lat="43.09651" lon="-1.756">
        <ele>553.41</ele>
        <time>2020-05-15T16:02:39Z</time>
      </trkpt>
      <trkpt lat="43.09649" lon="-1.75605">
        <ele>553.285</ele>
        <time>2020-05-15T16:02:59Z</time>
      </trkpt>
      <trkpt lat="43.09648" lon="-1.7561">
        <ele>553.535</ele>
        <time>2020-05-15T16:03:19Z</time>
      </trkpt>
      <trkpt lat="43.09647" lon="-1.75614">
        <ele>553.592</ele>
        <time>2020-05-15T16:03:39Z</time>
      </trkpt>
      <trkpt lat="43.09646" lon="-1.75618">
        <ele>553.234</ele>
        <time>2020-05-15T16:03:59Z</time>
      </trkpt>
      <trkpt lat="43.09646" lon="-1.75623">
        <ele>553.343</ele>
        <time>2020-05-15T16:04:19Z</time>
      </trkpt>
      <trkpt lat="43.09646" lon="-1.75627">
        <ele>553.364</ele>
        <time>2020-05-15T16:04:39Z</time>
      </trkpt>
      <trkpt lat="43.09646" lon="-1.75634">
        <ele>553.31</ele>
        <time>2020-05-15T16:04:59Z</time>
      </trkpt>
      <trkpt lat="43.09646" lon="-1.7564">
        <ele>553.408</ele>
        <time>2020-05-15T16:05:19Z</time>
      </trkpt>
      <trkpt lat="43.09647" lon="-1.75652">
        <ele>553.688</ele>
        <time>2020-05-15T16:05:39Z</time>
      </trkpt>
      <trkpt lat="43.09648" lon="-1.75667">
        <ele>553.883</ele>
        <time>2020-05-15T16:05:59Z</time>
      </trkpt>
      <trkpt lat="43.0965" lon="-1.75681">
        <ele>553.937</ele>
        <time>2020-05-15T16:06:19Z</time>
      </trkpt>
      <trkpt lat="43.09651" lon="-1.75694">
        <ele>554.145</ele>
        <time>2020-05-15T16:06:39Z</time>
      </trkpt>
      <trkpt lat="43.09651" lon="-1.75701">
        <ele>554.23</ele>
        <time>2020-05-15T16:06:59Z</time>
      </trkpt>
      <trkpt lat="43.09651" lon="-1.75709">
        <ele>554.34</ele>
        <time>2020-05-15T16:07:19Z</time>
      </trkpt>
      <trkpt lat="43.09651" lon="-1.75718">
        <ele>554.357</ele>
        <time>2020-05-15T16:07:39Z</time>
      </trkpt>
      <trkpt lat="43.09651" lon="-1.75725">
        <ele>554.449</ele>
        <time>2020-05-15T16:07:59Z</time>
      </trkpt>
      <trkpt lat="43.0965" lon="-1.75734">
        <ele>554.567</ele>
        <time>2020-05-15T16:08:19Z</time>
      </trkpt>
      <trkpt lat="43.0965" lon="-1.75741">
        <ele>554.581</ele>
        <time>2020-05-15T16:08:39Z</time>
      </trkpt>
      <trkpt lat="43.09649" lon="-1.75746">
        <ele>554.619</ele>
        <time>2020-05-15T16:08:59Z</time>
      </trkpt>
      <trkpt lat="43.09648" lon="-1.75753">
        <ele>554.708</ele>
        <time>2020-05-15T16:09:19Z</time>
      </trkpt>
      <trkpt lat="43.09645" lon="-1.75765">
        <ele>554.95</ele>
        <time>2020-05-15T16:09:39Z</time>
      </trkpt>
      <trkpt lat="43.09638" lon="-1.75794">
        <ele>555.185</ele>
        <time>2020-05-15T16:09:59Z</time>
      </trkpt>
      <trkpt lat="43.09633" lon="-1.75812">
        <ele>555.589</ele>
        <time>2020-05-15T16:10:19Z</time>
      </trkpt>
      <trkpt lat="43.09629" lon="-1.75825">
        <ele>555.647</ele>
        <time>2020-05-15T16:10:39Z</time>
      </trkpt>
      <trkpt lat="43.09628" lon="-1.7583">
        <ele>555.722</ele>
        <time>2020-05-15T16:10:59Z</time>
      </trkpt>
      <trkpt lat="43.09624" lon="-1.75843">
        <ele>555.582</ele>
        <time>2020-05-15T16:11:19Z</time>
      </trkpt>
      <trkpt lat="43.09623" lon="-1.75848">
        <ele>555.979</ele>
        <time>2020-05-15T16:11:39Z</time>
      </trkpt>
      <trkpt lat="43.09621" lon="-1.75855">
        <ele>555.871</ele>
        <time>2020-05-15T16:11:59Z</time>
      </trkpt>
      <trkpt lat="43.0962" lon="-1.75863">
        <ele>554.823</ele>
        <time>2020-05-15T16:12:19Z</time>
      </trkpt>
      <trkpt lat="43.09619" lon="-1.75869">
        <ele>556.583</ele>
        <time>2020-05-15T16:12:39Z</time>
      </trkpt>
      <trkpt lat="43.09619" lon="-1.75873">
        <ele>556.511</ele>
        <time>2020-05-15T16:12:59Z</time>
      </trkpt>
      <trkpt lat="43.09619" lon="-1.75876">
        <ele>556.508</ele>
        <time>2020-05-15T16:13:19Z</time>
      </trkpt>
      <trkpt lat="43.09619" lon="-1.75882">
        <ele>556.516</ele>
        <time>2020-05-15T16:13:39Z</time>
      </trkpt>
      <trkpt lat="43.09619" lon="-1.75889">
        <ele>557.051</ele>
        <time>2020-05-15T16:13:59Z</time>
      </trkpt>
      <trkpt lat="43.09621" lon="-1.75896">
        <ele>556.545</ele>
        <time>2020-05-15T16:14:19Z</time>
      </trkpt>
      <trkpt lat="43.09622" lon="-1.75902">
        <ele>556.783</ele>
        <time>2020-05-15T16:14:39Z</time>
      </trkpt>
      <trkpt lat="43.09626" lon="-1.7592">
        <ele>556.948</ele>
        <time>2020-05-15T16:14:59Z</time>
      </trkpt>
      <trkpt lat="43.09631" lon="-1.75937">
        <ele>557.488</ele>
        <time>2020-05-15T16:15:19Z</time>
      </trkpt>
      <trkpt lat="43.09634" lon="-1.75947">
        <ele>557.535</ele>
        <time>2020-05-15T16:15:39Z</time>
      </trkpt>
      <trkpt lat="43.09636" lon="-1.75957">
        <ele>557.957</ele>
        <time>2020-05-15T16:15:59Z</time>
      </trkpt>
      <trkpt lat="43.09637" lon="-1.75962">
        <ele>558.286</ele>
        <time>2020-05-15T16:16:19Z</time>
      </trkpt>
      <trkpt lat="43.09638" lon="-1.7597">
        <ele>558.36</ele>
        <time>2020-05-15T16:16:39Z</time>
      </trkpt>
      <trkpt lat="43.09638" lon="-1.75975">
        <ele>558.526</ele>
        <time>2020-05-15T16:16:59Z</time>
      </trkpt>
      <trkpt lat="43.09638" lon="-1.7598">
        <ele>558.708</ele>
        <time>2020-05-15T16:17:19Z</time>
      </trkpt>
      <trkpt lat="43.09638" lon="-1.75985">
        <ele>558.762</ele>
        <time>2020-05-15T16:17:39Z</time>
      </trkpt>
      <trkpt lat="43.09638" lon="-1.75989">
        <ele>559.167</ele>
        <time>2020-05-15T16:17:59Z</time>
      </trkpt>
      <trkpt lat="43.09637" lon="-1.75998">
        <ele>559.351</ele>
        <time>2020-05-15T16:18:19Z</time>
      </trkpt>
      <trkpt lat="43.09636" lon="-1.76008">
        <ele>559.419</ele>
        <time>2020-05-15T16:18:39Z</time>
      </trkpt>
      <trkpt lat="43.09635" lon="-1.76015">
        <ele>559.334</ele>
        <time>2020-05-15T16:18:59Z</time>
      </trkpt>
      <trkpt lat="43.09634" lon="-1.76023">
        <ele>559.994</ele>
        <time>2020-05-15T16:19:19Z</time>
      </trkpt>
      <trkpt lat="43.09633" lon="-1.76033">
        <ele>560.191</ele>
        <time>2020-05-15T16:19:39Z</time>
      </trkpt>
      <trkpt lat="43.09631" lon="-1.76043">
        <ele>560.013</ele>
        <time>2020-05-15T16:19:59Z</time>
      </trkpt>
      <trkpt lat="43.09629" lon="-1.76056">
        <ele>560.887</ele>
        <time>2020-05-15T16:20:19Z</time>
      </trkpt>
      <trkpt lat="43.09626" lon="-1.7607">
        <ele>560.842</ele>
        <time>2020-05-15T16:20:39Z</time>
      </trkpt>
      <trkpt lat="43.09624" lon="-1.7608">
        <ele>561.526</ele>
        <time>2020-05-15T16:20:59Z</time>
      </trkpt>
      <trkpt lat="43.09622" lon="-1.7609">
        <ele>560.708</ele>
        <time>2020-05-15T16:21:19Z</time>
      </trkpt>
      <trkpt lat="43.0962" lon="-1.76099">
        <ele>561.942</ele>
        <time>2020-05-15T16:21:39Z</time>
      </trkpt>
      <trkpt lat="43.09618" lon="-1.76107">
        <ele>562.127</ele>
        <time>2020-05-15T16:21:59Z</time>
      </trkpt>
      <trkpt lat="43.09612" lon="-1.7613">
        <ele>562.851</ele>
        <time>2020-05-15T16:22:19Z</time>
      </trkpt>
      <trkpt lat="43.09607" lon="-1.76153">
        <ele>563.699</ele>
        <time>2020-05-15T16:22:39Z</time>
      </trkpt>
      <trkpt lat="43.09593" lon="-1.76211">
        <ele>565.694</ele>
        <time>2020-05-15T16:22:59Z</time>
      </trkpt>
      <trkpt lat="43.09589" lon="-1.76228">
        <ele>566.154</ele>
        <time>2020-05-15T16:23:19Z</time>
      </trkpt>
      <trkpt lat="43.09584" lon="-1.76246">
        <ele>567.011</ele>
        <time>2020-05-15T16:23:39Z</time>
      </trkpt>
      <trkpt lat="43.09582" lon="-1.76255">
        <ele>567.343</ele>
        <time>2020-05-15T16:23:59Z</time>
      </trkpt>
      <trkpt lat="43.0958" lon="-1.76264">
        <ele>567.463</ele>
        <time>2020-05-15T16:24:19Z</time>
      </trkpt>
      <trkpt lat="43.09575" lon="-1.76285">
        <ele>567.644</ele>
        <time>2020-05-15T16:24:39Z</time>
      </trkpt>
      <trkpt lat="43.09573" lon="-1.76297">
        <ele>568.818</ele>
        <time>2020-05-15T16:24:59Z</time>
      </trkpt>
      <trkpt lat="43.09571" lon="-1.76313">
        <ele>569.308</ele>
        <time>2020-05-15T16:25:19Z</time>
      </trkpt>
      <trkpt lat="43.0957" lon="-1.76319">
        <ele>570.19</ele>
        <time>2020-05-15T16:25:39Z</time>
      </trkpt>
      <trkpt lat="43.09568" lon="-1.7633">
        <ele>570.515</ele>
        <time>2020-05-15T16:25:59Z</time>
      </trkpt>
      <trkpt lat="43.09567" lon="-1.76346">
        <ele>571.369</ele>
        <time>2020-05-15T16:26:19Z</time>
      </trkpt>
      <trkpt lat="43.09566" lon="-1.76359">
        <ele>571.757</ele>
        <time>2020-05-15T16:26:39Z</time>
      </trkpt>
      <trkpt lat="43.09565" lon="-1.76367">
        <ele>572.112</ele>
        <time>2020-05-15T16:26:59Z</time>
      </trkpt>
      <trkpt lat="43.09564" lon="-1.76375">
        <ele>572.732</ele>
        <time>2020-05-15T16:27:19Z</time>
      </trkpt>
      <trkpt lat="43.0956" lon="-1.76398">
        <ele>573.129</ele>
        <time>2020-05-15T16:27:39Z</time>
      </trkpt>
      <trkpt lat="43.09559" lon="-1.76402">
        <ele>573.041</ele>
        <time>2020-05-15T16:27:59Z</time>
      </trkpt>
      <trkpt lat="43.09558" lon="-1.76406">
        <ele>572.418</ele>
        <time>2020-05-15T16:28:19Z</time>
      </trkpt>
      <trkpt lat="43.09557" lon="-1.76411">
        <ele>573.498</ele>
        <time>2020-05-15T16:28:39Z</time>
      </trkpt>
      <trkpt lat="43.09556" lon="-1.76416">
        <ele>573.417</ele>
        <time>2020-05-15T16:28:59Z</time>
      </trkpt>
      <trkpt lat="43.09554" lon="-1.76422">
        <ele>573.008</ele>
        <time>2020-05-15T16:29:19Z</time>
      </trkpt>
      <trkpt lat="43.09552" lon="-1.76427">
        <ele>574.175</ele>
        <time>2020-05-15T16:29:39Z</time>
      </trkpt>
      <trkpt lat="43.09549" lon="-1.76434">
        <ele>574.25</ele>
        <time>2020-05-15T16:29:59Z</time>
      </trkpt>
      <trkpt lat="43.09547" lon="-1.7644">
        <ele>574.374</ele>
        <time>2020-05-15T16:30:19Z</time>
      </trkpt>
      <trkpt lat="43.09544" lon="-1.76445">
        <ele>574.482</ele>
        <time>2020-05-15T16:30:39Z</time>
      </trkpt>
      <trkpt lat="43.09542" lon="-1.76451">
        <ele>573.777</ele>
        <time>2020-05-15T16:30:59Z</time>
      </trkpt>
      <trkpt lat="43.0954" lon="-1.76455">
        <ele>574.447</ele>
        <time>2020-05-15T16:31:19Z</time>
      </trkpt>
      <trkpt lat="43.09538" lon="-1.76459">
        <ele>574.424</ele>
        <time>2020-05-15T16:31:39Z</time>
      </trkpt>
      <trkpt lat="43.09525" lon="-1.7648">
        <ele>575.416</ele>
        <time>2020-05-15T16:31:59Z</time>
      </trkpt>
      <trkpt lat="43.09515" lon="-1.76495">
        <ele>576.438</ele>
        <time>2020-05-15T16:32:19Z</time>
      </trkpt>
      <trkpt lat="43.09505" lon="-1.76511">
        <ele>576.97</ele>
        <time>2020-05-15T16:32:39Z</time>
      </trkpt>
      <trkpt lat="43.095" lon="-1.76519">
        <ele>577.817</ele>
        <time>2020-05-15T16:32:59Z</time>
      </trkpt>
      <trkpt lat="43.09494" lon="-1.76527">
        <ele>578.008</ele>
        <time>2020-05-15T16:33:19Z</time>
      </trkpt>
      <trkpt lat="43.09493" lon="-1.76529">
        <ele>578.097</ele>
        <time>2020-05-15T16:33:39Z</time>
      </trkpt>
      <trkpt lat="43.09492" lon="-1.76531">
        <ele>577.312</ele>
        <time>2020-05-15T16:33:59Z</time>
      </trkpt>
      <trkpt lat="43.09492" lon="-1.76532">
        <ele>577.396</ele>
        <time>2020-05-15T16:34:19Z</time>
      </trkpt>
      <trkpt lat="43.09491" lon="-1.76534">
        <ele>578.544</ele>
        <time>2020-05-15T16:34:39Z</time>
      </trkpt>
      <trkpt lat="43.09489" lon="-1.7654">
        <ele>578.719</ele>
        <time>2020-05-15T16:34:59Z</time>
      </trkpt>
      <trkpt lat="43.09489" lon="-1.76548">
        <ele>579.259</ele>
        <time>2020-05-15T16:35:19Z</time>
      </trkpt>
      <trkpt lat="43.09488" lon="-1.76555">
        <ele>579.416</ele>
        <time>2020-05-15T16:35:39Z</time>
      </trkpt>
      <trkpt lat="43.09487" lon="-1.76561">
        <ele>579.838</ele>
        <time>2020-05-15T16:35:59Z</time>
      </trkpt>
      <trkpt lat="43.09487" lon="-1.76567">
        <ele>580.072</ele>
        <time>2020-05-15T16:36:19Z</time>
      </trkpt>
      <trkpt lat="43.09486" lon="-1.7657">
        <ele>580.013</ele>
        <time>2020-05-15T16:36:39Z</time>
      </trkpt>
      <trkpt lat="43.09486" lon="-1.76573">
        <ele>580.614</ele>
        <time>2020-05-15T16:36:59Z</time>
      </trkpt>
      <trkpt lat="43.09485" lon="-1.76577">
        <ele>580.608</ele>
        <time>2020-05-15T16:37:19Z</time>
      </trkpt>
      <trkpt lat="43.09484" lon="-1.76582">
        <ele>579.471</ele>
        <time>2020-05-15T16:37:39Z</time>
      </trkpt>
      <trkpt lat="43.09478" lon="-1.76599">
        <ele>581.136</ele>
        <time>2020-05-15T16:37:59Z</time>
      </trkpt>
      <trkpt lat="43.09473" lon="-1.76616">
        <ele>581.58</ele>
        <time>2020-05-15T16:38:19Z</time>
      </trkpt>
      <trkpt lat="43.09466" lon="-1.76639">
        <ele>580.888</ele>
        <time>2020-05-15T16:38:39Z</time>
      </trkpt>
      <trkpt lat="43.09459" lon="-1.76661">
        <ele>583.553</ele>
        <time>2020-05-15T16:38:59Z</time>
      </trkpt>
      <trkpt lat="43.09448" lon="-1.76699">
        <ele>585.693</ele>
        <time>2020-05-15T16:39:19Z</time>
      </trkpt>
      <trkpt lat="43.09437" lon="-1.76736">
        <ele>587.86</ele>
        <time>2020-05-15T16:39:39Z</time>
      </trkpt>
      <trkpt lat="43.09428" lon="-1.7677">
        <ele>590.122</ele>
        <time>2020-05-15T16:39:59Z</time>
      </trkpt>
      <trkpt lat="43.09424" lon="-1.76789">
        <ele>590.962</ele>
        <time>2020-05-15T16:40:19Z</time>
      </trkpt>
      <trkpt lat="43.09419" lon="-1.76808">
        <ele>591.883</ele>
        <time>2020-05-15T16:40:39Z</time>
      </trkpt>
      <trkpt lat="43.09418" lon="-1.76813">
        <ele>591.811</ele>
        <time>2020-05-15T16:40:59Z</time>
      </trkpt>
      <trkpt lat="43.09418" lon="-1.76817">
        <ele>592.308</ele>
        <time>2020-05-15T16:41:19Z</time>
      </trkpt>
      <trkpt lat="43.09417" lon="-1.76824">
        <ele>592.92</ele>
        <time>2020-05-15T16:41:39Z</time>
      </trkpt>
      <trkpt lat="43.09417" lon="-1.7683">
        <ele>593.335</ele>
        <time>2020-05-15T16:41:59Z</time>
      </trkpt>
      <trkpt lat="43.09416" lon="-1.76836">
        <ele>593.699</ele>
        <time>2020-05-15T16:42:19Z</time>
      </trkpt>
      <trkpt lat="43.09416" lon="-1.76843">
        <ele>594.017</ele>
        <time>2020-05-15T16:42:39Z</time>
      </trkpt>
      <trkpt lat="43.09416" lon="-1.76847">
        <ele>594.742</ele>
        <time>2020-05-15T16:42:59Z</time>
      </trkpt>
      <trkpt lat="43.09417" lon="-1.76852">
        <ele>595.082</ele>
        <time>2020-05-15T16:43:19Z</time>
      </trkpt>
      <trkpt lat="43.09418" lon="-1.76859">
        <ele>595.329</ele>
        <time>2020-05-15T16:43:39Z</time>
      </trkpt>
      <trkpt lat="43.09419" lon="-1.76865">
        <ele>595.731</ele>
        <time>2020-05-15T16:43:59Z</time>
      </trkpt>
      <trkpt lat="43.0942" lon="-1.76871">
        <ele>596.171</ele>
        <time>2020-05-15T16:44:19Z</time>
      </trkpt>
      <trkpt lat="43.09422" lon="-1.76878">
        <ele>596.441</ele>
        <time>2020-05-15T16:44:39Z</time>
      </trkpt>
      <trkpt lat="43.09423" lon="-1.76882">
        <ele>596.715</ele>
        <time>2020-05-15T16:44:59Z</time>
      </trkpt>
      <trkpt lat="43.09424" lon="-1.76886">
        <ele>596.708</ele>
        <time>2020-05-15T16:45:19Z</time>
      </trkpt>
      <trkpt lat="43.09426" lon="-1.76891">
        <ele>597.111</ele>
        <time>2020-05-15T16:45:39Z</time>
      </trkpt>
      <trkpt lat="43.09426" lon="-1.76892">
        <ele>597.156</ele>
        <time>2020-05-15T16:45:59Z</time>
      </trkpt>
      <trkpt lat="43.09428" lon="-1.76896">
        <ele>597.43</ele>
        <time>2020-05-15T16:46:19Z</time>
      </trkpt>
      <trkpt lat="43.09429" lon="-1.769">
        <ele>597.898</ele>
        <time>2020-05-15T16:46:39Z</time>
      </trkpt>
      <trkpt lat="43.0943" lon="-1.76904">
        <ele>597.853</ele>
        <time>2020-05-15T16:46:59Z</time>
      </trkpt>
      <trkpt lat="43.0943" lon="-1.76906">
        <ele>598.063</ele>
        <time>2020-05-15T16:47:19Z</time>
      </trkpt>
      <trkpt lat="43.0943" lon="-1.76909">
        <ele>598.01</ele>
        <time>2020-05-15T16:47:39Z</time>
      </trkpt>
      <trkpt lat="43.0943" lon="-1.76911">
        <ele>598.242</ele>
        <time>2020-05-15T16:47:59Z</time>
      </trkpt>
      <trkpt lat="43.09431" lon="-1.76918">
        <ele>598.566</ele>
        <time>2020-05-15T16:48:19Z</time>
      </trkpt>
      <trkpt lat="43.09431" lon="-1.76925">
        <ele>598.729</ele>
        <time>2020-05-15T16:48:39Z</time>
      </trkpt>
      <trkpt lat="43.0943" lon="-1.76929">
        <ele>598.821</ele>
        <time>2020-05-15T16:48:59Z</time>
      </trkpt>
      <trkpt lat="43.0943" lon="-1.76932">
        <ele>598.808</ele>
        <time>2020-05-15T16:49:19Z</time>
      </trkpt>
      <trkpt lat="43.09429" lon="-1.76935">
        <ele>598.82</ele>
        <time>2020-05-15T16:49:39Z</time>
      </trkpt>
      <trkpt lat="43.09428" lon="-1.76939">
        <ele>598.725</ele>
        <time>2020-05-15T16:49:59Z</time>
      </trkpt>
      <trkpt lat="43.09426" lon="-1.76946">
        <ele>599.089</ele>
        <time>2020-05-15T16:50:19Z</time>
      </trkpt>
      <trkpt lat="43.09425" lon="-1.76948">
        <ele>598.887</ele>
        <time>2020-05-15T16:50:39Z</time>
      </trkpt>
      <trkpt lat="43.0942" lon="-1.76957">
        <ele>598.822</ele>
        <time>2020-05-15T16:50:59Z</time>
      </trkpt>
      <trkpt lat="43.09416" lon="-1.76967">
        <ele>596.912</ele>
        <time>2020-05-15T16:51:19Z</time>
      </trkpt>
      <trkpt lat="43.09411" lon="-1.76976">
        <ele>598.619</ele>
        <time>2020-05-15T16:51:39Z</time>
      </trkpt>
      <trkpt lat="43.09407" lon="-1.76985">
        <ele>598.251</ele>
        <time>2020-05-15T16:51:59Z</time>
      </trkpt>
      <trkpt lat="43.09406" lon="-1.76987">
        <ele>598.584</ele>
        <time>2020-05-15T16:52:19Z</time>
      </trkpt>
      <trkpt lat="43.09405" lon="-1.76989">
        <ele>598.507</ele>
        <time>2020-05-15T16:52:39Z</time>
      </trkpt>
      <trkpt lat="43.09404" lon="-1.76996">
        <ele>598.117</ele>
        <time>2020-05-15T16:52:59Z</time>
      </trkpt>
      <trkpt lat="43.09403" lon="-1.77001">
        <ele>598.108</ele>
        <time>2020-05-15T16:53:19Z</time>
      </trkpt>
      <trkpt lat="43.09402" lon="-1.77007">
        <ele>597.892</ele>
        <time>2020-05-15T16:53:39Z</time>
      </trkpt>
      <trkpt lat="43.09402" lon="-1.77013">
        <ele>598.187</ele>
        <time>2020-05-15T16:53:59Z</time>
      </trkpt>
      <trkpt lat="43.09402" lon="-1.77019">
        <ele>597.891</ele>
        <time>2020-05-15T16:54:19Z</time>
      </trkpt>
      <trkpt lat="43.09402" lon="-1.77045">
        <ele>597.429</ele>
        <time>2020-05-15T16:54:39Z</time>
      </trkpt>
      <trkpt lat="43.09403" lon="-1.77065">
        <ele>596.914</ele>
        <time>2020-05-15T16:54:59Z</time>
      </trkpt>
      <trkpt lat="43.09404" lon="-1.77085">
        <ele>596.284</ele>
        <time>2020-05-15T16:55:19Z</time>
      </trkpt>
      <trkpt lat="43.09405" lon="-1.77093">
        <ele>596.261</ele>
        <time>2020-05-15T16:55:39Z</time>
      </trkpt>
      <trkpt lat="43.09405" lon="-1.77101">
        <ele>596.043</ele>
        <time>2020-05-15T16:55:59Z</time>
      </trkpt>
      <trkpt lat="43.09406" lon="-1.77107">
        <ele>595.945</ele>
        <time>2020-05-15T16:56:19Z</time>
      </trkpt>
      <trkpt lat="43.09407" lon="-1.77114">
        <ele>595.847</ele>
        <time>2020-05-15T16:56:39Z</time>
      </trkpt>
      <trkpt lat="43.09407" lon="-1.7712">
        <ele>595.511</ele>
        <time>2020-05-15T16:56:59Z</time>
      </trkpt>
      <trkpt lat="43.09408" lon="-1.77126">
        <ele>595.208</ele>
        <time>2020-05-15T16:57:19Z</time>
      </trkpt>
      <trkpt lat="43.09411" lon="-1.7714">
        <ele>594.658</ele>
        <time>2020-05-15T16:57:39Z</time>
      </trkpt>
      <trkpt lat="43.09415" lon="-1.77156">
        <ele>594.373</ele>
        <time>2020-05-15T16:57:59Z</time>
      </trkpt>
      <trkpt lat="43.09418" lon="-1.77167">
        <ele>593.797</ele>
        <time>2020-05-15T16:58:19Z</time>
      </trkpt>
      <trkpt lat="43.09419" lon="-1.77176">
        <ele>593.555</ele>
        <time>2020-05-15T16:58:39Z</time>
      </trkpt>
      <trkpt lat="43.09419" lon="-1.7718">
        <ele>593.53</ele>
        <time>2020-05-15T16:58:59Z</time>
      </trkpt>
      <trkpt lat="43.0942" lon="-1.77187">
        <ele>593.78</ele>
        <time>2020-05-15T16:59:19Z</time>
      </trkpt>
      <trkpt lat="43.0942" lon="-1.77189">
        <ele>593.437</ele>
        <time>2020-05-15T16:59:39Z</time>
      </trkpt>
      <trkpt lat="43.0942" lon="-1.77196">
        <ele>593.229</ele>
        <time>2020-05-15T16:59:59Z</time>
      </trkpt>
      <trkpt lat="43.09419" lon="-1.77202">
        <ele>593.151</ele>
        <time>2020-05-15T17:00:19Z</time>
      </trkpt>
      <trkpt lat="43.09419" lon="-1.77205">
        <ele>593.101</ele>
        <time>2020-05-15T17:00:39Z</time>
      </trkpt>
      <trkpt lat="43.09418" lon="-1.77211">
        <ele>592.911</ele>
        <time>2020-05-15T17:00:59Z</time>
      </trkpt>
      <trkpt lat="43.09416" lon="-1.77216">
        <ele>592.908</ele>
        <time>2020-05-15T17:01:19Z</time>
      </trkpt>
      <trkpt lat="43.09414" lon="-1.77225">
        <ele>592.519</ele>
        <time>2020-05-15T17:01:39Z</time>
      </trkpt>
      <trkpt lat="43.09409" lon="-1.77243">
        <ele>591.194</ele>
        <time>2020-05-15T17:01:59Z</time>
      </trkpt>
      <trkpt lat="43.09405" lon="-1.77259">
        <ele>591.598</ele>
        <time>2020-05-15T17:02:19Z</time>
      </trkpt>
      <trkpt lat="43.09403" lon="-1.77264">
        <ele>591.086</ele>
        <time>2020-05-15T17:02:39Z</time>
      </trkpt>
      <trkpt lat="43.09401" lon="-1.77271">
        <ele>589.731</ele>
        <time>2020-05-15T17:02:59Z</time>
      </trkpt>
      <trkpt lat="43.09399" lon="-1.77275">
        <ele>590.951</ele>
        <time>2020-05-15T17:03:19Z</time>
      </trkpt>
      <trkpt lat="43.09398" lon="-1.77277">
        <ele>590.958</ele>
        <time>2020-05-15T17:03:39Z</time>
      </trkpt>
      <trkpt lat="43.09396" lon="-1.77281">
        <ele>590.74</ele>
        <time>2020-05-15T17:03:59Z</time>
      </trkpt>
      <trkpt lat="43.09394" lon="-1.77285">
        <ele>590.721</ele>
        <time>2020-05-15T17:04:19Z</time>
      </trkpt>
      <trkpt lat="43.09392" lon="-1.77287">
        <ele>590.341</ele>
        <time>2020-05-15T17:04:39Z</time>
      </trkpt>
      <trkpt lat="43.09389" lon="-1.7729">
        <ele>590.605</ele>
        <time>2020-05-15T17:04:59Z</time>
      </trkpt>
      <trkpt lat="43.09387" lon="-1.77292">
        <ele>590.308</ele>
        <time>2020-05-15T17:05:19Z</time>
      </trkpt>
      <trkpt lat="43.09385" lon="-1.77293">
        <ele>590.496</ele>
        <time>2020-05-15T17:05:39Z</time>
      </trkpt>
      <trkpt lat="43.09382" lon="-1.77294">
        <ele>590.281</ele>
        <time>2020-05-15T17:05:59Z</time>
      </trkpt>
      <trkpt lat="43.09379" lon="-1.77296">
        <ele>590.245</ele>
        <time>2020-05-15T17:06:19Z</time>
      </trkpt>
      <trkpt lat="43.09375" lon="-1.77296">
        <ele>590.043</ele>
        <time>2020-05-15T17:06:39Z</time>
      </trkpt>
      <trkpt lat="43.09373" lon="-1.77297">
        <ele>589.858</ele>
        <time>2020-05-15T17:06:59Z</time>
      </trkpt>
      <trkpt lat="43.09367" lon="-1.77296">
        <ele>589.748</ele>
        <time>2020-05-15T17:07:19Z</time>
      </trkpt>
      <trkpt lat="43.09365" lon="-1.77295">
        <ele>589.475</ele>
        <time>2020-05-15T17:07:39Z</time>
      </trkpt>
      <trkpt lat="43.09361" lon="-1.77294">
        <ele>589.477</ele>
        <time>2020-05-15T17:07:59Z</time>
      </trkpt>
      <trkpt lat="43.09359" lon="-1.77293">
        <ele>589.075</ele>
        <time>2020-05-15T17:08:19Z</time>
      </trkpt>
      <trkpt lat="43.09357" lon="-1.77291">
        <ele>589.028</ele>
        <time>2020-05-15T17:08:39Z</time>
      </trkpt>
      <trkpt lat="43.09356" lon="-1.7729">
        <ele>588.82</ele>
        <time>2020-05-15T17:08:59Z</time>
      </trkpt>
      <trkpt lat="43.09353" lon="-1.77288">
        <ele>588.808</ele>
        <time>2020-05-15T17:09:19Z</time>
      </trkpt>
      <trkpt lat="43.09351" lon="-1.77285">
        <ele>588.141</ele>
        <time>2020-05-15T17:09:39Z</time>
      </trkpt>
      <trkpt lat="43.09349" lon="-1.77284">
        <ele>588.126</ele>
        <time>2020-05-15T17:09:59Z</time>
      </trkpt>
      <trkpt lat="43.09346" lon="-1.77281">
        <ele>587.64</ele>
        <time>2020-05-15T17:10:19Z</time>
      </trkpt>
      <trkpt lat="43.0934" lon="-1.77274">
        <ele>587.398</ele>
        <time>2020-05-15T17:10:39Z</time>
      </trkpt>
      <trkpt lat="43.09335" lon="-1.77267">
        <ele>587.073</ele>
        <time>2020-05-15T17:10:59Z</time>
      </trkpt>
      <trkpt lat="43.09331" lon="-1.77264">
        <ele>586.793</ele>
        <time>2020-05-15T17:11:19Z</time>
      </trkpt>
      <trkpt lat="43.09328" lon="-1.7726">
        <ele>586.21</ele>
        <time>2020-05-15T17:11:39Z</time>
      </trkpt>
      <trkpt lat="43.09325" lon="-1.77258">
        <ele>586.212</ele>
        <time>2020-05-15T17:11:59Z</time>
      </trkpt>
      <trkpt lat="43.09321" lon="-1.77255">
        <ele>586.085</ele>
        <time>2020-05-15T17:12:19Z</time>
      </trkpt>
      <trkpt lat="43.09318" lon="-1.77253">
        <ele>585.689</ele>
        <time>2020-05-15T17:12:39Z</time>
      </trkpt>
      <trkpt lat="43.09316" lon="-1.77252">
        <ele>585.617</ele>
        <time>2020-05-15T17:12:59Z</time>
      </trkpt>
      <trkpt lat="43.09314" lon="-1.77251">
        <ele>585.608</ele>
        <time>2020-05-15T17:13:19Z</time>
      </trkpt>
      <trkpt lat="43.09311" lon="-1.7725">
        <ele>585.612</ele>
        <time>2020-05-15T17:13:39Z</time>
      </trkpt>
      <trkpt lat="43.0931" lon="-1.77249">
        <ele>585.187</ele>
        <time>2020-05-15T17:13:59Z</time>
      </trkpt>
      <trkpt lat="43.09306" lon="-1.77248">
        <ele>585.131</ele>
        <time>2020-05-15T17:14:19Z</time>
      </trkpt>
      <trkpt lat="43.09303" lon="-1.77248">
        <ele>584.849</ele>
        <time>2020-05-15T17:14:39Z</time>
      </trkpt>
      <trkpt lat="43.093" lon="-1.77248">
        <ele>584.794</ele>
        <time>2020-05-15T17:14:59Z</time>
      </trkpt>
      <trkpt lat="43.09298" lon="-1.77248">
        <ele>584.734</ele>
        <time>2020-05-15T17:15:19Z</time>
      </trkpt>
      <trkpt lat="43.09296" lon="-1.77248">
        <ele>584.591</ele>
        <time>2020-05-15T17:15:39Z</time>
      </trkpt>
      <trkpt lat="43.09294" lon="-1.77249">
        <ele>584.593</ele>
        <time>2020-05-15T17:15:59Z</time>
      </trkpt>
      <trkpt lat="43.09292" lon="-1.7725">
        <ele>584.412</ele>
        <time>2020-05-15T17:16:19Z</time>
      </trkpt>
      <trkpt lat="43.09289" lon="-1.77251">
        <ele>584.432</ele>
        <time>2020-05-15T17:16:39Z</time>
      </trkpt>
      <trkpt lat="43.09287" lon="-1.77252">
        <ele>584.005</ele>
        <time>2020-05-15T17:16:59Z</time>
      </trkpt>
      <trkpt lat="43.09285" lon="-1.77253">
        <ele>584.008</ele>
        <time>2020-05-15T17:17:19Z</time>
      </trkpt>
      <trkpt lat="43.09283" lon="-1.77255">
        <ele>584.055</ele>
        <time>2020-05-15T17:17:39Z</time>
      </trkpt>
      <trkpt lat="43.09279" lon="-1.77257">
        <ele>584.08</ele>
        <time>2020-05-15T17:17:59Z</time>
      </trkpt>
      <trkpt lat="43.09275" lon="-1.7726">
        <ele>583.734</ele>
        <time>2020-05-15T17:18:19Z</time>
      </trkpt>
      <trkpt lat="43.09273" lon="-1.77262">
        <ele>583.752</ele>
        <time>2020-05-15T17:18:39Z</time>
      </trkpt>
      <trkpt lat="43.09271" lon="-1.77264">
        <ele>582.847</ele>
        <time>2020-05-15T17:18:59Z</time>
      </trkpt>
      <trkpt lat="43.09267" lon="-1.77268">
        <ele>583.187</ele>
        <time>2020-05-15T17:19:19Z</time>
      </trkpt>
      <trkpt lat="43.09257" lon="-1.77281">
        <ele>582.754</ele>
        <time>2020-05-15T17:19:39Z</time>
      </trkpt>
      <trkpt lat="43.09249" lon="-1.77291">
        <ele>582.286</ele>
        <time>2020-05-15T17:19:59Z</time>
      </trkpt>
      <trkpt lat="43.09245" lon="-1.77295">
        <ele>582.084</ele>
        <time>2020-05-15T17:20:19Z</time>
      </trkpt>
      <trkpt lat="43.09242" lon="-1.77299">
        <ele>581.407</ele>
        <time>2020-05-15T17:20:39Z</time>
      </trkpt>
      <trkpt lat="43.09241" lon="-1.77301">
        <ele>581.417</ele>
        <time>2020-05-15T17:20:59Z</time>
      </trkpt>
      <trkpt lat="43.09239" lon="-1.77303">
        <ele>581.508</ele>
        <time>2020-05-15T17:21:19Z</time>
      </trkpt>
      <trkpt lat="43.09236" lon="-1.77305">
        <ele>581.232</ele>
        <time>2020-05-15T17:21:39Z</time>
      </trkpt>
      <trkpt lat="43.09233" lon="-1.77308">
        <ele>580.847</ele>
        <time>2020-05-15T17:21:59Z</time>
      </trkpt>
      <trkpt lat="43.09231" lon="-1.77309">
        <ele>580.911</ele>
        <time>2020-05-15T17:22:19Z</time>
      </trkpt>
      <trkpt lat="43.09229" lon="-1.7731">
        <ele>580.589</ele>
        <time>2020-05-15T17:22:39Z</time>
      </trkpt>
      <trkpt lat="43.09226" lon="-1.77312">
        <ele>580.584</ele>
        <time>2020-05-15T17:22:59Z</time>
      </trkpt>
      <trkpt lat="43.09222" lon="-1.77313">
        <ele>579.864</ele>
        <time>2020-05-15T17:23:19Z</time>
      </trkpt>
      <trkpt lat="43.09221" lon="-1.77314">
        <ele>579.591</ele>
        <time>2020-05-15T17:23:39Z</time>
      </trkpt>
      <trkpt lat="43.09219" lon="-1.77314">
        <ele>579.553</ele>
        <time>2020-05-15T17:23:59Z</time>
      </trkpt>
      <trkpt lat="43.09216" lon="-1.77314">
        <ele>579.263</ele>
        <time>2020-05-15T17:24:19Z</time>
      </trkpt>
      <trkpt lat="43.09214" lon="-1.77314">
        <ele>579.244</ele>
        <time>2020-05-15T17:24:39Z</time>
      </trkpt>
      <trkpt lat="43.09212" lon="-1.77314">
        <ele>578.818</ele>
        <time>2020-05-15T17:24:59Z</time>
      </trkpt>
      <trkpt lat="43.09207" lon="-1.77311">
        <ele>578.508</ele>
        <time>2020-05-15T17:25:19Z</time>
      </trkpt>
      <trkpt lat="43.09206" lon="-1.7731">
        <ele>578.57</ele>
        <time>2020-05-15T17:25:39Z</time>
      </trkpt>
      <trkpt lat="43.09203" lon="-1.77308">
        <ele>578.215</ele>
        <time>2020-05-15T17:25:59Z</time>
      </trkpt>
      <trkpt lat="43.09202" lon="-1.77306">
        <ele>578.079</ele>
        <time>2020-05-15T17:26:19Z</time>
      </trkpt>
      <trkpt lat="43.09196" lon="-1.77298">
        <ele>577.777</ele>
        <time>2020-05-15T17:26:39Z</time>
      </trkpt>
      <trkpt lat="43.0919" lon="-1.7729">
        <ele>578.172</ele>
        <time>2020-05-15T17:26:59Z</time>
      </trkpt>
      <trkpt lat="43.09187" lon="-1.77286">
        <ele>576.682</ele>
        <time>2020-05-15T17:27:19Z</time>
      </trkpt>
      <trkpt lat="43.09183" lon="-1.77282">
        <ele>576.589</ele>
        <time>2020-05-15T17:27:39Z</time>
      </trkpt>
      <trkpt lat="43.09183" lon="-1.77281">
        <ele>576.591</ele>
        <time>2020-05-15T17:27:59Z</time>
      </trkpt>
      <trkpt lat="43.0918" lon="-1.7728">
        <ele>576.513</ele>
        <time>2020-05-15T17:28:19Z</time>
      </trkpt>
      <trkpt lat="43.09178" lon="-1.77278">
        <ele>576.243</ele>
        <time>2020-05-15T17:28:39Z</time>
      </trkpt>
      <trkpt lat="43.09176" lon="-1.77277">
        <ele>576.207</ele>
        <time>2020-05-15T17:28:59Z</time>
      </trkpt>
      <trkpt lat="43.09173" lon="-1.77277">
        <ele>575.908</ele>
        <time>2020-05-15T17:29:19Z</time>
      </trkpt>
      <trkpt lat="43.09171" lon="-1.77276">
        <ele>575.735</ele>
        <time>2020-05-15T17:29:39Z</time>
      </trkpt>
      <trkpt lat="43.09169" lon="-1.77276">
        <ele>575.77</ele>
        <time>2020-05-15T17:29:59Z</time>
      </trkpt>
      <trkpt lat="43.09162" lon="-1.77277">
        <ele>575.474</ele>
        <time>2020-05-15T17:30:19Z</time>
      </trkpt>
      <trkpt lat="43.09159" lon="-1.77278">
        <ele>575.322</ele>
        <time>2020-05-15T17:30:39Z</time>
      </trkpt>
      <trkpt lat="43.09155" lon="-1.77279">
        <ele>575.147</ele>
        <time>2020-05-15T17:30:59Z</time>
      </trkpt>
      <trkpt lat="43.09149" lon="-1.77281">
        <ele>574.737</ele>
        <time>2020-05-15T17:31:19Z</time>
      </trkpt>
      <trkpt lat="43.09144" lon="-1.77283">
        <ele>574.264</ele>
        <time>2020-05-15T17:31:39Z</time>
      </trkpt>
      <trkpt lat="43.09134" lon="-1.77287">
        <ele>573.526</ele>
        <time>2020-05-15T17:31:59Z</time>
      </trkpt>
      <trkpt lat="43.09124" lon="-1.77292">
        <ele>572.758</ele>
        <time>2020-05-15T17:32:19Z</time>
      </trkpt>
      <trkpt lat="43.09111" lon="-1.77298">
        <ele>571.752</ele>
        <time>2020-05-15T17:32:39Z</time>
      </trkpt>
      <trkpt lat="43.09098" lon="-1.77304">
        <ele>570.717</ele>
        <time>2020-05-15T17:32:59Z</time>
      </trkpt>
      <trkpt lat="43.09096" lon="-1.77305">
        <ele>570.608</ele>
        <time>2020-05-15T17:33:19Z</time>
      </trkpt>
      <trkpt lat="43.09094" lon="-1.77307">
        <ele>570.549</ele>
        <time>2020-05-15T17:33:39Z</time>
      </trkpt>
      <trkpt lat="43.09092" lon="-1.77309">
        <ele>570.584</ele>
        <time>2020-05-15T17:33:59Z</time>
      </trkpt>
      <trkpt lat="43.09089" lon="-1.77313">
        <ele>570.398</ele>
        <time>2020-05-15T17:34:19Z</time>
      </trkpt>
      <trkpt lat="43.09087" lon="-1.77315">
        <ele>570.346</ele>
        <time>2020-05-15T17:34:39Z</time>
      </trkpt>
      <trkpt lat="43.09085" lon="-1.77318">
        <ele>569.551</ele>
        <time>2020-05-15T17:34:59Z</time>
      </trkpt>
      <trkpt lat="43.09084" lon="-1.7732">
        <ele>569.591</ele>
        <time>2020-05-15T17:35:19Z</time>
      </trkpt>
      <trkpt lat="43.09082" lon="-1.77326">
        <ele>569.178</ele>
        <time>2020-05-15T17:35:39Z</time>
      </trkpt>
      <trkpt lat="43.0908" lon="-1.77332">
        <ele>568.63</ele>
        <time>2020-05-15T17:35:59Z</time>
      </trkpt>
      <trkpt lat="43.09078" lon="-1.77339">
        <ele>568.531</ele>
        <time>2020-05-15T17:36:19Z</time>
      </trkpt>
      <trkpt lat="43.09076" lon="-1.77345">
        <ele>568.061</ele>
        <time>2020-05-15T17:36:39Z</time>
      </trkpt>
      <trkpt lat="43.09074" lon="-1.77351">
        <ele>567.807</ele>
        <time>2020-05-15T17:36:59Z</time>
      </trkpt>
      <trkpt lat="43.09072" lon="-1.77356">
        <ele>567.408</ele>
        <time>2020-05-15T17:37:19Z</time>
      </trkpt>
      <trkpt lat="43.09068" lon="-1.77363">
        <ele>567.037</ele>
        <time>2020-05-15T17:37:39Z</time>
      </trkpt>
      <trkpt lat="43.09065" lon="-1.77371">
        <ele>566.652</ele>
        <time>2020-05-15T17:37:59Z</time>
      </trkpt>
      <trkpt lat="43.09056" lon="-1.77385">
        <ele>565.976</ele>
        <time>2020-05-15T17:38:19Z</time>
      </trkpt>
      <trkpt lat="43.09054" lon="-1.77388">
        <ele>565.644</ele>
        <time>2020-05-15T17:38:39Z</time>
      </trkpt>
      <trkpt lat="43.09051" lon="-1.77393">
        <ele>565.339</ele>
        <time>2020-05-15T17:38:59Z</time>
      </trkpt>
      <trkpt lat="43.09049" lon="-1.77395">
        <ele>565.389</ele>
        <time>2020-05-15T17:39:19Z</time>
      </trkpt>
      <trkpt lat="43.09048" lon="-1.77396">
        <ele>565.326</ele>
        <time>2020-05-15T17:39:39Z</time>
      </trkpt>
      <trkpt lat="43.09043" lon="-1.77402">
        <ele>565.018</ele>
        <time>2020-05-15T17:39:59Z</time>
      </trkpt>
      <trkpt lat="43.09033" lon="-1.77412">
        <ele>564.884</ele>
        <time>2020-05-15T17:40:19Z</time>
      </trkpt>
      <trkpt lat="43.09028" lon="-1.77418">
        <ele>564.807</ele>
        <time>2020-05-15T17:40:39Z</time>
      </trkpt>
      <trkpt lat="43.09024" lon="-1.77422">
        <ele>564.917</ele>
        <time>2020-05-15T17:40:59Z</time>
      </trkpt>
      <trkpt lat="43.09019" lon="-1.77426">
        <ele>564.908</ele>
        <time>2020-05-15T17:41:19Z</time>
      </trkpt>
      <trkpt lat="43.09018" lon="-1.77428">
        <ele>564.922</ele>
        <time>2020-05-15T17:41:39Z</time>
      </trkpt>
      <trkpt lat="43.09016" lon="-1.7743">
        <ele>564.617</ele>
        <time>2020-05-15T17:41:59Z</time>
      </trkpt>
      <trkpt lat="43.09014" lon="-1.77432">
        <ele>564.931</ele>
        <time>2020-05-15T17:42:19Z</time>
      </trkpt>
      <trkpt lat="43.09013" lon="-1.77434">
        <ele>564.919</ele>
        <time>2020-05-15T17:42:39Z</time>
      </trkpt>
      <trkpt lat="43.09012" lon="-1.77436">
        <ele>564.794</ele>
        <time>2020-05-15T17:42:59Z</time>
      </trkpt>
      <trkpt lat="43.0901" lon="-1.77438">
        <ele>565.214</ele>
        <time>2020-05-15T17:43:19Z</time>
      </trkpt>
      <trkpt lat="43.09009" lon="-1.77442">
        <ele>565.131</ele>
        <time>2020-05-15T17:43:39Z</time>
      </trkpt>
      <trkpt lat="43.09008" lon="-1.77446">
        <ele>565.163</ele>
        <time>2020-05-15T17:43:59Z</time>
      </trkpt>
      <trkpt lat="43.09006" lon="-1.77451">
        <ele>565.339</ele>
        <time>2020-05-15T17:44:19Z</time>
      </trkpt>
      <trkpt lat="43.09005" lon="-1.77457">
        <ele>565.301</ele>
        <time>2020-05-15T17:44:39Z</time>
      </trkpt>
      <trkpt lat="43.09003" lon="-1.77465">
        <ele>565.321</ele>
        <time>2020-05-15T17:44:59Z</time>
      </trkpt>
      <trkpt lat="43.09001" lon="-1.77473">
        <ele>565.508</ele>
        <time>2020-05-15T17:45:19Z</time>
      </trkpt>
      <trkpt lat="43.09" lon="-1.77479">
        <ele>565.647</ele>
        <time>2020-05-15T17:45:39Z</time>
      </trkpt>
      <trkpt lat="43.08998" lon="-1.77486">
        <ele>565.792</ele>
        <time>2020-05-15T17:45:59Z</time>
      </trkpt>
      <trkpt lat="43.08996" lon="-1.77491">
        <ele>566.156</ele>
        <time>2020-05-15T17:46:19Z</time>
      </trkpt>
      <trkpt lat="43.08995" lon="-1.77494">
        <ele>566.174</ele>
        <time>2020-05-15T17:46:39Z</time>
      </trkpt>
      <trkpt lat="43.08994" lon="-1.77496">
        <ele>566.119</ele>
        <time>2020-05-15T17:46:59Z</time>
      </trkpt>
      <trkpt lat="43.08992" lon="-1.775">
        <ele>566.039</ele>
        <time>2020-05-15T17:47:19Z</time>
      </trkpt>
      <trkpt lat="43.0899" lon="-1.77504">
        <ele>566.256</ele>
        <time>2020-05-15T17:47:39Z</time>
      </trkpt>
      <trkpt lat="43.08987" lon="-1.77509">
        <ele>566.248</ele>
        <time>2020-05-15T17:47:59Z</time>
      </trkpt>
      <trkpt lat="43.08986" lon="-1.77511">
        <ele>566.315</ele>
        <time>2020-05-15T17:48:19Z</time>
      </trkpt>
      <trkpt lat="43.08975" lon="-1.77526">
        <ele>566.765</ele>
        <time>2020-05-15T17:48:39Z</time>
      </trkpt>
      <trkpt lat="43.08964" lon="-1.7754">
        <ele>566.811</ele>
        <time>2020-05-15T17:48:59Z</time>
      </trkpt>
      <trkpt lat="43.08957" lon="-1.77552">
        <ele>567.408</ele>
        <time>2020-05-15T17:49:19Z</time>
      </trkpt>
      <trkpt lat="43.08949" lon="-1.77563">
        <ele>567.655</ele>
        <time>2020-05-15T17:49:39Z</time>
      </trkpt>
      <trkpt lat="43.0894" lon="-1.77576">
        <ele>567.57</ele>
        <time>2020-05-15T17:49:59Z</time>
      </trkpt>
      <trkpt lat="43.08931" lon="-1.7759">
        <ele>568.154</ele>
        <time>2020-05-15T17:50:19Z</time>
      </trkpt>
      <trkpt lat="43.08916" lon="-1.77617">
        <ele>567.372</ele>
        <time>2020-05-15T17:50:39Z</time>
      </trkpt>
      <trkpt lat="43.08898" lon="-1.7765">
        <ele>567.147</ele>
        <time>2020-05-15T17:50:59Z</time>
      </trkpt>
      <trkpt lat="43.08876" lon="-1.77689">
        <ele>566.827</ele>
        <time>2020-05-15T17:51:19Z</time>
      </trkpt>
      <trkpt lat="43.08856" lon="-1.77725">
        <ele>566.694</ele>
        <time>2020-05-15T17:51:39Z</time>
      </trkpt>
      <trkpt lat="43.0885" lon="-1.77736">
        <ele>566.516</ele>
        <time>2020-05-15T17:51:59Z</time>
      </trkpt>
      <trkpt lat="43.08844" lon="-1.77746">
        <ele>566.488</ele>
        <time>2020-05-15T17:52:19Z</time>
      </trkpt>
      <trkpt lat="43.0884" lon="-1.77756">
        <ele>566.424</ele>
        <time>2020-05-15T17:52:39Z</time>
      </trkpt>
      <trkpt lat="43.08835" lon="-1.77766">
        <ele>566.126</ele>
        <time>2020-05-15T17:52:59Z</time>
      </trkpt>
      <trkpt lat="43.08834" lon="-1.7777">
        <ele>566.208</ele>
        <time>2020-05-15T17:53:19Z</time>
      </trkpt>
      <trkpt lat="43.08832" lon="-1.77773">
        <ele>566.112</ele>
        <time>2020-05-15T17:53:39Z</time>
      </trkpt>
      <trkpt lat="43.08831" lon="-1.77775">
        <ele>566.137</ele>
        <time>2020-05-15T17:53:59Z</time>
      </trkpt>
      <trkpt lat="43.08831" lon="-1.77776">
        <ele>566.111</ele>
        <time>2020-05-15T17:54:19Z</time>
      </trkpt>
      <trkpt lat="43.0883" lon="-1.77777">
        <ele>565.959</ele>
        <time>2020-05-15T17:54:39Z</time>
      </trkpt>
      <trkpt lat="43.08829" lon="-1.77778">
        <ele>566.174</ele>
        <time>2020-05-15T17:54:59Z</time>
      </trkpt>
      <trkpt lat="43.08827" lon="-1.7778">
        <ele>566.154</ele>
        <time>2020-05-15T17:55:19Z</time>
      </trkpt>
      <trkpt lat="43.08825" lon="-1.77781">
        <ele>566.351</ele>
        <time>2020-05-15T17:55:39Z</time>
      </trkpt>
      <trkpt lat="43.08822" lon="-1.77783">
        <ele>566.383</ele>
        <time>2020-05-15T17:55:59Z</time>
      </trkpt>
      <trkpt lat="43.0882" lon="-1.77784">
        <ele>566.634</ele>
        <time>2020-05-15T17:56:19Z</time>
      </trkpt>
      <trkpt lat="43.08807" lon="-1.77792">
        <ele>567.755</ele>
        <time>2020-05-15T17:56:39Z</time>
      </trkpt>
      <trkpt lat="43.08793" lon="-1.77799">
        <ele>568.51</ele>
        <time>2020-05-15T17:56:59Z</time>
      </trkpt>
      <trkpt lat="43.08791" lon="-1.778">
        <ele>568.508</ele>
        <time>2020-05-15T17:57:19Z</time>
      </trkpt>
      <trkpt lat="43.08789" lon="-1.77801">
        <ele>568.787</ele>
        <time>2020-05-15T17:57:39Z</time>
      </trkpt>
      <trkpt lat="43.08783" lon="-1.77803">
        <ele>568.952</ele>
        <time>2020-05-15T17:57:59Z</time>
      </trkpt>
      <trkpt lat="43.08776" lon="-1.77805">
        <ele>569.276</ele>
        <time>2020-05-15T17:58:19Z</time>
      </trkpt>
      <trkpt lat="43.08759" lon="-1.77808">
        <ele>569.824</ele>
        <time>2020-05-15T17:58:39Z</time>
      </trkpt>
      <trkpt lat="43.08736" lon="-1.77812">
        <ele>570.659</ele>
        <time>2020-05-15T17:58:59Z</time>
      </trkpt>
      <trkpt lat="43.08721" lon="-1.77815">
        <ele>572.699</ele>
        <time>2020-05-15T17:59:19Z</time>
      </trkpt>
      <trkpt lat="43.08695" lon="-1.7782">
        <ele>571.056</ele>
        <time>2020-05-15T17:59:39Z</time>
      </trkpt>
      <trkpt lat="43.0868" lon="-1.77823">
        <ele>571.228</ele>
        <time>2020-05-15T17:59:59Z</time>
      </trkpt>
      <trkpt lat="43.08669" lon="-1.77825">
        <ele>571.378</ele>
        <time>2020-05-15T18:00:19Z</time>
      </trkpt>
      <trkpt lat="43.08664" lon="-1.77825">
        <ele>571.433</ele>
        <time>2020-05-15T18:00:39Z</time>
      </trkpt>
      <trkpt lat="43.08662" lon="-1.77825">
        <ele>571.426</ele>
        <time>2020-05-15T18:00:59Z</time>
      </trkpt>
      <trkpt lat="43.0866" lon="-1.77825">
        <ele>571.408</ele>
        <time>2020-05-15T18:01:19Z</time>
      </trkpt>
      <trkpt lat="43.08657" lon="-1.77825">
        <ele>571.591</ele>
        <time>2020-05-15T18:01:39Z</time>
      </trkpt>
      <trkpt lat="43.08656" lon="-1.77825">
        <ele>571.586</ele>
        <time>2020-05-15T18:01:59Z</time>
      </trkpt>
      <trkpt lat="43.08654" lon="-1.77824">
        <ele>571.78</ele>
        <time>2020-05-15T18:02:19Z</time>
      </trkpt>
      <trkpt lat="43.0865" lon="-1.77823">
        <ele>571.578</ele>
        <time>2020-05-15T18:02:39Z</time>
      </trkpt>
      <trkpt lat="43.08648" lon="-1.77822">
        <ele>571.633</ele>
        <time>2020-05-15T18:02:59Z</time>
      </trkpt>
      <trkpt lat="43.08646" lon="-1.77821">
        <ele>571.683</ele>
        <time>2020-05-15T18:03:19Z</time>
      </trkpt>
      <trkpt lat="43.08643" lon="-1.77819">
        <ele>571.89</ele>
        <time>2020-05-15T18:03:39Z</time>
      </trkpt>
      <trkpt lat="43.0864" lon="-1.77816">
        <ele>572.062</ele>
        <time>2020-05-15T18:03:59Z</time>
      </trkpt>
      <trkpt lat="43.08638" lon="-1.77815">
        <ele>572.066</ele>
        <time>2020-05-15T18:04:19Z</time>
      </trkpt>
      <trkpt lat="43.08637" lon="-1.77813">
        <ele>572.229</ele>
        <time>2020-05-15T18:04:39Z</time>
      </trkpt>
      <trkpt lat="43.08635" lon="-1.77811">
        <ele>572.221</ele>
        <time>2020-05-15T18:04:59Z</time>
      </trkpt>
      <trkpt lat="43.08631" lon="-1.77807">
        <ele>572.408</ele>
        <time>2020-05-15T18:05:19Z</time>
      </trkpt>
      <trkpt lat="43.08627" lon="-1.77802">
        <ele>572.44</ele>
        <time>2020-05-15T18:05:39Z</time>
      </trkpt>
      <trkpt lat="43.0862" lon="-1.77791">
        <ele>572.925</ele>
        <time>2020-05-15T18:05:59Z</time>
      </trkpt>
      <trkpt lat="43.08613" lon="-1.7778">
        <ele>573.379</ele>
        <time>2020-05-15T18:06:19Z</time>
      </trkpt>
      <trkpt lat="43.08595" lon="-1.77756">
        <ele>574.567</ele>
        <time>2020-05-15T18:06:39Z</time>
      </trkpt>
      <trkpt lat="43.08594" lon="-1.77753">
        <ele>574.642</ele>
        <time>2020-05-15T18:06:59Z</time>
      </trkpt>
      <trkpt lat="43.08592" lon="-1.7775">
        <ele>574.872</ele>
        <time>2020-05-15T18:07:19Z</time>
      </trkpt>
      <trkpt lat="43.08591" lon="-1.77747">
        <ele>574.849</ele>
        <time>2020-05-15T18:07:39Z</time>
      </trkpt>
      <trkpt lat="43.08587" lon="-1.77738">
        <ele>575.971</ele>
        <time>2020-05-15T18:07:59Z</time>
      </trkpt>
      <trkpt lat="43.0858" lon="-1.77722">
        <ele>575.247</ele>
        <time>2020-05-15T18:08:19Z</time>
      </trkpt>
      <trkpt lat="43.08577" lon="-1.77714">
        <ele>576.329</ele>
        <time>2020-05-15T18:08:39Z</time>
      </trkpt>
      <trkpt lat="43.08576" lon="-1.77711">
        <ele>576.321</ele>
        <time>2020-05-15T18:08:59Z</time>
      </trkpt>
      <trkpt lat="43.08575" lon="-1.77709">
        <ele>576.308</ele>
        <time>2020-05-15T18:09:19Z</time>
      </trkpt>
      <trkpt lat="43.0857" lon="-1.77698">
        <ele>576.848</ele>
        <time>2020-05-15T18:09:39Z</time>
      </trkpt>
      <trkpt lat="43.08568" lon="-1.7769">
        <ele>577.213</ele>
        <time>2020-05-15T18:09:59Z</time>
      </trkpt>
      <trkpt lat="43.08567" lon="-1.77688">
        <ele>577.287</ele>
        <time>2020-05-15T18:10:19Z</time>
      </trkpt>
      <trkpt lat="43.08566" lon="-1.77685">
        <ele>577.235</ele>
        <time>2020-05-15T18:10:39Z</time>
      </trkpt>
      <trkpt lat="43.08566" lon="-1.77682">
        <ele>577.23</ele>
        <time>2020-05-15T18:10:59Z</time>
      </trkpt>
      <trkpt lat="43.08565" lon="-1.77679">
        <ele>577.25</ele>
        <time>2020-05-15T18:11:19Z</time>
      </trkpt>
      <trkpt lat="43.08565" lon="-1.77675">
        <ele>577.387</ele>
        <time>2020-05-15T18:11:39Z</time>
      </trkpt>
      <trkpt lat="43.08565" lon="-1.77672">
        <ele>577.349</ele>
        <time>2020-05-15T18:11:59Z</time>
      </trkpt>
      <trkpt lat="43.08565" lon="-1.77669">
        <ele>577.699</ele>
        <time>2020-05-15T18:12:19Z</time>
      </trkpt>
      <trkpt lat="43.08566" lon="-1.77662">
        <ele>577.707</ele>
        <time>2020-05-15T18:12:39Z</time>
      </trkpt>
      <trkpt lat="43.0857" lon="-1.77639">
        <ele>578.327</ele>
        <time>2020-05-15T18:12:59Z</time>
      </trkpt>
      <trkpt lat="43.08576" lon="-1.77608">
        <ele>578.708</ele>
        <time>2020-05-15T18:13:19Z</time>
      </trkpt>
      <trkpt lat="43.08581" lon="-1.77574">
        <ele>580.253</ele>
        <time>2020-05-15T18:13:39Z</time>
      </trkpt>
      <trkpt lat="43.08585" lon="-1.77543">
        <ele>579.758</ele>
        <time>2020-05-15T18:13:59Z</time>
      </trkpt>
      <trkpt lat="43.08588" lon="-1.77526">
        <ele>579.832</ele>
        <time>2020-05-15T18:14:19Z</time>
      </trkpt>
      <trkpt lat="43.08589" lon="-1.77519">
        <ele>579.61</ele>
        <time>2020-05-15T18:14:39Z</time>
      </trkpt>
      <trkpt lat="43.08591" lon="-1.77506">
        <ele>579.545</ele>
        <time>2020-05-15T18:14:59Z</time>
      </trkpt>
      <trkpt lat="43.08591" lon="-1.77504">
        <ele>579.465</ele>
        <time>2020-05-15T18:15:19Z</time>
      </trkpt>
      <trkpt lat="43.08591" lon="-1.77501">
        <ele>579.422</ele>
        <time>2020-05-15T18:15:39Z</time>
      </trkpt>
      <trkpt lat="43.08591" lon="-1.77498">
        <ele>579.214</ele>
        <time>2020-05-15T18:15:59Z</time>
      </trkpt>
      <trkpt lat="43.08591" lon="-1.77495">
        <ele>579.295</ele>
        <time>2020-05-15T18:16:19Z</time>
      </trkpt>
      <trkpt lat="43.0859" lon="-1.7749">
        <ele>579.249</ele>
        <time>2020-05-15T18:16:39Z</time>
      </trkpt>
      <trkpt lat="43.08589" lon="-1.77488">
        <ele>579.223</ele>
        <time>2020-05-15T18:16:59Z</time>
      </trkpt>
      <trkpt lat="43.08589" lon="-1.77485">
        <ele>579.208</ele>
        <time>2020-05-15T18:17:19Z</time>
      </trkpt>
      <trkpt lat="43.08588" lon="-1.77483">
        <ele>579.243</ele>
        <time>2020-05-15T18:17:39Z</time>
      </trkpt>
      <trkpt lat="43.08587" lon="-1.77481">
        <ele>579.218</ele>
        <time>2020-05-15T18:17:59Z</time>
      </trkpt>
      <trkpt lat="43.08585" lon="-1.77478">
        <ele>579.232</ele>
        <time>2020-05-15T18:18:19Z</time>
      </trkpt>
      <trkpt lat="43.08583" lon="-1.77475">
        <ele>579.22</ele>
        <time>2020-05-15T18:18:39Z</time>
      </trkpt>
      <trkpt lat="43.08569" lon="-1.77457">
        <ele>579.175</ele>
        <time>2020-05-15T18:18:59Z</time>
      </trkpt>
      <trkpt lat="43.08554" lon="-1.77437">
        <ele>579.055</ele>
        <time>2020-05-15T18:19:19Z</time>
      </trkpt>
      <trkpt lat="43.0854" lon="-1.77418">
        <ele>578.972</ele>
        <time>2020-05-15T18:19:39Z</time>
      </trkpt>
      <trkpt lat="43.08527" lon="-1.77401">
        <ele>578.774</ele>
        <time>2020-05-15T18:19:59Z</time>
      </trkpt>
      <trkpt lat="43.08524" lon="-1.77398">
        <ele>578.759</ele>
        <time>2020-05-15T18:20:19Z</time>
      </trkpt>
      <trkpt lat="43.08521" lon="-1.77394">
        <ele>578.803</ele>
        <time>2020-05-15T18:20:39Z</time>
      </trkpt>
      <trkpt lat="43.08519" lon="-1.77393">
        <ele>578.923</ele>
        <time>2020-05-15T18:20:59Z</time>
      </trkpt>
      <trkpt lat="43.08517" lon="-1.77391">
        <ele>578.908</ele>
        <time>2020-05-15T18:21:19Z</time>
      </trkpt>
      <trkpt lat="43.08515" lon="-1.7739">
        <ele>578.999</ele>
        <time>2020-05-15T18:21:39Z</time>
      </trkpt>
      <trkpt lat="43.08513" lon="-1.77389">
        <ele>579.144</ele>
        <time>2020-05-15T18:21:59Z</time>
      </trkpt>
      <trkpt lat="43.08511" lon="-1.77388">
        <ele>579.138</ele>
        <time>2020-05-15T18:22:19Z</time>
      </trkpt>
      <trkpt lat="43.08508" lon="-1.77387">
        <ele>579.336</ele>
        <time>2020-05-15T18:22:39Z</time>
      </trkpt>
      <trkpt lat="43.08506" lon="-1.77387">
        <ele>579.371</ele>
        <time>2020-05-15T18:22:59Z</time>
      </trkpt>
      <trkpt lat="43.08504" lon="-1.77387">
        <ele>579.771</ele>
        <time>2020-05-15T18:23:19Z</time>
      </trkpt>
      <trkpt lat="43.08502" lon="-1.77388">
        <ele>579.728</ele>
        <time>2020-05-15T18:23:39Z</time>
      </trkpt>
      <trkpt lat="43.08499" lon="-1.77388">
        <ele>579.91</ele>
        <time>2020-05-15T18:23:59Z</time>
      </trkpt>
      <trkpt lat="43.08498" lon="-1.77389">
        <ele>579.924</ele>
        <time>2020-05-15T18:24:19Z</time>
      </trkpt>
      <trkpt lat="43.08496" lon="-1.7739">
        <ele>580.104</ele>
        <time>2020-05-15T18:24:39Z</time>
      </trkpt>
      <trkpt lat="43.08491" lon="-1.77394">
        <ele>580.314</ele>
        <time>2020-05-15T18:24:59Z</time>
      </trkpt>
      <trkpt lat="43.08489" lon="-1.77396">
        <ele>580.308</ele>
        <time>2020-05-15T18:25:19Z</time>
      </trkpt>
      <trkpt lat="43.08485" lon="-1.774">
        <ele>580.556</ele>
        <time>2020-05-15T18:25:39Z</time>
      </trkpt>
      <trkpt lat="43.08482" lon="-1.77404">
        <ele>580.841</ele>
        <time>2020-05-15T18:25:59Z</time>
      </trkpt>
      <trkpt lat="43.08469" lon="-1.77419">
        <ele>581.395</ele>
        <time>2020-05-15T18:26:19Z</time>
      </trkpt>
      <trkpt lat="43.08458" lon="-1.77434">
        <ele>581.613</ele>
        <time>2020-05-15T18:26:39Z</time>
      </trkpt>
      <trkpt lat="43.08457" lon="-1.77435">
        <ele>581.748</ele>
        <time>2020-05-15T18:26:59Z</time>
      </trkpt>
      <trkpt lat="43.0845" lon="-1.77442">
        <ele>581.918</ele>
        <time>2020-05-15T18:27:19Z</time>
      </trkpt>
      <trkpt lat="43.08447" lon="-1.77446">
        <ele>581.925</ele>
        <time>2020-05-15T18:27:39Z</time>
      </trkpt>
      <trkpt lat="43.08443" lon="-1.77449">
        <ele>581.957</ele>
        <time>2020-05-15T18:27:59Z</time>
      </trkpt>
      <trkpt lat="43.08435" lon="-1.77456">
        <ele>581.976</ele>
        <time>2020-05-15T18:28:19Z</time>
      </trkpt>
      <trkpt lat="43.08422" lon="-1.77466">
        <ele>581.09</ele>
        <time>2020-05-15T18:28:39Z</time>
      </trkpt>
      <trkpt lat="43.08414" lon="-1.77473">
        <ele>581.019</ele>
        <time>2020-05-15T18:28:59Z</time>
      </trkpt>
      <trkpt lat="43.0841" lon="-1.77477">
        <ele>581.108</ele>
        <time>2020-05-15T18:29:19Z</time>
      </trkpt>
      <trkpt lat="43.08405" lon="-1.77483">
        <ele>580.911</ele>
        <time>2020-05-15T18:29:39Z</time>
      </trkpt>
      <trkpt lat="43.084" lon="-1.77488">
        <ele>580.786</ele>
        <time>2020-05-15T18:29:59Z</time>
      </trkpt>
      <trkpt lat="43.08396" lon="-1.77493">
        <ele>580.26</ele>
        <time>2020-05-15T18:30:19Z</time>
      </trkpt>
      <trkpt lat="43.08395" lon="-1.77495">
        <ele>580.238</ele>
        <time>2020-05-15T18:30:39Z</time>
      </trkpt>
      <trkpt lat="43.08393" lon="-1.77498">
        <ele>580.363</ele>
        <time>2020-05-15T18:30:59Z</time>
      </trkpt>
      <trkpt lat="43.08391" lon="-1.77502">
        <ele>580.333</ele>
        <time>2020-05-15T18:31:19Z</time>
      </trkpt>
      <trkpt lat="43.08389" lon="-1.77506">
        <ele>580.51</ele>
        <time>2020-05-15T18:31:39Z</time>
      </trkpt>
      <trkpt lat="43.08387" lon="-1.7751">
        <ele>580.412</ele>
        <time>2020-05-15T18:31:59Z</time>
      </trkpt>
      <trkpt lat="43.08385" lon="-1.77515">
        <ele>580.472</ele>
        <time>2020-05-15T18:32:19Z</time>
      </trkpt>
      <trkpt lat="43.08384" lon="-1.77518">
        <ele>580.513</ele>
        <time>2020-05-15T18:32:39Z</time>
      </trkpt>
      <trkpt lat="43.08375" lon="-1.77546">
        <ele>580.814</ele>
        <time>2020-05-15T18:32:59Z</time>
      </trkpt>
      <trkpt lat="43.08367" lon="-1.77573">
        <ele>581.308</ele>
        <time>2020-05-15T18:33:19Z</time>
      </trkpt>
      <trkpt lat="43.08365" lon="-1.77579">
        <ele>581.231</ele>
        <time>2020-05-15T18:33:39Z</time>
      </trkpt>
      <trkpt lat="43.08363" lon="-1.77584">
        <ele>581.356</ele>
        <time>2020-05-15T18:33:59Z</time>
      </trkpt>
      <trkpt lat="43.0836" lon="-1.77593">
        <ele>580.97</ele>
        <time>2020-05-15T18:34:19Z</time>
      </trkpt>
      <trkpt lat="43.08356" lon="-1.77601">
        <ele>581.378</ele>
        <time>2020-05-15T18:34:39Z</time>
      </trkpt>
      <trkpt lat="43.08347" lon="-1.7762">
        <ele>582.043</ele>
        <time>2020-05-15T18:34:59Z</time>
      </trkpt>
      <trkpt lat="43.08337" lon="-1.77642">
        <ele>582.653</ele>
        <time>2020-05-15T18:35:19Z</time>
      </trkpt>
      <trkpt lat="43.08333" lon="-1.77649">
        <ele>582.66</ele>
        <time>2020-05-15T18:35:39Z</time>
      </trkpt>
      <trkpt lat="43.08331" lon="-1.77653">
        <ele>582.852</ele>
        <time>2020-05-15T18:35:59Z</time>
      </trkpt>
      <trkpt lat="43.08327" lon="-1.77662">
        <ele>583.058</ele>
        <time>2020-05-15T18:36:19Z</time>
      </trkpt>
      <trkpt lat="43.08324" lon="-1.77666">
        <ele>583.152</ele>
        <time>2020-05-15T18:36:39Z</time>
      </trkpt>
      <trkpt lat="43.08321" lon="-1.7767">
        <ele>583.117</ele>
        <time>2020-05-15T18:36:59Z</time>
      </trkpt>
      <trkpt lat="43.08318" lon="-1.77672">
        <ele>583.608</ele>
        <time>2020-05-15T18:37:19Z</time>
      </trkpt>
      <trkpt lat="43.08315" lon="-1.77675">
        <ele>583.689</ele>
        <time>2020-05-15T18:37:39Z</time>
      </trkpt>
      <trkpt lat="43.08312" lon="-1.77677">
        <ele>584.174</ele>
        <time>2020-05-15T18:37:59Z</time>
      </trkpt>
      <trkpt lat="43.08309" lon="-1.77678">
        <ele>583.818</ele>
        <time>2020-05-15T18:38:19Z</time>
      </trkpt>
      <trkpt lat="43.08304" lon="-1.7768">
        <ele>584.046</ele>
        <time>2020-05-15T18:38:39Z</time>
      </trkpt>
      <trkpt lat="43.08292" lon="-1.77684">
        <ele>584.461</ele>
        <time>2020-05-15T18:38:59Z</time>
      </trkpt>
      <trkpt lat="43.08288" lon="-1.77685">
        <ele>584.551</ele>
        <time>2020-05-15T18:39:19Z</time>
      </trkpt>
      <trkpt lat="43.08275" lon="-1.77688">
        <ele>585.028</ele>
        <time>2020-05-15T18:39:39Z</time>
      </trkpt>
      <trkpt lat="43.08266" lon="-1.7769">
        <ele>584.46</ele>
        <time>2020-05-15T18:39:59Z</time>
      </trkpt>
      <trkpt lat="43.0826" lon="-1.77691">
        <ele>584.717</ele>
        <time>2020-05-15T18:40:19Z</time>
      </trkpt>
      <trkpt lat="43.08251" lon="-1.77692">
        <ele>584.787</ele>
        <time>2020-05-15T18:40:39Z</time>
      </trkpt>
      <trkpt lat="43.08243" lon="-1.77693">
        <ele>584.915</ele>
        <time>2020-05-15T18:40:59Z</time>
      </trkpt>
      <trkpt lat="43.08227" lon="-1.77694">
        <ele>584.908</ele>
        <time>2020-05-15T18:41:19Z</time>
      </trkpt>
      <trkpt lat="43.08215" lon="-1.77695">
        <ele>585.175</ele>
        <time>2020-05-15T18:41:39Z</time>
      </trkpt>
      <trkpt lat="43.08207" lon="-1.77695">
        <ele>585.56</ele>
        <time>2020-05-15T18:41:59Z</time>
      </trkpt>
      <trkpt lat="43.08202" lon="-1.77695">
        <ele>585.664</ele>
        <time>2020-05-15T18:42:19Z</time>
      </trkpt>
      <trkpt lat="43.08195" lon="-1.77695">
        <ele>585.882</ele>
        <time>2020-05-15T18:42:39Z</time>
      </trkpt>
      <trkpt lat="43.08188" lon="-1.77695">
        <ele>586.197</ele>
        <time>2020-05-15T18:42:59Z</time>
      </trkpt>
      <trkpt lat="43.08184" lon="-1.77695">
        <ele>586.227</ele>
        <time>2020-05-15T18:43:19Z</time>
      </trkpt>
      <trkpt lat="43.08182" lon="-1.77695">
        <ele>586.244</ele>
        <time>2020-05-15T18:43:39Z</time>
      </trkpt>
      <trkpt lat="43.08179" lon="-1.77694">
        <ele>586.496</ele>
        <time>2020-05-15T18:43:59Z</time>
      </trkpt>
      <trkpt lat="43.08175" lon="-1.77693">
        <ele>586.587</ele>
        <time>2020-05-15T18:44:19Z</time>
      </trkpt>
      <trkpt lat="43.08173" lon="-1.77692">
        <ele>586.542</ele>
        <time>2020-05-15T18:44:39Z</time>
      </trkpt>
      <trkpt lat="43.0817" lon="-1.7769">
        <ele>586.626</ele>
        <time>2020-05-15T18:44:59Z</time>
      </trkpt>
      <trkpt lat="43.08167" lon="-1.77688">
        <ele>586.708</ele>
        <time>2020-05-15T18:45:19Z</time>
      </trkpt>
      <trkpt lat="43.08165" lon="-1.77687">
        <ele>586.782</ele>
        <time>2020-05-15T18:45:39Z</time>
      </trkpt>
      <trkpt lat="43.08162" lon="-1.77684">
        <ele>586.897</ele>
        <time>2020-05-15T18:45:59Z</time>
      </trkpt>
      <trkpt lat="43.08159" lon="-1.77682">
        <ele>586.841</ele>
        <time>2020-05-15T18:46:19Z</time>
      </trkpt>
      <trkpt lat="43.08156" lon="-1.77679">
        <ele>586.949</ele>
        <time>2020-05-15T18:46:39Z</time>
      </trkpt>
      <trkpt lat="43.08153" lon="-1.77675">
        <ele>586.934</ele>
        <time>2020-05-15T18:46:59Z</time>
      </trkpt>
      <trkpt lat="43.0815" lon="-1.77672">
        <ele>586.914</ele>
        <time>2020-05-15T18:47:19Z</time>
      </trkpt>
      <trkpt lat="43.08148" lon="-1.77669">
        <ele>587.091</ele>
        <time>2020-05-15T18:47:39Z</time>
      </trkpt>
      <trkpt lat="43.08139" lon="-1.77652">
        <ele>586.883</ele>
        <time>2020-05-15T18:47:59Z</time>
      </trkpt>
      <trkpt lat="43.0813" lon="-1.77635">
        <ele>586.549</ele>
        <time>2020-05-15T18:48:19Z</time>
      </trkpt>
      <trkpt lat="43.08116" lon="-1.77608">
        <ele>585.702</ele>
        <time>2020-05-15T18:48:39Z</time>
      </trkpt>
      <trkpt lat="43.08113" lon="-1.77602">
        <ele>585.622</ele>
        <time>2020-05-15T18:48:59Z</time>
      </trkpt>
      <trkpt lat="43.0811" lon="-1.77597">
        <ele>585.508</ele>
        <time>2020-05-15T18:49:19Z</time>
      </trkpt>
      <trkpt lat="43.08107" lon="-1.77593">
        <ele>585.488</ele>
        <time>2020-05-15T18:49:39Z</time>
      </trkpt>
      <trkpt lat="43.08105" lon="-1.7759">
        <ele>585.453</ele>
        <time>2020-05-15T18:49:59Z</time>
      </trkpt>
      <trkpt lat="43.08101" lon="-1.77587">
        <ele>585.297</ele>
        <time>2020-05-15T18:50:19Z</time>
      </trkpt>
      <trkpt lat="43.08098" lon="-1.77584">
        <ele>585.145</ele>
        <time>2020-05-15T18:50:39Z</time>
      </trkpt>
      <trkpt lat="43.08093" lon="-1.7758">
        <ele>585.14</ele>
        <time>2020-05-15T18:50:59Z</time>
      </trkpt>
      <trkpt lat="43.08088" lon="-1.77576">
        <ele>585.17</ele>
        <time>2020-05-15T18:51:19Z</time>
      </trkpt>
      <trkpt lat="43.08083" lon="-1.77573">
        <ele>584.967</ele>
        <time>2020-05-15T18:51:39Z</time>
      </trkpt>
      <trkpt lat="43.08078" lon="-1.77569">
        <ele>584.829</ele>
        <time>2020-05-15T18:51:59Z</time>
      </trkpt>
      <trkpt lat="43.08073" lon="-1.77564">
        <ele>585.045</ele>
        <time>2020-05-15T18:52:19Z</time>
      </trkpt>
      <trkpt lat="43.08068" lon="-1.7756">
        <ele>584.847</ele>
        <time>2020-05-15T18:52:39Z</time>
      </trkpt>
      <trkpt lat="43.08064" lon="-1.77556">
        <ele>584.811</ele>
        <time>2020-05-15T18:52:59Z</time>
      </trkpt>
      <trkpt lat="43.0806" lon="-1.77551">
        <ele>584.708</ele>
        <time>2020-05-15T18:53:19Z</time>
      </trkpt>
      <trkpt lat="43.08051" lon="-1.77539">
        <ele>586.138</ele>
        <time>2020-05-15T18:53:39Z</time>
      </trkpt>
      <trkpt lat="43.08041" lon="-1.77527">
        <ele>584.423</ele>
        <time>2020-05-15T18:53:59Z</time>
      </trkpt>
      <trkpt lat="43.08038" lon="-1.77523">
        <ele>584.347</ele>
        <time>2020-05-15T18:54:19Z</time>
      </trkpt>
      <trkpt lat="43.08034" lon="-1.77518">
        <ele>584.115</ele>
        <time>2020-05-15T18:54:39Z</time>
      </trkpt>
      <trkpt lat="43.0803" lon="-1.77515">
        <ele>583.91</ele>
        <time>2020-05-15T18:54:59Z</time>
      </trkpt>
      <trkpt lat="43.08026" lon="-1.77512">
        <ele>583.97</ele>
        <time>2020-05-15T18:55:19Z</time>
      </trkpt>
      <trkpt lat="43.08021" lon="-1.7751">
        <ele>583.777</ele>
        <time>2020-05-15T18:55:39Z</time>
      </trkpt>
      <trkpt lat="43.08017" lon="-1.77508">
        <ele>583.749</ele>
        <time>2020-05-15T18:55:59Z</time>
      </trkpt>
      <trkpt lat="43.08002" lon="-1.77505">
        <ele>583.268</ele>
        <time>2020-05-15T18:56:19Z</time>
      </trkpt>
      <trkpt lat="43.07995" lon="-1.77502">
        <ele>583.142</ele>
        <time>2020-05-15T18:56:39Z</time>
      </trkpt>
      <trkpt lat="43.07992" lon="-1.775">
        <ele>582.926</ele>
        <time>2020-05-15T18:56:59Z</time>
      </trkpt>
      <trkpt lat="43.07989" lon="-1.77498">
        <ele>582.408</ele>
        <time>2020-05-15T18:57:19Z</time>
      </trkpt>
      <trkpt lat="43.07987" lon="-1.77496">
        <ele>582.47</ele>
        <time>2020-05-15T18:57:39Z</time>
      </trkpt>
      <trkpt lat="43.07985" lon="-1.77493">
        <ele>582.475</ele>
        <time>2020-05-15T18:57:59Z</time>
      </trkpt>
      <trkpt lat="43.07983" lon="-1.7749">
        <ele>582.279</ele>
        <time>2020-05-15T18:58:19Z</time>
      </trkpt>
      <trkpt lat="43.07981" lon="-1.77486">
        <ele>583.257</ele>
        <time>2020-05-15T18:58:39Z</time>
      </trkpt>
      <trkpt lat="43.07979" lon="-1.77481">
        <ele>582.152</ele>
        <time>2020-05-15T18:58:59Z</time>
      </trkpt>
      <trkpt lat="43.07978" lon="-1.77477">
        <ele>581.812</ele>
        <time>2020-05-15T18:59:19Z</time>
      </trkpt>
      <trkpt lat="43.07976" lon="-1.77469">
        <ele>582.639</ele>
        <time>2020-05-15T18:59:39Z</time>
      </trkpt>
      <trkpt lat="43.07973" lon="-1.77456">
        <ele>581.071</ele>
        <time>2020-05-15T18:59:59Z</time>
      </trkpt>
      <trkpt lat="43.07972" lon="-1.77447">
        <ele>580.677</ele>
        <time>2020-05-15T19:00:19Z</time>
      </trkpt>
      <trkpt lat="43.0797" lon="-1.77443">
        <ele>580.561</ele>
        <time>2020-05-15T19:00:39Z</time>
      </trkpt>
      <trkpt lat="43.07969" lon="-1.7744">
        <ele>580.527</ele>
        <time>2020-05-15T19:00:59Z</time>
      </trkpt>
      <trkpt lat="43.07967" lon="-1.77437">
        <ele>580.208</ele>
        <time>2020-05-15T19:01:19Z</time>
      </trkpt>
      <trkpt lat="43.07965" lon="-1.77434">
        <ele>580.221</ele>
        <time>2020-05-15T19:01:39Z</time>
      </trkpt>
      <trkpt lat="43.07962" lon="-1.77432">
        <ele>580.286</ele>
        <time>2020-05-15T19:01:59Z</time>
      </trkpt>
      <trkpt lat="43.07959" lon="-1.7743">
        <ele>580.13</ele>
        <time>2020-05-15T19:02:19Z</time>
      </trkpt>
      <trkpt lat="43.07957" lon="-1.77429">
        <ele>579.618</ele>
        <time>2020-05-15T19:02:39Z</time>
      </trkpt>
      <trkpt lat="43.07954" lon="-1.77428">
        <ele>579.633</ele>
        <time>2020-05-15T19:02:59Z</time>
      </trkpt>
      <trkpt lat="43.07952" lon="-1.77428">
        <ele>579.573</ele>
        <time>2020-05-15T19:03:19Z</time>
      </trkpt>
      <trkpt lat="43.07948" lon="-1.77428">
        <ele>579.54</ele>
        <time>2020-05-15T19:03:39Z</time>
      </trkpt>
      <trkpt lat="43.07944" lon="-1.77429">
        <ele>579.462</ele>
        <time>2020-05-15T19:03:59Z</time>
      </trkpt>
      <trkpt lat="43.07939" lon="-1.77431">
        <ele>579.311</ele>
        <time>2020-05-15T19:04:19Z</time>
      </trkpt>
      <trkpt lat="43.07933" lon="-1.77433">
        <ele>579.021</ele>
        <time>2020-05-15T19:04:39Z</time>
      </trkpt>
      <trkpt lat="43.07927" lon="-1.77437">
        <ele>578.903</ele>
        <time>2020-05-15T19:04:59Z</time>
      </trkpt>
      <trkpt lat="43.07921" lon="-1.7744">
        <ele>578.508</ele>
        <time>2020-05-15T19:05:19Z</time>
      </trkpt>
      <trkpt lat="43.07912" lon="-1.77446">
        <ele>578.195</ele>
        <time>2020-05-15T19:05:39Z</time>
      </trkpt>
      <trkpt lat="43.07903" lon="-1.77451">
        <ele>577.57</ele>
        <time>2020-05-15T19:05:59Z</time>
      </trkpt>
      <trkpt lat="43.07895" lon="-1.77456">
        <ele>577.684</ele>
        <time>2020-05-15T19:06:19Z</time>
      </trkpt>
      <trkpt lat="43.07892" lon="-1.77456">
        <ele>577.512</ele>
        <time>2020-05-15T19:06:39Z</time>
      </trkpt>
      <trkpt lat="43.0789" lon="-1.77457">
        <ele>577.427</ele>
        <time>2020-05-15T19:06:59Z</time>
      </trkpt>
      <trkpt lat="43.07888" lon="-1.77457">
        <ele>577.477</ele>
        <time>2020-05-15T19:07:19Z</time>
      </trkpt>
      <trkpt lat="43.07886" lon="-1.77458">
        <ele>577.484</ele>
        <time>2020-05-15T19:07:39Z</time>
      </trkpt>
      <trkpt lat="43.07882" lon="-1.77457">
        <ele>577.196</ele>
        <time>2020-05-15T19:07:59Z</time>
      </trkpt>
      <trkpt lat="43.07879" lon="-1.77456">
        <ele>577.062</ele>
        <time>2020-05-15T19:08:19Z</time>
      </trkpt>
      <trkpt lat="43.07863" lon="-1.77451">
        <ele>577.283</ele>
        <time>2020-05-15T19:08:39Z</time>
      </trkpt>
      <trkpt lat="43.07847" lon="-1.77446">
        <ele>576.111</ele>
        <time>2020-05-15T19:08:59Z</time>
      </trkpt>
      <trkpt lat="43.07839" lon="-1.77443">
        <ele>575.308</ele>
        <time>2020-05-15T19:09:19Z</time>
      </trkpt>
      <trkpt lat="43.07824" lon="-1.77438">
        <ele>574.87</ele>
        <time>2020-05-15T19:09:39Z</time>
      </trkpt>
      <trkpt lat="43.07816" lon="-1.77434">
        <ele>574.825</ele>
        <time>2020-05-15T19:09:59Z</time>
      </trkpt>
      <trkpt lat="43.0781" lon="-1.77432">
        <ele>574.649</ele>
        <time>2020-05-15T19:10:19Z</time>
      </trkpt>
      <trkpt lat="43.07805" lon="-1.77429">
        <ele>574.537</ele>
        <time>2020-05-15T19:10:39Z</time>
      </trkpt>
      <trkpt lat="43.078" lon="-1.77426">
        <ele>575.022</ele>
        <time>2020-05-15T19:10:59Z</time>
      </trkpt>
      <trkpt lat="43.07795" lon="-1.77423">
        <ele>574.312</ele>
        <time>2020-05-15T19:11:19Z</time>
      </trkpt>
      <trkpt lat="43.0779" lon="-1.77419">
        <ele>574.099</ele>
        <time>2020-05-15T19:11:39Z</time>
      </trkpt>
      <trkpt lat="43.07786" lon="-1.77416">
        <ele>573.861</ele>
        <time>2020-05-15T19:11:59Z</time>
      </trkpt>
      <trkpt lat="43.07784" lon="-1.77413">
        <ele>573.835</ele>
        <time>2020-05-15T19:12:19Z</time>
      </trkpt>
      <trkpt lat="43.07781" lon="-1.77409">
        <ele>573.586</ele>
        <time>2020-05-15T19:12:39Z</time>
      </trkpt>
      <trkpt lat="43.07779" lon="-1.77405">
        <ele>573.514</ele>
        <time>2020-05-15T19:12:59Z</time>
      </trkpt>
      <trkpt lat="43.07777" lon="-1.77401">
        <ele>573.108</ele>
        <time>2020-05-15T19:13:19Z</time>
      </trkpt>
      <trkpt lat="43.07773" lon="-1.77391">
        <ele>572.797</ele>
        <time>2020-05-15T19:13:39Z</time>
      </trkpt>
      <trkpt lat="43.07769" lon="-1.77378">
        <ele>572.032</ele>
        <time>2020-05-15T19:13:59Z</time>
      </trkpt>
      <trkpt lat="43.07766" lon="-1.77372">
        <ele>572.026</ele>
        <time>2020-05-15T19:14:19Z</time>
      </trkpt>
      <trkpt lat="43.07763" lon="-1.77366">
        <ele>571.874</ele>
        <time>2020-05-15T19:14:39Z</time>
      </trkpt>
      <trkpt lat="43.0776" lon="-1.7736">
        <ele>571.519</ele>
        <time>2020-05-15T19:14:59Z</time>
      </trkpt>
      <trkpt lat="43.07758" lon="-1.77356">
        <ele>571.239</ele>
        <time>2020-05-15T19:15:19Z</time>
      </trkpt>
      <trkpt lat="43.07754" lon="-1.77352">
        <ele>570.876</ele>
        <time>2020-05-15T19:15:39Z</time>
      </trkpt>
      <trkpt lat="43.07751" lon="-1.7735">
        <ele>570.798</ele>
        <time>2020-05-15T19:15:59Z</time>
      </trkpt>
      <trkpt lat="43.07749" lon="-1.77349">
        <ele>570.445</ele>
        <time>2020-05-15T19:16:19Z</time>
      </trkpt>
      <trkpt lat="43.07747" lon="-1.77348">
        <ele>570.447</ele>
        <time>2020-05-15T19:16:39Z</time>
      </trkpt>
      <trkpt lat="43.07743" lon="-1.77347">
        <ele>570.011</ele>
        <time>2020-05-15T19:16:59Z</time>
      </trkpt>
      <trkpt lat="43.07742" lon="-1.77348">
        <ele>570.008</ele>
        <time>2020-05-15T19:17:19Z</time>
      </trkpt>
      <trkpt lat="43.07739" lon="-1.77349">
        <ele>569.838</ele>
        <time>2020-05-15T19:17:39Z</time>
      </trkpt>
      <trkpt lat="43.07738" lon="-1.7735">
        <ele>569.813</ele>
        <time>2020-05-15T19:17:59Z</time>
      </trkpt>
      <trkpt lat="43.07737" lon="-1.77351">
        <ele>569.617</ele>
        <time>2020-05-15T19:18:19Z</time>
      </trkpt>
      <trkpt lat="43.07735" lon="-1.77353">
        <ele>569.675</ele>
        <time>2020-05-15T19:18:39Z</time>
      </trkpt>
      <trkpt lat="43.07732" lon="-1.77357">
        <ele>569.03</ele>
        <time>2020-05-15T19:18:59Z</time>
      </trkpt>
      <trkpt lat="43.0773" lon="-1.77363">
        <ele>568.98</ele>
        <time>2020-05-15T19:19:19Z</time>
      </trkpt>
      <trkpt lat="43.07728" lon="-1.77366">
        <ele>568.917</ele>
        <time>2020-05-15T19:19:39Z</time>
      </trkpt>
      <trkpt lat="43.07725" lon="-1.77373">
        <ele>569.149</ele>
        <time>2020-05-15T19:19:59Z</time>
      </trkpt>
      <trkpt lat="43.07722" lon="-1.7738">
        <ele>569.198</ele>
        <time>2020-05-15T19:20:19Z</time>
      </trkpt>
      <trkpt lat="43.07719" lon="-1.77385">
        <ele>569.015</ele>
        <time>2020-05-15T19:20:39Z</time>
      </trkpt>
      <trkpt lat="43.07716" lon="-1.7739">
        <ele>569.226</ele>
        <time>2020-05-15T19:20:59Z</time>
      </trkpt>
      <trkpt lat="43.07713" lon="-1.77392">
        <ele>569.208</ele>
        <time>2020-05-15T19:21:19Z</time>
      </trkpt>
      <trkpt lat="43.0771" lon="-1.77395">
        <ele>569.373</ele>
        <time>2020-05-15T19:21:39Z</time>
      </trkpt>
      <trkpt lat="43.07707" lon="-1.77397">
        <ele>569.448</ele>
        <time>2020-05-15T19:21:59Z</time>
      </trkpt>
      <trkpt lat="43.07703" lon="-1.77398">
        <ele>569.522</ele>
        <time>2020-05-15T19:22:19Z</time>
      </trkpt>
      <trkpt lat="43.07699" lon="-1.77399">
        <ele>569.43</ele>
        <time>2020-05-15T19:22:39Z</time>
      </trkpt>
      <trkpt lat="43.07695" lon="-1.774">
        <ele>569.585</ele>
        <time>2020-05-15T19:22:59Z</time>
      </trkpt>
      <trkpt lat="43.07689" lon="-1.774">
        <ele>569.855</ele>
        <time>2020-05-15T19:23:19Z</time>
      </trkpt>
      <trkpt lat="43.07673" lon="-1.77401">
        <ele>570.342</ele>
        <time>2020-05-15T19:23:39Z</time>
      </trkpt>
      <trkpt lat="43.07654" lon="-1.77403">
        <ele>570.654</ele>
        <time>2020-05-15T19:23:59Z</time>
      </trkpt>
      <trkpt lat="43.07643" lon="-1.77404">
        <ele>570.675</ele>
        <time>2020-05-15T19:24:19Z</time>
      </trkpt>
      <trkpt lat="43.07634" lon="-1.77405">
        <ele>571.028</ele>
        <time>2020-05-15T19:24:39Z</time>
      </trkpt>
      <trkpt lat="43.07624" lon="-1.77406">
        <ele>571.42</ele>
        <time>2020-05-15T19:24:59Z</time>
      </trkpt>
      <trkpt lat="43.07618" lon="-1.77405">
        <ele>572.908</ele>
        <time>2020-05-15T19:25:19Z</time>
      </trkpt>
      <trkpt lat="43.07612" lon="-1.77405">
        <ele>571.991</ele>
        <time>2020-05-15T19:25:39Z</time>
      </trkpt>
      <trkpt lat="43.07605" lon="-1.77404">
        <ele>572.046</ele>
        <time>2020-05-15T19:25:59Z</time>
      </trkpt>
      <trkpt lat="43.07598" lon="-1.77404">
        <ele>572.33</ele>
        <time>2020-05-15T19:26:19Z</time>
      </trkpt>
      <trkpt lat="43.0759" lon="-1.77402">
        <ele>572.568</ele>
        <time>2020-05-15T19:26:39Z</time>
      </trkpt>
      <trkpt lat="43.07582" lon="-1.774">
        <ele>572.963</ele>
        <time>2020-05-15T19:26:59Z</time>
      </trkpt>
      <trkpt lat="43.07574" lon="-1.77398">
        <ele>573.173</ele>
        <time>2020-05-15T19:27:19Z</time>
      </trkpt>
      <trkpt lat="43.07566" lon="-1.77396">
        <ele>573.12</ele>
        <time>2020-05-15T19:27:39Z</time>
      </trkpt>
      <trkpt lat="43.07561" lon="-1.77394">
        <ele>573.432</ele>
        <time>2020-05-15T19:27:59Z</time>
      </trkpt>
      <trkpt lat="43.07552" lon="-1.77391">
        <ele>573.724</ele>
        <time>2020-05-15T19:28:19Z</time>
      </trkpt>
      <trkpt lat="43.07548" lon="-1.77389">
        <ele>574.004</ele>
        <time>2020-05-15T19:28:39Z</time>
      </trkpt>
      <trkpt lat="43.07542" lon="-1.77384">
        <ele>574.514</ele>
        <time>2020-05-15T19:28:59Z</time>
      </trkpt>
      <trkpt lat="43.07535" lon="-1.77379">
        <ele>574.808</ele>
        <time>2020-05-15T19:29:19Z</time>
      </trkpt>
      <trkpt lat="43.0753" lon="-1.77377">
        <ele>575.286</ele>
        <time>2020-05-15T19:29:39Z</time>
      </trkpt>
      <trkpt lat="43.07525" lon="-1.77374">
        <ele>575.621</ele>
        <time>2020-05-15T19:29:59Z</time>
      </trkpt>
      <trkpt lat="43.07517" lon="-1.77371">
        <ele>576.215</ele>
        <time>2020-05-15T19:30:19Z</time>
      </trkpt>
      <trkpt lat="43.07506" lon="-1.77367">
        <ele>577.533</ele>
        <time>2020-05-15T19:30:39Z</time>
      </trkpt>
      <trkpt lat="43.07502" lon="-1.77366">
        <ele>578.018</ele>
        <time>2020-05-15T19:30:59Z</time>
      </trkpt>
      <trkpt lat="43.07499" lon="-1.77364">
        <ele>578.088</ele>
        <time>2020-05-15T19:31:19Z</time>
      </trkpt>
      <trkpt lat="43.07497" lon="-1.77362">
        <ele>578.375</ele>
        <time>2020-05-15T19:31:39Z</time>
      </trkpt>
      <trkpt lat="43.07495" lon="-1.77361">
        <ele>580.057</ele>
        <time>2020-05-15T19:31:59Z</time>
      </trkpt>
      <trkpt lat="43.07493" lon="-1.77359">
        <ele>580.042</ele>
        <time>2020-05-15T19:32:19Z</time>
      </trkpt>
      <trkpt lat="43.07491" lon="-1.77356">
        <ele>579.222</ele>
        <time>2020-05-15T19:32:39Z</time>
      </trkpt>
      <trkpt lat="43.0749" lon="-1.77354">
        <ele>579.314</ele>
        <time>2020-05-15T19:32:59Z</time>
      </trkpt>
      <trkpt lat="43.07486" lon="-1.77347">
        <ele>579.808</ele>
        <time>2020-05-15T19:33:19Z</time>
      </trkpt>
      <trkpt lat="43.07482" lon="-1.77338">
        <ele>580.238</ele>
        <time>2020-05-15T19:33:39Z</time>
      </trkpt>
      <trkpt lat="43.07477" lon="-1.77328">
        <ele>580.963</ele>
        <time>2020-05-15T19:33:59Z</time>
      </trkpt>
      <trkpt lat="43.07469" lon="-1.77311">
        <ele>582.787</ele>
        <time>2020-05-15T19:34:19Z</time>
      </trkpt>
      <trkpt lat="43.07465" lon="-1.77302">
        <ele>583.165</ele>
        <time>2020-05-15T19:34:39Z</time>
      </trkpt>
      <trkpt lat="43.0746" lon="-1.77291">
        <ele>584.07</ele>
        <time>2020-05-15T19:34:59Z</time>
      </trkpt>
      <trkpt lat="43.07459" lon="-1.77289">
        <ele>584.07</ele>
        <time>2020-05-15T19:35:19Z</time>
      </trkpt>
      <trkpt lat="43.07458" lon="-1.77285">
        <ele>584.647</ele>
        <time>2020-05-15T19:35:39Z</time>
      </trkpt>
      <trkpt lat="43.07458" lon="-1.77282">
        <ele>584.619</ele>
        <time>2020-05-15T19:35:59Z</time>
      </trkpt>
      <trkpt lat="43.07457" lon="-1.77279">
        <ele>585.137</ele>
        <time>2020-05-15T19:36:19Z</time>
      </trkpt>
      <trkpt lat="43.07457" lon="-1.77274">
        <ele>586.749</ele>
        <time>2020-05-15T19:36:39Z</time>
      </trkpt>
      <trkpt lat="43.07457" lon="-1.77272">
        <ele>586.713</ele>
        <time>2020-05-15T19:36:59Z</time>
      </trkpt>
      <trkpt lat="43.07457" lon="-1.77268">
        <ele>585.908</ele>
        <time>2020-05-15T19:37:19Z</time>
      </trkpt>
      <trkpt lat="43.07457" lon="-1.77261">
        <ele>586.287</ele>
        <time>2020-05-15T19:37:39Z</time>
      </trkpt>
      <trkpt lat="43.07458" lon="-1.77254">
        <ele>586.722</ele>
        <time>2020-05-15T19:37:59Z</time>
      </trkpt>
      <trkpt lat="43.07459" lon="-1.77249">
        <ele>587.046</ele>
        <time>2020-05-15T19:38:19Z</time>
      </trkpt>
      <trkpt lat="43.0746" lon="-1.7724">
        <ele>589.734</ele>
        <time>2020-05-15T19:38:39Z</time>
      </trkpt>
      <trkpt lat="43.07461" lon="-1.77225">
        <ele>587.919</ele>
        <time>2020-05-15T19:38:59Z</time>
      </trkpt>
      <trkpt lat="43.07461" lon="-1.77221">
        <ele>587.979</ele>
        <time>2020-05-15T19:39:19Z</time>
      </trkpt>
      <trkpt lat="43.07462" lon="-1.77217">
        <ele>588.176</ele>
        <time>2020-05-15T19:39:39Z</time>
      </trkpt>
      <trkpt lat="43.07461" lon="-1.77211">
        <ele>588.578</ele>
        <time>2020-05-15T19:39:59Z</time>
      </trkpt>
      <trkpt lat="43.07461" lon="-1.77208">
        <ele>588.644</ele>
        <time>2020-05-15T19:40:19Z</time>
      </trkpt>
      <trkpt lat="43.07461" lon="-1.77205">
        <ele>588.605</ele>
        <time>2020-05-15T19:40:39Z</time>
      </trkpt>
      <trkpt lat="43.0746" lon="-1.77195">
        <ele>588.715</ele>
        <time>2020-05-15T19:40:59Z</time>
      </trkpt>
      <trkpt lat="43.07459" lon="-1.77192">
        <ele>588.708</ele>
        <time>2020-05-15T19:41:19Z</time>
      </trkpt>
      <trkpt lat="43.07459" lon="-1.77187">
        <ele>589.168</ele>
        <time>2020-05-15T19:41:39Z</time>
      </trkpt>
      <trkpt lat="43.07456" lon="-1.77177">
        <ele>589.213</ele>
        <time>2020-05-15T19:41:59Z</time>
      </trkpt>
      <trkpt lat="43.07454" lon="-1.77168">
        <ele>589.097</ele>
        <time>2020-05-15T19:42:19Z</time>
      </trkpt>
      <trkpt lat="43.07452" lon="-1.77161">
        <ele>589.625</ele>
        <time>2020-05-15T19:42:39Z</time>
      </trkpt>
      <trkpt lat="43.07451" lon="-1.77155">
        <ele>589.82</ele>
        <time>2020-05-15T19:42:59Z</time>
      </trkpt>
      <trkpt lat="43.0745" lon="-1.77152">
        <ele>590.08</ele>
        <time>2020-05-15T19:43:19Z</time>
      </trkpt>
      <trkpt lat="43.07448" lon="-1.77146">
        <ele>590.287</ele>
        <time>2020-05-15T19:43:39Z</time>
      </trkpt>
      <trkpt lat="43.07445" lon="-1.77141">
        <ele>590.299</ele>
        <time>2020-05-15T19:43:59Z</time>
      </trkpt>
      <trkpt lat="43.07442" lon="-1.77134">
        <ele>590.978</ele>
        <time>2020-05-15T19:44:19Z</time>
      </trkpt>
      <trkpt lat="43.07436" lon="-1.77121">
        <ele>591.733</ele>
        <time>2020-05-15T19:44:39Z</time>
      </trkpt>
      <trkpt lat="43.07433" lon="-1.77115">
        <ele>592.026</ele>
        <time>2020-05-15T19:44:59Z</time>
      </trkpt>
      <trkpt lat="43.07424" lon="-1.77099">
        <ele>592.508</ele>
        <time>2020-05-15T19:45:19Z</time>
      </trkpt>
      <trkpt lat="43.07416" lon="-1.77085">
        <ele>593.261</ele>
        <time>2020-05-15T19:45:39Z</time>
      </trkpt>
      <trkpt lat="43.07411" lon="-1.77075">
        <ele>593.596</ele>
        <time>2020-05-15T19:45:59Z</time>
      </trkpt>
      <trkpt lat="43.07406" lon="-1.77063">
        <ele>593.94</ele>
        <time>2020-05-15T19:46:19Z</time>
      </trkpt>
      <trkpt lat="43.07399" lon="-1.7705">
        <ele>594.428</ele>
        <time>2020-05-15T19:46:39Z</time>
      </trkpt>
      <trkpt lat="43.07386" lon="-1.77025">
        <ele>596.393</ele>
        <time>2020-05-15T19:46:59Z</time>
      </trkpt>
      <trkpt lat="43.07373" lon="-1.76999">
        <ele>598.163</ele>
        <time>2020-05-15T19:47:19Z</time>
      </trkpt>
      <trkpt lat="43.07366" lon="-1.76986">
        <ele>599.01</ele>
        <time>2020-05-15T19:47:39Z</time>
      </trkpt>
      <trkpt lat="43.0736" lon="-1.76974">
        <ele>599.742</ele>
        <time>2020-05-15T19:47:59Z</time>
      </trkpt>
      <trkpt lat="43.07354" lon="-1.76963">
        <ele>600.577</ele>
        <time>2020-05-15T19:48:19Z</time>
      </trkpt>
      <trkpt lat="43.07349" lon="-1.76953">
        <ele>600.961</ele>
        <time>2020-05-15T19:48:39Z</time>
      </trkpt>
      <trkpt lat="43.07341" lon="-1.76939">
        <ele>602.427</ele>
        <time>2020-05-15T19:48:59Z</time>
      </trkpt>
      <trkpt lat="43.07331" lon="-1.7692">
        <ele>604.208</ele>
        <time>2020-05-15T19:49:19Z</time>
      </trkpt>
      <trkpt lat="43.07324" lon="-1.76907">
        <ele>605.791</ele>
        <time>2020-05-15T19:49:39Z</time>
      </trkpt>
      <trkpt lat="43.07317" lon="-1.76894">
        <ele>607.016</ele>
        <time>2020-05-15T19:49:59Z</time>
      </trkpt>
      <trkpt lat="43.07307" lon="-1.76875">
        <ele>608.91</ele>
        <time>2020-05-15T19:50:19Z</time>
      </trkpt>
      <trkpt lat="43.07302" lon="-1.76866">
        <ele>610.828</ele>
        <time>2020-05-15T19:50:39Z</time>
      </trkpt>
      <trkpt lat="43.07296" lon="-1.76857">
        <ele>611.443</ele>
        <time>2020-05-15T19:50:59Z</time>
      </trkpt>
      <trkpt lat="43.07292" lon="-1.76851">
        <ele>611.873</ele>
        <time>2020-05-15T19:51:19Z</time>
      </trkpt>
      <trkpt lat="43.0729" lon="-1.76847">
        <ele>612.14</ele>
        <time>2020-05-15T19:51:39Z</time>
      </trkpt>
      <trkpt lat="43.07288" lon="-1.76842">
        <ele>612.972</ele>
        <time>2020-05-15T19:51:59Z</time>
      </trkpt>
      <trkpt lat="43.07287" lon="-1.76838">
        <ele>612.961</ele>
        <time>2020-05-15T19:52:19Z</time>
      </trkpt>
      <trkpt lat="43.07285" lon="-1.76833">
        <ele>613.021</ele>
        <time>2020-05-15T19:52:39Z</time>
      </trkpt>
      <trkpt lat="43.07284" lon="-1.76828">
        <ele>613.113</ele>
        <time>2020-05-15T19:52:59Z</time>
      </trkpt>
      <trkpt lat="43.07284" lon="-1.76824">
        <ele>613.408</ele>
        <time>2020-05-15T19:53:19Z</time>
      </trkpt>
      <trkpt lat="43.07283" lon="-1.76817">
        <ele>613.59</ele>
        <time>2020-05-15T19:53:39Z</time>
      </trkpt>
      <trkpt lat="43.07283" lon="-1.76811">
        <ele>613.655</ele>
        <time>2020-05-15T19:53:59Z</time>
      </trkpt>
      <trkpt lat="43.07282" lon="-1.7679">
        <ele>614.249</ele>
        <time>2020-05-15T19:54:19Z</time>
      </trkpt>
      <trkpt lat="43.07281" lon="-1.76766">
        <ele>614.857</ele>
        <time>2020-05-15T19:54:39Z</time>
      </trkpt>
      <trkpt lat="43.07281" lon="-1.76744">
        <ele>615.452</ele>
        <time>2020-05-15T19:54:59Z</time>
      </trkpt>
      <trkpt lat="43.0728" lon="-1.76722">
        <ele>616.132</ele>
        <time>2020-05-15T19:55:19Z</time>
      </trkpt>
      <trkpt lat="43.0728" lon="-1.76714">
        <ele>616.679</ele>
        <time>2020-05-15T19:55:39Z</time>
      </trkpt>
      <trkpt lat="43.07279" lon="-1.76707">
        <ele>616.771</ele>
        <time>2020-05-15T19:55:59Z</time>
      </trkpt>
      <trkpt lat="43.07279" lon="-1.767">
        <ele>617.154</ele>
        <time>2020-05-15T19:56:19Z</time>
      </trkpt>
      <trkpt lat="43.07278" lon="-1.76691">
        <ele>617.356</ele>
        <time>2020-05-15T19:56:39Z</time>
      </trkpt>
      <trkpt lat="43.07274" lon="-1.76665">
        <ele>619.611</ele>
        <time>2020-05-15T19:56:59Z</time>
      </trkpt>
      <trkpt lat="43.0727" lon="-1.76642">
        <ele>621.308</ele>
        <time>2020-05-15T19:57:19Z</time>
      </trkpt>
      <trkpt lat="43.07269" lon="-1.76634">
        <ele>624.519</ele>
        <time>2020-05-15T19:57:39Z</time>
      </trkpt>
      <trkpt lat="43.07267" lon="-1.76622">
        <ele>623.834</ele>
        <time>2020-05-15T19:57:59Z</time>
      </trkpt>
      <trkpt lat="43.07264" lon="-1.76601">
        <ele>625.888</ele>
        <time>2020-05-15T19:58:19Z</time>
      </trkpt>
      <trkpt lat="43.07262" lon="-1.76587">
        <ele>626.866</ele>
        <time>2020-05-15T19:58:39Z</time>
      </trkpt>
      <trkpt lat="43.07261" lon="-1.7658">
        <ele>627.381</ele>
        <time>2020-05-15T19:58:59Z</time>
      </trkpt>
      <trkpt lat="43.07259" lon="-1.76573">
        <ele>628.481</ele>
        <time>2020-05-15T19:59:19Z</time>
      </trkpt>
      <trkpt lat="43.07257" lon="-1.76568">
        <ele>628.948</ele>
        <time>2020-05-15T19:59:39Z</time>
      </trkpt>
      <trkpt lat="43.07255" lon="-1.76563">
        <ele>629.35</ele>
        <time>2020-05-15T19:59:59Z</time>
      </trkpt>
      <trkpt lat="43.07254" lon="-1.7656">
        <ele>630.011</ele>
        <time>2020-05-15T20:00:19Z</time>
      </trkpt>
      <trkpt lat="43.07251" lon="-1.76557">
        <ele>630.021</ele>
        <time>2020-05-15T20:00:39Z</time>
      </trkpt>
      <trkpt lat="43.07249" lon="-1.76555">
        <ele>631.403</ele>
        <time>2020-05-15T20:00:59Z</time>
      </trkpt>
      <trkpt lat="43.07246" lon="-1.76553">
        <ele>631.408</ele>
        <time>2020-05-15T20:01:19Z</time>
      </trkpt>
      <trkpt lat="43.07242" lon="-1.76552">
        <ele>631.855</ele>
        <time>2020-05-15T20:01:39Z</time>
      </trkpt>
      <trkpt lat="43.0724" lon="-1.76552">
        <ele>632.28</ele>
        <time>2020-05-15T20:01:59Z</time>
      </trkpt>
      <trkpt lat="43.07236" lon="-1.76554">
        <ele>632.574</ele>
        <time>2020-05-15T20:02:19Z</time>
      </trkpt>
      <trkpt lat="43.07234" lon="-1.76559">
        <ele>632.732</ele>
        <time>2020-05-15T20:02:39Z</time>
      </trkpt>
      <trkpt lat="43.07233" lon="-1.76561">
        <ele>632.737</ele>
        <time>2020-05-15T20:02:59Z</time>
      </trkpt>
      <trkpt lat="43.07232" lon="-1.76566">
        <ele>633.347</ele>
        <time>2020-05-15T20:03:19Z</time>
      </trkpt>
      <trkpt lat="43.07231" lon="-1.76571">
        <ele>633.334</ele>
        <time>2020-05-15T20:03:39Z</time>
      </trkpt>
      <trkpt lat="43.07233" lon="-1.76597">
        <ele>634.156</ele>
        <time>2020-05-15T20:03:59Z</time>
      </trkpt>
      <trkpt lat="43.07234" lon="-1.76624">
        <ele>635.239</ele>
        <time>2020-05-15T20:04:19Z</time>
      </trkpt>
      <trkpt lat="43.07236" lon="-1.76645">
        <ele>635.301</ele>
        <time>2020-05-15T20:04:39Z</time>
      </trkpt>
      <trkpt lat="43.07237" lon="-1.76667">
        <ele>634.721</ele>
        <time>2020-05-15T20:04:59Z</time>
      </trkpt>
      <trkpt lat="43.07237" lon="-1.76678">
        <ele>634.508</ele>
        <time>2020-05-15T20:05:19Z</time>
      </trkpt>
      <trkpt lat="43.07237" lon="-1.76689">
        <ele>634.187</ele>
        <time>2020-05-15T20:05:39Z</time>
      </trkpt>
      <trkpt lat="43.07236" lon="-1.76698">
        <ele>633.752</ele>
        <time>2020-05-15T20:05:59Z</time>
      </trkpt>
      <trkpt lat="43.07236" lon="-1.76707">
        <ele>633.336</ele>
        <time>2020-05-15T20:06:19Z</time>
      </trkpt>
      <trkpt lat="43.07232" lon="-1.76729">
        <ele>632.484</ele>
        <time>2020-05-15T20:06:39Z</time>
      </trkpt>
      <trkpt lat="43.07228" lon="-1.76751">
        <ele>632.149</ele>
        <time>2020-05-15T20:06:59Z</time>
      </trkpt>
      <trkpt lat="43.07226" lon="-1.76759">
        <ele>631.859</ele>
        <time>2020-05-15T20:07:19Z</time>
      </trkpt>
      <trkpt lat="43.07224" lon="-1.76769">
        <ele>631.846</ele>
        <time>2020-05-15T20:07:39Z</time>
      </trkpt>
      <trkpt lat="43.07222" lon="-1.76775">
        <ele>631.828</ele>
        <time>2020-05-15T20:07:59Z</time>
      </trkpt>
      <trkpt lat="43.0722" lon="-1.76781">
        <ele>631.551</ele>
        <time>2020-05-15T20:08:19Z</time>
      </trkpt>
      <trkpt lat="43.07218" lon="-1.76785">
        <ele>631.301</ele>
        <time>2020-05-15T20:08:39Z</time>
      </trkpt>
      <trkpt lat="43.07216" lon="-1.7679">
        <ele>631.511</ele>
        <time>2020-05-15T20:08:59Z</time>
      </trkpt>
      <trkpt lat="43.07214" lon="-1.76792">
        <ele>631.508</ele>
        <time>2020-05-15T20:09:19Z</time>
      </trkpt>
      <trkpt lat="43.07211" lon="-1.76795">
        <ele>631.529</ele>
        <time>2020-05-15T20:09:39Z</time>
      </trkpt>
      <trkpt lat="43.07208" lon="-1.76797">
        <ele>631.544</ele>
        <time>2020-05-15T20:09:59Z</time>
      </trkpt>
      <trkpt lat="43.07205" lon="-1.76799">
        <ele>631.648</ele>
        <time>2020-05-15T20:10:19Z</time>
      </trkpt>
      <trkpt lat="43.07202" lon="-1.768">
        <ele>631.746</ele>
        <time>2020-05-15T20:10:39Z</time>
      </trkpt>
      <trkpt lat="43.07199" lon="-1.76801">
        <ele>631.771</ele>
        <time>2020-05-15T20:10:59Z</time>
      </trkpt>
      <trkpt lat="43.07191" lon="-1.76803">
        <ele>630.861</ele>
        <time>2020-05-15T20:11:19Z</time>
      </trkpt>
      <trkpt lat="43.07183" lon="-1.76804">
        <ele>631.748</ele>
        <time>2020-05-15T20:11:39Z</time>
      </trkpt>
      <trkpt lat="43.07165" lon="-1.7681">
        <ele>633.21</ele>
        <time>2020-05-15T20:11:59Z</time>
      </trkpt>
      <trkpt lat="43.07147" lon="-1.76816">
        <ele>634.641</ele>
        <time>2020-05-15T20:12:19Z</time>
      </trkpt>
      <trkpt lat="43.07141" lon="-1.76817">
        <ele>635.181</ele>
        <time>2020-05-15T20:12:39Z</time>
      </trkpt>
      <trkpt lat="43.07136" lon="-1.76819">
        <ele>635.309</ele>
        <time>2020-05-15T20:12:59Z</time>
      </trkpt>
      <trkpt lat="43.07131" lon="-1.76819">
        <ele>635.808</ele>
        <time>2020-05-15T20:13:19Z</time>
      </trkpt>
      <trkpt lat="43.07126" lon="-1.76819">
        <ele>636.578</ele>
        <time>2020-05-15T20:13:39Z</time>
      </trkpt>
      <trkpt lat="43.07119" lon="-1.76819">
        <ele>636.963</ele>
        <time>2020-05-15T20:13:59Z</time>
      </trkpt>
      <trkpt lat="43.07113" lon="-1.76819">
        <ele>637.737</ele>
        <time>2020-05-15T20:14:19Z</time>
      </trkpt>
      <trkpt lat="43.071" lon="-1.76819">
        <ele>638.875</ele>
        <time>2020-05-15T20:14:39Z</time>
      </trkpt>
      <trkpt lat="43.07087" lon="-1.76819">
        <ele>640.63</ele>
        <time>2020-05-15T20:14:59Z</time>
      </trkpt>
      <trkpt lat="43.07083" lon="-1.76818">
        <ele>641.01</ele>
        <time>2020-05-15T20:15:19Z</time>
      </trkpt>
      <trkpt lat="43.07078" lon="-1.76818">
        <ele>641.047</ele>
        <time>2020-05-15T20:15:39Z</time>
      </trkpt>
      <trkpt lat="43.07069" lon="-1.76815">
        <ele>642.649</ele>
        <time>2020-05-15T20:15:59Z</time>
      </trkpt>
      <trkpt lat="43.07055" lon="-1.76811">
        <ele>643.638</ele>
        <time>2020-05-15T20:16:19Z</time>
      </trkpt>
      <trkpt lat="43.07042" lon="-1.76807">
        <ele>644.77</ele>
        <time>2020-05-15T20:16:39Z</time>
      </trkpt>
      <trkpt lat="43.07035" lon="-1.76805">
        <ele>645.817</ele>
        <time>2020-05-15T20:16:59Z</time>
      </trkpt>
      <trkpt lat="43.07029" lon="-1.76804">
        <ele>646.308</ele>
        <time>2020-05-15T20:17:19Z</time>
      </trkpt>
      <trkpt lat="43.07024" lon="-1.76802">
        <ele>646.767</ele>
        <time>2020-05-15T20:17:39Z</time>
      </trkpt>
      <trkpt lat="43.07019" lon="-1.768">
        <ele>646.962</ele>
        <time>2020-05-15T20:17:59Z</time>
      </trkpt>
      <trkpt lat="43.07009" lon="-1.76796">
        <ele>648.136</ele>
        <time>2020-05-15T20:18:19Z</time>
      </trkpt>
      <trkpt lat="43.07" lon="-1.76789">
        <ele>648.574</ele>
        <time>2020-05-15T20:18:39Z</time>
      </trkpt>
      <trkpt lat="43.06991" lon="-1.76781">
        <ele>649.559</ele>
        <time>2020-05-15T20:18:59Z</time>
      </trkpt>
      <trkpt lat="43.06982" lon="-1.76772">
        <ele>650.289</ele>
        <time>2020-05-15T20:19:19Z</time>
      </trkpt>
      <trkpt lat="43.06978" lon="-1.76769">
        <ele>650.446</ele>
        <time>2020-05-15T20:19:39Z</time>
      </trkpt>
      <trkpt lat="43.06973" lon="-1.76765">
        <ele>650.558</ele>
        <time>2020-05-15T20:19:59Z</time>
      </trkpt>
      <trkpt lat="43.06971" lon="-1.76763">
        <ele>650.975</ele>
        <time>2020-05-15T20:20:19Z</time>
      </trkpt>
      <trkpt lat="43.06967" lon="-1.76761">
        <ele>651.028</ele>
        <time>2020-05-15T20:20:39Z</time>
      </trkpt>
      <trkpt lat="43.06962" lon="-1.7676">
        <ele>650.52</ele>
        <time>2020-05-15T20:20:59Z</time>
      </trkpt>
      <trkpt lat="43.06959" lon="-1.7676">
        <ele>651.708</ele>
        <time>2020-05-15T20:21:19Z</time>
      </trkpt>
      <trkpt lat="43.06956" lon="-1.7676">
        <ele>651.721</ele>
        <time>2020-05-15T20:21:39Z</time>
      </trkpt>
      <trkpt lat="43.06952" lon="-1.7676">
        <ele>650.896</ele>
        <time>2020-05-15T20:21:59Z</time>
      </trkpt>
      <trkpt lat="43.06938" lon="-1.76763">
        <ele>652.86</ele>
        <time>2020-05-15T20:22:19Z</time>
      </trkpt>
      <trkpt lat="43.06928" lon="-1.76764">
        <ele>653.228</ele>
        <time>2020-05-15T20:22:39Z</time>
      </trkpt>
      <trkpt lat="43.0691" lon="-1.76768">
        <ele>654.743</ele>
        <time>2020-05-15T20:22:59Z</time>
      </trkpt>
      <trkpt lat="43.06891" lon="-1.76773">
        <ele>655.643</ele>
        <time>2020-05-15T20:23:19Z</time>
      </trkpt>
      <trkpt lat="43.06887" lon="-1.76774">
        <ele>655.96</ele>
        <time>2020-05-15T20:23:39Z</time>
      </trkpt>
      <trkpt lat="43.06882" lon="-1.76776">
        <ele>656.182</ele>
        <time>2020-05-15T20:23:59Z</time>
      </trkpt>
      <trkpt lat="43.06878" lon="-1.76778">
        <ele>656.321</ele>
        <time>2020-05-15T20:24:19Z</time>
      </trkpt>
      <trkpt lat="43.06875" lon="-1.7678">
        <ele>656.341</ele>
        <time>2020-05-15T20:24:39Z</time>
      </trkpt>
      <trkpt lat="43.06872" lon="-1.76782">
        <ele>656.705</ele>
        <time>2020-05-15T20:24:59Z</time>
      </trkpt>
      <trkpt lat="43.06868" lon="-1.76785">
        <ele>657.108</ele>
        <time>2020-05-15T20:25:19Z</time>
      </trkpt>
      <trkpt lat="43.06858" lon="-1.76795">
        <ele>657.846</ele>
        <time>2020-05-15T20:25:39Z</time>
      </trkpt>
      <trkpt lat="43.06847" lon="-1.76809">
        <ele>658.741</ele>
        <time>2020-05-15T20:25:59Z</time>
      </trkpt>
      <trkpt lat="43.06837" lon="-1.76822">
        <ele>660.675</ele>
        <time>2020-05-15T20:26:19Z</time>
      </trkpt>
      <trkpt lat="43.06831" lon="-1.76829">
        <ele>661.163</ele>
        <time>2020-05-15T20:26:39Z</time>
      </trkpt>
      <trkpt lat="43.06826" lon="-1.76835">
        <ele>661.698</ele>
        <time>2020-05-15T20:26:59Z</time>
      </trkpt>
      <trkpt lat="43.06822" lon="-1.76841">
        <ele>662.288</ele>
        <time>2020-05-15T20:27:19Z</time>
      </trkpt>
      <trkpt lat="43.06816" lon="-1.76849">
        <ele>662.645</ele>
        <time>2020-05-15T20:27:39Z</time>
      </trkpt>
      <trkpt lat="43.06814" lon="-1.76852">
        <ele>662.667</ele>
        <time>2020-05-15T20:27:59Z</time>
      </trkpt>
      <trkpt lat="43.06813" lon="-1.76854">
        <ele>662.674</ele>
        <time>2020-05-15T20:28:19Z</time>
      </trkpt>
      <trkpt lat="43.06812" lon="-1.76856">
        <ele>662.656</ele>
        <time>2020-05-15T20:28:39Z</time>
      </trkpt>
      <trkpt lat="43.06812" lon="-1.76857">
        <ele>662.721</ele>
        <time>2020-05-15T20:28:59Z</time>
      </trkpt>
      <trkpt lat="43.06812" lon="-1.76859">
        <ele>663.108</ele>
        <time>2020-05-15T20:29:19Z</time>
      </trkpt>
      <trkpt lat="43.06812" lon="-1.76863">
        <ele>663.141</ele>
        <time>2020-05-15T20:29:39Z</time>
      </trkpt>
      <trkpt lat="43.06813" lon="-1.76865">
        <ele>663.516</ele>
        <time>2020-05-15T20:29:59Z</time>
      </trkpt>
      <trkpt lat="43.06813" lon="-1.76868">
        <ele>663.51</ele>
        <time>2020-05-15T20:30:19Z</time>
      </trkpt>
      <trkpt lat="43.06815" lon="-1.7687">
        <ele>663.588</ele>
        <time>2020-05-15T20:30:39Z</time>
      </trkpt>
      <trkpt lat="43.06817" lon="-1.76871">
        <ele>663.893</ele>
        <time>2020-05-15T20:30:59Z</time>
      </trkpt>
      <trkpt lat="43.06818" lon="-1.76872">
        <ele>664.173</ele>
        <time>2020-05-15T20:31:19Z</time>
      </trkpt>
      <trkpt lat="43.0682" lon="-1.76872">
        <ele>664.16</ele>
        <time>2020-05-15T20:31:39Z</time>
      </trkpt>
      <trkpt lat="43.06822" lon="-1.76872">
        <ele>664.392</ele>
        <time>2020-05-15T20:31:59Z</time>
      </trkpt>
      <trkpt lat="43.06829" lon="-1.76871">
        <ele>665.734</ele>
        <time>2020-05-15T20:32:19Z</time>
      </trkpt>
      <trkpt lat="43.06841" lon="-1.7687">
        <ele>665.655</ele>
        <time>2020-05-15T20:32:39Z</time>
      </trkpt>
      <trkpt lat="43.06864" lon="-1.76867">
        <ele>667.41</ele>
        <time>2020-05-15T20:32:59Z</time>
      </trkpt>
      <trkpt lat="43.06873" lon="-1.76866">
        <ele>668.008</ele>
        <time>2020-05-15T20:33:19Z</time>
      </trkpt>
      <trkpt lat="43.06883" lon="-1.76866">
        <ele>668.947</ele>
        <time>2020-05-15T20:33:39Z</time>
      </trkpt>
      <trkpt lat="43.06895" lon="-1.76866">
        <ele>669.942</ele>
        <time>2020-05-15T20:33:59Z</time>
      </trkpt>
      <trkpt lat="43.06904" lon="-1.76867">
        <ele>670.326</ele>
        <time>2020-05-15T20:34:19Z</time>
      </trkpt>
      <trkpt lat="43.06908" lon="-1.76868">
        <ele>670.744</ele>
        <time>2020-05-15T20:34:39Z</time>
      </trkpt>
      <trkpt lat="43.06912" lon="-1.76869">
        <ele>671.229</ele>
        <time>2020-05-15T20:34:59Z</time>
      </trkpt>
      <trkpt lat="43.06915" lon="-1.76871">
        <ele>671.299</ele>
        <time>2020-05-15T20:35:19Z</time>
      </trkpt>
      <trkpt lat="43.06918" lon="-1.76874">
        <ele>671.456</ele>
        <time>2020-05-15T20:35:39Z</time>
      </trkpt>
      <trkpt lat="43.06921" lon="-1.76878">
        <ele>671.768</ele>
        <time>2020-05-15T20:35:59Z</time>
      </trkpt>
      <trkpt lat="43.06923" lon="-1.76881">
        <ele>672.169</ele>
        <time>2020-05-15T20:36:19Z</time>
      </trkpt>
      <trkpt lat="43.06926" lon="-1.76887">
        <ele>672.404</ele>
        <time>2020-05-15T20:36:39Z</time>
      </trkpt>
      <trkpt lat="43.06929" lon="-1.76893">
        <ele>672.424</ele>
        <time>2020-05-15T20:36:59Z</time>
      </trkpt>
      <trkpt lat="43.06933" lon="-1.76903">
        <ele>673.008</ele>
        <time>2020-05-15T20:37:19Z</time>
      </trkpt>
      <trkpt lat="43.06937" lon="-1.76914">
        <ele>673.56</ele>
        <time>2020-05-15T20:37:39Z</time>
      </trkpt>
      <trkpt lat="43.06941" lon="-1.76921">
        <ele>673.855</ele>
        <time>2020-05-15T20:37:59Z</time>
      </trkpt>
      <trkpt lat="43.06944" lon="-1.76928">
        <ele>674.019</ele>
        <time>2020-05-15T20:38:19Z</time>
      </trkpt>
      <trkpt lat="43.06948" lon="-1.76934">
        <ele>674.927</ele>
        <time>2020-05-15T20:38:39Z</time>
      </trkpt>
      <trkpt lat="43.06953" lon="-1.7694">
        <ele>675.552</ele>
        <time>2020-05-15T20:38:59Z</time>
      </trkpt>
      <trkpt lat="43.06958" lon="-1.76946">
        <ele>676.072</ele>
        <time>2020-05-15T20:39:19Z</time>
      </trkpt>
      <trkpt lat="43.06964" lon="-1.76952">
        <ele>676.329</ele>
        <time>2020-05-15T20:39:39Z</time>
      </trkpt>
      <trkpt lat="43.06969" lon="-1.76956">
        <ele>677.191</ele>
        <time>2020-05-15T20:39:59Z</time>
      </trkpt>
      <trkpt lat="43.06974" lon="-1.76961">
        <ele>677.792</ele>
        <time>2020-05-15T20:40:19Z</time>
      </trkpt>
      <trkpt lat="43.06979" lon="-1.76965">
        <ele>677.673</ele>
        <time>2020-05-15T20:40:39Z</time>
      </trkpt>
      <trkpt lat="43.06985" lon="-1.76969">
        <ele>678.72</ele>
        <time>2020-05-15T20:40:59Z</time>
      </trkpt>
      <trkpt lat="43.06991" lon="-1.76972">
        <ele>678.808</ele>
        <time>2020-05-15T20:41:19Z</time>
      </trkpt>
      <trkpt lat="43.06996" lon="-1.76975">
        <ele>679.453</ele>
        <time>2020-05-15T20:41:39Z</time>
      </trkpt>
      <trkpt lat="43.07002" lon="-1.76976">
        <ele>679.568</ele>
        <time>2020-05-15T20:41:59Z</time>
      </trkpt>
      <trkpt lat="43.07014" lon="-1.7698">
        <ele>680.612</ele>
        <time>2020-05-15T20:42:19Z</time>
      </trkpt>
      <trkpt lat="43.07021" lon="-1.76981">
        <ele>681.29</ele>
        <time>2020-05-15T20:42:39Z</time>
      </trkpt>
      <trkpt lat="43.07036" lon="-1.76985">
        <ele>681.655</ele>
        <time>2020-05-15T20:42:59Z</time>
      </trkpt>
      <trkpt lat="43.07053" lon="-1.76989">
        <ele>682.665</ele>
        <time>2020-05-15T20:43:19Z</time>
      </trkpt>
      <trkpt lat="43.07061" lon="-1.76991">
        <ele>682.992</ele>
        <time>2020-05-15T20:43:39Z</time>
      </trkpt>
      <trkpt lat="43.07077" lon="-1.76994">
        <ele>683.684</ele>
        <time>2020-05-15T20:43:59Z</time>
      </trkpt>
      <trkpt lat="43.07083" lon="-1.76996">
        <ele>683.785</ele>
        <time>2020-05-15T20:44:19Z</time>
      </trkpt>
      <trkpt lat="43.07091" lon="-1.76998">
        <ele>684.189</ele>
        <time>2020-05-15T20:44:39Z</time>
      </trkpt>
      <trkpt lat="43.07108" lon="-1.77003">
        <ele>684.917</ele>
        <time>2020-05-15T20:44:59Z</time>
      </trkpt>
      <trkpt lat="43.07116" lon="-1.77005">
        <ele>685.508</ele>
        <time>2020-05-15T20:45:19Z</time>
      </trkpt>
      <trkpt lat="43.07125" lon="-1.77007">
        <ele>686.212</ele>
        <time>2020-05-15T20:45:39Z</time>
      </trkpt>
      <trkpt lat="43.07133" lon="-1.77009">
        <ele>686.417</ele>
        <time>2020-05-15T20:45:59Z</time>
      </trkpt>
      <trkpt lat="43.07141" lon="-1.77011">
        <ele>686.661</ele>
        <time>2020-05-15T20:46:19Z</time>
      </trkpt>
      <trkpt lat="43.07149" lon="-1.77012">
        <ele>687.359</ele>
        <time>2020-05-15T20:46:39Z</time>
      </trkpt>
      <trkpt lat="43.07155" lon="-1.77013">
        <ele>687.674</ele>
        <time>2020-05-15T20:46:59Z</time>
      </trkpt>
      <trkpt lat="43.07161" lon="-1.77013">
        <ele>688.354</ele>
        <time>2020-05-15T20:47:19Z</time>
      </trkpt>
      <trkpt lat="43.07166" lon="-1.77013">
        <ele>688.741</ele>
        <time>2020-05-15T20:47:39Z</time>
      </trkpt>
      <trkpt lat="43.07172" lon="-1.77012">
        <ele>688.943</ele>
        <time>2020-05-15T20:47:59Z</time>
      </trkpt>
      <trkpt lat="43.07175" lon="-1.77013">
        <ele>689.313</ele>
        <time>2020-05-15T20:48:19Z</time>
      </trkpt>
      <trkpt lat="43.07179" lon="-1.77013">
        <ele>689.643</ele>
        <time>2020-05-15T20:48:39Z</time>
      </trkpt>
      <trkpt lat="43.07183" lon="-1.77014">
        <ele>690.407</ele>
        <time>2020-05-15T20:48:59Z</time>
      </trkpt>
      <trkpt lat="43.07187" lon="-1.77015">
        <ele>690.408</ele>
        <time>2020-05-15T20:49:19Z</time>
      </trkpt>
      <trkpt lat="43.0719" lon="-1.77018">
        <ele>690.775</ele>
        <time>2020-05-15T20:49:39Z</time>
      </trkpt>
      <trkpt lat="43.07194" lon="-1.77021">
        <ele>691.17</ele>
        <time>2020-05-15T20:49:59Z</time>
      </trkpt>
      <trkpt lat="43.07197" lon="-1.77025">
        <ele>691.464</ele>
        <time>2020-05-15T20:50:19Z</time>
      </trkpt>
      <trkpt lat="43.072" lon="-1.77029">
        <ele>691.412</ele>
        <time>2020-05-15T20:50:39Z</time>
      </trkpt>
      <trkpt lat="43.07203" lon="-1.77034">
        <ele>691.987</ele>
        <time>2020-05-15T20:50:59Z</time>
      </trkpt>
      <trkpt lat="43.07204" lon="-1.77038">
        <ele>692.027</ele>
        <time>2020-05-15T20:51:19Z</time>
      </trkpt>
      <trkpt lat="43.07207" lon="-1.77047">
        <ele>692.184</ele>
        <time>2020-05-15T20:51:39Z</time>
      </trkpt>
      <trkpt lat="43.07209" lon="-1.77054">
        <ele>692.726</ele>
        <time>2020-05-15T20:51:59Z</time>
      </trkpt>
      <trkpt lat="43.07212" lon="-1.77074">
        <ele>693.444</ele>
        <time>2020-05-15T20:52:19Z</time>
      </trkpt>
      <trkpt lat="43.07212" lon="-1.77085">
        <ele>693.705</ele>
        <time>2020-05-15T20:52:39Z</time>
      </trkpt>
      <trkpt lat="43.07214" lon="-1.77098">
        <ele>694.415</ele>
        <time>2020-05-15T20:52:59Z</time>
      </trkpt>
      <trkpt lat="43.07215" lon="-1.77109">
        <ele>694.908</ele>
        <time>2020-05-15T20:53:19Z</time>
      </trkpt>
      <trkpt lat="43.07216" lon="-1.77121">
        <ele>695.118</ele>
        <time>2020-05-15T20:53:39Z</time>
      </trkpt>
      <trkpt lat="43.07216" lon="-1.77127">
        <ele>696.113</ele>
        <time>2020-05-15T20:53:59Z</time>
      </trkpt>
      <trkpt lat="43.07216" lon="-1.77134">
        <ele>696.457</ele>
        <time>2020-05-15T20:54:19Z</time>
      </trkpt>
      <trkpt lat="43.07215" lon="-1.77147">
        <ele>697.315</ele>
        <time>2020-05-15T20:54:39Z</time>
      </trkpt>
      <trkpt lat="43.07214" lon="-1.77154">
        <ele>697.75</ele>
        <time>2020-05-15T20:54:59Z</time>
      </trkpt>
      <trkpt lat="43.07212" lon="-1.77162">
        <ele>698.15</ele>
        <time>2020-05-15T20:55:19Z</time>
      </trkpt>
      <trkpt lat="43.0721" lon="-1.77174">
        <ele>699.267</ele>
        <time>2020-05-15T20:55:39Z</time>
      </trkpt>
      <trkpt lat="43.07207" lon="-1.77185">
        <ele>699.229</ele>
        <time>2020-05-15T20:55:59Z</time>
      </trkpt>
      <trkpt lat="43.07204" lon="-1.77201">
        <ele>700.781</ele>
        <time>2020-05-15T20:56:19Z</time>
      </trkpt>
      <trkpt lat="43.072" lon="-1.77218">
        <ele>702.161</ele>
        <time>2020-05-15T20:56:39Z</time>
      </trkpt>
      <trkpt lat="43.07196" lon="-1.77241">
        <ele>703.417</ele>
        <time>2020-05-15T20:56:59Z</time>
      </trkpt>
      <trkpt lat="43.07193" lon="-1.77252">
        <ele>704.508</ele>
        <time>2020-05-15T20:57:19Z</time>
      </trkpt>
      <trkpt lat="43.07191" lon="-1.77263">
        <ele>704.842</ele>
        <time>2020-05-15T20:57:39Z</time>
      </trkpt>
      <trkpt lat="43.07189" lon="-1.77267">
        <ele>705.127</ele>
        <time>2020-05-15T20:57:59Z</time>
      </trkpt>
      <trkpt lat="43.07187" lon="-1.77272">
        <ele>705.761</ele>
        <time>2020-05-15T20:58:19Z</time>
      </trkpt>
      <trkpt lat="43.07184" lon="-1.77275">
        <ele>705.949</ele>
        <time>2020-05-15T20:58:39Z</time>
      </trkpt>
      <trkpt lat="43.07182" lon="-1.77278">
        <ele>705.914</ele>
        <time>2020-05-15T20:58:59Z</time>
      </trkpt>
      <trkpt lat="43.0718" lon="-1.77279">
        <ele>706.024</ele>
        <time>2020-05-15T20:59:19Z</time>
      </trkpt>
      <trkpt lat="43.07176" lon="-1.77281">
        <ele>706.431</ele>
        <time>2020-05-15T20:59:39Z</time>
      </trkpt>
      <trkpt lat="43.07174" lon="-1.77282">
        <ele>706.453</ele>
        <time>2020-05-15T20:59:59Z</time>
      </trkpt>
      <trkpt lat="43.07171" lon="-1.77283">
        <ele>706.659</ele>
        <time>2020-05-15T21:00:19Z</time>
      </trkpt>
      <trkpt lat="43.07169" lon="-1.77283">
        <ele>706.603</ele>
        <time>2020-05-15T21:00:39Z</time>
      </trkpt>
      <trkpt lat="43.07166" lon="-1.77283">
        <ele>707.023</ele>
        <time>2020-05-15T21:00:59Z</time>
      </trkpt>
      <trkpt lat="43.07163" lon="-1.77282">
        <ele>707.208</ele>
        <time>2020-05-15T21:01:19Z</time>
      </trkpt>
      <trkpt lat="43.0716" lon="-1.77281">
        <ele>707.319</ele>
        <time>2020-05-15T21:01:39Z</time>
      </trkpt>
      <trkpt lat="43.07147" lon="-1.77276">
        <ele>708.614</ele>
        <time>2020-05-15T21:01:59Z</time>
      </trkpt>
      <trkpt lat="43.07133" lon="-1.7727">
        <ele>709.558</ele>
        <time>2020-05-15T21:02:19Z</time>
      </trkpt>
      <trkpt lat="43.07131" lon="-1.77269">
        <ele>710.426</ele>
        <time>2020-05-15T21:02:39Z</time>
      </trkpt>
      <trkpt lat="43.07128" lon="-1.77268">
        <ele>710.411</ele>
        <time>2020-05-15T21:02:59Z</time>
      </trkpt>
      <trkpt lat="43.07123" lon="-1.77266">
        <ele>710.941</ele>
        <time>2020-05-15T21:03:19Z</time>
      </trkpt>
      <trkpt lat="43.07117" lon="-1.77264">
        <ele>711.478</ele>
        <time>2020-05-15T21:03:39Z</time>
      </trkpt>
      <trkpt lat="43.07098" lon="-1.77256">
        <ele>712.86</ele>
        <time>2020-05-15T21:03:59Z</time>
      </trkpt>
      <trkpt lat="43.07078" lon="-1.77248">
        <ele>714.068</ele>
        <time>2020-05-15T21:04:19Z</time>
      </trkpt>
      <trkpt lat="43.0707" lon="-1.77245">
        <ele>715.042</ele>
        <time>2020-05-15T21:04:39Z</time>
      </trkpt>
      <trkpt lat="43.07054" lon="-1.7724">
        <ele>716.326</ele>
        <time>2020-05-15T21:04:59Z</time>
      </trkpt>
      <trkpt lat="43.07051" lon="-1.77239">
        <ele>716.308</ele>
        <time>2020-05-15T21:05:19Z</time>
      </trkpt>
      <trkpt lat="43.0704" lon="-1.77236">
        <ele>717.31</ele>
        <time>2020-05-15T21:05:39Z</time>
      </trkpt>
      <trkpt lat="43.07015" lon="-1.77226">
        <ele>719.065</ele>
        <time>2020-05-15T21:05:59Z</time>
      </trkpt>
      <trkpt lat="43.0699" lon="-1.77216">
        <ele>721.429</ele>
        <time>2020-05-15T21:06:19Z</time>
      </trkpt>
      <trkpt lat="43.06983" lon="-1.77214">
        <ele>722.017</ele>
        <time>2020-05-15T21:06:39Z</time>
      </trkpt>
      <trkpt lat="43.06977" lon="-1.77212">
        <ele>722.872</ele>
        <time>2020-05-15T21:06:59Z</time>
      </trkpt>
      <trkpt lat="43.06969" lon="-1.77209">
        <ele>723.112</ele>
        <time>2020-05-15T21:07:19Z</time>
      </trkpt>
      <trkpt lat="43.06961" lon="-1.77207">
        <ele>724.029</ele>
        <time>2020-05-15T21:07:39Z</time>
      </trkpt>
      <trkpt lat="43.06941" lon="-1.77202">
        <ele>726.031</ele>
        <time>2020-05-15T21:07:59Z</time>
      </trkpt>
      <trkpt lat="43.06922" lon="-1.77196">
        <ele>727.983</ele>
        <time>2020-05-15T21:08:19Z</time>
      </trkpt>
      <trkpt lat="43.06903" lon="-1.7719">
        <ele>729.325</ele>
        <time>2020-05-15T21:08:39Z</time>
      </trkpt>
      <trkpt lat="43.06885" lon="-1.77184">
        <ele>730.517</ele>
        <time>2020-05-15T21:08:59Z</time>
      </trkpt>
      <trkpt lat="43.06872" lon="-1.77181">
        <ele>731.508</ele>
        <time>2020-05-15T21:09:19Z</time>
      </trkpt>
      <trkpt lat="43.06859" lon="-1.77178">
        <ele>730.682</ele>
        <time>2020-05-15T21:09:39Z</time>
      </trkpt>
      <trkpt lat="43.06836" lon="-1.77172">
        <ele>734.487</ele>
        <time>2020-05-15T21:09:59Z</time>
      </trkpt>
      <trkpt lat="43.06813" lon="-1.77166">
        <ele>736.121</ele>
        <time>2020-05-15T21:10:19Z</time>
      </trkpt>
      <trkpt lat="43.06806" lon="-1.77165">
        <ele>737.049</ele>
        <time>2020-05-15T21:10:39Z</time>
      </trkpt>
      <trkpt lat="43.06799" lon="-1.77163">
        <ele>737.374</ele>
        <time>2020-05-15T21:10:59Z</time>
      </trkpt>
      <trkpt lat="43.06792" lon="-1.77162">
        <ele>737.884</ele>
        <time>2020-05-15T21:11:19Z</time>
      </trkpt>
      <trkpt lat="43.06785" lon="-1.77162">
        <ele>738.211</ele>
        <time>2020-05-15T21:11:39Z</time>
      </trkpt>
      <trkpt lat="43.06778" lon="-1.77162">
        <ele>738.473</ele>
        <time>2020-05-15T21:11:59Z</time>
      </trkpt>
      <trkpt lat="43.06771" lon="-1.77162">
        <ele>739.143</ele>
        <time>2020-05-15T21:12:19Z</time>
      </trkpt>
      <trkpt lat="43.06764" lon="-1.77163">
        <ele>739.664</ele>
        <time>2020-05-15T21:12:39Z</time>
      </trkpt>
      <trkpt lat="43.06758" lon="-1.77163">
        <ele>739.91</ele>
        <time>2020-05-15T21:12:59Z</time>
      </trkpt>
      <trkpt lat="43.06749" lon="-1.77164">
        <ele>740.808</ele>
        <time>2020-05-15T21:13:19Z</time>
      </trkpt>
      <trkpt lat="43.0674" lon="-1.77165">
        <ele>741.578</ele>
        <time>2020-05-15T21:13:39Z</time>
      </trkpt>
      <trkpt lat="43.0671" lon="-1.77169">
        <ele>744.023</ele>
        <time>2020-05-15T21:13:59Z</time>
      </trkpt>
      <trkpt lat="43.06679" lon="-1.77173">
        <ele>746.847</ele>
        <time>2020-05-15T21:14:19Z</time>
      </trkpt>
      <trkpt lat="43.06669" lon="-1.77174">
        <ele>747.565</ele>
        <time>2020-05-15T21:14:39Z</time>
      </trkpt>
      <trkpt lat="43.06659" lon="-1.77176">
        <ele>748.59</ele>
        <time>2020-05-15T21:14:59Z</time>
      </trkpt>
      <trkpt lat="43.06652" lon="-1.77177">
        <ele>749.25</ele>
        <time>2020-05-15T21:15:19Z</time>
      </trkpt>
      <trkpt lat="43.06645" lon="-1.77179">
        <ele>749.877</ele>
        <time>2020-05-15T21:15:39Z</time>
      </trkpt>
      <trkpt lat="43.06638" lon="-1.77182">
        <ele>750.539</ele>
        <time>2020-05-15T21:15:59Z</time>
      </trkpt>
      <trkpt lat="43.06631" lon="-1.77184">
        <ele>751.365</ele>
        <time>2020-05-15T21:16:19Z</time>
      </trkpt>
      <trkpt lat="43.06622" lon="-1.77188">
        <ele>751.268</ele>
        <time>2020-05-15T21:16:39Z</time>
      </trkpt>
      <trkpt lat="43.06614" lon="-1.77192">
        <ele>752.114</ele>
        <time>2020-05-15T21:16:59Z</time>
      </trkpt>
      <trkpt lat="43.06604" lon="-1.77199">
        <ele>752.908</ele>
        <time>2020-05-15T21:17:19Z</time>
      </trkpt>
      <trkpt lat="43.06595" lon="-1.77205">
        <ele>753.57</ele>
        <time>2020-05-15T21:17:39Z</time>
      </trkpt>
      <trkpt lat="43.06582" lon="-1.77214">
        <ele>754.195</ele>
        <time>2020-05-15T21:17:59Z</time>
      </trkpt>
      <trkpt lat="43.06569" lon="-1.77222">
        <ele>755.429</ele>
        <time>2020-05-15T21:18:19Z</time>
      </trkpt>
      <trkpt lat="43.06557" lon="-1.77231">
        <ele>756.427</ele>
        <time>2020-05-15T21:18:39Z</time>
      </trkpt>
      <trkpt lat="43.06544" lon="-1.7724">
        <ele>757.482</ele>
        <time>2020-05-15T21:18:59Z</time>
      </trkpt>
      <trkpt lat="43.0653" lon="-1.77253">
        <ele>758.522</ele>
        <time>2020-05-15T21:19:19Z</time>
      </trkpt>
      <trkpt lat="43.06516" lon="-1.77266">
        <ele>759.999</ele>
        <time>2020-05-15T21:19:39Z</time>
      </trkpt>
      <trkpt lat="43.06503" lon="-1.77278">
        <ele>762.721</ele>
        <time>2020-05-15T21:19:59Z</time>
      </trkpt>
      <trkpt lat="43.06491" lon="-1.7729">
        <ele>762.569</ele>
        <time>2020-05-15T21:20:19Z</time>
      </trkpt>
      <trkpt lat="43.06467" lon="-1.77315">
        <ele>764.604</ele>
        <time>2020-05-15T21:20:39Z</time>
      </trkpt>
      <trkpt lat="43.06444" lon="-1.7734">
        <ele>764.924</ele>
        <time>2020-05-15T21:20:59Z</time>
      </trkpt>
      <trkpt lat="43.06439" lon="-1.77343">
        <ele>765.208</ele>
        <time>2020-05-15T21:21:19Z</time>
      </trkpt>
      <trkpt lat="43.06434" lon="-1.77346">
        <ele>766.15</ele>
        <time>2020-05-15T21:21:39Z</time>
      </trkpt>
      <trkpt lat="43.06425" lon="-1.7735">
        <ele>766.725</ele>
        <time>2020-05-15T21:21:59Z</time>
      </trkpt>
      <trkpt lat="43.06415" lon="-1.77354">
        <ele>767.799</ele>
        <time>2020-05-15T21:22:19Z</time>
      </trkpt>
      <trkpt lat="43.06393" lon="-1.77359">
        <ele>769.317</ele>
        <time>2020-05-15T21:22:39Z</time>
      </trkpt>
      <trkpt lat="43.06386" lon="-1.7736">
        <ele>769.562</ele>
        <time>2020-05-15T21:22:59Z</time>
      </trkpt>
      <trkpt lat="43.06378" lon="-1.77361">
        <ele>770.252</ele>
        <time>2020-05-15T21:23:19Z</time>
      </trkpt>
      <trkpt lat="43.06371" lon="-1.77361">
        <ele>770.579</ele>
        <time>2020-05-15T21:23:39Z</time>
      </trkpt>
      <trkpt lat="43.06364" lon="-1.7736">
        <ele>770.711</ele>
        <time>2020-05-15T21:23:59Z</time>
      </trkpt>
      <trkpt lat="43.06348" lon="-1.77359">
        <ele>771.242</ele>
        <time>2020-05-15T21:24:19Z</time>
      </trkpt>
      <trkpt lat="43.06332" lon="-1.77357">
        <ele>772.322</ele>
        <time>2020-05-15T21:24:39Z</time>
      </trkpt>
      <trkpt lat="43.06323" lon="-1.77356">
        <ele>772.814</ele>
        <time>2020-05-15T21:24:59Z</time>
      </trkpt>
      <trkpt lat="43.06315" lon="-1.77355">
        <ele>773.108</ele>
        <time>2020-05-15T21:25:19Z</time>
      </trkpt>
      <trkpt lat="43.06304" lon="-1.77354">
        <ele>773.938</ele>
        <time>2020-05-15T21:25:39Z</time>
      </trkpt>
      <trkpt lat="43.06292" lon="-1.77352">
        <ele>774.513</ele>
        <time>2020-05-15T21:25:59Z</time>
      </trkpt>
      <trkpt lat="43.06276" lon="-1.77351">
        <ele>775.787</ele>
        <time>2020-05-15T21:26:19Z</time>
      </trkpt>
      <trkpt lat="43.06258" lon="-1.77349">
        <ele>777.365</ele>
        <time>2020-05-15T21:26:39Z</time>
      </trkpt>
      <trkpt lat="43.06255" lon="-1.77348">
        <ele>777.33</ele>
        <time>2020-05-15T21:26:59Z</time>
      </trkpt>
      <trkpt lat="43.06254" lon="-1.77348">
        <ele>778.04</ele>
        <time>2020-05-15T21:27:19Z</time>
      </trkpt>
      <trkpt lat="43.06253" lon="-1.77348">
        <ele>778.017</ele>
        <time>2020-05-15T21:27:39Z</time>
      </trkpt>
      <trkpt lat="43.06252" lon="-1.77348">
        <ele>778.049</ele>
        <time>2020-05-15T21:27:59Z</time>
      </trkpt>
      <trkpt lat="43.0625" lon="-1.77347">
        <ele>778.043</ele>
        <time>2020-05-15T21:28:19Z</time>
      </trkpt>
      <trkpt lat="43.06249" lon="-1.77346">
        <ele>778.364</ele>
        <time>2020-05-15T21:28:39Z</time>
      </trkpt>
      <trkpt lat="43.06248" lon="-1.77344">
        <ele>778.31</ele>
        <time>2020-05-15T21:28:59Z</time>
      </trkpt>
      <trkpt lat="43.06247" lon="-1.77343">
        <ele>778.308</ele>
        <time>2020-05-15T21:29:19Z</time>
      </trkpt>
      <trkpt lat="43.06246" lon="-1.77342">
        <ele>778.548</ele>
        <time>2020-05-15T21:29:39Z</time>
      </trkpt>
      <trkpt lat="43.06246" lon="-1.77341">
        <ele>778.563</ele>
        <time>2020-05-15T21:29:59Z</time>
      </trkpt>
      <trkpt lat="43.06245" lon="-1.77339">
        <ele>778.547</ele>
        <time>2020-05-15T21:30:19Z</time>
      </trkpt>
      <trkpt lat="43.06245" lon="-1.77337">
        <ele>778.745</ele>
        <time>2020-05-15T21:30:39Z</time>
      </trkpt>
      <trkpt lat="43.06245" lon="-1.77336">
        <ele>779.11</ele>
        <time>2020-05-15T21:30:59Z</time>
      </trkpt>
      <trkpt lat="43.06245" lon="-1.77333">
        <ele>779.18</ele>
        <time>2020-05-15T21:31:19Z</time>
      </trkpt>
      <trkpt lat="43.06245" lon="-1.77332">
        <ele>779.167</ele>
        <time>2020-05-15T21:31:39Z</time>
      </trkpt>
      <trkpt lat="43.06246" lon="-1.7733">
        <ele>779.259</ele>
        <time>2020-05-15T21:31:59Z</time>
      </trkpt>
      <trkpt lat="43.06246" lon="-1.77329">
        <ele>779.265</ele>
        <time>2020-05-15T21:32:19Z</time>
      </trkpt>
      <trkpt lat="43.06247" lon="-1.77327">
        <ele>779.268</ele>
        <time>2020-05-15T21:32:39Z</time>
      </trkpt>
      <trkpt lat="43.06248" lon="-1.77326">
        <ele>779.214</ele>
        <time>2020-05-15T21:32:59Z</time>
      </trkpt>
      <trkpt lat="43.0625" lon="-1.77324">
        <ele>779.408</ele>
        <time>2020-05-15T21:33:19Z</time>
      </trkpt>
      <trkpt lat="43.06251" lon="-1.77323">
        <ele>779.48</ele>
        <time>2020-05-15T21:33:39Z</time>
      </trkpt>
      <trkpt lat="43.06252" lon="-1.77323">
        <ele>779.475</ele>
        <time>2020-05-15T21:33:59Z</time>
      </trkpt>
      <trkpt lat="43.06254" lon="-1.77322">
        <ele>779.439</ele>
        <time>2020-05-15T21:34:19Z</time>
      </trkpt>
      <trkpt lat="43.06257" lon="-1.77321">
        <ele>779.637</ele>
        <time>2020-05-15T21:34:39Z</time>
      </trkpt>
      <trkpt lat="43.0626" lon="-1.77321">
        <ele>779.722</ele>
        <time>2020-05-15T21:34:59Z</time>
      </trkpt>
      <trkpt lat="43.06281" lon="-1.77318">
        <ele>780.662</ele>
        <time>2020-05-15T21:35:19Z</time>
      </trkpt>
      <trkpt lat="43.06311" lon="-1.77314">
        <ele>782.589</ele>
        <time>2020-05-15T21:35:39Z</time>
      </trkpt>
      <trkpt lat="43.06321" lon="-1.77313">
        <ele>782.951</ele>
        <time>2020-05-15T21:35:59Z</time>
      </trkpt>
      <trkpt lat="43.06333" lon="-1.77311">
        <ele>783.511</ele>
        <time>2020-05-15T21:36:19Z</time>
      </trkpt>
      <trkpt lat="43.06344" lon="-1.7731">
        <ele>784.221</ele>
        <time>2020-05-15T21:36:39Z</time>
      </trkpt>
      <trkpt lat="43.06354" lon="-1.77308">
        <ele>784.503</ele>
        <time>2020-05-15T21:36:59Z</time>
      </trkpt>
      <trkpt lat="43.06365" lon="-1.77306">
        <ele>785.108</ele>
        <time>2020-05-15T21:37:19Z</time>
      </trkpt>
      <trkpt lat="43.06371" lon="-1.77304">
        <ele>785.455</ele>
        <time>2020-05-15T21:37:39Z</time>
      </trkpt>
      <trkpt lat="43.06377" lon="-1.77302">
        <ele>785.58</ele>
        <time>2020-05-15T21:37:59Z</time>
      </trkpt>
      <trkpt lat="43.06383" lon="-1.77299">
        <ele>785.884</ele>
        <time>2020-05-15T21:38:19Z</time>
      </trkpt>
      <trkpt lat="43.06389" lon="-1.77296">
        <ele>786.192</ele>
        <time>2020-05-15T21:38:39Z</time>
      </trkpt>
      <trkpt lat="43.06395" lon="-1.7729">
        <ele>786.377</ele>
        <time>2020-05-15T21:38:59Z</time>
      </trkpt>
      <trkpt lat="43.06402" lon="-1.77285">
        <ele>786.677</ele>
        <time>2020-05-15T21:39:19Z</time>
      </trkpt>
      <trkpt lat="43.06408" lon="-1.77279">
        <ele>787.044</ele>
        <time>2020-05-15T21:39:39Z</time>
      </trkpt>
      <trkpt lat="43.06415" lon="-1.77273">
        <ele>787.396</ele>
        <time>2020-05-15T21:39:59Z</time>
      </trkpt>
      <trkpt lat="43.0642" lon="-1.77265">
        <ele>787.972</ele>
        <time>2020-05-15T21:40:19Z</time>
      </trkpt>
      <trkpt lat="43.06426" lon="-1.77257">
        <ele>788.213</ele>
        <time>2020-05-15T21:40:39Z</time>
      </trkpt>
      <trkpt lat="43.06438" lon="-1.77236">
        <ele>788.514</ele>
        <time>2020-05-15T21:40:59Z</time>
      </trkpt>
      <trkpt lat="43.0646" lon="-1.77201">
        <ele>789.308</ele>
        <time>2020-05-15T21:41:19Z</time>
      </trkpt>
      <trkpt lat="43.06477" lon="-1.77176">
        <ele>790.221</ele>
        <time>2020-05-15T21:41:39Z</time>
      </trkpt>
      <trkpt lat="43.06486" lon="-1.77165">
        <ele>790.776</ele>
        <time>2020-05-15T21:41:59Z</time>
      </trkpt>
      <trkpt lat="43.06495" lon="-1.77154">
        <ele>791.72</ele>
        <time>2020-05-15T21:42:19Z</time>
      </trkpt>
      <trkpt lat="43.06503" lon="-1.77146">
        <ele>792.228</ele>
        <time>2020-05-15T21:42:39Z</time>
      </trkpt>
      <trkpt lat="43.06511" lon="-1.77138">
        <ele>792.353</ele>
        <time>2020-05-15T21:42:59Z</time>
      </trkpt>
      <trkpt lat="43.06517" lon="-1.77133">
        <ele>793.673</ele>
        <time>2020-05-15T21:43:19Z</time>
      </trkpt>
      <trkpt lat="43.06525" lon="-1.77125">
        <ele>794.57</ele>
        <time>2020-05-15T21:43:39Z</time>
      </trkpt>
      <trkpt lat="43.06535" lon="-1.77116">
        <ele>795.122</ele>
        <time>2020-05-15T21:43:59Z</time>
      </trkpt>
      <trkpt lat="43.06544" lon="-1.77109">
        <ele>796.785</ele>
        <time>2020-05-15T21:44:19Z</time>
      </trkpt>
      <trkpt lat="43.06552" lon="-1.77101">
        <ele>797.389</ele>
        <time>2020-05-15T21:44:39Z</time>
      </trkpt>
      <trkpt lat="43.06559" lon="-1.77095">
        <ele>798.017</ele>
        <time>2020-05-15T21:44:59Z</time>
      </trkpt>
      <trkpt lat="43.06561" lon="-1.77091">
        <ele>798.308</ele>
        <time>2020-05-15T21:45:19Z</time>
      </trkpt>
      <trkpt lat="43.06564" lon="-1.77087">
        <ele>798.352</ele>
        <time>2020-05-15T21:45:39Z</time>
      </trkpt>
      <trkpt lat="43.06565" lon="-1.77085">
        <ele>798.757</ele>
        <time>2020-05-15T21:45:59Z</time>
      </trkpt>
      <trkpt lat="43.06566" lon="-1.77083">
        <ele>798.781</ele>
        <time>2020-05-15T21:46:19Z</time>
      </trkpt>
      <trkpt lat="43.06567" lon="-1.77078">
        <ele>799.039</ele>
        <time>2020-05-15T21:46:39Z</time>
      </trkpt>
      <trkpt lat="43.06568" lon="-1.77074">
        <ele>799.074</ele>
        <time>2020-05-15T21:46:59Z</time>
      </trkpt>
      <trkpt lat="43.06569" lon="-1.7707">
        <ele>799.014</ele>
        <time>2020-05-15T21:47:19Z</time>
      </trkpt>
      <trkpt lat="43.06569" lon="-1.77066">
        <ele>799.221</ele>
        <time>2020-05-15T21:47:39Z</time>
      </trkpt>
      <trkpt lat="43.06568" lon="-1.77063">
        <ele>799.213</ele>
        <time>2020-05-15T21:47:59Z</time>
      </trkpt>
      <trkpt lat="43.06568" lon="-1.77059">
        <ele>799.488</ele>
        <time>2020-05-15T21:48:19Z</time>
      </trkpt>
      <trkpt lat="43.06566" lon="-1.77055">
        <ele>799.224</ele>
        <time>2020-05-15T21:48:39Z</time>
      </trkpt>
      <trkpt lat="43.06565" lon="-1.77052">
        <ele>799.426</ele>
        <time>2020-05-15T21:48:59Z</time>
      </trkpt>
      <trkpt lat="43.06563" lon="-1.77049">
        <ele>799.408</ele>
        <time>2020-05-15T21:49:19Z</time>
      </trkpt>
      <trkpt lat="43.06559" lon="-1.77043">
        <ele>799.512</ele>
        <time>2020-05-15T21:49:39Z</time>
      </trkpt>
      <trkpt lat="43.06554" lon="-1.77037">
        <ele>799.627</ele>
        <time>2020-05-15T21:49:59Z</time>
      </trkpt>
      <trkpt lat="43.0655" lon="-1.77033">
        <ele>800.131</ele>
        <time>2020-05-15T21:50:19Z</time>
      </trkpt>
      <trkpt lat="43.06542" lon="-1.77027">
        <ele>800.629</ele>
        <time>2020-05-15T21:50:39Z</time>
      </trkpt>
      <trkpt lat="43.06535" lon="-1.77021">
        <ele>801.194</ele>
        <time>2020-05-15T21:50:59Z</time>
      </trkpt>
      <trkpt lat="43.06526" lon="-1.77012">
        <ele>801.514</ele>
        <time>2020-05-15T21:51:19Z</time>
      </trkpt>
      <trkpt lat="43.06516" lon="-1.77004">
        <ele>802.491</ele>
        <time>2020-05-15T21:51:39Z</time>
      </trkpt>
      <trkpt lat="43.06505" lon="-1.76996">
        <ele>802.763</ele>
        <time>2020-05-15T21:51:59Z</time>
      </trkpt>
      <trkpt lat="43.06495" lon="-1.76988">
        <ele>803.565</ele>
        <time>2020-05-15T21:52:19Z</time>
      </trkpt>
      <trkpt lat="43.06484" lon="-1.7698">
        <ele>804.268</ele>
        <time>2020-05-15T21:52:39Z</time>
      </trkpt>
      <trkpt lat="43.06472" lon="-1.76972">
        <ele>804.614</ele>
        <time>2020-05-15T21:52:59Z</time>
      </trkpt>
      <trkpt lat="43.06462" lon="-1.76966">
        <ele>805.308</ele>
        <time>2020-05-15T21:53:19Z</time>
      </trkpt>
      <trkpt lat="43.06452" lon="-1.7696">
        <ele>805.13</ele>
        <time>2020-05-15T21:53:39Z</time>
      </trkpt>
      <trkpt lat="43.06443" lon="-1.76957">
        <ele>805.345</ele>
        <time>2020-05-15T21:53:59Z</time>
      </trkpt>
      <trkpt lat="43.06434" lon="-1.76953">
        <ele>805.119</ele>
        <time>2020-05-15T21:54:19Z</time>
      </trkpt>
      <trkpt lat="43.06426" lon="-1.76951">
        <ele>805.527</ele>
        <time>2020-05-15T21:54:39Z</time>
      </trkpt>
      <trkpt lat="43.06417" lon="-1.76949">
        <ele>805.432</ele>
        <time>2020-05-15T21:54:59Z</time>
      </trkpt>
      <trkpt lat="43.06409" lon="-1.76947">
        <ele>807.422</ele>
        <time>2020-05-15T21:55:19Z</time>
      </trkpt>
      <trkpt lat="43.064" lon="-1.76945">
        <ele>806.029</ele>
        <time>2020-05-15T21:55:39Z</time>
      </trkpt>
      <trkpt lat="43.0638" lon="-1.76942">
        <ele>808.571</ele>
        <time>2020-05-15T21:55:59Z</time>
      </trkpt>
      <trkpt lat="43.06359" lon="-1.76939">
        <ele>807.788</ele>
        <time>2020-05-15T21:56:19Z</time>
      </trkpt>
      <trkpt lat="43.06335" lon="-1.76935">
        <ele>809.424</ele>
        <time>2020-05-15T21:56:39Z</time>
      </trkpt>
      <trkpt lat="43.06309" lon="-1.76932">
        <ele>810.926</ele>
        <time>2020-05-15T21:56:59Z</time>
      </trkpt>
      <trkpt lat="43.06283" lon="-1.76928">
        <ele>812.708</ele>
        <time>2020-05-15T21:57:19Z</time>
      </trkpt>
      <trkpt lat="43.06268" lon="-1.76926">
        <ele>813.512</ele>
        <time>2020-05-15T21:57:39Z</time>
      </trkpt>
      <trkpt lat="43.06254" lon="-1.76924">
        <ele>814.777</ele>
        <time>2020-05-15T21:57:59Z</time>
      </trkpt>
      <trkpt lat="43.06248" lon="-1.76923">
        <ele>815.291</ele>
        <time>2020-05-15T21:58:19Z</time>
      </trkpt>
      <trkpt lat="43.06241" lon="-1.76922">
        <ele>815.679</ele>
        <time>2020-05-15T21:58:39Z</time>
      </trkpt>
      <trkpt lat="43.06227" lon="-1.7692">
        <ele>818.544</ele>
        <time>2020-05-15T21:58:59Z</time>
      </trkpt>
      <trkpt lat="43.06211" lon="-1.76917">
        <ele>818.234</ele>
        <time>2020-05-15T21:59:19Z</time>
      </trkpt>
      <trkpt lat="43.06203" lon="-1.76916">
        <ele>818.841</ele>
        <time>2020-05-15T21:59:39Z</time>
      </trkpt>
      <trkpt lat="43.06195" lon="-1.76914">
        <ele>819.493</ele>
        <time>2020-05-15T21:59:59Z</time>
      </trkpt>
      <trkpt lat="43.06188" lon="-1.76913">
        <ele>820.086</ele>
        <time>2020-05-15T22:00:19Z</time>
      </trkpt>
      <trkpt lat="43.06174" lon="-1.76909">
        <ele>821.16</ele>
        <time>2020-05-15T22:00:39Z</time>
      </trkpt>
      <trkpt lat="43.06155" lon="-1.76904">
        <ele>823.726</ele>
        <time>2020-05-15T22:00:59Z</time>
      </trkpt>
      <trkpt lat="43.0614" lon="-1.769">
        <ele>824.608</ele>
        <time>2020-05-15T22:01:19Z</time>
      </trkpt>
      <trkpt lat="43.06132" lon="-1.76898">
        <ele>827.462</ele>
        <time>2020-05-15T22:01:39Z</time>
      </trkpt>
      <trkpt lat="43.06122" lon="-1.76896">
        <ele>825.997</ele>
        <time>2020-05-15T22:01:59Z</time>
      </trkpt>
      <trkpt lat="43.06111" lon="-1.76893">
        <ele>826.411</ele>
        <time>2020-05-15T22:02:19Z</time>
      </trkpt>
      <trkpt lat="43.061" lon="-1.76891">
        <ele>827.259</ele>
        <time>2020-05-15T22:02:39Z</time>
      </trkpt>
      <trkpt lat="43.06091" lon="-1.76889">
        <ele>827.674</ele>
        <time>2020-05-15T22:02:59Z</time>
      </trkpt>
      <trkpt lat="43.06082" lon="-1.76887">
        <ele>827.784</ele>
        <time>2020-05-15T22:03:19Z</time>
      </trkpt>
      <trkpt lat="43.06078" lon="-1.76886">
        <ele>827.941</ele>
        <time>2020-05-15T22:03:39Z</time>
      </trkpt>
      <trkpt lat="43.06076" lon="-1.76885">
        <ele>827.933</ele>
        <time>2020-05-15T22:03:59Z</time>
      </trkpt>
      <trkpt lat="43.06074" lon="-1.76884">
        <ele>827.961</ele>
        <time>2020-05-15T22:04:19Z</time>
      </trkpt>
      <trkpt lat="43.06072" lon="-1.76882">
        <ele>828.021</ele>
        <time>2020-05-15T22:04:39Z</time>
      </trkpt>
      <trkpt lat="43.06069" lon="-1.7688">
        <ele>828.013</ele>
        <time>2020-05-15T22:04:59Z</time>
      </trkpt>
      <trkpt lat="43.06068" lon="-1.76879">
        <ele>828.108</ele>
        <time>2020-05-15T22:05:19Z</time>
      </trkpt>
      <trkpt lat="43.06064" lon="-1.76875">
        <ele>828.06</ele>
        <time>2020-05-15T22:05:39Z</time>
      </trkpt>
      <trkpt lat="43.06062" lon="-1.76872">
        <ele>828.295</ele>
        <time>2020-05-15T22:05:59Z</time>
      </trkpt>
      <trkpt lat="43.06061" lon="-1.7687">
        <ele>828.289</ele>
        <time>2020-05-15T22:06:19Z</time>
      </trkpt>
      <trkpt lat="43.06059" lon="-1.76865">
        <ele>828.377</ele>
        <time>2020-05-15T22:06:39Z</time>
      </trkpt>
      <trkpt lat="43.06056" lon="-1.76858">
        <ele>828.392</ele>
        <time>2020-05-15T22:06:59Z</time>
      </trkpt>
      <trkpt lat="43.06047" lon="-1.76835">
        <ele>828.862</ele>
        <time>2020-05-15T22:07:19Z</time>
      </trkpt>
      <trkpt lat="43.06037" lon="-1.76809">
        <ele>829.119</ele>
        <time>2020-05-15T22:07:39Z</time>
      </trkpt>
      <trkpt lat="43.06034" lon="-1.768">
        <ele>829.211</ele>
        <time>2020-05-15T22:07:59Z</time>
      </trkpt>
      <trkpt lat="43.06032" lon="-1.76795">
        <ele>829.591</ele>
        <time>2020-05-15T22:08:19Z</time>
      </trkpt>
      <trkpt lat="43.06026" lon="-1.7678">
        <ele>829.881</ele>
        <time>2020-05-15T22:08:39Z</time>
      </trkpt>
      <trkpt lat="43.06025" lon="-1.76777">
        <ele>829.819</ele>
        <time>2020-05-15T22:08:59Z</time>
      </trkpt>
      <trkpt lat="43.06019" lon="-1.76762">
        <ele>829.808</ele>
        <time>2020-05-15T22:09:19Z</time>
      </trkpt>
      <trkpt lat="43.06017" lon="-1.76754">
        <ele>829.653</ele>
        <time>2020-05-15T22:09:39Z</time>
      </trkpt>
      <trkpt lat="43.06015" lon="-1.7675">
        <ele>828.628</ele>
        <time>2020-05-15T22:09:59Z</time>
      </trkpt>
      <trkpt lat="43.06015" lon="-1.76747">
        <ele>828.612</ele>
        <time>2020-05-15T22:10:19Z</time>
      </trkpt>
      <trkpt lat="43.06014" lon="-1.76744">
        <ele>828.09</ele>
        <time>2020-05-15T22:10:39Z</time>
      </trkpt>
      <trkpt lat="43.06014" lon="-1.76741">
        <ele>828.055</ele>
        <time>2020-05-15T22:10:59Z</time>
      </trkpt>
      <trkpt lat="43.06014" lon="-1.76738">
        <ele>827.715</ele>
        <time>2020-05-15T22:11:19Z</time>
      </trkpt>
      <trkpt lat="43.06015" lon="-1.76736">
        <ele>827.762</ele>
        <time>2020-05-15T22:11:39Z</time>
      </trkpt>
      <trkpt lat="43.06016" lon="-1.76735">
        <ele>827.734</ele>
        <time>2020-05-15T22:11:59Z</time>
      </trkpt>
      <trkpt lat="43.06017" lon="-1.76731">
        <ele>827.624</ele>
        <time>2020-05-15T22:12:19Z</time>
      </trkpt>
      <trkpt lat="43.06019" lon="-1.76728">
        <ele>828.004</ele>
        <time>2020-05-15T22:12:39Z</time>
      </trkpt>
      <trkpt lat="43.06022" lon="-1.76723">
        <ele>826.914</ele>
        <time>2020-05-15T22:12:59Z</time>
      </trkpt>
      <trkpt lat="43.06029" lon="-1.76713">
        <ele>826.208</ele>
        <time>2020-05-15T22:13:19Z</time>
      </trkpt>
      <trkpt lat="43.06034" lon="-1.76704">
        <ele>828.446</ele>
        <time>2020-05-15T22:13:39Z</time>
      </trkpt>
      <trkpt lat="43.06035" lon="-1.76702">
        <ele>825.371</ele>
        <time>2020-05-15T22:13:59Z</time>
      </trkpt>
      <trkpt lat="43.06035" lon="-1.767">
        <ele>825.315</ele>
        <time>2020-05-15T22:14:19Z</time>
      </trkpt>
      <trkpt lat="43.06035" lon="-1.767">
        <ele>825.373</ele>
        <time>2020-05-15T22:14:39Z</time>
      </trkpt>
      <trkpt lat="43.06036" lon="-1.76692">
        <ele>826.168</ele>
        <time>2020-05-15T22:14:59Z</time>
      </trkpt>
      <trkpt lat="43.06037" lon="-1.76678">
        <ele>824.878</ele>
        <time>2020-05-15T22:15:19Z</time>
      </trkpt>
      <trkpt lat="43.0604" lon="-1.76635">
        <ele>821.955</ele>
        <time>2020-05-15T22:15:39Z</time>
      </trkpt>
      <trkpt lat="43.06044" lon="-1.76595">
        <ele>820.287</ele>
        <time>2020-05-15T22:15:59Z</time>
      </trkpt>
      <trkpt lat="43.06044" lon="-1.76591">
        <ele>820.134</ele>
        <time>2020-05-15T22:16:19Z</time>
      </trkpt>
      <trkpt lat="43.06044" lon="-1.76588">
        <ele>820.155</ele>
        <time>2020-05-15T22:16:39Z</time>
      </trkpt>
      <trkpt lat="43.06044" lon="-1.76584">
        <ele>819.81</ele>
        <time>2020-05-15T22:16:59Z</time>
      </trkpt>
      <trkpt lat="43.06044" lon="-1.76581">
        <ele>819.808</ele>
        <time>2020-05-15T22:17:19Z</time>
      </trkpt>
      <trkpt lat="43.06044" lon="-1.76578">
        <ele>819.437</ele>
        <time>2020-05-15T22:17:39Z</time>
      </trkpt>
      <trkpt lat="43.06043" lon="-1.76574">
        <ele>819.312</ele>
        <time>2020-05-15T22:17:59Z</time>
      </trkpt>
      <trkpt lat="43.06042" lon="-1.76565">
        <ele>818.916</ele>
        <time>2020-05-15T22:18:19Z</time>
      </trkpt>
      <trkpt lat="43.06041" lon="-1.76556">
        <ele>818.724</ele>
        <time>2020-05-15T22:18:39Z</time>
      </trkpt>
      <trkpt lat="43.0604" lon="-1.76548">
        <ele>817.969</ele>
        <time>2020-05-15T22:18:59Z</time>
      </trkpt>
      <trkpt lat="43.06038" lon="-1.76534">
        <ele>817.529</ele>
        <time>2020-05-15T22:19:19Z</time>
      </trkpt>
      <trkpt lat="43.06038" lon="-1.76531">
        <ele>817.546</ele>
        <time>2020-05-15T22:19:39Z</time>
      </trkpt>
      <trkpt lat="43.06038" lon="-1.76526">
        <ele>817.158</ele>
        <time>2020-05-15T22:19:59Z</time>
      </trkpt>
      <trkpt lat="43.06038" lon="-1.7652">
        <ele>816.998</ele>
        <time>2020-05-15T22:20:19Z</time>
      </trkpt>
      <trkpt lat="43.06038" lon="-1.76517">
        <ele>816.715</ele>
        <time>2020-05-15T22:20:39Z</time>
      </trkpt>
      <trkpt lat="43.06039" lon="-1.76512">
        <ele>816.626</ele>
        <time>2020-05-15T22:20:59Z</time>
      </trkpt>
      <trkpt lat="43.06039" lon="-1.76508">
        <ele>816.608</ele>
        <time>2020-05-15T22:21:19Z</time>
      </trkpt>
      <trkpt lat="43.0604" lon="-1.76505">
        <ele>816.093</ele>
        <time>2020-05-15T22:21:39Z</time>
      </trkpt>
      <trkpt lat="43.06041" lon="-1.765">
        <ele>816.018</ele>
        <time>2020-05-15T22:21:59Z</time>
      </trkpt>
      <trkpt lat="43.06041" lon="-1.76497">
        <ele>815.992</ele>
        <time>2020-05-15T22:22:19Z</time>
      </trkpt>
      <trkpt lat="43.06042" lon="-1.76494">
        <ele>815.99</ele>
        <time>2020-05-15T22:22:39Z</time>
      </trkpt>
      <trkpt lat="43.06044" lon="-1.76491">
        <ele>815.485</ele>
        <time>2020-05-15T22:22:59Z</time>
      </trkpt>
      <trkpt lat="43.06045" lon="-1.76489">
        <ele>815.425</ele>
        <time>2020-05-15T22:23:19Z</time>
      </trkpt>
      <trkpt lat="43.06047" lon="-1.76485">
        <ele>815.312</ele>
        <time>2020-05-15T22:23:39Z</time>
      </trkpt>
      <trkpt lat="43.06048" lon="-1.76483">
        <ele>817.944</ele>
        <time>2020-05-15T22:23:59Z</time>
      </trkpt>
      <trkpt lat="43.0605" lon="-1.76481">
        <ele>814.414</ele>
        <time>2020-05-15T22:24:19Z</time>
      </trkpt>
      <trkpt lat="43.06052" lon="-1.76477">
        <ele>814.254</ele>
        <time>2020-05-15T22:24:39Z</time>
      </trkpt>
      <trkpt lat="43.06056" lon="-1.76472">
        <ele>814.009</ele>
        <time>2020-05-15T22:24:59Z</time>
      </trkpt>
      <trkpt lat="43.06064" lon="-1.76463">
        <ele>813.308</ele>
        <time>2020-05-15T22:25:19Z</time>
      </trkpt>
      <trkpt lat="43.0607" lon="-1.76456">
        <ele>816.645</ele>
        <time>2020-05-15T22:25:39Z</time>
      </trkpt>
      <trkpt lat="43.06077" lon="-1.76448">
        <ele>811.79</ele>
        <time>2020-05-15T22:25:59Z</time>
      </trkpt>
      <trkpt lat="43.06084" lon="-1.76441">
        <ele>811.974</ele>
        <time>2020-05-15T22:26:19Z</time>
      </trkpt>
      <trkpt lat="43.06086" lon="-1.76437">
        <ele>811.992</ele>
        <time>2020-05-15T22:26:39Z</time>
      </trkpt>
      <trkpt lat="43.06089" lon="-1.76434">
        <ele>811.217</ele>
        <time>2020-05-15T22:26:59Z</time>
      </trkpt>
      <trkpt lat="43.0609" lon="-1.76432">
        <ele>811.287</ele>
        <time>2020-05-15T22:27:19Z</time>
      </trkpt>
      <trkpt lat="43.06091" lon="-1.7643">
        <ele>810.534</ele>
        <time>2020-05-15T22:27:39Z</time>
      </trkpt>
      <trkpt lat="43.06093" lon="-1.76425">
        <ele>810.586</ele>
        <time>2020-05-15T22:27:59Z</time>
      </trkpt>
      <trkpt lat="43.06095" lon="-1.7642">
        <ele>810.475</ele>
        <time>2020-05-15T22:28:19Z</time>
      </trkpt>
      <trkpt lat="43.06097" lon="-1.76412">
        <ele>809.928</ele>
        <time>2020-05-15T22:28:39Z</time>
      </trkpt>
      <trkpt lat="43.06099" lon="-1.76405">
        <ele>809.22</ele>
        <time>2020-05-15T22:28:59Z</time>
      </trkpt>
      <trkpt lat="43.06102" lon="-1.76395">
        <ele>809.208</ele>
        <time>2020-05-15T22:29:19Z</time>
      </trkpt>
      <trkpt lat="43.06104" lon="-1.76384">
        <ele>808.491</ele>
        <time>2020-05-15T22:29:39Z</time>
      </trkpt>
      <trkpt lat="43.06105" lon="-1.7638">
        <ele>807.736</ele>
        <time>2020-05-15T22:29:59Z</time>
      </trkpt>
      <trkpt lat="43.06107" lon="-1.76367">
        <ele>807.33</ele>
        <time>2020-05-15T22:30:19Z</time>
      </trkpt>
      <trkpt lat="43.06109" lon="-1.76346">
        <ele>806.248</ele>
        <time>2020-05-15T22:30:39Z</time>
      </trkpt>
      <trkpt lat="43.06111" lon="-1.76336">
        <ele>805.813</ele>
        <time>2020-05-15T22:30:59Z</time>
      </trkpt>
      <trkpt lat="43.06112" lon="-1.76328">
        <ele>805.433</ele>
        <time>2020-05-15T22:31:19Z</time>
      </trkpt>
      <trkpt lat="43.06113" lon="-1.76319">
        <ele>805.01</ele>
        <time>2020-05-15T22:31:39Z</time>
      </trkpt>
      <trkpt lat="43.06114" lon="-1.76314">
        <ele>805.032</ele>
        <time>2020-05-15T22:31:59Z</time>
      </trkpt>
      <trkpt lat="43.06117" lon="-1.76305">
        <ele>804.586</ele>
        <time>2020-05-15T22:32:19Z</time>
      </trkpt>
      <trkpt lat="43.06121" lon="-1.76294">
        <ele>804.26</ele>
        <time>2020-05-15T22:32:39Z</time>
      </trkpt>
      <trkpt lat="43.06124" lon="-1.76287">
        <ele>804.026</ele>
        <time>2020-05-15T22:32:59Z</time>
      </trkpt>
      <trkpt lat="43.06125" lon="-1.76285">
        <ele>804.008</ele>
        <time>2020-05-15T22:33:19Z</time>
      </trkpt>
      <trkpt lat="43.06125" lon="-1.76283">
        <ele>804.012</ele>
        <time>2020-05-15T22:33:39Z</time>
      </trkpt>
      <trkpt lat="43.06126" lon="-1.76281">
        <ele>803.657</ele>
        <time>2020-05-15T22:33:59Z</time>
      </trkpt>
      <trkpt lat="43.06125" lon="-1.76279">
        <ele>803.681</ele>
        <time>2020-05-15T22:34:19Z</time>
      </trkpt>
      <trkpt lat="43.06125" lon="-1.76277">
        <ele>803.629</ele>
        <time>2020-05-15T22:34:39Z</time>
      </trkpt>
      <trkpt lat="43.06125" lon="-1.76275">
        <ele>803.384</ele>
        <time>2020-05-15T22:34:59Z</time>
      </trkpt>
      <trkpt lat="43.06124" lon="-1.76273">
        <ele>803.374</ele>
        <time>2020-05-15T22:35:19Z</time>
      </trkpt>
      <trkpt lat="43.06124" lon="-1.76271">
        <ele>803.351</ele>
        <time>2020-05-15T22:35:39Z</time>
      </trkpt>
      <trkpt lat="43.06123" lon="-1.7627">
        <ele>803.163</ele>
        <time>2020-05-15T22:35:59Z</time>
      </trkpt>
      <trkpt lat="43.06122" lon="-1.76269">
        <ele>803.175</ele>
        <time>2020-05-15T22:36:19Z</time>
      </trkpt>
      <trkpt lat="43.06121" lon="-1.76267">
        <ele>802.828</ele>
        <time>2020-05-15T22:36:39Z</time>
      </trkpt>
      <trkpt lat="43.0612" lon="-1.76266">
        <ele>802.82</ele>
        <time>2020-05-15T22:36:59Z</time>
      </trkpt>
      <trkpt lat="43.06119" lon="-1.76265">
        <ele>802.808</ele>
        <time>2020-05-15T22:37:19Z</time>
      </trkpt>
      <trkpt lat="43.06118" lon="-1.76264">
        <ele>802.811</ele>
        <time>2020-05-15T22:37:39Z</time>
      </trkpt>
      <trkpt lat="43.06116" lon="-1.76263">
        <ele>802.326</ele>
        <time>2020-05-15T22:37:59Z</time>
      </trkpt>
      <trkpt lat="43.06115" lon="-1.76263">
        <ele>802.37</ele>
        <time>2020-05-15T22:38:19Z</time>
      </trkpt>
      <trkpt lat="43.06113" lon="-1.76263">
        <ele>802.318</ele>
        <time>2020-05-15T22:38:39Z</time>
      </trkpt>
      <trkpt lat="43.06111" lon="-1.76263">
        <ele>802.283</ele>
        <time>2020-05-15T22:38:59Z</time>
      </trkpt>
      <trkpt lat="43.0611" lon="-1.76263">
        <ele>802.243</ele>
        <time>2020-05-15T22:39:19Z</time>
      </trkpt>
      <trkpt lat="43.06108" lon="-1.76263">
        <ele>802.27</ele>
        <time>2020-05-15T22:39:39Z</time>
      </trkpt>
      <trkpt lat="43.06105" lon="-1.76264">
        <ele>802.042</ele>
        <time>2020-05-15T22:39:59Z</time>
      </trkpt>
      <trkpt lat="43.06097" lon="-1.76269">
        <ele>801.485</ele>
        <time>2020-05-15T22:40:19Z</time>
      </trkpt>
      <trkpt lat="43.06085" lon="-1.76274">
        <ele>800.989</ele>
        <time>2020-05-15T22:40:39Z</time>
      </trkpt>
      <trkpt lat="43.06058" lon="-1.76293">
        <ele>798.617</ele>
        <time>2020-05-15T22:40:59Z</time>
      </trkpt>
      <trkpt lat="43.0604" lon="-1.76305">
        <ele>798.308</ele>
        <time>2020-05-15T22:41:19Z</time>
      </trkpt>
      <trkpt lat="43.05993" lon="-1.76331">
        <ele>795.442</ele>
        <time>2020-05-15T22:41:39Z</time>
      </trkpt>
      <trkpt lat="43.05945" lon="-1.76357">
        <ele>792.027</ele>
        <time>2020-05-15T22:41:59Z</time>
      </trkpt>
      <trkpt lat="43.05942" lon="-1.76358">
        <ele>791.791</ele>
        <time>2020-05-15T22:42:19Z</time>
      </trkpt>
      <trkpt lat="43.05938" lon="-1.76359">
        <ele>791.779</ele>
        <time>2020-05-15T22:42:39Z</time>
      </trkpt>
      <trkpt lat="43.05935" lon="-1.7636">
        <ele>791.324</ele>
        <time>2020-05-15T22:42:59Z</time>
      </trkpt>
      <trkpt lat="43.05932" lon="-1.76361">
        <ele>789.854</ele>
        <time>2020-05-15T22:43:19Z</time>
      </trkpt>
      <trkpt lat="43.05929" lon="-1.76361">
        <ele>789.871</ele>
        <time>2020-05-15T22:43:39Z</time>
      </trkpt>
      <trkpt lat="43.05925" lon="-1.76362">
        <ele>789.453</ele>
        <time>2020-05-15T22:43:59Z</time>
      </trkpt>
      <trkpt lat="43.05922" lon="-1.76362">
        <ele>789.471</ele>
        <time>2020-05-15T22:44:19Z</time>
      </trkpt>
      <trkpt lat="43.05919" lon="-1.76362">
        <ele>789.541</ele>
        <time>2020-05-15T22:44:39Z</time>
      </trkpt>
      <trkpt lat="43.05916" lon="-1.76362">
        <ele>789.515</ele>
        <time>2020-05-15T22:44:59Z</time>
      </trkpt>
      <trkpt lat="43.05912" lon="-1.76362">
        <ele>788.408</ele>
        <time>2020-05-15T22:45:19Z</time>
      </trkpt>
      <trkpt lat="43.05909" lon="-1.76361">
        <ele>789.841</ele>
        <time>2020-05-15T22:45:39Z</time>
      </trkpt>
      <trkpt lat="43.05906" lon="-1.76361">
        <ele>789.626</ele>
        <time>2020-05-15T22:45:59Z</time>
      </trkpt>
      <trkpt lat="43.05902" lon="-1.76359">
        <ele>789.66</ele>
        <time>2020-05-15T22:46:19Z</time>
      </trkpt>
      <trkpt lat="43.05899" lon="-1.76359">
        <ele>789.328</ele>
        <time>2020-05-15T22:46:39Z</time>
      </trkpt>
      <trkpt lat="43.05896" lon="-1.76358">
        <ele>789.163</ele>
        <time>2020-05-15T22:46:59Z</time>
      </trkpt>
      <trkpt lat="43.0589" lon="-1.76355">
        <ele>788.813</ele>
        <time>2020-05-15T22:47:19Z</time>
      </trkpt>
      <trkpt lat="43.05887" lon="-1.76354">
        <ele>788.65</ele>
        <time>2020-05-15T22:47:39Z</time>
      </trkpt>
      <trkpt lat="43.05884" lon="-1.76352">
        <ele>788.692</ele>
        <time>2020-05-15T22:47:59Z</time>
      </trkpt>
      <trkpt lat="43.05879" lon="-1.76349">
        <ele>788.167</ele>
        <time>2020-05-15T22:48:19Z</time>
      </trkpt>
      <trkpt lat="43.05876" lon="-1.76347">
        <ele>787.881</ele>
        <time>2020-05-15T22:48:39Z</time>
      </trkpt>
      <trkpt lat="43.05874" lon="-1.76346">
        <ele>787.819</ele>
        <time>2020-05-15T22:48:59Z</time>
      </trkpt>
      <trkpt lat="43.0587" lon="-1.76342">
        <ele>787.408</ele>
        <time>2020-05-15T22:49:19Z</time>
      </trkpt>
      <trkpt lat="43.05866" lon="-1.76338">
        <ele>787.26</ele>
        <time>2020-05-15T22:49:39Z</time>
      </trkpt>
      <trkpt lat="43.05862" lon="-1.76333">
        <ele>786.465</ele>
        <time>2020-05-15T22:49:59Z</time>
      </trkpt>
      <trkpt lat="43.05859" lon="-1.76328">
        <ele>786.059</ele>
        <time>2020-05-15T22:50:19Z</time>
      </trkpt>
      <trkpt lat="43.05857" lon="-1.76325">
        <ele>786.037</ele>
        <time>2020-05-15T22:50:39Z</time>
      </trkpt>
      <trkpt lat="43.05856" lon="-1.76323">
        <ele>785.552</ele>
        <time>2020-05-15T22:50:59Z</time>
      </trkpt>
      <trkpt lat="43.05855" lon="-1.7632">
        <ele>785.522</ele>
        <time>2020-05-15T22:51:19Z</time>
      </trkpt>
      <trkpt lat="43.05854" lon="-1.76317">
        <ele>785.259</ele>
        <time>2020-05-15T22:51:39Z</time>
      </trkpt>
      <trkpt lat="43.05853" lon="-1.76314">
        <ele>785.251</ele>
        <time>2020-05-15T22:51:59Z</time>
      </trkpt>
      <trkpt lat="43.05852" lon="-1.76311">
        <ele>784.674</ele>
        <time>2020-05-15T22:52:19Z</time>
      </trkpt>
      <trkpt lat="43.05851" lon="-1.76304">
        <ele>784.056</ele>
        <time>2020-05-15T22:52:39Z</time>
      </trkpt>
      <trkpt lat="43.05849" lon="-1.76295">
        <ele>783.721</ele>
        <time>2020-05-15T22:52:59Z</time>
      </trkpt>
      <trkpt lat="43.05849" lon="-1.76289">
        <ele>783.408</ele>
        <time>2020-05-15T22:53:19Z</time>
      </trkpt>
      <trkpt lat="43.05848" lon="-1.76285">
        <ele>782.891</ele>
        <time>2020-05-15T22:53:39Z</time>
      </trkpt>
      <trkpt lat="43.05847" lon="-1.76282">
        <ele>783.116</ele>
        <time>2020-05-15T22:53:59Z</time>
      </trkpt>
      <trkpt lat="43.05845" lon="-1.7628">
        <ele>782.26</ele>
        <time>2020-05-15T22:54:19Z</time>
      </trkpt>
      <trkpt lat="43.05844" lon="-1.76278">
        <ele>782.278</ele>
        <time>2020-05-15T22:54:39Z</time>
      </trkpt>
      <trkpt lat="43.05843" lon="-1.76276">
        <ele>782.153</ele>
        <time>2020-05-15T22:54:59Z</time>
      </trkpt>
      <trkpt lat="43.05842" lon="-1.76274">
        <ele>781.773</ele>
        <time>2020-05-15T22:55:19Z</time>
      </trkpt>
      <trkpt lat="43.0584" lon="-1.76272">
        <ele>781.73</ele>
        <time>2020-05-15T22:55:39Z</time>
      </trkpt>
      <trkpt lat="43.05838" lon="-1.76271">
        <ele>781.752</ele>
        <time>2020-05-15T22:55:59Z</time>
      </trkpt>
      <trkpt lat="43.05835" lon="-1.7627">
        <ele>781.556</ele>
        <time>2020-05-15T22:56:19Z</time>
      </trkpt>
      <trkpt lat="43.05832" lon="-1.76269">
        <ele>781.359</ele>
        <time>2020-05-15T22:56:39Z</time>
      </trkpt>
      <trkpt lat="43.0583" lon="-1.76269">
        <ele>781.314</ele>
        <time>2020-05-15T22:56:59Z</time>
      </trkpt>
      <trkpt lat="43.05825" lon="-1.76269">
        <ele>780.808</ele>
        <time>2020-05-15T22:57:19Z</time>
      </trkpt>
      <trkpt lat="43.05822" lon="-1.76269">
        <ele>780.529</ele>
        <time>2020-05-15T22:57:39Z</time>
      </trkpt>
      <trkpt lat="43.05821" lon="-1.76269">
        <ele>780.534</ele>
        <time>2020-05-15T22:57:59Z</time>
      </trkpt>
      <trkpt lat="43.05819" lon="-1.76269">
        <ele>780.118</ele>
        <time>2020-05-15T22:58:19Z</time>
      </trkpt>
      <trkpt lat="43.05816" lon="-1.7627">
        <ele>780.156</ele>
        <time>2020-05-15T22:58:39Z</time>
      </trkpt>
      <trkpt lat="43.05813" lon="-1.76271">
        <ele>778.931</ele>
        <time>2020-05-15T22:58:59Z</time>
      </trkpt>
      <trkpt lat="43.05812" lon="-1.76272">
        <ele>778.961</ele>
        <time>2020-05-15T22:59:19Z</time>
      </trkpt>
      <trkpt lat="43.0581" lon="-1.76273">
        <ele>779.088</ele>
        <time>2020-05-15T22:59:39Z</time>
      </trkpt>
      <trkpt lat="43.05805" lon="-1.76277">
        <ele>778.94</ele>
        <time>2020-05-15T22:59:59Z</time>
      </trkpt>
      <trkpt lat="43.058" lon="-1.76281">
        <ele>778.581</ele>
        <time>2020-05-15T23:00:19Z</time>
      </trkpt>
      <trkpt lat="43.05793" lon="-1.76287">
        <ele>777.861</ele>
        <time>2020-05-15T23:00:39Z</time>
      </trkpt>
      <trkpt lat="43.05786" lon="-1.76293">
        <ele>777.617</ele>
        <time>2020-05-15T23:00:59Z</time>
      </trkpt>
      <trkpt lat="43.05779" lon="-1.76295">
        <ele>777.308</ele>
        <time>2020-05-15T23:01:19Z</time>
      </trkpt>
      <trkpt lat="43.05773" lon="-1.76297">
        <ele>776.522</ele>
        <time>2020-05-15T23:01:39Z</time>
      </trkpt>
      <trkpt lat="43.0577" lon="-1.76297">
        <ele>776.217</ele>
        <time>2020-05-15T23:01:59Z</time>
      </trkpt>
      <trkpt lat="43.05768" lon="-1.76297">
        <ele>776.281</ele>
        <time>2020-05-15T23:02:19Z</time>
      </trkpt>
      <trkpt lat="43.05716" lon="-1.7631">
        <ele>771.219</ele>
        <time>2020-05-15T23:02:39Z</time>
      </trkpt>
      <trkpt lat="43.05664" lon="-1.76323">
        <ele>767.764</ele>
        <time>2020-05-15T23:02:59Z</time>
      </trkpt>
      <trkpt lat="43.0564" lon="-1.76327">
        <ele>766.774</ele>
        <time>2020-05-15T23:03:19Z</time>
      </trkpt>
      <trkpt lat="43.05616" lon="-1.7633">
        <ele>764.561</ele>
        <time>2020-05-15T23:03:39Z</time>
      </trkpt>
      <trkpt lat="43.05613" lon="-1.7633">
        <ele>764.553</ele>
        <time>2020-05-15T23:03:59Z</time>
      </trkpt>
      <trkpt lat="43.05611" lon="-1.7633">
        <ele>764.285</ele>
        <time>2020-05-15T23:04:19Z</time>
      </trkpt>
      <trkpt lat="43.05607" lon="-1.76329">
        <ele>763.989</ele>
        <time>2020-05-15T23:04:39Z</time>
      </trkpt>
      <trkpt lat="43.05603" lon="-1.76329">
        <ele>763.617</ele>
        <time>2020-05-15T23:04:59Z</time>
      </trkpt>
      <trkpt lat="43.05597" lon="-1.76327">
        <ele>763.008</ele>
        <time>2020-05-15T23:05:19Z</time>
      </trkpt>
      <trkpt lat="43.05591" lon="-1.76326">
        <ele>762.552</ele>
        <time>2020-05-15T23:05:39Z</time>
      </trkpt>
      <trkpt lat="43.05582" lon="-1.76321">
        <ele>762.197</ele>
        <time>2020-05-15T23:05:59Z</time>
      </trkpt>
      <trkpt lat="43.05579" lon="-1.76319">
        <ele>761.091</ele>
        <time>2020-05-15T23:06:19Z</time>
      </trkpt>
      <trkpt lat="43.05575" lon="-1.76316">
        <ele>761.289</ele>
        <time>2020-05-15T23:06:39Z</time>
      </trkpt>
      <trkpt lat="43.05572" lon="-1.76313">
        <ele>761.094</ele>
        <time>2020-05-15T23:06:59Z</time>
      </trkpt>
      <trkpt lat="43.05569" lon="-1.76309">
        <ele>760.824</ele>
        <time>2020-05-15T23:07:19Z</time>
      </trkpt>
      <trkpt lat="43.05564" lon="-1.763">
        <ele>760.231</ele>
        <time>2020-05-15T23:07:39Z</time>
      </trkpt>
      <trkpt lat="43.05561" lon="-1.76294">
        <ele>759.483</ele>
        <time>2020-05-15T23:07:59Z</time>
      </trkpt>
      <trkpt lat="43.05559" lon="-1.76287">
        <ele>759.321</ele>
        <time>2020-05-15T23:08:19Z</time>
      </trkpt>
      <trkpt lat="43.05555" lon="-1.76281">
        <ele>758.941</ele>
        <time>2020-05-15T23:08:39Z</time>
      </trkpt>
      <trkpt lat="43.05552" lon="-1.76274">
        <ele>758.505</ele>
        <time>2020-05-15T23:08:59Z</time>
      </trkpt>
      <trkpt lat="43.05549" lon="-1.76269">
        <ele>757.908</ele>
        <time>2020-05-15T23:09:19Z</time>
      </trkpt>
      <trkpt lat="43.05546" lon="-1.76265">
        <ele>757.946</ele>
        <time>2020-05-15T23:09:39Z</time>
      </trkpt>
      <trkpt lat="43.05541" lon="-1.76258">
        <ele>757.141</ele>
        <time>2020-05-15T23:09:59Z</time>
      </trkpt>
      <trkpt lat="43.05536" lon="-1.76251">
        <ele>756.765</ele>
        <time>2020-05-15T23:10:19Z</time>
      </trkpt>
      <trkpt lat="43.05528" lon="-1.7624">
        <ele>755.953</ele>
        <time>2020-05-15T23:10:39Z</time>
      </trkpt>
      <trkpt lat="43.05519" lon="-1.76229">
        <ele>754.828</ele>
        <time>2020-05-15T23:10:59Z</time>
      </trkpt>
      <trkpt lat="43.05512" lon="-1.76222">
        <ele>753.748</ele>
        <time>2020-05-15T23:11:19Z</time>
      </trkpt>
      <trkpt lat="43.05506" lon="-1.76215">
        <ele>753.475</ele>
        <time>2020-05-15T23:11:39Z</time>
      </trkpt>
      <trkpt lat="43.05499" lon="-1.76208">
        <ele>752.767</ele>
        <time>2020-05-15T23:11:59Z</time>
      </trkpt>
      <trkpt lat="43.05492" lon="-1.762">
        <ele>752.336</ele>
        <time>2020-05-15T23:12:19Z</time>
      </trkpt>
      <trkpt lat="43.05483" lon="-1.76193">
        <ele>751.217</ele>
        <time>2020-05-15T23:12:39Z</time>
      </trkpt>
      <trkpt lat="43.05474" lon="-1.76186">
        <ele>750.518</ele>
        <time>2020-05-15T23:12:59Z</time>
      </trkpt>
      <trkpt lat="43.05466" lon="-1.7618">
        <ele>749.508</ele>
        <time>2020-05-15T23:13:19Z</time>
      </trkpt>
      <trkpt lat="43.05458" lon="-1.76173">
        <ele>748.987</ele>
        <time>2020-05-15T23:13:39Z</time>
      </trkpt>
      <trkpt lat="43.05451" lon="-1.76169">
        <ele>748.182</ele>
        <time>2020-05-15T23:13:59Z</time>
      </trkpt>
      <trkpt lat="43.05443" lon="-1.76163">
        <ele>747.576</ele>
        <time>2020-05-15T23:14:19Z</time>
      </trkpt>
      <trkpt lat="43.05437" lon="-1.76161">
        <ele>747.434</ele>
        <time>2020-05-15T23:14:39Z</time>
      </trkpt>
      <trkpt lat="43.05431" lon="-1.76158">
        <ele>746.619</ele>
        <time>2020-05-15T23:14:59Z</time>
      </trkpt>
      <trkpt lat="43.05427" lon="-1.76156">
        <ele>746.279</ele>
        <time>2020-05-15T23:15:19Z</time>
      </trkpt>
      <trkpt lat="43.05424" lon="-1.76155">
        <ele>746.136</ele>
        <time>2020-05-15T23:15:39Z</time>
      </trkpt>
      <trkpt lat="43.0542" lon="-1.76155">
        <ele>745.898</ele>
        <time>2020-05-15T23:15:59Z</time>
      </trkpt>
      <trkpt lat="43.05416" lon="-1.76154">
        <ele>745.282</ele>
        <time>2020-05-15T23:16:19Z</time>
      </trkpt>
      <trkpt lat="43.05412" lon="-1.76154">
        <ele>744.943</ele>
        <time>2020-05-15T23:16:39Z</time>
      </trkpt>
      <trkpt lat="43.05408" lon="-1.76153">
        <ele>744.617</ele>
        <time>2020-05-15T23:16:59Z</time>
      </trkpt>
      <trkpt lat="43.054" lon="-1.76154">
        <ele>744.308</ele>
        <time>2020-05-15T23:17:19Z</time>
      </trkpt>
      <trkpt lat="43.05392" lon="-1.76154">
        <ele>743.442</ele>
        <time>2020-05-15T23:17:39Z</time>
      </trkpt>
      <trkpt lat="43.05365" lon="-1.76154">
        <ele>741.477</ele>
        <time>2020-05-15T23:17:59Z</time>
      </trkpt>
      <trkpt lat="43.0536" lon="-1.76154">
        <ele>740.711</ele>
        <time>2020-05-15T23:18:19Z</time>
      </trkpt>
      <trkpt lat="43.05355" lon="-1.76153">
        <ele>740.489</ele>
        <time>2020-05-15T23:18:39Z</time>
      </trkpt>
      <trkpt lat="43.05353" lon="-1.76153">
        <ele>740.124</ele>
        <time>2020-05-15T23:18:59Z</time>
      </trkpt>
      <trkpt lat="43.0535" lon="-1.76153">
        <ele>740.154</ele>
        <time>2020-05-15T23:19:19Z</time>
      </trkpt>
      <trkpt lat="43.05347" lon="-1.76152">
        <ele>739.841</ele>
        <time>2020-05-15T23:19:39Z</time>
      </trkpt>
      <trkpt lat="43.05343" lon="-1.7615">
        <ele>739.283</ele>
        <time>2020-05-15T23:19:59Z</time>
      </trkpt>
      <trkpt lat="43.05337" lon="-1.76148">
        <ele>738.988</ele>
        <time>2020-05-15T23:20:19Z</time>
      </trkpt>
      <trkpt lat="43.05332" lon="-1.76145">
        <ele>738.224</ele>
        <time>2020-05-15T23:20:39Z</time>
      </trkpt>
      <trkpt lat="43.05327" lon="-1.76142">
        <ele>737.726</ele>
        <time>2020-05-15T23:20:59Z</time>
      </trkpt>
      <trkpt lat="43.05323" lon="-1.76138">
        <ele>737.308</ele>
        <time>2020-05-15T23:21:19Z</time>
      </trkpt>
      <trkpt lat="43.05319" lon="-1.76134">
        <ele>737.352</ele>
        <time>2020-05-15T23:21:39Z</time>
      </trkpt>
      <trkpt lat="43.05315" lon="-1.7613">
        <ele>736.667</ele>
        <time>2020-05-15T23:21:59Z</time>
      </trkpt>
      <trkpt lat="43.05304" lon="-1.76115">
        <ele>735.311</ele>
        <time>2020-05-15T23:22:19Z</time>
      </trkpt>
      <trkpt lat="43.05293" lon="-1.761">
        <ele>734.219</ele>
        <time>2020-05-15T23:22:39Z</time>
      </trkpt>
      <trkpt lat="43.05289" lon="-1.76094">
        <ele>733.474</ele>
        <time>2020-05-15T23:22:59Z</time>
      </trkpt>
      <trkpt lat="43.05284" lon="-1.76088">
        <ele>732.984</ele>
        <time>2020-05-15T23:23:19Z</time>
      </trkpt>
      <trkpt lat="43.05278" lon="-1.76082">
        <ele>732.611</ele>
        <time>2020-05-15T23:23:39Z</time>
      </trkpt>
      <trkpt lat="43.05273" lon="-1.76077">
        <ele>732.173</ele>
        <time>2020-05-15T23:23:59Z</time>
      </trkpt>
      <trkpt lat="43.05257" lon="-1.76062">
        <ele>730.655</ele>
        <time>2020-05-15T23:24:19Z</time>
      </trkpt>
      <trkpt lat="43.05244" lon="-1.76051">
        <ele>729.307</ele>
        <time>2020-05-15T23:24:39Z</time>
      </trkpt>
      <trkpt lat="43.05232" lon="-1.76039">
        <ele>728.317</ele>
        <time>2020-05-15T23:24:59Z</time>
      </trkpt>
      <trkpt lat="43.0522" lon="-1.76028">
        <ele>727.508</ele>
        <time>2020-05-15T23:25:19Z</time>
      </trkpt>
      <trkpt lat="43.05207" lon="-1.76017">
        <ele>727.029</ele>
        <time>2020-05-15T23:25:39Z</time>
      </trkpt>
      <trkpt lat="43.05204" lon="-1.76014">
        <ele>726.644</ele>
        <time>2020-05-15T23:25:59Z</time>
      </trkpt>
      <trkpt lat="43.052" lon="-1.76011">
        <ele>726.838</ele>
        <time>2020-05-15T23:26:19Z</time>
      </trkpt>
      <trkpt lat="43.05198" lon="-1.7601">
        <ele>726.816</ele>
        <time>2020-05-15T23:26:39Z</time>
      </trkpt>
      <trkpt lat="43.05195" lon="-1.76009">
        <ele>726.871</ele>
        <time>2020-05-15T23:26:59Z</time>
      </trkpt>
      <trkpt lat="43.05185" lon="-1.76007">
        <ele>726.671</ele>
        <time>2020-05-15T23:27:19Z</time>
      </trkpt>
      <trkpt lat="43.05176" lon="-1.76006">
        <ele>726.418</ele>
        <time>2020-05-15T23:27:39Z</time>
      </trkpt>
      <trkpt lat="43.05171" lon="-1.76005">
        <ele>726.49</ele>
        <time>2020-05-15T23:27:59Z</time>
      </trkpt>
      <trkpt lat="43.05166" lon="-1.76004">
        <ele>726.394</ele>
        <time>2020-05-15T23:28:19Z</time>
      </trkpt>
      <trkpt lat="43.05154" lon="-1.76">
        <ele>725.757</ele>
        <time>2020-05-15T23:28:39Z</time>
      </trkpt>
      <trkpt lat="43.05151" lon="-1.75999">
        <ele>725.722</ele>
        <time>2020-05-15T23:28:59Z</time>
      </trkpt>
      <trkpt lat="43.05149" lon="-1.75999">
        <ele>725.508</ele>
        <time>2020-05-15T23:29:19Z</time>
      </trkpt>
      <trkpt lat="43.05139" lon="-1.75995">
        <ele>724.933</ele>
        <time>2020-05-15T23:29:39Z</time>
      </trkpt>
      <trkpt lat="43.05136" lon="-1.75994">
        <ele>724.748</ele>
        <time>2020-05-15T23:29:59Z</time>
      </trkpt>
      <trkpt lat="43.05133" lon="-1.75993">
        <ele>724.792</ele>
        <time>2020-05-15T23:30:19Z</time>
      </trkpt>
      <trkpt lat="43.05126" lon="-1.7599">
        <ele>723.94</ele>
        <time>2020-05-15T23:30:39Z</time>
      </trkpt>
      <trkpt lat="43.05119" lon="-1.75987">
        <ele>723.735</ele>
        <time>2020-05-15T23:30:59Z</time>
      </trkpt>
      <trkpt lat="43.05108" lon="-1.75983">
        <ele>722.835</ele>
        <time>2020-05-15T23:31:19Z</time>
      </trkpt>
      <trkpt lat="43.05097" lon="-1.75978">
        <ele>722.452</ele>
        <time>2020-05-15T23:31:39Z</time>
      </trkpt>
      <trkpt lat="43.05083" lon="-1.75974">
        <ele>721.574</ele>
        <time>2020-05-15T23:31:59Z</time>
      </trkpt>
      <trkpt lat="43.05069" lon="-1.7597">
        <ele>720.536</ele>
        <time>2020-05-15T23:32:19Z</time>
      </trkpt>
      <trkpt lat="43.05067" lon="-1.75969">
        <ele>720.817</ele>
        <time>2020-05-15T23:32:39Z</time>
      </trkpt>
      <trkpt lat="43.0506" lon="-1.75969">
        <ele>719.818</ele>
        <time>2020-05-15T23:32:59Z</time>
      </trkpt>
      <trkpt lat="43.05054" lon="-1.75968">
        <ele>718.108</ele>
        <time>2020-05-15T23:33:19Z</time>
      </trkpt>
      <trkpt lat="43.05051" lon="-1.75968">
        <ele>718.157</ele>
        <time>2020-05-15T23:33:39Z</time>
      </trkpt>
      <trkpt lat="43.05047" lon="-1.75969">
        <ele>717.042</ele>
        <time>2020-05-15T23:33:59Z</time>
      </trkpt>
      <trkpt lat="43.05044" lon="-1.7597">
        <ele>717.456</ele>
        <time>2020-05-15T23:34:19Z</time>
      </trkpt>
      <trkpt lat="43.05042" lon="-1.75971">
        <ele>717.454</ele>
        <time>2020-05-15T23:34:39Z</time>
      </trkpt>
      <trkpt lat="43.0504" lon="-1.75972">
        <ele>718.869</ele>
        <time>2020-05-15T23:34:59Z</time>
      </trkpt>
      <trkpt lat="43.05037" lon="-1.75975">
        <ele>718.539</ele>
        <time>2020-05-15T23:35:19Z</time>
      </trkpt>
      <trkpt lat="43.05031" lon="-1.75983">
        <ele>718.396</ele>
        <time>2020-05-15T23:35:39Z</time>
      </trkpt>
      <trkpt lat="43.05028" lon="-1.75987">
        <ele>718.288</ele>
        <time>2020-05-15T23:35:59Z</time>
      </trkpt>
      <trkpt lat="43.05026" lon="-1.75989">
        <ele>718.292</ele>
        <time>2020-05-15T23:36:19Z</time>
      </trkpt>
      <trkpt lat="43.05024" lon="-1.75991">
        <ele>718.173</ele>
        <time>2020-05-15T23:36:39Z</time>
      </trkpt>
      <trkpt lat="43.05021" lon="-1.75992">
        <ele>718.12</ele>
        <time>2020-05-15T23:36:59Z</time>
      </trkpt>
      <trkpt lat="43.05018" lon="-1.75993">
        <ele>718.408</ele>
        <time>2020-05-15T23:37:19Z</time>
      </trkpt>
      <trkpt lat="43.05014" lon="-1.75994">
        <ele>718.113</ele>
        <time>2020-05-15T23:37:39Z</time>
      </trkpt>
      <trkpt lat="43.05011" lon="-1.75994">
        <ele>718.138</ele>
        <time>2020-05-15T23:37:59Z</time>
      </trkpt>
      <trkpt lat="43.04986" lon="-1.75995">
        <ele>717.062</ele>
        <time>2020-05-15T23:38:19Z</time>
      </trkpt>
      <trkpt lat="43.04962" lon="-1.75996">
        <ele>716.29</ele>
        <time>2020-05-15T23:38:39Z</time>
      </trkpt>
      <trkpt lat="43.04956" lon="-1.75996">
        <ele>715.965</ele>
        <time>2020-05-15T23:38:59Z</time>
      </trkpt>
      <trkpt lat="43.0495" lon="-1.75995">
        <ele>716.035</ele>
        <time>2020-05-15T23:39:19Z</time>
      </trkpt>
      <trkpt lat="43.04948" lon="-1.75994">
        <ele>716.052</ele>
        <time>2020-05-15T23:39:39Z</time>
      </trkpt>
      <trkpt lat="43.04945" lon="-1.75993">
        <ele>715.584</ele>
        <time>2020-05-15T23:39:59Z</time>
      </trkpt>
      <trkpt lat="43.0494" lon="-1.75991">
        <ele>715.354</ele>
        <time>2020-05-15T23:40:19Z</time>
      </trkpt>
      <trkpt lat="43.04936" lon="-1.75988">
        <ele>715.256</ele>
        <time>2020-05-15T23:40:39Z</time>
      </trkpt>
      <trkpt lat="43.04926" lon="-1.75984">
        <ele>714.711</ele>
        <time>2020-05-15T23:40:59Z</time>
      </trkpt>
      <trkpt lat="43.04916" lon="-1.7598">
        <ele>714.408</ele>
        <time>2020-05-15T23:41:19Z</time>
      </trkpt>
      <trkpt lat="43.0491" lon="-1.75979">
        <ele>713.729</ele>
        <time>2020-05-15T23:41:39Z</time>
      </trkpt>
      <trkpt lat="43.04904" lon="-1.75977">
        <ele>713.494</ele>
        <time>2020-05-15T23:41:59Z</time>
      </trkpt>
      <trkpt lat="43.04896" lon="-1.75976">
        <ele>713.388</ele>
        <time>2020-05-15T23:42:19Z</time>
      </trkpt>
      <trkpt lat="43.04864" lon="-1.7597">
        <ele>711.396</ele>
        <time>2020-05-15T23:42:39Z</time>
      </trkpt>
      <trkpt lat="43.04861" lon="-1.7597">
        <ele>711.071</ele>
        <time>2020-05-15T23:42:59Z</time>
      </trkpt>
      <trkpt lat="43.0484" lon="-1.75967">
        <ele>710.871</ele>
        <time>2020-05-15T23:43:19Z</time>
      </trkpt>
      <trkpt lat="43.04837" lon="-1.75966">
        <ele>710.598</ele>
        <time>2020-05-15T23:43:39Z</time>
      </trkpt>
      <trkpt lat="43.04834" lon="-1.75965">
        <ele>710.14</ele>
        <time>2020-05-15T23:43:59Z</time>
      </trkpt>
      <trkpt lat="43.04833" lon="-1.75965">
        <ele>710.114</ele>
        <time>2020-05-15T23:44:19Z</time>
      </trkpt>
      <trkpt lat="43.04831" lon="-1.75964">
        <ele>710.154</ele>
        <time>2020-05-15T23:44:39Z</time>
      </trkpt>
      <trkpt lat="43.04828" lon="-1.75962">
        <ele>709.909</ele>
        <time>2020-05-15T23:44:59Z</time>
      </trkpt>
      <trkpt lat="43.04824" lon="-1.75961">
        <ele>709.808</ele>
        <time>2020-05-15T23:45:19Z</time>
      </trkpt>
      <trkpt lat="43.04822" lon="-1.75959">
        <ele>709.585</ele>
        <time>2020-05-15T23:45:39Z</time>
      </trkpt>
      <trkpt lat="43.04819" lon="-1.75956">
        <ele>709.25</ele>
        <time>2020-05-15T23:45:59Z</time>
      </trkpt>
      <trkpt lat="43.04808" lon="-1.75945">
        <ele>707.324</ele>
        <time>2020-05-15T23:46:19Z</time>
      </trkpt>
      <trkpt lat="43.04793" lon="-1.75925">
        <ele>707.292</ele>
        <time>2020-05-15T23:46:39Z</time>
      </trkpt>
      <trkpt lat="43.04777" lon="-1.75906">
        <ele>706.287</ele>
        <time>2020-05-15T23:46:59Z</time>
      </trkpt>
      <trkpt lat="43.04773" lon="-1.75903">
        <ele>705.327</ele>
        <time>2020-05-15T23:47:19Z</time>
      </trkpt>
      <trkpt lat="43.04769" lon="-1.759">
        <ele>707.424</ele>
        <time>2020-05-15T23:47:39Z</time>
      </trkpt>
      <trkpt lat="43.04766" lon="-1.75898">
        <ele>704.456</ele>
        <time>2020-05-15T23:47:59Z</time>
      </trkpt>
      <trkpt lat="43.04764" lon="-1.75897">
        <ele>704.451</ele>
        <time>2020-05-15T23:48:19Z</time>
      </trkpt>
      <trkpt lat="43.0476" lon="-1.75896">
        <ele>704.101</ele>
        <time>2020-05-15T23:48:39Z</time>
      </trkpt>
      <trkpt lat="43.04757" lon="-1.75895">
        <ele>704.011</ele>
        <time>2020-05-15T23:48:59Z</time>
      </trkpt>
      <trkpt lat="43.04754" lon="-1.75895">
        <ele>704.008</ele>
        <time>2020-05-15T23:49:19Z</time>
      </trkpt>
      <trkpt lat="43.04751" lon="-1.75894">
        <ele>703.919</ele>
        <time>2020-05-15T23:49:39Z</time>
      </trkpt>
      <trkpt lat="43.04748" lon="-1.75895">
        <ele>703.764</ele>
        <time>2020-05-15T23:49:59Z</time>
      </trkpt>
      <trkpt lat="43.04744" lon="-1.75896">
        <ele>703.728</ele>
        <time>2020-05-15T23:50:19Z</time>
      </trkpt>
      <trkpt lat="43.04741" lon="-1.75897">
        <ele>703.566</ele>
        <time>2020-05-15T23:50:39Z</time>
      </trkpt>
      <trkpt lat="43.04738" lon="-1.75898">
        <ele>703.361</ele>
        <time>2020-05-15T23:50:59Z</time>
      </trkpt>
      <trkpt lat="43.04734" lon="-1.75899">
        <ele>703.241</ele>
        <time>2020-05-15T23:51:19Z</time>
      </trkpt>
      <trkpt lat="43.04732" lon="-1.75899">
        <ele>703.238</ele>
        <time>2020-05-15T23:51:39Z</time>
      </trkpt>
      <trkpt lat="43.04729" lon="-1.75899">
        <ele>703.12</ele>
        <time>2020-05-15T23:51:59Z</time>
      </trkpt>
      <trkpt lat="43.04726" lon="-1.75899">
        <ele>703.173</ele>
        <time>2020-05-15T23:52:19Z</time>
      </trkpt>
      <trkpt lat="43.04724" lon="-1.75898">
        <ele>703.285</ele>
        <time>2020-05-15T23:52:39Z</time>
      </trkpt>
      <trkpt lat="43.04718" lon="-1.75896">
        <ele>703.213</ele>
        <time>2020-05-15T23:52:59Z</time>
      </trkpt>
      <trkpt lat="43.04714" lon="-1.75894">
        <ele>703.208</ele>
        <time>2020-05-15T23:53:19Z</time>
      </trkpt>
      <trkpt lat="43.04708" lon="-1.75891">
        <ele>703.191</ele>
        <time>2020-05-15T23:53:39Z</time>
      </trkpt>
      <trkpt lat="43.04701" lon="-1.75888">
        <ele>702.956</ele>
        <time>2020-05-15T23:53:59Z</time>
      </trkpt>
      <trkpt lat="43.04685" lon="-1.7588">
        <ele>702.21</ele>
        <time>2020-05-15T23:54:19Z</time>
      </trkpt>
      <trkpt lat="43.04668" lon="-1.75873">
        <ele>701.558</ele>
        <time>2020-05-15T23:54:39Z</time>
      </trkpt>
      <trkpt lat="43.04666" lon="-1.75871">
        <ele>701.583</ele>
        <time>2020-05-15T23:54:59Z</time>
      </trkpt>
      <trkpt lat="43.04664" lon="-1.75869">
        <ele>701.153</ele>
        <time>2020-05-15T23:55:19Z</time>
      </trkpt>
      <trkpt lat="43.0466" lon="-1.75864">
        <ele>700.89</ele>
        <time>2020-05-15T23:55:39Z</time>
      </trkpt>
      <trkpt lat="43.04656" lon="-1.7586">
        <ele>701.052</ele>
        <time>2020-05-15T23:55:59Z</time>
      </trkpt>
      <trkpt lat="43.04654" lon="-1.75856">
        <ele>700.911</ele>
        <time>2020-05-15T23:56:19Z</time>
      </trkpt>
      <trkpt lat="43.04652" lon="-1.75854">
        <ele>700.921</ele>
        <time>2020-05-15T23:56:39Z</time>
      </trkpt>
      <trkpt lat="43.04642" lon="-1.75833">
        <ele>700.003</ele>
        <time>2020-05-15T23:56:59Z</time>
      </trkpt>
      <trkpt lat="43.04632" lon="-1.75812">
        <ele>699.408</ele>
        <time>2020-05-15T23:57:19Z</time>
      </trkpt>
      <trkpt lat="43.04631" lon="-1.75809">
        <ele>699.275</ele>
        <time>2020-05-15T23:57:39Z</time>
      </trkpt>
      <trkpt lat="43.0463" lon="-1.75806">
        <ele>699.34</ele>
        <time>2020-05-15T23:57:59Z</time>
      </trkpt>
      <trkpt lat="43.0462" lon="-1.75782">
        <ele>698.734</ele>
        <time>2020-05-15T23:58:19Z</time>
      </trkpt>
      <trkpt lat="43.0461" lon="-1.75758">
        <ele>698.132</ele>
        <time>2020-05-15T23:58:39Z</time>
      </trkpt>
      <trkpt lat="43.04609" lon="-1.75754">
        <ele>697.797</ele>
        <time>2020-05-15T23:58:59Z</time>
      </trkpt>
      <trkpt lat="43.04608" lon="-1.75751">
        <ele>697.737</ele>
        <time>2020-05-15T23:59:19Z</time>
      </trkpt>
      <trkpt lat="43.04606" lon="-1.75744">
        <ele>697.464</ele>
        <time>2020-05-15T23:59:39Z</time>
      </trkpt>
      <trkpt lat="43.04604" lon="-1.75737">
        <ele>697.646</ele>
        <time>2020-05-15T23:59:59Z</time>
      </trkpt>
      <trkpt lat="43.04601" lon="-1.75724">
        <ele>697.299</ele>
        <time>2020-05-16T00:00:19Z</time>
      </trkpt>
      <trkpt lat="43.04598" lon="-1.75711">
        <ele>696.907</ele>
        <time>2020-05-16T00:00:39Z</time>
      </trkpt>
      <trkpt lat="43.04595" lon="-1.75702">
        <ele>696.727</ele>
        <time>2020-05-16T00:00:59Z</time>
      </trkpt>
      <trkpt lat="43.04592" lon="-1.75692">
        <ele>696.408</ele>
        <time>2020-05-16T00:01:19Z</time>
      </trkpt>
      <trkpt lat="43.04589" lon="-1.75687">
        <ele>696.583</ele>
        <time>2020-05-16T00:01:39Z</time>
      </trkpt>
      <trkpt lat="43.04587" lon="-1.75682">
        <ele>696.078</ele>
        <time>2020-05-16T00:01:59Z</time>
      </trkpt>
      <trkpt lat="43.04584" lon="-1.75679">
        <ele>696.012</ele>
        <time>2020-05-16T00:02:19Z</time>
      </trkpt>
      <trkpt lat="43.04582" lon="-1.75675">
        <ele>695.72</ele>
        <time>2020-05-16T00:02:39Z</time>
      </trkpt>
      <trkpt lat="43.04578" lon="-1.75673">
        <ele>695.585</ele>
        <time>2020-05-16T00:02:59Z</time>
      </trkpt>
      <trkpt lat="43.04574" lon="-1.7567">
        <ele>695.375</ele>
        <time>2020-05-16T00:03:19Z</time>
      </trkpt>
      <trkpt lat="43.04572" lon="-1.75669">
        <ele>695.272</ele>
        <time>2020-05-16T00:03:39Z</time>
      </trkpt>
      <trkpt lat="43.0457" lon="-1.75668">
        <ele>694.854</ele>
        <time>2020-05-16T00:03:59Z</time>
      </trkpt>
      <trkpt lat="43.04563" lon="-1.75664">
        <ele>694.759</ele>
        <time>2020-05-16T00:04:19Z</time>
      </trkpt>
      <trkpt lat="43.04557" lon="-1.7566">
        <ele>694.403</ele>
        <time>2020-05-16T00:04:39Z</time>
      </trkpt>
      <trkpt lat="43.04549" lon="-1.75655">
        <ele>693.823</ele>
        <time>2020-05-16T00:04:59Z</time>
      </trkpt>
      <trkpt lat="43.04541" lon="-1.75649">
        <ele>693.508</ele>
        <time>2020-05-16T00:05:19Z</time>
      </trkpt>
      <trkpt lat="43.04539" lon="-1.75648">
        <ele>693.539</ele>
        <time>2020-05-16T00:05:39Z</time>
      </trkpt>
      <trkpt lat="43.04537" lon="-1.75646">
        <ele>693.444</ele>
        <time>2020-05-16T00:05:59Z</time>
      </trkpt>
      <trkpt lat="43.04535" lon="-1.75644">
        <ele>693.378</ele>
        <time>2020-05-16T00:06:19Z</time>
      </trkpt>
      <trkpt lat="43.04533" lon="-1.75642">
        <ele>693.766</ele>
        <time>2020-05-16T00:06:39Z</time>
      </trkpt>
      <trkpt lat="43.04528" lon="-1.75637">
        <ele>692.511</ele>
        <time>2020-05-16T00:06:59Z</time>
      </trkpt>
      <trkpt lat="43.04524" lon="-1.75632">
        <ele>692.491</ele>
        <time>2020-05-16T00:07:19Z</time>
      </trkpt>
      <trkpt lat="43.04518" lon="-1.75627">
        <ele>692.148</ele>
        <time>2020-05-16T00:07:39Z</time>
      </trkpt>
      <trkpt lat="43.04512" lon="-1.75622">
        <ele>691.58</ele>
        <time>2020-05-16T00:07:59Z</time>
      </trkpt>
      <trkpt lat="43.04507" lon="-1.75619">
        <ele>691.219</ele>
        <time>2020-05-16T00:08:19Z</time>
      </trkpt>
      <trkpt lat="43.04502" lon="-1.75616">
        <ele>690.609</ele>
        <time>2020-05-16T00:08:39Z</time>
      </trkpt>
      <trkpt lat="43.04497" lon="-1.75615">
        <ele>690.119</ele>
        <time>2020-05-16T00:08:59Z</time>
      </trkpt>
      <trkpt lat="43.04493" lon="-1.75613">
        <ele>689.808</ele>
        <time>2020-05-16T00:09:19Z</time>
      </trkpt>
      <trkpt lat="43.04489" lon="-1.75612">
        <ele>689.895</ele>
        <time>2020-05-16T00:09:39Z</time>
      </trkpt>
      <trkpt lat="43.04484" lon="-1.75611">
        <ele>689.53</ele>
        <time>2020-05-16T00:09:59Z</time>
      </trkpt>
      <trkpt lat="43.04478" lon="-1.75611">
        <ele>689.454</ele>
        <time>2020-05-16T00:10:19Z</time>
      </trkpt>
      <trkpt lat="43.04472" lon="-1.75611">
        <ele>689.072</ele>
        <time>2020-05-16T00:10:39Z</time>
      </trkpt>
      <trkpt lat="43.04454" lon="-1.75612">
        <ele>687.877</ele>
        <time>2020-05-16T00:10:59Z</time>
      </trkpt>
      <trkpt lat="43.04436" lon="-1.75614">
        <ele>687.097</ele>
        <time>2020-05-16T00:11:19Z</time>
      </trkpt>
      <trkpt lat="43.04431" lon="-1.75614">
        <ele>687.124</ele>
        <time>2020-05-16T00:11:39Z</time>
      </trkpt>
      <trkpt lat="43.04424" lon="-1.75614">
        <ele>687.236</ele>
        <time>2020-05-16T00:11:59Z</time>
      </trkpt>
      <trkpt lat="43.0442" lon="-1.75614">
        <ele>687.333</ele>
        <time>2020-05-16T00:12:19Z</time>
      </trkpt>
      <trkpt lat="43.04418" lon="-1.75613">
        <ele>687.323</ele>
        <time>2020-05-16T00:12:39Z</time>
      </trkpt>
      <trkpt lat="43.04417" lon="-1.75613">
        <ele>687.315</ele>
        <time>2020-05-16T00:12:59Z</time>
      </trkpt>
      <trkpt lat="43.04413" lon="-1.75612">
        <ele>687.308</ele>
        <time>2020-05-16T00:13:19Z</time>
      </trkpt>
      <trkpt lat="43.04409" lon="-1.7561">
        <ele>687.177</ele>
        <time>2020-05-16T00:13:39Z</time>
      </trkpt>
      <trkpt lat="43.04403" lon="-1.75607">
        <ele>687.332</ele>
        <time>2020-05-16T00:13:59Z</time>
      </trkpt>
      <trkpt lat="43.04398" lon="-1.75604">
        <ele>687.396</ele>
        <time>2020-05-16T00:14:19Z</time>
      </trkpt>
      <trkpt lat="43.04387" lon="-1.75597">
        <ele>687.364</ele>
        <time>2020-05-16T00:14:39Z</time>
      </trkpt>
      <trkpt lat="43.04362" lon="-1.75583">
        <ele>687.099</ele>
        <time>2020-05-16T00:14:59Z</time>
      </trkpt>
      <trkpt lat="43.04337" lon="-1.75569">
        <ele>686.239</ele>
        <time>2020-05-16T00:15:19Z</time>
      </trkpt>
      <trkpt lat="43.04331" lon="-1.75566">
        <ele>686.126</ele>
        <time>2020-05-16T00:15:39Z</time>
      </trkpt>
      <trkpt lat="43.04325" lon="-1.75564">
        <ele>685.788</ele>
        <time>2020-05-16T00:15:59Z</time>
      </trkpt>
      <trkpt lat="43.04321" lon="-1.75563">
        <ele>685.677</ele>
        <time>2020-05-16T00:16:19Z</time>
      </trkpt>
      <trkpt lat="43.04316" lon="-1.75561">
        <ele>685.461</ele>
        <time>2020-05-16T00:16:39Z</time>
      </trkpt>
      <trkpt lat="43.04294" lon="-1.75557">
        <ele>684.727</ele>
        <time>2020-05-16T00:16:59Z</time>
      </trkpt>
      <trkpt lat="43.04273" lon="-1.75552">
        <ele>684.008</ele>
        <time>2020-05-16T00:17:19Z</time>
      </trkpt>
      <trkpt lat="43.04266" lon="-1.75551">
        <ele>683.681</ele>
        <time>2020-05-16T00:17:39Z</time>
      </trkpt>
      <trkpt lat="43.04259" lon="-1.7555">
        <ele>683.926</ele>
        <time>2020-05-16T00:17:59Z</time>
      </trkpt>
      <trkpt lat="43.04249" lon="-1.75549">
        <ele>684.51</ele>
        <time>2020-05-16T00:18:19Z</time>
      </trkpt>
      <trkpt lat="43.04239" lon="-1.75549">
        <ele>686.268</ele>
        <time>2020-05-16T00:18:39Z</time>
      </trkpt>
      <trkpt lat="43.04197" lon="-1.75545">
        <ele>683.433</ele>
        <time>2020-05-16T00:18:59Z</time>
      </trkpt>
      <trkpt lat="43.04193" lon="-1.75544">
        <ele>683.483</ele>
        <time>2020-05-16T00:19:19Z</time>
      </trkpt>
      <trkpt lat="43.04189" lon="-1.75543">
        <ele>683.57</ele>
        <time>2020-05-16T00:19:39Z</time>
      </trkpt>
      <trkpt lat="43.04185" lon="-1.75542">
        <ele>683.492</ele>
        <time>2020-05-16T00:19:59Z</time>
      </trkpt>
      <trkpt lat="43.04181" lon="-1.7554">
        <ele>683.611</ele>
        <time>2020-05-16T00:20:19Z</time>
      </trkpt>
      <trkpt lat="43.04178" lon="-1.75539">
        <ele>683.621</ele>
        <time>2020-05-16T00:20:39Z</time>
      </trkpt>
      <trkpt lat="43.04173" lon="-1.75536">
        <ele>683.503</ele>
        <time>2020-05-16T00:20:59Z</time>
      </trkpt>
      <trkpt lat="43.04171" lon="-1.75535">
        <ele>683.708</ele>
        <time>2020-05-16T00:21:19Z</time>
      </trkpt>
      <trkpt lat="43.04166" lon="-1.75532">
        <ele>683.735</ele>
        <time>2020-05-16T00:21:39Z</time>
      </trkpt>
      <trkpt lat="43.04163" lon="-1.7553">
        <ele>683.98</ele>
        <time>2020-05-16T00:21:59Z</time>
      </trkpt>
      <trkpt lat="43.04158" lon="-1.75526">
        <ele>684.224</ele>
        <time>2020-05-16T00:22:19Z</time>
      </trkpt>
      <trkpt lat="43.04154" lon="-1.75522">
        <ele>683.732</ele>
        <time>2020-05-16T00:22:39Z</time>
      </trkpt>
      <trkpt lat="43.0415" lon="-1.75518">
        <ele>683.627</ele>
        <time>2020-05-16T00:22:59Z</time>
      </trkpt>
      <trkpt lat="43.04146" lon="-1.75514">
        <ele>683.667</ele>
        <time>2020-05-16T00:23:19Z</time>
      </trkpt>
      <trkpt lat="43.04131" lon="-1.755">
        <ele>683.564</ele>
        <time>2020-05-16T00:23:39Z</time>
      </trkpt>
      <trkpt lat="43.04116" lon="-1.75485">
        <ele>683.746</ele>
        <time>2020-05-16T00:23:59Z</time>
      </trkpt>
      <trkpt lat="43.04113" lon="-1.75482">
        <ele>683.796</ele>
        <time>2020-05-16T00:24:19Z</time>
      </trkpt>
      <trkpt lat="43.0411" lon="-1.75479">
        <ele>683.731</ele>
        <time>2020-05-16T00:24:39Z</time>
      </trkpt>
      <trkpt lat="43.041" lon="-1.75474">
        <ele>683.824</ele>
        <time>2020-05-16T00:24:59Z</time>
      </trkpt>
      <trkpt lat="43.0409" lon="-1.75469">
        <ele>683.708</ele>
        <time>2020-05-16T00:25:19Z</time>
      </trkpt>
      <trkpt lat="43.04066" lon="-1.75459">
        <ele>683.373</ele>
        <time>2020-05-16T00:25:39Z</time>
      </trkpt>
      <trkpt lat="43.04041" lon="-1.75448">
        <ele>683.138</ele>
        <time>2020-05-16T00:25:59Z</time>
      </trkpt>
      <trkpt lat="43.04027" lon="-1.75442">
        <ele>683.132</ele>
        <time>2020-05-16T00:26:19Z</time>
      </trkpt>
      <trkpt lat="43.04025" lon="-1.7544">
        <ele>682.89</ele>
        <time>2020-05-16T00:26:39Z</time>
      </trkpt>
      <trkpt lat="43.04022" lon="-1.75438">
        <ele>682.925</ele>
        <time>2020-05-16T00:26:59Z</time>
      </trkpt>
      <trkpt lat="43.0402" lon="-1.75437">
        <ele>682.975</ele>
        <time>2020-05-16T00:27:19Z</time>
      </trkpt>
      <trkpt lat="43.04018" lon="-1.75436">
        <ele>684.862</ele>
        <time>2020-05-16T00:27:39Z</time>
      </trkpt>
      <trkpt lat="43.04016" lon="-1.75434">
        <ele>682.894</ele>
        <time>2020-05-16T00:27:59Z</time>
      </trkpt>
      <trkpt lat="43.04014" lon="-1.75432">
        <ele>683.168</ele>
        <time>2020-05-16T00:28:19Z</time>
      </trkpt>
      <trkpt lat="43.03998" lon="-1.75417">
        <ele>682.542</ele>
        <time>2020-05-16T00:28:39Z</time>
      </trkpt>
      <trkpt lat="43.03982" lon="-1.75401">
        <ele>682.026</ele>
        <time>2020-05-16T00:28:59Z</time>
      </trkpt>
      <trkpt lat="43.03976" lon="-1.75397">
        <ele>682.008</ele>
        <time>2020-05-16T00:29:19Z</time>
      </trkpt>
      <trkpt lat="43.0397" lon="-1.75392">
        <ele>681.84</ele>
        <time>2020-05-16T00:29:39Z</time>
      </trkpt>
      <trkpt lat="43.03962" lon="-1.75386">
        <ele>681.145</ele>
        <time>2020-05-16T00:29:59Z</time>
      </trkpt>
      <trkpt lat="43.03955" lon="-1.75381">
        <ele>680.569</ele>
        <time>2020-05-16T00:30:19Z</time>
      </trkpt>
      <trkpt lat="43.03944" lon="-1.75374">
        <ele>679.747</ele>
        <time>2020-05-16T00:30:39Z</time>
      </trkpt>
      <trkpt lat="43.03933" lon="-1.75367">
        <ele>679.232</ele>
        <time>2020-05-16T00:30:59Z</time>
      </trkpt>
      <trkpt lat="43.0393" lon="-1.75366">
        <ele>678.982</ele>
        <time>2020-05-16T00:31:19Z</time>
      </trkpt>
      <trkpt lat="43.03926" lon="-1.75364">
        <ele>680.259</ele>
        <time>2020-05-16T00:31:39Z</time>
      </trkpt>
      <trkpt lat="43.03924" lon="-1.75363">
        <ele>678.441</ele>
        <time>2020-05-16T00:31:59Z</time>
      </trkpt>
      <trkpt lat="43.03922" lon="-1.75363">
        <ele>678.221</ele>
        <time>2020-05-16T00:32:19Z</time>
      </trkpt>
      <trkpt lat="43.03919" lon="-1.75362">
        <ele>678.241</ele>
        <time>2020-05-16T00:32:39Z</time>
      </trkpt>
      <trkpt lat="43.03913" lon="-1.75362">
        <ele>677.705</ele>
        <time>2020-05-16T00:32:59Z</time>
      </trkpt>
      <trkpt lat="43.03909" lon="-1.75362">
        <ele>677.308</ele>
        <time>2020-05-16T00:33:19Z</time>
      </trkpt>
      <trkpt lat="43.03905" lon="-1.75362">
        <ele>677.226</ele>
        <time>2020-05-16T00:33:39Z</time>
      </trkpt>
      <trkpt lat="43.03899" lon="-1.75363">
        <ele>677.221</ele>
        <time>2020-05-16T00:33:59Z</time>
      </trkpt>
      <trkpt lat="43.0389" lon="-1.75364">
        <ele>679.645</ele>
        <time>2020-05-16T00:34:19Z</time>
      </trkpt>
      <trkpt lat="43.03887" lon="-1.75365">
        <ele>679.623</ele>
        <time>2020-05-16T00:34:39Z</time>
      </trkpt>
      <trkpt lat="43.03881" lon="-1.75367">
        <ele>676.318</ele>
        <time>2020-05-16T00:34:59Z</time>
      </trkpt>
      <trkpt lat="43.03878" lon="-1.75368">
        <ele>675.928</ele>
        <time>2020-05-16T00:35:19Z</time>
      </trkpt>
      <trkpt lat="43.03873" lon="-1.7537">
        <ele>675.665</ele>
        <time>2020-05-16T00:35:39Z</time>
      </trkpt>
      <trkpt lat="43.03869" lon="-1.75372">
        <ele>675.547</ele>
        <time>2020-05-16T00:35:59Z</time>
      </trkpt>
      <trkpt lat="43.03867" lon="-1.75373">
        <ele>675.598</ele>
        <time>2020-05-16T00:36:19Z</time>
      </trkpt>
      <trkpt lat="43.03863" lon="-1.75375">
        <ele>675.215</ele>
        <time>2020-05-16T00:36:39Z</time>
      </trkpt>
      <trkpt lat="43.0386" lon="-1.75378">
        <ele>674.926</ele>
        <time>2020-05-16T00:36:59Z</time>
      </trkpt>
      <trkpt lat="43.03858" lon="-1.7538">
        <ele>674.908</ele>
        <time>2020-05-16T00:37:19Z</time>
      </trkpt>
      <trkpt lat="43.03856" lon="-1.75382">
        <ele>674.813</ele>
        <time>2020-05-16T00:37:39Z</time>
      </trkpt>
      <trkpt lat="43.03853" lon="-1.75386">
        <ele>675.268</ele>
        <time>2020-05-16T00:37:59Z</time>
      </trkpt>
      <trkpt lat="43.0385" lon="-1.75389">
        <ele>674.312</ele>
        <time>2020-05-16T00:38:19Z</time>
      </trkpt>
      <trkpt lat="43.03848" lon="-1.75393">
        <ele>674.94</ele>
        <time>2020-05-16T00:38:39Z</time>
      </trkpt>
      <trkpt lat="43.03845" lon="-1.75398">
        <ele>673.715</ele>
        <time>2020-05-16T00:38:59Z</time>
      </trkpt>
      <trkpt lat="43.03844" lon="-1.75401">
        <ele>673.765</ele>
        <time>2020-05-16T00:39:19Z</time>
      </trkpt>
      <trkpt lat="43.03843" lon="-1.75403">
        <ele>673.672</ele>
        <time>2020-05-16T00:39:39Z</time>
      </trkpt>
      <trkpt lat="43.03842" lon="-1.75406">
        <ele>673.524</ele>
        <time>2020-05-16T00:39:59Z</time>
      </trkpt>
      <trkpt lat="43.03841" lon="-1.75408">
        <ele>673.518</ele>
        <time>2020-05-16T00:40:19Z</time>
      </trkpt>
      <trkpt lat="43.03841" lon="-1.75412">
        <ele>673.598</ele>
        <time>2020-05-16T00:40:39Z</time>
      </trkpt>
      <trkpt lat="43.0384" lon="-1.75417">
        <ele>673.717</ele>
        <time>2020-05-16T00:40:59Z</time>
      </trkpt>
      <trkpt lat="43.03835" lon="-1.75443">
        <ele>671.908</ele>
        <time>2020-05-16T00:41:19Z</time>
      </trkpt>
      <trkpt lat="43.03831" lon="-1.7547">
        <ele>670.925</ele>
        <time>2020-05-16T00:41:39Z</time>
      </trkpt>
      <trkpt lat="43.03828" lon="-1.75491">
        <ele>670.27</ele>
        <time>2020-05-16T00:41:59Z</time>
      </trkpt>
      <trkpt lat="43.03824" lon="-1.75517">
        <ele>669.694</ele>
        <time>2020-05-16T00:42:19Z</time>
      </trkpt>
      <trkpt lat="43.03823" lon="-1.75526">
        <ele>670.972</ele>
        <time>2020-05-16T00:42:39Z</time>
      </trkpt>
      <trkpt lat="43.03822" lon="-1.7553">
        <ele>670.967</ele>
        <time>2020-05-16T00:42:59Z</time>
      </trkpt>
      <trkpt lat="43.03821" lon="-1.75532">
        <ele>669.247</ele>
        <time>2020-05-16T00:43:19Z</time>
      </trkpt>
      <trkpt lat="43.0382" lon="-1.75536">
        <ele>669.244</ele>
        <time>2020-05-16T00:43:39Z</time>
      </trkpt>
      <trkpt lat="43.03818" lon="-1.7554">
        <ele>669.186</ele>
        <time>2020-05-16T00:43:59Z</time>
      </trkpt>
      <trkpt lat="43.03817" lon="-1.75542">
        <ele>669.111</ele>
        <time>2020-05-16T00:44:19Z</time>
      </trkpt>
      <trkpt lat="43.03816" lon="-1.75545">
        <ele>669.021</ele>
        <time>2020-05-16T00:44:39Z</time>
      </trkpt>
      <trkpt lat="43.03814" lon="-1.75547">
        <ele>669.003</ele>
        <time>2020-05-16T00:44:59Z</time>
      </trkpt>
      <trkpt lat="43.03813" lon="-1.75549">
        <ele>669.008</ele>
        <time>2020-05-16T00:45:19Z</time>
      </trkpt>
      <trkpt lat="43.03812" lon="-1.75551">
        <ele>668.985</ele>
        <time>2020-05-16T00:45:39Z</time>
      </trkpt>
      <trkpt lat="43.0381" lon="-1.75554">
        <ele>668.91</ele>
        <time>2020-05-16T00:45:59Z</time>
      </trkpt>
      <trkpt lat="43.03809" lon="-1.75556">
        <ele>668.954</ele>
        <time>2020-05-16T00:46:19Z</time>
      </trkpt>
      <trkpt lat="43.03807" lon="-1.75557">
        <ele>670.462</ele>
        <time>2020-05-16T00:46:39Z</time>
      </trkpt>
      <trkpt lat="43.03799" lon="-1.75564">
        <ele>668.117</ele>
        <time>2020-05-16T00:46:59Z</time>
      </trkpt>
      <trkpt lat="43.03792" lon="-1.75569">
        <ele>668.697</ele>
        <time>2020-05-16T00:47:19Z</time>
      </trkpt>
      <trkpt lat="43.03785" lon="-1.75575">
        <ele>667.684</ele>
        <time>2020-05-16T00:47:39Z</time>
      </trkpt>
      <trkpt lat="43.03778" lon="-1.75582">
        <ele>670.056</ele>
        <time>2020-05-16T00:47:59Z</time>
      </trkpt>
      <trkpt lat="43.03776" lon="-1.75585">
        <ele>667.916</ele>
        <time>2020-05-16T00:48:19Z</time>
      </trkpt>
      <trkpt lat="43.03774" lon="-1.75587">
        <ele>667.976</ele>
        <time>2020-05-16T00:48:39Z</time>
      </trkpt>
      <trkpt lat="43.03772" lon="-1.75589">
        <ele>666.813</ele>
        <time>2020-05-16T00:48:59Z</time>
      </trkpt>
      <trkpt lat="43.03765" lon="-1.75598">
        <ele>666.608</ele>
        <time>2020-05-16T00:49:19Z</time>
      </trkpt>
      <trkpt lat="43.03759" lon="-1.75607">
        <ele>667.695</ele>
        <time>2020-05-16T00:49:39Z</time>
      </trkpt>
      <trkpt lat="43.03751" lon="-1.75618">
        <ele>665.79</ele>
        <time>2020-05-16T00:49:59Z</time>
      </trkpt>
      <trkpt lat="43.03744" lon="-1.7563">
        <ele>665.124</ele>
        <time>2020-05-16T00:50:19Z</time>
      </trkpt>
      <trkpt lat="43.03739" lon="-1.75638">
        <ele>667.432</ele>
        <time>2020-05-16T00:50:39Z</time>
      </trkpt>
      <trkpt lat="43.03733" lon="-1.75646">
        <ele>664.157</ele>
        <time>2020-05-16T00:50:59Z</time>
      </trkpt>
      <trkpt lat="43.03731" lon="-1.75648">
        <ele>664.097</ele>
        <time>2020-05-16T00:51:19Z</time>
      </trkpt>
      <trkpt lat="43.0373" lon="-1.7565">
        <ele>664.134</ele>
        <time>2020-05-16T00:51:39Z</time>
      </trkpt>
      <trkpt lat="43.03728" lon="-1.75651">
        <ele>663.996</ele>
        <time>2020-05-16T00:51:59Z</time>
      </trkpt>
      <trkpt lat="43.03726" lon="-1.75653">
        <ele>663.947</ele>
        <time>2020-05-16T00:52:19Z</time>
      </trkpt>
      <trkpt lat="43.03723" lon="-1.75655">
        <ele>663.729</ele>
        <time>2020-05-16T00:52:39Z</time>
      </trkpt>
      <trkpt lat="43.0372" lon="-1.75656">
        <ele>663.721</ele>
        <time>2020-05-16T00:52:59Z</time>
      </trkpt>
      <trkpt lat="43.03718" lon="-1.75656">
        <ele>664.108</ele>
        <time>2020-05-16T00:53:19Z</time>
      </trkpt>
      <trkpt lat="43.03716" lon="-1.75657">
        <ele>664.138</ele>
        <time>2020-05-16T00:53:39Z</time>
      </trkpt>
      <trkpt lat="43.03714" lon="-1.75657">
        <ele>664.333</ele>
        <time>2020-05-16T00:53:59Z</time>
      </trkpt>
      <trkpt lat="43.03712" lon="-1.75657">
        <ele>664.337</ele>
        <time>2020-05-16T00:54:19Z</time>
      </trkpt>
      <trkpt lat="43.03704" lon="-1.75657">
        <ele>664.275</ele>
        <time>2020-05-16T00:54:39Z</time>
      </trkpt>
      <trkpt lat="43.03696" lon="-1.75658">
        <ele>665.27</ele>
        <time>2020-05-16T00:54:59Z</time>
      </trkpt>
      <trkpt lat="43.03662" lon="-1.75658">
        <ele>664.42</ele>
        <time>2020-05-16T00:55:19Z</time>
      </trkpt>
      <trkpt lat="43.03656" lon="-1.75658">
        <ele>663.147</ele>
        <time>2020-05-16T00:55:39Z</time>
      </trkpt>
      <trkpt lat="43.0365" lon="-1.75658">
        <ele>662.529</ele>
        <time>2020-05-16T00:55:59Z</time>
      </trkpt>
      <trkpt lat="43.03645" lon="-1.75658">
        <ele>661.534</ele>
        <time>2020-05-16T00:56:19Z</time>
      </trkpt>
      <trkpt lat="43.03641" lon="-1.75657">
        <ele>661.455</ele>
        <time>2020-05-16T00:56:39Z</time>
      </trkpt>
      <trkpt lat="43.03631" lon="-1.75655">
        <ele>661.31</ele>
        <time>2020-05-16T00:56:59Z</time>
      </trkpt>
      <trkpt lat="43.03621" lon="-1.75654">
        <ele>661.208</ele>
        <time>2020-05-16T00:57:19Z</time>
      </trkpt>
      <trkpt lat="43.03617" lon="-1.75653">
        <ele>661.227</ele>
        <time>2020-05-16T00:57:39Z</time>
      </trkpt>
      <trkpt lat="43.03613" lon="-1.75652">
        <ele>660.922</ele>
        <time>2020-05-16T00:57:59Z</time>
      </trkpt>
      <trkpt lat="43.03606" lon="-1.7565">
        <ele>660.976</ele>
        <time>2020-05-16T00:58:19Z</time>
      </trkpt>
      <trkpt lat="43.036" lon="-1.75647">
        <ele>660.864</ele>
        <time>2020-05-16T00:58:39Z</time>
      </trkpt>
      <trkpt lat="43.03597" lon="-1.75646">
        <ele>660.639</ele>
        <time>2020-05-16T00:58:59Z</time>
      </trkpt>
      <trkpt lat="43.03594" lon="-1.75645">
        <ele>660.639</ele>
        <time>2020-05-16T00:59:19Z</time>
      </trkpt>
      <trkpt lat="43.03591" lon="-1.75643">
        <ele>660.516</ele>
        <time>2020-05-16T00:59:39Z</time>
      </trkpt>
      <trkpt lat="43.03588" lon="-1.75641">
        <ele>661.298</ele>
        <time>2020-05-16T00:59:59Z</time>
      </trkpt>
      <trkpt lat="43.03585" lon="-1.75639">
        <ele>660.384</ele>
        <time>2020-05-16T01:00:19Z</time>
      </trkpt>
      <trkpt lat="43.03583" lon="-1.75637">
        <ele>660.307</ele>
        <time>2020-05-16T01:00:39Z</time>
      </trkpt>
      <trkpt lat="43.0358" lon="-1.75634">
        <ele>659.817</ele>
        <time>2020-05-16T01:00:59Z</time>
      </trkpt>
      <trkpt lat="43.03575" lon="-1.75629">
        <ele>660.108</ele>
        <time>2020-05-16T01:01:19Z</time>
      </trkpt>
      <trkpt lat="43.03573" lon="-1.75626">
        <ele>660.092</ele>
        <time>2020-05-16T01:01:39Z</time>
      </trkpt>
      <trkpt lat="43.0357" lon="-1.75622">
        <ele>659.927</ele>
        <time>2020-05-16T01:01:59Z</time>
      </trkpt>
      <trkpt lat="43.03568" lon="-1.75619">
        <ele>659.951</ele>
        <time>2020-05-16T01:02:19Z</time>
      </trkpt>
      <trkpt lat="43.03565" lon="-1.75615">
        <ele>659.889</ele>
        <time>2020-05-16T01:02:39Z</time>
      </trkpt>
      <trkpt lat="43.0356" lon="-1.75606">
        <ele>659.684</ele>
        <time>2020-05-16T01:02:59Z</time>
      </trkpt>
      <trkpt lat="43.03554" lon="-1.75595">
        <ele>659.474</ele>
        <time>2020-05-16T01:03:19Z</time>
      </trkpt>
      <trkpt lat="43.03541" lon="-1.7557">
        <ele>658.721</ele>
        <time>2020-05-16T01:03:39Z</time>
      </trkpt>
      <trkpt lat="43.03536" lon="-1.75562">
        <ele>658.913</ele>
        <time>2020-05-16T01:03:59Z</time>
      </trkpt>
      <trkpt lat="43.03534" lon="-1.75558">
        <ele>658.117</ele>
        <time>2020-05-16T01:04:19Z</time>
      </trkpt>
      <trkpt lat="43.03532" lon="-1.75554">
        <ele>657.887</ele>
        <time>2020-05-16T01:04:39Z</time>
      </trkpt>
      <trkpt lat="43.0353" lon="-1.75552">
        <ele>657.815</ele>
        <time>2020-05-16T01:04:59Z</time>
      </trkpt>
      <trkpt lat="43.03529" lon="-1.7555">
        <ele>657.508</ele>
        <time>2020-05-16T01:05:19Z</time>
      </trkpt>
      <trkpt lat="43.03527" lon="-1.75549">
        <ele>657.615</ele>
        <time>2020-05-16T01:05:39Z</time>
      </trkpt>
      <trkpt lat="43.03525" lon="-1.75547">
        <ele>657.61</ele>
        <time>2020-05-16T01:05:59Z</time>
      </trkpt>
      <trkpt lat="43.03523" lon="-1.75546">
        <ele>657.254</ele>
        <time>2020-05-16T01:06:19Z</time>
      </trkpt>
      <trkpt lat="43.03521" lon="-1.75544">
        <ele>657.262</ele>
        <time>2020-05-16T01:06:39Z</time>
      </trkpt>
      <trkpt lat="43.03517" lon="-1.75542">
        <ele>656.697</ele>
        <time>2020-05-16T01:06:59Z</time>
      </trkpt>
      <trkpt lat="43.03513" lon="-1.7554">
        <ele>656.597</ele>
        <time>2020-05-16T01:07:19Z</time>
      </trkpt>
      <trkpt lat="43.03508" lon="-1.75538">
        <ele>657.444</ele>
        <time>2020-05-16T01:07:39Z</time>
      </trkpt>
      <trkpt lat="43.03503" lon="-1.75537">
        <ele>656.156</ele>
        <time>2020-05-16T01:07:59Z</time>
      </trkpt>
      <trkpt lat="43.03491" lon="-1.75533">
        <ele>655.234</ele>
        <time>2020-05-16T01:08:19Z</time>
      </trkpt>
      <trkpt lat="43.03479" lon="-1.75531">
        <ele>654.455</ele>
        <time>2020-05-16T01:08:39Z</time>
      </trkpt>
      <trkpt lat="43.03472" lon="-1.75529">
        <ele>654.11</ele>
        <time>2020-05-16T01:08:59Z</time>
      </trkpt>
      <trkpt lat="43.03469" lon="-1.75529">
        <ele>653.708</ele>
        <time>2020-05-16T01:09:19Z</time>
      </trkpt>
      <trkpt lat="43.03467" lon="-1.75529">
        <ele>653.747</ele>
        <time>2020-05-16T01:09:39Z</time>
      </trkpt>
      <trkpt lat="43.03463" lon="-1.75528">
        <ele>653.092</ele>
        <time>2020-05-16T01:09:59Z</time>
      </trkpt>
      <trkpt lat="43.03459" lon="-1.75528">
        <ele>652.646</ele>
        <time>2020-05-16T01:10:19Z</time>
      </trkpt>
      <trkpt lat="43.03456" lon="-1.75529">
        <ele>652.344</ele>
        <time>2020-05-16T01:10:39Z</time>
      </trkpt>
      <trkpt lat="43.03453" lon="-1.75529">
        <ele>652.329</ele>
        <time>2020-05-16T01:10:59Z</time>
      </trkpt>
      <trkpt lat="43.03449" lon="-1.7553">
        <ele>651.949</ele>
        <time>2020-05-16T01:11:19Z</time>
      </trkpt>
      <trkpt lat="43.03447" lon="-1.75531">
        <ele>651.466</ele>
        <time>2020-05-16T01:11:39Z</time>
      </trkpt>
      <trkpt lat="43.03444" lon="-1.75533">
        <ele>651.418</ele>
        <time>2020-05-16T01:11:59Z</time>
      </trkpt>
      <trkpt lat="43.0344" lon="-1.75535">
        <ele>650.887</ele>
        <time>2020-05-16T01:12:19Z</time>
      </trkpt>
      <trkpt lat="43.03438" lon="-1.75536">
        <ele>650.642</ele>
        <time>2020-05-16T01:12:39Z</time>
      </trkpt>
      <trkpt lat="43.03434" lon="-1.75539">
        <ele>651.626</ele>
        <time>2020-05-16T01:12:59Z</time>
      </trkpt>
      <trkpt lat="43.03426" lon="-1.75547">
        <ele>649.608</ele>
        <time>2020-05-16T01:13:19Z</time>
      </trkpt>
      <trkpt lat="43.0342" lon="-1.75552">
        <ele>648.132</ele>
        <time>2020-05-16T01:13:39Z</time>
      </trkpt>
      <trkpt lat="43.0341" lon="-1.75561">
        <ele>647.417</ele>
        <time>2020-05-16T01:13:59Z</time>
      </trkpt>
      <trkpt lat="43.034" lon="-1.75572">
        <ele>646.741</ele>
        <time>2020-05-16T01:14:19Z</time>
      </trkpt>
      <trkpt lat="43.03386" lon="-1.75584">
        <ele>644.949</ele>
        <time>2020-05-16T01:14:39Z</time>
      </trkpt>
      <trkpt lat="43.03372" lon="-1.75598">
        <ele>643.444</ele>
        <time>2020-05-16T01:14:59Z</time>
      </trkpt>
      <trkpt lat="43.03369" lon="-1.75601">
        <ele>643.264</ele>
        <time>2020-05-16T01:15:19Z</time>
      </trkpt>
      <trkpt lat="43.03367" lon="-1.75604">
        <ele>642.691</ele>
        <time>2020-05-16T01:15:39Z</time>
      </trkpt>
      <trkpt lat="43.03364" lon="-1.75607">
        <ele>642.643</ele>
        <time>2020-05-16T01:15:59Z</time>
      </trkpt>
      <trkpt lat="43.03362" lon="-1.7561">
        <ele>642.322</ele>
        <time>2020-05-16T01:16:19Z</time>
      </trkpt>
      <trkpt lat="43.0336" lon="-1.75613">
        <ele>642.362</ele>
        <time>2020-05-16T01:16:39Z</time>
      </trkpt>
      <trkpt lat="43.03359" lon="-1.75615">
        <ele>642.808</ele>
        <time>2020-05-16T01:16:59Z</time>
      </trkpt>
      <trkpt lat="43.03356" lon="-1.7562">
        <ele>641.708</ele>
        <time>2020-05-16T01:17:19Z</time>
      </trkpt>
      <trkpt lat="43.03353" lon="-1.75624">
        <ele>641.556</ele>
        <time>2020-05-16T01:17:39Z</time>
      </trkpt>
      <trkpt lat="43.03352" lon="-1.75626">
        <ele>641.581</ele>
        <time>2020-05-16T01:17:59Z</time>
      </trkpt>
      <trkpt lat="43.03346" lon="-1.75638">
        <ele>641.285</ele>
        <time>2020-05-16T01:18:19Z</time>
      </trkpt>
      <trkpt lat="43.03342" lon="-1.75647">
        <ele>641.343</ele>
        <time>2020-05-16T01:18:39Z</time>
      </trkpt>
      <trkpt lat="43.03325" lon="-1.7568">
        <ele>640.428</ele>
        <time>2020-05-16T01:18:59Z</time>
      </trkpt>
      <trkpt lat="43.03308" lon="-1.75714">
        <ele>639.928</ele>
        <time>2020-05-16T01:19:19Z</time>
      </trkpt>
      <trkpt lat="43.03306" lon="-1.75718">
        <ele>639.985</ele>
        <time>2020-05-16T01:19:39Z</time>
      </trkpt>
      <trkpt lat="43.03302" lon="-1.75724">
        <ele>640.517</ele>
        <time>2020-05-16T01:19:59Z</time>
      </trkpt>
      <trkpt lat="43.033" lon="-1.75727">
        <ele>640.349</ele>
        <time>2020-05-16T01:20:19Z</time>
      </trkpt>
      <trkpt lat="43.03287" lon="-1.75745">
        <ele>639.402</ele>
        <time>2020-05-16T01:20:39Z</time>
      </trkpt>
      <trkpt lat="43.03275" lon="-1.75763">
        <ele>639.022</ele>
        <time>2020-05-16T01:20:59Z</time>
      </trkpt>
      <trkpt lat="43.03268" lon="-1.75771">
        <ele>638.708</ele>
        <time>2020-05-16T01:21:19Z</time>
      </trkpt>
      <trkpt lat="43.03261" lon="-1.75779">
        <ele>638.668</ele>
        <time>2020-05-16T01:21:39Z</time>
      </trkpt>
      <trkpt lat="43.03259" lon="-1.75782">
        <ele>638.413</ele>
        <time>2020-05-16T01:21:59Z</time>
      </trkpt>
      <trkpt lat="43.03255" lon="-1.75787">
        <ele>638.337</ele>
        <time>2020-05-16T01:22:19Z</time>
      </trkpt>
      <trkpt lat="43.0325" lon="-1.75791">
        <ele>638.195</ele>
        <time>2020-05-16T01:22:39Z</time>
      </trkpt>
      <trkpt lat="43.03246" lon="-1.75794">
        <ele>638.11</ele>
        <time>2020-05-16T01:22:59Z</time>
      </trkpt>
      <trkpt lat="43.03241" lon="-1.75798">
        <ele>637.93</ele>
        <time>2020-05-16T01:23:19Z</time>
      </trkpt>
      <trkpt lat="43.03238" lon="-1.758">
        <ele>637.917</ele>
        <time>2020-05-16T01:23:39Z</time>
      </trkpt>
      <trkpt lat="43.03235" lon="-1.75802">
        <ele>638.769</ele>
        <time>2020-05-16T01:23:59Z</time>
      </trkpt>
      <trkpt lat="43.03232" lon="-1.75803">
        <ele>637.881</ele>
        <time>2020-05-16T01:24:19Z</time>
      </trkpt>
      <trkpt lat="43.03228" lon="-1.75805">
        <ele>637.761</ele>
        <time>2020-05-16T01:24:39Z</time>
      </trkpt>
      <trkpt lat="43.03224" lon="-1.75807">
        <ele>637.617</ele>
        <time>2020-05-16T01:24:59Z</time>
      </trkpt>
      <trkpt lat="43.03221" lon="-1.75808">
        <ele>637.408</ele>
        <time>2020-05-16T01:25:19Z</time>
      </trkpt>
      <trkpt lat="43.03218" lon="-1.75809">
        <ele>637.632</ele>
        <time>2020-05-16T01:25:39Z</time>
      </trkpt>
      <trkpt lat="43.0319" lon="-1.75815">
        <ele>636.887</ele>
        <time>2020-05-16T01:25:59Z</time>
      </trkpt>
      <trkpt lat="43.03146" lon="-1.75826">
        <ele>636.221</ele>
        <time>2020-05-16T01:26:19Z</time>
      </trkpt>
      <trkpt lat="43.03132" lon="-1.75829">
        <ele>636.639</ele>
        <time>2020-05-16T01:26:39Z</time>
      </trkpt>
      <trkpt lat="43.03116" lon="-1.75833">
        <ele>635.964</ele>
        <time>2020-05-16T01:26:59Z</time>
      </trkpt>
      <trkpt lat="43.0309" lon="-1.7584">
        <ele>635.734</ele>
        <time>2020-05-16T01:27:19Z</time>
      </trkpt>
      <trkpt lat="43.03075" lon="-1.75844">
        <ele>636.311</ele>
        <time>2020-05-16T01:27:39Z</time>
      </trkpt>
      <trkpt lat="43.03069" lon="-1.75846">
        <ele>635.673</ele>
        <time>2020-05-16T01:27:59Z</time>
      </trkpt>
      <trkpt lat="43.03064" lon="-1.75848">
        <ele>635.624</ele>
        <time>2020-05-16T01:28:19Z</time>
      </trkpt>
      <trkpt lat="43.03054" lon="-1.75853">
        <ele>635.504</ele>
        <time>2020-05-16T01:28:39Z</time>
      </trkpt>
      <trkpt lat="43.03045" lon="-1.75858">
        <ele>635.414</ele>
        <time>2020-05-16T01:28:59Z</time>
      </trkpt>
      <trkpt lat="43.03038" lon="-1.75862">
        <ele>635.108</ele>
        <time>2020-05-16T01:29:19Z</time>
      </trkpt>
      <trkpt lat="43.03025" lon="-1.7587">
        <ele>634.686</ele>
        <time>2020-05-16T01:29:39Z</time>
      </trkpt>
      <trkpt lat="43.03004" lon="-1.75886">
        <ele>633.241</ele>
        <time>2020-05-16T01:29:59Z</time>
      </trkpt>
      <trkpt lat="43.02998" lon="-1.75889">
        <ele>633.115</ele>
        <time>2020-05-16T01:30:19Z</time>
      </trkpt>
      <trkpt lat="43.02994" lon="-1.75892">
        <ele>632.393</ele>
        <time>2020-05-16T01:30:39Z</time>
      </trkpt>
      <trkpt lat="43.02991" lon="-1.75894">
        <ele>632.358</ele>
        <time>2020-05-16T01:30:59Z</time>
      </trkpt>
      <trkpt lat="43.02986" lon="-1.75896">
        <ele>632.658</ele>
        <time>2020-05-16T01:31:19Z</time>
      </trkpt>
      <trkpt lat="43.02982" lon="-1.75898">
        <ele>632.335</ele>
        <time>2020-05-16T01:31:39Z</time>
      </trkpt>
      <trkpt lat="43.02978" lon="-1.75899">
        <ele>632.257</ele>
        <time>2020-05-16T01:31:59Z</time>
      </trkpt>
      <trkpt lat="43.02974" lon="-1.759">
        <ele>632.251</ele>
        <time>2020-05-16T01:32:19Z</time>
      </trkpt>
      <trkpt lat="43.02971" lon="-1.75901">
        <ele>632.001</ele>
        <time>2020-05-16T01:32:39Z</time>
      </trkpt>
      <trkpt lat="43.02969" lon="-1.75901">
        <ele>631.811</ele>
        <time>2020-05-16T01:32:59Z</time>
      </trkpt>
      <trkpt lat="43.02966" lon="-1.759">
        <ele>631.808</ele>
        <time>2020-05-16T01:33:19Z</time>
      </trkpt>
      <trkpt lat="43.02954" lon="-1.75898">
        <ele>631.559</ele>
        <time>2020-05-16T01:33:39Z</time>
      </trkpt>
      <trkpt lat="43.02942" lon="-1.75896">
        <ele>631.434</ele>
        <time>2020-05-16T01:33:59Z</time>
      </trkpt>
      <trkpt lat="43.02933" lon="-1.75894">
        <ele>631.348</ele>
        <time>2020-05-16T01:34:19Z</time>
      </trkpt>
      <trkpt lat="43.02923" lon="-1.75892">
        <ele>632.176</ele>
        <time>2020-05-16T01:34:39Z</time>
      </trkpt>
      <trkpt lat="43.0292" lon="-1.75891">
        <ele>632.171</ele>
        <time>2020-05-16T01:34:59Z</time>
      </trkpt>
      <trkpt lat="43.02916" lon="-1.7589">
        <ele>632.181</ele>
        <time>2020-05-16T01:35:19Z</time>
      </trkpt>
      <trkpt lat="43.02913" lon="-1.75889">
        <ele>632.168</ele>
        <time>2020-05-16T01:35:39Z</time>
      </trkpt>
      <trkpt lat="43.02911" lon="-1.75889">
        <ele>632.13</ele>
        <time>2020-05-16T01:35:59Z</time>
      </trkpt>
      <trkpt lat="43.02909" lon="-1.75888">
        <ele>631.985</ele>
        <time>2020-05-16T01:36:19Z</time>
      </trkpt>
      <trkpt lat="43.02906" lon="-1.75886">
        <ele>631.889</ele>
        <time>2020-05-16T01:36:39Z</time>
      </trkpt>
      <trkpt lat="43.02904" lon="-1.75885">
        <ele>631.817</ele>
        <time>2020-05-16T01:36:59Z</time>
      </trkpt>
      <trkpt lat="43.02902" lon="-1.75883">
        <ele>631.508</ele>
        <time>2020-05-16T01:37:19Z</time>
      </trkpt>
      <trkpt lat="43.02899" lon="-1.75881">
        <ele>631.742</ele>
        <time>2020-05-16T01:37:39Z</time>
      </trkpt>
      <trkpt lat="43.02898" lon="-1.75879">
        <ele>631.617</ele>
        <time>2020-05-16T01:37:59Z</time>
      </trkpt>
      <trkpt lat="43.02896" lon="-1.75877">
        <ele>631.671</ele>
        <time>2020-05-16T01:38:19Z</time>
      </trkpt>
      <trkpt lat="43.02892" lon="-1.75873">
        <ele>631.869</ele>
        <time>2020-05-16T01:38:39Z</time>
      </trkpt>
      <trkpt lat="43.0289" lon="-1.7587">
        <ele>631.834</ele>
        <time>2020-05-16T01:38:59Z</time>
      </trkpt>
      <trkpt lat="43.02867" lon="-1.75844">
        <ele>630.154</ele>
        <time>2020-05-16T01:39:19Z</time>
      </trkpt>
      <trkpt lat="43.02845" lon="-1.75817">
        <ele>628.961</ele>
        <time>2020-05-16T01:39:39Z</time>
      </trkpt>
      <trkpt lat="43.02842" lon="-1.75813">
        <ele>628.733</ele>
        <time>2020-05-16T01:39:59Z</time>
      </trkpt>
      <trkpt lat="43.02839" lon="-1.7581">
        <ele>628.728</ele>
        <time>2020-05-16T01:40:19Z</time>
      </trkpt>
      <trkpt lat="43.02833" lon="-1.75804">
        <ele>629.689</ele>
        <time>2020-05-16T01:40:39Z</time>
      </trkpt>
      <trkpt lat="43.02827" lon="-1.75797">
        <ele>628.717</ele>
        <time>2020-05-16T01:40:59Z</time>
      </trkpt>
      <trkpt lat="43.0282" lon="-1.75791">
        <ele>629.108</ele>
        <time>2020-05-16T01:41:19Z</time>
      </trkpt>
      <trkpt lat="43.02813" lon="-1.75785">
        <ele>626.746</ele>
        <time>2020-05-16T01:41:39Z</time>
      </trkpt>
      <trkpt lat="43.02809" lon="-1.75782">
        <ele>626.491</ele>
        <time>2020-05-16T01:41:59Z</time>
      </trkpt>
      <trkpt lat="43.02805" lon="-1.75779">
        <ele>626.125</ele>
        <time>2020-05-16T01:42:19Z</time>
      </trkpt>
      <trkpt lat="43.028" lon="-1.75776">
        <ele>626.573</ele>
        <time>2020-05-16T01:42:39Z</time>
      </trkpt>
      <trkpt lat="43.02795" lon="-1.75773">
        <ele>625.618</ele>
        <time>2020-05-16T01:42:59Z</time>
      </trkpt>
      <trkpt lat="43.02791" lon="-1.75771">
        <ele>624.978</ele>
        <time>2020-05-16T01:43:19Z</time>
      </trkpt>
      <trkpt lat="43.02788" lon="-1.7577">
        <ele>624.715</ele>
        <time>2020-05-16T01:43:39Z</time>
      </trkpt>
      <trkpt lat="43.02783" lon="-1.75768">
        <ele>624.487</ele>
        <time>2020-05-16T01:43:59Z</time>
      </trkpt>
      <trkpt lat="43.02779" lon="-1.75766">
        <ele>624.287</ele>
        <time>2020-05-16T01:44:19Z</time>
      </trkpt>
      <trkpt lat="43.02775" lon="-1.75765">
        <ele>624.242</ele>
        <time>2020-05-16T01:44:39Z</time>
      </trkpt>
      <trkpt lat="43.02769" lon="-1.75764">
        <ele>623.926</ele>
        <time>2020-05-16T01:44:59Z</time>
      </trkpt>
      <trkpt lat="43.02766" lon="-1.75764">
        <ele>623.608</ele>
        <time>2020-05-16T01:45:19Z</time>
      </trkpt>
      <trkpt lat="43.02762" lon="-1.75763">
        <ele>623.682</ele>
        <time>2020-05-16T01:45:39Z</time>
      </trkpt>
      <trkpt lat="43.02756" lon="-1.75763">
        <ele>623.137</ele>
        <time>2020-05-16T01:45:59Z</time>
      </trkpt>
      <trkpt lat="43.02752" lon="-1.75763">
        <ele>623.061</ele>
        <time>2020-05-16T01:46:19Z</time>
      </trkpt>
      <trkpt lat="43.02741" lon="-1.75764">
        <ele>622.329</ele>
        <time>2020-05-16T01:46:39Z</time>
      </trkpt>
      <trkpt lat="43.0274" lon="-1.75764">
        <ele>622.334</ele>
        <time>2020-05-16T01:46:59Z</time>
      </trkpt>
      <trkpt lat="43.02738" lon="-1.75765">
        <ele>622.124</ele>
        <time>2020-05-16T01:47:19Z</time>
      </trkpt>
      <trkpt lat="43.02733" lon="-1.75767">
        <ele>621.951</ele>
        <time>2020-05-16T01:47:39Z</time>
      </trkpt>
      <trkpt lat="43.02729" lon="-1.75769">
        <ele>621.563</ele>
        <time>2020-05-16T01:47:59Z</time>
      </trkpt>
      <trkpt lat="43.02725" lon="-1.75771">
        <ele>621.311</ele>
        <time>2020-05-16T01:48:19Z</time>
      </trkpt>
      <trkpt lat="43.02721" lon="-1.75774">
        <ele>621.321</ele>
        <time>2020-05-16T01:48:39Z</time>
      </trkpt>
      <trkpt lat="43.02718" lon="-1.75776">
        <ele>619.403</ele>
        <time>2020-05-16T01:48:59Z</time>
      </trkpt>
      <trkpt lat="43.02715" lon="-1.75778">
        <ele>619.108</ele>
        <time>2020-05-16T01:49:19Z</time>
      </trkpt>
      <trkpt lat="43.02712" lon="-1.7578">
        <ele>619.125</ele>
        <time>2020-05-16T01:49:39Z</time>
      </trkpt>
      <trkpt lat="43.02709" lon="-1.75782">
        <ele>619.54</ele>
        <time>2020-05-16T01:49:59Z</time>
      </trkpt>
      <trkpt lat="43.027" lon="-1.75791">
        <ele>620.474</ele>
        <time>2020-05-16T01:50:19Z</time>
      </trkpt>
      <trkpt lat="43.02693" lon="-1.75799">
        <ele>620.072</ele>
        <time>2020-05-16T01:50:39Z</time>
      </trkpt>
      <trkpt lat="43.02686" lon="-1.75806">
        <ele>619.057</ele>
        <time>2020-05-16T01:50:59Z</time>
      </trkpt>
      <trkpt lat="43.02676" lon="-1.75819">
        <ele>619.267</ele>
        <time>2020-05-16T01:51:19Z</time>
      </trkpt>
      <trkpt lat="43.02665" lon="-1.75831">
        <ele>618.794</ele>
        <time>2020-05-16T01:51:39Z</time>
      </trkpt>
      <trkpt lat="43.02648" lon="-1.75851">
        <ele>618.256</ele>
        <time>2020-05-16T01:51:59Z</time>
      </trkpt>
      <trkpt lat="43.02635" lon="-1.75864">
        <ele>618.272</ele>
        <time>2020-05-16T01:52:19Z</time>
      </trkpt>
      <trkpt lat="43.02631" lon="-1.75868">
        <ele>618.213</ele>
        <time>2020-05-16T01:52:39Z</time>
      </trkpt>
      <trkpt lat="43.02627" lon="-1.75872">
        <ele>618.114</ele>
        <time>2020-05-16T01:52:59Z</time>
      </trkpt>
      <trkpt lat="43.02625" lon="-1.75874">
        <ele>618.108</ele>
        <time>2020-05-16T01:53:19Z</time>
      </trkpt>
      <trkpt lat="43.02622" lon="-1.75877">
        <ele>617.981</ele>
        <time>2020-05-16T01:53:39Z</time>
      </trkpt>
      <trkpt lat="43.0262" lon="-1.75878">
        <ele>617.946</ele>
        <time>2020-05-16T01:53:59Z</time>
      </trkpt>
      <trkpt lat="43.02618" lon="-1.7588">
        <ele>617.97</ele>
        <time>2020-05-16T01:54:19Z</time>
      </trkpt>
      <trkpt lat="43.02615" lon="-1.75881">
        <ele>617.998</ele>
        <time>2020-05-16T01:54:39Z</time>
      </trkpt>
      <trkpt lat="43.02612" lon="-1.75882">
        <ele>618.213</ele>
        <time>2020-05-16T01:54:59Z</time>
      </trkpt>
      <trkpt lat="43.0261" lon="-1.75883">
        <ele>618.253</ele>
        <time>2020-05-16T01:55:19Z</time>
      </trkpt>
      <trkpt lat="43.02607" lon="-1.75885">
        <ele>617.66</ele>
        <time>2020-05-16T01:55:39Z</time>
      </trkpt>
      <trkpt lat="43.02604" lon="-1.75885">
        <ele>617.562</ele>
        <time>2020-05-16T01:55:59Z</time>
      </trkpt>
      <trkpt lat="43.02602" lon="-1.75886">
        <ele>617.596</ele>
        <time>2020-05-16T01:56:19Z</time>
      </trkpt>
      <trkpt lat="43.02599" lon="-1.75887">
        <ele>617.431</ele>
        <time>2020-05-16T01:56:39Z</time>
      </trkpt>
      <trkpt lat="43.02596" lon="-1.75887">
        <ele>617.424</ele>
        <time>2020-05-16T01:56:59Z</time>
      </trkpt>
      <trkpt lat="43.02592" lon="-1.75887">
        <ele>617.208</ele>
        <time>2020-05-16T01:57:19Z</time>
      </trkpt>
      <trkpt lat="43.02588" lon="-1.75887">
        <ele>617.023</ele>
        <time>2020-05-16T01:57:39Z</time>
      </trkpt>
      <trkpt lat="43.02582" lon="-1.75886">
        <ele>616.858</ele>
        <time>2020-05-16T01:57:59Z</time>
      </trkpt>
      <trkpt lat="43.0258" lon="-1.75886">
        <ele>616.832</ele>
        <time>2020-05-16T01:58:19Z</time>
      </trkpt>
      <trkpt lat="43.02577" lon="-1.75885">
        <ele>616.65</ele>
        <time>2020-05-16T01:58:39Z</time>
      </trkpt>
      <trkpt lat="43.02571" lon="-1.75882">
        <ele>616.235</ele>
        <time>2020-05-16T01:58:59Z</time>
      </trkpt>
      <trkpt lat="43.02565" lon="-1.75879">
        <ele>616.145</ele>
        <time>2020-05-16T01:59:19Z</time>
      </trkpt>
      <trkpt lat="43.02544" lon="-1.75868">
        <ele>615.012</ele>
        <time>2020-05-16T01:59:39Z</time>
      </trkpt>
      <trkpt lat="43.02523" lon="-1.75856">
        <ele>613.994</ele>
        <time>2020-05-16T01:59:59Z</time>
      </trkpt>
      <trkpt lat="43.02508" lon="-1.75848">
        <ele>613.494</ele>
        <time>2020-05-16T02:00:19Z</time>
      </trkpt>
      <trkpt lat="43.02492" lon="-1.75839">
        <ele>612.957</ele>
        <time>2020-05-16T02:00:39Z</time>
      </trkpt>
      <trkpt lat="43.02485" lon="-1.75835">
        <ele>612.722</ele>
        <time>2020-05-16T02:00:59Z</time>
      </trkpt>
      <trkpt lat="43.02478" lon="-1.75831">
        <ele>611.108</ele>
        <time>2020-05-16T02:01:19Z</time>
      </trkpt>
      <trkpt lat="43.02474" lon="-1.7583">
        <ele>611.183</ele>
        <time>2020-05-16T02:01:39Z</time>
      </trkpt>
      <trkpt lat="43.02471" lon="-1.75828">
        <ele>612.328</ele>
        <time>2020-05-16T02:01:59Z</time>
      </trkpt>
      <trkpt lat="43.02469" lon="-1.75827">
        <ele>612.242</ele>
        <time>2020-05-16T02:02:19Z</time>
      </trkpt>
      <trkpt lat="43.02464" lon="-1.75826">
        <ele>612.06</ele>
        <time>2020-05-16T02:02:39Z</time>
      </trkpt>
      <trkpt lat="43.02462" lon="-1.75825">
        <ele>612.015</ele>
        <time>2020-05-16T02:02:59Z</time>
      </trkpt>
      <trkpt lat="43.02459" lon="-1.75825">
        <ele>611.955</ele>
        <time>2020-05-16T02:03:19Z</time>
      </trkpt>
      <trkpt lat="43.02456" lon="-1.75825">
        <ele>611.932</ele>
        <time>2020-05-16T02:03:39Z</time>
      </trkpt>
      <trkpt lat="43.02453" lon="-1.75825">
        <ele>611.854</ele>
        <time>2020-05-16T02:03:59Z</time>
      </trkpt>
      <trkpt lat="43.0245" lon="-1.75826">
        <ele>611.723</ele>
        <time>2020-05-16T02:04:19Z</time>
      </trkpt>
      <trkpt lat="43.02448" lon="-1.75826">
        <ele>611.783</ele>
        <time>2020-05-16T02:04:39Z</time>
      </trkpt>
      <trkpt lat="43.02445" lon="-1.75827">
        <ele>611.611</ele>
        <time>2020-05-16T02:04:59Z</time>
      </trkpt>
      <trkpt lat="43.02442" lon="-1.75828">
        <ele>611.408</ele>
        <time>2020-05-16T02:05:19Z</time>
      </trkpt>
      <trkpt lat="43.02426" lon="-1.75834">
        <ele>611.256</ele>
        <time>2020-05-16T02:05:39Z</time>
      </trkpt>
      <trkpt lat="43.02403" lon="-1.75844">
        <ele>610.631</ele>
        <time>2020-05-16T02:05:59Z</time>
      </trkpt>
      <trkpt lat="43.02396" lon="-1.75848">
        <ele>610.795</ele>
        <time>2020-05-16T02:06:19Z</time>
      </trkpt>
      <trkpt lat="43.02389" lon="-1.7585">
        <ele>610.523</ele>
        <time>2020-05-16T02:06:39Z</time>
      </trkpt>
      <trkpt lat="43.02381" lon="-1.75853">
        <ele>610.498</ele>
        <time>2020-05-16T02:06:59Z</time>
      </trkpt>
      <trkpt lat="43.02375" lon="-1.75855">
        <ele>610.168</ele>
        <time>2020-05-16T02:07:19Z</time>
      </trkpt>
      <trkpt lat="43.02369" lon="-1.75856">
        <ele>609.825</ele>
        <time>2020-05-16T02:07:39Z</time>
      </trkpt>
      <trkpt lat="43.02353" lon="-1.7586">
        <ele>609.757</ele>
        <time>2020-05-16T02:07:59Z</time>
      </trkpt>
      <trkpt lat="43.02336" lon="-1.75863">
        <ele>609.529</ele>
        <time>2020-05-16T02:08:19Z</time>
      </trkpt>
      <trkpt lat="43.02322" lon="-1.75866">
        <ele>609.5</ele>
        <time>2020-05-16T02:08:39Z</time>
      </trkpt>
      <trkpt lat="43.02312" lon="-1.75868">
        <ele>609.42</ele>
        <time>2020-05-16T02:08:59Z</time>
      </trkpt>
      <trkpt lat="43.023" lon="-1.75871">
        <ele>609.308</ele>
        <time>2020-05-16T02:09:19Z</time>
      </trkpt>
      <trkpt lat="43.02288" lon="-1.75874">
        <ele>609.266</ele>
        <time>2020-05-16T02:09:39Z</time>
      </trkpt>
      <trkpt lat="43.02282" lon="-1.75876">
        <ele>609.051</ele>
        <time>2020-05-16T02:09:59Z</time>
      </trkpt>
      <trkpt lat="43.02276" lon="-1.75877">
        <ele>609.155</ele>
        <time>2020-05-16T02:10:19Z</time>
      </trkpt>
      <trkpt lat="43.02259" lon="-1.75883">
        <ele>611.163</ele>
        <time>2020-05-16T02:10:39Z</time>
      </trkpt>
      <trkpt lat="43.02241" lon="-1.75889">
        <ele>609.568</ele>
        <time>2020-05-16T02:10:59Z</time>
      </trkpt>
      <trkpt lat="43.02235" lon="-1.75891">
        <ele>608.658</ele>
        <time>2020-05-16T02:11:19Z</time>
      </trkpt>
      <trkpt lat="43.02228" lon="-1.75895">
        <ele>608.775</ele>
        <time>2020-05-16T02:11:39Z</time>
      </trkpt>
      <trkpt lat="43.02227" lon="-1.75895">
        <ele>608.727</ele>
        <time>2020-05-16T02:11:59Z</time>
      </trkpt>
      <trkpt lat="43.02218" lon="-1.75899">
        <ele>608.698</ele>
        <time>2020-05-16T02:12:19Z</time>
      </trkpt>
      <trkpt lat="43.02211" lon="-1.75903">
        <ele>608.515</ele>
        <time>2020-05-16T02:12:39Z</time>
      </trkpt>
      <trkpt lat="43.02196" lon="-1.75911">
        <ele>608.526</ele>
        <time>2020-05-16T02:12:59Z</time>
      </trkpt>
      <trkpt lat="43.02181" lon="-1.75919">
        <ele>608.008</ele>
        <time>2020-05-16T02:13:19Z</time>
      </trkpt>
      <trkpt lat="43.02174" lon="-1.75923">
        <ele>607.863</ele>
        <time>2020-05-16T02:13:39Z</time>
      </trkpt>
      <trkpt lat="43.02166" lon="-1.75926">
        <ele>607.798</ele>
        <time>2020-05-16T02:13:59Z</time>
      </trkpt>
      <trkpt lat="43.02158" lon="-1.75929">
        <ele>607.672</ele>
        <time>2020-05-16T02:14:19Z</time>
      </trkpt>
      <trkpt lat="43.0215" lon="-1.75932">
        <ele>607.59</ele>
        <time>2020-05-16T02:14:39Z</time>
      </trkpt>
      <trkpt lat="43.02146" lon="-1.75933">
        <ele>607.455</ele>
        <time>2020-05-16T02:14:59Z</time>
      </trkpt>
      <trkpt lat="43.02139" lon="-1.75935">
        <ele>607.995</ele>
        <time>2020-05-16T02:15:19Z</time>
      </trkpt>
      <trkpt lat="43.02136" lon="-1.75936">
        <ele>607.662</ele>
        <time>2020-05-16T02:15:39Z</time>
      </trkpt>
      <trkpt lat="43.0213" lon="-1.75937">
        <ele>607.564</ele>
        <time>2020-05-16T02:15:59Z</time>
      </trkpt>
      <trkpt lat="43.02125" lon="-1.75937">
        <ele>607.388</ele>
        <time>2020-05-16T02:16:19Z</time>
      </trkpt>
      <trkpt lat="43.02106" lon="-1.75938">
        <ele>607.224</ele>
        <time>2020-05-16T02:16:39Z</time>
      </trkpt>
      <trkpt lat="43.02087" lon="-1.75939">
        <ele>607.726</ele>
        <time>2020-05-16T02:16:59Z</time>
      </trkpt>
      <trkpt lat="43.02062" lon="-1.75939">
        <ele>608.408</ele>
        <time>2020-05-16T02:17:19Z</time>
      </trkpt>
      <trkpt lat="43.02057" lon="-1.75939">
        <ele>608.442</ele>
        <time>2020-05-16T02:17:39Z</time>
      </trkpt>
      <trkpt lat="43.02051" lon="-1.75938">
        <ele>608.787</ele>
        <time>2020-05-16T02:17:59Z</time>
      </trkpt>
      <trkpt lat="43.02047" lon="-1.75937">
        <ele>609.631</ele>
        <time>2020-05-16T02:18:19Z</time>
      </trkpt>
      <trkpt lat="43.02039" lon="-1.75936">
        <ele>608.689</ele>
        <time>2020-05-16T02:18:39Z</time>
      </trkpt>
      <trkpt lat="43.02031" lon="-1.75933">
        <ele>608.734</ele>
        <time>2020-05-16T02:18:59Z</time>
      </trkpt>
      <trkpt lat="43.02022" lon="-1.75931">
        <ele>608.654</ele>
        <time>2020-05-16T02:19:19Z</time>
      </trkpt>
      <trkpt lat="43.02015" lon="-1.75929">
        <ele>608.211</ele>
        <time>2020-05-16T02:19:39Z</time>
      </trkpt>
      <trkpt lat="43.02012" lon="-1.75929">
        <ele>608.213</ele>
        <time>2020-05-16T02:19:59Z</time>
      </trkpt>
      <trkpt lat="43.02009" lon="-1.75928">
        <ele>608.016</ele>
        <time>2020-05-16T02:20:19Z</time>
      </trkpt>
      <trkpt lat="43.02007" lon="-1.75928">
        <ele>608.076</ele>
        <time>2020-05-16T02:20:39Z</time>
      </trkpt>
      <trkpt lat="43.02002" lon="-1.75928">
        <ele>607.713</ele>
        <time>2020-05-16T02:20:59Z</time>
      </trkpt>
      <trkpt lat="43.01997" lon="-1.75929">
        <ele>607.408</ele>
        <time>2020-05-16T02:21:19Z</time>
      </trkpt>
      <trkpt lat="43.01994" lon="-1.75929">
        <ele>607.445</ele>
        <time>2020-05-16T02:21:39Z</time>
      </trkpt>
      <trkpt lat="43.01992" lon="-1.75929">
        <ele>607.25</ele>
        <time>2020-05-16T02:21:59Z</time>
      </trkpt>
      <trkpt lat="43.01989" lon="-1.75929">
        <ele>607.284</ele>
        <time>2020-05-16T02:22:19Z</time>
      </trkpt>
      <trkpt lat="43.01987" lon="-1.7593">
        <ele>607.242</ele>
        <time>2020-05-16T02:22:39Z</time>
      </trkpt>
      <trkpt lat="43.01982" lon="-1.75931">
        <ele>606.977</ele>
        <time>2020-05-16T02:22:59Z</time>
      </trkpt>
      <trkpt lat="43.01977" lon="-1.75932">
        <ele>606.747</ele>
        <time>2020-05-16T02:23:19Z</time>
      </trkpt>
      <trkpt lat="43.01961" lon="-1.75937">
        <ele>606.674</ele>
        <time>2020-05-16T02:23:39Z</time>
      </trkpt>
      <trkpt lat="43.01955" lon="-1.75939">
        <ele>606.346</ele>
        <time>2020-05-16T02:23:59Z</time>
      </trkpt>
      <trkpt lat="43.01952" lon="-1.75939">
        <ele>606.433</ele>
        <time>2020-05-16T02:24:19Z</time>
      </trkpt>
      <trkpt lat="43.01947" lon="-1.7594">
        <ele>606.523</ele>
        <time>2020-05-16T02:24:39Z</time>
      </trkpt>
      <trkpt lat="43.01946" lon="-1.75941">
        <ele>606.515</ele>
        <time>2020-05-16T02:24:59Z</time>
      </trkpt>
      <trkpt lat="43.01938" lon="-1.75942">
        <ele>606.508</ele>
        <time>2020-05-16T02:25:19Z</time>
      </trkpt>
      <trkpt lat="43.01932" lon="-1.75943">
        <ele>606.567</ele>
        <time>2020-05-16T02:25:39Z</time>
      </trkpt>
      <trkpt lat="43.01925" lon="-1.75943">
        <ele>606.482</ele>
        <time>2020-05-16T02:25:59Z</time>
      </trkpt>
      <trkpt lat="43.01915" lon="-1.75945">
        <ele>606.116</ele>
        <time>2020-05-16T02:26:19Z</time>
      </trkpt>
      <trkpt lat="43.01874" lon="-1.75949">
        <ele>605.914</ele>
        <time>2020-05-16T02:26:39Z</time>
      </trkpt>
      <trkpt lat="43.01849" lon="-1.75952">
        <ele>605.499</ele>
        <time>2020-05-16T02:26:59Z</time>
      </trkpt>
      <trkpt lat="43.0184" lon="-1.75952">
        <ele>606.179</ele>
        <time>2020-05-16T02:27:19Z</time>
      </trkpt>
      <trkpt lat="43.01831" lon="-1.75952">
        <ele>606.516</ele>
        <time>2020-05-16T02:27:39Z</time>
      </trkpt>
      <trkpt lat="43.01825" lon="-1.75952">
        <ele>606.598</ele>
        <time>2020-05-16T02:27:59Z</time>
      </trkpt>
      <trkpt lat="43.0182" lon="-1.75952">
        <ele>606.696</ele>
        <time>2020-05-16T02:28:19Z</time>
      </trkpt>
      <trkpt lat="43.01814" lon="-1.75951">
        <ele>606.831</ele>
        <time>2020-05-16T02:28:39Z</time>
      </trkpt>
      <trkpt lat="43.01808" lon="-1.7595">
        <ele>607.024</ele>
        <time>2020-05-16T02:28:59Z</time>
      </trkpt>
      <trkpt lat="43.018" lon="-1.75949">
        <ele>607.108</ele>
        <time>2020-05-16T02:29:19Z</time>
      </trkpt>
      <trkpt lat="43.01784" lon="-1.75946">
        <ele>607.773</ele>
        <time>2020-05-16T02:29:39Z</time>
      </trkpt>
      <trkpt lat="43.01776" lon="-1.75945">
        <ele>608.128</ele>
        <time>2020-05-16T02:29:59Z</time>
      </trkpt>
      <trkpt lat="43.01769" lon="-1.75944">
        <ele>608.332</ele>
        <time>2020-05-16T02:30:19Z</time>
      </trkpt>
      <trkpt lat="43.01767" lon="-1.75943">
        <ele>608.84</ele>
        <time>2020-05-16T02:30:39Z</time>
      </trkpt>
      <trkpt lat="43.01751" lon="-1.7594">
        <ele>608.835</ele>
        <time>2020-05-16T02:30:59Z</time>
      </trkpt>
      <trkpt lat="43.01743" lon="-1.75938">
        <ele>608.945</ele>
        <time>2020-05-16T02:31:19Z</time>
      </trkpt>
      <trkpt lat="43.01736" lon="-1.75936">
        <ele>608.842</ele>
        <time>2020-05-16T02:31:39Z</time>
      </trkpt>
      <trkpt lat="43.01729" lon="-1.75934">
        <ele>608.524</ele>
        <time>2020-05-16T02:31:59Z</time>
      </trkpt>
      <trkpt lat="43.01724" lon="-1.75932">
        <ele>608.557</ele>
        <time>2020-05-16T02:32:19Z</time>
      </trkpt>
      <trkpt lat="43.01719" lon="-1.7593">
        <ele>608.4</ele>
        <time>2020-05-16T02:32:39Z</time>
      </trkpt>
      <trkpt lat="43.01707" lon="-1.75925">
        <ele>607.82</ele>
        <time>2020-05-16T02:32:59Z</time>
      </trkpt>
      <trkpt lat="43.01695" lon="-1.7592">
        <ele>607.808</ele>
        <time>2020-05-16T02:33:19Z</time>
      </trkpt>
      <trkpt lat="43.01691" lon="-1.75918">
        <ele>607.179</ele>
        <time>2020-05-16T02:33:39Z</time>
      </trkpt>
      <trkpt lat="43.01686" lon="-1.75916">
        <ele>606.994</ele>
        <time>2020-05-16T02:33:59Z</time>
      </trkpt>
      <trkpt lat="43.01684" lon="-1.75916">
        <ele>606.968</ele>
        <time>2020-05-16T02:34:19Z</time>
      </trkpt>
      <trkpt lat="43.01681" lon="-1.75915">
        <ele>606.756</ele>
        <time>2020-05-16T02:34:39Z</time>
      </trkpt>
      <trkpt lat="43.0167" lon="-1.75913">
        <ele>606.291</ele>
        <time>2020-05-16T02:34:59Z</time>
      </trkpt>
      <trkpt lat="43.01659" lon="-1.75911">
        <ele>605.841</ele>
        <time>2020-05-16T02:35:19Z</time>
      </trkpt>
      <trkpt lat="43.01652" lon="-1.7591">
        <ele>605.718</ele>
        <time>2020-05-16T02:35:39Z</time>
      </trkpt>
      <trkpt lat="43.01644" lon="-1.75908">
        <ele>605.69</ele>
        <time>2020-05-16T02:35:59Z</time>
      </trkpt>
      <trkpt lat="43.01637" lon="-1.75906">
        <ele>605.752</ele>
        <time>2020-05-16T02:36:19Z</time>
      </trkpt>
      <trkpt lat="43.01629" lon="-1.75904">
        <ele>605.753</ele>
        <time>2020-05-16T02:36:39Z</time>
      </trkpt>
      <trkpt lat="43.01619" lon="-1.759">
        <ele>606.108</ele>
        <time>2020-05-16T02:36:59Z</time>
      </trkpt>
      <trkpt lat="43.01609" lon="-1.75896">
        <ele>607.508</ele>
        <time>2020-05-16T02:37:19Z</time>
      </trkpt>
      <trkpt lat="43.01606" lon="-1.75895">
        <ele>606.469</ele>
        <time>2020-05-16T02:37:39Z</time>
      </trkpt>
      <trkpt lat="43.01603" lon="-1.75894">
        <ele>606.324</ele>
        <time>2020-05-16T02:37:59Z</time>
      </trkpt>
      <trkpt lat="43.016" lon="-1.75893">
        <ele>606.458</ele>
        <time>2020-05-16T02:38:19Z</time>
      </trkpt>
      <trkpt lat="43.01597" lon="-1.75892">
        <ele>606.436</ele>
        <time>2020-05-16T02:38:39Z</time>
      </trkpt>
      <trkpt lat="43.01593" lon="-1.75891">
        <ele>606.511</ele>
        <time>2020-05-16T02:38:59Z</time>
      </trkpt>
      <trkpt lat="43.0159" lon="-1.75891">
        <ele>606.661</ele>
        <time>2020-05-16T02:39:19Z</time>
      </trkpt>
      <trkpt lat="43.01576" lon="-1.75889">
        <ele>606.948</ele>
        <time>2020-05-16T02:39:39Z</time>
      </trkpt>
      <trkpt lat="43.01561" lon="-1.75887">
        <ele>607.11</ele>
        <time>2020-05-16T02:39:59Z</time>
      </trkpt>
      <trkpt lat="43.01558" lon="-1.75886">
        <ele>607.143</ele>
        <time>2020-05-16T02:40:19Z</time>
      </trkpt>
      <trkpt lat="43.01554" lon="-1.75885">
        <ele>607.164</ele>
        <time>2020-05-16T02:40:39Z</time>
      </trkpt>
      <trkpt lat="43.01547" lon="-1.75883">
        <ele>607.21</ele>
        <time>2020-05-16T02:40:59Z</time>
      </trkpt>
      <trkpt lat="43.01536" lon="-1.75878">
        <ele>607.408</ele>
        <time>2020-05-16T02:41:19Z</time>
      </trkpt>
      <trkpt lat="43.01526" lon="-1.75874">
        <ele>607.448</ele>
        <time>2020-05-16T02:41:39Z</time>
      </trkpt>
      <trkpt lat="43.015" lon="-1.75862">
        <ele>607.763</ele>
        <time>2020-05-16T02:41:59Z</time>
      </trkpt>
      <trkpt lat="43.01474" lon="-1.7585">
        <ele>609.167</ele>
        <time>2020-05-16T02:42:19Z</time>
      </trkpt>
      <trkpt lat="43.01466" lon="-1.75847">
        <ele>608.265</ele>
        <time>2020-05-16T02:42:39Z</time>
      </trkpt>
      <trkpt lat="43.0146" lon="-1.75845">
        <ele>608.23</ele>
        <time>2020-05-16T02:42:59Z</time>
      </trkpt>
      <trkpt lat="43.01459" lon="-1.75844">
        <ele>608.22</ele>
        <time>2020-05-16T02:43:19Z</time>
      </trkpt>
      <trkpt lat="43.01458" lon="-1.75844">
        <ele>608.227</ele>
        <time>2020-05-16T02:43:39Z</time>
      </trkpt>
      <trkpt lat="43.01455" lon="-1.75842">
        <ele>608.149</ele>
        <time>2020-05-16T02:43:59Z</time>
      </trkpt>
      <trkpt lat="43.01447" lon="-1.75838">
        <ele>607.917</ele>
        <time>2020-05-16T02:44:19Z</time>
      </trkpt>
      <trkpt lat="43.01437" lon="-1.75833">
        <ele>607.887</ele>
        <time>2020-05-16T02:44:39Z</time>
      </trkpt>
      <trkpt lat="43.01428" lon="-1.75828">
        <ele>607.215</ele>
        <time>2020-05-16T02:44:59Z</time>
      </trkpt>
      <trkpt lat="43.0142" lon="-1.75823">
        <ele>606.908</ele>
        <time>2020-05-16T02:45:19Z</time>
      </trkpt>
      <trkpt lat="43.01419" lon="-1.75822">
        <ele>606.935</ele>
        <time>2020-05-16T02:45:39Z</time>
      </trkpt>
      <trkpt lat="43.01418" lon="-1.75821">
        <ele>606.94</ele>
        <time>2020-05-16T02:45:59Z</time>
      </trkpt>
      <trkpt lat="43.01417" lon="-1.7582">
        <ele>606.974</ele>
        <time>2020-05-16T02:46:19Z</time>
      </trkpt>
      <trkpt lat="43.0141" lon="-1.75815">
        <ele>606.642</ele>
        <time>2020-05-16T02:46:39Z</time>
      </trkpt>
      <trkpt lat="43.01402" lon="-1.75809">
        <ele>606.357</ele>
        <time>2020-05-16T02:46:59Z</time>
      </trkpt>
      <trkpt lat="43.01396" lon="-1.75804">
        <ele>606.157</ele>
        <time>2020-05-16T02:47:19Z</time>
      </trkpt>
      <trkpt lat="43.01392" lon="-1.75801">
        <ele>605.974</ele>
        <time>2020-05-16T02:47:39Z</time>
      </trkpt>
      <trkpt lat="43.01391" lon="-1.758">
        <ele>605.916</ele>
        <time>2020-05-16T02:47:59Z</time>
      </trkpt>
      <trkpt lat="43.01381" lon="-1.75791">
        <ele>605.755</ele>
        <time>2020-05-16T02:48:19Z</time>
      </trkpt>
      <trkpt lat="43.01378" lon="-1.75789">
        <ele>605.607</ele>
        <time>2020-05-16T02:48:39Z</time>
      </trkpt>
      <trkpt lat="43.01375" lon="-1.75787">
        <ele>605.617</ele>
        <time>2020-05-16T02:48:59Z</time>
      </trkpt>
      <trkpt lat="43.01371" lon="-1.75785">
        <ele>605.608</ele>
        <time>2020-05-16T02:49:19Z</time>
      </trkpt>
      <trkpt lat="43.01366" lon="-1.75782">
        <ele>605.359</ele>
        <time>2020-05-16T02:49:39Z</time>
      </trkpt>
      <trkpt lat="43.01363" lon="-1.75781">
        <ele>605.324</ele>
        <time>2020-05-16T02:49:59Z</time>
      </trkpt>
      <trkpt lat="43.0136" lon="-1.7578">
        <ele>605.468</ele>
        <time>2020-05-16T02:50:19Z</time>
      </trkpt>
      <trkpt lat="43.01357" lon="-1.75778">
        <ele>605.466</ele>
        <time>2020-05-16T02:50:39Z</time>
      </trkpt>
      <trkpt lat="43.01354" lon="-1.75777">
        <ele>605.211</ele>
        <time>2020-05-16T02:50:59Z</time>
      </trkpt>
      <trkpt lat="43.01349" lon="-1.75776">
        <ele>605.261</ele>
        <time>2020-05-16T02:51:19Z</time>
      </trkpt>
      <trkpt lat="43.01344" lon="-1.75774">
        <ele>605.288</ele>
        <time>2020-05-16T02:51:39Z</time>
      </trkpt>
      <trkpt lat="43.01331" lon="-1.7577">
        <ele>604.92</ele>
        <time>2020-05-16T02:51:59Z</time>
      </trkpt>
      <trkpt lat="43.01324" lon="-1.75768">
        <ele>604.636</ele>
        <time>2020-05-16T02:52:19Z</time>
      </trkpt>
      <trkpt lat="43.01323" lon="-1.75767">
        <ele>604.617</ele>
        <time>2020-05-16T02:52:39Z</time>
      </trkpt>
      <trkpt lat="43.01319" lon="-1.75766">
        <ele>604.318</ele>
        <time>2020-05-16T02:52:59Z</time>
      </trkpt>
      <trkpt lat="43.01312" lon="-1.75763">
        <ele>603.908</ele>
        <time>2020-05-16T02:53:19Z</time>
      </trkpt>
      <trkpt lat="43.01304" lon="-1.7576">
        <ele>603.377</ele>
        <time>2020-05-16T02:53:39Z</time>
      </trkpt>
      <trkpt lat="43.01303" lon="-1.75759">
        <ele>603.332</ele>
        <time>2020-05-16T02:53:59Z</time>
      </trkpt>
      <trkpt lat="43.01301" lon="-1.75759">
        <ele>603.176</ele>
        <time>2020-05-16T02:54:19Z</time>
      </trkpt>
      <trkpt lat="43.01299" lon="-1.75759">
        <ele>603.154</ele>
        <time>2020-05-16T02:54:39Z</time>
      </trkpt>
      <trkpt lat="43.01297" lon="-1.75759">
        <ele>602.389</ele>
        <time>2020-05-16T02:54:59Z</time>
      </trkpt>
      <trkpt lat="43.01296" lon="-1.75759">
        <ele>602.399</ele>
        <time>2020-05-16T02:55:19Z</time>
      </trkpt>
      <trkpt lat="43.01295" lon="-1.75759">
        <ele>602.386</ele>
        <time>2020-05-16T02:55:39Z</time>
      </trkpt>
      <trkpt lat="43.01294" lon="-1.7576">
        <ele>602.338</ele>
        <time>2020-05-16T02:55:59Z</time>
      </trkpt>
      <trkpt lat="43.01292" lon="-1.75761">
        <ele>601.791</ele>
        <time>2020-05-16T02:56:19Z</time>
      </trkpt>
      <trkpt lat="43.01291" lon="-1.75763">
        <ele>601.781</ele>
        <time>2020-05-16T02:56:39Z</time>
      </trkpt>
      <trkpt lat="43.0129" lon="-1.75765">
        <ele>601.719</ele>
        <time>2020-05-16T02:56:59Z</time>
      </trkpt>
      <trkpt lat="43.01289" lon="-1.75767">
        <ele>601.208</ele>
        <time>2020-05-16T02:57:19Z</time>
      </trkpt>
      <trkpt lat="43.01288" lon="-1.75768">
        <ele>601.213</ele>
        <time>2020-05-16T02:57:39Z</time>
      </trkpt>
      <trkpt lat="43.01285" lon="-1.75781">
        <ele>601.338</ele>
        <time>2020-05-16T02:57:59Z</time>
      </trkpt>
      <trkpt lat="43.01281" lon="-1.75794">
        <ele>599.572</ele>
        <time>2020-05-16T02:58:19Z</time>
      </trkpt>
      <trkpt lat="43.01281" lon="-1.75794">
        <ele>599.53</ele>
        <time>2020-05-16T02:58:39Z</time>
      </trkpt>
      <trkpt lat="43.01277" lon="-1.75808">
        <ele>595.465</ele>
        <time>2020-05-16T02:58:59Z</time>
      </trkpt>
      <trkpt lat="43.01274" lon="-1.75815">
        <ele>594.535</ele>
        <time>2020-05-16T02:59:19Z</time>
      </trkpt>
      <trkpt lat="43.01265" lon="-1.75839">
        <ele>593.492</ele>
        <time>2020-05-16T02:59:39Z</time>
      </trkpt>
      <trkpt lat="43.01256" lon="-1.75861">
        <ele>594.884</ele>
        <time>2020-05-16T02:59:59Z</time>
      </trkpt>
      <trkpt lat="43.01253" lon="-1.75869">
        <ele>596.225</ele>
        <time>2020-05-16T03:00:19Z</time>
      </trkpt>
      <trkpt lat="43.0125" lon="-1.75878">
        <ele>596.126</ele>
        <time>2020-05-16T03:00:39Z</time>
      </trkpt>
      <trkpt lat="43.01249" lon="-1.7588">
        <ele>596.208</ele>
        <time>2020-05-16T03:00:59Z</time>
      </trkpt>
      <trkpt lat="43.01239" lon="-1.75905">
        <ele>595.808</ele>
        <time>2020-05-16T03:01:19Z</time>
      </trkpt>
      <trkpt lat="43.01229" lon="-1.75929">
        <ele>595.286</ele>
        <time>2020-05-16T03:01:39Z</time>
      </trkpt>
      <trkpt lat="43.01228" lon="-1.75933">
        <ele>595.261</ele>
        <time>2020-05-16T03:01:59Z</time>
      </trkpt>
      <trkpt lat="43.01224" lon="-1.75944">
        <ele>594.565</ele>
        <time>2020-05-16T03:02:19Z</time>
      </trkpt>
      <trkpt lat="43.01215" lon="-1.75964">
        <ele>593.493</ele>
        <time>2020-05-16T03:02:39Z</time>
      </trkpt>
      <trkpt lat="43.01208" lon="-1.7598">
        <ele>592.018</ele>
        <time>2020-05-16T03:02:59Z</time>
      </trkpt>
      <trkpt lat="43.01202" lon="-1.75991">
        <ele>591.558</ele>
        <time>2020-05-16T03:03:19Z</time>
      </trkpt>
      <trkpt lat="43.01197" lon="-1.76003">
        <ele>590.575</ele>
        <time>2020-05-16T03:03:39Z</time>
      </trkpt>
      <trkpt lat="43.01193" lon="-1.7601">
        <ele>590.127</ele>
        <time>2020-05-16T03:03:59Z</time>
      </trkpt>
      <trkpt lat="43.01183" lon="-1.76026">
        <ele>589.163</ele>
        <time>2020-05-16T03:04:19Z</time>
      </trkpt>
      <trkpt lat="43.01177" lon="-1.76034">
        <ele>588.244</ele>
        <time>2020-05-16T03:04:39Z</time>
      </trkpt>
      <trkpt lat="43.01165" lon="-1.76053">
        <ele>586.718</ele>
        <time>2020-05-16T03:04:59Z</time>
      </trkpt>
      <trkpt lat="43.01153" lon="-1.76071">
        <ele>585.808</ele>
        <time>2020-05-16T03:05:19Z</time>
      </trkpt>
      <trkpt lat="43.01145" lon="-1.76083">
        <ele>584.56</ele>
        <time>2020-05-16T03:05:39Z</time>
      </trkpt>
      <trkpt lat="43.01136" lon="-1.76095">
        <ele>583.965</ele>
        <time>2020-05-16T03:05:59Z</time>
      </trkpt>
      <trkpt lat="43.01129" lon="-1.76105">
        <ele>583.269</ele>
        <time>2020-05-16T03:06:19Z</time>
      </trkpt>
      <trkpt lat="43.0112" lon="-1.76115">
        <ele>582.297</ele>
        <time>2020-05-16T03:06:39Z</time>
      </trkpt>
      <trkpt lat="43.01117" lon="-1.76119">
        <ele>581.782</ele>
        <time>2020-05-16T03:06:59Z</time>
      </trkpt>
      <trkpt lat="43.01115" lon="-1.76121">
        <ele>581.652</ele>
        <time>2020-05-16T03:07:19Z</time>
      </trkpt>
      <trkpt lat="43.01113" lon="-1.76122">
        <ele>581.669</ele>
        <time>2020-05-16T03:07:39Z</time>
      </trkpt>
      <trkpt lat="43.01112" lon="-1.76122">
        <ele>580.371</ele>
        <time>2020-05-16T03:07:59Z</time>
      </trkpt>
      <trkpt lat="43.01107" lon="-1.76126">
        <ele>578.918</ele>
        <time>2020-05-16T03:08:19Z</time>
      </trkpt>
      <trkpt lat="43.01103" lon="-1.76127">
        <ele>581.398</ele>
        <time>2020-05-16T03:08:39Z</time>
      </trkpt>
      <trkpt lat="43.01103" lon="-1.76127">
        <ele>581.317</ele>
        <time>2020-05-16T03:08:59Z</time>
      </trkpt>
      <trkpt lat="43.01098" lon="-1.76128">
        <ele>581.008</ele>
        <time>2020-05-16T03:09:19Z</time>
      </trkpt>
      <trkpt lat="43.01096" lon="-1.76127">
        <ele>581.015</ele>
        <time>2020-05-16T03:09:39Z</time>
      </trkpt>
      <trkpt lat="43.01094" lon="-1.76127">
        <ele>580.84</ele>
        <time>2020-05-16T03:09:59Z</time>
      </trkpt>
      <trkpt lat="43.01092" lon="-1.76127">
        <ele>580.814</ele>
        <time>2020-05-16T03:10:19Z</time>
      </trkpt>
      <trkpt lat="43.01074" lon="-1.76125">
        <ele>579.872</ele>
        <time>2020-05-16T03:10:39Z</time>
      </trkpt>
      <trkpt lat="43.01057" lon="-1.76123">
        <ele>579.147</ele>
        <time>2020-05-16T03:10:59Z</time>
      </trkpt>
      <trkpt lat="43.01034" lon="-1.76119">
        <ele>578.187</ele>
        <time>2020-05-16T03:11:19Z</time>
      </trkpt>
      <trkpt lat="43.01017" lon="-1.76116">
        <ele>577.174</ele>
        <time>2020-05-16T03:11:39Z</time>
      </trkpt>
      <trkpt lat="43.01009" lon="-1.76115">
        <ele>577.096</ele>
        <time>2020-05-16T03:11:59Z</time>
      </trkpt>
      <trkpt lat="43.00983" lon="-1.7611">
        <ele>575.828</ele>
        <time>2020-05-16T03:12:19Z</time>
      </trkpt>
      <trkpt lat="43.00974" lon="-1.7611">
        <ele>575.889</ele>
        <time>2020-05-16T03:12:39Z</time>
      </trkpt>
      <trkpt lat="43.00965" lon="-1.76109">
        <ele>575.617</ele>
        <time>2020-05-16T03:12:59Z</time>
      </trkpt>
      <trkpt lat="43.00961" lon="-1.76109">
        <ele>575.408</ele>
        <time>2020-05-16T03:13:19Z</time>
      </trkpt>
      <trkpt lat="43.00957" lon="-1.76109">
        <ele>575.376</ele>
        <time>2020-05-16T03:13:39Z</time>
      </trkpt>
      <trkpt lat="43.00952" lon="-1.76109">
        <ele>575.151</ele>
        <time>2020-05-16T03:13:59Z</time>
      </trkpt>
      <trkpt lat="43.00945" lon="-1.76109">
        <ele>575.065</ele>
        <time>2020-05-16T03:14:19Z</time>
      </trkpt>
      <trkpt lat="43.00942" lon="-1.76109">
        <ele>575.093</ele>
        <time>2020-05-16T03:14:39Z</time>
      </trkpt>
      <trkpt lat="43.00938" lon="-1.7611">
        <ele>574.818</ele>
        <time>2020-05-16T03:14:59Z</time>
      </trkpt>
      <trkpt lat="43.00935" lon="-1.7611">
        <ele>574.868</ele>
        <time>2020-05-16T03:15:19Z</time>
      </trkpt>
      <trkpt lat="43.00925" lon="-1.76112">
        <ele>574.455</ele>
        <time>2020-05-16T03:15:39Z</time>
      </trkpt>
      <trkpt lat="43.00916" lon="-1.76115">
        <ele>574.287</ele>
        <time>2020-05-16T03:15:59Z</time>
      </trkpt>
      <trkpt lat="43.00911" lon="-1.76116">
        <ele>574.153</ele>
        <time>2020-05-16T03:16:19Z</time>
      </trkpt>
      <trkpt lat="43.00907" lon="-1.76118">
        <ele>574.004</ele>
        <time>2020-05-16T03:16:39Z</time>
      </trkpt>
      <trkpt lat="43.00887" lon="-1.76125">
        <ele>572.714</ele>
        <time>2020-05-16T03:16:59Z</time>
      </trkpt>
      <trkpt lat="43.00876" lon="-1.7613">
        <ele>572.408</ele>
        <time>2020-05-16T03:17:19Z</time>
      </trkpt>
      <trkpt lat="43.00864" lon="-1.76135">
        <ele>571.739</ele>
        <time>2020-05-16T03:17:39Z</time>
      </trkpt>
      <trkpt lat="43.00859" lon="-1.76136">
        <ele>571.664</ele>
        <time>2020-05-16T03:17:59Z</time>
      </trkpt>
      <trkpt lat="43.00854" lon="-1.76138">
        <ele>571.458</ele>
        <time>2020-05-16T03:18:19Z</time>
      </trkpt>
      <trkpt lat="43.00851" lon="-1.76138">
        <ele>570.996</ele>
        <time>2020-05-16T03:18:39Z</time>
      </trkpt>
      <trkpt lat="43.00849" lon="-1.76138">
        <ele>570.911</ele>
        <time>2020-05-16T03:18:59Z</time>
      </trkpt>
      <trkpt lat="43.00846" lon="-1.76138">
        <ele>570.881</ele>
        <time>2020-05-16T03:19:19Z</time>
      </trkpt>
      <trkpt lat="43.00844" lon="-1.76138">
        <ele>570.898</ele>
        <time>2020-05-16T03:19:39Z</time>
      </trkpt>
      <trkpt lat="43.00838" lon="-1.76137">
        <ele>570.68</ele>
        <time>2020-05-16T03:19:59Z</time>
      </trkpt>
      <trkpt lat="43.00832" lon="-1.76137">
        <ele>570.486</ele>
        <time>2020-05-16T03:20:19Z</time>
      </trkpt>
      <trkpt lat="43.0083" lon="-1.76136">
        <ele>570.46</ele>
        <time>2020-05-16T03:20:39Z</time>
      </trkpt>
      <trkpt lat="43.00827" lon="-1.76135">
        <ele>570.326</ele>
        <time>2020-05-16T03:20:59Z</time>
      </trkpt>
      <trkpt lat="43.00823" lon="-1.76133">
        <ele>569.708</ele>
        <time>2020-05-16T03:21:19Z</time>
      </trkpt>
      <trkpt lat="43.00821" lon="-1.76131">
        <ele>569.792</ele>
        <time>2020-05-16T03:21:39Z</time>
      </trkpt>
      <trkpt lat="43.00814" lon="-1.76127">
        <ele>569.447</ele>
        <time>2020-05-16T03:21:59Z</time>
      </trkpt>
      <trkpt lat="43.00808" lon="-1.76123">
        <ele>569.231</ele>
        <time>2020-05-16T03:22:19Z</time>
      </trkpt>
      <trkpt lat="43.008" lon="-1.76118">
        <ele>568.999</ele>
        <time>2020-05-16T03:22:39Z</time>
      </trkpt>
      <trkpt lat="43.00792" lon="-1.76113">
        <ele>568.334</ele>
        <time>2020-05-16T03:22:59Z</time>
      </trkpt>
      <trkpt lat="43.00787" lon="-1.76112">
        <ele>568.024</ele>
        <time>2020-05-16T03:23:19Z</time>
      </trkpt>
      <trkpt lat="43.00784" lon="-1.76111">
        <ele>568.071</ele>
        <time>2020-05-16T03:23:39Z</time>
      </trkpt>
      <trkpt lat="43.00782" lon="-1.76111">
        <ele>567.683</ele>
        <time>2020-05-16T03:23:59Z</time>
      </trkpt>
      <trkpt lat="43.00776" lon="-1.7611">
        <ele>567.142</ele>
        <time>2020-05-16T03:24:19Z</time>
      </trkpt>
      <trkpt lat="43.00771" lon="-1.7611">
        <ele>567.022</ele>
        <time>2020-05-16T03:24:39Z</time>
      </trkpt>
      <trkpt lat="43.00768" lon="-1.76111">
        <ele>567.014</ele>
        <time>2020-05-16T03:24:59Z</time>
      </trkpt>
      <trkpt lat="43.00765" lon="-1.76111">
        <ele>567.008</ele>
        <time>2020-05-16T03:25:19Z</time>
      </trkpt>
      <trkpt lat="43.0076" lon="-1.76112">
        <ele>566.988</ele>
        <time>2020-05-16T03:25:39Z</time>
      </trkpt>
      <trkpt lat="43.00756" lon="-1.76113">
        <ele>566.943</ele>
        <time>2020-05-16T03:25:59Z</time>
      </trkpt>
      <trkpt lat="43.00738" lon="-1.76118">
        <ele>566.947</ele>
        <time>2020-05-16T03:26:19Z</time>
      </trkpt>
      <trkpt lat="43.0072" lon="-1.76123">
        <ele>567.165</ele>
        <time>2020-05-16T03:26:39Z</time>
      </trkpt>
      <trkpt lat="43.00708" lon="-1.76126">
        <ele>567.23</ele>
        <time>2020-05-16T03:26:59Z</time>
      </trkpt>
      <trkpt lat="43.00695" lon="-1.76128">
        <ele>567.49</ele>
        <time>2020-05-16T03:27:19Z</time>
      </trkpt>
      <trkpt lat="43.00692" lon="-1.76129">
        <ele>567.527</ele>
        <time>2020-05-16T03:27:39Z</time>
      </trkpt>
      <trkpt lat="43.00689" lon="-1.76129">
        <ele>567.579</ele>
        <time>2020-05-16T03:27:59Z</time>
      </trkpt>
      <trkpt lat="43.00686" lon="-1.76129">
        <ele>567.529</ele>
        <time>2020-05-16T03:28:19Z</time>
      </trkpt>
      <trkpt lat="43.00683" lon="-1.76129">
        <ele>567.6</ele>
        <time>2020-05-16T03:28:39Z</time>
      </trkpt>
      <trkpt lat="43.00681" lon="-1.76129">
        <ele>567.62</ele>
        <time>2020-05-16T03:28:59Z</time>
      </trkpt>
      <trkpt lat="43.00678" lon="-1.76128">
        <ele>567.308</ele>
        <time>2020-05-16T03:29:19Z</time>
      </trkpt>
      <trkpt lat="43.00671" lon="-1.76127">
        <ele>567.536</ele>
        <time>2020-05-16T03:29:39Z</time>
      </trkpt>
      <trkpt lat="43.00665" lon="-1.76125">
        <ele>567.541</ele>
        <time>2020-05-16T03:29:59Z</time>
      </trkpt>
      <trkpt lat="43.00652" lon="-1.76122">
        <ele>567.665</ele>
        <time>2020-05-16T03:30:19Z</time>
      </trkpt>
      <trkpt lat="43.00639" lon="-1.76118">
        <ele>567.553</ele>
        <time>2020-05-16T03:30:39Z</time>
      </trkpt>
      <trkpt lat="43.0062" lon="-1.7611">
        <ele>567.668</ele>
        <time>2020-05-16T03:30:59Z</time>
      </trkpt>
      <trkpt lat="43.006" lon="-1.76103">
        <ele>567.828</ele>
        <time>2020-05-16T03:31:19Z</time>
      </trkpt>
      <trkpt lat="43.00555" lon="-1.76089">
        <ele>566.285</ele>
        <time>2020-05-16T03:31:39Z</time>
      </trkpt>
      <trkpt lat="43.0051" lon="-1.76074">
        <ele>565.227</ele>
        <time>2020-05-16T03:31:59Z</time>
      </trkpt>
      <trkpt lat="43.00507" lon="-1.76074">
        <ele>564.976</ele>
        <time>2020-05-16T03:32:19Z</time>
      </trkpt>
      <trkpt lat="43.00504" lon="-1.76073">
        <ele>564.89</ele>
        <time>2020-05-16T03:32:39Z</time>
      </trkpt>
      <trkpt lat="43.00502" lon="-1.76073">
        <ele>564.819</ele>
        <time>2020-05-16T03:32:59Z</time>
      </trkpt>
      <trkpt lat="43.00501" lon="-1.76073">
        <ele>564.808</ele>
        <time>2020-05-16T03:33:19Z</time>
      </trkpt>
      <trkpt lat="43.00497" lon="-1.76073">
        <ele>564.671</ele>
        <time>2020-05-16T03:33:39Z</time>
      </trkpt>
      <trkpt lat="43.00493" lon="-1.76074">
        <ele>564.516</ele>
        <time>2020-05-16T03:33:59Z</time>
      </trkpt>
      <trkpt lat="43.00485" lon="-1.76074">
        <ele>564.54</ele>
        <time>2020-05-16T03:34:19Z</time>
      </trkpt>
      <trkpt lat="43.00477" lon="-1.76075">
        <ele>563.638</ele>
        <time>2020-05-16T03:34:39Z</time>
      </trkpt>
      <trkpt lat="43.00472" lon="-1.76075">
        <ele>563.783</ele>
        <time>2020-05-16T03:34:59Z</time>
      </trkpt>
      <trkpt lat="43.00467" lon="-1.76076">
        <ele>563.793</ele>
        <time>2020-05-16T03:35:19Z</time>
      </trkpt>
      <trkpt lat="43.00464" lon="-1.76076">
        <ele>563.73</ele>
        <time>2020-05-16T03:35:39Z</time>
      </trkpt>
      <trkpt lat="43.00462" lon="-1.76077">
        <ele>563.632</ele>
        <time>2020-05-16T03:35:59Z</time>
      </trkpt>
      <trkpt lat="43.0046" lon="-1.76078">
        <ele>563.191</ele>
        <time>2020-05-16T03:36:19Z</time>
      </trkpt>
      <trkpt lat="43.00458" lon="-1.76079">
        <ele>563.481</ele>
        <time>2020-05-16T03:36:39Z</time>
      </trkpt>
      <trkpt lat="43.00449" lon="-1.76084">
        <ele>563.219</ele>
        <time>2020-05-16T03:36:59Z</time>
      </trkpt>
      <trkpt lat="43.00441" lon="-1.76091">
        <ele>562.508</ele>
        <time>2020-05-16T03:37:19Z</time>
      </trkpt>
      <trkpt lat="43.00438" lon="-1.76092">
        <ele>562.583</ele>
        <time>2020-05-16T03:37:39Z</time>
      </trkpt>
      <trkpt lat="43.00429" lon="-1.76099">
        <ele>562.288</ele>
        <time>2020-05-16T03:37:59Z</time>
      </trkpt>
      <trkpt lat="43.00433" lon="-1.7611">
        <ele>562.222</ele>
        <time>2020-05-16T03:38:19Z</time>
      </trkpt>
      <trkpt lat="43.00435" lon="-1.76113">
        <ele>562.24</ele>
        <time>2020-05-16T03:38:39Z</time>
      </trkpt>
      <trkpt lat="43.00437" lon="-1.7612">
        <ele>562.035</ele>
        <time>2020-05-16T03:38:59Z</time>
      </trkpt>
      <trkpt lat="43.00439" lon="-1.76126">
        <ele>562.195</ele>
        <time>2020-05-16T03:39:19Z</time>
      </trkpt>
      <trkpt lat="43.00441" lon="-1.76132">
        <ele>562.092</ele>
        <time>2020-05-16T03:39:39Z</time>
      </trkpt>
      <trkpt lat="43.00442" lon="-1.76136">
        <ele>562.474</ele>
        <time>2020-05-16T03:39:59Z</time>
      </trkpt>
      <trkpt lat="43.00444" lon="-1.76144">
        <ele>562.353</ele>
        <time>2020-05-16T03:40:19Z</time>
      </trkpt>
      <trkpt lat="43.00446" lon="-1.76151">
        <ele>562.204</ele>
        <time>2020-05-16T03:40:39Z</time>
      </trkpt>
      <trkpt lat="43.00447" lon="-1.76157">
        <ele>562.314</ele>
        <time>2020-05-16T03:40:59Z</time>
      </trkpt>
      <trkpt lat="43.00448" lon="-1.76164">
        <ele>562.408</ele>
        <time>2020-05-16T03:41:19Z</time>
      </trkpt>
      <trkpt lat="43.00449" lon="-1.76172">
        <ele>562.349</ele>
        <time>2020-05-16T03:41:39Z</time>
      </trkpt>
      <trkpt lat="43.00449" lon="-1.76179">
        <ele>562.344</ele>
        <time>2020-05-16T03:41:59Z</time>
      </trkpt>
      <trkpt lat="43.00449" lon="-1.76183">
        <ele>562.448</ele>
        <time>2020-05-16T03:42:19Z</time>
      </trkpt>
      <trkpt lat="43.0045" lon="-1.76193">
        <ele>562.496</ele>
        <time>2020-05-16T03:42:39Z</time>
      </trkpt>
      <trkpt lat="43.00449" lon="-1.76197">
        <ele>562.311</ele>
        <time>2020-05-16T03:42:59Z</time>
      </trkpt>
      <trkpt lat="43.00449" lon="-1.76205">
        <ele>562.331</ele>
        <time>2020-05-16T03:43:19Z</time>
      </trkpt>
      <trkpt lat="43.0045" lon="-1.76211">
        <ele>562.248</ele>
        <time>2020-05-16T03:43:39Z</time>
      </trkpt>
      <trkpt lat="43.00449" lon="-1.76224">
        <ele>562.17</ele>
        <time>2020-05-16T03:43:59Z</time>
      </trkpt>
      <trkpt lat="43.00448" lon="-1.76232">
        <ele>562.226</ele>
        <time>2020-05-16T03:44:19Z</time>
      </trkpt>
      <trkpt lat="43.00447" lon="-1.76241">
        <ele>561.947</ele>
        <time>2020-05-16T03:44:39Z</time>
      </trkpt>
      <trkpt lat="43.00446" lon="-1.76243">
        <ele>561.911</ele>
        <time>2020-05-16T03:44:59Z</time>
      </trkpt>
      <trkpt lat="43.00445" lon="-1.76247">
        <ele>561.708</ele>
        <time>2020-05-16T03:45:19Z</time>
      </trkpt>
      <trkpt lat="43.00444" lon="-1.76249">
        <ele>561.716</ele>
        <time>2020-05-16T03:45:39Z</time>
      </trkpt>
      <trkpt lat="43.00444" lon="-1.76251">
        <ele>561.541</ele>
        <time>2020-05-16T03:45:59Z</time>
      </trkpt>
      <trkpt lat="43.00442" lon="-1.76261">
        <ele>561.315</ele>
        <time>2020-05-16T03:46:19Z</time>
      </trkpt>
      <trkpt lat="43.00441" lon="-1.76264">
        <ele>561.183</ele>
        <time>2020-05-16T03:46:39Z</time>
      </trkpt>
      <trkpt lat="43.0044" lon="-1.76268">
        <ele>561.128</ele>
        <time>2020-05-16T03:46:59Z</time>
      </trkpt>
      <trkpt lat="43.00436" lon="-1.76292">
        <ele>560.668</ele>
        <time>2020-05-16T03:47:19Z</time>
      </trkpt>
      <trkpt lat="43.00432" lon="-1.76314">
        <ele>561.035</ele>
        <time>2020-05-16T03:47:39Z</time>
      </trkpt>
      <trkpt lat="43.00431" lon="-1.76318">
        <ele>562.287</ele>
        <time>2020-05-16T03:47:59Z</time>
      </trkpt>
      <trkpt lat="43.0043" lon="-1.76321">
        <ele>560.546</ele>
        <time>2020-05-16T03:48:19Z</time>
      </trkpt>
      <trkpt lat="43.00429" lon="-1.76325">
        <ele>560.588</ele>
        <time>2020-05-16T03:48:39Z</time>
      </trkpt>
      <trkpt lat="43.00428" lon="-1.76328">
        <ele>560.516</ele>
        <time>2020-05-16T03:48:59Z</time>
      </trkpt>
      <trkpt lat="43.00427" lon="-1.76329">
        <ele>560.508</ele>
        <time>2020-05-16T03:49:19Z</time>
      </trkpt>
      <trkpt lat="43.0042" lon="-1.76342">
        <ele>560.618</ele>
        <time>2020-05-16T03:49:39Z</time>
      </trkpt>
      <trkpt lat="43.00411" lon="-1.76359">
        <ele>560.843</ele>
        <time>2020-05-16T03:49:59Z</time>
      </trkpt>
      <trkpt lat="43.00403" lon="-1.76375">
        <ele>561.147</ele>
        <time>2020-05-16T03:50:19Z</time>
      </trkpt>
      <trkpt lat="43.00401" lon="-1.76377">
        <ele>561.175</ele>
        <time>2020-05-16T03:50:39Z</time>
      </trkpt>
      <trkpt lat="43.00399" lon="-1.76379">
        <ele>561.03</ele>
        <time>2020-05-16T03:50:59Z</time>
      </trkpt>
      <trkpt lat="43.00398" lon="-1.76381">
        <ele>561.37</ele>
        <time>2020-05-16T03:51:19Z</time>
      </trkpt>
      <trkpt lat="43.00395" lon="-1.76383">
        <ele>561.367</ele>
        <time>2020-05-16T03:51:39Z</time>
      </trkpt>
      <trkpt lat="43.00393" lon="-1.76385">
        <ele>561.269</ele>
        <time>2020-05-16T03:51:59Z</time>
      </trkpt>
      <trkpt lat="43.00391" lon="-1.76387">
        <ele>561.354</ele>
        <time>2020-05-16T03:52:19Z</time>
      </trkpt>
      <trkpt lat="43.00389" lon="-1.76388">
        <ele>561.356</ele>
        <time>2020-05-16T03:52:39Z</time>
      </trkpt>
      <trkpt lat="43.00387" lon="-1.76389">
        <ele>561.311</ele>
        <time>2020-05-16T03:52:59Z</time>
      </trkpt>
      <trkpt lat="43.00385" lon="-1.7639">
        <ele>561.408</ele>
        <time>2020-05-16T03:53:19Z</time>
      </trkpt>
      <trkpt lat="43.00377" lon="-1.76392">
        <ele>561.689</ele>
        <time>2020-05-16T03:53:39Z</time>
      </trkpt>
      <trkpt lat="43.00368" lon="-1.76395">
        <ele>561.744</ele>
        <time>2020-05-16T03:53:59Z</time>
      </trkpt>
      <trkpt lat="43.00356" lon="-1.76398">
        <ele>561.938</ele>
        <time>2020-05-16T03:54:19Z</time>
      </trkpt>
      <trkpt lat="43.00344" lon="-1.76401">
        <ele>562.266</ele>
        <time>2020-05-16T03:54:39Z</time>
      </trkpt>
      <trkpt lat="43.00342" lon="-1.76402">
        <ele>562.251</ele>
        <time>2020-05-16T03:54:59Z</time>
      </trkpt>
      <trkpt lat="43.00338" lon="-1.76404">
        <ele>562.491</ele>
        <time>2020-05-16T03:55:19Z</time>
      </trkpt>
      <trkpt lat="43.00335" lon="-1.76405">
        <ele>562.768</ele>
        <time>2020-05-16T03:55:39Z</time>
      </trkpt>
      <trkpt lat="43.00332" lon="-1.76407">
        <ele>562.83</ele>
        <time>2020-05-16T03:55:59Z</time>
      </trkpt>
      <trkpt lat="43.0033" lon="-1.76408">
        <ele>562.896</ele>
        <time>2020-05-16T03:56:19Z</time>
      </trkpt>
      <trkpt lat="43.00324" lon="-1.76413">
        <ele>563.131</ele>
        <time>2020-05-16T03:56:39Z</time>
      </trkpt>
      <trkpt lat="43.00318" lon="-1.76418">
        <ele>563.524</ele>
        <time>2020-05-16T03:56:59Z</time>
      </trkpt>
      <trkpt lat="43.00301" lon="-1.76432">
        <ele>564.208</ele>
        <time>2020-05-16T03:57:19Z</time>
      </trkpt>
      <trkpt lat="43.00283" lon="-1.76447">
        <ele>565.133</ele>
        <time>2020-05-16T03:57:39Z</time>
      </trkpt>
      <trkpt lat="43.00234" lon="-1.76488">
        <ele>567.478</ele>
        <time>2020-05-16T03:57:59Z</time>
      </trkpt>
      <trkpt lat="43.00193" lon="-1.76521">
        <ele>569.552</ele>
        <time>2020-05-16T03:58:19Z</time>
      </trkpt>
      <trkpt lat="43.00182" lon="-1.7653">
        <ele>569.74</ele>
        <time>2020-05-16T03:58:39Z</time>
      </trkpt>
      <trkpt lat="43.00169" lon="-1.76542">
        <ele>570.365</ele>
        <time>2020-05-16T03:58:59Z</time>
      </trkpt>
      <trkpt lat="43.00132" lon="-1.76573">
        <ele>572.195</ele>
        <time>2020-05-16T03:59:19Z</time>
      </trkpt>
      <trkpt lat="43.00107" lon="-1.76595">
        <ele>572.572</ele>
        <time>2020-05-16T03:59:39Z</time>
      </trkpt>
      <trkpt lat="43.00098" lon="-1.76602">
        <ele>574.474</ele>
        <time>2020-05-16T03:59:59Z</time>
      </trkpt>
      <trkpt lat="43.0009" lon="-1.7661">
        <ele>574.388</ele>
        <time>2020-05-16T04:00:19Z</time>
      </trkpt>
      <trkpt lat="43.00087" lon="-1.76612">
        <ele>574.324</ele>
        <time>2020-05-16T04:00:39Z</time>
      </trkpt>
      <trkpt lat="43.00085" lon="-1.76614">
        <ele>573.426</ele>
        <time>2020-05-16T04:00:59Z</time>
      </trkpt>
      <trkpt lat="43.00082" lon="-1.76615">
        <ele>575.008</ele>
        <time>2020-05-16T04:01:19Z</time>
      </trkpt>
      <trkpt lat="43.00079" lon="-1.76617">
        <ele>575.062</ele>
        <time>2020-05-16T04:01:39Z</time>
      </trkpt>
      <trkpt lat="43.00075" lon="-1.76618">
        <ele>575.457</ele>
        <time>2020-05-16T04:01:59Z</time>
      </trkpt>
      <trkpt lat="43.00071" lon="-1.7662">
        <ele>574.571</ele>
        <time>2020-05-16T04:02:19Z</time>
      </trkpt>
      <trkpt lat="43.00052" lon="-1.76624">
        <ele>576.659</ele>
        <time>2020-05-16T04:02:39Z</time>
      </trkpt>
      <trkpt lat="43.00042" lon="-1.76626">
        <ele>577.614</ele>
        <time>2020-05-16T04:02:59Z</time>
      </trkpt>
      <trkpt lat="43.00022" lon="-1.7663">
        <ele>579.294</ele>
        <time>2020-05-16T04:03:19Z</time>
      </trkpt>
      <trkpt lat="43.0002" lon="-1.76631">
        <ele>579.241</ele>
        <time>2020-05-16T04:03:39Z</time>
      </trkpt>
      <trkpt lat="43.00018" lon="-1.76631">
        <ele>579.543</ele>
        <time>2020-05-16T04:03:59Z</time>
      </trkpt>
      <trkpt lat="43.00013" lon="-1.76632">
        <ele>580.145</ele>
        <time>2020-05-16T04:04:19Z</time>
      </trkpt>
      <trkpt lat="43.00004" lon="-1.76635">
        <ele>580.847</ele>
        <time>2020-05-16T04:04:39Z</time>
      </trkpt>
      <trkpt lat="43" lon="-1.76637">
        <ele>581.311</ele>
        <time>2020-05-16T04:04:59Z</time>
      </trkpt>
      <trkpt lat="42.99996" lon="-1.76638">
        <ele>581.808</ele>
        <time>2020-05-16T04:05:19Z</time>
      </trkpt>
      <trkpt lat="42.9999" lon="-1.76642">
        <ele>582.648</ele>
        <time>2020-05-16T04:05:39Z</time>
      </trkpt>
      <trkpt lat="42.99988" lon="-1.76644">
        <ele>582.833</ele>
        <time>2020-05-16T04:05:59Z</time>
      </trkpt>
      <trkpt lat="42.99982" lon="-1.76648">
        <ele>583.347</ele>
        <time>2020-05-16T04:06:19Z</time>
      </trkpt>
      <trkpt lat="42.99979" lon="-1.76651">
        <ele>583.865</ele>
        <time>2020-05-16T04:06:39Z</time>
      </trkpt>
      <trkpt lat="42.99978" lon="-1.76653">
        <ele>584.02</ele>
        <time>2020-05-16T04:06:59Z</time>
      </trkpt>
      <trkpt lat="42.99976" lon="-1.76655">
        <ele>584.05</ele>
        <time>2020-05-16T04:07:19Z</time>
      </trkpt>
      <trkpt lat="42.99973" lon="-1.76658">
        <ele>584.497</ele>
        <time>2020-05-16T04:07:39Z</time>
      </trkpt>
      <trkpt lat="42.9997" lon="-1.76665">
        <ele>584.619</ele>
        <time>2020-05-16T04:07:59Z</time>
      </trkpt>
      <trkpt lat="42.99968" lon="-1.76672">
        <ele>584.937</ele>
        <time>2020-05-16T04:08:19Z</time>
      </trkpt>
      <trkpt lat="42.99964" lon="-1.76688">
        <ele>584.949</ele>
        <time>2020-05-16T04:08:39Z</time>
      </trkpt>
      <trkpt lat="42.99961" lon="-1.76704">
        <ele>584.813</ele>
        <time>2020-05-16T04:08:59Z</time>
      </trkpt>
      <trkpt lat="42.99959" lon="-1.76716">
        <ele>584.408</ele>
        <time>2020-05-16T04:09:19Z</time>
      </trkpt>
      <trkpt lat="42.99957" lon="-1.76727">
        <ele>584.237</ele>
        <time>2020-05-16T04:09:39Z</time>
      </trkpt>
      <trkpt lat="42.99954" lon="-1.7675">
        <ele>583.172</ele>
        <time>2020-05-16T04:09:59Z</time>
      </trkpt>
      <trkpt lat="42.99952" lon="-1.76773">
        <ele>581.876</ele>
        <time>2020-05-16T04:10:19Z</time>
      </trkpt>
      <trkpt lat="42.99951" lon="-1.76782">
        <ele>581.524</ele>
        <time>2020-05-16T04:10:39Z</time>
      </trkpt>
      <trkpt lat="42.99951" lon="-1.7679">
        <ele>580.999</ele>
        <time>2020-05-16T04:10:59Z</time>
      </trkpt>
      <trkpt lat="42.99951" lon="-1.76798">
        <ele>580.529</ele>
        <time>2020-05-16T04:11:19Z</time>
      </trkpt>
      <trkpt lat="42.99952" lon="-1.76806">
        <ele>581.156</ele>
        <time>2020-05-16T04:11:39Z</time>
      </trkpt>
      <trkpt lat="42.99954" lon="-1.76823">
        <ele>581.088</ele>
        <time>2020-05-16T04:11:59Z</time>
      </trkpt>
      <trkpt lat="42.99956" lon="-1.76839">
        <ele>581.397</ele>
        <time>2020-05-16T04:12:19Z</time>
      </trkpt>
      <trkpt lat="42.99958" lon="-1.76859">
        <ele>581.523</ele>
        <time>2020-05-16T04:12:39Z</time>
      </trkpt>
      <trkpt lat="42.9996" lon="-1.76878">
        <ele>582.025</ele>
        <time>2020-05-16T04:12:59Z</time>
      </trkpt>
      <trkpt lat="42.99963" lon="-1.76919">
        <ele>581.708</ele>
        <time>2020-05-16T04:13:19Z</time>
      </trkpt>
      <trkpt lat="42.99966" lon="-1.7696">
        <ele>581.053</ele>
        <time>2020-05-16T04:13:39Z</time>
      </trkpt>
      <trkpt lat="42.99967" lon="-1.76978">
        <ele>581.558</ele>
        <time>2020-05-16T04:13:59Z</time>
      </trkpt>
      <trkpt lat="42.99967" lon="-1.76996">
        <ele>581.712</ele>
        <time>2020-05-16T04:14:19Z</time>
      </trkpt>
      <trkpt lat="42.99967" lon="-1.77002">
        <ele>581.78</ele>
        <time>2020-05-16T04:14:39Z</time>
      </trkpt>
      <trkpt lat="42.99967" lon="-1.77002">
        <ele>581.395</ele>
        <time>2020-05-16T04:14:59Z</time>
      </trkpt>
      <trkpt lat="42.99966" lon="-1.77008">
        <ele>581.085</ele>
        <time>2020-05-16T04:15:19Z</time>
      </trkpt>
      <trkpt lat="42.99964" lon="-1.7702">
        <ele>581.442</ele>
        <time>2020-05-16T04:15:39Z</time>
      </trkpt>
      <trkpt lat="42.99958" lon="-1.77038">
        <ele>581.284</ele>
        <time>2020-05-16T04:15:59Z</time>
      </trkpt>
      <trkpt lat="42.99952" lon="-1.77055">
        <ele>581.167</ele>
        <time>2020-05-16T04:16:19Z</time>
      </trkpt>
      <trkpt lat="42.99941" lon="-1.77084">
        <ele>581.281</ele>
        <time>2020-05-16T04:16:39Z</time>
      </trkpt>
      <trkpt lat="42.99939" lon="-1.77091">
        <ele>581.119</ele>
        <time>2020-05-16T04:16:59Z</time>
      </trkpt>
      <trkpt lat="42.99925" lon="-1.77127">
        <ele>581.608</ele>
        <time>2020-05-16T04:17:19Z</time>
      </trkpt>
      <trkpt lat="42.99913" lon="-1.77159">
        <ele>582.15</ele>
        <time>2020-05-16T04:17:39Z</time>
      </trkpt>
      <trkpt lat="42.999" lon="-1.7719">
        <ele>582.175</ele>
        <time>2020-05-16T04:17:59Z</time>
      </trkpt>
      <trkpt lat="42.99896" lon="-1.77204">
        <ele>582.039</ele>
        <time>2020-05-16T04:18:19Z</time>
      </trkpt>
      <trkpt lat="42.99891" lon="-1.77218">
        <ele>582.357</ele>
        <time>2020-05-16T04:18:39Z</time>
      </trkpt>
      <trkpt lat="42.99888" lon="-1.7723">
        <ele>581.622</ele>
        <time>2020-05-16T04:18:59Z</time>
      </trkpt>
      <trkpt lat="42.99886" lon="-1.77242">
        <ele>582.012</ele>
        <time>2020-05-16T04:19:19Z</time>
      </trkpt>
      <trkpt lat="42.99882" lon="-1.77267">
        <ele>581.899</ele>
        <time>2020-05-16T04:19:39Z</time>
      </trkpt>
      <trkpt lat="42.99878" lon="-1.77291">
        <ele>582.091</ele>
        <time>2020-05-16T04:19:59Z</time>
      </trkpt>
      <trkpt lat="42.99875" lon="-1.77316">
        <ele>581.981</ele>
        <time>2020-05-16T04:20:19Z</time>
      </trkpt>
      <trkpt lat="42.99874" lon="-1.77319">
        <ele>581.861</ele>
        <time>2020-05-16T04:20:39Z</time>
      </trkpt>
      <trkpt lat="42.9987" lon="-1.77346">
        <ele>582.317</ele>
        <time>2020-05-16T04:20:59Z</time>
      </trkpt>
      <trkpt lat="42.9987" lon="-1.77357">
        <ele>582.808</ele>
        <time>2020-05-16T04:21:19Z</time>
      </trkpt>
      <trkpt lat="42.9987" lon="-1.77369">
        <ele>582.912</ele>
        <time>2020-05-16T04:21:39Z</time>
      </trkpt>
      <trkpt lat="42.9987" lon="-1.77372">
        <ele>582.917</ele>
        <time>2020-05-16T04:21:59Z</time>
      </trkpt>
      <trkpt lat="42.9987" lon="-1.77375">
        <ele>583.011</ele>
        <time>2020-05-16T04:22:19Z</time>
      </trkpt>
      <trkpt lat="42.99867" lon="-1.77377">
        <ele>583.079</ele>
        <time>2020-05-16T04:22:39Z</time>
      </trkpt>
      <trkpt lat="42.99863" lon="-1.77379">
        <ele>583.744</ele>
        <time>2020-05-16T04:22:59Z</time>
      </trkpt>
      <trkpt lat="42.99861" lon="-1.7738">
        <ele>583.784</ele>
        <time>2020-05-16T04:23:19Z</time>
      </trkpt>
      <trkpt lat="42.9986" lon="-1.77381">
        <ele>583.961</ele>
        <time>2020-05-16T04:23:39Z</time>
      </trkpt>
      <trkpt lat="42.9986" lon="-1.77381">
        <ele>583.993</ele>
        <time>2020-05-16T04:23:59Z</time>
      </trkpt>
      <trkpt lat="42.99858" lon="-1.77383">
        <ele>583.946</ele>
        <time>2020-05-16T04:24:19Z</time>
      </trkpt>
      <trkpt lat="42.99855" lon="-1.77387">
        <ele>584.288</ele>
        <time>2020-05-16T04:24:39Z</time>
      </trkpt>
      <trkpt lat="42.99853" lon="-1.7739">
        <ele>584.216</ele>
        <time>2020-05-16T04:24:59Z</time>
      </trkpt>
      <trkpt lat="42.99852" lon="-1.77395">
        <ele>584.708</ele>
        <time>2020-05-16T04:25:19Z</time>
      </trkpt>
      <trkpt lat="42.9985" lon="-1.77399">
        <ele>584.888</ele>
        <time>2020-05-16T04:25:39Z</time>
      </trkpt>
      <trkpt lat="42.9985" lon="-1.77408">
        <ele>584.823</ele>
        <time>2020-05-16T04:25:59Z</time>
      </trkpt>
      <trkpt lat="42.99849" lon="-1.77416">
        <ele>584.777</ele>
        <time>2020-05-16T04:26:19Z</time>
      </trkpt>
      <trkpt lat="42.9985" lon="-1.7742">
        <ele>584.755</ele>
        <time>2020-05-16T04:26:39Z</time>
      </trkpt>
      <trkpt lat="42.9985" lon="-1.77422">
        <ele>584.61</ele>
        <time>2020-05-16T04:26:59Z</time>
      </trkpt>
      <trkpt lat="42.9985" lon="-1.77423">
        <ele>584.61</ele>
        <time>2020-05-16T04:27:19Z</time>
      </trkpt>
      <trkpt lat="42.99853" lon="-1.77435">
        <ele>583.567</ele>
        <time>2020-05-16T04:27:39Z</time>
      </trkpt>
      <trkpt lat="42.99857" lon="-1.77444">
        <ele>583.439</ele>
        <time>2020-05-16T04:27:59Z</time>
      </trkpt>
      <trkpt lat="42.99859" lon="-1.77451">
        <ele>583.148</ele>
        <time>2020-05-16T04:28:19Z</time>
      </trkpt>
      <trkpt lat="42.99858" lon="-1.77451">
        <ele>583.161</ele>
        <time>2020-05-16T04:28:39Z</time>
      </trkpt>
      <trkpt lat="42.99854" lon="-1.77452">
        <ele>583.217</ele>
        <time>2020-05-16T04:28:59Z</time>
      </trkpt>
      <trkpt lat="42.99851" lon="-1.77452">
        <ele>583.108</ele>
        <time>2020-05-16T04:29:19Z</time>
      </trkpt>
      <trkpt lat="42.99847" lon="-1.77453">
        <ele>583.398</ele>
        <time>2020-05-16T04:29:39Z</time>
      </trkpt>
      <trkpt lat="42.99844" lon="-1.77453">
        <ele>583.493</ele>
        <time>2020-05-16T04:29:59Z</time>
      </trkpt>
      <trkpt lat="42.9984" lon="-1.77453">
        <ele>583.467</ele>
        <time>2020-05-16T04:30:19Z</time>
      </trkpt>
      <trkpt lat="42.99836" lon="-1.77453">
        <ele>583.555</ele>
        <time>2020-05-16T04:30:39Z</time>
      </trkpt>
      <trkpt lat="42.99833" lon="-1.77453">
        <ele>583.98</ele>
        <time>2020-05-16T04:30:59Z</time>
      </trkpt>
      <trkpt lat="42.99829" lon="-1.77452">
        <ele>585.86</ele>
        <time>2020-05-16T04:31:19Z</time>
      </trkpt>
      <trkpt lat="42.99826" lon="-1.77451">
        <ele>585.127</ele>
        <time>2020-05-16T04:31:39Z</time>
      </trkpt>
      <trkpt lat="42.99822" lon="-1.77451">
        <ele>585.199</ele>
        <time>2020-05-16T04:31:59Z</time>
      </trkpt>
      <trkpt lat="42.99815" lon="-1.77461">
        <ele>585.654</ele>
        <time>2020-05-16T04:32:19Z</time>
      </trkpt>
      <trkpt lat="42.99815" lon="-1.77492">
        <ele>584.456</ele>
        <time>2020-05-16T04:32:39Z</time>
      </trkpt>
      <trkpt lat="42.9981" lon="-1.77538">
        <ele>584.211</ele>
        <time>2020-05-16T04:32:59Z</time>
      </trkpt>
      <trkpt lat="42.99799" lon="-1.77587">
        <ele>582.808</ele>
        <time>2020-05-16T04:33:19Z</time>
      </trkpt>
      <trkpt lat="42.99797" lon="-1.77601">
        <ele>582.639</ele>
        <time>2020-05-16T04:33:39Z</time>
      </trkpt>
      <trkpt lat="42.99795" lon="-1.77624">
        <ele>582.194</ele>
        <time>2020-05-16T04:33:59Z</time>
      </trkpt>
      <trkpt lat="42.99794" lon="-1.77647">
        <ele>581.958</ele>
        <time>2020-05-16T04:34:19Z</time>
      </trkpt>
      <trkpt lat="42.99775" lon="-1.77739">
        <ele>581.356</ele>
        <time>2020-05-16T04:34:39Z</time>
      </trkpt>
      <trkpt lat="42.99774" lon="-1.77756">
        <ele>580.481</ele>
        <time>2020-05-16T04:34:59Z</time>
      </trkpt>
      <trkpt lat="42.99773" lon="-1.77775">
        <ele>579.841</ele>
        <time>2020-05-16T04:35:19Z</time>
      </trkpt>
      <trkpt lat="42.99769" lon="-1.77795">
        <ele>579.718</ele>
        <time>2020-05-16T04:35:39Z</time>
      </trkpt>
      <trkpt lat="42.99766" lon="-1.77814">
        <ele>579.91</ele>
        <time>2020-05-16T04:35:59Z</time>
      </trkpt>
      <trkpt lat="42.99766" lon="-1.77824">
        <ele>580.041</ele>
        <time>2020-05-16T04:36:19Z</time>
      </trkpt>
      <trkpt lat="42.99766" lon="-1.77833">
        <ele>580.181</ele>
        <time>2020-05-16T04:36:39Z</time>
      </trkpt>
      <trkpt lat="42.99771" lon="-1.77882">
        <ele>580.809</ele>
        <time>2020-05-16T04:36:59Z</time>
      </trkpt>
      <trkpt lat="42.99771" lon="-1.779">
        <ele>581.308</ele>
        <time>2020-05-16T04:37:19Z</time>
      </trkpt>
      <trkpt lat="42.9977" lon="-1.77923">
        <ele>581.518</ele>
        <time>2020-05-16T04:37:39Z</time>
      </trkpt>
      <trkpt lat="42.99768" lon="-1.77946">
        <ele>581.693</ele>
        <time>2020-05-16T04:37:59Z</time>
      </trkpt>
      <trkpt lat="42.99763" lon="-1.77988">
        <ele>581.787</ele>
        <time>2020-05-16T04:38:19Z</time>
      </trkpt>
      <trkpt lat="42.99763" lon="-1.77993">
        <ele>581.785</ele>
        <time>2020-05-16T04:38:39Z</time>
      </trkpt>
      <trkpt lat="42.99764" lon="-1.77997">
        <ele>581.52</ele>
        <time>2020-05-16T04:38:59Z</time>
      </trkpt>
      <trkpt lat="42.99765" lon="-1.78004">
        <ele>581.12</ele>
        <time>2020-05-16T04:39:19Z</time>
      </trkpt>
      <trkpt lat="42.9977" lon="-1.78023">
        <ele>579.237</ele>
        <time>2020-05-16T04:39:39Z</time>
      </trkpt>
      <trkpt lat="42.99775" lon="-1.7804">
        <ele>578.469</ele>
        <time>2020-05-16T04:39:59Z</time>
      </trkpt>
      <trkpt lat="42.99781" lon="-1.78058">
        <ele>577.244</ele>
        <time>2020-05-16T04:40:19Z</time>
      </trkpt>
      <trkpt lat="42.99787" lon="-1.78075">
        <ele>576.205</ele>
        <time>2020-05-16T04:40:39Z</time>
      </trkpt>
      <trkpt lat="42.99791" lon="-1.78089">
        <ele>575.415</ele>
        <time>2020-05-16T04:40:59Z</time>
      </trkpt>
      <trkpt lat="42.99799" lon="-1.78127">
        <ele>573.508</ele>
        <time>2020-05-16T04:41:19Z</time>
      </trkpt>
      <trkpt lat="42.99804" lon="-1.78137">
        <ele>573.038</ele>
        <time>2020-05-16T04:41:39Z</time>
      </trkpt>
      <trkpt lat="42.99815" lon="-1.78153">
        <ele>572.153</ele>
        <time>2020-05-16T04:41:59Z</time>
      </trkpt>
      <trkpt lat="42.99821" lon="-1.78165">
        <ele>571.047</ele>
        <time>2020-05-16T04:42:19Z</time>
      </trkpt>
      <trkpt lat="42.99828" lon="-1.78182">
        <ele>570.445</ele>
        <time>2020-05-16T04:42:39Z</time>
      </trkpt>
      <trkpt lat="42.99834" lon="-1.78205">
        <ele>569.06</ele>
        <time>2020-05-16T04:42:59Z</time>
      </trkpt>
      <trkpt lat="42.99836" lon="-1.78219">
        <ele>568.42</ele>
        <time>2020-05-16T04:43:19Z</time>
      </trkpt>
      <trkpt lat="42.99836" lon="-1.78224">
        <ele>568.037</ele>
        <time>2020-05-16T04:43:39Z</time>
      </trkpt>
      <trkpt lat="42.99828" lon="-1.78273">
        <ele>567.169</ele>
        <time>2020-05-16T04:43:59Z</time>
      </trkpt>
      <trkpt lat="42.99828" lon="-1.78277">
        <ele>566.913</ele>
        <time>2020-05-16T04:44:19Z</time>
      </trkpt>
      <trkpt lat="42.99827" lon="-1.78281">
        <ele>566.543</ele>
        <time>2020-05-16T04:44:39Z</time>
      </trkpt>
      <trkpt lat="42.99829" lon="-1.78289">
        <ele>566.407</ele>
        <time>2020-05-16T04:44:59Z</time>
      </trkpt>
      <trkpt lat="42.9983" lon="-1.78297">
        <ele>566.208</ele>
        <time>2020-05-16T04:45:19Z</time>
      </trkpt>
      <trkpt lat="42.99834" lon="-1.78311">
        <ele>565.545</ele>
        <time>2020-05-16T04:45:39Z</time>
      </trkpt>
      <trkpt lat="42.99837" lon="-1.78326">
        <ele>565.28</ele>
        <time>2020-05-16T04:45:59Z</time>
      </trkpt>
      <trkpt lat="42.99838" lon="-1.78329">
        <ele>565.234</ele>
        <time>2020-05-16T04:46:19Z</time>
      </trkpt>
      <trkpt lat="42.9984" lon="-1.78332">
        <ele>565.122</ele>
        <time>2020-05-16T04:46:39Z</time>
      </trkpt>
      <trkpt lat="42.9985" lon="-1.78352">
        <ele>564.367</ele>
        <time>2020-05-16T04:46:59Z</time>
      </trkpt>
      <trkpt lat="42.9986" lon="-1.78377">
        <ele>564.087</ele>
        <time>2020-05-16T04:47:19Z</time>
      </trkpt>
      <trkpt lat="42.99878" lon="-1.78411">
        <ele>562.214</ele>
        <time>2020-05-16T04:47:39Z</time>
      </trkpt>
      <trkpt lat="42.99879" lon="-1.78412">
        <ele>562.296</ele>
        <time>2020-05-16T04:47:59Z</time>
      </trkpt>
      <trkpt lat="42.99881" lon="-1.78422">
        <ele>562.179</ele>
        <time>2020-05-16T04:48:19Z</time>
      </trkpt>
      <trkpt lat="42.99883" lon="-1.78431">
        <ele>561.305</ele>
        <time>2020-05-16T04:48:39Z</time>
      </trkpt>
      <trkpt lat="42.99886" lon="-1.78442">
        <ele>562.925</ele>
        <time>2020-05-16T04:48:59Z</time>
      </trkpt>
      <trkpt lat="42.99888" lon="-1.78445">
        <ele>563.208</ele>
        <time>2020-05-16T04:49:19Z</time>
      </trkpt>
      <trkpt lat="42.99889" lon="-1.78447">
        <ele>563.291</ele>
        <time>2020-05-16T04:49:39Z</time>
      </trkpt>
      <trkpt lat="42.99891" lon="-1.78449">
        <ele>562.876</ele>
        <time>2020-05-16T04:49:59Z</time>
      </trkpt>
      <trkpt lat="42.99899" lon="-1.78455">
        <ele>563.61</ele>
        <time>2020-05-16T04:50:19Z</time>
      </trkpt>
      <trkpt lat="42.99907" lon="-1.78461">
        <ele>565.078</ele>
        <time>2020-05-16T04:50:39Z</time>
      </trkpt>
      <trkpt lat="42.99922" lon="-1.78473">
        <ele>566.553</ele>
        <time>2020-05-16T04:50:59Z</time>
      </trkpt>
      <trkpt lat="42.99923" lon="-1.78474">
        <ele>566.883</ele>
        <time>2020-05-16T04:51:19Z</time>
      </trkpt>
      <trkpt lat="42.99924" lon="-1.78476">
        <ele>567.03</ele>
        <time>2020-05-16T04:51:39Z</time>
      </trkpt>
      <trkpt lat="42.99928" lon="-1.78495">
        <ele>568.422</ele>
        <time>2020-05-16T04:51:59Z</time>
      </trkpt>
      <trkpt lat="42.99932" lon="-1.78513">
        <ele>569.025</ele>
        <time>2020-05-16T04:52:19Z</time>
      </trkpt>
      <trkpt lat="42.9994" lon="-1.78551">
        <ele>570.226</ele>
        <time>2020-05-16T04:52:39Z</time>
      </trkpt>
      <trkpt lat="42.99947" lon="-1.7859">
        <ele>571.108</ele>
        <time>2020-05-16T04:52:59Z</time>
      </trkpt>
      <trkpt lat="42.99954" lon="-1.78622">
        <ele>571.308</ele>
        <time>2020-05-16T04:53:19Z</time>
      </trkpt>
      <trkpt lat="42.99956" lon="-1.78633">
        <ele>570.656</ele>
        <time>2020-05-16T04:53:39Z</time>
      </trkpt>
      <trkpt lat="42.99956" lon="-1.78634">
        <ele>570.581</ele>
        <time>2020-05-16T04:53:59Z</time>
      </trkpt>
      <trkpt lat="42.99956" lon="-1.78636">
        <ele>570.595</ele>
        <time>2020-05-16T04:54:19Z</time>
      </trkpt>
      <trkpt lat="42.99956" lon="-1.78638">
        <ele>570.583</ele>
        <time>2020-05-16T04:54:39Z</time>
      </trkpt>
      <trkpt lat="42.99956" lon="-1.78661">
        <ele>569.968</ele>
        <time>2020-05-16T04:54:59Z</time>
      </trkpt>
      <trkpt lat="42.99955" lon="-1.78682">
        <ele>568.928</ele>
        <time>2020-05-16T04:55:19Z</time>
      </trkpt>
      <trkpt lat="42.99952" lon="-1.78755">
        <ele>565.625</ele>
        <time>2020-05-16T04:55:39Z</time>
      </trkpt>
      <trkpt lat="42.99952" lon="-1.78759">
        <ele>565.317</ele>
        <time>2020-05-16T04:55:59Z</time>
      </trkpt>
      <trkpt lat="42.99953" lon="-1.78762">
        <ele>565.388</ele>
        <time>2020-05-16T04:56:19Z</time>
      </trkpt>
      <trkpt lat="42.99955" lon="-1.78766">
        <ele>564.924</ele>
        <time>2020-05-16T04:56:39Z</time>
      </trkpt>
      <trkpt lat="42.99957" lon="-1.7877">
        <ele>564.726</ele>
        <time>2020-05-16T04:56:59Z</time>
      </trkpt>
      <trkpt lat="42.99973" lon="-1.78795">
        <ele>562.608</ele>
        <time>2020-05-16T04:57:19Z</time>
      </trkpt>
      <trkpt lat="42.99975" lon="-1.788">
        <ele>561.632</ele>
        <time>2020-05-16T04:57:39Z</time>
      </trkpt>
      <trkpt lat="42.99975" lon="-1.78803">
        <ele>561.617</ele>
        <time>2020-05-16T04:57:59Z</time>
      </trkpt>
      <trkpt lat="42.99976" lon="-1.78806">
        <ele>562.381</ele>
        <time>2020-05-16T04:58:19Z</time>
      </trkpt>
      <trkpt lat="42.99978" lon="-1.78845">
        <ele>558.929</ele>
        <time>2020-05-16T04:58:39Z</time>
      </trkpt>
      <trkpt lat="42.99981" lon="-1.78883">
        <ele>555.114</ele>
        <time>2020-05-16T04:58:59Z</time>
      </trkpt>
      <trkpt lat="42.99985" lon="-1.78957">
        <ele>549.814</ele>
        <time>2020-05-16T04:59:19Z</time>
      </trkpt>
      <trkpt lat="42.99989" lon="-1.78984">
        <ele>548.751</ele>
        <time>2020-05-16T04:59:39Z</time>
      </trkpt>
      <trkpt lat="42.99989" lon="-1.78989">
        <ele>548.013</ele>
        <time>2020-05-16T04:59:59Z</time>
      </trkpt>
      <trkpt lat="42.99989" lon="-1.78996">
        <ele>546.997</ele>
        <time>2020-05-16T05:00:19Z</time>
      </trkpt>
      <trkpt lat="42.99988" lon="-1.78998">
        <ele>546.923</ele>
        <time>2020-05-16T05:00:39Z</time>
      </trkpt>
      <trkpt lat="42.99988" lon="-1.79">
        <ele>546.925</ele>
        <time>2020-05-16T05:00:59Z</time>
      </trkpt>
      <trkpt lat="42.99984" lon="-1.79003">
        <ele>546.608</ele>
        <time>2020-05-16T05:01:19Z</time>
      </trkpt>
      <trkpt lat="42.99981" lon="-1.79006">
        <ele>547.393</ele>
        <time>2020-05-16T05:01:39Z</time>
      </trkpt>
      <trkpt lat="42.9997" lon="-1.79017">
        <ele>548.198</ele>
        <time>2020-05-16T05:01:59Z</time>
      </trkpt>
      <trkpt lat="42.99964" lon="-1.79027">
        <ele>548.622</ele>
        <time>2020-05-16T05:02:19Z</time>
      </trkpt>
      <trkpt lat="42.99955" lon="-1.79047">
        <ele>548.31</ele>
        <time>2020-05-16T05:02:39Z</time>
      </trkpt>
      <trkpt lat="42.99952" lon="-1.79055">
        <ele>548.365</ele>
        <time>2020-05-16T05:02:59Z</time>
      </trkpt>
      <trkpt lat="42.99948" lon="-1.79064">
        <ele>548.165</ele>
        <time>2020-05-16T05:03:19Z</time>
      </trkpt>
      <trkpt lat="42.99942" lon="-1.79084">
        <ele>547.592</ele>
        <time>2020-05-16T05:03:39Z</time>
      </trkpt>
      <trkpt lat="42.99942" lon="-1.79087">
        <ele>547.514</ele>
        <time>2020-05-16T05:03:59Z</time>
      </trkpt>
      <trkpt lat="42.99941" lon="-1.7909">
        <ele>547.184</ele>
        <time>2020-05-16T05:04:19Z</time>
      </trkpt>
      <trkpt lat="42.99941" lon="-1.79097">
        <ele>547.007</ele>
        <time>2020-05-16T05:04:39Z</time>
      </trkpt>
      <trkpt lat="42.99941" lon="-1.79104">
        <ele>546.917</ele>
        <time>2020-05-16T05:04:59Z</time>
      </trkpt>
      <trkpt lat="42.99941" lon="-1.79111">
        <ele>546.908</ele>
        <time>2020-05-16T05:05:19Z</time>
      </trkpt>
      <trkpt lat="42.99942" lon="-1.79136">
        <ele>546.832</ele>
        <time>2020-05-16T05:05:39Z</time>
      </trkpt>
      <trkpt lat="42.99947" lon="-1.79164">
        <ele>546.157</ele>
        <time>2020-05-16T05:05:59Z</time>
      </trkpt>
      <trkpt lat="42.9995" lon="-1.79176">
        <ele>545.771</ele>
        <time>2020-05-16T05:06:19Z</time>
      </trkpt>
      <trkpt lat="42.99952" lon="-1.79187">
        <ele>545.769</ele>
        <time>2020-05-16T05:06:39Z</time>
      </trkpt>
      <trkpt lat="42.99956" lon="-1.79195">
        <ele>545.674</ele>
        <time>2020-05-16T05:06:59Z</time>
      </trkpt>
      <trkpt lat="42.99959" lon="-1.79203">
        <ele>545.724</ele>
        <time>2020-05-16T05:07:19Z</time>
      </trkpt>
      <trkpt lat="42.9996" lon="-1.79208">
        <ele>545.241</ele>
        <time>2020-05-16T05:07:39Z</time>
      </trkpt>
      <trkpt lat="42.99962" lon="-1.79213">
        <ele>545.193</ele>
        <time>2020-05-16T05:07:59Z</time>
      </trkpt>
      <trkpt lat="42.99964" lon="-1.79223">
        <ele>544.534</ele>
        <time>2020-05-16T05:08:19Z</time>
      </trkpt>
      <trkpt lat="42.99967" lon="-1.79233">
        <ele>544.255</ele>
        <time>2020-05-16T05:08:39Z</time>
      </trkpt>
      <trkpt lat="42.99971" lon="-1.79255">
        <ele>542.91</ele>
        <time>2020-05-16T05:08:59Z</time>
      </trkpt>
      <trkpt lat="42.99974" lon="-1.7927">
        <ele>541.508</ele>
        <time>2020-05-16T05:09:19Z</time>
      </trkpt>
      <trkpt lat="42.99981" lon="-1.79288">
        <ele>541.017</ele>
        <time>2020-05-16T05:09:39Z</time>
      </trkpt>
      <trkpt lat="42.99983" lon="-1.793">
        <ele>540.722</ele>
        <time>2020-05-16T05:09:59Z</time>
      </trkpt>
      <trkpt lat="42.99978" lon="-1.7932">
        <ele>540.546</ele>
        <time>2020-05-16T05:10:19Z</time>
      </trkpt>
      <trkpt lat="42.99973" lon="-1.79333">
        <ele>540.424</ele>
        <time>2020-05-16T05:10:39Z</time>
      </trkpt>
      <trkpt lat="42.99968" lon="-1.79362">
        <ele>540.029</ele>
        <time>2020-05-16T05:10:59Z</time>
      </trkpt>
      <trkpt lat="42.99973" lon="-1.79385">
        <ele>539.619</ele>
        <time>2020-05-16T05:11:19Z</time>
      </trkpt>
      <trkpt lat="42.99977" lon="-1.79401">
        <ele>539.616</ele>
        <time>2020-05-16T05:11:39Z</time>
      </trkpt>
      <trkpt lat="42.99974" lon="-1.7942">
        <ele>538.658</ele>
        <time>2020-05-16T05:11:59Z</time>
      </trkpt>
      <trkpt lat="42.9997" lon="-1.79434">
        <ele>538.668</ele>
        <time>2020-05-16T05:12:19Z</time>
      </trkpt>
      <trkpt lat="42.99966" lon="-1.79459">
        <ele>535.542</ele>
        <time>2020-05-16T05:12:39Z</time>
      </trkpt>
      <trkpt lat="42.99968" lon="-1.79482">
        <ele>536.826</ele>
        <time>2020-05-16T05:12:59Z</time>
      </trkpt>
      <trkpt lat="42.99969" lon="-1.79502">
        <ele>537.108</ele>
        <time>2020-05-16T05:13:19Z</time>
      </trkpt>
      <trkpt lat="42.99977" lon="-1.79517">
        <ele>537.29</ele>
        <time>2020-05-16T05:13:39Z</time>
      </trkpt>
      <trkpt lat="42.99984" lon="-1.79532">
        <ele>538.155</ele>
        <time>2020-05-16T05:13:59Z</time>
      </trkpt>
      <trkpt lat="42.99992" lon="-1.79546">
        <ele>538.849</ele>
        <time>2020-05-16T05:14:19Z</time>
      </trkpt>
      <trkpt lat="42.99999" lon="-1.79572">
        <ele>539.327</ele>
        <time>2020-05-16T05:14:39Z</time>
      </trkpt>
      <trkpt lat="43.00001" lon="-1.79593">
        <ele>542.682</ele>
        <time>2020-05-16T05:14:59Z</time>
      </trkpt>
      <trkpt lat="43.00001" lon="-1.79619">
        <ele>544.132</ele>
        <time>2020-05-16T05:15:19Z</time>
      </trkpt>
      <trkpt lat="42.99999" lon="-1.79641">
        <ele>544.099</ele>
        <time>2020-05-16T05:15:39Z</time>
      </trkpt>
      <trkpt lat="43.00004" lon="-1.79651">
        <ele>542.541</ele>
        <time>2020-05-16T05:15:59Z</time>
      </trkpt>
      <trkpt lat="43.00005" lon="-1.79654">
        <ele>542.575</ele>
        <time>2020-05-16T05:16:19Z</time>
      </trkpt>
      <trkpt lat="43.00009" lon="-1.79666">
        <ele>542.828</ele>
        <time>2020-05-16T05:16:39Z</time>
      </trkpt>
      <trkpt lat="43.00009" lon="-1.79676">
        <ele>542.32</ele>
        <time>2020-05-16T05:16:59Z</time>
      </trkpt>
      <trkpt lat="43.00005" lon="-1.797">
        <ele>540.908</ele>
        <time>2020-05-16T05:17:19Z</time>
      </trkpt>
      <trkpt lat="43.00004" lon="-1.79704">
        <ele>540.951</ele>
        <time>2020-05-16T05:17:39Z</time>
      </trkpt>
      <trkpt lat="43.00002" lon="-1.79713">
        <ele>542.896</ele>
        <time>2020-05-16T05:17:59Z</time>
      </trkpt>
      <trkpt lat="43.00004" lon="-1.79724">
        <ele>542.97</ele>
        <time>2020-05-16T05:18:19Z</time>
      </trkpt>
      <trkpt lat="43.00005" lon="-1.7973">
        <ele>542.548</ele>
        <time>2020-05-16T05:18:39Z</time>
      </trkpt>
      <trkpt lat="43.00009" lon="-1.79753">
        <ele>543.033</ele>
        <time>2020-05-16T05:18:59Z</time>
      </trkpt>
      <trkpt lat="43.0001" lon="-1.79773">
        <ele>543.193</ele>
        <time>2020-05-16T05:19:19Z</time>
      </trkpt>
      <trkpt lat="43.00004" lon="-1.79794">
        <ele>542.71</ele>
        <time>2020-05-16T05:19:39Z</time>
      </trkpt>
      <trkpt lat="43.00004" lon="-1.79795">
        <ele>542.732</ele>
        <time>2020-05-16T05:19:59Z</time>
      </trkpt>
      <trkpt lat="43.00002" lon="-1.79806">
        <ele>542.029</ele>
        <time>2020-05-16T05:20:19Z</time>
      </trkpt>
      <trkpt lat="43.00003" lon="-1.7982">
        <ele>541.8</ele>
        <time>2020-05-16T05:20:39Z</time>
      </trkpt>
      <trkpt lat="43.00004" lon="-1.79822">
        <ele>541.82</ele>
        <time>2020-05-16T05:20:59Z</time>
      </trkpt>
      <trkpt lat="43.00014" lon="-1.7984">
        <ele>542.608</ele>
        <time>2020-05-16T05:21:19Z</time>
      </trkpt>
      <trkpt lat="43.00028" lon="-1.7986">
        <ele>542.636</ele>
        <time>2020-05-16T05:21:39Z</time>
      </trkpt>
      <trkpt lat="43.00063" lon="-1.79896">
        <ele>543.921</ele>
        <time>2020-05-16T05:21:59Z</time>
      </trkpt>
      <trkpt lat="43.00109" lon="-1.79936">
        <ele>545.945</ele>
        <time>2020-05-16T05:22:19Z</time>
      </trkpt>
      <trkpt lat="43.00104" lon="-1.7995">
        <ele>545.933</ele>
        <time>2020-05-16T05:22:39Z</time>
      </trkpt>
      <trkpt lat="43.00098" lon="-1.7997">
        <ele>546.078</ele>
        <time>2020-05-16T05:22:59Z</time>
      </trkpt>
      <trkpt lat="43.00092" lon="-1.7999">
        <ele>546.038</ele>
        <time>2020-05-16T05:23:19Z</time>
      </trkpt>
      <trkpt lat="43.00086" lon="-1.80008">
        <ele>545.995</ele>
        <time>2020-05-16T05:23:39Z</time>
      </trkpt>
      <trkpt lat="43.0008" lon="-1.80025">
        <ele>546.067</ele>
        <time>2020-05-16T05:23:59Z</time>
      </trkpt>
      <trkpt lat="43.00075" lon="-1.80041">
        <ele>546.089</ele>
        <time>2020-05-16T05:24:19Z</time>
      </trkpt>
      <trkpt lat="43.00064" lon="-1.80073">
        <ele>545.906</ele>
        <time>2020-05-16T05:24:39Z</time>
      </trkpt>
      <trkpt lat="43.00056" lon="-1.80096">
        <ele>545.526</ele>
        <time>2020-05-16T05:24:59Z</time>
      </trkpt>
      <trkpt lat="43.00053" lon="-1.80104">
        <ele>545.408</ele>
        <time>2020-05-16T05:25:19Z</time>
      </trkpt>
      <trkpt lat="43.00052" lon="-1.80109">
        <ele>545.442</ele>
        <time>2020-05-16T05:25:39Z</time>
      </trkpt>
      <trkpt lat="43.00051" lon="-1.80112">
        <ele>545.427</ele>
        <time>2020-05-16T05:25:59Z</time>
      </trkpt>
      <trkpt lat="43.00049" lon="-1.8012">
        <ele>545.541</ele>
        <time>2020-05-16T05:26:19Z</time>
      </trkpt>
      <trkpt lat="43.00045" lon="-1.80129">
        <ele>545.459</ele>
        <time>2020-05-16T05:26:39Z</time>
      </trkpt>
      <trkpt lat="43.00042" lon="-1.80137">
        <ele>545.024</ele>
        <time>2020-05-16T05:26:59Z</time>
      </trkpt>
      <trkpt lat="43.00039" lon="-1.80143">
        <ele>545.084</ele>
        <time>2020-05-16T05:27:19Z</time>
      </trkpt>
      <trkpt lat="43.00034" lon="-1.80153">
        <ele>544.911</ele>
        <time>2020-05-16T05:27:39Z</time>
      </trkpt>
      <trkpt lat="43.0003" lon="-1.8016">
        <ele>544.953</ele>
        <time>2020-05-16T05:27:59Z</time>
      </trkpt>
      <trkpt lat="43.00028" lon="-1.80165">
        <ele>544.869</ele>
        <time>2020-05-16T05:28:19Z</time>
      </trkpt>
      <trkpt lat="43.00024" lon="-1.80171">
        <ele>544.704</ele>
        <time>2020-05-16T05:28:39Z</time>
      </trkpt>
      <trkpt lat="43.00021" lon="-1.80175">
        <ele>544.624</ele>
        <time>2020-05-16T05:28:59Z</time>
      </trkpt>
      <trkpt lat="43.00019" lon="-1.80178">
        <ele>544.608</ele>
        <time>2020-05-16T05:29:19Z</time>
      </trkpt>
      <trkpt lat="43.00017" lon="-1.8018">
        <ele>543.52</ele>
        <time>2020-05-16T05:29:39Z</time>
      </trkpt>
      <trkpt lat="43.00012" lon="-1.80185">
        <ele>544.775</ele>
        <time>2020-05-16T05:29:59Z</time>
      </trkpt>
      <trkpt lat="43.0001" lon="-1.80186">
        <ele>544.729</ele>
        <time>2020-05-16T05:30:19Z</time>
      </trkpt>
      <trkpt lat="43.00006" lon="-1.8019">
        <ele>544.587</ele>
        <time>2020-05-16T05:30:39Z</time>
      </trkpt>
      <trkpt lat="43.00004" lon="-1.80191">
        <ele>544.772</ele>
        <time>2020-05-16T05:30:59Z</time>
      </trkpt>
      <trkpt lat="43.00004" lon="-1.80191">
        <ele>544.772</ele>
        <time>2020-05-16T05:31:19Z</time>
      </trkpt>
      <trkpt lat="42.99995" lon="-1.80197">
        <ele>544.529</ele>
        <time>2020-05-16T05:31:39Z</time>
      </trkpt>
      <trkpt lat="42.99991" lon="-1.80201">
        <ele>544.841</ele>
        <time>2020-05-16T05:31:59Z</time>
      </trkpt>
      <trkpt lat="42.99983" lon="-1.80206">
        <ele>544.711</ele>
        <time>2020-05-16T05:32:19Z</time>
      </trkpt>
      <trkpt lat="42.9996" lon="-1.80221">
        <ele>544.721</ele>
        <time>2020-05-16T05:32:39Z</time>
      </trkpt>
      <trkpt lat="42.99952" lon="-1.80227">
        <ele>544.903</ele>
        <time>2020-05-16T05:32:59Z</time>
      </trkpt>
      <trkpt lat="42.99943" lon="-1.80233">
        <ele>545.008</ele>
        <time>2020-05-16T05:33:19Z</time>
      </trkpt>
      <trkpt lat="42.99936" lon="-1.80238">
        <ele>545.015</ele>
        <time>2020-05-16T05:33:39Z</time>
      </trkpt>
      <trkpt lat="42.99918" lon="-1.80251">
        <ele>545.34</ele>
        <time>2020-05-16T05:33:59Z</time>
      </trkpt>
      <trkpt lat="42.999" lon="-1.80263">
        <ele>545.684</ele>
        <time>2020-05-16T05:34:19Z</time>
      </trkpt>
      <trkpt lat="42.99889" lon="-1.80271">
        <ele>545.772</ele>
        <time>2020-05-16T05:34:39Z</time>
      </trkpt>
      <trkpt lat="42.99855" lon="-1.80294">
        <ele>546.297</ele>
        <time>2020-05-16T05:34:59Z</time>
      </trkpt>
      <trkpt lat="42.99826" lon="-1.80314">
        <ele>546.727</ele>
        <time>2020-05-16T05:35:19Z</time>
      </trkpt>
      <trkpt lat="42.99819" lon="-1.80319">
        <ele>546.734</ele>
        <time>2020-05-16T05:35:39Z</time>
      </trkpt>
      <trkpt lat="42.99814" lon="-1.80322">
        <ele>546.756</ele>
        <time>2020-05-16T05:35:59Z</time>
      </trkpt>
      <trkpt lat="42.99801" lon="-1.80331">
        <ele>546.796</ele>
        <time>2020-05-16T05:36:19Z</time>
      </trkpt>
      <trkpt lat="42.99791" lon="-1.80338">
        <ele>546.831</ele>
        <time>2020-05-16T05:36:39Z</time>
      </trkpt>
      <trkpt lat="42.99787" lon="-1.80341">
        <ele>546.724</ele>
        <time>2020-05-16T05:36:59Z</time>
      </trkpt>
      <trkpt lat="42.9975" lon="-1.80366">
        <ele>546.708</ele>
        <time>2020-05-16T05:37:19Z</time>
      </trkpt>
      <trkpt lat="42.9974" lon="-1.80373">
        <ele>546.543</ele>
        <time>2020-05-16T05:37:39Z</time>
      </trkpt>
      <trkpt lat="42.99713" lon="-1.80391">
        <ele>546.048</ele>
        <time>2020-05-16T05:37:59Z</time>
      </trkpt>
      <trkpt lat="42.99705" lon="-1.80397">
        <ele>545.832</ele>
        <time>2020-05-16T05:38:19Z</time>
      </trkpt>
      <trkpt lat="42.997" lon="-1.80401">
        <ele>545.61</ele>
        <time>2020-05-16T05:38:39Z</time>
      </trkpt>
      <trkpt lat="42.99696" lon="-1.80404">
        <ele>545.755</ele>
        <time>2020-05-16T05:38:59Z</time>
      </trkpt>
      <trkpt lat="42.99688" lon="-1.80412">
        <ele>545.415</ele>
        <time>2020-05-16T05:39:19Z</time>
      </trkpt>
      <trkpt lat="42.99679" lon="-1.80421">
        <ele>545.312</ele>
        <time>2020-05-16T05:39:39Z</time>
      </trkpt>
      <trkpt lat="42.99677" lon="-1.80425">
        <ele>545.244</ele>
        <time>2020-05-16T05:39:59Z</time>
      </trkpt>
      <trkpt lat="42.99675" lon="-1.80428">
        <ele>545.211</ele>
        <time>2020-05-16T05:40:19Z</time>
      </trkpt>
      <trkpt lat="42.9967" lon="-1.80439">
        <ele>545.021</ele>
        <time>2020-05-16T05:40:39Z</time>
      </trkpt>
      <trkpt lat="42.99665" lon="-1.80449">
        <ele>544.703</ele>
        <time>2020-05-16T05:40:59Z</time>
      </trkpt>
      <trkpt lat="42.9965" lon="-1.80486">
        <ele>543.908</ele>
        <time>2020-05-16T05:41:19Z</time>
      </trkpt>
      <trkpt lat="42.99638" lon="-1.80516">
        <ele>543.425</ele>
        <time>2020-05-16T05:41:39Z</time>
      </trkpt>
      <trkpt lat="42.99635" lon="-1.80523">
        <ele>543.27</ele>
        <time>2020-05-16T05:41:59Z</time>
      </trkpt>
      <trkpt lat="42.99611" lon="-1.80578">
        <ele>541.394</ele>
        <time>2020-05-16T05:42:19Z</time>
      </trkpt>
      <trkpt lat="42.99587" lon="-1.80633">
        <ele>539.852</ele>
        <time>2020-05-16T05:42:39Z</time>
      </trkpt>
      <trkpt lat="42.9958" lon="-1.80648">
        <ele>538.967</ele>
        <time>2020-05-16T05:42:59Z</time>
      </trkpt>
      <trkpt lat="42.99573" lon="-1.80664">
        <ele>538.727</ele>
        <time>2020-05-16T05:43:19Z</time>
      </trkpt>
      <trkpt lat="42.99567" lon="-1.80676">
        <ele>538.214</ele>
        <time>2020-05-16T05:43:39Z</time>
      </trkpt>
      <trkpt lat="42.9956" lon="-1.80689">
        <ele>537.666</ele>
        <time>2020-05-16T05:43:59Z</time>
      </trkpt>
      <trkpt lat="42.99555" lon="-1.80698">
        <ele>537.288</ele>
        <time>2020-05-16T05:44:19Z</time>
      </trkpt>
      <trkpt lat="42.99549" lon="-1.80708">
        <ele>536.724</ele>
        <time>2020-05-16T05:44:39Z</time>
      </trkpt>
      <trkpt lat="42.99541" lon="-1.8072">
        <ele>535.926</ele>
        <time>2020-05-16T05:44:59Z</time>
      </trkpt>
      <trkpt lat="42.99532" lon="-1.80732">
        <ele>535.608</ele>
        <time>2020-05-16T05:45:19Z</time>
      </trkpt>
      <trkpt lat="42.99523" lon="-1.80746">
        <ele>534.772</ele>
        <time>2020-05-16T05:45:39Z</time>
      </trkpt>
      <trkpt lat="42.99513" lon="-1.80761">
        <ele>534.377</ele>
        <time>2020-05-16T05:45:59Z</time>
      </trkpt>
      <trkpt lat="42.99509" lon="-1.80769">
        <ele>533.981</ele>
        <time>2020-05-16T05:46:19Z</time>
      </trkpt>
      <trkpt lat="42.99505" lon="-1.80776">
        <ele>533.839</ele>
        <time>2020-05-16T05:46:39Z</time>
      </trkpt>
      <trkpt lat="42.99502" lon="-1.80785">
        <ele>533.644</ele>
        <time>2020-05-16T05:46:59Z</time>
      </trkpt>
      <trkpt lat="42.99498" lon="-1.80792">
        <ele>533.554</ele>
        <time>2020-05-16T05:47:19Z</time>
      </trkpt>
      <trkpt lat="42.99493" lon="-1.80806">
        <ele>533.321</ele>
        <time>2020-05-16T05:47:39Z</time>
      </trkpt>
      <trkpt lat="42.99488" lon="-1.8082">
        <ele>532.983</ele>
        <time>2020-05-16T05:47:59Z</time>
      </trkpt>
      <trkpt lat="42.99477" lon="-1.80856">
        <ele>532.293</ele>
        <time>2020-05-16T05:48:19Z</time>
      </trkpt>
      <trkpt lat="42.99471" lon="-1.80878">
        <ele>531.965</ele>
        <time>2020-05-16T05:48:39Z</time>
      </trkpt>
      <trkpt lat="42.9947" lon="-1.80884">
        <ele>531.821</ele>
        <time>2020-05-16T05:48:59Z</time>
      </trkpt>
      <trkpt lat="42.99463" lon="-1.80882">
        <ele>532.308</ele>
        <time>2020-05-16T05:49:19Z</time>
      </trkpt>
      <trkpt lat="42.99435" lon="-1.80869">
        <ele>527.983</ele>
        <time>2020-05-16T05:49:39Z</time>
      </trkpt>
      <trkpt lat="42.99422" lon="-1.80867">
        <ele>526.348</ele>
        <time>2020-05-16T05:49:59Z</time>
      </trkpt>
      <trkpt lat="42.99421" lon="-1.8086">
        <ele>527.182</ele>
        <time>2020-05-16T05:50:19Z</time>
      </trkpt>
      <trkpt lat="42.99424" lon="-1.80851">
        <ele>528.86</ele>
        <time>2020-05-16T05:50:39Z</time>
      </trkpt>
      <trkpt lat="42.99428" lon="-1.80842">
        <ele>527.525</ele>
        <time>2020-05-16T05:50:59Z</time>
      </trkpt>
      <trkpt lat="42.9943" lon="-1.80837">
        <ele>527.765</ele>
        <time>2020-05-16T05:51:19Z</time>
      </trkpt>
      <trkpt lat="42.99434" lon="-1.8083">
        <ele>528.132</ele>
        <time>2020-05-16T05:51:39Z</time>
      </trkpt>
      <trkpt lat="42.99437" lon="-1.80823">
        <ele>528.124</ele>
        <time>2020-05-16T05:51:59Z</time>
      </trkpt>
      <trkpt lat="42.99441" lon="-1.80817">
        <ele>527.975</ele>
        <time>2020-05-16T05:52:19Z</time>
      </trkpt>
      <trkpt lat="42.99442" lon="-1.80808">
        <ele>528.028</ele>
        <time>2020-05-16T05:52:39Z</time>
      </trkpt>
      <trkpt lat="42.9944" lon="-1.80806">
        <ele>528.02</ele>
        <time>2020-05-16T05:52:59Z</time>
      </trkpt>
      <trkpt lat="42.99432" lon="-1.80807">
        <ele>528.608</ele>
        <time>2020-05-16T05:53:19Z</time>
      </trkpt>
      <trkpt lat="42.99426" lon="-1.8081">
        <ele>529.281</ele>
        <time>2020-05-16T05:53:39Z</time>
      </trkpt>
      <trkpt lat="42.99418" lon="-1.80815">
        <ele>532.446</ele>
        <time>2020-05-16T05:53:59Z</time>
      </trkpt>
      <trkpt lat="42.99413" lon="-1.80822">
        <ele>531.13</ele>
        <time>2020-05-16T05:54:19Z</time>
      </trkpt>
      <trkpt lat="42.99407" lon="-1.80827">
        <ele>531.118</ele>
        <time>2020-05-16T05:54:39Z</time>
      </trkpt>
      <trkpt lat="42.99398" lon="-1.80836">
        <ele>532.053</ele>
        <time>2020-05-16T05:54:59Z</time>
      </trkpt>
      <trkpt lat="42.99389" lon="-1.80844">
        <ele>532.253</ele>
        <time>2020-05-16T05:55:19Z</time>
      </trkpt>
      <trkpt lat="42.99381" lon="-1.80847">
        <ele>534.76</ele>
        <time>2020-05-16T05:55:39Z</time>
      </trkpt>
      <trkpt lat="42.99378" lon="-1.80861">
        <ele>533.712</ele>
        <time>2020-05-16T05:55:59Z</time>
      </trkpt>
      <trkpt lat="42.99372" lon="-1.80865">
        <ele>534.218</ele>
        <time>2020-05-16T05:56:19Z</time>
      </trkpt>
      <trkpt lat="42.99364" lon="-1.80874">
        <ele>534.298</ele>
        <time>2020-05-16T05:56:39Z</time>
      </trkpt>
      <trkpt lat="42.99358" lon="-1.8088">
        <ele>534.217</ele>
        <time>2020-05-16T05:56:59Z</time>
      </trkpt>
      <trkpt lat="42.99343" lon="-1.80888">
        <ele>535.408</ele>
        <time>2020-05-16T05:57:19Z</time>
      </trkpt>
      <trkpt lat="42.99327" lon="-1.80893">
        <ele>535.685</ele>
        <time>2020-05-16T05:57:39Z</time>
      </trkpt>
      <trkpt lat="42.99313" lon="-1.80899">
        <ele>535.71</ele>
        <time>2020-05-16T05:57:59Z</time>
      </trkpt>
      <trkpt lat="42.99301" lon="-1.80908">
        <ele>536.664</ele>
        <time>2020-05-16T05:58:19Z</time>
      </trkpt>
      <trkpt lat="42.99282" lon="-1.80925">
        <ele>536.792</ele>
        <time>2020-05-16T05:58:39Z</time>
      </trkpt>
      <trkpt lat="42.99273" lon="-1.8093">
        <ele>536.867</ele>
        <time>2020-05-16T05:58:59Z</time>
      </trkpt>
      <trkpt lat="42.99265" lon="-1.8093">
        <ele>537.487</ele>
        <time>2020-05-16T05:59:19Z</time>
      </trkpt>
      <trkpt lat="42.99254" lon="-1.80925">
        <ele>539.854</ele>
        <time>2020-05-16T05:59:39Z</time>
      </trkpt>
      <trkpt lat="42.99238" lon="-1.80913">
        <ele>542.566</ele>
        <time>2020-05-16T05:59:59Z</time>
      </trkpt>
      <trkpt lat="42.99227" lon="-1.8091">
        <ele>543.256</ele>
        <time>2020-05-16T06:00:19Z</time>
      </trkpt>
      <trkpt lat="42.99219" lon="-1.80908">
        <ele>543.559</ele>
        <time>2020-05-16T06:00:39Z</time>
      </trkpt>
      <trkpt lat="42.99208" lon="-1.80907">
        <ele>543.914</ele>
        <time>2020-05-16T06:00:59Z</time>
      </trkpt>
      <trkpt lat="42.99203" lon="-1.80906">
        <ele>543.808</ele>
        <time>2020-05-16T06:01:19Z</time>
      </trkpt>
      <trkpt lat="42.99197" lon="-1.80903">
        <ele>543.439</ele>
        <time>2020-05-16T06:01:39Z</time>
      </trkpt>
      <trkpt lat="42.99187" lon="-1.80895">
        <ele>542.824</ele>
        <time>2020-05-16T06:01:59Z</time>
      </trkpt>
      <trkpt lat="42.99172" lon="-1.8088">
        <ele>541.148</ele>
        <time>2020-05-16T06:02:19Z</time>
      </trkpt>
      <trkpt lat="42.99151" lon="-1.80859">
        <ele>539.436</ele>
        <time>2020-05-16T06:02:39Z</time>
      </trkpt>
      <trkpt lat="42.99126" lon="-1.80837">
        <ele>537.471</ele>
        <time>2020-05-16T06:02:59Z</time>
      </trkpt>
      <trkpt lat="42.99115" lon="-1.80827">
        <ele>536.741</ele>
        <time>2020-05-16T06:03:19Z</time>
      </trkpt>
      <trkpt lat="42.991" lon="-1.80816">
        <ele>535.288</ele>
        <time>2020-05-16T06:03:39Z</time>
      </trkpt>
      <trkpt lat="42.99088" lon="-1.8081">
        <ele>534.15</ele>
        <time>2020-05-16T06:03:59Z</time>
      </trkpt>
      <trkpt lat="42.99069" lon="-1.80803">
        <ele>532.358</ele>
        <time>2020-05-16T06:04:19Z</time>
      </trkpt>
      <trkpt lat="42.99044" lon="-1.80793">
        <ele>531.152</ele>
        <time>2020-05-16T06:04:39Z</time>
      </trkpt>
      <trkpt lat="42.99017" lon="-1.80783">
        <ele>530.617</ele>
        <time>2020-05-16T06:04:59Z</time>
      </trkpt>
      <trkpt lat="42.98996" lon="-1.80776">
        <ele>530.608</ele>
        <time>2020-05-16T06:05:19Z</time>
      </trkpt>
      <trkpt lat="42.98977" lon="-1.80769">
        <ele>532.269</ele>
        <time>2020-05-16T06:05:39Z</time>
      </trkpt>
      <trkpt lat="42.98968" lon="-1.80765">
        <ele>532.884</ele>
        <time>2020-05-16T06:05:59Z</time>
      </trkpt>
      <trkpt lat="42.98958" lon="-1.80764">
        <ele>533.698</ele>
        <time>2020-05-16T06:06:19Z</time>
      </trkpt>
      <trkpt lat="42.98947" lon="-1.80765">
        <ele>534.596</ele>
        <time>2020-05-16T06:06:39Z</time>
      </trkpt>
      <trkpt lat="42.98935" lon="-1.80768">
        <ele>535.271</ele>
        <time>2020-05-16T06:06:59Z</time>
      </trkpt>
      <trkpt lat="42.98923" lon="-1.80774">
        <ele>535.421</ele>
        <time>2020-05-16T06:07:19Z</time>
      </trkpt>
      <trkpt lat="42.98913" lon="-1.80778">
        <ele>535.388</ele>
        <time>2020-05-16T06:07:39Z</time>
      </trkpt>
      <trkpt lat="42.98896" lon="-1.80754">
        <ele>537.55</ele>
        <time>2020-05-16T06:07:59Z</time>
      </trkpt>
      <trkpt lat="42.98881" lon="-1.80732">
        <ele>539.517</ele>
        <time>2020-05-16T06:08:19Z</time>
      </trkpt>
      <trkpt lat="42.98875" lon="-1.80723">
        <ele>540.287</ele>
        <time>2020-05-16T06:08:39Z</time>
      </trkpt>
      <trkpt lat="42.98872" lon="-1.8072">
        <ele>540.715</ele>
        <time>2020-05-16T06:08:59Z</time>
      </trkpt>
      <trkpt lat="42.98871" lon="-1.80718">
        <ele>540.708</ele>
        <time>2020-05-16T06:09:19Z</time>
      </trkpt>
      <trkpt lat="42.98866" lon="-1.80712">
        <ele>541.225</ele>
        <time>2020-05-16T06:09:39Z</time>
      </trkpt>
      <trkpt lat="42.98859" lon="-1.80707">
        <ele>541.95</ele>
        <time>2020-05-16T06:09:59Z</time>
      </trkpt>
      <trkpt lat="42.98857" lon="-1.80705">
        <ele>541.994</ele>
        <time>2020-05-16T06:10:19Z</time>
      </trkpt>
      <trkpt lat="42.98853" lon="-1.80702">
        <ele>542.612</ele>
        <time>2020-05-16T06:10:39Z</time>
      </trkpt>
      <trkpt lat="42.9885" lon="-1.80701">
        <ele>542.857</ele>
        <time>2020-05-16T06:10:59Z</time>
      </trkpt>
      <trkpt lat="42.98847" lon="-1.80699">
        <ele>543.167</ele>
        <time>2020-05-16T06:11:19Z</time>
      </trkpt>
      <trkpt lat="42.98842" lon="-1.80698">
        <ele>543.334</ele>
        <time>2020-05-16T06:11:39Z</time>
      </trkpt>
      <trkpt lat="42.98837" lon="-1.80696">
        <ele>543.896</ele>
        <time>2020-05-16T06:11:59Z</time>
      </trkpt>
      <trkpt lat="42.98834" lon="-1.80696">
        <ele>543.898</ele>
        <time>2020-05-16T06:12:19Z</time>
      </trkpt>
      <trkpt lat="42.98828" lon="-1.80695">
        <ele>544.715</ele>
        <time>2020-05-16T06:12:39Z</time>
      </trkpt>
      <trkpt lat="42.98823" lon="-1.80694">
        <ele>545.026</ele>
        <time>2020-05-16T06:12:59Z</time>
      </trkpt>
      <trkpt lat="42.98822" lon="-1.80694">
        <ele>545.008</ele>
        <time>2020-05-16T06:13:19Z</time>
      </trkpt>
      <trkpt lat="42.98819" lon="-1.80693">
        <ele>545.313</ele>
        <time>2020-05-16T06:13:39Z</time>
      </trkpt>
      <trkpt lat="42.98816" lon="-1.80693">
        <ele>545.378</ele>
        <time>2020-05-16T06:13:59Z</time>
      </trkpt>
      <trkpt lat="42.98815" lon="-1.80693">
        <ele>545.742</ele>
        <time>2020-05-16T06:14:19Z</time>
      </trkpt>
      <trkpt lat="42.98814" lon="-1.80694">
        <ele>545.76</ele>
        <time>2020-05-16T06:14:39Z</time>
      </trkpt>
      <trkpt lat="42.98812" lon="-1.80694">
        <ele>545.745</ele>
        <time>2020-05-16T06:14:59Z</time>
      </trkpt>
      <trkpt lat="42.98811" lon="-1.80695">
        <ele>545.765</ele>
        <time>2020-05-16T06:15:19Z</time>
      </trkpt>
      <trkpt lat="42.98809" lon="-1.80696">
        <ele>546.422</ele>
        <time>2020-05-16T06:15:39Z</time>
      </trkpt>
      <trkpt lat="42.98807" lon="-1.80697">
        <ele>546.474</ele>
        <time>2020-05-16T06:15:59Z</time>
      </trkpt>
      <trkpt lat="42.98805" lon="-1.80698">
        <ele>546.926</ele>
        <time>2020-05-16T06:16:19Z</time>
      </trkpt>
      <trkpt lat="42.98804" lon="-1.807">
        <ele>546.747</ele>
        <time>2020-05-16T06:16:39Z</time>
      </trkpt>
      <trkpt lat="42.98803" lon="-1.80701">
        <ele>546.711</ele>
        <time>2020-05-16T06:16:59Z</time>
      </trkpt>
      <trkpt lat="42.98802" lon="-1.80704">
        <ele>547.108</ele>
        <time>2020-05-16T06:17:19Z</time>
      </trkpt>
      <trkpt lat="42.988" lon="-1.80706">
        <ele>547.026</ele>
        <time>2020-05-16T06:17:39Z</time>
      </trkpt>
      <trkpt lat="42.98797" lon="-1.8071">
        <ele>547.521</ele>
        <time>2020-05-16T06:17:59Z</time>
      </trkpt>
      <trkpt lat="42.98796" lon="-1.80712">
        <ele>547.695</ele>
        <time>2020-05-16T06:18:19Z</time>
      </trkpt>
      <trkpt lat="42.98795" lon="-1.80715">
        <ele>547.653</ele>
        <time>2020-05-16T06:18:39Z</time>
      </trkpt>
      <trkpt lat="42.98793" lon="-1.80719">
        <ele>548.438</ele>
        <time>2020-05-16T06:18:59Z</time>
      </trkpt>
      <trkpt lat="42.98792" lon="-1.80724">
        <ele>548.718</ele>
        <time>2020-05-16T06:19:19Z</time>
      </trkpt>
      <trkpt lat="42.9879" lon="-1.80731">
        <ele>549.225</ele>
        <time>2020-05-16T06:19:39Z</time>
      </trkpt>
      <trkpt lat="42.98789" lon="-1.80735">
        <ele>549.277</ele>
        <time>2020-05-16T06:19:59Z</time>
      </trkpt>
      <trkpt lat="42.98787" lon="-1.8074">
        <ele>549.682</ele>
        <time>2020-05-16T06:20:19Z</time>
      </trkpt>
      <trkpt lat="42.98786" lon="-1.80743">
        <ele>549.943</ele>
        <time>2020-05-16T06:20:39Z</time>
      </trkpt>
      <trkpt lat="42.98785" lon="-1.80745">
        <ele>549.917</ele>
        <time>2020-05-16T06:20:59Z</time>
      </trkpt>
      <trkpt lat="42.98783" lon="-1.80749">
        <ele>550.308</ele>
        <time>2020-05-16T06:21:19Z</time>
      </trkpt>
      <trkpt lat="42.98782" lon="-1.80752">
        <ele>550.362</ele>
        <time>2020-05-16T06:21:39Z</time>
      </trkpt>
      <trkpt lat="42.98781" lon="-1.80753">
        <ele>550.337</ele>
        <time>2020-05-16T06:21:59Z</time>
      </trkpt>
      <trkpt lat="42.9878" lon="-1.80754">
        <ele>550.291</ele>
        <time>2020-05-16T06:22:19Z</time>
      </trkpt>
      <trkpt lat="42.98778" lon="-1.80756">
        <ele>550.229</ele>
        <time>2020-05-16T06:22:39Z</time>
      </trkpt>
      <trkpt lat="42.98773" lon="-1.8076">
        <ele>551.284</ele>
        <time>2020-05-16T06:22:59Z</time>
      </trkpt>
      <trkpt lat="42.98771" lon="-1.80761">
        <ele>550.974</ele>
        <time>2020-05-16T06:23:19Z</time>
      </trkpt>
      <trkpt lat="42.98768" lon="-1.80763">
        <ele>551.721</ele>
        <time>2020-05-16T06:23:39Z</time>
      </trkpt>
      <trkpt lat="42.98762" lon="-1.80766">
        <ele>552.283</ele>
        <time>2020-05-16T06:23:59Z</time>
      </trkpt>
      <trkpt lat="42.98758" lon="-1.80768">
        <ele>552.896</ele>
        <time>2020-05-16T06:24:19Z</time>
      </trkpt>
      <trkpt lat="42.98753" lon="-1.80769">
        <ele>553.131</ele>
        <time>2020-05-16T06:24:39Z</time>
      </trkpt>
      <trkpt lat="42.98749" lon="-1.8077">
        <ele>553.324</ele>
        <time>2020-05-16T06:24:59Z</time>
      </trkpt>
      <trkpt lat="42.98741" lon="-1.80772">
        <ele>553.608</ele>
        <time>2020-05-16T06:25:19Z</time>
      </trkpt>
      <trkpt lat="42.98736" lon="-1.80773">
        <ele>553.973</ele>
        <time>2020-05-16T06:25:39Z</time>
      </trkpt>
      <trkpt lat="42.98733" lon="-1.80773">
        <ele>554.158</ele>
        <time>2020-05-16T06:25:59Z</time>
      </trkpt>
      <trkpt lat="42.98729" lon="-1.80773">
        <ele>554.322</ele>
        <time>2020-05-16T06:26:19Z</time>
      </trkpt>
      <trkpt lat="42.98728" lon="-1.80773">
        <ele>554.37</ele>
        <time>2020-05-16T06:26:39Z</time>
      </trkpt>
      <trkpt lat="42.98725" lon="-1.80772">
        <ele>554.475</ele>
        <time>2020-05-16T06:26:59Z</time>
      </trkpt>
      <trkpt lat="42.98722" lon="-1.80772">
        <ele>554.475</ele>
        <time>2020-05-16T06:27:19Z</time>
      </trkpt>
      <trkpt lat="42.98718" lon="-1.8077">
        <ele>554.732</ele>
        <time>2020-05-16T06:27:39Z</time>
      </trkpt>
      <trkpt lat="42.98713" lon="-1.80768">
        <ele>554.914</ele>
        <time>2020-05-16T06:27:59Z</time>
      </trkpt>
      <trkpt lat="42.98706" lon="-1.80765">
        <ele>555.273</ele>
        <time>2020-05-16T06:28:19Z</time>
      </trkpt>
      <trkpt lat="42.98701" lon="-1.80762">
        <ele>555.885</ele>
        <time>2020-05-16T06:28:39Z</time>
      </trkpt>
      <trkpt lat="42.987" lon="-1.80762">
        <ele>555.713</ele>
        <time>2020-05-16T06:28:59Z</time>
      </trkpt>
      <trkpt lat="42.98698" lon="-1.8076">
        <ele>555.908</ele>
        <time>2020-05-16T06:29:19Z</time>
      </trkpt>
      <trkpt lat="42.98693" lon="-1.80757">
        <ele>556.181</ele>
        <time>2020-05-16T06:29:39Z</time>
      </trkpt>
      <trkpt lat="42.98688" lon="-1.80755">
        <ele>556.696</ele>
        <time>2020-05-16T06:29:59Z</time>
      </trkpt>
      <trkpt lat="42.98684" lon="-1.80752">
        <ele>556.99</ele>
        <time>2020-05-16T06:30:19Z</time>
      </trkpt>
      <trkpt lat="42.98683" lon="-1.80751">
        <ele>556.988</ele>
        <time>2020-05-16T06:30:39Z</time>
      </trkpt>
      <trkpt lat="42.98682" lon="-1.8075">
        <ele>556.973</ele>
        <time>2020-05-16T06:30:59Z</time>
      </trkpt>
      <trkpt lat="42.98681" lon="-1.80749">
        <ele>557.253</ele>
        <time>2020-05-16T06:31:19Z</time>
      </trkpt>
      <trkpt lat="42.98678" lon="-1.80746">
        <ele>557.32</ele>
        <time>2020-05-16T06:31:39Z</time>
      </trkpt>
      <trkpt lat="42.98677" lon="-1.80744">
        <ele>557.442</ele>
        <time>2020-05-16T06:31:59Z</time>
      </trkpt>
      <trkpt lat="42.98674" lon="-1.8074">
        <ele>557.721</ele>
        <time>2020-05-16T06:32:19Z</time>
      </trkpt>
      <trkpt lat="42.9867" lon="-1.80734">
        <ele>558.141</ele>
        <time>2020-05-16T06:32:39Z</time>
      </trkpt>
      <trkpt lat="42.98669" lon="-1.80733">
        <ele>558.105</ele>
        <time>2020-05-16T06:32:59Z</time>
      </trkpt>
      <trkpt lat="42.98668" lon="-1.80731">
        <ele>561.108</ele>
        <time>2020-05-16T06:33:19Z</time>
      </trkpt>
      <trkpt lat="42.98667" lon="-1.80728">
        <ele>559.116</ele>
        <time>2020-05-16T06:33:39Z</time>
      </trkpt>
      <trkpt lat="42.98665" lon="-1.80724">
        <ele>559.311</ele>
        <time>2020-05-16T06:33:59Z</time>
      </trkpt>
      <trkpt lat="42.98664" lon="-1.80722">
        <ele>559.315</ele>
        <time>2020-05-16T06:34:19Z</time>
      </trkpt>
      <trkpt lat="42.98663" lon="-1.80719">
        <ele>559.513</ele>
        <time>2020-05-16T06:34:39Z</time>
      </trkpt>
      <trkpt lat="42.98662" lon="-1.80714">
        <ele>559.968</ele>
        <time>2020-05-16T06:34:59Z</time>
      </trkpt>
      <trkpt lat="42.98661" lon="-1.80711">
        <ele>559.928</ele>
        <time>2020-05-16T06:35:19Z</time>
      </trkpt>
      <trkpt lat="42.9866" lon="-1.80706">
        <ele>560.575</ele>
        <time>2020-05-16T06:35:39Z</time>
      </trkpt>
      <trkpt lat="42.9866" lon="-1.80704">
        <ele>560.577</ele>
        <time>2020-05-16T06:35:59Z</time>
      </trkpt>
      <trkpt lat="42.9866" lon="-1.80701">
        <ele>560.727</ele>
        <time>2020-05-16T06:36:19Z</time>
      </trkpt>
      <trkpt lat="42.9866" lon="-1.80697">
        <ele>560.768</ele>
        <time>2020-05-16T06:36:39Z</time>
      </trkpt>
      <trkpt lat="42.9866" lon="-1.80694">
        <ele>561.014</ele>
        <time>2020-05-16T06:36:59Z</time>
      </trkpt>
      <trkpt lat="42.98661" lon="-1.80692">
        <ele>561.008</ele>
        <time>2020-05-16T06:37:19Z</time>
      </trkpt>
      <trkpt lat="42.98661" lon="-1.80689">
        <ele>561.366</ele>
        <time>2020-05-16T06:37:39Z</time>
      </trkpt>
      <trkpt lat="42.98662" lon="-1.80687">
        <ele>561.371</ele>
        <time>2020-05-16T06:37:59Z</time>
      </trkpt>
      <trkpt lat="42.98662" lon="-1.80682">
        <ele>561.985</ele>
        <time>2020-05-16T06:38:19Z</time>
      </trkpt>
      <trkpt lat="42.98664" lon="-1.80678">
        <ele>561.923</ele>
        <time>2020-05-16T06:38:39Z</time>
      </trkpt>
      <trkpt lat="42.98664" lon="-1.80676">
        <ele>562.248</ele>
        <time>2020-05-16T06:38:59Z</time>
      </trkpt>
      <trkpt lat="42.98665" lon="-1.80672">
        <ele>562.218</ele>
        <time>2020-05-16T06:39:19Z</time>
      </trkpt>
      <trkpt lat="42.98665" lon="-1.8067">
        <ele>562.485</ele>
        <time>2020-05-16T06:39:39Z</time>
      </trkpt>
      <trkpt lat="42.98665" lon="-1.80669">
        <ele>562.437</ele>
        <time>2020-05-16T06:39:59Z</time>
      </trkpt>
      <trkpt lat="42.98666" lon="-1.80667">
        <ele>562.461</ele>
        <time>2020-05-16T06:40:19Z</time>
      </trkpt>
      <trkpt lat="42.98666" lon="-1.80663">
        <ele>562.621</ele>
        <time>2020-05-16T06:40:39Z</time>
      </trkpt>
      <trkpt lat="42.98666" lon="-1.8066">
        <ele>562.613</ele>
        <time>2020-05-16T06:40:59Z</time>
      </trkpt>
      <trkpt lat="42.98666" lon="-1.80658">
        <ele>563.108</ele>
        <time>2020-05-16T06:41:19Z</time>
      </trkpt>
      <trkpt lat="42.98666" lon="-1.80656">
        <ele>563.15</ele>
        <time>2020-05-16T06:41:39Z</time>
      </trkpt>
      <trkpt lat="42.98665" lon="-1.80654">
        <ele>563.115</ele>
        <time>2020-05-16T06:41:59Z</time>
      </trkpt>
      <trkpt lat="42.98665" lon="-1.80651">
        <ele>563.519</ele>
        <time>2020-05-16T06:42:19Z</time>
      </trkpt>
      <trkpt lat="42.98664" lon="-1.80649">
        <ele>563.597</ele>
        <time>2020-05-16T06:42:39Z</time>
      </trkpt>
      <trkpt lat="42.98664" lon="-1.80648">
        <ele>563.572</ele>
        <time>2020-05-16T06:42:59Z</time>
      </trkpt>
      <trkpt lat="42.98662" lon="-1.80646">
        <ele>564.092</ele>
        <time>2020-05-16T06:43:19Z</time>
      </trkpt>
      <trkpt lat="42.98662" lon="-1.80645">
        <ele>563.959</ele>
        <time>2020-05-16T06:43:39Z</time>
      </trkpt>
      <trkpt lat="42.98661" lon="-1.80644">
        <ele>563.931</ele>
        <time>2020-05-16T06:43:59Z</time>
      </trkpt>
      <trkpt lat="42.98658" lon="-1.80641">
        <ele>563.951</ele>
        <time>2020-05-16T06:44:19Z</time>
      </trkpt>
      <trkpt lat="42.98656" lon="-1.80639">
        <ele>564.301</ele>
        <time>2020-05-16T06:44:39Z</time>
      </trkpt>
      <trkpt lat="42.98653" lon="-1.80636">
        <ele>564.311</ele>
        <time>2020-05-16T06:44:59Z</time>
      </trkpt>
      <trkpt lat="42.98652" lon="-1.80635">
        <ele>564.508</ele>
        <time>2020-05-16T06:45:19Z</time>
      </trkpt>
      <trkpt lat="42.9865" lon="-1.80633">
        <ele>565.099</ele>
        <time>2020-05-16T06:45:39Z</time>
      </trkpt>
      <trkpt lat="42.98649" lon="-1.80633">
        <ele>565.094</ele>
        <time>2020-05-16T06:45:59Z</time>
      </trkpt>
      <trkpt lat="42.98646" lon="-1.80631">
        <ele>565.598</ele>
        <time>2020-05-16T06:46:19Z</time>
      </trkpt>
      <trkpt lat="42.98644" lon="-1.8063">
        <ele>565.556</ele>
        <time>2020-05-16T06:46:39Z</time>
      </trkpt>
      <trkpt lat="42.98643" lon="-1.8063">
        <ele>565.721</ele>
        <time>2020-05-16T06:46:59Z</time>
      </trkpt>
      <trkpt lat="42.98641" lon="-1.80629">
        <ele>565.781</ele>
        <time>2020-05-16T06:47:19Z</time>
      </trkpt>
      <trkpt lat="42.9864" lon="-1.80629">
        <ele>565.798</ele>
        <time>2020-05-16T06:47:39Z</time>
      </trkpt>
      <trkpt lat="42.98637" lon="-1.80629">
        <ele>565.95</ele>
        <time>2020-05-16T06:47:59Z</time>
      </trkpt>
      <trkpt lat="42.98634" lon="-1.80629">
        <ele>566.263</ele>
        <time>2020-05-16T06:48:19Z</time>
      </trkpt>
      <trkpt lat="42.98631" lon="-1.80629">
        <ele>566.244</ele>
        <time>2020-05-16T06:48:39Z</time>
      </trkpt>
      <trkpt lat="42.98627" lon="-1.80629">
        <ele>566.818</ele>
        <time>2020-05-16T06:48:59Z</time>
      </trkpt>
      <trkpt lat="42.98625" lon="-1.80629">
        <ele>567.108</ele>
        <time>2020-05-16T06:49:19Z</time>
      </trkpt>
      <trkpt lat="42.98622" lon="-1.8063">
        <ele>567.11</ele>
        <time>2020-05-16T06:49:39Z</time>
      </trkpt>
      <trkpt lat="42.98618" lon="-1.8063">
        <ele>567.595</ele>
        <time>2020-05-16T06:49:59Z</time>
      </trkpt>
      <trkpt lat="42.98615" lon="-1.80631">
        <ele>567.899</ele>
        <time>2020-05-16T06:50:19Z</time>
      </trkpt>
      <trkpt lat="42.98613" lon="-1.80632">
        <ele>567.847</ele>
        <time>2020-05-16T06:50:39Z</time>
      </trkpt>
      <trkpt lat="42.98611" lon="-1.80633">
        <ele>568.422</ele>
        <time>2020-05-16T06:50:59Z</time>
      </trkpt>
      <trkpt lat="42.98607" lon="-1.80635">
        <ele>569.892</ele>
        <time>2020-05-16T06:51:19Z</time>
      </trkpt>
      <trkpt lat="42.98605" lon="-1.80636">
        <ele>568.949</ele>
        <time>2020-05-16T06:51:39Z</time>
      </trkpt>
      <trkpt lat="42.98602" lon="-1.80637">
        <ele>568.991</ele>
        <time>2020-05-16T06:51:59Z</time>
      </trkpt>
      <trkpt lat="42.986" lon="-1.80639">
        <ele>568.925</ele>
        <time>2020-05-16T06:52:19Z</time>
      </trkpt>
      <trkpt lat="42.98598" lon="-1.8064">
        <ele>569.326</ele>
        <time>2020-05-16T06:52:39Z</time>
      </trkpt>
      <trkpt lat="42.98597" lon="-1.80641">
        <ele>569.308</ele>
        <time>2020-05-16T06:52:59Z</time>
      </trkpt>
      <trkpt lat="42.98596" lon="-1.80641">
        <ele>569.308</ele>
        <time>2020-05-16T06:53:19Z</time>
      </trkpt>
      <trkpt lat="42.98594" lon="-1.80642">
        <ele>570.076</ele>
        <time>2020-05-16T06:53:39Z</time>
      </trkpt>
      <trkpt lat="42.98593" lon="-1.80642">
        <ele>570.041</ele>
        <time>2020-05-16T06:53:59Z</time>
      </trkpt>
      <trkpt lat="42.9859" lon="-1.80643">
        <ele>570.075</ele>
        <time>2020-05-16T06:54:19Z</time>
      </trkpt>
      <trkpt lat="42.98587" lon="-1.80643">
        <ele>569.983</ele>
        <time>2020-05-16T06:54:39Z</time>
      </trkpt>
      <trkpt lat="42.98584" lon="-1.80643">
        <ele>569.958</ele>
        <time>2020-05-16T06:54:59Z</time>
      </trkpt>
      <trkpt lat="42.98582" lon="-1.80643">
        <ele>569.948</ele>
        <time>2020-05-16T06:55:19Z</time>
      </trkpt>
      <trkpt lat="42.9858" lon="-1.80643">
        <ele>569.815</ele>
        <time>2020-05-16T06:55:39Z</time>
      </trkpt>
      <trkpt lat="42.98577" lon="-1.80643">
        <ele>569.877</ele>
        <time>2020-05-16T06:55:59Z</time>
      </trkpt>
      <trkpt lat="42.98574" lon="-1.80642">
        <ele>569.945</ele>
        <time>2020-05-16T06:56:19Z</time>
      </trkpt>
      <trkpt lat="42.98565" lon="-1.80641">
        <ele>569.547</ele>
        <time>2020-05-16T06:56:39Z</time>
      </trkpt>
      <trkpt lat="42.98558" lon="-1.8064">
        <ele>569.311</ele>
        <time>2020-05-16T06:56:59Z</time>
      </trkpt>
      <trkpt lat="42.98557" lon="-1.80639">
        <ele>569.308</ele>
        <time>2020-05-16T06:57:19Z</time>
      </trkpt>
      <trkpt lat="42.98555" lon="-1.80639">
        <ele>569.348</ele>
        <time>2020-05-16T06:57:39Z</time>
      </trkpt>
      <trkpt lat="42.98554" lon="-1.80639">
        <ele>569.383</ele>
        <time>2020-05-16T06:57:59Z</time>
      </trkpt>
      <trkpt lat="42.98549" lon="-1.80637">
        <ele>569.037</ele>
        <time>2020-05-16T06:58:19Z</time>
      </trkpt>
      <trkpt lat="42.98547" lon="-1.80636">
        <ele>569.655</ele>
        <time>2020-05-16T06:58:39Z</time>
      </trkpt>
      <trkpt lat="42.98543" lon="-1.80634">
        <ele>569.11</ele>
        <time>2020-05-16T06:58:59Z</time>
      </trkpt>
      <trkpt lat="42.98539" lon="-1.80632">
        <ele>568.83</ele>
        <time>2020-05-16T06:59:19Z</time>
      </trkpt>
      <trkpt lat="42.98536" lon="-1.80629">
        <ele>568.737</ele>
        <time>2020-05-16T06:59:39Z</time>
      </trkpt>
      <trkpt lat="42.98528" lon="-1.80624">
        <ele>568.569</ele>
        <time>2020-05-16T06:59:59Z</time>
      </trkpt>
      <trkpt lat="42.98524" lon="-1.80621">
        <ele>568.563</ele>
        <time>2020-05-16T07:00:19Z</time>
      </trkpt>
      <trkpt lat="42.9852" lon="-1.80619">
        <ele>568.344</ele>
        <time>2020-05-16T07:00:39Z</time>
      </trkpt>
      <trkpt lat="42.98515" lon="-1.80616">
        <ele>568.118</ele>
        <time>2020-05-16T07:00:59Z</time>
      </trkpt>
      <trkpt lat="42.98512" lon="-1.80614">
        <ele>567.808</ele>
        <time>2020-05-16T07:01:19Z</time>
      </trkpt>
      <trkpt lat="42.9851" lon="-1.80613">
        <ele>567.85</ele>
        <time>2020-05-16T07:01:39Z</time>
      </trkpt>
      <trkpt lat="42.98506" lon="-1.80611">
        <ele>568.135</ele>
        <time>2020-05-16T07:01:59Z</time>
      </trkpt>
      <trkpt lat="42.98503" lon="-1.8061">
        <ele>567.769</ele>
        <time>2020-05-16T07:02:19Z</time>
      </trkpt>
      <trkpt lat="42.98499" lon="-1.80608">
        <ele>567.667</ele>
        <time>2020-05-16T07:02:39Z</time>
      </trkpt>
      <trkpt lat="42.98496" lon="-1.80607">
        <ele>567.682</ele>
        <time>2020-05-16T07:02:59Z</time>
      </trkpt>
      <trkpt lat="42.98493" lon="-1.80606">
        <ele>567.712</ele>
        <time>2020-05-16T07:03:19Z</time>
      </trkpt>
      <trkpt lat="42.98492" lon="-1.80606">
        <ele>567.759</ele>
        <time>2020-05-16T07:03:39Z</time>
      </trkpt>
      <trkpt lat="42.9849" lon="-1.80606">
        <ele>567.621</ele>
        <time>2020-05-16T07:03:59Z</time>
      </trkpt>
      <trkpt lat="42.98489" lon="-1.80606">
        <ele>567.624</ele>
        <time>2020-05-16T07:04:19Z</time>
      </trkpt>
      <trkpt lat="42.98487" lon="-1.80606">
        <ele>567.604</ele>
        <time>2020-05-16T07:04:39Z</time>
      </trkpt>
      <trkpt lat="42.98483" lon="-1.80607">
        <ele>567.214</ele>
        <time>2020-05-16T07:04:59Z</time>
      </trkpt>
      <trkpt lat="42.98472" lon="-1.80612">
        <ele>567.208</ele>
        <time>2020-05-16T07:05:19Z</time>
      </trkpt>
      <trkpt lat="42.98463" lon="-1.80615">
        <ele>567.316</ele>
        <time>2020-05-16T07:05:39Z</time>
      </trkpt>
      <trkpt lat="42.98455" lon="-1.80618">
        <ele>567.261</ele>
        <time>2020-05-16T07:05:59Z</time>
      </trkpt>
      <trkpt lat="42.98447" lon="-1.8062">
        <ele>567.445</ele>
        <time>2020-05-16T07:06:19Z</time>
      </trkpt>
      <trkpt lat="42.98443" lon="-1.80621">
        <ele>567.533</ele>
        <time>2020-05-16T07:06:39Z</time>
      </trkpt>
      <trkpt lat="42.9844" lon="-1.80622">
        <ele>567.548</ele>
        <time>2020-05-16T07:06:59Z</time>
      </trkpt>
      <trkpt lat="42.98433" lon="-1.80623">
        <ele>567.588</ele>
        <time>2020-05-16T07:07:19Z</time>
      </trkpt>
      <trkpt lat="42.98427" lon="-1.80624">
        <ele>567.625</ele>
        <time>2020-05-16T07:07:39Z</time>
      </trkpt>
      <trkpt lat="42.98398" lon="-1.80628">
        <ele>567.767</ele>
        <time>2020-05-16T07:07:59Z</time>
      </trkpt>
      <trkpt lat="42.98369" lon="-1.80633">
        <ele>568.173</ele>
        <time>2020-05-16T07:08:19Z</time>
      </trkpt>
      <trkpt lat="42.98353" lon="-1.80636">
        <ele>568.385</ele>
        <time>2020-05-16T07:08:39Z</time>
      </trkpt>
      <trkpt lat="42.98351" lon="-1.80636">
        <ele>568.413</ele>
        <time>2020-05-16T07:08:59Z</time>
      </trkpt>
      <trkpt lat="42.98337" lon="-1.80639">
        <ele>568.408</ele>
        <time>2020-05-16T07:09:19Z</time>
      </trkpt>
      <trkpt lat="42.98327" lon="-1.8064">
        <ele>569.041</ele>
        <time>2020-05-16T07:09:39Z</time>
      </trkpt>
      <trkpt lat="42.98317" lon="-1.80642">
        <ele>568.926</ele>
        <time>2020-05-16T07:09:59Z</time>
      </trkpt>
      <trkpt lat="42.98309" lon="-1.80643">
        <ele>568.85</ele>
        <time>2020-05-16T07:10:19Z</time>
      </trkpt>
      <trkpt lat="42.98301" lon="-1.80644">
        <ele>568.878</ele>
        <time>2020-05-16T07:10:39Z</time>
      </trkpt>
      <trkpt lat="42.98294" lon="-1.80644">
        <ele>568.853</ele>
        <time>2020-05-16T07:10:59Z</time>
      </trkpt>
      <trkpt lat="42.98287" lon="-1.80645">
        <ele>568.813</ele>
        <time>2020-05-16T07:11:19Z</time>
      </trkpt>
      <trkpt lat="42.9828" lon="-1.80645">
        <ele>568.88</ele>
        <time>2020-05-16T07:11:39Z</time>
      </trkpt>
      <trkpt lat="42.98273" lon="-1.80645">
        <ele>568.852</ele>
        <time>2020-05-16T07:11:59Z</time>
      </trkpt>
      <trkpt lat="42.98268" lon="-1.80644">
        <ele>568.996</ele>
        <time>2020-05-16T07:12:19Z</time>
      </trkpt>
      <trkpt lat="42.98262" lon="-1.80644">
        <ele>568.831</ele>
        <time>2020-05-16T07:12:39Z</time>
      </trkpt>
      <trkpt lat="42.98235" lon="-1.80639">
        <ele>569.324</ele>
        <time>2020-05-16T07:12:59Z</time>
      </trkpt>
      <trkpt lat="42.9823" lon="-1.80639">
        <ele>569.508</ele>
        <time>2020-05-16T07:13:19Z</time>
      </trkpt>
      <trkpt lat="42.98225" lon="-1.80638">
        <ele>569.573</ele>
        <time>2020-05-16T07:13:39Z</time>
      </trkpt>
      <trkpt lat="42.98218" lon="-1.80637">
        <ele>569.518</ele>
        <time>2020-05-16T07:13:59Z</time>
      </trkpt>
      <trkpt lat="42.98212" lon="-1.80636">
        <ele>569.762</ele>
        <time>2020-05-16T07:14:19Z</time>
      </trkpt>
      <trkpt lat="42.98204" lon="-1.80635">
        <ele>569.89</ele>
        <time>2020-05-16T07:14:39Z</time>
      </trkpt>
      <trkpt lat="42.98196" lon="-1.80633">
        <ele>570.025</ele>
        <time>2020-05-16T07:14:59Z</time>
      </trkpt>
      <trkpt lat="42.98188" lon="-1.80632">
        <ele>570.155</ele>
        <time>2020-05-16T07:15:19Z</time>
      </trkpt>
      <trkpt lat="42.9818" lon="-1.80631">
        <ele>570.122</ele>
        <time>2020-05-16T07:15:39Z</time>
      </trkpt>
      <trkpt lat="42.98171" lon="-1.8063">
        <ele>570.794</ele>
        <time>2020-05-16T07:15:59Z</time>
      </trkpt>
      <trkpt lat="42.98162" lon="-1.80628">
        <ele>570.861</ele>
        <time>2020-05-16T07:16:19Z</time>
      </trkpt>
      <trkpt lat="42.98156" lon="-1.80627">
        <ele>571.121</ele>
        <time>2020-05-16T07:16:39Z</time>
      </trkpt>
      <trkpt lat="42.98149" lon="-1.80626">
        <ele>571.213</ele>
        <time>2020-05-16T07:16:59Z</time>
      </trkpt>
      <trkpt lat="42.98125" lon="-1.80622">
        <ele>572.508</ele>
        <time>2020-05-16T07:17:19Z</time>
      </trkpt>
      <trkpt lat="42.9812" lon="-1.80621">
        <ele>573.08</ele>
        <time>2020-05-16T07:17:39Z</time>
      </trkpt>
      <trkpt lat="42.98115" lon="-1.8062">
        <ele>573.375</ele>
        <time>2020-05-16T07:17:59Z</time>
      </trkpt>
      <trkpt lat="42.98107" lon="-1.80618">
        <ele>573.919</ele>
        <time>2020-05-16T07:18:19Z</time>
      </trkpt>
      <trkpt lat="42.981" lon="-1.80615">
        <ele>574.257</ele>
        <time>2020-05-16T07:18:39Z</time>
      </trkpt>
      <trkpt lat="42.98094" lon="-1.80613">
        <ele>574.232</ele>
        <time>2020-05-16T07:18:59Z</time>
      </trkpt>
      <trkpt lat="42.98089" lon="-1.80611">
        <ele>574.862</ele>
        <time>2020-05-16T07:19:19Z</time>
      </trkpt>
      <trkpt lat="42.98085" lon="-1.8061">
        <ele>574.989</ele>
        <time>2020-05-16T07:19:39Z</time>
      </trkpt>
      <trkpt lat="42.98081" lon="-1.80608">
        <ele>575.221</ele>
        <time>2020-05-16T07:19:59Z</time>
      </trkpt>
      <trkpt lat="42.98076" lon="-1.80607">
        <ele>575.228</ele>
        <time>2020-05-16T07:20:19Z</time>
      </trkpt>
      <trkpt lat="42.98072" lon="-1.80605">
        <ele>575.489</ele>
        <time>2020-05-16T07:20:39Z</time>
      </trkpt>
      <trkpt lat="42.98062" lon="-1.80601">
        <ele>576.117</ele>
        <time>2020-05-16T07:20:59Z</time>
      </trkpt>
      <trkpt lat="42.98052" lon="-1.80597">
        <ele>578.008</ele>
        <time>2020-05-16T07:21:19Z</time>
      </trkpt>
      <trkpt lat="42.98022" lon="-1.80584">
        <ele>578.216</ele>
        <time>2020-05-16T07:21:39Z</time>
      </trkpt>
      <trkpt lat="42.98014" lon="-1.80581">
        <ele>578.571</ele>
        <time>2020-05-16T07:21:59Z</time>
      </trkpt>
      <trkpt lat="42.98007" lon="-1.80578">
        <ele>578.935</ele>
        <time>2020-05-16T07:22:19Z</time>
      </trkpt>
      <trkpt lat="42.97999" lon="-1.80575">
        <ele>579.343</ele>
        <time>2020-05-16T07:22:39Z</time>
      </trkpt>
      <trkpt lat="42.97992" lon="-1.80572">
        <ele>579.838</ele>
        <time>2020-05-16T07:22:59Z</time>
      </trkpt>
      <trkpt lat="42.97972" lon="-1.80564">
        <ele>580.858</ele>
        <time>2020-05-16T07:23:19Z</time>
      </trkpt>
      <trkpt lat="42.97952" lon="-1.80556">
        <ele>581.795</ele>
        <time>2020-05-16T07:23:39Z</time>
      </trkpt>
      <trkpt lat="42.9794" lon="-1.8055">
        <ele>582.487</ele>
        <time>2020-05-16T07:23:59Z</time>
      </trkpt>
      <trkpt lat="42.97929" lon="-1.80545">
        <ele>582.755</ele>
        <time>2020-05-16T07:24:19Z</time>
      </trkpt>
      <trkpt lat="42.97927" lon="-1.80544">
        <ele>583.007</ele>
        <time>2020-05-16T07:24:39Z</time>
      </trkpt>
      <trkpt lat="42.97925" lon="-1.80543">
        <ele>583.017</ele>
        <time>2020-05-16T07:24:59Z</time>
      </trkpt>
      <trkpt lat="42.97921" lon="-1.80541">
        <ele>583.208</ele>
        <time>2020-05-16T07:25:19Z</time>
      </trkpt>
      <trkpt lat="42.97921" lon="-1.80541">
        <ele>583.229</ele>
        <time>2020-05-16T07:25:39Z</time>
      </trkpt>
      <trkpt lat="42.97917" lon="-1.80539">
        <ele>583.484</ele>
        <time>2020-05-16T07:25:59Z</time>
      </trkpt>
      <trkpt lat="42.9791" lon="-1.80534">
        <ele>583.578</ele>
        <time>2020-05-16T07:26:19Z</time>
      </trkpt>
      <trkpt lat="42.97903" lon="-1.8053">
        <ele>584.186</ele>
        <time>2020-05-16T07:26:39Z</time>
      </trkpt>
      <trkpt lat="42.97897" lon="-1.80525">
        <ele>584.461</ele>
        <time>2020-05-16T07:26:59Z</time>
      </trkpt>
      <trkpt lat="42.97891" lon="-1.8052">
        <ele>584.611</ele>
        <time>2020-05-16T07:27:19Z</time>
      </trkpt>
      <trkpt lat="42.97885" lon="-1.80517">
        <ele>584.928</ele>
        <time>2020-05-16T07:27:39Z</time>
      </trkpt>
      <trkpt lat="42.97879" lon="-1.80513">
        <ele>585.36</ele>
        <time>2020-05-16T07:27:59Z</time>
      </trkpt>
      <trkpt lat="42.97868" lon="-1.80505">
        <ele>585.726</ele>
        <time>2020-05-16T07:28:19Z</time>
      </trkpt>
      <trkpt lat="42.97857" lon="-1.80497">
        <ele>586.447</ele>
        <time>2020-05-16T07:28:39Z</time>
      </trkpt>
      <trkpt lat="42.97849" lon="-1.80491">
        <ele>586.711</ele>
        <time>2020-05-16T07:28:59Z</time>
      </trkpt>
      <trkpt lat="42.97842" lon="-1.80485">
        <ele>587.208</ele>
        <time>2020-05-16T07:29:19Z</time>
      </trkpt>
      <trkpt lat="42.97838" lon="-1.80482">
        <ele>587.666</ele>
        <time>2020-05-16T07:29:39Z</time>
      </trkpt>
      <trkpt lat="42.97833" lon="-1.80479">
        <ele>587.581</ele>
        <time>2020-05-16T07:29:59Z</time>
      </trkpt>
      <trkpt lat="42.97827" lon="-1.80474">
        <ele>588.485</ele>
        <time>2020-05-16T07:30:19Z</time>
      </trkpt>
      <trkpt lat="42.97821" lon="-1.80469">
        <ele>588.713</ele>
        <time>2020-05-16T07:30:39Z</time>
      </trkpt>
      <trkpt lat="42.97818" lon="-1.80468">
        <ele>588.758</ele>
        <time>2020-05-16T07:30:59Z</time>
      </trkpt>
      <trkpt lat="42.97816" lon="-1.80466">
        <ele>589.288</ele>
        <time>2020-05-16T07:31:19Z</time>
      </trkpt>
      <trkpt lat="42.97812" lon="-1.80464">
        <ele>589.385</ele>
        <time>2020-05-16T07:31:39Z</time>
      </trkpt>
      <trkpt lat="42.97809" lon="-1.80462">
        <ele>589.387</ele>
        <time>2020-05-16T07:31:59Z</time>
      </trkpt>
      <trkpt lat="42.97805" lon="-1.80459">
        <ele>589.711</ele>
        <time>2020-05-16T07:32:19Z</time>
      </trkpt>
      <trkpt lat="42.97802" lon="-1.80456">
        <ele>589.721</ele>
        <time>2020-05-16T07:32:39Z</time>
      </trkpt>
      <trkpt lat="42.97799" lon="-1.80454">
        <ele>590.703</ele>
        <time>2020-05-16T07:32:59Z</time>
      </trkpt>
      <trkpt lat="42.97796" lon="-1.80453">
        <ele>590.708</ele>
        <time>2020-05-16T07:33:19Z</time>
      </trkpt>
      <trkpt lat="42.97794" lon="-1.80452">
        <ele>590.815</ele>
        <time>2020-05-16T07:33:39Z</time>
      </trkpt>
      <trkpt lat="42.97791" lon="-1.80451">
        <ele>590.82</ele>
        <time>2020-05-16T07:33:59Z</time>
      </trkpt>
      <trkpt lat="42.97788" lon="-1.8045">
        <ele>591.074</ele>
        <time>2020-05-16T07:34:19Z</time>
      </trkpt>
      <trkpt lat="42.97785" lon="-1.80448">
        <ele>591.452</ele>
        <time>2020-05-16T07:34:39Z</time>
      </trkpt>
      <trkpt lat="42.97779" lon="-1.80447">
        <ele>591.657</ele>
        <time>2020-05-16T07:34:59Z</time>
      </trkpt>
      <trkpt lat="42.97771" lon="-1.80446">
        <ele>591.927</ele>
        <time>2020-05-16T07:35:19Z</time>
      </trkpt>
      <trkpt lat="42.97768" lon="-1.80446">
        <ele>592.134</ele>
        <time>2020-05-16T07:35:39Z</time>
      </trkpt>
      <trkpt lat="42.97765" lon="-1.80446">
        <ele>592.116</ele>
        <time>2020-05-16T07:35:59Z</time>
      </trkpt>
      <trkpt lat="42.97759" lon="-1.80447">
        <ele>592.575</ele>
        <time>2020-05-16T07:36:19Z</time>
      </trkpt>
      <trkpt lat="42.97753" lon="-1.80447">
        <ele>592.628</ele>
        <time>2020-05-16T07:36:39Z</time>
      </trkpt>
      <trkpt lat="42.97747" lon="-1.8045">
        <ele>592.62</ele>
        <time>2020-05-16T07:36:59Z</time>
      </trkpt>
      <trkpt lat="42.97738" lon="-1.80453">
        <ele>593.308</ele>
        <time>2020-05-16T07:37:19Z</time>
      </trkpt>
      <trkpt lat="42.9773" lon="-1.80458">
        <ele>593.611</ele>
        <time>2020-05-16T07:37:39Z</time>
      </trkpt>
      <trkpt lat="42.97723" lon="-1.80462">
        <ele>594.376</ele>
        <time>2020-05-16T07:37:59Z</time>
      </trkpt>
      <trkpt lat="42.97712" lon="-1.80471">
        <ele>594.89</ele>
        <time>2020-05-16T07:38:19Z</time>
      </trkpt>
      <trkpt lat="42.977" lon="-1.8048">
        <ele>595.518</ele>
        <time>2020-05-16T07:38:39Z</time>
      </trkpt>
      <trkpt lat="42.97692" lon="-1.80484">
        <ele>596.183</ele>
        <time>2020-05-16T07:38:59Z</time>
      </trkpt>
      <trkpt lat="42.97684" lon="-1.80488">
        <ele>596.553</ele>
        <time>2020-05-16T07:39:19Z</time>
      </trkpt>
      <trkpt lat="42.97679" lon="-1.80489">
        <ele>596.63</ele>
        <time>2020-05-16T07:39:39Z</time>
      </trkpt>
      <trkpt lat="42.97673" lon="-1.80491">
        <ele>597.162</ele>
        <time>2020-05-16T07:39:59Z</time>
      </trkpt>
      <trkpt lat="42.97672" lon="-1.80491">
        <ele>597.125</ele>
        <time>2020-05-16T07:40:19Z</time>
      </trkpt>
      <trkpt lat="42.97604" lon="-1.80482">
        <ele>600.826</ele>
        <time>2020-05-16T07:40:39Z</time>
      </trkpt>
      <trkpt lat="42.97534" lon="-1.80474">
        <ele>605.408</ele>
        <time>2020-05-16T07:40:59Z</time>
      </trkpt>
      <trkpt lat="42.97518" lon="-1.80472">
        <ele>606.108</ele>
        <time>2020-05-16T07:41:19Z</time>
      </trkpt>
      <trkpt lat="42.97496" lon="-1.8047">
        <ele>606.436</ele>
        <time>2020-05-16T07:41:39Z</time>
      </trkpt>
      <trkpt lat="42.9749" lon="-1.80469">
        <ele>606.411</ele>
        <time>2020-05-16T07:41:59Z</time>
      </trkpt>
      <trkpt lat="42.97488" lon="-1.80469">
        <ele>606.455</ele>
        <time>2020-05-16T07:42:19Z</time>
      </trkpt>
      <trkpt lat="42.97477" lon="-1.80466">
        <ele>606.523</ele>
        <time>2020-05-16T07:42:39Z</time>
      </trkpt>
      <trkpt lat="42.97466" lon="-1.80464">
        <ele>606.688</ele>
        <time>2020-05-16T07:42:59Z</time>
      </trkpt>
      <trkpt lat="42.97461" lon="-1.80462">
        <ele>606.758</ele>
        <time>2020-05-16T07:43:19Z</time>
      </trkpt>
      <trkpt lat="42.97459" lon="-1.80461">
        <ele>606.485</ele>
        <time>2020-05-16T07:43:39Z</time>
      </trkpt>
      <trkpt lat="42.97457" lon="-1.8046">
        <ele>606.547</ele>
        <time>2020-05-16T07:43:59Z</time>
      </trkpt>
      <trkpt lat="42.97456" lon="-1.80459">
        <ele>606.579</ele>
        <time>2020-05-16T07:44:19Z</time>
      </trkpt>
      <trkpt lat="42.97452" lon="-1.80456">
        <ele>606.605</ele>
        <time>2020-05-16T07:44:39Z</time>
      </trkpt>
      <trkpt lat="42.97451" lon="-1.80454">
        <ele>606.525</ele>
        <time>2020-05-16T07:44:59Z</time>
      </trkpt>
      <trkpt lat="42.97451" lon="-1.80452">
        <ele>606.508</ele>
        <time>2020-05-16T07:45:19Z</time>
      </trkpt>
      <trkpt lat="42.9745" lon="-1.80451">
        <ele>606.561</ele>
        <time>2020-05-16T07:45:39Z</time>
      </trkpt>
      <trkpt lat="42.97449" lon="-1.8045">
        <ele>606.586</ele>
        <time>2020-05-16T07:45:59Z</time>
      </trkpt>
      <trkpt lat="42.97448" lon="-1.80449">
        <ele>606.56</ele>
        <time>2020-05-16T07:46:19Z</time>
      </trkpt>
      <trkpt lat="42.97448" lon="-1.80447">
        <ele>606.518</ele>
        <time>2020-05-16T07:46:39Z</time>
      </trkpt>
      <trkpt lat="42.97446" lon="-1.80444">
        <ele>606.533</ele>
        <time>2020-05-16T07:46:59Z</time>
      </trkpt>
      <trkpt lat="42.97445" lon="-1.80438">
        <ele>606.353</ele>
        <time>2020-05-16T07:47:19Z</time>
      </trkpt>
      <trkpt lat="42.97444" lon="-1.80437">
        <ele>606.39</ele>
        <time>2020-05-16T07:47:39Z</time>
      </trkpt>
      <trkpt lat="42.97442" lon="-1.80428">
        <ele>606.162</ele>
        <time>2020-05-16T07:47:59Z</time>
      </trkpt>
      <trkpt lat="42.97436" lon="-1.80401">
        <ele>605.549</ele>
        <time>2020-05-16T07:48:19Z</time>
      </trkpt>
      <trkpt lat="42.97435" lon="-1.80394">
        <ele>605.002</ele>
        <time>2020-05-16T07:48:39Z</time>
      </trkpt>
      <trkpt lat="42.97432" lon="-1.80383">
        <ele>604.822</ele>
        <time>2020-05-16T07:48:59Z</time>
      </trkpt>
      <trkpt lat="42.97428" lon="-1.80362">
        <ele>603.808</ele>
        <time>2020-05-16T07:49:19Z</time>
      </trkpt>
      <trkpt lat="42.97423" lon="-1.80339">
        <ele>602.998</ele>
        <time>2020-05-16T07:49:39Z</time>
      </trkpt>
      <trkpt lat="42.97422" lon="-1.80333">
        <ele>602.913</ele>
        <time>2020-05-16T07:49:59Z</time>
      </trkpt>
      <trkpt lat="42.97419" lon="-1.80323">
        <ele>602.427</ele>
        <time>2020-05-16T07:50:19Z</time>
      </trkpt>
      <trkpt lat="42.97417" lon="-1.80317">
        <ele>602.385</ele>
        <time>2020-05-16T07:50:39Z</time>
      </trkpt>
      <trkpt lat="42.97414" lon="-1.80309">
        <ele>601.86</ele>
        <time>2020-05-16T07:50:59Z</time>
      </trkpt>
      <trkpt lat="42.97409" lon="-1.80298">
        <ele>601.48</ele>
        <time>2020-05-16T07:51:19Z</time>
      </trkpt>
      <trkpt lat="42.97403" lon="-1.80284">
        <ele>600.827</ele>
        <time>2020-05-16T07:51:39Z</time>
      </trkpt>
      <trkpt lat="42.9739" lon="-1.80258">
        <ele>599.549</ele>
        <time>2020-05-16T07:51:59Z</time>
      </trkpt>
      <trkpt lat="42.97385" lon="-1.80249">
        <ele>599.395</ele>
        <time>2020-05-16T07:52:19Z</time>
      </trkpt>
      <trkpt lat="42.97378" lon="-1.80235">
        <ele>598.849</ele>
        <time>2020-05-16T07:52:39Z</time>
      </trkpt>
      <trkpt lat="42.97366" lon="-1.80212">
        <ele>598.623</ele>
        <time>2020-05-16T07:52:59Z</time>
      </trkpt>
      <trkpt lat="42.97338" lon="-1.80154">
        <ele>599.208</ele>
        <time>2020-05-16T07:53:19Z</time>
      </trkpt>
      <trkpt lat="42.97329" lon="-1.80138">
        <ele>599.593</ele>
        <time>2020-05-16T07:53:39Z</time>
      </trkpt>
      <trkpt lat="42.97325" lon="-1.80129">
        <ele>599.358</ele>
        <time>2020-05-16T07:53:59Z</time>
      </trkpt>
      <trkpt lat="42.97322" lon="-1.80122">
        <ele>599.492</ele>
        <time>2020-05-16T07:54:19Z</time>
      </trkpt>
      <trkpt lat="42.9732" lon="-1.80117">
        <ele>599.33</ele>
        <time>2020-05-16T07:54:39Z</time>
      </trkpt>
      <trkpt lat="42.97318" lon="-1.80108">
        <ele>599.455</ele>
        <time>2020-05-16T07:54:59Z</time>
      </trkpt>
      <trkpt lat="42.97305" lon="-1.80067">
        <ele>599.285</ele>
        <time>2020-05-16T07:55:19Z</time>
      </trkpt>
      <trkpt lat="42.97302" lon="-1.80057">
        <ele>599.222</ele>
        <time>2020-05-16T07:55:39Z</time>
      </trkpt>
      <trkpt lat="42.973" lon="-1.80052">
        <ele>599.184</ele>
        <time>2020-05-16T07:55:59Z</time>
      </trkpt>
      <trkpt lat="42.97297" lon="-1.80042">
        <ele>599.142</ele>
        <time>2020-05-16T07:56:19Z</time>
      </trkpt>
      <trkpt lat="42.97292" lon="-1.8003">
        <ele>599.122</ele>
        <time>2020-05-16T07:56:39Z</time>
      </trkpt>
      <trkpt lat="42.97289" lon="-1.80022">
        <ele>599.014</ele>
        <time>2020-05-16T07:56:59Z</time>
      </trkpt>
      <trkpt lat="42.97288" lon="-1.80019">
        <ele>599.008</ele>
        <time>2020-05-16T07:57:19Z</time>
      </trkpt>
      <trkpt lat="42.97286" lon="-1.80016">
        <ele>599.038</ele>
        <time>2020-05-16T07:57:39Z</time>
      </trkpt>
      <trkpt lat="42.97286" lon="-1.80015">
        <ele>599.063</ele>
        <time>2020-05-16T07:57:59Z</time>
      </trkpt>
      <trkpt lat="42.97285" lon="-1.80013">
        <ele>599.047</ele>
        <time>2020-05-16T07:58:19Z</time>
      </trkpt>
      <trkpt lat="42.9728" lon="-1.80007">
        <ele>599.085</ele>
        <time>2020-05-16T07:58:39Z</time>
      </trkpt>
      <trkpt lat="42.97274" lon="-1.79999">
        <ele>598.94</ele>
        <time>2020-05-16T07:58:59Z</time>
      </trkpt>
      <trkpt lat="42.97266" lon="-1.7999">
        <ele>598.82</ele>
        <time>2020-05-16T07:59:19Z</time>
      </trkpt>
      <trkpt lat="42.97247" lon="-1.79969">
        <ele>598.827</ele>
        <time>2020-05-16T07:59:39Z</time>
      </trkpt>
      <trkpt lat="42.97242" lon="-1.79964">
        <ele>598.819</ele>
        <time>2020-05-16T07:59:59Z</time>
      </trkpt>
      <trkpt lat="42.97238" lon="-1.7996">
        <ele>598.853</ele>
        <time>2020-05-16T08:00:19Z</time>
      </trkpt>
      <trkpt lat="42.97237" lon="-1.79958">
        <ele>598.804</ele>
        <time>2020-05-16T08:00:39Z</time>
      </trkpt>
      <trkpt lat="42.97234" lon="-1.79954">
        <ele>598.914</ele>
        <time>2020-05-16T08:00:59Z</time>
      </trkpt>
      <trkpt lat="42.97232" lon="-1.79951">
        <ele>598.808</ele>
        <time>2020-05-16T08:01:19Z</time>
      </trkpt>
      <trkpt lat="42.97229" lon="-1.79945">
        <ele>598.959</ele>
        <time>2020-05-16T08:01:39Z</time>
      </trkpt>
      <trkpt lat="42.97226" lon="-1.79938">
        <ele>599.154</ele>
        <time>2020-05-16T08:01:59Z</time>
      </trkpt>
      <trkpt lat="42.97225" lon="-1.79933">
        <ele>599.158</ele>
        <time>2020-05-16T08:02:19Z</time>
      </trkpt>
      <trkpt lat="42.97222" lon="-1.79918">
        <ele>599.426</ele>
        <time>2020-05-16T08:02:39Z</time>
      </trkpt>
      <trkpt lat="42.9722" lon="-1.79907">
        <ele>599.521</ele>
        <time>2020-05-16T08:02:59Z</time>
      </trkpt>
      <trkpt lat="42.97218" lon="-1.79897">
        <ele>600.271</ele>
        <time>2020-05-16T08:03:19Z</time>
      </trkpt>
      <trkpt lat="42.97216" lon="-1.79882">
        <ele>599.968</ele>
        <time>2020-05-16T08:03:39Z</time>
      </trkpt>
      <trkpt lat="42.9721" lon="-1.7984">
        <ele>600.69</ele>
        <time>2020-05-16T08:03:59Z</time>
      </trkpt>
      <trkpt lat="42.97208" lon="-1.79823">
        <ele>600.993</ele>
        <time>2020-05-16T08:04:19Z</time>
      </trkpt>
      <trkpt lat="42.97206" lon="-1.79814">
        <ele>601.065</ele>
        <time>2020-05-16T08:04:39Z</time>
      </trkpt>
      <trkpt lat="42.97205" lon="-1.79805">
        <ele>601.121</ele>
        <time>2020-05-16T08:04:59Z</time>
      </trkpt>
      <trkpt lat="42.97195" lon="-1.7976">
        <ele>601.108</ele>
        <time>2020-05-16T08:05:19Z</time>
      </trkpt>
      <trkpt lat="42.97192" lon="-1.79749">
        <ele>601.033</ele>
        <time>2020-05-16T08:05:39Z</time>
      </trkpt>
      <trkpt lat="42.9719" lon="-1.7974">
        <ele>601.088</ele>
        <time>2020-05-16T08:05:59Z</time>
      </trkpt>
      <trkpt lat="42.97187" lon="-1.79724">
        <ele>600.852</ele>
        <time>2020-05-16T08:06:19Z</time>
      </trkpt>
      <trkpt lat="42.97184" lon="-1.79709">
        <ele>600.81</ele>
        <time>2020-05-16T08:06:39Z</time>
      </trkpt>
      <trkpt lat="42.97183" lon="-1.79703">
        <ele>600.735</ele>
        <time>2020-05-16T08:06:59Z</time>
      </trkpt>
      <trkpt lat="42.97183" lon="-1.79696">
        <ele>600.695</ele>
        <time>2020-05-16T08:07:19Z</time>
      </trkpt>
      <trkpt lat="42.97182" lon="-1.79692">
        <ele>600.542</ele>
        <time>2020-05-16T08:07:39Z</time>
      </trkpt>
      <trkpt lat="42.97183" lon="-1.79688">
        <ele>600.524</ele>
        <time>2020-05-16T08:07:59Z</time>
      </trkpt>
      <trkpt lat="42.97183" lon="-1.79674">
        <ele>600.185</ele>
        <time>2020-05-16T08:08:19Z</time>
      </trkpt>
      <trkpt lat="42.97183" lon="-1.79665">
        <ele>600.089</ele>
        <time>2020-05-16T08:08:39Z</time>
      </trkpt>
      <trkpt lat="42.97185" lon="-1.79643">
        <ele>599.717</ele>
        <time>2020-05-16T08:08:59Z</time>
      </trkpt>
      <trkpt lat="42.97186" lon="-1.79633">
        <ele>599.608</ele>
        <time>2020-05-16T08:09:19Z</time>
      </trkpt>
      <trkpt lat="42.97191" lon="-1.79585">
        <ele>598.932</ele>
        <time>2020-05-16T08:09:39Z</time>
      </trkpt>
      <trkpt lat="42.97192" lon="-1.79576">
        <ele>598.787</ele>
        <time>2020-05-16T08:09:59Z</time>
      </trkpt>
      <trkpt lat="42.97192" lon="-1.7957">
        <ele>598.721</ele>
        <time>2020-05-16T08:10:19Z</time>
      </trkpt>
      <trkpt lat="42.97192" lon="-1.79567">
        <ele>598.719</ele>
        <time>2020-05-16T08:10:39Z</time>
      </trkpt>
      <trkpt lat="42.97192" lon="-1.79564">
        <ele>598.534</ele>
        <time>2020-05-16T08:10:59Z</time>
      </trkpt>
      <trkpt lat="42.97191" lon="-1.79557">
        <ele>598.594</ele>
        <time>2020-05-16T08:11:19Z</time>
      </trkpt>
      <trkpt lat="42.9719" lon="-1.79554">
        <ele>598.511</ele>
        <time>2020-05-16T08:11:39Z</time>
      </trkpt>
      <trkpt lat="42.9719" lon="-1.79551">
        <ele>598.533</ele>
        <time>2020-05-16T08:11:59Z</time>
      </trkpt>
      <trkpt lat="42.97188" lon="-1.79548">
        <ele>598.542</ele>
        <time>2020-05-16T08:12:19Z</time>
      </trkpt>
      <trkpt lat="42.97187" lon="-1.79545">
        <ele>598.522</ele>
        <time>2020-05-16T08:12:39Z</time>
      </trkpt>
      <trkpt lat="42.97185" lon="-1.79543">
        <ele>598.514</ele>
        <time>2020-05-16T08:12:59Z</time>
      </trkpt>
      <trkpt lat="42.97183" lon="-1.7954">
        <ele>598.408</ele>
        <time>2020-05-16T08:13:19Z</time>
      </trkpt>
      <trkpt lat="42.97181" lon="-1.79538">
        <ele>598.498</ele>
        <time>2020-05-16T08:13:39Z</time>
      </trkpt>
      <trkpt lat="42.97174" lon="-1.79534">
        <ele>598.453</ele>
        <time>2020-05-16T08:13:59Z</time>
      </trkpt>
      <trkpt lat="42.9717" lon="-1.79532">
        <ele>598.357</ele>
        <time>2020-05-16T08:14:19Z</time>
      </trkpt>
      <trkpt lat="42.97168" lon="-1.79532">
        <ele>598.275</ele>
        <time>2020-05-16T08:14:39Z</time>
      </trkpt>
      <trkpt lat="42.97164" lon="-1.7953">
        <ele>598.23</ele>
        <time>2020-05-16T08:14:59Z</time>
      </trkpt>
      <trkpt lat="42.97101" lon="-1.79502">
        <ele>598.08</ele>
        <time>2020-05-16T08:15:19Z</time>
      </trkpt>
      <trkpt lat="42.97092" lon="-1.79495">
        <ele>597.977</ele>
        <time>2020-05-16T08:15:39Z</time>
      </trkpt>
      <trkpt lat="42.97083" lon="-1.79488">
        <ele>597.919</ele>
        <time>2020-05-16T08:15:59Z</time>
      </trkpt>
      <trkpt lat="42.97078" lon="-1.79482">
        <ele>597.926</ele>
        <time>2020-05-16T08:16:19Z</time>
      </trkpt>
      <trkpt lat="42.97067" lon="-1.79469">
        <ele>597.847</ele>
        <time>2020-05-16T08:16:39Z</time>
      </trkpt>
      <trkpt lat="42.97046" lon="-1.79445">
        <ele>597.511</ele>
        <time>2020-05-16T08:16:59Z</time>
      </trkpt>
      <trkpt lat="42.9704" lon="-1.79437">
        <ele>597.708</ele>
        <time>2020-05-16T08:17:19Z</time>
      </trkpt>
      <trkpt lat="42.97032" lon="-1.79428">
        <ele>597.496</ele>
        <time>2020-05-16T08:17:39Z</time>
      </trkpt>
      <trkpt lat="42.97012" lon="-1.79403">
        <ele>597.461</ele>
        <time>2020-05-16T08:17:59Z</time>
      </trkpt>
      <trkpt lat="42.96991" lon="-1.79378">
        <ele>597.375</ele>
        <time>2020-05-16T08:18:19Z</time>
      </trkpt>
      <trkpt lat="42.96962" lon="-1.79342">
        <ele>597.313</ele>
        <time>2020-05-16T08:18:39Z</time>
      </trkpt>
      <trkpt lat="42.96961" lon="-1.7934">
        <ele>597.358</ele>
        <time>2020-05-16T08:18:59Z</time>
      </trkpt>
      <trkpt lat="42.9696" lon="-1.79339">
        <ele>597.378</ele>
        <time>2020-05-16T08:19:19Z</time>
      </trkpt>
      <trkpt lat="42.9694" lon="-1.79314">
        <ele>597.255</ele>
        <time>2020-05-16T08:19:39Z</time>
      </trkpt>
      <trkpt lat="42.96933" lon="-1.79305">
        <ele>597.267</ele>
        <time>2020-05-16T08:19:59Z</time>
      </trkpt>
      <trkpt lat="42.96923" lon="-1.79293">
        <ele>597.233</ele>
        <time>2020-05-16T08:20:19Z</time>
      </trkpt>
      <trkpt lat="42.96916" lon="-1.79285">
        <ele>597.323</ele>
        <time>2020-05-16T08:20:39Z</time>
      </trkpt>
      <trkpt lat="42.96911" lon="-1.79279">
        <ele>597.215</ele>
        <time>2020-05-16T08:20:59Z</time>
      </trkpt>
      <trkpt lat="42.9691" lon="-1.79277">
        <ele>597.108</ele>
        <time>2020-05-16T08:21:19Z</time>
      </trkpt>
      <trkpt lat="42.96902" lon="-1.7927">
        <ele>597.297</ele>
        <time>2020-05-16T08:21:39Z</time>
      </trkpt>
      <trkpt lat="42.96897" lon="-1.79266">
        <ele>597.122</ele>
        <time>2020-05-16T08:21:59Z</time>
      </trkpt>
      <trkpt lat="42.96894" lon="-1.79263">
        <ele>597.126</ele>
        <time>2020-05-16T08:22:19Z</time>
      </trkpt>
      <trkpt lat="42.96891" lon="-1.79261">
        <ele>597.064</ele>
        <time>2020-05-16T08:22:39Z</time>
      </trkpt>
      <trkpt lat="42.96888" lon="-1.79259">
        <ele>597.059</ele>
        <time>2020-05-16T08:22:59Z</time>
      </trkpt>
      <trkpt lat="42.96887" lon="-1.79258">
        <ele>597.029</ele>
        <time>2020-05-16T08:23:19Z</time>
      </trkpt>
      <trkpt lat="42.96884" lon="-1.79256">
        <ele>597.046</ele>
        <time>2020-05-16T08:23:39Z</time>
      </trkpt>
      <trkpt lat="42.96882" lon="-1.79255">
        <ele>597.038</ele>
        <time>2020-05-16T08:23:59Z</time>
      </trkpt>
      <trkpt lat="42.96881" lon="-1.79255">
        <ele>597.068</ele>
        <time>2020-05-16T08:24:19Z</time>
      </trkpt>
      <trkpt lat="42.96878" lon="-1.79254">
        <ele>597.042</ele>
        <time>2020-05-16T08:24:39Z</time>
      </trkpt>
      <trkpt lat="42.96877" lon="-1.79254">
        <ele>596.926</ele>
        <time>2020-05-16T08:24:59Z</time>
      </trkpt>
      <trkpt lat="42.96876" lon="-1.79254">
        <ele>596.908</ele>
        <time>2020-05-16T08:25:19Z</time>
      </trkpt>
      <trkpt lat="42.96872" lon="-1.79254">
        <ele>596.95</ele>
        <time>2020-05-16T08:25:39Z</time>
      </trkpt>
      <trkpt lat="42.96869" lon="-1.79254">
        <ele>596.975</ele>
        <time>2020-05-16T08:25:59Z</time>
      </trkpt>
      <trkpt lat="42.96865" lon="-1.79253">
        <ele>596.969</ele>
        <time>2020-05-16T08:26:19Z</time>
      </trkpt>
      <trkpt lat="42.96863" lon="-1.79253">
        <ele>596.937</ele>
        <time>2020-05-16T08:26:39Z</time>
      </trkpt>
      <trkpt lat="42.96862" lon="-1.79253">
        <ele>596.992</ele>
        <time>2020-05-16T08:26:59Z</time>
      </trkpt>
      <trkpt lat="42.96859" lon="-1.79251">
        <ele>596.662</ele>
        <time>2020-05-16T08:27:19Z</time>
      </trkpt>
      <trkpt lat="42.96857" lon="-1.79251">
        <ele>596.679</ele>
        <time>2020-05-16T08:27:39Z</time>
      </trkpt>
      <trkpt lat="42.96856" lon="-1.7925">
        <ele>596.611</ele>
        <time>2020-05-16T08:27:59Z</time>
      </trkpt>
      <trkpt lat="42.96854" lon="-1.79248">
        <ele>596.691</ele>
        <time>2020-05-16T08:28:19Z</time>
      </trkpt>
      <trkpt lat="42.96851" lon="-1.79245">
        <ele>596.181</ele>
        <time>2020-05-16T08:28:39Z</time>
      </trkpt>
      <trkpt lat="42.96847" lon="-1.79241">
        <ele>596.119</ele>
        <time>2020-05-16T08:28:59Z</time>
      </trkpt>
      <trkpt lat="42.96844" lon="-1.79238">
        <ele>596.008</ele>
        <time>2020-05-16T08:29:19Z</time>
      </trkpt>
      <trkpt lat="42.96842" lon="-1.79235">
        <ele>596.053</ele>
        <time>2020-05-16T08:29:39Z</time>
      </trkpt>
      <trkpt lat="42.96831" lon="-1.79221">
        <ele>595.438</ele>
        <time>2020-05-16T08:29:59Z</time>
      </trkpt>
      <trkpt lat="42.96827" lon="-1.79215">
        <ele>595.112</ele>
        <time>2020-05-16T08:30:19Z</time>
      </trkpt>
      <trkpt lat="42.96826" lon="-1.79213">
        <ele>595.16</ele>
        <time>2020-05-16T08:30:39Z</time>
      </trkpt>
      <trkpt lat="42.96819" lon="-1.79205">
        <ele>595.055</ele>
        <time>2020-05-16T08:30:59Z</time>
      </trkpt>
      <trkpt lat="42.96815" lon="-1.79199">
        <ele>594.885</ele>
        <time>2020-05-16T08:31:19Z</time>
      </trkpt>
      <trkpt lat="42.96812" lon="-1.79194">
        <ele>594.552</ele>
        <time>2020-05-16T08:31:39Z</time>
      </trkpt>
      <trkpt lat="42.96809" lon="-1.79191">
        <ele>594.364</ele>
        <time>2020-05-16T08:31:59Z</time>
      </trkpt>
      <trkpt lat="42.96806" lon="-1.79187">
        <ele>594.314</ele>
        <time>2020-05-16T08:32:19Z</time>
      </trkpt>
      <trkpt lat="42.96803" lon="-1.79183">
        <ele>594.254</ele>
        <time>2020-05-16T08:32:39Z</time>
      </trkpt>
      <trkpt lat="42.968" lon="-1.79179">
        <ele>594.009</ele>
        <time>2020-05-16T08:32:59Z</time>
      </trkpt>
      <trkpt lat="42.96796" lon="-1.79174">
        <ele>594.008</ele>
        <time>2020-05-16T08:33:19Z</time>
      </trkpt>
      <trkpt lat="42.96794" lon="-1.79171">
        <ele>593.685</ele>
        <time>2020-05-16T08:33:39Z</time>
      </trkpt>
      <trkpt lat="42.96792" lon="-1.7917">
        <ele>593.65</ele>
        <time>2020-05-16T08:33:59Z</time>
      </trkpt>
      <trkpt lat="42.96789" lon="-1.79168">
        <ele>593.794</ele>
        <time>2020-05-16T08:34:19Z</time>
      </trkpt>
      <trkpt lat="42.96787" lon="-1.79167">
        <ele>593.292</ele>
        <time>2020-05-16T08:34:39Z</time>
      </trkpt>
      <trkpt lat="42.96785" lon="-1.79166">
        <ele>593.297</ele>
        <time>2020-05-16T08:34:59Z</time>
      </trkpt>
      <trkpt lat="42.96784" lon="-1.79165">
        <ele>593.217</ele>
        <time>2020-05-16T08:35:19Z</time>
      </trkpt>
      <trkpt lat="42.9678" lon="-1.79165">
        <ele>592.864</ele>
        <time>2020-05-16T08:35:39Z</time>
      </trkpt>
      <trkpt lat="42.96776" lon="-1.79164">
        <ele>592.686</ele>
        <time>2020-05-16T08:35:59Z</time>
      </trkpt>
      <trkpt lat="42.96773" lon="-1.79164">
        <ele>592.375</ele>
        <time>2020-05-16T08:36:19Z</time>
      </trkpt>
      <trkpt lat="42.96769" lon="-1.79164">
        <ele>592.328</ele>
        <time>2020-05-16T08:36:39Z</time>
      </trkpt>
      <trkpt lat="42.96767" lon="-1.79164">
        <ele>592.02</ele>
        <time>2020-05-16T08:36:59Z</time>
      </trkpt>
      <trkpt lat="42.96766" lon="-1.79165">
        <ele>592.008</ele>
        <time>2020-05-16T08:37:19Z</time>
      </trkpt>
      <trkpt lat="42.96764" lon="-1.79165">
        <ele>591.751</ele>
        <time>2020-05-16T08:37:39Z</time>
      </trkpt>
      <trkpt lat="42.96761" lon="-1.79167">
        <ele>591.716</ele>
        <time>2020-05-16T08:37:59Z</time>
      </trkpt>
      <trkpt lat="42.96759" lon="-1.79168">
        <ele>591.69</ele>
        <time>2020-05-16T08:38:19Z</time>
      </trkpt>
      <trkpt lat="42.96758" lon="-1.79169">
        <ele>591.378</ele>
        <time>2020-05-16T08:38:39Z</time>
      </trkpt>
      <trkpt lat="42.96757" lon="-1.7917">
        <ele>591.333</ele>
        <time>2020-05-16T08:38:59Z</time>
      </trkpt>
      <trkpt lat="42.96755" lon="-1.79171">
        <ele>591.373</ele>
        <time>2020-05-16T08:39:19Z</time>
      </trkpt>
      <trkpt lat="42.96753" lon="-1.79173">
        <ele>591.34</ele>
        <time>2020-05-16T08:39:39Z</time>
      </trkpt>
      <trkpt lat="42.9675" lon="-1.79178">
        <ele>590.892</ele>
        <time>2020-05-16T08:39:59Z</time>
      </trkpt>
      <trkpt lat="42.96748" lon="-1.79181">
        <ele>590.719</ele>
        <time>2020-05-16T08:40:19Z</time>
      </trkpt>
      <trkpt lat="42.96746" lon="-1.79186">
        <ele>590.309</ele>
        <time>2020-05-16T08:40:39Z</time>
      </trkpt>
      <trkpt lat="42.96744" lon="-1.7919">
        <ele>590.119</ele>
        <time>2020-05-16T08:40:59Z</time>
      </trkpt>
      <trkpt lat="42.9674" lon="-1.79199">
        <ele>589.608</ele>
        <time>2020-05-16T08:41:19Z</time>
      </trkpt>
      <trkpt lat="42.96736" lon="-1.79208">
        <ele>589.155</ele>
        <time>2020-05-16T08:41:39Z</time>
      </trkpt>
      <trkpt lat="42.96735" lon="-1.79211">
        <ele>589.16</ele>
        <time>2020-05-16T08:41:59Z</time>
      </trkpt>
      <trkpt lat="42.96733" lon="-1.79213">
        <ele>588.834</ele>
        <time>2020-05-16T08:42:19Z</time>
      </trkpt>
      <trkpt lat="42.96732" lon="-1.79216">
        <ele>588.832</ele>
        <time>2020-05-16T08:42:39Z</time>
      </trkpt>
      <trkpt lat="42.96729" lon="-1.7922">
        <ele>588.317</ele>
        <time>2020-05-16T08:42:59Z</time>
      </trkpt>
      <trkpt lat="42.96726" lon="-1.79223">
        <ele>588.327</ele>
        <time>2020-05-16T08:43:19Z</time>
      </trkpt>
      <trkpt lat="42.96724" lon="-1.79225">
        <ele>588.154</ele>
        <time>2020-05-16T08:43:39Z</time>
      </trkpt>
      <trkpt lat="42.96722" lon="-1.79227">
        <ele>588.116</ele>
        <time>2020-05-16T08:43:59Z</time>
      </trkpt>
      <trkpt lat="42.9672" lon="-1.79229">
        <ele>588.148</ele>
        <time>2020-05-16T08:44:19Z</time>
      </trkpt>
      <trkpt lat="42.96717" lon="-1.79232">
        <ele>588.061</ele>
        <time>2020-05-16T08:44:39Z</time>
      </trkpt>
      <trkpt lat="42.96713" lon="-1.79235">
        <ele>587.717</ele>
        <time>2020-05-16T08:44:59Z</time>
      </trkpt>
      <trkpt lat="42.9671" lon="-1.79236">
        <ele>587.108</ele>
        <time>2020-05-16T08:45:19Z</time>
      </trkpt>
      <trkpt lat="42.96708" lon="-1.79237">
        <ele>587.318</ele>
        <time>2020-05-16T08:45:39Z</time>
      </trkpt>
      <trkpt lat="42.96706" lon="-1.79238">
        <ele>587.073</ele>
        <time>2020-05-16T08:45:59Z</time>
      </trkpt>
      <trkpt lat="42.96702" lon="-1.7924">
        <ele>586.847</ele>
        <time>2020-05-16T08:46:19Z</time>
      </trkpt>
      <trkpt lat="42.96698" lon="-1.79241">
        <ele>586.845</ele>
        <time>2020-05-16T08:46:39Z</time>
      </trkpt>
      <trkpt lat="42.96693" lon="-1.79242">
        <ele>586.75</ele>
        <time>2020-05-16T08:46:59Z</time>
      </trkpt>
      <trkpt lat="42.9669" lon="-1.79242">
        <ele>586.62</ele>
        <time>2020-05-16T08:47:19Z</time>
      </trkpt>
      <trkpt lat="42.96687" lon="-1.79242">
        <ele>586.447</ele>
        <time>2020-05-16T08:47:39Z</time>
      </trkpt>
      <trkpt lat="42.96685" lon="-1.79243">
        <ele>586.459</ele>
        <time>2020-05-16T08:47:59Z</time>
      </trkpt>
      <trkpt lat="42.96683" lon="-1.79242">
        <ele>586.329</ele>
        <time>2020-05-16T08:48:19Z</time>
      </trkpt>
      <trkpt lat="42.9668" lon="-1.79242">
        <ele>586.3</ele>
        <time>2020-05-16T08:48:39Z</time>
      </trkpt>
      <trkpt lat="42.96678" lon="-1.79241">
        <ele>586.22</ele>
        <time>2020-05-16T08:48:59Z</time>
      </trkpt>
      <trkpt lat="42.96676" lon="-1.7924">
        <ele>586.208</ele>
        <time>2020-05-16T08:49:19Z</time>
      </trkpt>
      <trkpt lat="42.96674" lon="-1.79239">
        <ele>586.096</ele>
        <time>2020-05-16T08:49:39Z</time>
      </trkpt>
      <trkpt lat="42.96672" lon="-1.79238">
        <ele>586.071</ele>
        <time>2020-05-16T08:49:59Z</time>
      </trkpt>
      <trkpt lat="42.9667" lon="-1.79237">
        <ele>585.965</ele>
        <time>2020-05-16T08:50:19Z</time>
      </trkpt>
      <trkpt lat="42.96668" lon="-1.79235">
        <ele>585.933</ele>
        <time>2020-05-16T08:50:39Z</time>
      </trkpt>
      <trkpt lat="42.9666" lon="-1.79227">
        <ele>585.498</ele>
        <time>2020-05-16T08:50:59Z</time>
      </trkpt>
      <trkpt lat="42.96651" lon="-1.79218">
        <ele>584.838</ele>
        <time>2020-05-16T08:51:19Z</time>
      </trkpt>
      <trkpt lat="42.96645" lon="-1.79213">
        <ele>584.565</ele>
        <time>2020-05-16T08:51:39Z</time>
      </trkpt>
      <trkpt lat="42.96638" lon="-1.79205">
        <ele>584.357</ele>
        <time>2020-05-16T08:51:59Z</time>
      </trkpt>
      <trkpt lat="42.96635" lon="-1.79201">
        <ele>583.891</ele>
        <time>2020-05-16T08:52:19Z</time>
      </trkpt>
      <trkpt lat="42.96631" lon="-1.79197">
        <ele>583.681</ele>
        <time>2020-05-16T08:52:39Z</time>
      </trkpt>
      <trkpt lat="42.96628" lon="-1.79193">
        <ele>583.319</ele>
        <time>2020-05-16T08:52:59Z</time>
      </trkpt>
      <trkpt lat="42.96626" lon="-1.79188">
        <ele>583.008</ele>
        <time>2020-05-16T08:53:19Z</time>
      </trkpt>
      <trkpt lat="42.96623" lon="-1.79184">
        <ele>583.123</ele>
        <time>2020-05-16T08:53:39Z</time>
      </trkpt>
      <trkpt lat="42.96616" lon="-1.79168">
        <ele>582.148</ele>
        <time>2020-05-16T08:53:59Z</time>
      </trkpt>
      <trkpt lat="42.96613" lon="-1.7916">
        <ele>581.882</ele>
        <time>2020-05-16T08:54:19Z</time>
      </trkpt>
      <trkpt lat="42.96609" lon="-1.7915">
        <ele>581.28</ele>
        <time>2020-05-16T08:54:39Z</time>
      </trkpt>
      <trkpt lat="42.96606" lon="-1.79146">
        <ele>580.845</ele>
        <time>2020-05-16T08:54:59Z</time>
      </trkpt>
      <trkpt lat="42.96605" lon="-1.79143">
        <ele>580.825</ele>
        <time>2020-05-16T08:55:19Z</time>
      </trkpt>
      <trkpt lat="42.96604" lon="-1.79141">
        <ele>580.742</ele>
        <time>2020-05-16T08:55:39Z</time>
      </trkpt>
      <trkpt lat="42.96602" lon="-1.79138">
        <ele>580.134</ele>
        <time>2020-05-16T08:55:59Z</time>
      </trkpt>
      <trkpt lat="42.966" lon="-1.79136">
        <ele>580.162</ele>
        <time>2020-05-16T08:56:19Z</time>
      </trkpt>
      <trkpt lat="42.96598" lon="-1.79135">
        <ele>580.183</ele>
        <time>2020-05-16T08:56:39Z</time>
      </trkpt>
      <trkpt lat="42.96596" lon="-1.79133">
        <ele>579.811</ele>
        <time>2020-05-16T08:56:59Z</time>
      </trkpt>
      <trkpt lat="42.96594" lon="-1.79132">
        <ele>579.808</ele>
        <time>2020-05-16T08:57:19Z</time>
      </trkpt>
      <trkpt lat="42.96592" lon="-1.79131">
        <ele>579.61</ele>
        <time>2020-05-16T08:57:39Z</time>
      </trkpt>
      <trkpt lat="42.96589" lon="-1.7913">
        <ele>579.665</ele>
        <time>2020-05-16T08:57:59Z</time>
      </trkpt>
      <trkpt lat="42.96586" lon="-1.7913">
        <ele>578.899</ele>
        <time>2020-05-16T08:58:19Z</time>
      </trkpt>
      <trkpt lat="42.96584" lon="-1.7913">
        <ele>580.337</ele>
        <time>2020-05-16T08:58:39Z</time>
      </trkpt>
      <trkpt lat="42.96581" lon="-1.7913">
        <ele>580.312</ele>
        <time>2020-05-16T08:58:59Z</time>
      </trkpt>
      <trkpt lat="42.96578" lon="-1.7913">
        <ele>579.932</ele>
        <time>2020-05-16T08:59:19Z</time>
      </trkpt>
      <trkpt lat="42.96576" lon="-1.7913">
        <ele>579.929</ele>
        <time>2020-05-16T08:59:39Z</time>
      </trkpt>
      <trkpt lat="42.96573" lon="-1.79131">
        <ele>578.721</ele>
        <time>2020-05-16T08:59:59Z</time>
      </trkpt>
      <trkpt lat="42.9657" lon="-1.79132">
        <ele>578.396</ele>
        <time>2020-05-16T09:00:19Z</time>
      </trkpt>
      <trkpt lat="42.96568" lon="-1.79133">
        <ele>578.331</ele>
        <time>2020-05-16T09:00:39Z</time>
      </trkpt>
      <trkpt lat="42.96566" lon="-1.79134">
        <ele>578.324</ele>
        <time>2020-05-16T09:00:59Z</time>
      </trkpt>
      <trkpt lat="42.96564" lon="-1.79135">
        <ele>578.108</ele>
        <time>2020-05-16T09:01:19Z</time>
      </trkpt>
      <trkpt lat="42.96562" lon="-1.79136">
        <ele>577.863</ele>
        <time>2020-05-16T09:01:39Z</time>
      </trkpt>
      <trkpt lat="42.9656" lon="-1.79138">
        <ele>577.768</ele>
        <time>2020-05-16T09:01:59Z</time>
      </trkpt>
      <trkpt lat="42.96558" lon="-1.7914">
        <ele>577.772</ele>
        <time>2020-05-16T09:02:19Z</time>
      </trkpt>
      <trkpt lat="42.96554" lon="-1.79144">
        <ele>577.48</ele>
        <time>2020-05-16T09:02:39Z</time>
      </trkpt>
      <trkpt lat="42.96552" lon="-1.79146">
        <ele>577.225</ele>
        <time>2020-05-16T09:02:59Z</time>
      </trkpt>
      <trkpt lat="42.96549" lon="-1.79151">
        <ele>577.025</ele>
        <time>2020-05-16T09:03:19Z</time>
      </trkpt>
      <trkpt lat="42.96546" lon="-1.79156">
        <ele>576.242</ele>
        <time>2020-05-16T09:03:39Z</time>
      </trkpt>
      <trkpt lat="42.96541" lon="-1.79162">
        <ele>576.064</ele>
        <time>2020-05-16T09:03:59Z</time>
      </trkpt>
      <trkpt lat="42.96537" lon="-1.79169">
        <ele>575.754</ele>
        <time>2020-05-16T09:04:19Z</time>
      </trkpt>
      <trkpt lat="42.96533" lon="-1.79177">
        <ele>575.456</ele>
        <time>2020-05-16T09:04:39Z</time>
      </trkpt>
      <trkpt lat="42.96529" lon="-1.79186">
        <ele>574.311</ele>
        <time>2020-05-16T09:04:59Z</time>
      </trkpt>
      <trkpt lat="42.96527" lon="-1.79188">
        <ele>574.308</ele>
        <time>2020-05-16T09:05:19Z</time>
      </trkpt>
      <trkpt lat="42.96526" lon="-1.7919">
        <ele>574.019</ele>
        <time>2020-05-16T09:05:39Z</time>
      </trkpt>
      <trkpt lat="42.96524" lon="-1.79192">
        <ele>574.054</ele>
        <time>2020-05-16T09:05:59Z</time>
      </trkpt>
      <trkpt lat="42.96523" lon="-1.79194">
        <ele>574.098</ele>
        <time>2020-05-16T09:06:19Z</time>
      </trkpt>
      <trkpt lat="42.96522" lon="-1.79196">
        <ele>573.876</ele>
        <time>2020-05-16T09:06:39Z</time>
      </trkpt>
      <trkpt lat="42.96519" lon="-1.79198">
        <ele>573.871</ele>
        <time>2020-05-16T09:06:59Z</time>
      </trkpt>
      <trkpt lat="42.96517" lon="-1.79199">
        <ele>573.761</ele>
        <time>2020-05-16T09:07:19Z</time>
      </trkpt>
      <trkpt lat="42.96515" lon="-1.792">
        <ele>573.778</ele>
        <time>2020-05-16T09:07:39Z</time>
      </trkpt>
      <trkpt lat="42.96513" lon="-1.79201">
        <ele>573.74</ele>
        <time>2020-05-16T09:07:59Z</time>
      </trkpt>
      <trkpt lat="42.96511" lon="-1.79202">
        <ele>573.373</ele>
        <time>2020-05-16T09:08:19Z</time>
      </trkpt>
      <trkpt lat="42.96508" lon="-1.79203">
        <ele>573.385</ele>
        <time>2020-05-16T09:08:39Z</time>
      </trkpt>
      <trkpt lat="42.96506" lon="-1.79203">
        <ele>573.113</ele>
        <time>2020-05-16T09:08:59Z</time>
      </trkpt>
      <trkpt lat="42.96505" lon="-1.79203">
        <ele>573.108</ele>
        <time>2020-05-16T09:09:19Z</time>
      </trkpt>
      <trkpt lat="42.96503" lon="-1.79203">
        <ele>573.061</ele>
        <time>2020-05-16T09:09:39Z</time>
      </trkpt>
      <trkpt lat="42.96501" lon="-1.79203">
        <ele>573.096</ele>
        <time>2020-05-16T09:09:59Z</time>
      </trkpt>
      <trkpt lat="42.96498" lon="-1.79201">
        <ele>572.92</ele>
        <time>2020-05-16T09:10:19Z</time>
      </trkpt>
      <trkpt lat="42.96497" lon="-1.79201">
        <ele>572.928</ele>
        <time>2020-05-16T09:10:39Z</time>
      </trkpt>
      <trkpt lat="42.96495" lon="-1.79199">
        <ele>572.913</ele>
        <time>2020-05-16T09:10:59Z</time>
      </trkpt>
      <trkpt lat="42.96493" lon="-1.79197">
        <ele>572.623</ele>
        <time>2020-05-16T09:11:19Z</time>
      </trkpt>
      <trkpt lat="42.96491" lon="-1.79195">
        <ele>572.62</ele>
        <time>2020-05-16T09:11:39Z</time>
      </trkpt>
      <trkpt lat="42.9649" lon="-1.79193">
        <ele>572.672</ele>
        <time>2020-05-16T09:11:59Z</time>
      </trkpt>
      <trkpt lat="42.96485" lon="-1.79181">
        <ele>572.138</ele>
        <time>2020-05-16T09:12:19Z</time>
      </trkpt>
      <trkpt lat="42.9648" lon="-1.79171">
        <ele>571.67</ele>
        <time>2020-05-16T09:12:39Z</time>
      </trkpt>
      <trkpt lat="42.96472" lon="-1.79152">
        <ele>570.917</ele>
        <time>2020-05-16T09:12:59Z</time>
      </trkpt>
      <trkpt lat="42.9647" lon="-1.79147">
        <ele>570.608</ele>
        <time>2020-05-16T09:13:19Z</time>
      </trkpt>
      <trkpt lat="42.96467" lon="-1.79142">
        <ele>570.447</ele>
        <time>2020-05-16T09:13:39Z</time>
      </trkpt>
      <trkpt lat="42.96464" lon="-1.79138">
        <ele>570.482</ele>
        <time>2020-05-16T09:13:59Z</time>
      </trkpt>
      <trkpt lat="42.96462" lon="-1.79135">
        <ele>570.236</ele>
        <time>2020-05-16T09:14:19Z</time>
      </trkpt>
      <trkpt lat="42.9646" lon="-1.79132">
        <ele>570.294</ele>
        <time>2020-05-16T09:14:39Z</time>
      </trkpt>
      <trkpt lat="42.96459" lon="-1.7913">
        <ele>570.219</ele>
        <time>2020-05-16T09:14:59Z</time>
      </trkpt>
      <trkpt lat="42.96457" lon="-1.79128">
        <ele>569.959</ele>
        <time>2020-05-16T09:15:19Z</time>
      </trkpt>
      <trkpt lat="42.96455" lon="-1.79126">
        <ele>569.966</ele>
        <time>2020-05-16T09:15:39Z</time>
      </trkpt>
      <trkpt lat="42.96452" lon="-1.79124">
        <ele>569.928</ele>
        <time>2020-05-16T09:15:59Z</time>
      </trkpt>
      <trkpt lat="42.96448" lon="-1.79121">
        <ele>569.686</ele>
        <time>2020-05-16T09:16:19Z</time>
      </trkpt>
      <trkpt lat="42.96444" lon="-1.79119">
        <ele>569.86</ele>
        <time>2020-05-16T09:16:39Z</time>
      </trkpt>
      <trkpt lat="42.9644" lon="-1.79116">
        <ele>569.526</ele>
        <time>2020-05-16T09:16:59Z</time>
      </trkpt>
      <trkpt lat="42.96436" lon="-1.79114">
        <ele>569.008</ele>
        <time>2020-05-16T09:17:19Z</time>
      </trkpt>
      <trkpt lat="42.96432" lon="-1.79112">
        <ele>569.212</ele>
        <time>2020-05-16T09:17:39Z</time>
      </trkpt>
      <trkpt lat="42.9643" lon="-1.79112">
        <ele>568.957</ele>
        <time>2020-05-16T09:17:59Z</time>
      </trkpt>
      <trkpt lat="42.96426" lon="-1.79111">
        <ele>568.611</ele>
        <time>2020-05-16T09:18:19Z</time>
      </trkpt>
      <trkpt lat="42.96421" lon="-1.7911">
        <ele>568.149</ele>
        <time>2020-05-16T09:18:39Z</time>
      </trkpt>
      <trkpt lat="42.96419" lon="-1.79109">
        <ele>568.174</ele>
        <time>2020-05-16T09:18:59Z</time>
      </trkpt>
      <trkpt lat="42.96417" lon="-1.79109">
        <ele>567.864</ele>
        <time>2020-05-16T09:19:19Z</time>
      </trkpt>
      <trkpt lat="42.96409" lon="-1.79109">
        <ele>567.691</ele>
        <time>2020-05-16T09:19:39Z</time>
      </trkpt>
      <trkpt lat="42.96399" lon="-1.79109">
        <ele>566.693</ele>
        <time>2020-05-16T09:19:59Z</time>
      </trkpt>
      <trkpt lat="42.96391" lon="-1.79109">
        <ele>566.372</ele>
        <time>2020-05-16T09:20:19Z</time>
      </trkpt>
      <trkpt lat="42.96386" lon="-1.79109">
        <ele>566.013</ele>
        <time>2020-05-16T09:20:39Z</time>
      </trkpt>
      <trkpt lat="42.9638" lon="-1.7911">
        <ele>565.414</ele>
        <time>2020-05-16T09:20:59Z</time>
      </trkpt>
      <trkpt lat="42.96373" lon="-1.7911">
        <ele>565.108</ele>
        <time>2020-05-16T09:21:19Z</time>
      </trkpt>
      <trkpt lat="42.96368" lon="-1.79111">
        <ele>564.321</ele>
        <time>2020-05-16T09:21:39Z</time>
      </trkpt>
      <trkpt lat="42.96365" lon="-1.79111">
        <ele>564.356</ele>
        <time>2020-05-16T09:21:59Z</time>
      </trkpt>
      <trkpt lat="42.96362" lon="-1.79112">
        <ele>564.12</ele>
        <time>2020-05-16T09:22:19Z</time>
      </trkpt>
      <trkpt lat="42.9636" lon="-1.79113">
        <ele>564.178</ele>
        <time>2020-05-16T09:22:39Z</time>
      </trkpt>
      <trkpt lat="42.96358" lon="-1.79114">
        <ele>563.913</ele>
        <time>2020-05-16T09:22:59Z</time>
      </trkpt>
      <trkpt lat="42.96356" lon="-1.79115">
        <ele>563.913</ele>
        <time>2020-05-16T09:23:19Z</time>
      </trkpt>
      <trkpt lat="42.96354" lon="-1.79116">
        <ele>563.41</ele>
        <time>2020-05-16T09:23:39Z</time>
      </trkpt>
      <trkpt lat="42.96347" lon="-1.7912">
        <ele>562.992</ele>
        <time>2020-05-16T09:23:59Z</time>
      </trkpt>
      <trkpt lat="42.96335" lon="-1.79127">
        <ele>562.045</ele>
        <time>2020-05-16T09:24:19Z</time>
      </trkpt>
      <trkpt lat="42.96326" lon="-1.79134">
        <ele>561.247</ele>
        <time>2020-05-16T09:24:39Z</time>
      </trkpt>
      <trkpt lat="42.96323" lon="-1.79136">
        <ele>561.411</ele>
        <time>2020-05-16T09:24:59Z</time>
      </trkpt>
      <trkpt lat="42.96315" lon="-1.79142">
        <ele>560.508</ele>
        <time>2020-05-16T09:25:19Z</time>
      </trkpt>
      <trkpt lat="42.96308" lon="-1.79149">
        <ele>559.568</ele>
        <time>2020-05-16T09:25:39Z</time>
      </trkpt>
      <trkpt lat="42.96301" lon="-1.79154">
        <ele>559.193</ele>
        <time>2020-05-16T09:25:59Z</time>
      </trkpt>
      <trkpt lat="42.96294" lon="-1.79159">
        <ele>558.097</ele>
        <time>2020-05-16T09:26:19Z</time>
      </trkpt>
      <trkpt lat="42.96292" lon="-1.79161">
        <ele>558.025</ele>
        <time>2020-05-16T09:26:39Z</time>
      </trkpt>
      <trkpt lat="42.96288" lon="-1.79164">
        <ele>557.84</ele>
        <time>2020-05-16T09:26:59Z</time>
      </trkpt>
      <trkpt lat="42.96285" lon="-1.79168">
        <ele>557.47</ele>
        <time>2020-05-16T09:27:19Z</time>
      </trkpt>
      <trkpt lat="42.96283" lon="-1.7917">
        <ele>557.427</ele>
        <time>2020-05-16T09:27:39Z</time>
      </trkpt>
      <trkpt lat="42.96281" lon="-1.79172">
        <ele>557.089</ele>
        <time>2020-05-16T09:27:59Z</time>
      </trkpt>
      <trkpt lat="42.96278" lon="-1.79176">
        <ele>556.894</ele>
        <time>2020-05-16T09:28:19Z</time>
      </trkpt>
      <trkpt lat="42.96275" lon="-1.79181">
        <ele>556.557</ele>
        <time>2020-05-16T09:28:39Z</time>
      </trkpt>
      <trkpt lat="42.96273" lon="-1.79183">
        <ele>556.422</ele>
        <time>2020-05-16T09:28:59Z</time>
      </trkpt>
      <trkpt lat="42.96271" lon="-1.79187">
        <ele>555.908</ele>
        <time>2020-05-16T09:29:19Z</time>
      </trkpt>
      <trkpt lat="42.96269" lon="-1.7919">
        <ele>555.843</ele>
        <time>2020-05-16T09:29:39Z</time>
      </trkpt>
      <trkpt lat="42.96266" lon="-1.79195">
        <ele>555.648</ele>
        <time>2020-05-16T09:29:59Z</time>
      </trkpt>
      <trkpt lat="42.96264" lon="-1.792">
        <ele>555.262</ele>
        <time>2020-05-16T09:30:19Z</time>
      </trkpt>
      <trkpt lat="42.9626" lon="-1.79211">
        <ele>554.36</ele>
        <time>2020-05-16T09:30:39Z</time>
      </trkpt>
      <trkpt lat="42.96254" lon="-1.79224">
        <ele>553.655</ele>
        <time>2020-05-16T09:30:59Z</time>
      </trkpt>
      <trkpt lat="42.96249" lon="-1.79235">
        <ele>552.775</ele>
        <time>2020-05-16T09:31:19Z</time>
      </trkpt>
      <trkpt lat="42.96244" lon="-1.79246">
        <ele>552.452</ele>
        <time>2020-05-16T09:31:39Z</time>
      </trkpt>
      <trkpt lat="42.96242" lon="-1.7925">
        <ele>551.714</ele>
        <time>2020-05-16T09:31:59Z</time>
      </trkpt>
      <trkpt lat="42.96241" lon="-1.79253">
        <ele>551.746</ele>
        <time>2020-05-16T09:32:19Z</time>
      </trkpt>
      <trkpt lat="42.96239" lon="-1.79255">
        <ele>551.788</ele>
        <time>2020-05-16T09:32:39Z</time>
      </trkpt>
      <trkpt lat="42.96237" lon="-1.79257">
        <ele>551.316</ele>
        <time>2020-05-16T09:32:59Z</time>
      </trkpt>
      <trkpt lat="42.96235" lon="-1.79258">
        <ele>551.308</ele>
        <time>2020-05-16T09:33:19Z</time>
      </trkpt>
      <trkpt lat="42.96234" lon="-1.79259">
        <ele>551.658</ele>
        <time>2020-05-16T09:33:39Z</time>
      </trkpt>
      <trkpt lat="42.96232" lon="-1.7926">
        <ele>551.253</ele>
        <time>2020-05-16T09:33:59Z</time>
      </trkpt>
      <trkpt lat="42.9623" lon="-1.79261">
        <ele>551.247</ele>
        <time>2020-05-16T09:34:19Z</time>
      </trkpt>
      <trkpt lat="42.96228" lon="-1.79261">
        <ele>551.075</ele>
        <time>2020-05-16T09:34:39Z</time>
      </trkpt>
      <trkpt lat="42.96225" lon="-1.79261">
        <ele>551.01</ele>
        <time>2020-05-16T09:34:59Z</time>
      </trkpt>
      <trkpt lat="42.96223" lon="-1.79261">
        <ele>550.99</ele>
        <time>2020-05-16T09:35:19Z</time>
      </trkpt>
      <trkpt lat="42.96221" lon="-1.7926">
        <ele>551.017</ele>
        <time>2020-05-16T09:35:39Z</time>
      </trkpt>
      <trkpt lat="42.96219" lon="-1.79259">
        <ele>551.099</ele>
        <time>2020-05-16T09:35:59Z</time>
      </trkpt>
      <trkpt lat="42.96217" lon="-1.79257">
        <ele>550.243</ele>
        <time>2020-05-16T09:36:19Z</time>
      </trkpt>
      <trkpt lat="42.96216" lon="-1.79255">
        <ele>550.164</ele>
        <time>2020-05-16T09:36:39Z</time>
      </trkpt>
      <trkpt lat="42.96214" lon="-1.79253">
        <ele>550.11</ele>
        <time>2020-05-16T09:36:59Z</time>
      </trkpt>
      <trkpt lat="42.96213" lon="-1.79251">
        <ele>549.908</ele>
        <time>2020-05-16T09:37:19Z</time>
      </trkpt>
      <trkpt lat="42.96207" lon="-1.7924">
        <ele>549.638</ele>
        <time>2020-05-16T09:37:39Z</time>
      </trkpt>
      <trkpt lat="42.96202" lon="-1.7923">
        <ele>549.283</ele>
        <time>2020-05-16T09:37:59Z</time>
      </trkpt>
      <trkpt lat="42.9619" lon="-1.79206">
        <ele>548.677</ele>
        <time>2020-05-16T09:38:19Z</time>
      </trkpt>
      <trkpt lat="42.96178" lon="-1.79183">
        <ele>547.795</ele>
        <time>2020-05-16T09:38:39Z</time>
      </trkpt>
      <trkpt lat="42.96176" lon="-1.79178">
        <ele>547.78</ele>
        <time>2020-05-16T09:38:59Z</time>
      </trkpt>
      <trkpt lat="42.96173" lon="-1.79173">
        <ele>547.41</ele>
        <time>2020-05-16T09:39:19Z</time>
      </trkpt>
      <trkpt lat="42.96172" lon="-1.79171">
        <ele>547.417</ele>
        <time>2020-05-16T09:39:39Z</time>
      </trkpt>
      <trkpt lat="42.9617" lon="-1.79168">
        <ele>548.359</ele>
        <time>2020-05-16T09:39:59Z</time>
      </trkpt>
      <trkpt lat="42.96168" lon="-1.79165">
        <ele>547.032</ele>
        <time>2020-05-16T09:40:19Z</time>
      </trkpt>
      <trkpt lat="42.96162" lon="-1.79157">
        <ele>546.892</ele>
        <time>2020-05-16T09:40:39Z</time>
      </trkpt>
      <trkpt lat="42.96156" lon="-1.7915">
        <ele>546.311</ele>
        <time>2020-05-16T09:40:59Z</time>
      </trkpt>
      <trkpt lat="42.96155" lon="-1.79149">
        <ele>546.308</ele>
        <time>2020-05-16T09:41:19Z</time>
      </trkpt>
      <trkpt lat="42.96151" lon="-1.79144">
        <ele>546.057</ele>
        <time>2020-05-16T09:41:39Z</time>
      </trkpt>
      <trkpt lat="42.96146" lon="-1.79139">
        <ele>546.222</ele>
        <time>2020-05-16T09:41:59Z</time>
      </trkpt>
      <trkpt lat="42.96145" lon="-1.79137">
        <ele>545.736</ele>
        <time>2020-05-16T09:42:19Z</time>
      </trkpt>
      <trkpt lat="42.96143" lon="-1.79135">
        <ele>545.744</ele>
        <time>2020-05-16T09:42:39Z</time>
      </trkpt>
      <trkpt lat="42.9614" lon="-1.79132">
        <ele>545.549</ele>
        <time>2020-05-16T09:42:59Z</time>
      </trkpt>
      <trkpt lat="42.96137" lon="-1.7913">
        <ele>545.519</ele>
        <time>2020-05-16T09:43:19Z</time>
      </trkpt>
      <trkpt lat="42.96131" lon="-1.79126">
        <ele>545.236</ele>
        <time>2020-05-16T09:43:39Z</time>
      </trkpt>
      <trkpt lat="42.96125" lon="-1.79122">
        <ele>545.028</ele>
        <time>2020-05-16T09:43:59Z</time>
      </trkpt>
      <trkpt lat="42.96104" lon="-1.79112">
        <ele>544.551</ele>
        <time>2020-05-16T09:44:19Z</time>
      </trkpt>
      <trkpt lat="42.96084" lon="-1.79102">
        <ele>543.601</ele>
        <time>2020-05-16T09:44:39Z</time>
      </trkpt>
      <trkpt lat="42.96079" lon="-1.79099">
        <ele>543.611</ele>
        <time>2020-05-16T09:44:59Z</time>
      </trkpt>
      <trkpt lat="42.96075" lon="-1.79097">
        <ele>543.308</ele>
        <time>2020-05-16T09:45:19Z</time>
      </trkpt>
      <trkpt lat="42.96071" lon="-1.79094">
        <ele>543.149</ele>
        <time>2020-05-16T09:45:39Z</time>
      </trkpt>
      <trkpt lat="42.96066" lon="-1.7909">
        <ele>542.914</ele>
        <time>2020-05-16T09:45:59Z</time>
      </trkpt>
      <trkpt lat="42.96047" lon="-1.79075">
        <ele>541.838</ele>
        <time>2020-05-16T09:46:19Z</time>
      </trkpt>
      <trkpt lat="42.96029" lon="-1.79059">
        <ele>540.546</ele>
        <time>2020-05-16T09:46:39Z</time>
      </trkpt>
      <trkpt lat="42.96027" lon="-1.79058">
        <ele>540.521</ele>
        <time>2020-05-16T09:46:59Z</time>
      </trkpt>
      <trkpt lat="42.96025" lon="-1.79056">
        <ele>540.251</ele>
        <time>2020-05-16T09:47:19Z</time>
      </trkpt>
      <trkpt lat="42.96023" lon="-1.79055">
        <ele>540.288</ele>
        <time>2020-05-16T09:47:39Z</time>
      </trkpt>
      <trkpt lat="42.96018" lon="-1.79053">
        <ele>539.92</ele>
        <time>2020-05-16T09:47:59Z</time>
      </trkpt>
      <trkpt lat="42.96017" lon="-1.79052">
        <ele>539.959</ele>
        <time>2020-05-16T09:48:19Z</time>
      </trkpt>
      <trkpt lat="42.96014" lon="-1.79051">
        <ele>539.803</ele>
        <time>2020-05-16T09:48:39Z</time>
      </trkpt>
      <trkpt lat="42.96011" lon="-1.7905">
        <ele>539.423</ele>
        <time>2020-05-16T09:48:59Z</time>
      </trkpt>
      <trkpt lat="42.96007" lon="-1.79049">
        <ele>539.408</ele>
        <time>2020-05-16T09:49:19Z</time>
      </trkpt>
      <trkpt lat="42.95998" lon="-1.79047">
        <ele>538.819</ele>
        <time>2020-05-16T09:49:39Z</time>
      </trkpt>
      <trkpt lat="42.95984" lon="-1.7904">
        <ele>538.294</ele>
        <time>2020-05-16T09:49:59Z</time>
      </trkpt>
      <trkpt lat="42.9598" lon="-1.79051">
        <ele>537.778</ele>
        <time>2020-05-16T09:50:19Z</time>
      </trkpt>
      <trkpt lat="42.95977" lon="-1.79058">
        <ele>537.566</ele>
        <time>2020-05-16T09:50:39Z</time>
      </trkpt>
      <trkpt lat="42.95977" lon="-1.79059">
        <ele>537.511</ele>
        <time>2020-05-16T09:50:59Z</time>
      </trkpt>
      <trkpt lat="42.95974" lon="-1.79067">
        <ele>537.321</ele>
        <time>2020-05-16T09:51:19Z</time>
      </trkpt>
      <trkpt lat="42.95971" lon="-1.79078">
        <ele>536.658</ele>
        <time>2020-05-16T09:51:39Z</time>
      </trkpt>
      <trkpt lat="42.95967" lon="-1.79092">
        <ele>536.44</ele>
        <time>2020-05-16T09:51:59Z</time>
      </trkpt>
      <trkpt lat="42.95963" lon="-1.79105">
        <ele>536.146</ele>
        <time>2020-05-16T09:52:19Z</time>
      </trkpt>
      <trkpt lat="42.95961" lon="-1.79112">
        <ele>536.088</ele>
        <time>2020-05-16T09:52:39Z</time>
      </trkpt>
      <trkpt lat="42.95959" lon="-1.79118">
        <ele>535.916</ele>
        <time>2020-05-16T09:52:59Z</time>
      </trkpt>
      <trkpt lat="42.95955" lon="-1.79132">
        <ele>535.508</ele>
        <time>2020-05-16T09:53:19Z</time>
      </trkpt>
      <trkpt lat="42.95949" lon="-1.79157">
        <ele>534.738</ele>
        <time>2020-05-16T09:53:39Z</time>
      </trkpt>
      <trkpt lat="42.9594" lon="-1.79187">
        <ele>534.083</ele>
        <time>2020-05-16T09:53:59Z</time>
      </trkpt>
      <trkpt lat="42.95938" lon="-1.79195">
        <ele>533.957</ele>
        <time>2020-05-16T09:54:19Z</time>
      </trkpt>
      <trkpt lat="42.95935" lon="-1.79204">
        <ele>534.125</ele>
        <time>2020-05-16T09:54:39Z</time>
      </trkpt>
      <trkpt lat="42.95932" lon="-1.79211">
        <ele>534.98</ele>
        <time>2020-05-16T09:54:59Z</time>
      </trkpt>
      <trkpt lat="42.9593" lon="-1.79216">
        <ele>533.94</ele>
        <time>2020-05-16T09:55:19Z</time>
      </trkpt>
      <trkpt lat="42.95929" lon="-1.79219">
        <ele>533.917</ele>
        <time>2020-05-16T09:55:39Z</time>
      </trkpt>
      <trkpt lat="42.95926" lon="-1.79224">
        <ele>533.359</ele>
        <time>2020-05-16T09:55:59Z</time>
      </trkpt>
      <trkpt lat="42.95924" lon="-1.79226">
        <ele>533.386</ele>
        <time>2020-05-16T09:56:19Z</time>
      </trkpt>
      <trkpt lat="42.95923" lon="-1.79227">
        <ele>533.16</ele>
        <time>2020-05-16T09:56:39Z</time>
      </trkpt>
      <trkpt lat="42.95921" lon="-1.79228">
        <ele>534.126</ele>
        <time>2020-05-16T09:56:59Z</time>
      </trkpt>
      <trkpt lat="42.95917" lon="-1.7923">
        <ele>533.408</ele>
        <time>2020-05-16T09:57:19Z</time>
      </trkpt>
      <trkpt lat="42.95915" lon="-1.79231">
        <ele>533.442</ele>
        <time>2020-05-16T09:57:39Z</time>
      </trkpt>
      <trkpt lat="42.95913" lon="-1.79232">
        <ele>533.237</ele>
        <time>2020-05-16T09:57:59Z</time>
      </trkpt>
      <trkpt lat="42.95908" lon="-1.79232">
        <ele>533.011</ele>
        <time>2020-05-16T09:58:19Z</time>
      </trkpt>
      <trkpt lat="42.95906" lon="-1.79233">
        <ele>533.039</ele>
        <time>2020-05-16T09:58:39Z</time>
      </trkpt>
      <trkpt lat="42.95903" lon="-1.79233">
        <ele>533.094</ele>
        <time>2020-05-16T09:58:59Z</time>
      </trkpt>
      <trkpt lat="42.95899" lon="-1.79232">
        <ele>532.984</ele>
        <time>2020-05-16T09:59:19Z</time>
      </trkpt>
      <trkpt lat="42.95892" lon="-1.79232">
        <ele>532.851</ele>
        <time>2020-05-16T09:59:39Z</time>
      </trkpt>
      <trkpt lat="42.95887" lon="-1.79231">
        <ele>532.613</ele>
        <time>2020-05-16T09:59:59Z</time>
      </trkpt>
      <trkpt lat="42.95883" lon="-1.79231">
        <ele>532.652</ele>
        <time>2020-05-16T10:00:19Z</time>
      </trkpt>
      <trkpt lat="42.95877" lon="-1.79231">
        <ele>532.753</ele>
        <time>2020-05-16T10:00:39Z</time>
      </trkpt>
      <trkpt lat="42.95868" lon="-1.79231">
        <ele>532.808</ele>
        <time>2020-05-16T10:00:59Z</time>
      </trkpt>
      <trkpt lat="42.95854" lon="-1.79232">
        <ele>532.008</ele>
        <time>2020-05-16T10:01:19Z</time>
      </trkpt>
      <trkpt lat="42.9585" lon="-1.79232">
        <ele>532.039</ele>
        <time>2020-05-16T10:01:39Z</time>
      </trkpt>
      <trkpt lat="42.95848" lon="-1.79233">
        <ele>532.034</ele>
        <time>2020-05-16T10:01:59Z</time>
      </trkpt>
      <trkpt lat="42.9584" lon="-1.79235">
        <ele>532.018</ele>
        <time>2020-05-16T10:02:19Z</time>
      </trkpt>
      <trkpt lat="42.95838" lon="-1.79236">
        <ele>531.976</ele>
        <time>2020-05-16T10:02:39Z</time>
      </trkpt>
      <trkpt lat="42.95838" lon="-1.79237">
        <ele>531.821</ele>
        <time>2020-05-16T10:02:59Z</time>
      </trkpt>
      <trkpt lat="42.95835" lon="-1.79238">
        <ele>531.851</ele>
        <time>2020-05-16T10:03:19Z</time>
      </trkpt>
      <trkpt lat="42.95833" lon="-1.7924">
        <ele>531.978</ele>
        <time>2020-05-16T10:03:39Z</time>
      </trkpt>
      <trkpt lat="42.95831" lon="-1.79242">
        <ele>531.95</ele>
        <time>2020-05-16T10:03:59Z</time>
      </trkpt>
      <trkpt lat="42.9583" lon="-1.79243">
        <ele>531.837</ele>
        <time>2020-05-16T10:04:19Z</time>
      </trkpt>
      <trkpt lat="42.95829" lon="-1.79244">
        <ele>531.849</ele>
        <time>2020-05-16T10:04:39Z</time>
      </trkpt>
      <trkpt lat="42.95828" lon="-1.79247">
        <ele>531.913</ele>
        <time>2020-05-16T10:04:59Z</time>
      </trkpt>
      <trkpt lat="42.95828" lon="-1.79249">
        <ele>531.808</ele>
        <time>2020-05-16T10:05:19Z</time>
      </trkpt>
      <trkpt lat="42.95827" lon="-1.79251">
        <ele>531.867</ele>
        <time>2020-05-16T10:05:39Z</time>
      </trkpt>
      <trkpt lat="42.95827" lon="-1.79252">
        <ele>531.832</ele>
        <time>2020-05-16T10:05:59Z</time>
      </trkpt>
      <trkpt lat="42.95827" lon="-1.79254">
        <ele>531.856</ele>
        <time>2020-05-16T10:06:19Z</time>
      </trkpt>
      <trkpt lat="42.95827" lon="-1.79257">
        <ele>531.894</ele>
        <time>2020-05-16T10:06:39Z</time>
      </trkpt>
      <trkpt lat="42.95828" lon="-1.7926">
        <ele>531.849</ele>
        <time>2020-05-16T10:06:59Z</time>
      </trkpt>
      <trkpt lat="42.95828" lon="-1.79262">
        <ele>532.089</ele>
        <time>2020-05-16T10:07:19Z</time>
      </trkpt>
      <trkpt lat="42.95829" lon="-1.79265">
        <ele>531.746</ele>
        <time>2020-05-16T10:07:39Z</time>
      </trkpt>
      <trkpt lat="42.95832" lon="-1.79269">
        <ele>531.958</ele>
        <time>2020-05-16T10:07:59Z</time>
      </trkpt>
      <trkpt lat="42.95835" lon="-1.79274">
        <ele>531.943</ele>
        <time>2020-05-16T10:08:19Z</time>
      </trkpt>
      <trkpt lat="42.95836" lon="-1.79276">
        <ele>531.964</ele>
        <time>2020-05-16T10:08:39Z</time>
      </trkpt>
      <trkpt lat="42.95837" lon="-1.79277">
        <ele>531.91</ele>
        <time>2020-05-16T10:08:59Z</time>
      </trkpt>
      <trkpt lat="42.95838" lon="-1.79278">
        <ele>531.908</ele>
        <time>2020-05-16T10:09:19Z</time>
      </trkpt>
      <trkpt lat="42.95838" lon="-1.79278">
        <ele>531.948</ele>
        <time>2020-05-16T10:09:39Z</time>
      </trkpt>
      <trkpt lat="42.95844" lon="-1.79286">
        <ele>532.263</ele>
        <time>2020-05-16T10:09:59Z</time>
      </trkpt>
      <trkpt lat="42.95854" lon="-1.79296">
        <ele>532.277</ele>
        <time>2020-05-16T10:10:19Z</time>
      </trkpt>
      <trkpt lat="42.95874" lon="-1.79317">
        <ele>532.515</ele>
        <time>2020-05-16T10:10:39Z</time>
      </trkpt>
      <trkpt lat="42.95882" lon="-1.79326">
        <ele>533.26</ele>
        <time>2020-05-16T10:10:59Z</time>
      </trkpt>
      <trkpt lat="42.959" lon="-1.79345">
        <ele>532.83</ele>
        <time>2020-05-16T10:11:19Z</time>
      </trkpt>
      <trkpt lat="42.95916" lon="-1.79361">
        <ele>532.227</ele>
        <time>2020-05-16T10:11:39Z</time>
      </trkpt>
      <trkpt lat="42.95921" lon="-1.79367">
        <ele>532.149</ele>
        <time>2020-05-16T10:11:59Z</time>
      </trkpt>
      <trkpt lat="42.95928" lon="-1.79374">
        <ele>532.034</ele>
        <time>2020-05-16T10:12:19Z</time>
      </trkpt>
      <trkpt lat="42.95932" lon="-1.79379">
        <ele>531.855</ele>
        <time>2020-05-16T10:12:39Z</time>
      </trkpt>
      <trkpt lat="42.95937" lon="-1.79387">
        <ele>531.71</ele>
        <time>2020-05-16T10:12:59Z</time>
      </trkpt>
      <trkpt lat="42.95942" lon="-1.79394">
        <ele>531.608</ele>
        <time>2020-05-16T10:13:19Z</time>
      </trkpt>
      <trkpt lat="42.95948" lon="-1.79404">
        <ele>532.377</ele>
        <time>2020-05-16T10:13:39Z</time>
      </trkpt>
      <trkpt lat="42.95951" lon="-1.79408">
        <ele>531.582</ele>
        <time>2020-05-16T10:13:59Z</time>
      </trkpt>
      <trkpt lat="42.95953" lon="-1.79412">
        <ele>531.646</ele>
        <time>2020-05-16T10:14:19Z</time>
      </trkpt>
      <trkpt lat="42.95957" lon="-1.7942">
        <ele>531.544</ele>
        <time>2020-05-16T10:14:39Z</time>
      </trkpt>
      <trkpt lat="42.95963" lon="-1.79432">
        <ele>531.439</ele>
        <time>2020-05-16T10:14:59Z</time>
      </trkpt>
      <trkpt lat="42.95965" lon="-1.79437">
        <ele>531.019</ele>
        <time>2020-05-16T10:15:19Z</time>
      </trkpt>
      <trkpt lat="42.95972" lon="-1.79457">
        <ele>531.276</ele>
        <time>2020-05-16T10:15:39Z</time>
      </trkpt>
      <trkpt lat="42.95979" lon="-1.79473">
        <ele>531.048</ele>
        <time>2020-05-16T10:15:59Z</time>
      </trkpt>
      <trkpt lat="42.95984" lon="-1.79487">
        <ele>530.881</ele>
        <time>2020-05-16T10:16:19Z</time>
      </trkpt>
      <trkpt lat="42.95996" lon="-1.7952">
        <ele>530.961</ele>
        <time>2020-05-16T10:16:39Z</time>
      </trkpt>
      <trkpt lat="42.95999" lon="-1.79527">
        <ele>530.817</ele>
        <time>2020-05-16T10:16:59Z</time>
      </trkpt>
      <trkpt lat="42.96" lon="-1.79532">
        <ele>530.808</ele>
        <time>2020-05-16T10:17:19Z</time>
      </trkpt>
      <trkpt lat="42.96001" lon="-1.79534">
        <ele>530.952</ele>
        <time>2020-05-16T10:17:39Z</time>
      </trkpt>
      <trkpt lat="42.96002" lon="-1.79536">
        <ele>530.957</ele>
        <time>2020-05-16T10:17:59Z</time>
      </trkpt>
      <trkpt lat="42.96005" lon="-1.7954">
        <ele>530.871</ele>
        <time>2020-05-16T10:18:19Z</time>
      </trkpt>
      <trkpt lat="42.96011" lon="-1.79548">
        <ele>530.629</ele>
        <time>2020-05-16T10:18:39Z</time>
      </trkpt>
      <trkpt lat="42.96013" lon="-1.79551">
        <ele>530.424</ele>
        <time>2020-05-16T10:18:59Z</time>
      </trkpt>
      <trkpt lat="42.96015" lon="-1.79553">
        <ele>530.454</ele>
        <time>2020-05-16T10:19:19Z</time>
      </trkpt>
      <trkpt lat="42.96018" lon="-1.79555">
        <ele>530.361</ele>
        <time>2020-05-16T10:19:39Z</time>
      </trkpt>
      <trkpt lat="42.96021" lon="-1.79558">
        <ele>530.253</ele>
        <time>2020-05-16T10:19:59Z</time>
      </trkpt>
      <trkpt lat="42.96035" lon="-1.79568">
        <ele>529.959</ele>
        <time>2020-05-16T10:20:19Z</time>
      </trkpt>
      <trkpt lat="42.96041" lon="-1.79572">
        <ele>529.703</ele>
        <time>2020-05-16T10:20:39Z</time>
      </trkpt>
      <trkpt lat="42.96042" lon="-1.79574">
        <ele>529.723</ele>
        <time>2020-05-16T10:20:59Z</time>
      </trkpt>
      <trkpt lat="42.96044" lon="-1.79575">
        <ele>529.608</ele>
        <time>2020-05-16T10:21:19Z</time>
      </trkpt>
      <trkpt lat="42.96046" lon="-1.79577">
        <ele>529.699</ele>
        <time>2020-05-16T10:21:39Z</time>
      </trkpt>
      <trkpt lat="42.96047" lon="-1.79579">
        <ele>529.634</ele>
        <time>2020-05-16T10:21:59Z</time>
      </trkpt>
      <trkpt lat="42.9605" lon="-1.79582">
        <ele>529.428</ele>
        <time>2020-05-16T10:22:19Z</time>
      </trkpt>
      <trkpt lat="42.96065" lon="-1.79604">
        <ele>529.216</ele>
        <time>2020-05-16T10:22:39Z</time>
      </trkpt>
      <trkpt lat="42.96078" lon="-1.79624">
        <ele>528.691</ele>
        <time>2020-05-16T10:22:59Z</time>
      </trkpt>
      <trkpt lat="42.96079" lon="-1.79627">
        <ele>528.671</ele>
        <time>2020-05-16T10:23:19Z</time>
      </trkpt>
      <trkpt lat="42.96081" lon="-1.7963">
        <ele>528.548</ele>
        <time>2020-05-16T10:23:39Z</time>
      </trkpt>
      <trkpt lat="42.96081" lon="-1.79633">
        <ele>528.53</ele>
        <time>2020-05-16T10:23:59Z</time>
      </trkpt>
      <trkpt lat="42.96082" lon="-1.79636">
        <ele>528.451</ele>
        <time>2020-05-16T10:24:19Z</time>
      </trkpt>
      <trkpt lat="42.96082" lon="-1.79639">
        <ele>528.401</ele>
        <time>2020-05-16T10:24:39Z</time>
      </trkpt>
      <trkpt lat="42.96082" lon="-1.79641">
        <ele>528.411</ele>
        <time>2020-05-16T10:24:59Z</time>
      </trkpt>
      <trkpt lat="42.96081" lon="-1.79645">
        <ele>528.408</ele>
        <time>2020-05-16T10:25:19Z</time>
      </trkpt>
      <trkpt lat="42.9608" lon="-1.79649">
        <ele>528.259</ele>
        <time>2020-05-16T10:25:39Z</time>
      </trkpt>
      <trkpt lat="42.96078" lon="-1.79653">
        <ele>528.274</ele>
        <time>2020-05-16T10:25:59Z</time>
      </trkpt>
      <trkpt lat="42.96076" lon="-1.79657">
        <ele>528.368</ele>
        <time>2020-05-16T10:26:19Z</time>
      </trkpt>
      <trkpt lat="42.96073" lon="-1.79662">
        <ele>528.456</ele>
        <time>2020-05-16T10:26:39Z</time>
      </trkpt>
      <trkpt lat="42.9607" lon="-1.79665">
        <ele>528.481</ele>
        <time>2020-05-16T10:26:59Z</time>
      </trkpt>
      <trkpt lat="42.96068" lon="-1.79666">
        <ele>528.111</ele>
        <time>2020-05-16T10:27:19Z</time>
      </trkpt>
      <trkpt lat="42.96067" lon="-1.79668">
        <ele>528.548</ele>
        <time>2020-05-16T10:27:39Z</time>
      </trkpt>
      <trkpt lat="42.96065" lon="-1.79669">
        <ele>528.59</ele>
        <time>2020-05-16T10:27:59Z</time>
      </trkpt>
      <trkpt lat="42.96063" lon="-1.7967">
        <ele>528.539</ele>
        <time>2020-05-16T10:28:19Z</time>
      </trkpt>
      <trkpt lat="42.96061" lon="-1.7967">
        <ele>528.701</ele>
        <time>2020-05-16T10:28:39Z</time>
      </trkpt>
      <trkpt lat="42.9606" lon="-1.7967">
        <ele>528.721</ele>
        <time>2020-05-16T10:28:59Z</time>
      </trkpt>
      <trkpt lat="42.96058" lon="-1.7967">
        <ele>528.808</ele>
        <time>2020-05-16T10:29:19Z</time>
      </trkpt>
      <trkpt lat="42.96056" lon="-1.7967">
        <ele>528.857</ele>
        <time>2020-05-16T10:29:39Z</time>
      </trkpt>
      <trkpt lat="42.9605" lon="-1.79667">
        <ele>529.022</ele>
        <time>2020-05-16T10:29:59Z</time>
      </trkpt>
      <trkpt lat="42.96044" lon="-1.79665">
        <ele>529.476</ele>
        <time>2020-05-16T10:30:19Z</time>
      </trkpt>
      <trkpt lat="42.96038" lon="-1.79664">
        <ele>529.464</ele>
        <time>2020-05-16T10:30:39Z</time>
      </trkpt>
      <trkpt lat="42.96032" lon="-1.79663">
        <ele>529.689</ele>
        <time>2020-05-16T10:30:59Z</time>
      </trkpt>
      <trkpt lat="42.96027" lon="-1.79664">
        <ele>530.189</ele>
        <time>2020-05-16T10:31:19Z</time>
      </trkpt>
      <trkpt lat="42.96022" lon="-1.79665">
        <ele>530.356</ele>
        <time>2020-05-16T10:31:39Z</time>
      </trkpt>
      <trkpt lat="42.96017" lon="-1.79669">
        <ele>530.658</ele>
        <time>2020-05-16T10:31:59Z</time>
      </trkpt>
      <trkpt lat="42.96011" lon="-1.79672">
        <ele>531.323</ele>
        <time>2020-05-16T10:32:19Z</time>
      </trkpt>
      <trkpt lat="42.95992" lon="-1.79698">
        <ele>532.083</ele>
        <time>2020-05-16T10:32:39Z</time>
      </trkpt>
      <trkpt lat="42.95974" lon="-1.79724">
        <ele>532.711</ele>
        <time>2020-05-16T10:32:59Z</time>
      </trkpt>
      <trkpt lat="42.95971" lon="-1.79729">
        <ele>532.708</ele>
        <time>2020-05-16T10:33:19Z</time>
      </trkpt>
      <trkpt lat="42.95967" lon="-1.79734">
        <ele>532.726</ele>
        <time>2020-05-16T10:33:39Z</time>
      </trkpt>
      <trkpt lat="42.95961" lon="-1.79748">
        <ele>532.961</ele>
        <time>2020-05-16T10:33:59Z</time>
      </trkpt>
      <trkpt lat="42.95955" lon="-1.79761">
        <ele>533.455</ele>
        <time>2020-05-16T10:34:19Z</time>
      </trkpt>
      <trkpt lat="42.95946" lon="-1.79773">
        <ele>533.323</ele>
        <time>2020-05-16T10:34:39Z</time>
      </trkpt>
      <trkpt lat="42.95938" lon="-1.79784">
        <ele>533.548</ele>
        <time>2020-05-16T10:34:59Z</time>
      </trkpt>
      <trkpt lat="42.9593" lon="-1.79791">
        <ele>533.468</ele>
        <time>2020-05-16T10:35:19Z</time>
      </trkpt>
      <trkpt lat="42.95923" lon="-1.79798">
        <ele>534.395</ele>
        <time>2020-05-16T10:35:39Z</time>
      </trkpt>
      <trkpt lat="42.95911" lon="-1.79807">
        <ele>534.117</ele>
        <time>2020-05-16T10:35:59Z</time>
      </trkpt>
      <trkpt lat="42.95898" lon="-1.79816">
        <ele>534.231</ele>
        <time>2020-05-16T10:36:19Z</time>
      </trkpt>
      <trkpt lat="42.9589" lon="-1.79819">
        <ele>534.761</ele>
        <time>2020-05-16T10:36:39Z</time>
      </trkpt>
      <trkpt lat="42.95883" lon="-1.79822">
        <ele>534.607</ele>
        <time>2020-05-16T10:36:59Z</time>
      </trkpt>
      <trkpt lat="42.95875" lon="-1.79824">
        <ele>534.808</ele>
        <time>2020-05-16T10:37:19Z</time>
      </trkpt>
      <trkpt lat="42.95866" lon="-1.79827">
        <ele>534.817</ele>
        <time>2020-05-16T10:37:39Z</time>
      </trkpt>
      <trkpt lat="42.95859" lon="-1.79826">
        <ele>534.972</ele>
        <time>2020-05-16T10:37:59Z</time>
      </trkpt>
      <trkpt lat="42.95851" lon="-1.79826">
        <ele>535.016</ele>
        <time>2020-05-16T10:38:19Z</time>
      </trkpt>
      <trkpt lat="42.95846" lon="-1.79824">
        <ele>535.254</ele>
        <time>2020-05-16T10:38:39Z</time>
      </trkpt>
      <trkpt lat="42.95842" lon="-1.79823">
        <ele>534.849</ele>
        <time>2020-05-16T10:38:59Z</time>
      </trkpt>
      <trkpt lat="42.95838" lon="-1.79822">
        <ele>534.889</ele>
        <time>2020-05-16T10:39:19Z</time>
      </trkpt>
      <trkpt lat="42.95837" lon="-1.79822">
        <ele>534.846</ele>
        <time>2020-05-16T10:39:39Z</time>
      </trkpt>
      <trkpt lat="42.95834" lon="-1.7982">
        <ele>534.978</ele>
        <time>2020-05-16T10:39:59Z</time>
      </trkpt>
      <trkpt lat="42.9583" lon="-1.79819">
        <ele>536.154</ele>
        <time>2020-05-16T10:40:19Z</time>
      </trkpt>
      <trkpt lat="42.95825" lon="-1.79817">
        <ele>534.656</ele>
        <time>2020-05-16T10:40:39Z</time>
      </trkpt>
      <trkpt lat="42.95819" lon="-1.79814">
        <ele>534.611</ele>
        <time>2020-05-16T10:40:59Z</time>
      </trkpt>
      <trkpt lat="42.9581" lon="-1.79809">
        <ele>534.508</ele>
        <time>2020-05-16T10:41:19Z</time>
      </trkpt>
      <trkpt lat="42.95806" lon="-1.79807">
        <ele>534.599</ele>
        <time>2020-05-16T10:41:39Z</time>
      </trkpt>
      <trkpt lat="42.95804" lon="-1.79806">
        <ele>534.634</ele>
        <time>2020-05-16T10:41:59Z</time>
      </trkpt>
      <trkpt lat="42.958" lon="-1.79806">
        <ele>534.798</ele>
        <time>2020-05-16T10:42:19Z</time>
      </trkpt>
      <trkpt lat="42.95797" lon="-1.79805">
        <ele>534.786</ele>
        <time>2020-05-16T10:42:39Z</time>
      </trkpt>
      <trkpt lat="42.95795" lon="-1.79805">
        <ele>534.741</ele>
        <time>2020-05-16T10:42:59Z</time>
      </trkpt>
      <trkpt lat="42.95792" lon="-1.79805">
        <ele>534.851</ele>
        <time>2020-05-16T10:43:19Z</time>
      </trkpt>
      <trkpt lat="42.9579" lon="-1.79806">
        <ele>534.888</ele>
        <time>2020-05-16T10:43:39Z</time>
      </trkpt>
      <trkpt lat="42.95788" lon="-1.79806">
        <ele>535.11</ele>
        <time>2020-05-16T10:43:59Z</time>
      </trkpt>
      <trkpt lat="42.95786" lon="-1.79807">
        <ele>534.833</ele>
        <time>2020-05-16T10:44:19Z</time>
      </trkpt>
      <trkpt lat="42.95785" lon="-1.79808">
        <ele>534.823</ele>
        <time>2020-05-16T10:44:39Z</time>
      </trkpt>
      <trkpt lat="42.95783" lon="-1.79809">
        <ele>535.015</ele>
        <time>2020-05-16T10:44:59Z</time>
      </trkpt>
      <trkpt lat="42.9578" lon="-1.79811">
        <ele>535.208</ele>
        <time>2020-05-16T10:45:19Z</time>
      </trkpt>
      <trkpt lat="42.95778" lon="-1.79813">
        <ele>535.057</ele>
        <time>2020-05-16T10:45:39Z</time>
      </trkpt>
      <trkpt lat="42.95776" lon="-1.79816">
        <ele>535.312</ele>
        <time>2020-05-16T10:45:59Z</time>
      </trkpt>
      <trkpt lat="42.95773" lon="-1.7982">
        <ele>536.976</ele>
        <time>2020-05-16T10:46:19Z</time>
      </trkpt>
      <trkpt lat="42.95772" lon="-1.79822">
        <ele>536.954</ele>
        <time>2020-05-16T10:46:39Z</time>
      </trkpt>
      <trkpt lat="42.95771" lon="-1.79824">
        <ele>535.599</ele>
        <time>2020-05-16T10:46:59Z</time>
      </trkpt>
      <trkpt lat="42.95767" lon="-1.79831">
        <ele>535.629</ele>
        <time>2020-05-16T10:47:19Z</time>
      </trkpt>
      <trkpt lat="42.95765" lon="-1.79835">
        <ele>535.666</ele>
        <time>2020-05-16T10:47:39Z</time>
      </trkpt>
      <trkpt lat="42.95763" lon="-1.7984">
        <ele>535.558</ele>
        <time>2020-05-16T10:47:59Z</time>
      </trkpt>
      <trkpt lat="42.95761" lon="-1.79847">
        <ele>535.499</ele>
        <time>2020-05-16T10:48:19Z</time>
      </trkpt>
      <trkpt lat="42.95759" lon="-1.79853">
        <ele>535.607</ele>
        <time>2020-05-16T10:48:39Z</time>
      </trkpt>
      <trkpt lat="42.95757" lon="-1.79861">
        <ele>535.427</ele>
        <time>2020-05-16T10:48:59Z</time>
      </trkpt>
      <trkpt lat="42.95756" lon="-1.79868">
        <ele>535.408</ele>
        <time>2020-05-16T10:49:19Z</time>
      </trkpt>
      <trkpt lat="42.95755" lon="-1.79874">
        <ele>536.163</ele>
        <time>2020-05-16T10:49:39Z</time>
      </trkpt>
      <trkpt lat="42.95754" lon="-1.79882">
        <ele>535.288</ele>
        <time>2020-05-16T10:49:59Z</time>
      </trkpt>
      <trkpt lat="42.95753" lon="-1.79887">
        <ele>535.242</ele>
        <time>2020-05-16T10:50:19Z</time>
      </trkpt>
      <trkpt lat="42.95751" lon="-1.79906">
        <ele>534.99</ele>
        <time>2020-05-16T10:50:39Z</time>
      </trkpt>
      <trkpt lat="42.95748" lon="-1.79931">
        <ele>534.535</ele>
        <time>2020-05-16T10:50:59Z</time>
      </trkpt>
      <trkpt lat="42.95747" lon="-1.79945">
        <ele>534.415</ele>
        <time>2020-05-16T10:51:19Z</time>
      </trkpt>
      <trkpt lat="42.95746" lon="-1.79956">
        <ele>534.242</ele>
        <time>2020-05-16T10:51:39Z</time>
      </trkpt>
      <trkpt lat="42.95744" lon="-1.79969">
        <ele>534.234</ele>
        <time>2020-05-16T10:51:59Z</time>
      </trkpt>
      <trkpt lat="42.95742" lon="-1.7998">
        <ele>534.876</ele>
        <time>2020-05-16T10:52:19Z</time>
      </trkpt>
      <trkpt lat="42.95741" lon="-1.79988">
        <ele>533.99</ele>
        <time>2020-05-16T10:52:39Z</time>
      </trkpt>
      <trkpt lat="42.9574" lon="-1.79993">
        <ele>534.019</ele>
        <time>2020-05-16T10:52:59Z</time>
      </trkpt>
      <trkpt lat="42.95739" lon="-1.8">
        <ele>535.108</ele>
        <time>2020-05-16T10:53:19Z</time>
      </trkpt>
      <trkpt lat="42.95737" lon="-1.80007">
        <ele>533.541</ele>
        <time>2020-05-16T10:53:39Z</time>
      </trkpt>
      <trkpt lat="42.95735" lon="-1.80014">
        <ele>533.576</ele>
        <time>2020-05-16T10:53:59Z</time>
      </trkpt>
      <trkpt lat="42.95734" lon="-1.80021">
        <ele>533.56</ele>
        <time>2020-05-16T10:54:19Z</time>
      </trkpt>
      <trkpt lat="42.95731" lon="-1.8003">
        <ele>533.548</ele>
        <time>2020-05-16T10:54:39Z</time>
      </trkpt>
      <trkpt lat="42.95729" lon="-1.80039">
        <ele>533.263</ele>
        <time>2020-05-16T10:54:59Z</time>
      </trkpt>
      <trkpt lat="42.95726" lon="-1.80048">
        <ele>533.933</ele>
        <time>2020-05-16T10:55:19Z</time>
      </trkpt>
      <trkpt lat="42.95723" lon="-1.80056">
        <ele>533.31</ele>
        <time>2020-05-16T10:55:39Z</time>
      </trkpt>
      <trkpt lat="42.95721" lon="-1.80062">
        <ele>533.582</ele>
        <time>2020-05-16T10:55:59Z</time>
      </trkpt>
      <trkpt lat="42.95718" lon="-1.80069">
        <ele>533.171</ele>
        <time>2020-05-16T10:56:19Z</time>
      </trkpt>
      <trkpt lat="42.95715" lon="-1.80077">
        <ele>533.041</ele>
        <time>2020-05-16T10:56:39Z</time>
      </trkpt>
      <trkpt lat="42.95711" lon="-1.80085">
        <ele>533.015</ele>
        <time>2020-05-16T10:56:59Z</time>
      </trkpt>
      <trkpt lat="42.95709" lon="-1.8009">
        <ele>533.008</ele>
        <time>2020-05-16T10:57:19Z</time>
      </trkpt>
      <trkpt lat="42.95706" lon="-1.80095">
        <ele>533.091</ele>
        <time>2020-05-16T10:57:39Z</time>
      </trkpt>
      <trkpt lat="42.95701" lon="-1.80104">
        <ele>532.956</ele>
        <time>2020-05-16T10:57:59Z</time>
      </trkpt>
      <trkpt lat="42.95699" lon="-1.80107">
        <ele>532.95</ele>
        <time>2020-05-16T10:58:19Z</time>
      </trkpt>
      <trkpt lat="42.95696" lon="-1.8011">
        <ele>532.818</ele>
        <time>2020-05-16T10:58:39Z</time>
      </trkpt>
      <trkpt lat="42.95694" lon="-1.80113">
        <ele>532.853</ele>
        <time>2020-05-16T10:58:59Z</time>
      </trkpt>
      <trkpt lat="42.95692" lon="-1.80116">
        <ele>535.093</ele>
        <time>2020-05-16T10:59:19Z</time>
      </trkpt>
      <trkpt lat="42.95691" lon="-1.80117">
        <ele>535.03</ele>
        <time>2020-05-16T10:59:39Z</time>
      </trkpt>
      <trkpt lat="42.95689" lon="-1.80118">
        <ele>535.052</ele>
        <time>2020-05-16T10:59:59Z</time>
      </trkpt>
      <trkpt lat="42.95687" lon="-1.8012">
        <ele>532.882</ele>
        <time>2020-05-16T11:00:19Z</time>
      </trkpt>
      <trkpt lat="42.95685" lon="-1.80121">
        <ele>532.543</ele>
        <time>2020-05-16T11:00:39Z</time>
      </trkpt>
      <trkpt lat="42.95682" lon="-1.80123">
        <ele>532.617</ele>
        <time>2020-05-16T11:00:59Z</time>
      </trkpt>
      <trkpt lat="42.95675" lon="-1.80126">
        <ele>532.308</ele>
        <time>2020-05-16T11:01:19Z</time>
      </trkpt>
      <trkpt lat="42.95669" lon="-1.80129">
        <ele>533.772</ele>
        <time>2020-05-16T11:01:39Z</time>
      </trkpt>
      <trkpt lat="42.95656" lon="-1.80134">
        <ele>531.487</ele>
        <time>2020-05-16T11:01:59Z</time>
      </trkpt>
      <trkpt lat="42.95646" lon="-1.80138">
        <ele>531.091</ele>
        <time>2020-05-16T11:02:19Z</time>
      </trkpt>
      <trkpt lat="42.95638" lon="-1.80141">
        <ele>533.659</ele>
        <time>2020-05-16T11:02:39Z</time>
      </trkpt>
      <trkpt lat="42.9561" lon="-1.80151">
        <ele>528.974</ele>
        <time>2020-05-16T11:02:59Z</time>
      </trkpt>
      <trkpt lat="42.95589" lon="-1.80159">
        <ele>527.854</ele>
        <time>2020-05-16T11:03:19Z</time>
      </trkpt>
      <trkpt lat="42.95585" lon="-1.80161">
        <ele>528.261</ele>
        <time>2020-05-16T11:03:39Z</time>
      </trkpt>
      <trkpt lat="42.95581" lon="-1.80163">
        <ele>527.323</ele>
        <time>2020-05-16T11:03:59Z</time>
      </trkpt>
      <trkpt lat="42.95579" lon="-1.80165">
        <ele>527.342</ele>
        <time>2020-05-16T11:04:19Z</time>
      </trkpt>
      <trkpt lat="42.95577" lon="-1.80166">
        <ele>527.122</ele>
        <time>2020-05-16T11:04:39Z</time>
      </trkpt>
      <trkpt lat="42.95574" lon="-1.80168">
        <ele>526.814</ele>
        <time>2020-05-16T11:04:59Z</time>
      </trkpt>
      <trkpt lat="42.95572" lon="-1.8017">
        <ele>526.908</ele>
        <time>2020-05-16T11:05:19Z</time>
      </trkpt>
      <trkpt lat="42.95566" lon="-1.80177">
        <ele>526.678</ele>
        <time>2020-05-16T11:05:39Z</time>
      </trkpt>
      <trkpt lat="42.95561" lon="-1.80183">
        <ele>526.543</ele>
        <time>2020-05-16T11:05:59Z</time>
      </trkpt>
      <trkpt lat="42.95558" lon="-1.80187">
        <ele>525.977</ele>
        <time>2020-05-16T11:06:19Z</time>
      </trkpt>
      <trkpt lat="42.95555" lon="-1.80191">
        <ele>525.985</ele>
        <time>2020-05-16T11:06:39Z</time>
      </trkpt>
      <trkpt lat="42.95551" lon="-1.80194">
        <ele>526.18</ele>
        <time>2020-05-16T11:06:59Z</time>
      </trkpt>
      <trkpt lat="42.95548" lon="-1.80197">
        <ele>525.81</ele>
        <time>2020-05-16T11:07:19Z</time>
      </trkpt>
      <trkpt lat="42.95545" lon="-1.802">
        <ele>526.157</ele>
        <time>2020-05-16T11:07:39Z</time>
      </trkpt>
      <trkpt lat="42.95542" lon="-1.80202">
        <ele>526.129</ele>
        <time>2020-05-16T11:07:59Z</time>
      </trkpt>
      <trkpt lat="42.95534" lon="-1.80207">
        <ele>525.278</ele>
        <time>2020-05-16T11:08:19Z</time>
      </trkpt>
      <trkpt lat="42.95527" lon="-1.80213">
        <ele>525.533</ele>
        <time>2020-05-16T11:08:39Z</time>
      </trkpt>
      <trkpt lat="42.95516" lon="-1.80221">
        <ele>524.426</ele>
        <time>2020-05-16T11:08:59Z</time>
      </trkpt>
      <trkpt lat="42.95505" lon="-1.8023">
        <ele>523.808</ele>
        <time>2020-05-16T11:09:19Z</time>
      </trkpt>
      <trkpt lat="42.95494" lon="-1.80238">
        <ele>524.091</ele>
        <time>2020-05-16T11:09:39Z</time>
      </trkpt>
      <trkpt lat="42.95483" lon="-1.80246">
        <ele>523.096</ele>
        <time>2020-05-16T11:09:59Z</time>
      </trkpt>
      <trkpt lat="42.95478" lon="-1.80249">
        <ele>522.93</ele>
        <time>2020-05-16T11:10:19Z</time>
      </trkpt>
      <trkpt lat="42.95471" lon="-1.80253">
        <ele>522.728</ele>
        <time>2020-05-16T11:10:39Z</time>
      </trkpt>
      <trkpt lat="42.95465" lon="-1.80256">
        <ele>522.373</ele>
        <time>2020-05-16T11:10:59Z</time>
      </trkpt>
      <trkpt lat="42.95459" lon="-1.80259">
        <ele>522.243</ele>
        <time>2020-05-16T11:11:19Z</time>
      </trkpt>
      <trkpt lat="42.95447" lon="-1.80263">
        <ele>522.42</ele>
        <time>2020-05-16T11:11:39Z</time>
      </trkpt>
      <trkpt lat="42.95431" lon="-1.80267">
        <ele>523.712</ele>
        <time>2020-05-16T11:11:59Z</time>
      </trkpt>
      <trkpt lat="42.95427" lon="-1.80268">
        <ele>522.884</ele>
        <time>2020-05-16T11:12:19Z</time>
      </trkpt>
      <trkpt lat="42.95423" lon="-1.80269">
        <ele>521.807</ele>
        <time>2020-05-16T11:12:39Z</time>
      </trkpt>
      <trkpt lat="42.95416" lon="-1.8027">
        <ele>521.217</ele>
        <time>2020-05-16T11:12:59Z</time>
      </trkpt>
      <trkpt lat="42.9541" lon="-1.80271">
        <ele>520.608</ele>
        <time>2020-05-16T11:13:19Z</time>
      </trkpt>
      <trkpt lat="42.95402" lon="-1.80271">
        <ele>520.122</ele>
        <time>2020-05-16T11:13:39Z</time>
      </trkpt>
      <trkpt lat="42.95394" lon="-1.80272">
        <ele>520.117</ele>
        <time>2020-05-16T11:13:59Z</time>
      </trkpt>
      <trkpt lat="42.95392" lon="-1.80272">
        <ele>519.971</ele>
        <time>2020-05-16T11:14:19Z</time>
      </trkpt>
      <trkpt lat="42.95389" lon="-1.80271">
        <ele>519.989</ele>
        <time>2020-05-16T11:14:39Z</time>
      </trkpt>
      <trkpt lat="42.95384" lon="-1.80271">
        <ele>519.984</ele>
        <time>2020-05-16T11:14:59Z</time>
      </trkpt>
      <trkpt lat="42.95378" lon="-1.8027">
        <ele>519.924</ele>
        <time>2020-05-16T11:15:19Z</time>
      </trkpt>
      <trkpt lat="42.95376" lon="-1.80269">
        <ele>519.961</ele>
        <time>2020-05-16T11:15:39Z</time>
      </trkpt>
      <trkpt lat="42.95372" lon="-1.80268">
        <ele>519.543</ele>
        <time>2020-05-16T11:15:59Z</time>
      </trkpt>
      <trkpt lat="42.9537" lon="-1.80268">
        <ele>519.617</ele>
        <time>2020-05-16T11:16:19Z</time>
      </trkpt>
      <trkpt lat="42.95367" lon="-1.80266">
        <ele>521.087</ele>
        <time>2020-05-16T11:16:39Z</time>
      </trkpt>
      <trkpt lat="42.95363" lon="-1.80264">
        <ele>521.015</ele>
        <time>2020-05-16T11:16:59Z</time>
      </trkpt>
      <trkpt lat="42.9536" lon="-1.80262">
        <ele>519.308</ele>
        <time>2020-05-16T11:17:19Z</time>
      </trkpt>
      <trkpt lat="42.95356" lon="-1.8026">
        <ele>519.365</ele>
        <time>2020-05-16T11:17:39Z</time>
      </trkpt>
      <trkpt lat="42.95352" lon="-1.80257">
        <ele>519.63</ele>
        <time>2020-05-16T11:17:59Z</time>
      </trkpt>
      <trkpt lat="42.95348" lon="-1.80253">
        <ele>519.364</ele>
        <time>2020-05-16T11:18:19Z</time>
      </trkpt>
      <trkpt lat="42.95344" lon="-1.8025">
        <ele>519.052</ele>
        <time>2020-05-16T11:18:39Z</time>
      </trkpt>
      <trkpt lat="42.95342" lon="-1.80247">
        <ele>519.177</ele>
        <time>2020-05-16T11:18:59Z</time>
      </trkpt>
      <trkpt lat="42.95337" lon="-1.80241">
        <ele>518.967</ele>
        <time>2020-05-16T11:19:19Z</time>
      </trkpt>
      <trkpt lat="42.95331" lon="-1.80233">
        <ele>518.764</ele>
        <time>2020-05-16T11:19:39Z</time>
      </trkpt>
      <trkpt lat="42.95326" lon="-1.80227">
        <ele>518.626</ele>
        <time>2020-05-16T11:19:59Z</time>
      </trkpt>
      <trkpt lat="42.95314" lon="-1.80212">
        <ele>518.027</ele>
        <time>2020-05-16T11:20:19Z</time>
      </trkpt>
      <trkpt lat="42.9531" lon="-1.80207">
        <ele>517.868</ele>
        <time>2020-05-16T11:20:39Z</time>
      </trkpt>
      <trkpt lat="42.95308" lon="-1.80205">
        <ele>517.814</ele>
        <time>2020-05-16T11:20:59Z</time>
      </trkpt>
      <trkpt lat="42.95305" lon="-1.80202">
        <ele>517.608</ele>
        <time>2020-05-16T11:21:19Z</time>
      </trkpt>
      <trkpt lat="42.95302" lon="-1.802">
        <ele>517.586</ele>
        <time>2020-05-16T11:21:39Z</time>
      </trkpt>
      <trkpt lat="42.95299" lon="-1.80197">
        <ele>517.541</ele>
        <time>2020-05-16T11:21:59Z</time>
      </trkpt>
      <trkpt lat="42.95296" lon="-1.80195">
        <ele>517.435</ele>
        <time>2020-05-16T11:22:19Z</time>
      </trkpt>
      <trkpt lat="42.95294" lon="-1.80193">
        <ele>517.163</ele>
        <time>2020-05-16T11:22:39Z</time>
      </trkpt>
      <trkpt lat="42.95291" lon="-1.80191">
        <ele>517.148</ele>
        <time>2020-05-16T11:22:59Z</time>
      </trkpt>
      <trkpt lat="42.95287" lon="-1.8019">
        <ele>517.178</ele>
        <time>2020-05-16T11:23:19Z</time>
      </trkpt>
      <trkpt lat="42.95285" lon="-1.80189">
        <ele>517.095</ele>
        <time>2020-05-16T11:23:39Z</time>
      </trkpt>
      <trkpt lat="42.95282" lon="-1.80188">
        <ele>517.047</ele>
        <time>2020-05-16T11:23:59Z</time>
      </trkpt>
      <trkpt lat="42.9528" lon="-1.80187">
        <ele>516.967</ele>
        <time>2020-05-16T11:24:19Z</time>
      </trkpt>
      <trkpt lat="42.95273" lon="-1.80186">
        <ele>516.881</ele>
        <time>2020-05-16T11:24:39Z</time>
      </trkpt>
      <trkpt lat="42.95269" lon="-1.80186">
        <ele>516.719</ele>
        <time>2020-05-16T11:24:59Z</time>
      </trkpt>
      <trkpt lat="42.95265" lon="-1.80186">
        <ele>516.608</ele>
        <time>2020-05-16T11:25:19Z</time>
      </trkpt>
      <trkpt lat="42.95262" lon="-1.80187">
        <ele>516.52</ele>
        <time>2020-05-16T11:25:39Z</time>
      </trkpt>
      <trkpt lat="42.95257" lon="-1.80188">
        <ele>516.495</ele>
        <time>2020-05-16T11:25:59Z</time>
      </trkpt>
      <trkpt lat="42.95254" lon="-1.80188">
        <ele>516.439</ele>
        <time>2020-05-16T11:26:19Z</time>
      </trkpt>
      <trkpt lat="42.9525" lon="-1.8019">
        <ele>516.437</ele>
        <time>2020-05-16T11:26:39Z</time>
      </trkpt>
      <trkpt lat="42.95242" lon="-1.80193">
        <ele>516.932</ele>
        <time>2020-05-16T11:26:59Z</time>
      </trkpt>
      <trkpt lat="42.9524" lon="-1.80194">
        <ele>515.982</ele>
        <time>2020-05-16T11:27:19Z</time>
      </trkpt>
      <trkpt lat="42.95234" lon="-1.80197">
        <ele>515.749</ele>
        <time>2020-05-16T11:27:39Z</time>
      </trkpt>
      <trkpt lat="42.95231" lon="-1.80199">
        <ele>516.081</ele>
        <time>2020-05-16T11:27:59Z</time>
      </trkpt>
      <trkpt lat="42.95222" lon="-1.80206">
        <ele>515.814</ele>
        <time>2020-05-16T11:28:19Z</time>
      </trkpt>
      <trkpt lat="42.95214" lon="-1.80213">
        <ele>514.854</ele>
        <time>2020-05-16T11:28:39Z</time>
      </trkpt>
      <trkpt lat="42.95209" lon="-1.80217">
        <ele>515.709</ele>
        <time>2020-05-16T11:28:59Z</time>
      </trkpt>
      <trkpt lat="42.95205" lon="-1.80221">
        <ele>514.908</ele>
        <time>2020-05-16T11:29:19Z</time>
      </trkpt>
      <trkpt lat="42.95199" lon="-1.80226">
        <ele>513.885</ele>
        <time>2020-05-16T11:29:39Z</time>
      </trkpt>
      <trkpt lat="42.95194" lon="-1.80231">
        <ele>513.46</ele>
        <time>2020-05-16T11:29:59Z</time>
      </trkpt>
      <trkpt lat="42.95189" lon="-1.80237">
        <ele>513.234</ele>
        <time>2020-05-16T11:30:19Z</time>
      </trkpt>
      <trkpt lat="42.95184" lon="-1.80243">
        <ele>512.992</ele>
        <time>2020-05-16T11:30:39Z</time>
      </trkpt>
      <trkpt lat="42.9518" lon="-1.8025">
        <ele>512.657</ele>
        <time>2020-05-16T11:30:59Z</time>
      </trkpt>
      <trkpt lat="42.95175" lon="-1.80256">
        <ele>512.587</ele>
        <time>2020-05-16T11:31:19Z</time>
      </trkpt>
      <trkpt lat="42.95172" lon="-1.80262">
        <ele>512.364</ele>
        <time>2020-05-16T11:31:39Z</time>
      </trkpt>
      <trkpt lat="42.95168" lon="-1.80268">
        <ele>512.016</ele>
        <time>2020-05-16T11:31:59Z</time>
      </trkpt>
      <trkpt lat="42.95165" lon="-1.80273">
        <ele>511.918</ele>
        <time>2020-05-16T11:32:19Z</time>
      </trkpt>
      <trkpt lat="42.95162" lon="-1.80277">
        <ele>511.998</ele>
        <time>2020-05-16T11:32:39Z</time>
      </trkpt>
      <trkpt lat="42.9516" lon="-1.80283">
        <ele>511.717</ele>
        <time>2020-05-16T11:32:59Z</time>
      </trkpt>
      <trkpt lat="42.95157" lon="-1.80288">
        <ele>511.508</ele>
        <time>2020-05-16T11:33:19Z</time>
      </trkpt>
      <trkpt lat="42.95154" lon="-1.80294">
        <ele>511.225</ele>
        <time>2020-05-16T11:33:39Z</time>
      </trkpt>
      <trkpt lat="42.95152" lon="-1.803">
        <ele>511.85</ele>
        <time>2020-05-16T11:33:59Z</time>
      </trkpt>
      <trkpt lat="42.95149" lon="-1.80306">
        <ele>511.064</ele>
        <time>2020-05-16T11:34:19Z</time>
      </trkpt>
      <trkpt lat="42.95147" lon="-1.80313">
        <ele>510.992</ele>
        <time>2020-05-16T11:34:39Z</time>
      </trkpt>
      <trkpt lat="42.95137" lon="-1.80338">
        <ele>510.477</ele>
        <time>2020-05-16T11:34:59Z</time>
      </trkpt>
      <trkpt lat="42.95126" lon="-1.8037">
        <ele>509.787</ele>
        <time>2020-05-16T11:35:19Z</time>
      </trkpt>
      <trkpt lat="42.95116" lon="-1.80393">
        <ele>509.424</ele>
        <time>2020-05-16T11:35:39Z</time>
      </trkpt>
      <trkpt lat="42.95111" lon="-1.80406">
        <ele>508.656</ele>
        <time>2020-05-16T11:35:59Z</time>
      </trkpt>
      <trkpt lat="42.95108" lon="-1.80413">
        <ele>508.673</ele>
        <time>2020-05-16T11:36:19Z</time>
      </trkpt>
      <trkpt lat="42.95097" lon="-1.80436">
        <ele>507.885</ele>
        <time>2020-05-16T11:36:39Z</time>
      </trkpt>
      <trkpt lat="42.95086" lon="-1.80461">
        <ele>507.413</ele>
        <time>2020-05-16T11:36:59Z</time>
      </trkpt>
      <trkpt lat="42.95082" lon="-1.80469">
        <ele>507.808</ele>
        <time>2020-05-16T11:37:19Z</time>
      </trkpt>
      <trkpt lat="42.95079" lon="-1.80476">
        <ele>506.891</ele>
        <time>2020-05-16T11:37:39Z</time>
      </trkpt>
      <trkpt lat="42.95075" lon="-1.80484">
        <ele>506.876</ele>
        <time>2020-05-16T11:37:59Z</time>
      </trkpt>
      <trkpt lat="42.95067" lon="-1.80497">
        <ele>506.63</ele>
        <time>2020-05-16T11:38:19Z</time>
      </trkpt>
      <trkpt lat="42.95058" lon="-1.80514">
        <ele>506.418</ele>
        <time>2020-05-16T11:38:39Z</time>
      </trkpt>
      <trkpt lat="42.95051" lon="-1.80525">
        <ele>506.353</ele>
        <time>2020-05-16T11:38:59Z</time>
      </trkpt>
      <trkpt lat="42.95046" lon="-1.80533">
        <ele>507.333</ele>
        <time>2020-05-16T11:39:19Z</time>
      </trkpt>
      <trkpt lat="42.95043" lon="-1.80539">
        <ele>506.37</ele>
        <time>2020-05-16T11:39:39Z</time>
      </trkpt>
      <trkpt lat="42.9504" lon="-1.80542">
        <ele>506.122</ele>
        <time>2020-05-16T11:39:59Z</time>
      </trkpt>
      <trkpt lat="42.95038" lon="-1.80545">
        <ele>506.458</ele>
        <time>2020-05-16T11:40:19Z</time>
      </trkpt>
      <trkpt lat="42.95036" lon="-1.80547">
        <ele>506.052</ele>
        <time>2020-05-16T11:40:39Z</time>
      </trkpt>
      <trkpt lat="42.95033" lon="-1.80549">
        <ele>506.017</ele>
        <time>2020-05-16T11:40:59Z</time>
      </trkpt>
      <trkpt lat="42.95031" lon="-1.80552">
        <ele>505.808</ele>
        <time>2020-05-16T11:41:19Z</time>
      </trkpt>
      <trkpt lat="42.95029" lon="-1.80553">
        <ele>505.829</ele>
        <time>2020-05-16T11:41:39Z</time>
      </trkpt>
      <trkpt lat="42.95027" lon="-1.80554">
        <ele>505.584</ele>
        <time>2020-05-16T11:41:59Z</time>
      </trkpt>
      <trkpt lat="42.95025" lon="-1.80554">
        <ele>505.528</ele>
        <time>2020-05-16T11:42:19Z</time>
      </trkpt>
      <trkpt lat="42.95018" lon="-1.80557">
        <ele>505.136</ele>
        <time>2020-05-16T11:42:39Z</time>
      </trkpt>
      <trkpt lat="42.95012" lon="-1.80559">
        <ele>505.021</ele>
        <time>2020-05-16T11:42:59Z</time>
      </trkpt>
      <trkpt lat="42.95011" lon="-1.8056">
        <ele>505.081</ele>
        <time>2020-05-16T11:43:19Z</time>
      </trkpt>
      <trkpt lat="42.95009" lon="-1.80561">
        <ele>504.728</ele>
        <time>2020-05-16T11:43:39Z</time>
      </trkpt>
      <trkpt lat="42.95008" lon="-1.80562">
        <ele>504.79</ele>
        <time>2020-05-16T11:43:59Z</time>
      </trkpt>
      <trkpt lat="42.95008" lon="-1.80562">
        <ele>504.759</ele>
        <time>2020-05-16T11:44:19Z</time>
      </trkpt>
      <trkpt lat="42.95007" lon="-1.80562">
        <ele>504.703</ele>
        <time>2020-05-16T11:44:39Z</time>
      </trkpt>
      <trkpt lat="42.95003" lon="-1.80567">
        <ele>504.523</ele>
        <time>2020-05-16T11:44:59Z</time>
      </trkpt>
      <trkpt lat="42.95003" lon="-1.80567">
        <ele>504.508</ele>
        <time>2020-05-16T11:45:19Z</time>
      </trkpt>
      <trkpt lat="42.95" lon="-1.8057">
        <ele>504.589</ele>
        <time>2020-05-16T11:45:39Z</time>
      </trkpt>
      <trkpt lat="42.94988" lon="-1.80582">
        <ele>503.844</ele>
        <time>2020-05-16T11:45:59Z</time>
      </trkpt>
      <trkpt lat="42.94969" lon="-1.806">
        <ele>503.458</ele>
        <time>2020-05-16T11:46:19Z</time>
      </trkpt>
      <trkpt lat="42.94954" lon="-1.80616">
        <ele>503.666</ele>
        <time>2020-05-16T11:46:39Z</time>
      </trkpt>
      <trkpt lat="42.94949" lon="-1.80621">
        <ele>503.721</ele>
        <time>2020-05-16T11:46:59Z</time>
      </trkpt>
      <trkpt lat="42.94941" lon="-1.80629">
        <ele>503.821</ele>
        <time>2020-05-16T11:47:19Z</time>
      </trkpt>
      <trkpt lat="42.94939" lon="-1.80631">
        <ele>503.858</ele>
        <time>2020-05-16T11:47:39Z</time>
      </trkpt>
      <trkpt lat="42.94936" lon="-1.80634">
        <ele>503.95</ele>
        <time>2020-05-16T11:47:59Z</time>
      </trkpt>
      <trkpt lat="42.94933" lon="-1.80636">
        <ele>503.919</ele>
        <time>2020-05-16T11:48:19Z</time>
      </trkpt>
      <trkpt lat="42.94925" lon="-1.80644">
        <ele>503.909</ele>
        <time>2020-05-16T11:48:39Z</time>
      </trkpt>
      <trkpt lat="42.94919" lon="-1.80651">
        <ele>503.919</ele>
        <time>2020-05-16T11:48:59Z</time>
      </trkpt>
      <trkpt lat="42.94917" lon="-1.80652">
        <ele>503.808</ele>
        <time>2020-05-16T11:49:19Z</time>
      </trkpt>
      <trkpt lat="42.94915" lon="-1.80655">
        <ele>503.825</ele>
        <time>2020-05-16T11:49:39Z</time>
      </trkpt>
      <trkpt lat="42.9491" lon="-1.8066">
        <ele>503.63</ele>
        <time>2020-05-16T11:49:59Z</time>
      </trkpt>
      <trkpt lat="42.94908" lon="-1.80663">
        <ele>503.654</ele>
        <time>2020-05-16T11:50:19Z</time>
      </trkpt>
      <trkpt lat="42.94906" lon="-1.80665">
        <ele>503.482</ele>
        <time>2020-05-16T11:50:39Z</time>
      </trkpt>
      <trkpt lat="42.94905" lon="-1.80667">
        <ele>503.497</ele>
        <time>2020-05-16T11:50:59Z</time>
      </trkpt>
      <trkpt lat="42.94903" lon="-1.8067">
        <ele>503.747</ele>
        <time>2020-05-16T11:51:19Z</time>
      </trkpt>
      <trkpt lat="42.94901" lon="-1.80674">
        <ele>503.474</ele>
        <time>2020-05-16T11:51:39Z</time>
      </trkpt>
      <trkpt lat="42.94901" lon="-1.80675">
        <ele>503.486</ele>
        <time>2020-05-16T11:51:59Z</time>
      </trkpt>
      <trkpt lat="42.949" lon="-1.80678">
        <ele>503.312</ele>
        <time>2020-05-16T11:52:19Z</time>
      </trkpt>
      <trkpt lat="42.94899" lon="-1.8068">
        <ele>503.332</ele>
        <time>2020-05-16T11:52:39Z</time>
      </trkpt>
      <trkpt lat="42.94897" lon="-1.80691">
        <ele>503.105</ele>
        <time>2020-05-16T11:52:59Z</time>
      </trkpt>
      <trkpt lat="42.94893" lon="-1.80706">
        <ele>502.908</ele>
        <time>2020-05-16T11:53:19Z</time>
      </trkpt>
      <trkpt lat="42.94892" lon="-1.80716">
        <ele>502.675</ele>
        <time>2020-05-16T11:53:39Z</time>
      </trkpt>
      <trkpt lat="42.94891" lon="-1.80723">
        <ele>502.55</ele>
        <time>2020-05-16T11:53:59Z</time>
      </trkpt>
      <trkpt lat="42.9489" lon="-1.8073">
        <ele>502.714</ele>
        <time>2020-05-16T11:54:19Z</time>
      </trkpt>
      <trkpt lat="42.94889" lon="-1.80738">
        <ele>502.252</ele>
        <time>2020-05-16T11:54:39Z</time>
      </trkpt>
      <trkpt lat="42.94889" lon="-1.80739">
        <ele>502.287</ele>
        <time>2020-05-16T11:54:59Z</time>
      </trkpt>
      <trkpt lat="42.94887" lon="-1.80757">
        <ele>502.097</ele>
        <time>2020-05-16T11:55:19Z</time>
      </trkpt>
      <trkpt lat="42.94886" lon="-1.80775">
        <ele>501.954</ele>
        <time>2020-05-16T11:55:39Z</time>
      </trkpt>
      <trkpt lat="42.94884" lon="-1.80796">
        <ele>501.236</ele>
        <time>2020-05-16T11:55:59Z</time>
      </trkpt>
      <trkpt lat="42.94883" lon="-1.80819">
        <ele>500.818</ele>
        <time>2020-05-16T11:56:19Z</time>
      </trkpt>
      <trkpt lat="42.9488" lon="-1.8087">
        <ele>500.098</ele>
        <time>2020-05-16T11:56:39Z</time>
      </trkpt>
      <trkpt lat="42.94879" lon="-1.80884">
        <ele>499.717</ele>
        <time>2020-05-16T11:56:59Z</time>
      </trkpt>
      <trkpt lat="42.94879" lon="-1.80888">
        <ele>499.608</ele>
        <time>2020-05-16T11:57:19Z</time>
      </trkpt>
      <trkpt lat="42.94879" lon="-1.80896">
        <ele>499.485</ele>
        <time>2020-05-16T11:57:39Z</time>
      </trkpt>
      <trkpt lat="42.94879" lon="-1.8091">
        <ele>499.26</ele>
        <time>2020-05-16T11:57:59Z</time>
      </trkpt>
      <trkpt lat="42.9488" lon="-1.80927">
        <ele>499.094</ele>
        <time>2020-05-16T11:58:19Z</time>
      </trkpt>
      <trkpt lat="42.9488" lon="-1.80935">
        <ele>498.722</ele>
        <time>2020-05-16T11:58:39Z</time>
      </trkpt>
      <trkpt lat="42.94881" lon="-1.80952">
        <ele>498.577</ele>
        <time>2020-05-16T11:58:59Z</time>
      </trkpt>
      <trkpt lat="42.94883" lon="-1.8097">
        <ele>498.347</ele>
        <time>2020-05-16T11:59:19Z</time>
      </trkpt>
      <trkpt lat="42.94884" lon="-1.80979">
        <ele>498.294</ele>
        <time>2020-05-16T11:59:39Z</time>
      </trkpt>
      <trkpt lat="42.94886" lon="-1.80992">
        <ele>497.916</ele>
        <time>2020-05-16T11:59:59Z</time>
      </trkpt>
      <trkpt lat="42.94886" lon="-1.80997">
        <ele>497.849</ele>
        <time>2020-05-16T12:00:19Z</time>
      </trkpt>
      <trkpt lat="42.94887" lon="-1.81002">
        <ele>497.802</ele>
        <time>2020-05-16T12:00:39Z</time>
      </trkpt>
      <trkpt lat="42.94887" lon="-1.81009">
        <ele>497.622</ele>
        <time>2020-05-16T12:00:59Z</time>
      </trkpt>
      <trkpt lat="42.94887" lon="-1.81011">
        <ele>497.608</ele>
        <time>2020-05-16T12:01:19Z</time>
      </trkpt>
      <trkpt lat="42.94887" lon="-1.81017">
        <ele>497.618</ele>
        <time>2020-05-16T12:01:39Z</time>
      </trkpt>
      <trkpt lat="42.94886" lon="-1.81023">
        <ele>497.793</ele>
        <time>2020-05-16T12:01:59Z</time>
      </trkpt>
      <trkpt lat="42.94885" lon="-1.81028">
        <ele>497.737</ele>
        <time>2020-05-16T12:02:19Z</time>
      </trkpt>
      <trkpt lat="42.94884" lon="-1.81035">
        <ele>497.755</ele>
        <time>2020-05-16T12:02:39Z</time>
      </trkpt>
      <trkpt lat="42.94883" lon="-1.81041">
        <ele>497.73</ele>
        <time>2020-05-16T12:02:59Z</time>
      </trkpt>
      <trkpt lat="42.9488" lon="-1.81053">
        <ele>497.59</ele>
        <time>2020-05-16T12:03:19Z</time>
      </trkpt>
      <trkpt lat="42.94879" lon="-1.81057">
        <ele>497.587</ele>
        <time>2020-05-16T12:03:39Z</time>
      </trkpt>
      <trkpt lat="42.94879" lon="-1.81062">
        <ele>497.549</ele>
        <time>2020-05-16T12:03:59Z</time>
      </trkpt>
      <trkpt lat="42.94878" lon="-1.81068">
        <ele>497.435</ele>
        <time>2020-05-16T12:04:19Z</time>
      </trkpt>
      <trkpt lat="42.94877" lon="-1.81071">
        <ele>497.586</ele>
        <time>2020-05-16T12:04:39Z</time>
      </trkpt>
      <trkpt lat="42.94877" lon="-1.81074">
        <ele>497.514</ele>
        <time>2020-05-16T12:04:59Z</time>
      </trkpt>
      <trkpt lat="42.94877" lon="-1.81079">
        <ele>497.508</ele>
        <time>2020-05-16T12:05:19Z</time>
      </trkpt>
      <trkpt lat="42.94877" lon="-1.81084">
        <ele>497.447</ele>
        <time>2020-05-16T12:05:39Z</time>
      </trkpt>
      <trkpt lat="42.94878" lon="-1.8109">
        <ele>497.332</ele>
        <time>2020-05-16T12:05:59Z</time>
      </trkpt>
      <trkpt lat="42.94879" lon="-1.81097">
        <ele>497.286</ele>
        <time>2020-05-16T12:06:19Z</time>
      </trkpt>
      <trkpt lat="42.94881" lon="-1.81111">
        <ele>497.064</ele>
        <time>2020-05-16T12:06:39Z</time>
      </trkpt>
      <trkpt lat="42.94882" lon="-1.81123">
        <ele>496.789</ele>
        <time>2020-05-16T12:06:59Z</time>
      </trkpt>
      <trkpt lat="42.94883" lon="-1.81128">
        <ele>496.599</ele>
        <time>2020-05-16T12:07:19Z</time>
      </trkpt>
      <trkpt lat="42.94885" lon="-1.8115">
        <ele>496.256</ele>
        <time>2020-05-16T12:07:39Z</time>
      </trkpt>
      <trkpt lat="42.94889" lon="-1.81189">
        <ele>495.448</ele>
        <time>2020-05-16T12:07:59Z</time>
      </trkpt>
      <trkpt lat="42.94893" lon="-1.81224">
        <ele>494.595</ele>
        <time>2020-05-16T12:08:19Z</time>
      </trkpt>
      <trkpt lat="42.94896" lon="-1.81247">
        <ele>494.549</ele>
        <time>2020-05-16T12:08:39Z</time>
      </trkpt>
      <trkpt lat="42.94896" lon="-1.81251">
        <ele>494.523</ele>
        <time>2020-05-16T12:08:59Z</time>
      </trkpt>
      <trkpt lat="42.94898" lon="-1.81259">
        <ele>493.708</ele>
        <time>2020-05-16T12:09:19Z</time>
      </trkpt>
      <trkpt lat="42.949" lon="-1.81271">
        <ele>493.383</ele>
        <time>2020-05-16T12:09:39Z</time>
      </trkpt>
      <trkpt lat="42.94906" lon="-1.81307">
        <ele>492.288</ele>
        <time>2020-05-16T12:09:59Z</time>
      </trkpt>
      <trkpt lat="42.94909" lon="-1.81322">
        <ele>492.172</ele>
        <time>2020-05-16T12:10:19Z</time>
      </trkpt>
      <trkpt lat="42.9491" lon="-1.81332">
        <ele>492.12</ele>
        <time>2020-05-16T12:10:39Z</time>
      </trkpt>
      <trkpt lat="42.94912" lon="-1.81341">
        <ele>492.075</ele>
        <time>2020-05-16T12:10:59Z</time>
      </trkpt>
      <trkpt lat="42.94913" lon="-1.81351">
        <ele>491.945</ele>
        <time>2020-05-16T12:11:19Z</time>
      </trkpt>
      <trkpt lat="42.94915" lon="-1.81361">
        <ele>492.742</ele>
        <time>2020-05-16T12:11:39Z</time>
      </trkpt>
      <trkpt lat="42.94916" lon="-1.81369">
        <ele>491.834</ele>
        <time>2020-05-16T12:11:59Z</time>
      </trkpt>
      <trkpt lat="42.94917" lon="-1.81377">
        <ele>491.929</ele>
        <time>2020-05-16T12:12:19Z</time>
      </trkpt>
      <trkpt lat="42.94918" lon="-1.81394">
        <ele>491.9</ele>
        <time>2020-05-16T12:12:39Z</time>
      </trkpt>
      <trkpt lat="42.94919" lon="-1.81403">
        <ele>492.32</ele>
        <time>2020-05-16T12:12:59Z</time>
      </trkpt>
      <trkpt lat="42.9492" lon="-1.81412">
        <ele>492.708</ele>
        <time>2020-05-16T12:13:19Z</time>
      </trkpt>
      <trkpt lat="42.94922" lon="-1.81425">
        <ele>493.496</ele>
        <time>2020-05-16T12:13:39Z</time>
      </trkpt>
      <trkpt lat="42.94922" lon="-1.8143">
        <ele>493.621</ele>
        <time>2020-05-16T12:13:59Z</time>
      </trkpt>
      <trkpt lat="42.94925" lon="-1.81444">
        <ele>494.235</ele>
        <time>2020-05-16T12:14:19Z</time>
      </trkpt>
      <trkpt lat="42.94926" lon="-1.8145">
        <ele>494.613</ele>
        <time>2020-05-16T12:14:39Z</time>
      </trkpt>
      <trkpt lat="42.9493" lon="-1.81465">
        <ele>496.548</ele>
        <time>2020-05-16T12:14:59Z</time>
      </trkpt>
      <trkpt lat="42.94937" lon="-1.81501">
        <ele>496.898</ele>
        <time>2020-05-16T12:15:19Z</time>
      </trkpt>
      <trkpt lat="42.94939" lon="-1.81509">
        <ele>497.075</ele>
        <time>2020-05-16T12:15:39Z</time>
      </trkpt>
      <trkpt lat="42.94939" lon="-1.81512">
        <ele>497.187</ele>
        <time>2020-05-16T12:15:59Z</time>
      </trkpt>
      <trkpt lat="42.94944" lon="-1.81529">
        <ele>497.779</ele>
        <time>2020-05-16T12:16:19Z</time>
      </trkpt>
      <trkpt lat="42.94945" lon="-1.81536">
        <ele>497.805</ele>
        <time>2020-05-16T12:16:39Z</time>
      </trkpt>
      <trkpt lat="42.94946" lon="-1.81539">
        <ele>497.825</ele>
        <time>2020-05-16T12:16:59Z</time>
      </trkpt>
      <trkpt lat="42.94948" lon="-1.81545">
        <ele>499.408</ele>
        <time>2020-05-16T12:17:19Z</time>
      </trkpt>
      <trkpt lat="42.9495" lon="-1.81549">
        <ele>498.491</ele>
        <time>2020-05-16T12:17:39Z</time>
      </trkpt>
      <trkpt lat="42.94951" lon="-1.81554">
        <ele>498.656</ele>
        <time>2020-05-16T12:17:59Z</time>
      </trkpt>
      <trkpt lat="42.94952" lon="-1.81556">
        <ele>498.71</ele>
        <time>2020-05-16T12:18:19Z</time>
      </trkpt>
      <trkpt lat="42.94956" lon="-1.81563">
        <ele>498.798</ele>
        <time>2020-05-16T12:18:39Z</time>
      </trkpt>
      <trkpt lat="42.94959" lon="-1.81569">
        <ele>498.613</ele>
        <time>2020-05-16T12:18:59Z</time>
      </trkpt>
      <trkpt lat="42.94963" lon="-1.81578">
        <ele>498.893</ele>
        <time>2020-05-16T12:19:19Z</time>
      </trkpt>
      <trkpt lat="42.94969" lon="-1.8159">
        <ele>498.82</ele>
        <time>2020-05-16T12:19:39Z</time>
      </trkpt>
      <trkpt lat="42.94975" lon="-1.81601">
        <ele>498.842</ele>
        <time>2020-05-16T12:19:59Z</time>
      </trkpt>
      <trkpt lat="42.94979" lon="-1.8161">
        <ele>498.757</ele>
        <time>2020-05-16T12:20:19Z</time>
      </trkpt>
      <trkpt lat="42.94981" lon="-1.81615">
        <ele>498.7</ele>
        <time>2020-05-16T12:20:39Z</time>
      </trkpt>
      <trkpt lat="42.94984" lon="-1.81621">
        <ele>498.52</ele>
        <time>2020-05-16T12:20:59Z</time>
      </trkpt>
      <trkpt lat="42.94988" lon="-1.81632">
        <ele>498.708</ele>
        <time>2020-05-16T12:21:19Z</time>
      </trkpt>
      <trkpt lat="42.94992" lon="-1.81643">
        <ele>498.669</ele>
        <time>2020-05-16T12:21:39Z</time>
      </trkpt>
      <trkpt lat="42.94995" lon="-1.81651">
        <ele>498.674</ele>
        <time>2020-05-16T12:21:59Z</time>
      </trkpt>
      <trkpt lat="42.95001" lon="-1.81669">
        <ele>498.878</ele>
        <time>2020-05-16T12:22:19Z</time>
      </trkpt>
      <trkpt lat="42.95005" lon="-1.81679">
        <ele>499.516</ele>
        <time>2020-05-16T12:22:39Z</time>
      </trkpt>
      <trkpt lat="42.9501" lon="-1.81696">
        <ele>500.181</ele>
        <time>2020-05-16T12:22:59Z</time>
      </trkpt>
      <trkpt lat="42.95018" lon="-1.81718">
        <ele>501.161</ele>
        <time>2020-05-16T12:23:19Z</time>
      </trkpt>
      <trkpt lat="42.95021" lon="-1.8173">
        <ele>501.288</ele>
        <time>2020-05-16T12:23:39Z</time>
      </trkpt>
      <trkpt lat="42.95023" lon="-1.81735">
        <ele>502.18</ele>
        <time>2020-05-16T12:23:59Z</time>
      </trkpt>
      <trkpt lat="42.95025" lon="-1.81747">
        <ele>502.157</ele>
        <time>2020-05-16T12:24:19Z</time>
      </trkpt>
      <trkpt lat="42.95028" lon="-1.8176">
        <ele>502.3</ele>
        <time>2020-05-16T12:24:39Z</time>
      </trkpt>
      <trkpt lat="42.9503" lon="-1.81765">
        <ele>502.52</ele>
        <time>2020-05-16T12:24:59Z</time>
      </trkpt>
      <trkpt lat="42.95032" lon="-1.81775">
        <ele>502.608</ele>
        <time>2020-05-16T12:25:19Z</time>
      </trkpt>
      <trkpt lat="42.95039" lon="-1.81801">
        <ele>503.249</ele>
        <time>2020-05-16T12:25:39Z</time>
      </trkpt>
      <trkpt lat="42.95041" lon="-1.81807">
        <ele>504.874</ele>
        <time>2020-05-16T12:25:59Z</time>
      </trkpt>
      <trkpt lat="42.95046" lon="-1.81822">
        <ele>503.228</ele>
        <time>2020-05-16T12:26:19Z</time>
      </trkpt>
      <trkpt lat="42.95049" lon="-1.81832">
        <ele>503.346</ele>
        <time>2020-05-16T12:26:39Z</time>
      </trkpt>
      <trkpt lat="42.95058" lon="-1.81858">
        <ele>503.551</ele>
        <time>2020-05-16T12:26:59Z</time>
      </trkpt>
      <trkpt lat="42.95066" lon="-1.81879">
        <ele>503.761</ele>
        <time>2020-05-16T12:27:19Z</time>
      </trkpt>
      <trkpt lat="42.95068" lon="-1.81886">
        <ele>503.888</ele>
        <time>2020-05-16T12:27:39Z</time>
      </trkpt>
      <trkpt lat="42.95071" lon="-1.81896">
        <ele>503.82</ele>
        <time>2020-05-16T12:27:59Z</time>
      </trkpt>
      <trkpt lat="42.95073" lon="-1.81904">
        <ele>503.888</ele>
        <time>2020-05-16T12:28:19Z</time>
      </trkpt>
      <trkpt lat="42.95074" lon="-1.8191">
        <ele>503.924</ele>
        <time>2020-05-16T12:28:39Z</time>
      </trkpt>
      <trkpt lat="42.95077" lon="-1.8192">
        <ele>503.926</ele>
        <time>2020-05-16T12:28:59Z</time>
      </trkpt>
      <trkpt lat="42.95079" lon="-1.81932">
        <ele>503.908</ele>
        <time>2020-05-16T12:29:19Z</time>
      </trkpt>
      <trkpt lat="42.95081" lon="-1.81946">
        <ele>503.962</ele>
        <time>2020-05-16T12:29:39Z</time>
      </trkpt>
      <trkpt lat="42.95084" lon="-1.81961">
        <ele>503.887</ele>
        <time>2020-05-16T12:29:59Z</time>
      </trkpt>
      <trkpt lat="42.95085" lon="-1.81965">
        <ele>503.811</ele>
        <time>2020-05-16T12:30:19Z</time>
      </trkpt>
      <trkpt lat="42.95088" lon="-1.81976">
        <ele>503.879</ele>
        <time>2020-05-16T12:30:39Z</time>
      </trkpt>
      <trkpt lat="42.95091" lon="-1.81991">
        <ele>503.924</ele>
        <time>2020-05-16T12:30:59Z</time>
      </trkpt>
      <trkpt lat="42.95095" lon="-1.82009">
        <ele>503.934</ele>
        <time>2020-05-16T12:31:19Z</time>
      </trkpt>
      <trkpt lat="42.95099" lon="-1.82026">
        <ele>504.241</ele>
        <time>2020-05-16T12:31:39Z</time>
      </trkpt>
      <trkpt lat="42.951" lon="-1.82033">
        <ele>504.053</ele>
        <time>2020-05-16T12:31:59Z</time>
      </trkpt>
      <trkpt lat="42.95102" lon="-1.82039">
        <ele>504.611</ele>
        <time>2020-05-16T12:32:19Z</time>
      </trkpt>
      <trkpt lat="42.95105" lon="-1.82053">
        <ele>504.521</ele>
        <time>2020-05-16T12:32:39Z</time>
      </trkpt>
      <trkpt lat="42.95107" lon="-1.8206">
        <ele>504.603</ele>
        <time>2020-05-16T12:32:59Z</time>
      </trkpt>
      <trkpt lat="42.9511" lon="-1.82067">
        <ele>504.608</ele>
        <time>2020-05-16T12:33:19Z</time>
      </trkpt>
      <trkpt lat="42.95111" lon="-1.82071">
        <ele>504.625</ele>
        <time>2020-05-16T12:33:39Z</time>
      </trkpt>
      <trkpt lat="42.95112" lon="-1.82076">
        <ele>504.57</ele>
        <time>2020-05-16T12:33:59Z</time>
      </trkpt>
      <trkpt lat="42.95114" lon="-1.8208">
        <ele>504.534</ele>
        <time>2020-05-16T12:34:19Z</time>
      </trkpt>
      <trkpt lat="42.95116" lon="-1.82085">
        <ele>504.262</ele>
        <time>2020-05-16T12:34:39Z</time>
      </trkpt>
      <trkpt lat="42.9512" lon="-1.82094">
        <ele>504.057</ele>
        <time>2020-05-16T12:34:59Z</time>
      </trkpt>
      <trkpt lat="42.95123" lon="-1.821">
        <ele>504.037</ele>
        <time>2020-05-16T12:35:19Z</time>
      </trkpt>
      <trkpt lat="42.95126" lon="-1.82107">
        <ele>503.624</ele>
        <time>2020-05-16T12:35:39Z</time>
      </trkpt>
      <trkpt lat="42.95129" lon="-1.82112">
        <ele>503.466</ele>
        <time>2020-05-16T12:35:59Z</time>
      </trkpt>
      <trkpt lat="42.95132" lon="-1.82118">
        <ele>503.476</ele>
        <time>2020-05-16T12:36:19Z</time>
      </trkpt>
      <trkpt lat="42.95137" lon="-1.82126">
        <ele>503.09</ele>
        <time>2020-05-16T12:36:39Z</time>
      </trkpt>
      <trkpt lat="42.9514" lon="-1.82132">
        <ele>502.819</ele>
        <time>2020-05-16T12:36:59Z</time>
      </trkpt>
      <trkpt lat="42.95145" lon="-1.8214">
        <ele>502.608</ele>
        <time>2020-05-16T12:37:19Z</time>
      </trkpt>
      <trkpt lat="42.9515" lon="-1.82145">
        <ele>502.441</ele>
        <time>2020-05-16T12:37:39Z</time>
      </trkpt>
      <trkpt lat="42.95154" lon="-1.82152">
        <ele>502.456</ele>
        <time>2020-05-16T12:37:59Z</time>
      </trkpt>
      <trkpt lat="42.95156" lon="-1.82154">
        <ele>502.42</ele>
        <time>2020-05-16T12:38:19Z</time>
      </trkpt>
      <trkpt lat="42.9516" lon="-1.82158">
        <ele>501.968</ele>
        <time>2020-05-16T12:38:39Z</time>
      </trkpt>
      <trkpt lat="42.95166" lon="-1.82164">
        <ele>501.453</ele>
        <time>2020-05-16T12:38:59Z</time>
      </trkpt>
      <trkpt lat="42.95169" lon="-1.82167">
        <ele>501.653</ele>
        <time>2020-05-16T12:39:19Z</time>
      </trkpt>
      <trkpt lat="42.95176" lon="-1.82171">
        <ele>501.28</ele>
        <time>2020-05-16T12:39:39Z</time>
      </trkpt>
      <trkpt lat="42.95183" lon="-1.82174">
        <ele>500.622</ele>
        <time>2020-05-16T12:39:59Z</time>
      </trkpt>
      <trkpt lat="42.95187" lon="-1.82176">
        <ele>500.447</ele>
        <time>2020-05-16T12:40:19Z</time>
      </trkpt>
      <trkpt lat="42.95193" lon="-1.82178">
        <ele>499.929</ele>
        <time>2020-05-16T12:40:39Z</time>
      </trkpt>
      <trkpt lat="42.95201" lon="-1.8218">
        <ele>499.721</ele>
        <time>2020-05-16T12:40:59Z</time>
      </trkpt>
      <trkpt lat="42.95211" lon="-1.82182">
        <ele>499.108</ele>
        <time>2020-05-16T12:41:19Z</time>
      </trkpt>
      <trkpt lat="42.95222" lon="-1.82183">
        <ele>498.448</ele>
        <time>2020-05-16T12:41:39Z</time>
      </trkpt>
      <trkpt lat="42.95233" lon="-1.82184">
        <ele>497.763</ele>
        <time>2020-05-16T12:41:59Z</time>
      </trkpt>
      <trkpt lat="42.95256" lon="-1.82187">
        <ele>496.497</ele>
        <time>2020-05-16T12:42:19Z</time>
      </trkpt>
      <trkpt lat="42.95262" lon="-1.82188">
        <ele>495.995</ele>
        <time>2020-05-16T12:42:39Z</time>
      </trkpt>
      <trkpt lat="42.95272" lon="-1.8219">
        <ele>495.43</ele>
        <time>2020-05-16T12:42:59Z</time>
      </trkpt>
      <trkpt lat="42.95286" lon="-1.82193">
        <ele>494.66</ele>
        <time>2020-05-16T12:43:19Z</time>
      </trkpt>
      <trkpt lat="42.95296" lon="-1.82196">
        <ele>494.347</ele>
        <time>2020-05-16T12:43:39Z</time>
      </trkpt>
      <trkpt lat="42.95303" lon="-1.82198">
        <ele>493.769</ele>
        <time>2020-05-16T12:43:59Z</time>
      </trkpt>
      <trkpt lat="42.95308" lon="-1.82199">
        <ele>494.245</ele>
        <time>2020-05-16T12:44:19Z</time>
      </trkpt>
      <trkpt lat="42.95315" lon="-1.82202">
        <ele>492.747</ele>
        <time>2020-05-16T12:44:39Z</time>
      </trkpt>
      <trkpt lat="42.9532" lon="-1.82204">
        <ele>492.411</ele>
        <time>2020-05-16T12:44:59Z</time>
      </trkpt>
      <trkpt lat="42.95325" lon="-1.82207">
        <ele>492.008</ele>
        <time>2020-05-16T12:45:19Z</time>
      </trkpt>
      <trkpt lat="42.95327" lon="-1.82209">
        <ele>492.048</ele>
        <time>2020-05-16T12:45:39Z</time>
      </trkpt>
      <trkpt lat="42.9533" lon="-1.8221">
        <ele>491.863</ele>
        <time>2020-05-16T12:45:59Z</time>
      </trkpt>
      <trkpt lat="42.95336" lon="-1.82216">
        <ele>491.147</ele>
        <time>2020-05-16T12:46:19Z</time>
      </trkpt>
      <trkpt lat="42.95341" lon="-1.82221">
        <ele>490.755</ele>
        <time>2020-05-16T12:46:39Z</time>
      </trkpt>
      <trkpt lat="42.95344" lon="-1.82224">
        <ele>490.62</ele>
        <time>2020-05-16T12:46:59Z</time>
      </trkpt>
      <trkpt lat="42.95348" lon="-1.82229">
        <ele>489.97</ele>
        <time>2020-05-16T12:47:19Z</time>
      </trkpt>
      <trkpt lat="42.95351" lon="-1.82232">
        <ele>489.087</ele>
        <time>2020-05-16T12:47:39Z</time>
      </trkpt>
      <trkpt lat="42.95353" lon="-1.82234">
        <ele>489.019</ele>
        <time>2020-05-16T12:47:59Z</time>
      </trkpt>
      <trkpt lat="42.95357" lon="-1.82237">
        <ele>488.789</ele>
        <time>2020-05-16T12:48:19Z</time>
      </trkpt>
      <trkpt lat="42.95359" lon="-1.82238">
        <ele>488.706</ele>
        <time>2020-05-16T12:48:39Z</time>
      </trkpt>
      <trkpt lat="42.95361" lon="-1.8224">
        <ele>488.326</ele>
        <time>2020-05-16T12:48:59Z</time>
      </trkpt>
      <trkpt lat="42.95369" lon="-1.82244">
        <ele>487.308</ele>
        <time>2020-05-16T12:49:19Z</time>
      </trkpt>
      <trkpt lat="42.95378" lon="-1.82248">
        <ele>487.722</ele>
        <time>2020-05-16T12:49:39Z</time>
      </trkpt>
      <trkpt lat="42.95387" lon="-1.82251">
        <ele>486.237</ele>
        <time>2020-05-16T12:49:59Z</time>
      </trkpt>
      <trkpt lat="42.95388" lon="-1.82252">
        <ele>485.951</ele>
        <time>2020-05-16T12:50:19Z</time>
      </trkpt>
      <trkpt lat="42.95397" lon="-1.82255">
        <ele>485.429</ele>
        <time>2020-05-16T12:50:39Z</time>
      </trkpt>
      <trkpt lat="42.954" lon="-1.82256">
        <ele>485.454</ele>
        <time>2020-05-16T12:50:59Z</time>
      </trkpt>
      <trkpt lat="42.95401" lon="-1.82257">
        <ele>485.164</ele>
        <time>2020-05-16T12:51:19Z</time>
      </trkpt>
      <trkpt lat="42.95406" lon="-1.82259">
        <ele>484.781</ele>
        <time>2020-05-16T12:51:39Z</time>
      </trkpt>
      <trkpt lat="42.95414" lon="-1.82262">
        <ele>484.363</ele>
        <time>2020-05-16T12:51:59Z</time>
      </trkpt>
      <trkpt lat="42.95418" lon="-1.82264">
        <ele>484.149</ele>
        <time>2020-05-16T12:52:19Z</time>
      </trkpt>
      <trkpt lat="42.9542" lon="-1.82265">
        <ele>484.002</ele>
        <time>2020-05-16T12:52:39Z</time>
      </trkpt>
      <trkpt lat="42.95423" lon="-1.82267">
        <ele>483.822</ele>
        <time>2020-05-16T12:52:59Z</time>
      </trkpt>
      <trkpt lat="42.95427" lon="-1.8227">
        <ele>483.708</ele>
        <time>2020-05-16T12:53:19Z</time>
      </trkpt>
      <trkpt lat="42.95431" lon="-1.82273">
        <ele>483.098</ele>
        <time>2020-05-16T12:53:39Z</time>
      </trkpt>
      <trkpt lat="42.95437" lon="-1.82276">
        <ele>482.863</ele>
        <time>2020-05-16T12:53:59Z</time>
      </trkpt>
      <trkpt lat="42.95441" lon="-1.82278">
        <ele>482.377</ele>
        <time>2020-05-16T12:54:19Z</time>
      </trkpt>
      <trkpt lat="42.95444" lon="-1.82279">
        <ele>482.225</ele>
        <time>2020-05-16T12:54:39Z</time>
      </trkpt>
      <trkpt lat="42.95444" lon="-1.8228">
        <ele>482.22</ele>
        <time>2020-05-16T12:54:59Z</time>
      </trkpt>
      <trkpt lat="42.95446" lon="-1.8228">
        <ele>482.21</ele>
        <time>2020-05-16T12:55:19Z</time>
      </trkpt>
      <trkpt lat="42.95449" lon="-1.82281">
        <ele>482.037</ele>
        <time>2020-05-16T12:55:39Z</time>
      </trkpt>
      <trkpt lat="42.95453" lon="-1.82282">
        <ele>481.839</ele>
        <time>2020-05-16T12:55:59Z</time>
      </trkpt>
      <trkpt lat="42.95459" lon="-1.82283">
        <ele>481.426</ele>
        <time>2020-05-16T12:56:19Z</time>
      </trkpt>
      <trkpt lat="42.95464" lon="-1.82284">
        <ele>481.047</ele>
        <time>2020-05-16T12:56:39Z</time>
      </trkpt>
      <trkpt lat="42.95465" lon="-1.82284">
        <ele>481.011</ele>
        <time>2020-05-16T12:56:59Z</time>
      </trkpt>
      <trkpt lat="42.95466" lon="-1.82284">
        <ele>481.008</ele>
        <time>2020-05-16T12:57:19Z</time>
      </trkpt>
      <trkpt lat="42.9547" lon="-1.82285">
        <ele>480.916</ele>
        <time>2020-05-16T12:57:39Z</time>
      </trkpt>
      <trkpt lat="42.95474" lon="-1.82286">
        <ele>481.831</ele>
        <time>2020-05-16T12:57:59Z</time>
      </trkpt>
      <trkpt lat="42.95478" lon="-1.82288">
        <ele>483.155</ele>
        <time>2020-05-16T12:58:19Z</time>
      </trkpt>
      <trkpt lat="42.9548" lon="-1.82289">
        <ele>483.163</ele>
        <time>2020-05-16T12:58:39Z</time>
      </trkpt>
      <trkpt lat="42.95483" lon="-1.8229">
        <ele>480.038</ele>
        <time>2020-05-16T12:58:59Z</time>
      </trkpt>
      <trkpt lat="42.95484" lon="-1.82292">
        <ele>480.018</ele>
        <time>2020-05-16T12:59:19Z</time>
      </trkpt>
      <trkpt lat="42.95486" lon="-1.82293">
        <ele>480.055</ele>
        <time>2020-05-16T12:59:39Z</time>
      </trkpt>
      <trkpt lat="42.95487" lon="-1.82294">
        <ele>480.027</ele>
        <time>2020-05-16T12:59:59Z</time>
      </trkpt>
      <trkpt lat="42.95487" lon="-1.82295">
        <ele>480.052</ele>
        <time>2020-05-16T13:00:19Z</time>
      </trkpt>
      <trkpt lat="42.95488" lon="-1.82296">
        <ele>479.453</ele>
        <time>2020-05-16T13:00:39Z</time>
      </trkpt>
      <trkpt lat="42.95489" lon="-1.82298">
        <ele>479.408</ele>
        <time>2020-05-16T13:00:59Z</time>
      </trkpt>
      <trkpt lat="42.95489" lon="-1.82301">
        <ele>479.408</ele>
        <time>2020-05-16T13:01:19Z</time>
      </trkpt>
      <trkpt lat="42.95489" lon="-1.82302">
        <ele>479.139</ele>
        <time>2020-05-16T13:01:39Z</time>
      </trkpt>
      <trkpt lat="42.95489" lon="-1.82305">
        <ele>479.194</ele>
        <time>2020-05-16T13:01:59Z</time>
      </trkpt>
      <trkpt lat="42.95489" lon="-1.82307">
        <ele>478.798</ele>
        <time>2020-05-16T13:02:19Z</time>
      </trkpt>
      <trkpt lat="42.95489" lon="-1.82314">
        <ele>478.236</ele>
        <time>2020-05-16T13:02:39Z</time>
      </trkpt>
      <trkpt lat="42.95489" lon="-1.82315">
        <ele>478.251</ele>
        <time>2020-05-16T13:02:59Z</time>
      </trkpt>
      <trkpt lat="42.95488" lon="-1.82317">
        <ele>478.291</ele>
        <time>2020-05-16T13:03:19Z</time>
      </trkpt>
      <trkpt lat="42.95488" lon="-1.82319">
        <ele>478.218</ele>
        <time>2020-05-16T13:03:39Z</time>
      </trkpt>
      <trkpt lat="42.95487" lon="-1.8232">
        <ele>477.86</ele>
        <time>2020-05-16T13:03:59Z</time>
      </trkpt>
      <trkpt lat="42.95487" lon="-1.82322">
        <ele>477.857</ele>
        <time>2020-05-16T13:04:19Z</time>
      </trkpt>
      <trkpt lat="42.95486" lon="-1.82323">
        <ele>477.8</ele>
        <time>2020-05-16T13:04:39Z</time>
      </trkpt>
      <trkpt lat="42.95485" lon="-1.82323">
        <ele>477.82</ele>
        <time>2020-05-16T13:04:59Z</time>
      </trkpt>
      <trkpt lat="42.95483" lon="-1.82324">
        <ele>477.808</ele>
        <time>2020-05-16T13:05:19Z</time>
      </trkpt>
      <trkpt lat="42.95482" lon="-1.82324">
        <ele>477.459</ele>
        <time>2020-05-16T13:05:39Z</time>
      </trkpt>
      <trkpt lat="42.95479" lon="-1.82325">
        <ele>477.464</ele>
        <time>2020-05-16T13:05:59Z</time>
      </trkpt>
      <trkpt lat="42.95478" lon="-1.82325">
        <ele>477.148</ele>
        <time>2020-05-16T13:06:19Z</time>
      </trkpt>
      <trkpt lat="42.95475" lon="-1.82325">
        <ele>477.166</ele>
        <time>2020-05-16T13:06:39Z</time>
      </trkpt>
      <trkpt lat="42.95471" lon="-1.82326">
        <ele>476.511</ele>
        <time>2020-05-16T13:06:59Z</time>
      </trkpt>
      <trkpt lat="42.95468" lon="-1.82326">
        <ele>476.371</ele>
        <time>2020-05-16T13:07:19Z</time>
      </trkpt>
      <trkpt lat="42.95463" lon="-1.82326">
        <ele>476.128</ele>
        <time>2020-05-16T13:07:39Z</time>
      </trkpt>
      <trkpt lat="42.95459" lon="-1.82326">
        <ele>475.87</ele>
        <time>2020-05-16T13:07:59Z</time>
      </trkpt>
      <trkpt lat="42.95457" lon="-1.82326">
        <ele>475.865</ele>
        <time>2020-05-16T13:08:19Z</time>
      </trkpt>
      <trkpt lat="42.95456" lon="-1.82326">
        <ele>475.868</ele>
        <time>2020-05-16T13:08:39Z</time>
      </trkpt>
      <trkpt lat="42.95451" lon="-1.82327">
        <ele>474.814</ele>
        <time>2020-05-16T13:08:59Z</time>
      </trkpt>
      <trkpt lat="42.95447" lon="-1.82328">
        <ele>474.608</ele>
        <time>2020-05-16T13:09:19Z</time>
      </trkpt>
      <trkpt lat="42.95438" lon="-1.82329">
        <ele>474.33</ele>
        <time>2020-05-16T13:09:39Z</time>
      </trkpt>
      <trkpt lat="42.95433" lon="-1.8233">
        <ele>473.575</ele>
        <time>2020-05-16T13:09:59Z</time>
      </trkpt>
      <trkpt lat="42.95427" lon="-1.82332">
        <ele>473.159</ele>
        <time>2020-05-16T13:10:19Z</time>
      </trkpt>
      <trkpt lat="42.95418" lon="-1.82333">
        <ele>472.347</ele>
        <time>2020-05-16T13:10:39Z</time>
      </trkpt>
      <trkpt lat="42.95418" lon="-1.82333">
        <ele>472.392</ele>
        <time>2020-05-16T13:10:59Z</time>
      </trkpt>
      <trkpt lat="42.95414" lon="-1.82334">
        <ele>472.072</ele>
        <time>2020-05-16T13:11:19Z</time>
      </trkpt>
      <trkpt lat="42.95412" lon="-1.82335">
        <ele>472.089</ele>
        <time>2020-05-16T13:11:39Z</time>
      </trkpt>
      <trkpt lat="42.95409" lon="-1.82337">
        <ele>471.711</ele>
        <time>2020-05-16T13:11:59Z</time>
      </trkpt>
      <trkpt lat="42.95405" lon="-1.82339">
        <ele>471.343</ele>
        <time>2020-05-16T13:12:19Z</time>
      </trkpt>
      <trkpt lat="42.95402" lon="-1.82341">
        <ele>470.664</ele>
        <time>2020-05-16T13:12:39Z</time>
      </trkpt>
      <trkpt lat="42.95397" lon="-1.8234">
        <ele>470.51</ele>
        <time>2020-05-16T13:12:59Z</time>
      </trkpt>
      <trkpt lat="42.95388" lon="-1.82339">
        <ele>472.908</ele>
        <time>2020-05-16T13:13:19Z</time>
      </trkpt>
      <trkpt lat="42.95378" lon="-1.8234">
        <ele>472.178</ele>
        <time>2020-05-16T13:13:39Z</time>
      </trkpt>
      <trkpt lat="42.9537" lon="-1.82342">
        <ele>469.723</ele>
        <time>2020-05-16T13:13:59Z</time>
      </trkpt>
      <trkpt lat="42.95363" lon="-1.82343">
        <ele>470.687</ele>
        <time>2020-05-16T13:14:19Z</time>
      </trkpt>
      <trkpt lat="42.95357" lon="-1.82346">
        <ele>470.855</ele>
        <time>2020-05-16T13:14:39Z</time>
      </trkpt>
      <trkpt lat="42.95349" lon="-1.8235">
        <ele>470.91</ele>
        <time>2020-05-16T13:14:59Z</time>
      </trkpt>
      <trkpt lat="42.95341" lon="-1.82355">
        <ele>471.44</ele>
        <time>2020-05-16T13:15:19Z</time>
      </trkpt>
      <trkpt lat="42.95333" lon="-1.82361">
        <ele>470.897</ele>
        <time>2020-05-16T13:15:39Z</time>
      </trkpt>
      <trkpt lat="42.95324" lon="-1.82368">
        <ele>467.119</ele>
        <time>2020-05-16T13:15:59Z</time>
      </trkpt>
      <trkpt lat="42.9532" lon="-1.82372">
        <ele>465.044</ele>
        <time>2020-05-16T13:16:19Z</time>
      </trkpt>
      <trkpt lat="42.95317" lon="-1.82376">
        <ele>465.005</ele>
        <time>2020-05-16T13:16:39Z</time>
      </trkpt>
      <trkpt lat="42.95313" lon="-1.8238">
        <ele>465.015</ele>
        <time>2020-05-16T13:16:59Z</time>
      </trkpt>
      <trkpt lat="42.95307" lon="-1.82386">
        <ele>465.108</ele>
        <time>2020-05-16T13:17:19Z</time>
      </trkpt>
      <trkpt lat="42.95301" lon="-1.82393">
        <ele>464.928</ele>
        <time>2020-05-16T13:17:39Z</time>
      </trkpt>
      <trkpt lat="42.95295" lon="-1.82399">
        <ele>465.893</ele>
        <time>2020-05-16T13:17:59Z</time>
      </trkpt>
      <trkpt lat="42.95286" lon="-1.82409">
        <ele>470.667</ele>
        <time>2020-05-16T13:18:19Z</time>
      </trkpt>
      <trkpt lat="42.95281" lon="-1.82415">
        <ele>470.035</ele>
        <time>2020-05-16T13:18:39Z</time>
      </trkpt>
      <trkpt lat="42.95275" lon="-1.82422">
        <ele>469.98</ele>
        <time>2020-05-16T13:18:59Z</time>
      </trkpt>
      <trkpt lat="42.95273" lon="-1.82422">
        <ele>470.03</ele>
        <time>2020-05-16T13:19:19Z</time>
      </trkpt>
      <trkpt lat="42.9527" lon="-1.82421">
        <ele>469.957</ele>
        <time>2020-05-16T13:19:39Z</time>
      </trkpt>
      <trkpt lat="42.95267" lon="-1.8242">
        <ele>469.949</ele>
        <time>2020-05-16T13:19:59Z</time>
      </trkpt>
      <trkpt lat="42.95262" lon="-1.8242">
        <ele>469.955</ele>
        <time>2020-05-16T13:20:19Z</time>
      </trkpt>
      <trkpt lat="42.9526" lon="-1.8242">
        <ele>469.907</ele>
        <time>2020-05-16T13:20:39Z</time>
      </trkpt>
      <trkpt lat="42.95257" lon="-1.82421">
        <ele>469.917</ele>
        <time>2020-05-16T13:20:59Z</time>
      </trkpt>
      <trkpt lat="42.95251" lon="-1.82422">
        <ele>470.008</ele>
        <time>2020-05-16T13:21:19Z</time>
      </trkpt>
      <trkpt lat="42.9524" lon="-1.82428">
        <ele>470.299</ele>
        <time>2020-05-16T13:21:39Z</time>
      </trkpt>
      <trkpt lat="42.95235" lon="-1.82435">
        <ele>470.244</ele>
        <time>2020-05-16T13:21:59Z</time>
      </trkpt>
      <trkpt lat="42.95229" lon="-1.82445">
        <ele>470.238</ele>
        <time>2020-05-16T13:22:19Z</time>
      </trkpt>
      <trkpt lat="42.95224" lon="-1.82458">
        <ele>470.676</ele>
        <time>2020-05-16T13:22:39Z</time>
      </trkpt>
      <trkpt lat="42.95222" lon="-1.82473">
        <ele>472.981</ele>
        <time>2020-05-16T13:22:59Z</time>
      </trkpt>
      <trkpt lat="42.95222" lon="-1.82477">
        <ele>472.991</ele>
        <time>2020-05-16T13:23:19Z</time>
      </trkpt>
      <trkpt lat="42.95221" lon="-1.82484">
        <ele>479.638</ele>
        <time>2020-05-16T13:23:39Z</time>
      </trkpt>
      <trkpt lat="42.95219" lon="-1.82499">
        <ele>478.94</ele>
        <time>2020-05-16T13:23:59Z</time>
      </trkpt>
      <trkpt lat="42.95218" lon="-1.8251">
        <ele>475.484</ele>
        <time>2020-05-16T13:24:19Z</time>
      </trkpt>
      <trkpt lat="42.95218" lon="-1.82515">
        <ele>472.307</ele>
        <time>2020-05-16T13:24:39Z</time>
      </trkpt>
      <trkpt lat="42.95217" lon="-1.82518">
        <ele>472.317</ele>
        <time>2020-05-16T13:24:59Z</time>
      </trkpt>
      <trkpt lat="42.95215" lon="-1.82527">
        <ele>472.608</ele>
        <time>2020-05-16T13:25:19Z</time>
      </trkpt>
      <trkpt lat="42.95215" lon="-1.8253">
        <ele>472.632</ele>
        <time>2020-05-16T13:25:39Z</time>
      </trkpt>
      <trkpt lat="42.95213" lon="-1.82536">
        <ele>472.697</ele>
        <time>2020-05-16T13:25:59Z</time>
      </trkpt>
      <trkpt lat="42.95211" lon="-1.82542">
        <ele>472.921</ele>
        <time>2020-05-16T13:26:19Z</time>
      </trkpt>
      <trkpt lat="42.9521" lon="-1.82546">
        <ele>472.819</ele>
        <time>2020-05-16T13:26:39Z</time>
      </trkpt>
      <trkpt lat="42.95208" lon="-1.82548">
        <ele>473.024</ele>
        <time>2020-05-16T13:26:59Z</time>
      </trkpt>
      <trkpt lat="42.95207" lon="-1.82552">
        <ele>473.114</ele>
        <time>2020-05-16T13:27:19Z</time>
      </trkpt>
      <trkpt lat="42.95204" lon="-1.82556">
        <ele>473.151</ele>
        <time>2020-05-16T13:27:39Z</time>
      </trkpt>
      <trkpt lat="42.95203" lon="-1.82558">
        <ele>473.343</ele>
        <time>2020-05-16T13:27:59Z</time>
      </trkpt>
      <trkpt lat="42.95206" lon="-1.82566">
        <ele>475.299</ele>
        <time>2020-05-16T13:28:19Z</time>
      </trkpt>
      <trkpt lat="42.95203" lon="-1.8257">
        <ele>473.507</ele>
        <time>2020-05-16T13:28:39Z</time>
      </trkpt>
      <trkpt lat="42.95194" lon="-1.82579">
        <ele>474.427</ele>
        <time>2020-05-16T13:28:59Z</time>
      </trkpt>
      <trkpt lat="42.95187" lon="-1.82584">
        <ele>473.908</ele>
        <time>2020-05-16T13:29:19Z</time>
      </trkpt>
      <trkpt lat="42.95178" lon="-1.82587">
        <ele>474.393</ele>
        <time>2020-05-16T13:29:39Z</time>
      </trkpt>
      <trkpt lat="42.9517" lon="-1.8259">
        <ele>474.918</ele>
        <time>2020-05-16T13:29:59Z</time>
      </trkpt>
      <trkpt lat="42.95164" lon="-1.82593">
        <ele>474.412</ele>
        <time>2020-05-16T13:30:19Z</time>
      </trkpt>
      <trkpt lat="42.95159" lon="-1.82595">
        <ele>474.02</ele>
        <time>2020-05-16T13:30:39Z</time>
      </trkpt>
      <trkpt lat="42.95156" lon="-1.82599">
        <ele>474.215</ele>
        <time>2020-05-16T13:30:59Z</time>
      </trkpt>
      <trkpt lat="42.95151" lon="-1.82611">
        <ele>474.965</ele>
        <time>2020-05-16T13:31:19Z</time>
      </trkpt>
      <trkpt lat="42.95148" lon="-1.8262">
        <ele>474.812</ele>
        <time>2020-05-16T13:31:39Z</time>
      </trkpt>
      <trkpt lat="42.95147" lon="-1.8262">
        <ele>474.664</ele>
        <time>2020-05-16T13:31:59Z</time>
      </trkpt>
      <trkpt lat="42.95144" lon="-1.8262">
        <ele>474.654</ele>
        <time>2020-05-16T13:32:19Z</time>
      </trkpt>
      <trkpt lat="42.95145" lon="-1.82627">
        <ele>474.656</ele>
        <time>2020-05-16T13:32:39Z</time>
      </trkpt>
      <trkpt lat="42.95144" lon="-1.82631">
        <ele>474.611</ele>
        <time>2020-05-16T13:32:59Z</time>
      </trkpt>
      <trkpt lat="42.95144" lon="-1.82633">
        <ele>476.008</ele>
        <time>2020-05-16T13:33:19Z</time>
      </trkpt>
      <trkpt lat="42.95143" lon="-1.82634">
        <ele>474.629</ele>
        <time>2020-05-16T13:33:39Z</time>
      </trkpt>
      <trkpt lat="42.95139" lon="-1.82634">
        <ele>474.024</ele>
        <time>2020-05-16T13:33:59Z</time>
      </trkpt>
      <trkpt lat="42.95131" lon="-1.82635">
        <ele>473.868</ele>
        <time>2020-05-16T13:34:19Z</time>
      </trkpt>
      <trkpt lat="42.95124" lon="-1.82636">
        <ele>473.516</ele>
        <time>2020-05-16T13:34:39Z</time>
      </trkpt>
      <trkpt lat="42.95115" lon="-1.82639">
        <ele>473.231</ele>
        <time>2020-05-16T13:34:59Z</time>
      </trkpt>
      <trkpt lat="42.95105" lon="-1.82641">
        <ele>474.481</ele>
        <time>2020-05-16T13:35:19Z</time>
      </trkpt>
      <trkpt lat="42.95097" lon="-1.82644">
        <ele>472.268</ele>
        <time>2020-05-16T13:35:39Z</time>
      </trkpt>
      <trkpt lat="42.95092" lon="-1.82647">
        <ele>472.56</ele>
        <time>2020-05-16T13:35:59Z</time>
      </trkpt>
      <trkpt lat="42.95082" lon="-1.82655">
        <ele>470.169</ele>
        <time>2020-05-16T13:36:19Z</time>
      </trkpt>
      <trkpt lat="42.95073" lon="-1.82663">
        <ele>469.504</ele>
        <time>2020-05-16T13:36:39Z</time>
      </trkpt>
      <trkpt lat="42.95065" lon="-1.8267">
        <ele>468.924</ele>
        <time>2020-05-16T13:36:59Z</time>
      </trkpt>
      <trkpt lat="42.95062" lon="-1.82671">
        <ele>468.608</ele>
        <time>2020-05-16T13:37:19Z</time>
      </trkpt>
      <trkpt lat="42.95061" lon="-1.82669">
        <ele>468.63</ele>
        <time>2020-05-16T13:37:39Z</time>
      </trkpt>
      <trkpt lat="42.95059" lon="-1.82666">
        <ele>468.655</ele>
        <time>2020-05-16T13:37:59Z</time>
      </trkpt>
      <trkpt lat="42.95058" lon="-1.82663">
        <ele>468.729</ele>
        <time>2020-05-16T13:38:19Z</time>
      </trkpt>
      <trkpt lat="42.95057" lon="-1.82663">
        <ele>468.767</ele>
        <time>2020-05-16T13:38:39Z</time>
      </trkpt>
      <trkpt lat="42.95056" lon="-1.8266">
        <ele>468.752</ele>
        <time>2020-05-16T13:38:59Z</time>
      </trkpt>
      <trkpt lat="42.95056" lon="-1.8266">
        <ele>468.772</ele>
        <time>2020-05-16T13:39:19Z</time>
      </trkpt>
      <trkpt lat="42.95051" lon="-1.82657">
        <ele>468.519</ele>
        <time>2020-05-16T13:39:39Z</time>
      </trkpt>
      <trkpt lat="42.95012" lon="-1.82697">
        <ele>468.161</ele>
        <time>2020-05-16T13:39:59Z</time>
      </trkpt>
      <trkpt lat="42.9497" lon="-1.82738">
        <ele>467.712</ele>
        <time>2020-05-16T13:40:19Z</time>
      </trkpt>
      <trkpt lat="42.94937" lon="-1.82762">
        <ele>466.532</ele>
        <time>2020-05-16T13:40:39Z</time>
      </trkpt>
      <trkpt lat="42.94906" lon="-1.82781">
        <ele>465.705</ele>
        <time>2020-05-16T13:40:59Z</time>
      </trkpt>
      <trkpt lat="42.9488" lon="-1.82796">
        <ele>465.608</ele>
        <time>2020-05-16T13:41:19Z</time>
      </trkpt>
      <trkpt lat="42.94839" lon="-1.82814">
        <ele>465.755</ele>
        <time>2020-05-16T13:41:39Z</time>
      </trkpt>
      <trkpt lat="42.94809" lon="-1.82826">
        <ele>465.52</ele>
        <time>2020-05-16T13:41:59Z</time>
      </trkpt>
      <trkpt lat="42.94715" lon="-1.82858">
        <ele>463.274</ele>
        <time>2020-05-16T13:42:19Z</time>
      </trkpt>
      <trkpt lat="42.9463" lon="-1.82887">
        <ele>462.832</ele>
        <time>2020-05-16T13:42:39Z</time>
      </trkpt>
      <trkpt lat="42.94583" lon="-1.82902">
        <ele>463.297</ele>
        <time>2020-05-16T13:42:59Z</time>
      </trkpt>
      <trkpt lat="42.94518" lon="-1.82925">
        <ele>463.297</ele>
        <time>2020-05-16T13:43:19Z</time>
      </trkpt>
      <trkpt lat="42.9449" lon="-1.82934">
        <ele>463.084</ele>
        <time>2020-05-16T13:43:39Z</time>
      </trkpt>
      <trkpt lat="42.94476" lon="-1.82937">
        <ele>462.856</ele>
        <time>2020-05-16T13:43:59Z</time>
      </trkpt>
      <trkpt lat="42.9447" lon="-1.82937">
        <ele>462.821</ele>
        <time>2020-05-16T13:44:19Z</time>
      </trkpt>
      <trkpt lat="42.94463" lon="-1.82935">
        <ele>462.941</ele>
        <time>2020-05-16T13:44:39Z</time>
      </trkpt>
      <trkpt lat="42.94455" lon="-1.8293">
        <ele>463.005</ele>
        <time>2020-05-16T13:44:59Z</time>
      </trkpt>
      <trkpt lat="42.94447" lon="-1.82923">
        <ele>463.108</ele>
        <time>2020-05-16T13:45:19Z</time>
      </trkpt>
      <trkpt lat="42.9444" lon="-1.82921">
        <ele>462.936</ele>
        <time>2020-05-16T13:45:39Z</time>
      </trkpt>
      <trkpt lat="42.94437" lon="-1.82922">
        <ele>463.221</ele>
        <time>2020-05-16T13:45:59Z</time>
      </trkpt>
      <trkpt lat="42.94432" lon="-1.82923">
        <ele>462.985</ele>
        <time>2020-05-16T13:46:19Z</time>
      </trkpt>
      <trkpt lat="42.94427" lon="-1.82924">
        <ele>462.683</ele>
        <time>2020-05-16T13:46:39Z</time>
      </trkpt>
      <trkpt lat="42.94425" lon="-1.82924">
        <ele>462.738</ele>
        <time>2020-05-16T13:46:59Z</time>
      </trkpt>
      <trkpt lat="42.94423" lon="-1.82924">
        <ele>462.788</ele>
        <time>2020-05-16T13:47:19Z</time>
      </trkpt>
      <trkpt lat="42.94421" lon="-1.82924">
        <ele>462.775</ele>
        <time>2020-05-16T13:47:39Z</time>
      </trkpt>
      <trkpt lat="42.94418" lon="-1.82924">
        <ele>462.727</ele>
        <time>2020-05-16T13:47:59Z</time>
      </trkpt>
      <trkpt lat="42.94416" lon="-1.82924">
        <ele>463.683</ele>
        <time>2020-05-16T13:48:19Z</time>
      </trkpt>
      <trkpt lat="42.94414" lon="-1.82923">
        <ele>463.625</ele>
        <time>2020-05-16T13:48:39Z</time>
      </trkpt>
      <trkpt lat="42.94412" lon="-1.82922">
        <ele>462.517</ele>
        <time>2020-05-16T13:48:59Z</time>
      </trkpt>
      <trkpt lat="42.9441" lon="-1.82921">
        <ele>462.508</ele>
        <time>2020-05-16T13:49:19Z</time>
      </trkpt>
      <trkpt lat="42.94406" lon="-1.82919">
        <ele>462.572</ele>
        <time>2020-05-16T13:49:39Z</time>
      </trkpt>
      <trkpt lat="42.94401" lon="-1.82916">
        <ele>462.577</ele>
        <time>2020-05-16T13:49:59Z</time>
      </trkpt>
      <trkpt lat="42.94397" lon="-1.82913">
        <ele>462.471</ele>
        <time>2020-05-16T13:50:19Z</time>
      </trkpt>
      <trkpt lat="42.94393" lon="-1.8291">
        <ele>462.369</ele>
        <time>2020-05-16T13:50:39Z</time>
      </trkpt>
      <trkpt lat="42.94391" lon="-1.82908">
        <ele>462.364</ele>
        <time>2020-05-16T13:50:59Z</time>
      </trkpt>
      <trkpt lat="42.94389" lon="-1.82906">
        <ele>462.464</ele>
        <time>2020-05-16T13:51:19Z</time>
      </trkpt>
      <trkpt lat="42.94385" lon="-1.82902">
        <ele>463.021</ele>
        <time>2020-05-16T13:51:39Z</time>
      </trkpt>
      <trkpt lat="42.94382" lon="-1.82899">
        <ele>463.083</ele>
        <time>2020-05-16T13:51:59Z</time>
      </trkpt>
      <trkpt lat="42.94379" lon="-1.82894">
        <ele>462.248</ele>
        <time>2020-05-16T13:52:19Z</time>
      </trkpt>
      <trkpt lat="42.94373" lon="-1.82885">
        <ele>461.661</ele>
        <time>2020-05-16T13:52:39Z</time>
      </trkpt>
      <trkpt lat="42.94365" lon="-1.8287">
        <ele>462.217</ele>
        <time>2020-05-16T13:52:59Z</time>
      </trkpt>
      <trkpt lat="42.94361" lon="-1.82861">
        <ele>462.108</ele>
        <time>2020-05-16T13:53:19Z</time>
      </trkpt>
      <trkpt lat="42.94358" lon="-1.82856">
        <ele>461.928</ele>
        <time>2020-05-16T13:53:39Z</time>
      </trkpt>
      <trkpt lat="42.94356" lon="-1.8285">
        <ele>462.113</ele>
        <time>2020-05-16T13:53:59Z</time>
      </trkpt>
      <trkpt lat="42.94352" lon="-1.82839">
        <ele>461.817</ele>
        <time>2020-05-16T13:54:19Z</time>
      </trkpt>
      <trkpt lat="42.94349" lon="-1.82832">
        <ele>461.385</ele>
        <time>2020-05-16T13:54:39Z</time>
      </trkpt>
      <trkpt lat="42.94346" lon="-1.82823">
        <ele>461.42</ele>
        <time>2020-05-16T13:54:59Z</time>
      </trkpt>
      <trkpt lat="42.94344" lon="-1.82814">
        <ele>461.53</ele>
        <time>2020-05-16T13:55:19Z</time>
      </trkpt>
      <trkpt lat="42.94342" lon="-1.82808">
        <ele>461.467</ele>
        <time>2020-05-16T13:55:39Z</time>
      </trkpt>
      <trkpt lat="42.94339" lon="-1.82796">
        <ele>461.259</ele>
        <time>2020-05-16T13:55:59Z</time>
      </trkpt>
      <trkpt lat="42.94335" lon="-1.82772">
        <ele>458.326</ele>
        <time>2020-05-16T13:56:19Z</time>
      </trkpt>
      <trkpt lat="42.9433" lon="-1.82749">
        <ele>459.847</ele>
        <time>2020-05-16T13:56:39Z</time>
      </trkpt>
      <trkpt lat="42.94324" lon="-1.8272">
        <ele>460.711</ele>
        <time>2020-05-16T13:56:59Z</time>
      </trkpt>
      <trkpt lat="42.94318" lon="-1.82692">
        <ele>460.308</ele>
        <time>2020-05-16T13:57:19Z</time>
      </trkpt>
      <trkpt lat="42.94311" lon="-1.82658">
        <ele>460.596</ele>
        <time>2020-05-16T13:57:39Z</time>
      </trkpt>
      <trkpt lat="42.9431" lon="-1.82656">
        <ele>460.541</ele>
        <time>2020-05-16T13:57:59Z</time>
      </trkpt>
      <trkpt lat="42.94306" lon="-1.82638">
        <ele>460.955</ele>
        <time>2020-05-16T13:58:19Z</time>
      </trkpt>
      <trkpt lat="42.94302" lon="-1.8262">
        <ele>460.883</ele>
        <time>2020-05-16T13:58:39Z</time>
      </trkpt>
      <trkpt lat="42.94299" lon="-1.82612">
        <ele>460.848</ele>
        <time>2020-05-16T13:58:59Z</time>
      </trkpt>
      <trkpt lat="42.94295" lon="-1.82594">
        <ele>460.248</ele>
        <time>2020-05-16T13:59:19Z</time>
      </trkpt>
      <trkpt lat="42.94291" lon="-1.82578">
        <ele>459.975</ele>
        <time>2020-05-16T13:59:39Z</time>
      </trkpt>
      <trkpt lat="42.9429" lon="-1.82573">
        <ele>459.957</ele>
        <time>2020-05-16T13:59:59Z</time>
      </trkpt>
      <trkpt lat="42.94288" lon="-1.82563">
        <ele>460.071</ele>
        <time>2020-05-16T14:00:19Z</time>
      </trkpt>
      <trkpt lat="42.94287" lon="-1.82556">
        <ele>460.441</ele>
        <time>2020-05-16T14:00:39Z</time>
      </trkpt>
      <trkpt lat="42.94284" lon="-1.82545">
        <ele>460.515</ele>
        <time>2020-05-16T14:00:59Z</time>
      </trkpt>
      <trkpt lat="42.94281" lon="-1.82534">
        <ele>460.508</ele>
        <time>2020-05-16T14:01:19Z</time>
      </trkpt>
      <trkpt lat="42.94278" lon="-1.8252">
        <ele>458.771</ele>
        <time>2020-05-16T14:01:39Z</time>
      </trkpt>
      <trkpt lat="42.94274" lon="-1.82504">
        <ele>460.086</ele>
        <time>2020-05-16T14:01:59Z</time>
      </trkpt>
      <trkpt lat="42.94271" lon="-1.82489">
        <ele>459.95</ele>
        <time>2020-05-16T14:02:19Z</time>
      </trkpt>
      <trkpt lat="42.94268" lon="-1.82478">
        <ele>459.868</ele>
        <time>2020-05-16T14:02:39Z</time>
      </trkpt>
      <trkpt lat="42.94266" lon="-1.82472">
        <ele>459.883</ele>
        <time>2020-05-16T14:02:59Z</time>
      </trkpt>
      <trkpt lat="42.94264" lon="-1.82465">
        <ele>459.793</ele>
        <time>2020-05-16T14:03:19Z</time>
      </trkpt>
      <trkpt lat="42.94262" lon="-1.82459">
        <ele>459.62</ele>
        <time>2020-05-16T14:03:39Z</time>
      </trkpt>
      <trkpt lat="42.9426" lon="-1.82453">
        <ele>458.562</ele>
        <time>2020-05-16T14:03:59Z</time>
      </trkpt>
      <trkpt lat="42.94255" lon="-1.82439">
        <ele>459.562</ele>
        <time>2020-05-16T14:04:19Z</time>
      </trkpt>
      <trkpt lat="42.9425" lon="-1.82425">
        <ele>459.783</ele>
        <time>2020-05-16T14:04:39Z</time>
      </trkpt>
      <trkpt lat="42.94247" lon="-1.82419">
        <ele>459.711</ele>
        <time>2020-05-16T14:04:59Z</time>
      </trkpt>
      <trkpt lat="42.94245" lon="-1.82412">
        <ele>459.808</ele>
        <time>2020-05-16T14:05:19Z</time>
      </trkpt>
      <trkpt lat="42.9424" lon="-1.82402">
        <ele>459.88</ele>
        <time>2020-05-16T14:05:39Z</time>
      </trkpt>
      <trkpt lat="42.94236" lon="-1.82395">
        <ele>460.125</ele>
        <time>2020-05-16T14:05:59Z</time>
      </trkpt>
      <trkpt lat="42.94232" lon="-1.82388">
        <ele>459.859</ele>
        <time>2020-05-16T14:06:19Z</time>
      </trkpt>
      <trkpt lat="42.94225" lon="-1.82378">
        <ele>460.277</ele>
        <time>2020-05-16T14:06:39Z</time>
      </trkpt>
      <trkpt lat="42.94222" lon="-1.82373">
        <ele>460.042</ele>
        <time>2020-05-16T14:06:59Z</time>
      </trkpt>
      <trkpt lat="42.94218" lon="-1.82368">
        <ele>460.092</ele>
        <time>2020-05-16T14:07:19Z</time>
      </trkpt>
      <trkpt lat="42.94214" lon="-1.82365">
        <ele>460.069</ele>
        <time>2020-05-16T14:07:39Z</time>
      </trkpt>
      <trkpt lat="42.94212" lon="-1.8236">
        <ele>459.921</ele>
        <time>2020-05-16T14:07:59Z</time>
      </trkpt>
      <trkpt lat="42.9421" lon="-1.82358">
        <ele>459.979</ele>
        <time>2020-05-16T14:08:19Z</time>
      </trkpt>
      <trkpt lat="42.94207" lon="-1.82355">
        <ele>459.605</ele>
        <time>2020-05-16T14:08:39Z</time>
      </trkpt>
      <trkpt lat="42.94205" lon="-1.82354">
        <ele>459.625</ele>
        <time>2020-05-16T14:08:59Z</time>
      </trkpt>
      <trkpt lat="42.94202" lon="-1.82353">
        <ele>460.708</ele>
        <time>2020-05-16T14:09:19Z</time>
      </trkpt>
      <trkpt lat="42.942" lon="-1.82352">
        <ele>460.721</ele>
        <time>2020-05-16T14:09:39Z</time>
      </trkpt>
      <trkpt lat="42.94198" lon="-1.82352">
        <ele>459.886</ele>
        <time>2020-05-16T14:09:59Z</time>
      </trkpt>
      <trkpt lat="42.94195" lon="-1.82351">
        <ele>459.81</ele>
        <time>2020-05-16T14:10:19Z</time>
      </trkpt>
      <trkpt lat="42.94193" lon="-1.82352">
        <ele>459.848</ele>
        <time>2020-05-16T14:10:39Z</time>
      </trkpt>
      <trkpt lat="42.94191" lon="-1.82352">
        <ele>459.893</ele>
        <time>2020-05-16T14:10:59Z</time>
      </trkpt>
      <trkpt lat="42.94188" lon="-1.82354">
        <ele>459.883</ele>
        <time>2020-05-16T14:11:19Z</time>
      </trkpt>
      <trkpt lat="42.94183" lon="-1.82357">
        <ele>460.12</ele>
        <time>2020-05-16T14:11:39Z</time>
      </trkpt>
      <trkpt lat="42.94177" lon="-1.8236">
        <ele>459.872</ele>
        <time>2020-05-16T14:11:59Z</time>
      </trkpt>
      <trkpt lat="42.94174" lon="-1.82362">
        <ele>459.868</ele>
        <time>2020-05-16T14:12:19Z</time>
      </trkpt>
      <trkpt lat="42.94172" lon="-1.82363">
        <ele>461.842</ele>
        <time>2020-05-16T14:12:39Z</time>
      </trkpt>
      <trkpt lat="42.94164" lon="-1.8237">
        <ele>461.826</ele>
        <time>2020-05-16T14:12:59Z</time>
      </trkpt>
      <trkpt lat="42.9416" lon="-1.82373">
        <ele>459.608</ele>
        <time>2020-05-16T14:13:19Z</time>
      </trkpt>
      <trkpt lat="42.94146" lon="-1.82386">
        <ele>459.54</ele>
        <time>2020-05-16T14:13:39Z</time>
      </trkpt>
      <trkpt lat="42.94134" lon="-1.82397">
        <ele>460.655</ele>
        <time>2020-05-16T14:13:59Z</time>
      </trkpt>
      <trkpt lat="42.94121" lon="-1.82409">
        <ele>459.269</ele>
        <time>2020-05-16T14:14:19Z</time>
      </trkpt>
      <trkpt lat="42.94109" lon="-1.8242">
        <ele>459.247</ele>
        <time>2020-05-16T14:14:39Z</time>
      </trkpt>
      <trkpt lat="42.94103" lon="-1.82427">
        <ele>459.212</ele>
        <time>2020-05-16T14:14:59Z</time>
      </trkpt>
      <trkpt lat="42.94096" lon="-1.82434">
        <ele>459.042</ele>
        <time>2020-05-16T14:15:19Z</time>
      </trkpt>
      <trkpt lat="42.94096" lon="-1.82435">
        <ele>459.049</ele>
        <time>2020-05-16T14:15:39Z</time>
      </trkpt>
      <trkpt lat="42.94089" lon="-1.8244">
        <ele>459.071</ele>
        <time>2020-05-16T14:15:59Z</time>
      </trkpt>
      <trkpt lat="42.94089" lon="-1.82441">
        <ele>459.019</ele>
        <time>2020-05-16T14:16:19Z</time>
      </trkpt>
      <trkpt lat="42.94085" lon="-1.82444">
        <ele>458.809</ele>
        <time>2020-05-16T14:16:39Z</time>
      </trkpt>
      <trkpt lat="42.94083" lon="-1.82446">
        <ele>458.819</ele>
        <time>2020-05-16T14:16:59Z</time>
      </trkpt>
      <trkpt lat="42.94081" lon="-1.82448">
        <ele>458.808</ele>
        <time>2020-05-16T14:17:19Z</time>
      </trkpt>
      <trkpt lat="42.94069" lon="-1.82462">
        <ele>458.645</ele>
        <time>2020-05-16T14:17:39Z</time>
      </trkpt>
      <trkpt lat="42.94066" lon="-1.82468">
        <ele>458.84</ele>
        <time>2020-05-16T14:17:59Z</time>
      </trkpt>
      <trkpt lat="42.94062" lon="-1.82475">
        <ele>458.744</ele>
        <time>2020-05-16T14:18:19Z</time>
      </trkpt>
      <trkpt lat="42.94061" lon="-1.82477">
        <ele>458.782</ele>
        <time>2020-05-16T14:18:39Z</time>
      </trkpt>
      <trkpt lat="42.94055" lon="-1.82486">
        <ele>458.667</ele>
        <time>2020-05-16T14:18:59Z</time>
      </trkpt>
      <trkpt lat="42.94049" lon="-1.82497">
        <ele>458.767</ele>
        <time>2020-05-16T14:19:19Z</time>
      </trkpt>
      <trkpt lat="42.94044" lon="-1.82506">
        <ele>458.614</ele>
        <time>2020-05-16T14:19:39Z</time>
      </trkpt>
      <trkpt lat="42.9404" lon="-1.82513">
        <ele>458.046</ele>
        <time>2020-05-16T14:19:59Z</time>
      </trkpt>
      <trkpt lat="42.94038" lon="-1.82518">
        <ele>457.557</ele>
        <time>2020-05-16T14:20:19Z</time>
      </trkpt>
      <trkpt lat="42.94036" lon="-1.82523">
        <ele>457.4</ele>
        <time>2020-05-16T14:20:39Z</time>
      </trkpt>
      <trkpt lat="42.94034" lon="-1.82531">
        <ele>457.22</ele>
        <time>2020-05-16T14:20:59Z</time>
      </trkpt>
      <trkpt lat="42.94033" lon="-1.82538">
        <ele>456.908</ele>
        <time>2020-05-16T14:21:19Z</time>
      </trkpt>
      <trkpt lat="42.94021" lon="-1.82543">
        <ele>455.689</ele>
        <time>2020-05-16T14:21:39Z</time>
      </trkpt>
      <trkpt lat="42.94016" lon="-1.82554">
        <ele>454.714</ele>
        <time>2020-05-16T14:21:59Z</time>
      </trkpt>
      <trkpt lat="42.94011" lon="-1.82553">
        <ele>453.988</ele>
        <time>2020-05-16T14:22:19Z</time>
      </trkpt>
      <trkpt lat="42.94" lon="-1.82545">
        <ele>453.996</ele>
        <time>2020-05-16T14:22:39Z</time>
      </trkpt>
      <trkpt lat="42.93994" lon="-1.82541">
        <ele>469.921</ele>
        <time>2020-05-16T14:22:59Z</time>
      </trkpt>
      <trkpt lat="42.9399" lon="-1.82551">
        <ele>476.171</ele>
        <time>2020-05-16T14:23:19Z</time>
      </trkpt>
      <trkpt lat="42.9399" lon="-1.82561">
        <ele>476.028</ele>
        <time>2020-05-16T14:23:39Z</time>
      </trkpt>
      <trkpt lat="42.93989" lon="-1.82574">
        <ele>467.09</ele>
        <time>2020-05-16T14:23:59Z</time>
      </trkpt>
      <trkpt lat="42.93985" lon="-1.82591">
        <ele>458.422</ele>
        <time>2020-05-16T14:24:19Z</time>
      </trkpt>
      <trkpt lat="42.93976" lon="-1.82602">
        <ele>458.162</ele>
        <time>2020-05-16T14:24:39Z</time>
      </trkpt>
      <trkpt lat="42.93969" lon="-1.82606">
        <ele>458.408</ele>
        <time>2020-05-16T14:24:59Z</time>
      </trkpt>
      <trkpt lat="42.93953" lon="-1.82615">
        <ele>458.308</ele>
        <time>2020-05-16T14:25:19Z</time>
      </trkpt>
      <trkpt lat="42.93935" lon="-1.82627">
        <ele>458.416</ele>
        <time>2020-05-16T14:25:39Z</time>
      </trkpt>
      <trkpt lat="42.9392" lon="-1.82635">
        <ele>458.661</ele>
        <time>2020-05-16T14:25:59Z</time>
      </trkpt>
      <trkpt lat="42.93892" lon="-1.82653">
        <ele>459.045</ele>
        <time>2020-05-16T14:26:19Z</time>
      </trkpt>
      <trkpt lat="42.93871" lon="-1.82663">
        <ele>461.733</ele>
        <time>2020-05-16T14:26:39Z</time>
      </trkpt>
      <trkpt lat="42.93857" lon="-1.82673">
        <ele>460.678</ele>
        <time>2020-05-16T14:26:59Z</time>
      </trkpt>
      <trkpt lat="42.9384" lon="-1.82681">
        <ele>462.218</ele>
        <time>2020-05-16T14:27:19Z</time>
      </trkpt>
      <trkpt lat="42.93821" lon="-1.82686">
        <ele>460.785</ele>
        <time>2020-05-16T14:27:39Z</time>
      </trkpt>
      <trkpt lat="42.93806" lon="-1.82689">
        <ele>460.877</ele>
        <time>2020-05-16T14:27:59Z</time>
      </trkpt>
      <trkpt lat="42.93797" lon="-1.82695">
        <ele>460.391</ele>
        <time>2020-05-16T14:28:19Z</time>
      </trkpt>
      <trkpt lat="42.93787" lon="-1.82705">
        <ele>460.681</ele>
        <time>2020-05-16T14:28:39Z</time>
      </trkpt>
      <trkpt lat="42.93775" lon="-1.8272">
        <ele>460.819</ele>
        <time>2020-05-16T14:28:59Z</time>
      </trkpt>
      <trkpt lat="42.93765" lon="-1.82735">
        <ele>460.908</ele>
        <time>2020-05-16T14:29:19Z</time>
      </trkpt>
      <trkpt lat="42.93754" lon="-1.82755">
        <ele>461.553</ele>
        <time>2020-05-16T14:29:39Z</time>
      </trkpt>
      <trkpt lat="42.9375" lon="-1.82762">
        <ele>461.238</ele>
        <time>2020-05-16T14:29:59Z</time>
      </trkpt>
      <trkpt lat="42.93735" lon="-1.828">
        <ele>461.072</ele>
        <time>2020-05-16T14:30:19Z</time>
      </trkpt>
      <trkpt lat="42.93718" lon="-1.82837">
        <ele>463.23</ele>
        <time>2020-05-16T14:30:39Z</time>
      </trkpt>
      <trkpt lat="42.93704" lon="-1.82875">
        <ele>461.545</ele>
        <time>2020-05-16T14:30:59Z</time>
      </trkpt>
      <trkpt lat="42.93692" lon="-1.82899">
        <ele>462.265</ele>
        <time>2020-05-16T14:31:19Z</time>
      </trkpt>
      <trkpt lat="42.93684" lon="-1.82922">
        <ele>461.682</ele>
        <time>2020-05-16T14:31:39Z</time>
      </trkpt>
      <trkpt lat="42.93672" lon="-1.82943">
        <ele>461.644</ele>
        <time>2020-05-16T14:31:59Z</time>
      </trkpt>
      <trkpt lat="42.93665" lon="-1.82954">
        <ele>463.473</ele>
        <time>2020-05-16T14:32:19Z</time>
      </trkpt>
      <trkpt lat="42.93656" lon="-1.82963">
        <ele>464.485</ele>
        <time>2020-05-16T14:32:39Z</time>
      </trkpt>
      <trkpt lat="42.93649" lon="-1.82967">
        <ele>464.413</ele>
        <time>2020-05-16T14:32:59Z</time>
      </trkpt>
      <trkpt lat="42.93643" lon="-1.82972">
        <ele>464.108</ele>
        <time>2020-05-16T14:33:19Z</time>
      </trkpt>
      <trkpt lat="42.93626" lon="-1.8298">
        <ele>464.071</ele>
        <time>2020-05-16T14:33:39Z</time>
      </trkpt>
      <trkpt lat="42.93617" lon="-1.82983">
        <ele>464.296</ele>
        <time>2020-05-16T14:33:59Z</time>
      </trkpt>
      <trkpt lat="42.93608" lon="-1.82987">
        <ele>464.24</ele>
        <time>2020-05-16T14:34:19Z</time>
      </trkpt>
      <trkpt lat="42.936" lon="-1.82988">
        <ele>466.078</ele>
        <time>2020-05-16T14:34:39Z</time>
      </trkpt>
      <trkpt lat="42.93589" lon="-1.82989">
        <ele>461.393</ele>
        <time>2020-05-16T14:34:59Z</time>
      </trkpt>
      <trkpt lat="42.9358" lon="-1.82987">
        <ele>464.563</ele>
        <time>2020-05-16T14:35:19Z</time>
      </trkpt>
      <trkpt lat="42.93571" lon="-1.82984">
        <ele>463.93</ele>
        <time>2020-05-16T14:35:39Z</time>
      </trkpt>
      <trkpt lat="42.93563" lon="-1.8298">
        <ele>464.762</ele>
        <time>2020-05-16T14:35:59Z</time>
      </trkpt>
      <trkpt lat="42.93554" lon="-1.82977">
        <ele>463.375</ele>
        <time>2020-05-16T14:36:19Z</time>
      </trkpt>
      <trkpt lat="42.93543" lon="-1.82971">
        <ele>462.028</ele>
        <time>2020-05-16T14:36:39Z</time>
      </trkpt>
      <trkpt lat="42.93525" lon="-1.82959">
        <ele>464.32</ele>
        <time>2020-05-16T14:36:59Z</time>
      </trkpt>
      <trkpt lat="42.93516" lon="-1.82948">
        <ele>464.808</ele>
        <time>2020-05-16T14:37:19Z</time>
      </trkpt>
      <trkpt lat="42.93499" lon="-1.82937">
        <ele>465.641</ele>
        <time>2020-05-16T14:37:39Z</time>
      </trkpt>
      <trkpt lat="42.93485" lon="-1.82931">
        <ele>465.126</ele>
        <time>2020-05-16T14:37:59Z</time>
      </trkpt>
      <trkpt lat="42.93473" lon="-1.82924">
        <ele>464.23</ele>
        <time>2020-05-16T14:38:19Z</time>
      </trkpt>
      <trkpt lat="42.93453" lon="-1.82916">
        <ele>460.338</ele>
        <time>2020-05-16T14:38:39Z</time>
      </trkpt>
      <trkpt lat="42.93445" lon="-1.82905">
        <ele>465.413</ele>
        <time>2020-05-16T14:38:59Z</time>
      </trkpt>
      <trkpt lat="42.93443" lon="-1.82903">
        <ele>465.153</ele>
        <time>2020-05-16T14:39:19Z</time>
      </trkpt>
      <trkpt lat="42.93441" lon="-1.82902">
        <ele>465.16</ele>
        <time>2020-05-16T14:39:39Z</time>
      </trkpt>
      <trkpt lat="42.93436" lon="-1.82897">
        <ele>464.822</ele>
        <time>2020-05-16T14:39:59Z</time>
      </trkpt>
      <trkpt lat="42.93434" lon="-1.82894">
        <ele>464.737</ele>
        <time>2020-05-16T14:40:19Z</time>
      </trkpt>
      <trkpt lat="42.93429" lon="-1.82887">
        <ele>469.149</ele>
        <time>2020-05-16T14:40:39Z</time>
      </trkpt>
      <trkpt lat="42.93425" lon="-1.82881">
        <ele>465.513</ele>
        <time>2020-05-16T14:40:59Z</time>
      </trkpt>
      <trkpt lat="42.93419" lon="-1.82873">
        <ele>464.808</ele>
        <time>2020-05-16T14:41:19Z</time>
      </trkpt>
      <trkpt lat="42.93408" lon="-1.82858">
        <ele>475.197</ele>
        <time>2020-05-16T14:41:39Z</time>
      </trkpt>
      <trkpt lat="42.93403" lon="-1.82852">
        <ele>474.512</ele>
        <time>2020-05-16T14:41:59Z</time>
      </trkpt>
      <trkpt lat="42.93398" lon="-1.82845">
        <ele>473.596</ele>
        <time>2020-05-16T14:42:19Z</time>
      </trkpt>
      <trkpt lat="42.93396" lon="-1.82843">
        <ele>465.644</ele>
        <time>2020-05-16T14:42:39Z</time>
      </trkpt>
      <trkpt lat="42.93394" lon="-1.8284">
        <ele>465.589</ele>
        <time>2020-05-16T14:42:59Z</time>
      </trkpt>
      <trkpt lat="42.93391" lon="-1.82838">
        <ele>465.599</ele>
        <time>2020-05-16T14:43:19Z</time>
      </trkpt>
      <trkpt lat="42.93388" lon="-1.82836">
        <ele>465.626</ele>
        <time>2020-05-16T14:43:39Z</time>
      </trkpt>
      <trkpt lat="42.93385" lon="-1.82835">
        <ele>465.648</ele>
        <time>2020-05-16T14:43:59Z</time>
      </trkpt>
      <trkpt lat="42.93382" lon="-1.82834">
        <ele>465.682</ele>
        <time>2020-05-16T14:44:19Z</time>
      </trkpt>
      <trkpt lat="42.93379" lon="-1.82834">
        <ele>465.643</ele>
        <time>2020-05-16T14:44:39Z</time>
      </trkpt>
      <trkpt lat="42.93377" lon="-1.82833">
        <ele>465.617</ele>
        <time>2020-05-16T14:44:59Z</time>
      </trkpt>
      <trkpt lat="42.93373" lon="-1.82833">
        <ele>465.708</ele>
        <time>2020-05-16T14:45:19Z</time>
      </trkpt>
      <trkpt lat="42.93369" lon="-1.82833">
        <ele>465.842</ele>
        <time>2020-05-16T14:45:39Z</time>
      </trkpt>
      <trkpt lat="42.93365" lon="-1.82833">
        <ele>465.997</ele>
        <time>2020-05-16T14:45:59Z</time>
      </trkpt>
      <trkpt lat="42.93356" lon="-1.82835">
        <ele>466.361</ele>
        <time>2020-05-16T14:46:19Z</time>
      </trkpt>
      <trkpt lat="42.93347" lon="-1.82837">
        <ele>466.699</ele>
        <time>2020-05-16T14:46:39Z</time>
      </trkpt>
      <trkpt lat="42.9334" lon="-1.82839">
        <ele>466.884</ele>
        <time>2020-05-16T14:46:59Z</time>
      </trkpt>
      <trkpt lat="42.93333" lon="-1.8284">
        <ele>466.924</ele>
        <time>2020-05-16T14:47:19Z</time>
      </trkpt>
      <trkpt lat="42.93327" lon="-1.82841">
        <ele>467.081</ele>
        <time>2020-05-16T14:47:39Z</time>
      </trkpt>
      <trkpt lat="42.93321" lon="-1.82842">
        <ele>467.143</ele>
        <time>2020-05-16T14:47:59Z</time>
      </trkpt>
      <trkpt lat="42.93319" lon="-1.82842">
        <ele>467.166</ele>
        <time>2020-05-16T14:48:19Z</time>
      </trkpt>
      <trkpt lat="42.93316" lon="-1.82843">
        <ele>467.229</ele>
        <time>2020-05-16T14:48:39Z</time>
      </trkpt>
      <trkpt lat="42.93313" lon="-1.82843">
        <ele>467.221</ele>
        <time>2020-05-16T14:48:59Z</time>
      </trkpt>
      <trkpt lat="42.9331" lon="-1.82843">
        <ele>467.208</ele>
        <time>2020-05-16T14:49:19Z</time>
      </trkpt>
      <trkpt lat="42.93307" lon="-1.82843">
        <ele>467.31</ele>
        <time>2020-05-16T14:49:39Z</time>
      </trkpt>
      <trkpt lat="42.93303" lon="-1.82843">
        <ele>467.345</ele>
        <time>2020-05-16T14:49:59Z</time>
      </trkpt>
      <trkpt lat="42.933" lon="-1.82843">
        <ele>467.319</ele>
        <time>2020-05-16T14:50:19Z</time>
      </trkpt>
      <trkpt lat="42.93295" lon="-1.82842">
        <ele>467.377</ele>
        <time>2020-05-16T14:50:39Z</time>
      </trkpt>
      <trkpt lat="42.93288" lon="-1.8284">
        <ele>467.152</ele>
        <time>2020-05-16T14:50:59Z</time>
      </trkpt>
      <trkpt lat="42.93283" lon="-1.8284">
        <ele>467.092</ele>
        <time>2020-05-16T14:51:19Z</time>
      </trkpt>
      <trkpt lat="42.93274" lon="-1.82839">
        <ele>467.059</ele>
        <time>2020-05-16T14:51:39Z</time>
      </trkpt>
      <trkpt lat="42.93269" lon="-1.82839">
        <ele>467.031</ele>
        <time>2020-05-16T14:51:59Z</time>
      </trkpt>
      <trkpt lat="42.93265" lon="-1.82838">
        <ele>467.045</ele>
        <time>2020-05-16T14:52:19Z</time>
      </trkpt>
      <trkpt lat="42.93259" lon="-1.82837">
        <ele>467.147</ele>
        <time>2020-05-16T14:52:39Z</time>
      </trkpt>
      <trkpt lat="42.93255" lon="-1.82836">
        <ele>467.211</ele>
        <time>2020-05-16T14:52:59Z</time>
      </trkpt>
      <trkpt lat="42.9325" lon="-1.82835">
        <ele>467.208</ele>
        <time>2020-05-16T14:53:19Z</time>
      </trkpt>
      <trkpt lat="42.93246" lon="-1.82834">
        <ele>467.468</ele>
        <time>2020-05-16T14:53:39Z</time>
      </trkpt>
      <trkpt lat="42.93241" lon="-1.82833">
        <ele>467.163</ele>
        <time>2020-05-16T14:53:59Z</time>
      </trkpt>
      <trkpt lat="42.93237" lon="-1.82832">
        <ele>467.387</ele>
        <time>2020-05-16T14:54:19Z</time>
      </trkpt>
      <trkpt lat="42.93232" lon="-1.82831">
        <ele>467.345</ele>
        <time>2020-05-16T14:54:39Z</time>
      </trkpt>
      <trkpt lat="42.93226" lon="-1.82829">
        <ele>467.78</ele>
        <time>2020-05-16T14:54:59Z</time>
      </trkpt>
      <trkpt lat="42.93221" lon="-1.82827">
        <ele>467.48</ele>
        <time>2020-05-16T14:55:19Z</time>
      </trkpt>
      <trkpt lat="42.93214" lon="-1.82825">
        <ele>467.577</ele>
        <time>2020-05-16T14:55:39Z</time>
      </trkpt>
      <trkpt lat="42.9321" lon="-1.82824">
        <ele>467.739</ele>
        <time>2020-05-16T14:55:59Z</time>
      </trkpt>
      <trkpt lat="42.93206" lon="-1.82822">
        <ele>467.366</ele>
        <time>2020-05-16T14:56:19Z</time>
      </trkpt>
      <trkpt lat="42.93196" lon="-1.82818">
        <ele>467.729</ele>
        <time>2020-05-16T14:56:39Z</time>
      </trkpt>
      <trkpt lat="42.93192" lon="-1.82817">
        <ele>467.521</ele>
        <time>2020-05-16T14:56:59Z</time>
      </trkpt>
      <trkpt lat="42.93189" lon="-1.82815">
        <ele>467.608</ele>
        <time>2020-05-16T14:57:19Z</time>
      </trkpt>
      <trkpt lat="42.93182" lon="-1.82812">
        <ele>468.05</ele>
        <time>2020-05-16T14:57:39Z</time>
      </trkpt>
      <trkpt lat="42.93179" lon="-1.8281">
        <ele>467.875</ele>
        <time>2020-05-16T14:57:59Z</time>
      </trkpt>
      <trkpt lat="42.93175" lon="-1.82808">
        <ele>468.049</ele>
        <time>2020-05-16T14:58:19Z</time>
      </trkpt>
      <trkpt lat="42.9317" lon="-1.82805">
        <ele>468.177</ele>
        <time>2020-05-16T14:58:39Z</time>
      </trkpt>
      <trkpt lat="42.93164" lon="-1.82801">
        <ele>468.362</ele>
        <time>2020-05-16T14:58:59Z</time>
      </trkpt>
      <trkpt lat="42.93161" lon="-1.82798">
        <ele>468.282</ele>
        <time>2020-05-16T14:59:19Z</time>
      </trkpt>
      <trkpt lat="42.93154" lon="-1.82792">
        <ele>468.629</ele>
        <time>2020-05-16T14:59:39Z</time>
      </trkpt>
      <trkpt lat="42.93145" lon="-1.82785">
        <ele>469.191</ele>
        <time>2020-05-16T14:59:59Z</time>
      </trkpt>
      <trkpt lat="42.93138" lon="-1.82779">
        <ele>469.328</ele>
        <time>2020-05-16T15:00:19Z</time>
      </trkpt>
      <trkpt lat="42.93132" lon="-1.82773">
        <ele>469.789</ele>
        <time>2020-05-16T15:00:39Z</time>
      </trkpt>
      <trkpt lat="42.93126" lon="-1.82768">
        <ele>469.817</ele>
        <time>2020-05-16T15:00:59Z</time>
      </trkpt>
      <trkpt lat="42.9312" lon="-1.82763">
        <ele>470.008</ele>
        <time>2020-05-16T15:01:19Z</time>
      </trkpt>
      <trkpt lat="42.93115" lon="-1.82758">
        <ele>470.176</ele>
        <time>2020-05-16T15:01:39Z</time>
      </trkpt>
      <trkpt lat="42.9311" lon="-1.82754">
        <ele>470.741</ele>
        <time>2020-05-16T15:01:59Z</time>
      </trkpt>
      <trkpt lat="42.93104" lon="-1.8275">
        <ele>470.785</ele>
        <time>2020-05-16T15:02:19Z</time>
      </trkpt>
      <trkpt lat="42.93097" lon="-1.82746">
        <ele>470.913</ele>
        <time>2020-05-16T15:02:39Z</time>
      </trkpt>
      <trkpt lat="42.9309" lon="-1.82741">
        <ele>471.358</ele>
        <time>2020-05-16T15:02:59Z</time>
      </trkpt>
      <trkpt lat="42.93085" lon="-1.82739">
        <ele>471.538</ele>
        <time>2020-05-16T15:03:19Z</time>
      </trkpt>
      <trkpt lat="42.93081" lon="-1.82737">
        <ele>471.655</ele>
        <time>2020-05-16T15:03:39Z</time>
      </trkpt>
      <trkpt lat="42.93069" lon="-1.82731">
        <ele>472.067</ele>
        <time>2020-05-16T15:03:59Z</time>
      </trkpt>
      <trkpt lat="42.93061" lon="-1.82728">
        <ele>472.346</ele>
        <time>2020-05-16T15:04:19Z</time>
      </trkpt>
      <trkpt lat="42.93055" lon="-1.82725">
        <ele>472.888</ele>
        <time>2020-05-16T15:04:39Z</time>
      </trkpt>
      <trkpt lat="42.93049" lon="-1.82722">
        <ele>473.016</ele>
        <time>2020-05-16T15:04:59Z</time>
      </trkpt>
      <trkpt lat="42.93046" lon="-1.8272">
        <ele>473.208</ele>
        <time>2020-05-16T15:05:19Z</time>
      </trkpt>
      <trkpt lat="42.93039" lon="-1.82717">
        <ele>473.578</ele>
        <time>2020-05-16T15:05:39Z</time>
      </trkpt>
      <trkpt lat="42.93036" lon="-1.82715">
        <ele>473.623</ele>
        <time>2020-05-16T15:05:59Z</time>
      </trkpt>
      <trkpt lat="42.9303" lon="-1.82712">
        <ele>473.777</ele>
        <time>2020-05-16T15:06:19Z</time>
      </trkpt>
      <trkpt lat="42.93026" lon="-1.8271">
        <ele>473.845</ele>
        <time>2020-05-16T15:06:39Z</time>
      </trkpt>
      <trkpt lat="42.93021" lon="-1.82707">
        <ele>474.05</ele>
        <time>2020-05-16T15:06:59Z</time>
      </trkpt>
      <trkpt lat="42.93015" lon="-1.82704">
        <ele>474.21</ele>
        <time>2020-05-16T15:07:19Z</time>
      </trkpt>
      <trkpt lat="42.9301" lon="-1.82702">
        <ele>474.337</ele>
        <time>2020-05-16T15:07:39Z</time>
      </trkpt>
      <trkpt lat="42.93005" lon="-1.827">
        <ele>474.579</ele>
        <time>2020-05-16T15:07:59Z</time>
      </trkpt>
      <trkpt lat="42.92999" lon="-1.82698">
        <ele>474.666</ele>
        <time>2020-05-16T15:08:19Z</time>
      </trkpt>
      <trkpt lat="42.92993" lon="-1.82697">
        <ele>474.829</ele>
        <time>2020-05-16T15:08:39Z</time>
      </trkpt>
      <trkpt lat="42.92986" lon="-1.82697">
        <ele>475.021</ele>
        <time>2020-05-16T15:08:59Z</time>
      </trkpt>
      <trkpt lat="42.9298" lon="-1.82696">
        <ele>475.108</ele>
        <time>2020-05-16T15:09:19Z</time>
      </trkpt>
      <trkpt lat="42.92966" lon="-1.82697">
        <ele>475.56</ele>
        <time>2020-05-16T15:09:39Z</time>
      </trkpt>
      <trkpt lat="42.92961" lon="-1.82698">
        <ele>475.675</ele>
        <time>2020-05-16T15:09:59Z</time>
      </trkpt>
      <trkpt lat="42.92953" lon="-1.82698">
        <ele>475.819</ele>
        <time>2020-05-16T15:10:19Z</time>
      </trkpt>
      <trkpt lat="42.92916" lon="-1.82704">
        <ele>491.427</ele>
        <time>2020-05-16T15:10:39Z</time>
      </trkpt>
      <trkpt lat="42.92827" lon="-1.82718">
        <ele>496.742</ele>
        <time>2020-05-16T15:10:59Z</time>
      </trkpt>
      <trkpt lat="42.92816" lon="-1.8272">
        <ele>479.042</ele>
        <time>2020-05-16T15:11:19Z</time>
      </trkpt>
      <trkpt lat="42.92807" lon="-1.82721">
        <ele>479.399</ele>
        <time>2020-05-16T15:11:39Z</time>
      </trkpt>
      <trkpt lat="42.92803" lon="-1.82722">
        <ele>497.151</ele>
        <time>2020-05-16T15:11:59Z</time>
      </trkpt>
      <trkpt lat="42.92718" lon="-1.82736">
        <ele>481.135</ele>
        <time>2020-05-16T15:12:19Z</time>
      </trkpt>
      <trkpt lat="42.92706" lon="-1.82738">
        <ele>481.086</ele>
        <time>2020-05-16T15:12:39Z</time>
      </trkpt>
      <trkpt lat="42.92692" lon="-1.8274">
        <ele>481.114</ele>
        <time>2020-05-16T15:12:59Z</time>
      </trkpt>
      <trkpt lat="42.92688" lon="-1.82735">
        <ele>481.108</ele>
        <time>2020-05-16T15:13:19Z</time>
      </trkpt>
      <trkpt lat="42.9268" lon="-1.82733">
        <ele>481.287</ele>
        <time>2020-05-16T15:13:39Z</time>
      </trkpt>
      <trkpt lat="42.92672" lon="-1.82733">
        <ele>481.392</ele>
        <time>2020-05-16T15:13:59Z</time>
      </trkpt>
      <trkpt lat="42.9267" lon="-1.82733">
        <ele>481.386</ele>
        <time>2020-05-16T15:14:19Z</time>
      </trkpt>
      <trkpt lat="42.92668" lon="-1.82734">
        <ele>481.464</ele>
        <time>2020-05-16T15:14:39Z</time>
      </trkpt>
      <trkpt lat="42.92664" lon="-1.82735">
        <ele>481.449</ele>
        <time>2020-05-16T15:14:59Z</time>
      </trkpt>
      <trkpt lat="42.92648" lon="-1.82737">
        <ele>481.469</ele>
        <time>2020-05-16T15:15:19Z</time>
      </trkpt>
      <trkpt lat="42.92629" lon="-1.82739">
        <ele>482.126</ele>
        <time>2020-05-16T15:15:39Z</time>
      </trkpt>
      <trkpt lat="42.9262" lon="-1.82741">
        <ele>482.448</ele>
        <time>2020-05-16T15:15:59Z</time>
      </trkpt>
      <trkpt lat="42.92605" lon="-1.82743">
        <ele>483.061</ele>
        <time>2020-05-16T15:16:19Z</time>
      </trkpt>
      <trkpt lat="42.92598" lon="-1.82745">
        <ele>483.221</ele>
        <time>2020-05-16T15:16:39Z</time>
      </trkpt>
      <trkpt lat="42.92594" lon="-1.82746">
        <ele>483.313</ele>
        <time>2020-05-16T15:16:59Z</time>
      </trkpt>
      <trkpt lat="42.92585" lon="-1.82749">
        <ele>482.908</ele>
        <time>2020-05-16T15:17:19Z</time>
      </trkpt>
      <trkpt lat="42.92578" lon="-1.82751">
        <ele>483.03</ele>
        <time>2020-05-16T15:17:39Z</time>
      </trkpt>
      <trkpt lat="42.92574" lon="-1.82753">
        <ele>483.335</ele>
        <time>2020-05-16T15:17:59Z</time>
      </trkpt>
      <trkpt lat="42.92569" lon="-1.82754">
        <ele>483.399</ele>
        <time>2020-05-16T15:18:19Z</time>
      </trkpt>
      <trkpt lat="42.92566" lon="-1.82754">
        <ele>483.387</ele>
        <time>2020-05-16T15:18:39Z</time>
      </trkpt>
      <trkpt lat="42.9256" lon="-1.82755">
        <ele>483.482</ele>
        <time>2020-05-16T15:18:59Z</time>
      </trkpt>
      <trkpt lat="42.92552" lon="-1.82755">
        <ele>483.792</ele>
        <time>2020-05-16T15:19:19Z</time>
      </trkpt>
      <trkpt lat="42.92548" lon="-1.82755">
        <ele>483.889</ele>
        <time>2020-05-16T15:19:39Z</time>
      </trkpt>
      <trkpt lat="42.92542" lon="-1.82754">
        <ele>484.121</ele>
        <time>2020-05-16T15:19:59Z</time>
      </trkpt>
      <trkpt lat="42.92533" lon="-1.82753">
        <ele>484.466</ele>
        <time>2020-05-16T15:20:19Z</time>
      </trkpt>
      <trkpt lat="42.92527" lon="-1.82752">
        <ele>484.529</ele>
        <time>2020-05-16T15:20:39Z</time>
      </trkpt>
      <trkpt lat="42.92525" lon="-1.82751">
        <ele>484.521</ele>
        <time>2020-05-16T15:20:59Z</time>
      </trkpt>
      <trkpt lat="42.92521" lon="-1.82749">
        <ele>484.708</ele>
        <time>2020-05-16T15:21:19Z</time>
      </trkpt>
      <trkpt lat="42.92519" lon="-1.82748">
        <ele>484.85</ele>
        <time>2020-05-16T15:21:39Z</time>
      </trkpt>
      <trkpt lat="42.92517" lon="-1.82746">
        <ele>484.865</ele>
        <time>2020-05-16T15:21:59Z</time>
      </trkpt>
      <trkpt lat="42.92514" lon="-1.82744">
        <ele>484.919</ele>
        <time>2020-05-16T15:22:19Z</time>
      </trkpt>
      <trkpt lat="42.92511" lon="-1.8274">
        <ele>485.047</ele>
        <time>2020-05-16T15:22:39Z</time>
      </trkpt>
      <trkpt lat="42.92509" lon="-1.82738">
        <ele>485.032</ele>
        <time>2020-05-16T15:22:59Z</time>
      </trkpt>
      <trkpt lat="42.92506" lon="-1.82736">
        <ele>486.472</ele>
        <time>2020-05-16T15:23:19Z</time>
      </trkpt>
      <trkpt lat="42.92504" lon="-1.82734">
        <ele>486.479</ele>
        <time>2020-05-16T15:23:39Z</time>
      </trkpt>
      <trkpt lat="42.92502" lon="-1.82732">
        <ele>486.481</ele>
        <time>2020-05-16T15:23:59Z</time>
      </trkpt>
      <trkpt lat="42.92501" lon="-1.82729">
        <ele>485.436</ele>
        <time>2020-05-16T15:24:19Z</time>
      </trkpt>
      <trkpt lat="42.92499" lon="-1.82726">
        <ele>485.417</ele>
        <time>2020-05-16T15:24:39Z</time>
      </trkpt>
      <trkpt lat="42.92488" lon="-1.8277">
        <ele>485.618</ele>
        <time>2020-05-16T15:24:59Z</time>
      </trkpt>
      <trkpt lat="42.92481" lon="-1.82787">
        <ele>486.408</ele>
        <time>2020-05-16T15:25:19Z</time>
      </trkpt>
      <trkpt lat="42.92469" lon="-1.82815">
        <ele>488.317</ele>
        <time>2020-05-16T15:25:39Z</time>
      </trkpt>
      <trkpt lat="42.92456" lon="-1.82833">
        <ele>493.662</ele>
        <time>2020-05-16T15:25:59Z</time>
      </trkpt>
      <trkpt lat="42.92439" lon="-1.82864">
        <ele>487.796</ele>
        <time>2020-05-16T15:26:19Z</time>
      </trkpt>
      <trkpt lat="42.92427" lon="-1.82883">
        <ele>486.714</ele>
        <time>2020-05-16T15:26:39Z</time>
      </trkpt>
      <trkpt lat="42.92417" lon="-1.82899">
        <ele>485.879</ele>
        <time>2020-05-16T15:26:59Z</time>
      </trkpt>
      <trkpt lat="42.92406" lon="-1.82907">
        <ele>486.019</ele>
        <time>2020-05-16T15:27:19Z</time>
      </trkpt>
      <trkpt lat="42.92397" lon="-1.82908">
        <ele>486.196</ele>
        <time>2020-05-16T15:27:39Z</time>
      </trkpt>
      <trkpt lat="42.92388" lon="-1.82905">
        <ele>485.368</ele>
        <time>2020-05-16T15:27:59Z</time>
      </trkpt>
      <trkpt lat="42.92381" lon="-1.82896">
        <ele>485.525</ele>
        <time>2020-05-16T15:28:19Z</time>
      </trkpt>
      <trkpt lat="42.92377" lon="-1.82893">
        <ele>483.726</ele>
        <time>2020-05-16T15:28:39Z</time>
      </trkpt>
      <trkpt lat="42.9237" lon="-1.82887">
        <ele>484.608</ele>
        <time>2020-05-16T15:28:59Z</time>
      </trkpt>
      <trkpt lat="42.92364" lon="-1.82878">
        <ele>484.808</ele>
        <time>2020-05-16T15:29:19Z</time>
      </trkpt>
      <trkpt lat="42.92359" lon="-1.82859">
        <ele>484.536</ele>
        <time>2020-05-16T15:29:39Z</time>
      </trkpt>
      <trkpt lat="42.92349" lon="-1.8283">
        <ele>485.071</ele>
        <time>2020-05-16T15:29:59Z</time>
      </trkpt>
      <trkpt lat="42.92344" lon="-1.82803">
        <ele>484.315</ele>
        <time>2020-05-16T15:30:19Z</time>
      </trkpt>
      <trkpt lat="42.92344" lon="-1.82794">
        <ele>484.283</ele>
        <time>2020-05-16T15:30:39Z</time>
      </trkpt>
      <trkpt lat="42.92343" lon="-1.82746">
        <ele>481.778</ele>
        <time>2020-05-16T15:30:59Z</time>
      </trkpt>
      <trkpt lat="42.92343" lon="-1.82726">
        <ele>481.658</ele>
        <time>2020-05-16T15:31:19Z</time>
      </trkpt>
      <trkpt lat="42.92339" lon="-1.82707">
        <ele>480.835</ele>
        <time>2020-05-16T15:31:39Z</time>
      </trkpt>
      <trkpt lat="42.92333" lon="-1.82693">
        <ele>481.467</ele>
        <time>2020-05-16T15:31:59Z</time>
      </trkpt>
      <trkpt lat="42.92329" lon="-1.82686">
        <ele>481.623</ele>
        <time>2020-05-16T15:32:19Z</time>
      </trkpt>
      <trkpt lat="42.92325" lon="-1.82675">
        <ele>481.083</ele>
        <time>2020-05-16T15:32:39Z</time>
      </trkpt>
      <trkpt lat="42.92325" lon="-1.8266">
        <ele>479.411</ele>
        <time>2020-05-16T15:32:59Z</time>
      </trkpt>
      <trkpt lat="42.92329" lon="-1.82642">
        <ele>479.708</ele>
        <time>2020-05-16T15:33:19Z</time>
      </trkpt>
      <trkpt lat="42.92331" lon="-1.82627">
        <ele>480.876</ele>
        <time>2020-05-16T15:33:39Z</time>
      </trkpt>
      <trkpt lat="42.92338" lon="-1.8261">
        <ele>482.961</ele>
        <time>2020-05-16T15:33:59Z</time>
      </trkpt>
      <trkpt lat="42.92341" lon="-1.82582">
        <ele>485.855</ele>
        <time>2020-05-16T15:34:19Z</time>
      </trkpt>
      <trkpt lat="42.92341" lon="-1.82551">
        <ele>488.323</ele>
        <time>2020-05-16T15:34:39Z</time>
      </trkpt>
      <trkpt lat="42.92334" lon="-1.82537">
        <ele>488.888</ele>
        <time>2020-05-16T15:34:59Z</time>
      </trkpt>
      <trkpt lat="42.92326" lon="-1.82529">
        <ele>489.028</ele>
        <time>2020-05-16T15:35:19Z</time>
      </trkpt>
      <trkpt lat="42.92322" lon="-1.82526">
        <ele>489.175</ele>
        <time>2020-05-16T15:35:39Z</time>
      </trkpt>
      <trkpt lat="42.92319" lon="-1.82522">
        <ele>488.557</ele>
        <time>2020-05-16T15:35:59Z</time>
      </trkpt>
      <trkpt lat="42.92312" lon="-1.82516">
        <ele>489.334</ele>
        <time>2020-05-16T15:36:19Z</time>
      </trkpt>
      <trkpt lat="42.923" lon="-1.82508">
        <ele>489.555</ele>
        <time>2020-05-16T15:36:39Z</time>
      </trkpt>
      <trkpt lat="42.92293" lon="-1.82503">
        <ele>489.81</ele>
        <time>2020-05-16T15:36:59Z</time>
      </trkpt>
      <trkpt lat="42.92284" lon="-1.82496">
        <ele>488.808</ele>
        <time>2020-05-16T15:37:19Z</time>
      </trkpt>
      <trkpt lat="42.92282" lon="-1.82495">
        <ele>490.117</ele>
        <time>2020-05-16T15:37:39Z</time>
      </trkpt>
      <trkpt lat="42.92273" lon="-1.82491">
        <ele>490.372</ele>
        <time>2020-05-16T15:37:59Z</time>
      </trkpt>
      <trkpt lat="42.92267" lon="-1.82488">
        <ele>490.376</ele>
        <time>2020-05-16T15:38:19Z</time>
      </trkpt>
      <trkpt lat="42.92261" lon="-1.82485">
        <ele>490.514</ele>
        <time>2020-05-16T15:38:39Z</time>
      </trkpt>
      <trkpt lat="42.92255" lon="-1.82483">
        <ele>490.719</ele>
        <time>2020-05-16T15:38:59Z</time>
      </trkpt>
      <trkpt lat="42.92249" lon="-1.8248">
        <ele>490.869</ele>
        <time>2020-05-16T15:39:19Z</time>
      </trkpt>
      <trkpt lat="42.92238" lon="-1.82477">
        <ele>491.076</ele>
        <time>2020-05-16T15:39:39Z</time>
      </trkpt>
      <trkpt lat="42.92228" lon="-1.82474">
        <ele>492.298</ele>
        <time>2020-05-16T15:39:59Z</time>
      </trkpt>
      <trkpt lat="42.9222" lon="-1.82472">
        <ele>491.852</ele>
        <time>2020-05-16T15:40:19Z</time>
      </trkpt>
      <trkpt lat="42.92209" lon="-1.8247">
        <ele>491.853</ele>
        <time>2020-05-16T15:40:39Z</time>
      </trkpt>
      <trkpt lat="42.92194" lon="-1.82467">
        <ele>492.008</ele>
        <time>2020-05-16T15:40:59Z</time>
      </trkpt>
      <trkpt lat="42.92183" lon="-1.82465">
        <ele>492.108</ele>
        <time>2020-05-16T15:41:19Z</time>
      </trkpt>
      <trkpt lat="42.92176" lon="-1.82465">
        <ele>492.219</ele>
        <time>2020-05-16T15:41:39Z</time>
      </trkpt>
      <trkpt lat="42.92169" lon="-1.82464">
        <ele>492.314</ele>
        <time>2020-05-16T15:41:59Z</time>
      </trkpt>
      <trkpt lat="42.92162" lon="-1.82465">
        <ele>492.328</ele>
        <time>2020-05-16T15:42:19Z</time>
      </trkpt>
      <trkpt lat="42.92154" lon="-1.82465">
        <ele>492.726</ele>
        <time>2020-05-16T15:42:39Z</time>
      </trkpt>
      <trkpt lat="42.92151" lon="-1.82465">
        <ele>492.911</ele>
        <time>2020-05-16T15:42:59Z</time>
      </trkpt>
      <trkpt lat="42.92145" lon="-1.82466">
        <ele>493.051</ele>
        <time>2020-05-16T15:43:19Z</time>
      </trkpt>
      <trkpt lat="42.9213" lon="-1.82469">
        <ele>493.228</ele>
        <time>2020-05-16T15:43:39Z</time>
      </trkpt>
      <trkpt lat="42.92121" lon="-1.82471">
        <ele>493.23</ele>
        <time>2020-05-16T15:43:59Z</time>
      </trkpt>
      <trkpt lat="42.92106" lon="-1.82474">
        <ele>493.661</ele>
        <time>2020-05-16T15:44:19Z</time>
      </trkpt>
      <trkpt lat="42.9209" lon="-1.82478">
        <ele>493.521</ele>
        <time>2020-05-16T15:44:39Z</time>
      </trkpt>
      <trkpt lat="42.92082" lon="-1.8248">
        <ele>493.913</ele>
        <time>2020-05-16T15:44:59Z</time>
      </trkpt>
      <trkpt lat="42.92075" lon="-1.82481">
        <ele>494.008</ele>
        <time>2020-05-16T15:45:19Z</time>
      </trkpt>
      <trkpt lat="42.9207" lon="-1.82482">
        <ele>494.36</ele>
        <time>2020-05-16T15:45:39Z</time>
      </trkpt>
      <trkpt lat="42.92065" lon="-1.82483">
        <ele>495.935</ele>
        <time>2020-05-16T15:45:59Z</time>
      </trkpt>
      <trkpt lat="42.92063" lon="-1.82484">
        <ele>495.999</ele>
        <time>2020-05-16T15:46:19Z</time>
      </trkpt>
      <trkpt lat="42.92061" lon="-1.82484">
        <ele>494.747</ele>
        <time>2020-05-16T15:46:39Z</time>
      </trkpt>
      <trkpt lat="42.92054" lon="-1.82488">
        <ele>494.652</ele>
        <time>2020-05-16T15:46:59Z</time>
      </trkpt>
      <trkpt lat="42.92047" lon="-1.82494">
        <ele>494.822</ele>
        <time>2020-05-16T15:47:19Z</time>
      </trkpt>
      <trkpt lat="42.92039" lon="-1.82502">
        <ele>495.039</ele>
        <time>2020-05-16T15:47:39Z</time>
      </trkpt>
      <trkpt lat="42.92036" lon="-1.82507">
        <ele>494.891</ele>
        <time>2020-05-16T15:47:59Z</time>
      </trkpt>
      <trkpt lat="42.92031" lon="-1.82511">
        <ele>494.666</ele>
        <time>2020-05-16T15:48:19Z</time>
      </trkpt>
      <trkpt lat="42.92022" lon="-1.82513">
        <ele>494.629</ele>
        <time>2020-05-16T15:48:39Z</time>
      </trkpt>
      <trkpt lat="42.91987" lon="-1.82513">
        <ele>494.321</ele>
        <time>2020-05-16T15:48:59Z</time>
      </trkpt>
      <trkpt lat="42.91975" lon="-1.82512">
        <ele>494.208</ele>
        <time>2020-05-16T15:49:19Z</time>
      </trkpt>
      <trkpt lat="42.91961" lon="-1.8251">
        <ele>494.17</ele>
        <time>2020-05-16T15:49:39Z</time>
      </trkpt>
      <trkpt lat="42.9195" lon="-1.82506">
        <ele>494.115</ele>
        <time>2020-05-16T15:49:59Z</time>
      </trkpt>
      <trkpt lat="42.91944" lon="-1.82504">
        <ele>494.249</ele>
        <time>2020-05-16T15:50:19Z</time>
      </trkpt>
      <trkpt lat="42.9194" lon="-1.82507">
        <ele>494.287</ele>
        <time>2020-05-16T15:50:39Z</time>
      </trkpt>
      <trkpt lat="42.91935" lon="-1.82507">
        <ele>494.262</ele>
        <time>2020-05-16T15:50:59Z</time>
      </trkpt>
      <trkpt lat="42.91931" lon="-1.82507">
        <ele>494.232</ele>
        <time>2020-05-16T15:51:19Z</time>
      </trkpt>
      <trkpt lat="42.91915" lon="-1.82505">
        <ele>494.659</ele>
        <time>2020-05-16T15:51:39Z</time>
      </trkpt>
      <trkpt lat="42.91898" lon="-1.82502">
        <ele>494.421</ele>
        <time>2020-05-16T15:51:59Z</time>
      </trkpt>
      <trkpt lat="42.91886" lon="-1.825">
        <ele>494.696</ele>
        <time>2020-05-16T15:52:19Z</time>
      </trkpt>
      <trkpt lat="42.91881" lon="-1.82499">
        <ele>494.631</ele>
        <time>2020-05-16T15:52:39Z</time>
      </trkpt>
      <trkpt lat="42.91878" lon="-1.82498">
        <ele>494.624</ele>
        <time>2020-05-16T15:52:59Z</time>
      </trkpt>
      <trkpt lat="42.91875" lon="-1.82498">
        <ele>494.708</ele>
        <time>2020-05-16T15:53:19Z</time>
      </trkpt>
      <trkpt lat="42.91871" lon="-1.82496">
        <ele>494.653</ele>
        <time>2020-05-16T15:53:39Z</time>
      </trkpt>
      <trkpt lat="42.91859" lon="-1.82489">
        <ele>494.948</ele>
        <time>2020-05-16T15:53:59Z</time>
      </trkpt>
      <trkpt lat="42.91857" lon="-1.82487">
        <ele>494.942</ele>
        <time>2020-05-16T15:54:19Z</time>
      </trkpt>
      <trkpt lat="42.91852" lon="-1.82484">
        <ele>495.19</ele>
        <time>2020-05-16T15:54:39Z</time>
      </trkpt>
      <trkpt lat="42.91849" lon="-1.82482">
        <ele>494.975</ele>
        <time>2020-05-16T15:54:59Z</time>
      </trkpt>
      <trkpt lat="42.91846" lon="-1.82479">
        <ele>496.145</ele>
        <time>2020-05-16T15:55:19Z</time>
      </trkpt>
      <trkpt lat="42.9184" lon="-1.82473">
        <ele>495.512</ele>
        <time>2020-05-16T15:55:39Z</time>
      </trkpt>
      <trkpt lat="42.91834" lon="-1.82466">
        <ele>495.764</ele>
        <time>2020-05-16T15:55:59Z</time>
      </trkpt>
      <trkpt lat="42.91833" lon="-1.82464">
        <ele>495.726</ele>
        <time>2020-05-16T15:56:19Z</time>
      </trkpt>
      <trkpt lat="42.91831" lon="-1.82462">
        <ele>495.747</ele>
        <time>2020-05-16T15:56:39Z</time>
      </trkpt>
      <trkpt lat="42.91829" lon="-1.82459">
        <ele>495.711</ele>
        <time>2020-05-16T15:56:59Z</time>
      </trkpt>
      <trkpt lat="42.91825" lon="-1.82452">
        <ele>495.808</ele>
        <time>2020-05-16T15:57:19Z</time>
      </trkpt>
      <trkpt lat="42.91821" lon="-1.82443">
        <ele>496.026</ele>
        <time>2020-05-16T15:57:39Z</time>
      </trkpt>
      <trkpt lat="42.91817" lon="-1.82436">
        <ele>496.281</ele>
        <time>2020-05-16T15:57:59Z</time>
      </trkpt>
      <trkpt lat="42.91814" lon="-1.82429">
        <ele>496.235</ele>
        <time>2020-05-16T15:58:19Z</time>
      </trkpt>
      <trkpt lat="42.91812" lon="-1.82423">
        <ele>497.353</ele>
        <time>2020-05-16T15:58:39Z</time>
      </trkpt>
      <trkpt lat="42.91809" lon="-1.82417">
        <ele>496.588</ele>
        <time>2020-05-16T15:58:59Z</time>
      </trkpt>
      <trkpt lat="42.91808" lon="-1.82411">
        <ele>496.568</ele>
        <time>2020-05-16T15:59:19Z</time>
      </trkpt>
      <trkpt lat="42.91806" lon="-1.82403">
        <ele>496.595</ele>
        <time>2020-05-16T15:59:39Z</time>
      </trkpt>
      <trkpt lat="42.91804" lon="-1.82391">
        <ele>496.847</ele>
        <time>2020-05-16T15:59:59Z</time>
      </trkpt>
      <trkpt lat="42.918" lon="-1.82358">
        <ele>497.272</ele>
        <time>2020-05-16T16:00:19Z</time>
      </trkpt>
      <trkpt lat="42.91797" lon="-1.82332">
        <ele>498.813</ele>
        <time>2020-05-16T16:00:39Z</time>
      </trkpt>
      <trkpt lat="42.91796" lon="-1.82322">
        <ele>499.014</ele>
        <time>2020-05-16T16:00:59Z</time>
      </trkpt>
      <trkpt lat="42.91793" lon="-1.823">
        <ele>498.708</ele>
        <time>2020-05-16T16:01:19Z</time>
      </trkpt>
      <trkpt lat="42.91788" lon="-1.82267">
        <ele>498.241</ele>
        <time>2020-05-16T16:01:39Z</time>
      </trkpt>
      <trkpt lat="42.91785" lon="-1.82249">
        <ele>499.296</ele>
        <time>2020-05-16T16:01:59Z</time>
      </trkpt>
      <trkpt lat="42.91784" lon="-1.82233">
        <ele>498.53</ele>
        <time>2020-05-16T16:02:19Z</time>
      </trkpt>
      <trkpt lat="42.91782" lon="-1.82221">
        <ele>499.148</ele>
        <time>2020-05-16T16:02:39Z</time>
      </trkpt>
      <trkpt lat="42.91779" lon="-1.82197">
        <ele>498.983</ele>
        <time>2020-05-16T16:02:59Z</time>
      </trkpt>
      <trkpt lat="42.91778" lon="-1.82179">
        <ele>499.123</ele>
        <time>2020-05-16T16:03:19Z</time>
      </trkpt>
      <trkpt lat="42.91776" lon="-1.82166">
        <ele>498.98</ele>
        <time>2020-05-16T16:03:39Z</time>
      </trkpt>
      <trkpt lat="42.91774" lon="-1.82152">
        <ele>498.252</ele>
        <time>2020-05-16T16:03:59Z</time>
      </trkpt>
      <trkpt lat="42.91772" lon="-1.82144">
        <ele>498.763</ele>
        <time>2020-05-16T16:04:19Z</time>
      </trkpt>
      <trkpt lat="42.9177" lon="-1.82133">
        <ele>499.744</ele>
        <time>2020-05-16T16:04:39Z</time>
      </trkpt>
      <trkpt lat="42.91769" lon="-1.82125">
        <ele>499.718</ele>
        <time>2020-05-16T16:04:59Z</time>
      </trkpt>
      <trkpt lat="42.91768" lon="-1.82121">
        <ele>499.808</ele>
        <time>2020-05-16T16:05:19Z</time>
      </trkpt>
      <trkpt lat="42.91766" lon="-1.82117">
        <ele>499.88</ele>
        <time>2020-05-16T16:05:39Z</time>
      </trkpt>
      <trkpt lat="42.91764" lon="-1.82108">
        <ele>499.795</ele>
        <time>2020-05-16T16:05:59Z</time>
      </trkpt>
      <trkpt lat="42.9176" lon="-1.82098">
        <ele>500.019</ele>
        <time>2020-05-16T16:06:19Z</time>
      </trkpt>
      <trkpt lat="42.91757" lon="-1.8209">
        <ele>499.137</ele>
        <time>2020-05-16T16:06:39Z</time>
      </trkpt>
      <trkpt lat="42.91754" lon="-1.82085">
        <ele>500.462</ele>
        <time>2020-05-16T16:06:59Z</time>
      </trkpt>
      <trkpt lat="42.9175" lon="-1.82076">
        <ele>500.272</ele>
        <time>2020-05-16T16:07:19Z</time>
      </trkpt>
      <trkpt lat="42.91746" lon="-1.8207">
        <ele>500.239</ele>
        <time>2020-05-16T16:07:39Z</time>
      </trkpt>
      <trkpt lat="42.91744" lon="-1.82067">
        <ele>500.271</ele>
        <time>2020-05-16T16:07:59Z</time>
      </trkpt>
      <trkpt lat="42.91742" lon="-1.82065">
        <ele>500.275</ele>
        <time>2020-05-16T16:08:19Z</time>
      </trkpt>
      <trkpt lat="42.91739" lon="-1.8206">
        <ele>500.928</ele>
        <time>2020-05-16T16:08:39Z</time>
      </trkpt>
      <trkpt lat="42.91736" lon="-1.82057">
        <ele>501.12</ele>
        <time>2020-05-16T16:08:59Z</time>
      </trkpt>
      <trkpt lat="42.91727" lon="-1.82047">
        <ele>501.108</ele>
        <time>2020-05-16T16:09:19Z</time>
      </trkpt>
      <trkpt lat="42.91712" lon="-1.82032">
        <ele>501.181</ele>
        <time>2020-05-16T16:09:39Z</time>
      </trkpt>
      <trkpt lat="42.91705" lon="-1.82025">
        <ele>500.336</ele>
        <time>2020-05-16T16:09:59Z</time>
      </trkpt>
      <trkpt lat="42.91688" lon="-1.82008">
        <ele>500.56</ele>
        <time>2020-05-16T16:10:19Z</time>
      </trkpt>
      <trkpt lat="42.91671" lon="-1.81991">
        <ele>500.458</ele>
        <time>2020-05-16T16:10:39Z</time>
      </trkpt>
      <trkpt lat="42.91671" lon="-1.81991">
        <ele>500.463</ele>
        <time>2020-05-16T16:10:59Z</time>
      </trkpt>
      <trkpt lat="42.91655" lon="-1.81975">
        <ele>500.753</ele>
        <time>2020-05-16T16:11:19Z</time>
      </trkpt>
      <trkpt lat="42.9164" lon="-1.8196">
        <ele>500.57</ele>
        <time>2020-05-16T16:11:39Z</time>
      </trkpt>
      <trkpt lat="42.91627" lon="-1.81948">
        <ele>500.362</ele>
        <time>2020-05-16T16:11:59Z</time>
      </trkpt>
      <trkpt lat="42.91613" lon="-1.81935">
        <ele>500.392</ele>
        <time>2020-05-16T16:12:19Z</time>
      </trkpt>
      <trkpt lat="42.91605" lon="-1.81927">
        <ele>500.473</ele>
        <time>2020-05-16T16:12:39Z</time>
      </trkpt>
      <trkpt lat="42.91599" lon="-1.81921">
        <ele>500.62</ele>
        <time>2020-05-16T16:12:59Z</time>
      </trkpt>
      <trkpt lat="42.91594" lon="-1.81914">
        <ele>500.708</ele>
        <time>2020-05-16T16:13:19Z</time>
      </trkpt>
      <trkpt lat="42.91591" lon="-1.81911">
        <ele>500.643</ele>
        <time>2020-05-16T16:13:39Z</time>
      </trkpt>
      <trkpt lat="42.9159" lon="-1.81911">
        <ele>500.638</ele>
        <time>2020-05-16T16:13:59Z</time>
      </trkpt>
      <trkpt lat="42.91589" lon="-1.81909">
        <ele>500.742</ele>
        <time>2020-05-16T16:14:19Z</time>
      </trkpt>
      <trkpt lat="42.91587" lon="-1.81904">
        <ele>500.67</ele>
        <time>2020-05-16T16:14:39Z</time>
      </trkpt>
      <trkpt lat="42.91583" lon="-1.81895">
        <ele>500.915</ele>
        <time>2020-05-16T16:14:59Z</time>
      </trkpt>
      <trkpt lat="42.91579" lon="-1.81885">
        <ele>502.035</ele>
        <time>2020-05-16T16:15:19Z</time>
      </trkpt>
      <trkpt lat="42.91577" lon="-1.81879">
        <ele>502.282</ele>
        <time>2020-05-16T16:15:39Z</time>
      </trkpt>
      <trkpt lat="42.91574" lon="-1.81873">
        <ele>502.874</ele>
        <time>2020-05-16T16:15:59Z</time>
      </trkpt>
      <trkpt lat="42.9157" lon="-1.81861">
        <ele>504.065</ele>
        <time>2020-05-16T16:16:19Z</time>
      </trkpt>
      <trkpt lat="42.91566" lon="-1.8185">
        <ele>503.468</ele>
        <time>2020-05-16T16:16:39Z</time>
      </trkpt>
      <trkpt lat="42.91562" lon="-1.81842">
        <ele>504.414</ele>
        <time>2020-05-16T16:16:59Z</time>
      </trkpt>
      <trkpt lat="42.91557" lon="-1.81831">
        <ele>504.708</ele>
        <time>2020-05-16T16:17:19Z</time>
      </trkpt>
      <trkpt lat="42.91553" lon="-1.81823">
        <ele>505.19</ele>
        <time>2020-05-16T16:17:39Z</time>
      </trkpt>
      <trkpt lat="42.91551" lon="-1.81818">
        <ele>505.685</ele>
        <time>2020-05-16T16:17:59Z</time>
      </trkpt>
      <trkpt lat="42.91545" lon="-1.81808">
        <ele>505.979</ele>
        <time>2020-05-16T16:18:19Z</time>
      </trkpt>
      <trkpt lat="42.91543" lon="-1.81804">
        <ele>506.117</ele>
        <time>2020-05-16T16:18:39Z</time>
      </trkpt>
      <trkpt lat="42.9154" lon="-1.81801">
        <ele>506.722</ele>
        <time>2020-05-16T16:18:59Z</time>
      </trkpt>
      <trkpt lat="42.91537" lon="-1.81796">
        <ele>506.692</ele>
        <time>2020-05-16T16:19:19Z</time>
      </trkpt>
      <trkpt lat="42.91532" lon="-1.8179">
        <ele>507.159</ele>
        <time>2020-05-16T16:19:39Z</time>
      </trkpt>
      <trkpt lat="42.91524" lon="-1.81781">
        <ele>507.931</ele>
        <time>2020-05-16T16:19:59Z</time>
      </trkpt>
      <trkpt lat="42.91512" lon="-1.81768">
        <ele>508.318</ele>
        <time>2020-05-16T16:20:19Z</time>
      </trkpt>
      <trkpt lat="42.91505" lon="-1.8176">
        <ele>508.598</ele>
        <time>2020-05-16T16:20:39Z</time>
      </trkpt>
      <trkpt lat="42.91501" lon="-1.81757">
        <ele>508.717</ele>
        <time>2020-05-16T16:20:59Z</time>
      </trkpt>
      <trkpt lat="42.91497" lon="-1.81754">
        <ele>508.708</ele>
        <time>2020-05-16T16:21:19Z</time>
      </trkpt>
      <trkpt lat="42.91484" lon="-1.81743">
        <ele>509.135</ele>
        <time>2020-05-16T16:21:39Z</time>
      </trkpt>
      <trkpt lat="42.9148" lon="-1.81739">
        <ele>509.69</ele>
        <time>2020-05-16T16:21:59Z</time>
      </trkpt>
      <trkpt lat="42.91473" lon="-1.81729">
        <ele>509.974</ele>
        <time>2020-05-16T16:22:19Z</time>
      </trkpt>
      <trkpt lat="42.91468" lon="-1.81723">
        <ele>510.272</ele>
        <time>2020-05-16T16:22:39Z</time>
      </trkpt>
      <trkpt lat="42.91467" lon="-1.81722">
        <ele>511.537</ele>
        <time>2020-05-16T16:22:59Z</time>
      </trkpt>
      <trkpt lat="42.91466" lon="-1.81721">
        <ele>511.537</ele>
        <time>2020-05-16T16:23:19Z</time>
      </trkpt>
      <trkpt lat="42.91464" lon="-1.81718">
        <ele>510.964</ele>
        <time>2020-05-16T16:23:39Z</time>
      </trkpt>
      <trkpt lat="42.91462" lon="-1.81717">
        <ele>510.946</ele>
        <time>2020-05-16T16:23:59Z</time>
      </trkpt>
      <trkpt lat="42.9146" lon="-1.81716">
        <ele>511.015</ele>
        <time>2020-05-16T16:24:19Z</time>
      </trkpt>
      <trkpt lat="42.91456" lon="-1.81713">
        <ele>511.065</ele>
        <time>2020-05-16T16:24:39Z</time>
      </trkpt>
      <trkpt lat="42.91452" lon="-1.81709">
        <ele>511.611</ele>
        <time>2020-05-16T16:24:59Z</time>
      </trkpt>
      <trkpt lat="42.91448" lon="-1.81704">
        <ele>511.508</ele>
        <time>2020-05-16T16:25:19Z</time>
      </trkpt>
      <trkpt lat="42.9144" lon="-1.81696">
        <ele>512.875</ele>
        <time>2020-05-16T16:25:39Z</time>
      </trkpt>
      <trkpt lat="42.91435" lon="-1.81691">
        <ele>513.13</ele>
        <time>2020-05-16T16:25:59Z</time>
      </trkpt>
      <trkpt lat="42.91429" lon="-1.81685">
        <ele>514.054</ele>
        <time>2020-05-16T16:26:19Z</time>
      </trkpt>
      <trkpt lat="42.91424" lon="-1.8168">
        <ele>514.382</ele>
        <time>2020-05-16T16:26:39Z</time>
      </trkpt>
      <trkpt lat="42.91419" lon="-1.81675">
        <ele>513.317</ele>
        <time>2020-05-16T16:26:59Z</time>
      </trkpt>
      <trkpt lat="42.91412" lon="-1.81667">
        <ele>515.417</ele>
        <time>2020-05-16T16:27:19Z</time>
      </trkpt>
      <trkpt lat="42.91408" lon="-1.81664">
        <ele>515.564</ele>
        <time>2020-05-16T16:27:39Z</time>
      </trkpt>
      <trkpt lat="42.91405" lon="-1.8166">
        <ele>516.256</ele>
        <time>2020-05-16T16:27:59Z</time>
      </trkpt>
      <trkpt lat="42.91403" lon="-1.81657">
        <ele>516.289</ele>
        <time>2020-05-16T16:28:19Z</time>
      </trkpt>
      <trkpt lat="42.91401" lon="-1.81655">
        <ele>516.506</ele>
        <time>2020-05-16T16:28:39Z</time>
      </trkpt>
      <trkpt lat="42.91399" lon="-1.81653">
        <ele>516.526</ele>
        <time>2020-05-16T16:28:59Z</time>
      </trkpt>
      <trkpt lat="42.91397" lon="-1.8165">
        <ele>517.108</ele>
        <time>2020-05-16T16:29:19Z</time>
      </trkpt>
      <trkpt lat="42.91395" lon="-1.81649">
        <ele>517.282</ele>
        <time>2020-05-16T16:29:39Z</time>
      </trkpt>
      <trkpt lat="42.91395" lon="-1.81648">
        <ele>517.247</ele>
        <time>2020-05-16T16:29:59Z</time>
      </trkpt>
      <trkpt lat="42.91394" lon="-1.81647">
        <ele>517.211</ele>
        <time>2020-05-16T16:30:19Z</time>
      </trkpt>
      <trkpt lat="42.91393" lon="-1.81646">
        <ele>517.259</ele>
        <time>2020-05-16T16:30:39Z</time>
      </trkpt>
      <trkpt lat="42.91393" lon="-1.81645">
        <ele>517.224</ele>
        <time>2020-05-16T16:30:59Z</time>
      </trkpt>
      <trkpt lat="42.91392" lon="-1.81644">
        <ele>517.954</ele>
        <time>2020-05-16T16:31:19Z</time>
      </trkpt>
      <trkpt lat="42.91392" lon="-1.81642">
        <ele>517.421</ele>
        <time>2020-05-16T16:31:39Z</time>
      </trkpt>
      <trkpt lat="42.91391" lon="-1.81641">
        <ele>517.453</ele>
        <time>2020-05-16T16:31:59Z</time>
      </trkpt>
      <trkpt lat="42.91391" lon="-1.81639">
        <ele>517.467</ele>
        <time>2020-05-16T16:32:19Z</time>
      </trkpt>
      <trkpt lat="42.91391" lon="-1.81638">
        <ele>517.881</ele>
        <time>2020-05-16T16:32:39Z</time>
      </trkpt>
      <trkpt lat="42.9139" lon="-1.81635">
        <ele>517.819</ele>
        <time>2020-05-16T16:32:59Z</time>
      </trkpt>
      <trkpt lat="42.91389" lon="-1.81633">
        <ele>517.808</ele>
        <time>2020-05-16T16:33:19Z</time>
      </trkpt>
      <trkpt lat="42.91389" lon="-1.81631">
        <ele>519.71</ele>
        <time>2020-05-16T16:33:39Z</time>
      </trkpt>
      <trkpt lat="42.91388" lon="-1.8163">
        <ele>519.735</ele>
        <time>2020-05-16T16:33:59Z</time>
      </trkpt>
      <trkpt lat="42.91388" lon="-1.81629">
        <ele>519.759</ele>
        <time>2020-05-16T16:34:19Z</time>
      </trkpt>
      <trkpt lat="42.91387" lon="-1.81628">
        <ele>519.727</ele>
        <time>2020-05-16T16:34:39Z</time>
      </trkpt>
      <trkpt lat="42.91387" lon="-1.81626">
        <ele>520.382</ele>
        <time>2020-05-16T16:34:59Z</time>
      </trkpt>
      <trkpt lat="42.91385" lon="-1.81622">
        <ele>520.342</ele>
        <time>2020-05-16T16:35:19Z</time>
      </trkpt>
      <trkpt lat="42.91383" lon="-1.81613">
        <ele>523.399</ele>
        <time>2020-05-16T16:35:39Z</time>
      </trkpt>
      <trkpt lat="42.91381" lon="-1.81608">
        <ele>522.311</ele>
        <time>2020-05-16T16:35:59Z</time>
      </trkpt>
      <trkpt lat="42.91378" lon="-1.81603">
        <ele>522.838</ele>
        <time>2020-05-16T16:36:19Z</time>
      </trkpt>
      <trkpt lat="42.91375" lon="-1.81588">
        <ele>524.47</ele>
        <time>2020-05-16T16:36:39Z</time>
      </trkpt>
      <trkpt lat="42.91372" lon="-1.81579">
        <ele>524.017</ele>
        <time>2020-05-16T16:36:59Z</time>
      </trkpt>
      <trkpt lat="42.91369" lon="-1.8157">
        <ele>525.708</ele>
        <time>2020-05-16T16:37:19Z</time>
      </trkpt>
      <trkpt lat="42.91366" lon="-1.8156">
        <ele>524.477</ele>
        <time>2020-05-16T16:37:39Z</time>
      </trkpt>
      <trkpt lat="42.91363" lon="-1.81552">
        <ele>525.192</ele>
        <time>2020-05-16T16:37:59Z</time>
      </trkpt>
      <trkpt lat="42.91361" lon="-1.81545">
        <ele>525.656</ele>
        <time>2020-05-16T16:38:19Z</time>
      </trkpt>
      <trkpt lat="42.91357" lon="-1.81536">
        <ele>525.394</ele>
        <time>2020-05-16T16:38:39Z</time>
      </trkpt>
      <trkpt lat="42.91351" lon="-1.81521">
        <ele>526.539</ele>
        <time>2020-05-16T16:38:59Z</time>
      </trkpt>
      <trkpt lat="42.91342" lon="-1.81493">
        <ele>527.419</ele>
        <time>2020-05-16T16:39:19Z</time>
      </trkpt>
      <trkpt lat="42.91335" lon="-1.81471">
        <ele>527.786</ele>
        <time>2020-05-16T16:39:39Z</time>
      </trkpt>
      <trkpt lat="42.91328" lon="-1.81451">
        <ele>528.198</ele>
        <time>2020-05-16T16:39:59Z</time>
      </trkpt>
      <trkpt lat="42.91321" lon="-1.81429">
        <ele>529.663</ele>
        <time>2020-05-16T16:40:19Z</time>
      </trkpt>
      <trkpt lat="42.91313" lon="-1.81406">
        <ele>531.044</ele>
        <time>2020-05-16T16:40:39Z</time>
      </trkpt>
      <trkpt lat="42.913" lon="-1.81369">
        <ele>532.318</ele>
        <time>2020-05-16T16:40:59Z</time>
      </trkpt>
      <trkpt lat="42.91294" lon="-1.81351">
        <ele>532.808</ele>
        <time>2020-05-16T16:41:19Z</time>
      </trkpt>
      <trkpt lat="42.91288" lon="-1.81334">
        <ele>532.83</ele>
        <time>2020-05-16T16:41:39Z</time>
      </trkpt>
      <trkpt lat="42.91282" lon="-1.81313">
        <ele>533.735</ele>
        <time>2020-05-16T16:41:59Z</time>
      </trkpt>
      <trkpt lat="42.91308" lon="-1.81287">
        <ele>535.989</ele>
        <time>2020-05-16T16:42:19Z</time>
      </trkpt>
      <trkpt lat="42.91318" lon="-1.81273">
        <ele>538.527</ele>
        <time>2020-05-16T16:42:39Z</time>
      </trkpt>
      <trkpt lat="42.91318" lon="-1.81262">
        <ele>539.662</ele>
        <time>2020-05-16T16:42:59Z</time>
      </trkpt>
      <trkpt lat="42.91309" lon="-1.81248">
        <ele>539.732</ele>
        <time>2020-05-16T16:43:19Z</time>
      </trkpt>
      <trkpt lat="42.91302" lon="-1.81232">
        <ele>540.339</ele>
        <time>2020-05-16T16:43:39Z</time>
      </trkpt>
      <trkpt lat="42.91297" lon="-1.81222">
        <ele>540.511</ele>
        <time>2020-05-16T16:43:59Z</time>
      </trkpt>
      <trkpt lat="42.91296" lon="-1.81208">
        <ele>540.057</ele>
        <time>2020-05-16T16:44:19Z</time>
      </trkpt>
      <trkpt lat="42.91296" lon="-1.81208">
        <ele>540</ele>
        <time>2020-05-16T16:44:39Z</time>
      </trkpt>
      <trkpt lat="42.91298" lon="-1.81196">
        <ele>541.72</ele>
        <time>2020-05-16T16:44:59Z</time>
      </trkpt>
      <trkpt lat="42.91295" lon="-1.81184">
        <ele>540.508</ele>
        <time>2020-05-16T16:45:19Z</time>
      </trkpt>
      <trkpt lat="42.91284" lon="-1.8117">
        <ele>539.289</ele>
        <time>2020-05-16T16:45:39Z</time>
      </trkpt>
      <trkpt lat="42.91271" lon="-1.81156">
        <ele>536.024</ele>
        <time>2020-05-16T16:45:59Z</time>
      </trkpt>
      <trkpt lat="42.91257" lon="-1.81137">
        <ele>532.158</ele>
        <time>2020-05-16T16:46:19Z</time>
      </trkpt>
      <trkpt lat="42.91243" lon="-1.81123">
        <ele>528.846</ele>
        <time>2020-05-16T16:46:39Z</time>
      </trkpt>
      <trkpt lat="42.91239" lon="-1.81117">
        <ele>527.681</ele>
        <time>2020-05-16T16:46:59Z</time>
      </trkpt>
      <trkpt lat="42.91249" lon="-1.81089">
        <ele>525.161</ele>
        <time>2020-05-16T16:47:19Z</time>
      </trkpt>
      <trkpt lat="42.91255" lon="-1.81073">
        <ele>524.868</ele>
        <time>2020-05-16T16:47:39Z</time>
      </trkpt>
      <trkpt lat="42.91258" lon="-1.8106">
        <ele>524.85</ele>
        <time>2020-05-16T16:47:59Z</time>
      </trkpt>
      <trkpt lat="42.91254" lon="-1.81044">
        <ele>524.359</ele>
        <time>2020-05-16T16:48:19Z</time>
      </trkpt>
      <trkpt lat="42.91249" lon="-1.81022">
        <ele>524.303</ele>
        <time>2020-05-16T16:48:39Z</time>
      </trkpt>
      <trkpt lat="42.91241" lon="-1.80985">
        <ele>525.623</ele>
        <time>2020-05-16T16:48:59Z</time>
      </trkpt>
      <trkpt lat="42.91235" lon="-1.80959">
        <ele>523.108</ele>
        <time>2020-05-16T16:49:19Z</time>
      </trkpt>
      <trkpt lat="42.9123" lon="-1.80932">
        <ele>522.329</ele>
        <time>2020-05-16T16:49:39Z</time>
      </trkpt>
      <trkpt lat="42.91225" lon="-1.80911">
        <ele>521.534</ele>
        <time>2020-05-16T16:49:59Z</time>
      </trkpt>
      <trkpt lat="42.91218" lon="-1.80894">
        <ele>521.458</ele>
        <time>2020-05-16T16:50:19Z</time>
      </trkpt>
      <trkpt lat="42.91213" lon="-1.8088">
        <ele>519.836</ele>
        <time>2020-05-16T16:50:39Z</time>
      </trkpt>
      <trkpt lat="42.91208" lon="-1.80864">
        <ele>519.111</ele>
        <time>2020-05-16T16:50:59Z</time>
      </trkpt>
      <trkpt lat="42.91197" lon="-1.80839">
        <ele>517.911</ele>
        <time>2020-05-16T16:51:19Z</time>
      </trkpt>
      <trkpt lat="42.91179" lon="-1.80787">
        <ele>515.918</ele>
        <time>2020-05-16T16:51:39Z</time>
      </trkpt>
      <trkpt lat="42.91169" lon="-1.80759">
        <ele>514.54</ele>
        <time>2020-05-16T16:51:59Z</time>
      </trkpt>
      <trkpt lat="42.91162" lon="-1.80741">
        <ele>514.268</ele>
        <time>2020-05-16T16:52:19Z</time>
      </trkpt>
      <trkpt lat="42.91154" lon="-1.80737">
        <ele>512.342</ele>
        <time>2020-05-16T16:52:39Z</time>
      </trkpt>
      <trkpt lat="42.91145" lon="-1.80741">
        <ele>510.926</ele>
        <time>2020-05-16T16:52:59Z</time>
      </trkpt>
      <trkpt lat="42.91118" lon="-1.80761">
        <ele>505.308</ele>
        <time>2020-05-16T16:53:19Z</time>
      </trkpt>
      <trkpt lat="42.91112" lon="-1.80763">
        <ele>504.13</ele>
        <time>2020-05-16T16:53:39Z</time>
      </trkpt>
      <trkpt lat="42.91107" lon="-1.80758">
        <ele>503.645</ele>
        <time>2020-05-16T16:53:59Z</time>
      </trkpt>
      <trkpt lat="42.91099" lon="-1.80737">
        <ele>503.189</ele>
        <time>2020-05-16T16:54:19Z</time>
      </trkpt>
      <trkpt lat="42.91091" lon="-1.80718">
        <ele>503.077</ele>
        <time>2020-05-16T16:54:39Z</time>
      </trkpt>
      <trkpt lat="42.91086" lon="-1.80703">
        <ele>502.792</ele>
        <time>2020-05-16T16:54:59Z</time>
      </trkpt>
      <trkpt lat="42.91076" lon="-1.80681">
        <ele>502.222</ele>
        <time>2020-05-16T16:55:19Z</time>
      </trkpt>
      <trkpt lat="42.91064" lon="-1.80651">
        <ele>501.219</ele>
        <time>2020-05-16T16:55:39Z</time>
      </trkpt>
      <trkpt lat="42.91057" lon="-1.80642">
        <ele>500.831</ele>
        <time>2020-05-16T16:55:59Z</time>
      </trkpt>
      <trkpt lat="42.91055" lon="-1.80627">
        <ele>500.911</ele>
        <time>2020-05-16T16:56:19Z</time>
      </trkpt>
      <trkpt lat="42.91052" lon="-1.80618">
        <ele>500.521</ele>
        <time>2020-05-16T16:56:39Z</time>
      </trkpt>
      <trkpt lat="42.9105" lon="-1.80613">
        <ele>500.603</ele>
        <time>2020-05-16T16:56:59Z</time>
      </trkpt>
      <trkpt lat="42.91047" lon="-1.80609">
        <ele>500.208</ele>
        <time>2020-05-16T16:57:19Z</time>
      </trkpt>
      <trkpt lat="42.91046" lon="-1.80606">
        <ele>500.275</ele>
        <time>2020-05-16T16:57:39Z</time>
      </trkpt>
      <trkpt lat="42.91045" lon="-1.80605">
        <ele>500.21</ele>
        <time>2020-05-16T16:57:59Z</time>
      </trkpt>
      <trkpt lat="42.91041" lon="-1.80591">
        <ele>500.224</ele>
        <time>2020-05-16T16:58:19Z</time>
      </trkpt>
      <trkpt lat="42.91039" lon="-1.80585">
        <ele>500.952</ele>
        <time>2020-05-16T16:58:39Z</time>
      </trkpt>
      <trkpt lat="42.91033" lon="-1.80568">
        <ele>499.287</ele>
        <time>2020-05-16T16:58:59Z</time>
      </trkpt>
      <trkpt lat="42.91028" lon="-1.80551">
        <ele>499.127</ele>
        <time>2020-05-16T16:59:19Z</time>
      </trkpt>
      <trkpt lat="42.91021" lon="-1.80528">
        <ele>499.784</ele>
        <time>2020-05-16T16:59:39Z</time>
      </trkpt>
      <trkpt lat="42.91013" lon="-1.80506">
        <ele>498.256</ele>
        <time>2020-05-16T16:59:59Z</time>
      </trkpt>
      <trkpt lat="42.90988" lon="-1.80431">
        <ele>497.281</ele>
        <time>2020-05-16T17:00:19Z</time>
      </trkpt>
      <trkpt lat="42.90985" lon="-1.80423">
        <ele>497.161</ele>
        <time>2020-05-16T17:00:39Z</time>
      </trkpt>
      <trkpt lat="42.90982" lon="-1.80415">
        <ele>496.917</ele>
        <time>2020-05-16T17:00:59Z</time>
      </trkpt>
      <trkpt lat="42.90976" lon="-1.80401">
        <ele>496.608</ele>
        <time>2020-05-16T17:01:19Z</time>
      </trkpt>
      <trkpt lat="42.90969" lon="-1.80387">
        <ele>496.542</ele>
        <time>2020-05-16T17:01:39Z</time>
      </trkpt>
      <trkpt lat="42.90951" lon="-1.80352">
        <ele>495.747</ele>
        <time>2020-05-16T17:01:59Z</time>
      </trkpt>
      <trkpt lat="42.90943" lon="-1.80335">
        <ele>494.361</ele>
        <time>2020-05-16T17:02:19Z</time>
      </trkpt>
      <trkpt lat="42.90934" lon="-1.80318">
        <ele>495.029</ele>
        <time>2020-05-16T17:02:39Z</time>
      </trkpt>
      <trkpt lat="42.90927" lon="-1.80305">
        <ele>494.734</ele>
        <time>2020-05-16T17:02:59Z</time>
      </trkpt>
      <trkpt lat="42.9092" lon="-1.80293">
        <ele>494.434</ele>
        <time>2020-05-16T17:03:19Z</time>
      </trkpt>
      <trkpt lat="42.90907" lon="-1.80268">
        <ele>494.061</ele>
        <time>2020-05-16T17:03:39Z</time>
      </trkpt>
      <trkpt lat="42.90893" lon="-1.80244">
        <ele>493.523</ele>
        <time>2020-05-16T17:03:59Z</time>
      </trkpt>
      <trkpt lat="42.90865" lon="-1.8019">
        <ele>492.729</ele>
        <time>2020-05-16T17:04:19Z</time>
      </trkpt>
      <trkpt lat="42.90836" lon="-1.80137">
        <ele>491.7</ele>
        <time>2020-05-16T17:04:39Z</time>
      </trkpt>
      <trkpt lat="42.90822" lon="-1.80109">
        <ele>491.52</ele>
        <time>2020-05-16T17:04:59Z</time>
      </trkpt>
      <trkpt lat="42.90808" lon="-1.80082">
        <ele>491.208</ele>
        <time>2020-05-16T17:05:19Z</time>
      </trkpt>
      <trkpt lat="42.90772" lon="-1.80015">
        <ele>489.516</ele>
        <time>2020-05-16T17:05:39Z</time>
      </trkpt>
      <trkpt lat="42.90737" lon="-1.79948">
        <ele>488.331</ele>
        <time>2020-05-16T17:05:59Z</time>
      </trkpt>
      <trkpt lat="42.90712" lon="-1.79899">
        <ele>489.245</ele>
        <time>2020-05-16T17:06:19Z</time>
      </trkpt>
      <trkpt lat="42.90705" lon="-1.79886">
        <ele>487.093</ele>
        <time>2020-05-16T17:06:39Z</time>
      </trkpt>
      <trkpt lat="42.90699" lon="-1.79873">
        <ele>487.058</ele>
        <time>2020-05-16T17:06:59Z</time>
      </trkpt>
      <trkpt lat="42.90694" lon="-1.79864">
        <ele>486.838</ele>
        <time>2020-05-16T17:07:19Z</time>
      </trkpt>
      <trkpt lat="42.90689" lon="-1.79855">
        <ele>487.515</ele>
        <time>2020-05-16T17:07:39Z</time>
      </trkpt>
      <trkpt lat="42.90678" lon="-1.79838">
        <ele>486.467</ele>
        <time>2020-05-16T17:07:59Z</time>
      </trkpt>
      <trkpt lat="42.90667" lon="-1.79821">
        <ele>485.984</ele>
        <time>2020-05-16T17:08:19Z</time>
      </trkpt>
      <trkpt lat="42.90647" lon="-1.79793">
        <ele>485.107</ele>
        <time>2020-05-16T17:08:39Z</time>
      </trkpt>
      <trkpt lat="42.90559" lon="-1.79682">
        <ele>482.417</ele>
        <time>2020-05-16T17:08:59Z</time>
      </trkpt>
      <trkpt lat="42.90527" lon="-1.7964">
        <ele>481.308</ele>
        <time>2020-05-16T17:09:19Z</time>
      </trkpt>
      <trkpt lat="42.90499" lon="-1.79605">
        <ele>480.512</ele>
        <time>2020-05-16T17:09:39Z</time>
      </trkpt>
      <trkpt lat="42.90472" lon="-1.7957">
        <ele>479.897</ele>
        <time>2020-05-16T17:09:59Z</time>
      </trkpt>
      <trkpt lat="42.9047" lon="-1.79567">
        <ele>478.981</ele>
        <time>2020-05-16T17:10:19Z</time>
      </trkpt>
      <trkpt lat="42.90469" lon="-1.79566">
        <ele>479.449</ele>
        <time>2020-05-16T17:10:39Z</time>
      </trkpt>
      <trkpt lat="42.90446" lon="-1.79536">
        <ele>479.184</ele>
        <time>2020-05-16T17:10:59Z</time>
      </trkpt>
      <trkpt lat="42.90442" lon="-1.79531">
        <ele>479.044</ele>
        <time>2020-05-16T17:11:19Z</time>
      </trkpt>
      <trkpt lat="42.90438" lon="-1.79526">
        <ele>478.811</ele>
        <time>2020-05-16T17:11:39Z</time>
      </trkpt>
      <trkpt lat="42.90434" lon="-1.79521">
        <ele>478.663</ele>
        <time>2020-05-16T17:11:59Z</time>
      </trkpt>
      <trkpt lat="42.9043" lon="-1.79516">
        <ele>478.641</ele>
        <time>2020-05-16T17:12:19Z</time>
      </trkpt>
      <trkpt lat="42.90424" lon="-1.79509">
        <ele>478.681</ele>
        <time>2020-05-16T17:12:39Z</time>
      </trkpt>
      <trkpt lat="42.9042" lon="-1.79503">
        <ele>478.509</ele>
        <time>2020-05-16T17:12:59Z</time>
      </trkpt>
      <trkpt lat="42.90417" lon="-1.795">
        <ele>478.508</ele>
        <time>2020-05-16T17:13:19Z</time>
      </trkpt>
      <trkpt lat="42.90415" lon="-1.79497">
        <ele>478.568</ele>
        <time>2020-05-16T17:13:39Z</time>
      </trkpt>
      <trkpt lat="42.90413" lon="-1.79494">
        <ele>470.413</ele>
        <time>2020-05-16T17:13:59Z</time>
      </trkpt>
      <trkpt lat="42.9041" lon="-1.79491">
        <ele>470.157</ele>
        <time>2020-05-16T17:14:19Z</time>
      </trkpt>
      <trkpt lat="42.9041" lon="-1.7949">
        <ele>470.115</ele>
        <time>2020-05-16T17:14:39Z</time>
      </trkpt>
      <trkpt lat="42.90409" lon="-1.79489">
        <ele>470.17</ele>
        <time>2020-05-16T17:14:59Z</time>
      </trkpt>
      <trkpt lat="42.90408" lon="-1.79488">
        <ele>469.91</ele>
        <time>2020-05-16T17:15:19Z</time>
      </trkpt>
      <trkpt lat="42.90407" lon="-1.79487">
        <ele>469.977</ele>
        <time>2020-05-16T17:15:39Z</time>
      </trkpt>
      <trkpt lat="42.90406" lon="-1.79485">
        <ele>469.929</ele>
        <time>2020-05-16T17:15:59Z</time>
      </trkpt>
      <trkpt lat="42.90405" lon="-1.79484">
        <ele>469.779</ele>
        <time>2020-05-16T17:16:19Z</time>
      </trkpt>
      <trkpt lat="42.90404" lon="-1.79482">
        <ele>469.605</ele>
        <time>2020-05-16T17:16:39Z</time>
      </trkpt>
      <trkpt lat="42.90401" lon="-1.79479">
        <ele>469.625</ele>
        <time>2020-05-16T17:16:59Z</time>
      </trkpt>
      <trkpt lat="42.904" lon="-1.79478">
        <ele>469.708</ele>
        <time>2020-05-16T17:17:19Z</time>
      </trkpt>
      <trkpt lat="42.90398" lon="-1.79475">
        <ele>469.541</ele>
        <time>2020-05-16T17:17:39Z</time>
      </trkpt>
      <trkpt lat="42.90394" lon="-1.7947">
        <ele>468.486</ele>
        <time>2020-05-16T17:17:59Z</time>
      </trkpt>
      <trkpt lat="42.9039" lon="-1.79465">
        <ele>468.04</ele>
        <time>2020-05-16T17:18:19Z</time>
      </trkpt>
      <trkpt lat="42.90386" lon="-1.79459">
        <ele>466.668</ele>
        <time>2020-05-16T17:18:39Z</time>
      </trkpt>
      <trkpt lat="42.90382" lon="-1.79454">
        <ele>464.993</ele>
        <time>2020-05-16T17:18:59Z</time>
      </trkpt>
      <trkpt lat="42.90377" lon="-1.79448">
        <ele>467.473</ele>
        <time>2020-05-16T17:19:19Z</time>
      </trkpt>
      <trkpt lat="42.90369" lon="-1.79438">
        <ele>467.77</ele>
        <time>2020-05-16T17:19:39Z</time>
      </trkpt>
      <trkpt lat="42.90364" lon="-1.79432">
        <ele>467.632</ele>
        <time>2020-05-16T17:19:59Z</time>
      </trkpt>
      <trkpt lat="42.90339" lon="-1.794">
        <ele>467.178</ele>
        <time>2020-05-16T17:20:19Z</time>
      </trkpt>
      <trkpt lat="42.90315" lon="-1.79369">
        <ele>468.233</ele>
        <time>2020-05-16T17:20:39Z</time>
      </trkpt>
      <trkpt lat="42.90309" lon="-1.79362">
        <ele>475.126</ele>
        <time>2020-05-16T17:20:59Z</time>
      </trkpt>
      <trkpt lat="42.90298" lon="-1.79349">
        <ele>478.208</ele>
        <time>2020-05-16T17:21:19Z</time>
      </trkpt>
      <trkpt lat="42.90251" lon="-1.79292">
        <ele>479.051</ele>
        <time>2020-05-16T17:21:39Z</time>
      </trkpt>
      <trkpt lat="42.9025" lon="-1.7929">
        <ele>478.876</ele>
        <time>2020-05-16T17:21:59Z</time>
      </trkpt>
      <trkpt lat="42.90241" lon="-1.79278">
        <ele>480.62</ele>
        <time>2020-05-16T17:22:19Z</time>
      </trkpt>
      <trkpt lat="42.9022" lon="-1.7925">
        <ele>480.018</ele>
        <time>2020-05-16T17:22:39Z</time>
      </trkpt>
      <trkpt lat="42.90205" lon="-1.79231">
        <ele>481.773</ele>
        <time>2020-05-16T17:22:59Z</time>
      </trkpt>
      <trkpt lat="42.902" lon="-1.79224">
        <ele>481.893</ele>
        <time>2020-05-16T17:23:19Z</time>
      </trkpt>
      <trkpt lat="42.90173" lon="-1.7919">
        <ele>481.05</ele>
        <time>2020-05-16T17:23:39Z</time>
      </trkpt>
      <trkpt lat="42.90146" lon="-1.79155">
        <ele>480.932</ele>
        <time>2020-05-16T17:23:59Z</time>
      </trkpt>
      <trkpt lat="42.90113" lon="-1.79112">
        <ele>481.893</ele>
        <time>2020-05-16T17:24:19Z</time>
      </trkpt>
      <trkpt lat="42.90079" lon="-1.79069">
        <ele>483.365</ele>
        <time>2020-05-16T17:24:39Z</time>
      </trkpt>
      <trkpt lat="42.90044" lon="-1.79025">
        <ele>485.521</ele>
        <time>2020-05-16T17:24:59Z</time>
      </trkpt>
      <trkpt lat="42.90042" lon="-1.79022">
        <ele>485.408</ele>
        <time>2020-05-16T17:25:19Z</time>
      </trkpt>
      <trkpt lat="42.90031" lon="-1.79009">
        <ele>486.343</ele>
        <time>2020-05-16T17:25:39Z</time>
      </trkpt>
      <trkpt lat="42.90019" lon="-1.78996">
        <ele>486.428</ele>
        <time>2020-05-16T17:25:59Z</time>
      </trkpt>
      <trkpt lat="42.90015" lon="-1.7899">
        <ele>486.482</ele>
        <time>2020-05-16T17:26:19Z</time>
      </trkpt>
      <trkpt lat="42.90011" lon="-1.78983">
        <ele>486.59</ele>
        <time>2020-05-16T17:26:39Z</time>
      </trkpt>
      <trkpt lat="42.90005" lon="-1.78973">
        <ele>486.525</ele>
        <time>2020-05-16T17:26:59Z</time>
      </trkpt>
      <trkpt lat="42.90002" lon="-1.78967">
        <ele>486.585</ele>
        <time>2020-05-16T17:27:19Z</time>
      </trkpt>
      <trkpt lat="42.9" lon="-1.78961">
        <ele>487.172</ele>
        <time>2020-05-16T17:27:39Z</time>
      </trkpt>
      <trkpt lat="42.8999" lon="-1.78934">
        <ele>487.314</ele>
        <time>2020-05-16T17:27:59Z</time>
      </trkpt>
      <trkpt lat="42.89983" lon="-1.78916">
        <ele>487.643</ele>
        <time>2020-05-16T17:28:19Z</time>
      </trkpt>
      <trkpt lat="42.89977" lon="-1.78897">
        <ele>488.064</ele>
        <time>2020-05-16T17:28:39Z</time>
      </trkpt>
      <trkpt lat="42.89971" lon="-1.78877">
        <ele>488.31</ele>
        <time>2020-05-16T17:28:59Z</time>
      </trkpt>
      <trkpt lat="42.89965" lon="-1.78856">
        <ele>488.608</ele>
        <time>2020-05-16T17:29:19Z</time>
      </trkpt>
      <trkpt lat="42.89949" lon="-1.78799">
        <ele>489.678</ele>
        <time>2020-05-16T17:29:39Z</time>
      </trkpt>
      <trkpt lat="42.89938" lon="-1.78759">
        <ele>490.253</ele>
        <time>2020-05-16T17:29:59Z</time>
      </trkpt>
      <trkpt lat="42.89933" lon="-1.7874">
        <ele>490.857</ele>
        <time>2020-05-16T17:30:19Z</time>
      </trkpt>
      <trkpt lat="42.89927" lon="-1.78722">
        <ele>491.025</ele>
        <time>2020-05-16T17:30:39Z</time>
      </trkpt>
      <trkpt lat="42.8992" lon="-1.78698">
        <ele>490.11</ele>
        <time>2020-05-16T17:30:59Z</time>
      </trkpt>
      <trkpt lat="42.89913" lon="-1.78674">
        <ele>491.71</ele>
        <time>2020-05-16T17:31:19Z</time>
      </trkpt>
      <trkpt lat="42.8991" lon="-1.78666">
        <ele>491.987</ele>
        <time>2020-05-16T17:31:39Z</time>
      </trkpt>
      <trkpt lat="42.89907" lon="-1.78657">
        <ele>492.049</ele>
        <time>2020-05-16T17:31:59Z</time>
      </trkpt>
      <trkpt lat="42.89903" lon="-1.78645">
        <ele>491.648</ele>
        <time>2020-05-16T17:32:19Z</time>
      </trkpt>
      <trkpt lat="42.89898" lon="-1.78633">
        <ele>492.661</ele>
        <time>2020-05-16T17:32:39Z</time>
      </trkpt>
      <trkpt lat="42.89891" lon="-1.78618">
        <ele>492.917</ele>
        <time>2020-05-16T17:32:59Z</time>
      </trkpt>
      <trkpt lat="42.89882" lon="-1.78599">
        <ele>493.808</ele>
        <time>2020-05-16T17:33:19Z</time>
      </trkpt>
      <trkpt lat="42.89879" lon="-1.78594">
        <ele>493.638</ele>
        <time>2020-05-16T17:33:39Z</time>
      </trkpt>
      <trkpt lat="42.89875" lon="-1.78587">
        <ele>493.753</ele>
        <time>2020-05-16T17:33:59Z</time>
      </trkpt>
      <trkpt lat="42.89874" lon="-1.78585">
        <ele>493.837</ele>
        <time>2020-05-16T17:34:19Z</time>
      </trkpt>
      <trkpt lat="42.89804" lon="-1.78487">
        <ele>495.925</ele>
        <time>2020-05-16T17:34:39Z</time>
      </trkpt>
      <trkpt lat="42.89775" lon="-1.78446">
        <ele>496.78</ele>
        <time>2020-05-16T17:34:59Z</time>
      </trkpt>
      <trkpt lat="42.89678" lon="-1.7831">
        <ele>500.55</ele>
        <time>2020-05-16T17:35:19Z</time>
      </trkpt>
      <trkpt lat="42.89665" lon="-1.78291">
        <ele>500.657</ele>
        <time>2020-05-16T17:35:39Z</time>
      </trkpt>
      <trkpt lat="42.89651" lon="-1.78271">
        <ele>501.159</ele>
        <time>2020-05-16T17:35:59Z</time>
      </trkpt>
      <trkpt lat="42.8965" lon="-1.78269">
        <ele>501.064</ele>
        <time>2020-05-16T17:36:19Z</time>
      </trkpt>
      <trkpt lat="42.89636" lon="-1.78251">
        <ele>501.306</ele>
        <time>2020-05-16T17:36:39Z</time>
      </trkpt>
      <trkpt lat="42.89624" lon="-1.78233">
        <ele>501.716</ele>
        <time>2020-05-16T17:36:59Z</time>
      </trkpt>
      <trkpt lat="42.89612" lon="-1.78217">
        <ele>501.908</ele>
        <time>2020-05-16T17:37:19Z</time>
      </trkpt>
      <trkpt lat="42.89601" lon="-1.78201">
        <ele>502.39</ele>
        <time>2020-05-16T17:37:39Z</time>
      </trkpt>
      <trkpt lat="42.89595" lon="-1.78192">
        <ele>502.695</ele>
        <time>2020-05-16T17:37:59Z</time>
      </trkpt>
      <trkpt lat="42.89588" lon="-1.78183">
        <ele>502.849</ele>
        <time>2020-05-16T17:38:19Z</time>
      </trkpt>
      <trkpt lat="42.89565" lon="-1.78151">
        <ele>504.227</ele>
        <time>2020-05-16T17:38:39Z</time>
      </trkpt>
      <trkpt lat="42.89563" lon="-1.78146">
        <ele>504.232</ele>
        <time>2020-05-16T17:38:59Z</time>
      </trkpt>
      <trkpt lat="42.8956" lon="-1.78141">
        <ele>504.632</ele>
        <time>2020-05-16T17:39:19Z</time>
      </trkpt>
      <trkpt lat="42.89554" lon="-1.7813">
        <ele>505.339</ele>
        <time>2020-05-16T17:39:39Z</time>
      </trkpt>
      <trkpt lat="42.89543" lon="-1.78122">
        <ele>505.711</ele>
        <time>2020-05-16T17:39:59Z</time>
      </trkpt>
      <trkpt lat="42.89539" lon="-1.78118">
        <ele>505.753</ele>
        <time>2020-05-16T17:40:19Z</time>
      </trkpt>
      <trkpt lat="42.89486" lon="-1.78062">
        <ele>505.904</ele>
        <time>2020-05-16T17:40:39Z</time>
      </trkpt>
      <trkpt lat="42.89433" lon="-1.78007">
        <ele>507.314</ele>
        <time>2020-05-16T17:40:59Z</time>
      </trkpt>
      <trkpt lat="42.89393" lon="-1.77966">
        <ele>508.308</ele>
        <time>2020-05-16T17:41:19Z</time>
      </trkpt>
      <trkpt lat="42.89353" lon="-1.77925">
        <ele>509.579</ele>
        <time>2020-05-16T17:41:39Z</time>
      </trkpt>
      <trkpt lat="42.89312" lon="-1.77879">
        <ele>510.884</ele>
        <time>2020-05-16T17:41:59Z</time>
      </trkpt>
      <trkpt lat="42.89305" lon="-1.77871">
        <ele>510.988</ele>
        <time>2020-05-16T17:42:19Z</time>
      </trkpt>
      <trkpt lat="42.89298" lon="-1.77858">
        <ele>511.336</ele>
        <time>2020-05-16T17:42:39Z</time>
      </trkpt>
      <trkpt lat="42.89283" lon="-1.77827">
        <ele>512.511</ele>
        <time>2020-05-16T17:42:59Z</time>
      </trkpt>
      <trkpt lat="42.89275" lon="-1.77812">
        <ele>513.851</ele>
        <time>2020-05-16T17:43:19Z</time>
      </trkpt>
      <trkpt lat="42.89267" lon="-1.77797">
        <ele>514.568</ele>
        <time>2020-05-16T17:43:39Z</time>
      </trkpt>
      <trkpt lat="42.89262" lon="-1.7779">
        <ele>515.31</ele>
        <time>2020-05-16T17:43:59Z</time>
      </trkpt>
      <trkpt lat="42.89257" lon="-1.77783">
        <ele>515.969</ele>
        <time>2020-05-16T17:44:19Z</time>
      </trkpt>
      <trkpt lat="42.89246" lon="-1.77772">
        <ele>516.504</ele>
        <time>2020-05-16T17:44:39Z</time>
      </trkpt>
      <trkpt lat="42.89236" lon="-1.77761">
        <ele>517.324</ele>
        <time>2020-05-16T17:44:59Z</time>
      </trkpt>
      <trkpt lat="42.89227" lon="-1.7775">
        <ele>517.508</ele>
        <time>2020-05-16T17:45:19Z</time>
      </trkpt>
      <trkpt lat="42.89213" lon="-1.77727">
        <ele>517.85</ele>
        <time>2020-05-16T17:45:39Z</time>
      </trkpt>
      <trkpt lat="42.89177" lon="-1.77664">
        <ele>519.955</ele>
        <time>2020-05-16T17:45:59Z</time>
      </trkpt>
      <trkpt lat="42.89167" lon="-1.77648">
        <ele>520.169</ele>
        <time>2020-05-16T17:46:19Z</time>
      </trkpt>
      <trkpt lat="42.89166" lon="-1.77647">
        <ele>519.977</ele>
        <time>2020-05-16T17:46:39Z</time>
      </trkpt>
      <trkpt lat="42.89164" lon="-1.77645">
        <ele>519.942</ele>
        <time>2020-05-16T17:46:59Z</time>
      </trkpt>
      <trkpt lat="42.89163" lon="-1.77644">
        <ele>520.052</ele>
        <time>2020-05-16T17:47:19Z</time>
      </trkpt>
      <trkpt lat="42.89158" lon="-1.77643">
        <ele>519.939</ele>
        <time>2020-05-16T17:47:39Z</time>
      </trkpt>
      <trkpt lat="42.89154" lon="-1.77641">
        <ele>519.651</ele>
        <time>2020-05-16T17:47:59Z</time>
      </trkpt>
      <trkpt lat="42.89153" lon="-1.7764">
        <ele>519.671</ele>
        <time>2020-05-16T17:48:19Z</time>
      </trkpt>
      <trkpt lat="42.89151" lon="-1.77639">
        <ele>520.041</ele>
        <time>2020-05-16T17:48:39Z</time>
      </trkpt>
      <trkpt lat="42.8915" lon="-1.77636">
        <ele>520.015</ele>
        <time>2020-05-16T17:48:59Z</time>
      </trkpt>
      <trkpt lat="42.89147" lon="-1.77626">
        <ele>520.308</ele>
        <time>2020-05-16T17:49:19Z</time>
      </trkpt>
      <trkpt lat="42.89137" lon="-1.77606">
        <ele>520.941</ele>
        <time>2020-05-16T17:49:39Z</time>
      </trkpt>
      <trkpt lat="42.89128" lon="-1.77585">
        <ele>522.046</ele>
        <time>2020-05-16T17:49:59Z</time>
      </trkpt>
      <trkpt lat="42.89125" lon="-1.77578">
        <ele>522.25</ele>
        <time>2020-05-16T17:50:19Z</time>
      </trkpt>
      <trkpt lat="42.89123" lon="-1.77571">
        <ele>522.868</ele>
        <time>2020-05-16T17:50:39Z</time>
      </trkpt>
      <trkpt lat="42.89121" lon="-1.77563">
        <ele>523.013</ele>
        <time>2020-05-16T17:50:59Z</time>
      </trkpt>
      <trkpt lat="42.89119" lon="-1.77555">
        <ele>523.443</ele>
        <time>2020-05-16T17:51:19Z</time>
      </trkpt>
      <trkpt lat="42.89116" lon="-1.77543">
        <ele>523.52</ele>
        <time>2020-05-16T17:51:39Z</time>
      </trkpt>
      <trkpt lat="42.89114" lon="-1.7753">
        <ele>524.542</ele>
        <time>2020-05-16T17:51:59Z</time>
      </trkpt>
      <trkpt lat="42.89112" lon="-1.77517">
        <ele>524.873</ele>
        <time>2020-05-16T17:52:19Z</time>
      </trkpt>
      <trkpt lat="42.8911" lon="-1.77505">
        <ele>525.485</ele>
        <time>2020-05-16T17:52:39Z</time>
      </trkpt>
      <trkpt lat="42.89107" lon="-1.77484">
        <ele>525.913</ele>
        <time>2020-05-16T17:52:59Z</time>
      </trkpt>
      <trkpt lat="42.89104" lon="-1.77469">
        <ele>527.008</ele>
        <time>2020-05-16T17:53:19Z</time>
      </trkpt>
      <trkpt lat="42.89098" lon="-1.77421">
        <ele>529.251</ele>
        <time>2020-05-16T17:53:39Z</time>
      </trkpt>
      <trkpt lat="42.89097" lon="-1.77414">
        <ele>530.986</ele>
        <time>2020-05-16T17:53:59Z</time>
      </trkpt>
      <trkpt lat="42.89095" lon="-1.77398">
        <ele>531.92</ele>
        <time>2020-05-16T17:54:19Z</time>
      </trkpt>
      <trkpt lat="42.89093" lon="-1.77378">
        <ele>534.298</ele>
        <time>2020-05-16T17:54:39Z</time>
      </trkpt>
      <trkpt lat="42.89092" lon="-1.77368">
        <ele>535.913</ele>
        <time>2020-05-16T17:54:59Z</time>
      </trkpt>
      <trkpt lat="42.8909" lon="-1.77362">
        <ele>536.143</ele>
        <time>2020-05-16T17:55:19Z</time>
      </trkpt>
      <trkpt lat="42.89083" lon="-1.77338">
        <ele>537.27</ele>
        <time>2020-05-16T17:55:39Z</time>
      </trkpt>
      <trkpt lat="42.89078" lon="-1.7732">
        <ele>537.892</ele>
        <time>2020-05-16T17:55:59Z</time>
      </trkpt>
      <trkpt lat="42.89067" lon="-1.77291">
        <ele>537.145</ele>
        <time>2020-05-16T17:56:19Z</time>
      </trkpt>
      <trkpt lat="42.89057" lon="-1.77262">
        <ele>536.347</ele>
        <time>2020-05-16T17:56:39Z</time>
      </trkpt>
      <trkpt lat="42.89049" lon="-1.77241">
        <ele>534.311</ele>
        <time>2020-05-16T17:56:59Z</time>
      </trkpt>
      <trkpt lat="42.8904" lon="-1.7722">
        <ele>532.708</ele>
        <time>2020-05-16T17:57:19Z</time>
      </trkpt>
      <trkpt lat="42.89036" lon="-1.77209">
        <ele>532.348</ele>
        <time>2020-05-16T17:57:39Z</time>
      </trkpt>
      <trkpt lat="42.89032" lon="-1.77198">
        <ele>532.183</ele>
        <time>2020-05-16T17:57:59Z</time>
      </trkpt>
      <trkpt lat="42.89025" lon="-1.7718">
        <ele>531.047</ele>
        <time>2020-05-16T17:58:19Z</time>
      </trkpt>
      <trkpt lat="42.88988" lon="-1.77105">
        <ele>526.885</ele>
        <time>2020-05-16T17:58:39Z</time>
      </trkpt>
      <trkpt lat="42.88978" lon="-1.77084">
        <ele>526.01</ele>
        <time>2020-05-16T17:58:59Z</time>
      </trkpt>
      <trkpt lat="42.88969" lon="-1.77068">
        <ele>525.66</ele>
        <time>2020-05-16T17:59:19Z</time>
      </trkpt>
      <trkpt lat="42.88961" lon="-1.77053">
        <ele>525.217</ele>
        <time>2020-05-16T17:59:39Z</time>
      </trkpt>
      <trkpt lat="42.88958" lon="-1.77048">
        <ele>525.129</ele>
        <time>2020-05-16T17:59:59Z</time>
      </trkpt>
      <trkpt lat="42.88955" lon="-1.77042">
        <ele>524.136</ele>
        <time>2020-05-16T18:00:19Z</time>
      </trkpt>
      <trkpt lat="42.88948" lon="-1.77031">
        <ele>522.817</ele>
        <time>2020-05-16T18:00:39Z</time>
      </trkpt>
      <trkpt lat="42.8894" lon="-1.77019">
        <ele>522.318</ele>
        <time>2020-05-16T18:00:59Z</time>
      </trkpt>
      <trkpt lat="42.88936" lon="-1.77009">
        <ele>521.108</ele>
        <time>2020-05-16T18:01:19Z</time>
      </trkpt>
      <trkpt lat="42.88932" lon="-1.76999">
        <ele>520.787</ele>
        <time>2020-05-16T18:01:39Z</time>
      </trkpt>
      <trkpt lat="42.88922" lon="-1.76977">
        <ele>520.182</ele>
        <time>2020-05-16T18:01:59Z</time>
      </trkpt>
      <trkpt lat="42.88919" lon="-1.76973">
        <ele>519.736</ele>
        <time>2020-05-16T18:02:19Z</time>
      </trkpt>
      <trkpt lat="42.88915" lon="-1.76969">
        <ele>519.684</ele>
        <time>2020-05-16T18:02:39Z</time>
      </trkpt>
      <trkpt lat="42.88908" lon="-1.7696">
        <ele>519.569</ele>
        <time>2020-05-16T18:02:59Z</time>
      </trkpt>
      <trkpt lat="42.88904" lon="-1.76951">
        <ele>519.669</ele>
        <time>2020-05-16T18:03:19Z</time>
      </trkpt>
      <trkpt lat="42.88901" lon="-1.76941">
        <ele>519.686</ele>
        <time>2020-05-16T18:03:39Z</time>
      </trkpt>
      <trkpt lat="42.889" lon="-1.76939">
        <ele>519.648</ele>
        <time>2020-05-16T18:03:59Z</time>
      </trkpt>
      <trkpt lat="42.88899" lon="-1.76936">
        <ele>519.678</ele>
        <time>2020-05-16T18:04:19Z</time>
      </trkpt>
      <trkpt lat="42.88894" lon="-1.76928">
        <ele>518.433</ele>
        <time>2020-05-16T18:04:39Z</time>
      </trkpt>
      <trkpt lat="42.88889" lon="-1.76919">
        <ele>517.826</ele>
        <time>2020-05-16T18:04:59Z</time>
      </trkpt>
      <trkpt lat="42.88878" lon="-1.76907">
        <ele>515.808</ele>
        <time>2020-05-16T18:05:19Z</time>
      </trkpt>
      <trkpt lat="42.88862" lon="-1.76891">
        <ele>514.011</ele>
        <time>2020-05-16T18:05:39Z</time>
      </trkpt>
      <trkpt lat="42.88859" lon="-1.76887">
        <ele>514.786</ele>
        <time>2020-05-16T18:05:59Z</time>
      </trkpt>
      <trkpt lat="42.88856" lon="-1.76883">
        <ele>513.49</ele>
        <time>2020-05-16T18:06:19Z</time>
      </trkpt>
      <trkpt lat="42.88854" lon="-1.7688">
        <ele>513.128</ele>
        <time>2020-05-16T18:06:39Z</time>
      </trkpt>
      <trkpt lat="42.88848" lon="-1.7687">
        <ele>512.823</ele>
        <time>2020-05-16T18:06:59Z</time>
      </trkpt>
      <trkpt lat="42.88841" lon="-1.7686">
        <ele>511.923</ele>
        <time>2020-05-16T18:07:19Z</time>
      </trkpt>
      <trkpt lat="42.88834" lon="-1.7685">
        <ele>511.68</ele>
        <time>2020-05-16T18:07:39Z</time>
      </trkpt>
      <trkpt lat="42.88826" lon="-1.7684">
        <ele>511.392</ele>
        <time>2020-05-16T18:07:59Z</time>
      </trkpt>
      <trkpt lat="42.88814" lon="-1.76829">
        <ele>509.341</ele>
        <time>2020-05-16T18:08:19Z</time>
      </trkpt>
      <trkpt lat="42.88808" lon="-1.76824">
        <ele>508.781</ele>
        <time>2020-05-16T18:08:39Z</time>
      </trkpt>
      <trkpt lat="42.88809" lon="-1.7682">
        <ele>508.709</ele>
        <time>2020-05-16T18:08:59Z</time>
      </trkpt>
      <trkpt lat="42.8881" lon="-1.76817">
        <ele>508.808</ele>
        <time>2020-05-16T18:09:19Z</time>
      </trkpt>
      <trkpt lat="42.8881" lon="-1.76815">
        <ele>508.868</ele>
        <time>2020-05-16T18:09:39Z</time>
      </trkpt>
      <trkpt lat="42.88809" lon="-1.76812">
        <ele>508.763</ele>
        <time>2020-05-16T18:09:59Z</time>
      </trkpt>
      <trkpt lat="42.88794" lon="-1.768">
        <ele>508.887</ele>
        <time>2020-05-16T18:10:19Z</time>
      </trkpt>
      <trkpt lat="42.88779" lon="-1.76788">
        <ele>511.775</ele>
        <time>2020-05-16T18:10:39Z</time>
      </trkpt>
      <trkpt lat="42.88747" lon="-1.76763">
        <ele>516.15</ele>
        <time>2020-05-16T18:10:59Z</time>
      </trkpt>
      <trkpt lat="42.88732" lon="-1.76751">
        <ele>518.78</ele>
        <time>2020-05-16T18:11:19Z</time>
      </trkpt>
      <trkpt lat="42.88725" lon="-1.76748">
        <ele>519.117</ele>
        <time>2020-05-16T18:11:39Z</time>
      </trkpt>
      <trkpt lat="42.88714" lon="-1.76742">
        <ele>519.839</ele>
        <time>2020-05-16T18:11:59Z</time>
      </trkpt>
      <trkpt lat="42.88702" lon="-1.7673">
        <ele>517.877</ele>
        <time>2020-05-16T18:12:19Z</time>
      </trkpt>
      <trkpt lat="42.88692" lon="-1.76721">
        <ele>518.061</ele>
        <time>2020-05-16T18:12:39Z</time>
      </trkpt>
      <trkpt lat="42.88671" lon="-1.76706">
        <ele>524.127</ele>
        <time>2020-05-16T18:12:59Z</time>
      </trkpt>
      <trkpt lat="42.88648" lon="-1.76688">
        <ele>524.408</ele>
        <time>2020-05-16T18:13:19Z</time>
      </trkpt>
      <trkpt lat="42.88641" lon="-1.76674">
        <ele>520.891</ele>
        <time>2020-05-16T18:13:39Z</time>
      </trkpt>
      <trkpt lat="42.88642" lon="-1.76667">
        <ele>520.166</ele>
        <time>2020-05-16T18:13:59Z</time>
      </trkpt>
      <trkpt lat="42.88641" lon="-1.76661">
        <ele>518.95</ele>
        <time>2020-05-16T18:14:19Z</time>
      </trkpt>
      <trkpt lat="42.88642" lon="-1.76656">
        <ele>519.028</ele>
        <time>2020-05-16T18:14:39Z</time>
      </trkpt>
      <trkpt lat="42.88645" lon="-1.76643">
        <ele>515.093</ele>
        <time>2020-05-16T18:14:59Z</time>
      </trkpt>
      <trkpt lat="42.88645" lon="-1.76633">
        <ele>513.173</ele>
        <time>2020-05-16T18:15:19Z</time>
      </trkpt>
      <trkpt lat="42.88645" lon="-1.76627">
        <ele>512.24</ele>
        <time>2020-05-16T18:15:39Z</time>
      </trkpt>
      <trkpt lat="42.88645" lon="-1.76619">
        <ele>510.412</ele>
        <time>2020-05-16T18:15:59Z</time>
      </trkpt>
      <trkpt lat="42.88645" lon="-1.76611">
        <ele>509.072</ele>
        <time>2020-05-16T18:16:19Z</time>
      </trkpt>
      <trkpt lat="42.88646" lon="-1.76607">
        <ele>508.513</ele>
        <time>2020-05-16T18:16:39Z</time>
      </trkpt>
      <trkpt lat="42.88644" lon="-1.76601">
        <ele>506.914</ele>
        <time>2020-05-16T18:16:59Z</time>
      </trkpt>
      <trkpt lat="42.88641" lon="-1.76597">
        <ele>505.108</ele>
        <time>2020-05-16T18:17:19Z</time>
      </trkpt>
      <trkpt lat="42.88639" lon="-1.76592">
        <ele>503.471</ele>
        <time>2020-05-16T18:17:39Z</time>
      </trkpt>
      <trkpt lat="42.88635" lon="-1.76588">
        <ele>500.486</ele>
        <time>2020-05-16T18:17:59Z</time>
      </trkpt>
      <trkpt lat="42.8863" lon="-1.76583">
        <ele>498.19</ele>
        <time>2020-05-16T18:18:19Z</time>
      </trkpt>
      <trkpt lat="42.88627" lon="-1.76579">
        <ele>496.538</ele>
        <time>2020-05-16T18:18:39Z</time>
      </trkpt>
      <trkpt lat="42.88627" lon="-1.76575">
        <ele>496.543</ele>
        <time>2020-05-16T18:18:59Z</time>
      </trkpt>
      <trkpt lat="42.88627" lon="-1.76571">
        <ele>496.373</ele>
        <time>2020-05-16T18:19:19Z</time>
      </trkpt>
      <trkpt lat="42.88626" lon="-1.76569">
        <ele>496.33</ele>
        <time>2020-05-16T18:19:39Z</time>
      </trkpt>
      <trkpt lat="42.88626" lon="-1.76567">
        <ele>496.322</ele>
        <time>2020-05-16T18:19:59Z</time>
      </trkpt>
      <trkpt lat="42.88624" lon="-1.76563">
        <ele>496.482</ele>
        <time>2020-05-16T18:20:19Z</time>
      </trkpt>
      <trkpt lat="42.88622" lon="-1.76559">
        <ele>496.243</ele>
        <time>2020-05-16T18:20:39Z</time>
      </trkpt>
      <trkpt lat="42.88622" lon="-1.76557">
        <ele>496.217</ele>
        <time>2020-05-16T18:20:59Z</time>
      </trkpt>
      <trkpt lat="42.8862" lon="-1.76557">
        <ele>496.208</ele>
        <time>2020-05-16T18:21:19Z</time>
      </trkpt>
      <trkpt lat="42.88616" lon="-1.76558">
        <ele>496.222</ele>
        <time>2020-05-16T18:21:39Z</time>
      </trkpt>
      <trkpt lat="42.88613" lon="-1.76559">
        <ele>496.357</ele>
        <time>2020-05-16T18:21:59Z</time>
      </trkpt>
      <trkpt lat="42.88611" lon="-1.76559">
        <ele>496.321</ele>
        <time>2020-05-16T18:22:19Z</time>
      </trkpt>
      <trkpt lat="42.88608" lon="-1.76561">
        <ele>496.849</ele>
        <time>2020-05-16T18:22:39Z</time>
      </trkpt>
      <trkpt lat="42.88606" lon="-1.76563">
        <ele>496.844</ele>
        <time>2020-05-16T18:22:59Z</time>
      </trkpt>
      <trkpt lat="42.88604" lon="-1.76565">
        <ele>497.154</ele>
        <time>2020-05-16T18:23:19Z</time>
      </trkpt>
      <trkpt lat="42.88594" lon="-1.76581">
        <ele>498.711</ele>
        <time>2020-05-16T18:23:39Z</time>
      </trkpt>
      <trkpt lat="42.88584" lon="-1.76596">
        <ele>500.053</ele>
        <time>2020-05-16T18:23:59Z</time>
      </trkpt>
      <trkpt lat="42.88582" lon="-1.76598">
        <ele>500.312</ele>
        <time>2020-05-16T18:24:19Z</time>
      </trkpt>
      <trkpt lat="42.88581" lon="-1.76598">
        <ele>500.832</ele>
        <time>2020-05-16T18:24:39Z</time>
      </trkpt>
      <trkpt lat="42.88579" lon="-1.76599">
        <ele>500.805</ele>
        <time>2020-05-16T18:24:59Z</time>
      </trkpt>
      <trkpt lat="42.88578" lon="-1.76602">
        <ele>501.008</ele>
        <time>2020-05-16T18:25:19Z</time>
      </trkpt>
      <trkpt lat="42.88576" lon="-1.76605">
        <ele>501.585</ele>
        <time>2020-05-16T18:25:39Z</time>
      </trkpt>
      <trkpt lat="42.88564" lon="-1.76616">
        <ele>503.09</ele>
        <time>2020-05-16T18:25:59Z</time>
      </trkpt>
      <trkpt lat="42.8854" lon="-1.76636">
        <ele>506.194</ele>
        <time>2020-05-16T18:26:19Z</time>
      </trkpt>
      <trkpt lat="42.88532" lon="-1.7663">
        <ele>507.182</ele>
        <time>2020-05-16T18:26:39Z</time>
      </trkpt>
      <trkpt lat="42.88522" lon="-1.7662">
        <ele>516.417</ele>
        <time>2020-05-16T18:26:59Z</time>
      </trkpt>
      <trkpt lat="42.88511" lon="-1.76614">
        <ele>521.257</ele>
        <time>2020-05-16T18:27:19Z</time>
      </trkpt>
      <trkpt lat="42.88506" lon="-1.76612">
        <ele>524.574</ele>
        <time>2020-05-16T18:27:39Z</time>
      </trkpt>
      <trkpt lat="42.88495" lon="-1.76604">
        <ele>530.636</ele>
        <time>2020-05-16T18:27:59Z</time>
      </trkpt>
      <trkpt lat="42.88485" lon="-1.76596">
        <ele>534.328</ele>
        <time>2020-05-16T18:28:19Z</time>
      </trkpt>
      <trkpt lat="42.88475" lon="-1.76591">
        <ele>538.489</ele>
        <time>2020-05-16T18:28:39Z</time>
      </trkpt>
      <trkpt lat="42.88465" lon="-1.76586">
        <ele>540.017</ele>
        <time>2020-05-16T18:28:59Z</time>
      </trkpt>
      <trkpt lat="42.88451" lon="-1.76578">
        <ele>538.008</ele>
        <time>2020-05-16T18:29:19Z</time>
      </trkpt>
      <trkpt lat="42.88431" lon="-1.76566">
        <ele>535.146</ele>
        <time>2020-05-16T18:29:39Z</time>
      </trkpt>
      <trkpt lat="42.88422" lon="-1.76562">
        <ele>531.521</ele>
        <time>2020-05-16T18:29:59Z</time>
      </trkpt>
      <trkpt lat="42.88408" lon="-1.76554">
        <ele>528.875</ele>
        <time>2020-05-16T18:30:19Z</time>
      </trkpt>
      <trkpt lat="42.88397" lon="-1.76549">
        <ele>525.753</ele>
        <time>2020-05-16T18:30:39Z</time>
      </trkpt>
      <trkpt lat="42.88388" lon="-1.76544">
        <ele>524.538</ele>
        <time>2020-05-16T18:30:59Z</time>
      </trkpt>
      <trkpt lat="42.8838" lon="-1.76539">
        <ele>523.438</ele>
        <time>2020-05-16T18:31:19Z</time>
      </trkpt>
      <trkpt lat="42.88375" lon="-1.76536">
        <ele>523.025</ele>
        <time>2020-05-16T18:31:39Z</time>
      </trkpt>
      <trkpt lat="42.8835" lon="-1.76525">
        <ele>512.917</ele>
        <time>2020-05-16T18:31:59Z</time>
      </trkpt>
      <trkpt lat="42.8834" lon="-1.76519">
        <ele>511.682</ele>
        <time>2020-05-16T18:32:19Z</time>
      </trkpt>
      <trkpt lat="42.88327" lon="-1.76508">
        <ele>510.543</ele>
        <time>2020-05-16T18:32:39Z</time>
      </trkpt>
      <trkpt lat="42.88315" lon="-1.76497">
        <ele>509.317</ele>
        <time>2020-05-16T18:32:59Z</time>
      </trkpt>
      <trkpt lat="42.88309" lon="-1.76493">
        <ele>508.408</ele>
        <time>2020-05-16T18:33:19Z</time>
      </trkpt>
      <trkpt lat="42.88298" lon="-1.7648">
        <ele>509.472</ele>
        <time>2020-05-16T18:33:39Z</time>
      </trkpt>
      <trkpt lat="42.88294" lon="-1.76465">
        <ele>511.427</ele>
        <time>2020-05-16T18:33:59Z</time>
      </trkpt>
      <trkpt lat="42.8829" lon="-1.76452">
        <ele>511.391</ele>
        <time>2020-05-16T18:34:19Z</time>
      </trkpt>
      <trkpt lat="42.88289" lon="-1.76448">
        <ele>511.349</ele>
        <time>2020-05-16T18:34:39Z</time>
      </trkpt>
      <trkpt lat="42.88287" lon="-1.76447">
        <ele>511.164</ele>
        <time>2020-05-16T18:34:59Z</time>
      </trkpt>
      <trkpt lat="42.88284" lon="-1.76445">
        <ele>511.174</ele>
        <time>2020-05-16T18:35:19Z</time>
      </trkpt>
      <trkpt lat="42.88283" lon="-1.76442">
        <ele>510.591</ele>
        <time>2020-05-16T18:35:39Z</time>
      </trkpt>
      <trkpt lat="42.8828" lon="-1.76439">
        <ele>510.533</ele>
        <time>2020-05-16T18:35:59Z</time>
      </trkpt>
      <trkpt lat="42.88278" lon="-1.76437">
        <ele>509.952</ele>
        <time>2020-05-16T18:36:19Z</time>
      </trkpt>
      <trkpt lat="42.88275" lon="-1.76433">
        <ele>509.953</ele>
        <time>2020-05-16T18:36:39Z</time>
      </trkpt>
      <trkpt lat="42.88273" lon="-1.76432">
        <ele>509.308</ele>
        <time>2020-05-16T18:36:59Z</time>
      </trkpt>
      <trkpt lat="42.8827" lon="-1.7643">
        <ele>508.908</ele>
        <time>2020-05-16T18:37:19Z</time>
      </trkpt>
      <trkpt lat="42.88262" lon="-1.76423">
        <ele>508.789</ele>
        <time>2020-05-16T18:37:39Z</time>
      </trkpt>
      <trkpt lat="42.88255" lon="-1.76418">
        <ele>508.794</ele>
        <time>2020-05-16T18:37:59Z</time>
      </trkpt>
      <trkpt lat="42.88244" lon="-1.76404">
        <ele>507.868</ele>
        <time>2020-05-16T18:38:19Z</time>
      </trkpt>
      <trkpt lat="42.88237" lon="-1.76391">
        <ele>507.636</ele>
        <time>2020-05-16T18:38:39Z</time>
      </trkpt>
      <trkpt lat="42.88227" lon="-1.76371">
        <ele>508.131</ele>
        <time>2020-05-16T18:38:59Z</time>
      </trkpt>
      <trkpt lat="42.88221" lon="-1.76356">
        <ele>508.921</ele>
        <time>2020-05-16T18:39:19Z</time>
      </trkpt>
      <trkpt lat="42.88217" lon="-1.76339">
        <ele>509.718</ele>
        <time>2020-05-16T18:39:39Z</time>
      </trkpt>
      <trkpt lat="42.88215" lon="-1.76312">
        <ele>511.66</ele>
        <time>2020-05-16T18:39:59Z</time>
      </trkpt>
      <trkpt lat="42.88214" lon="-1.76298">
        <ele>513.414</ele>
        <time>2020-05-16T18:40:19Z</time>
      </trkpt>
      <trkpt lat="42.88212" lon="-1.76288">
        <ele>514.054</ele>
        <time>2020-05-16T18:40:39Z</time>
      </trkpt>
      <trkpt lat="42.88211" lon="-1.76288">
        <ele>514.009</ele>
        <time>2020-05-16T18:40:59Z</time>
      </trkpt>
      <trkpt lat="42.88203" lon="-1.76276">
        <ele>514.408</ele>
        <time>2020-05-16T18:41:19Z</time>
      </trkpt>
      <trkpt lat="42.88197" lon="-1.76264">
        <ele>513.825</ele>
        <time>2020-05-16T18:41:39Z</time>
      </trkpt>
      <trkpt lat="42.88192" lon="-1.76251">
        <ele>512.21</ele>
        <time>2020-05-16T18:41:59Z</time>
      </trkpt>
      <trkpt lat="42.88183" lon="-1.76212">
        <ele>512.544</ele>
        <time>2020-05-16T18:42:19Z</time>
      </trkpt>
      <trkpt lat="42.88176" lon="-1.76174">
        <ele>510.032</ele>
        <time>2020-05-16T18:42:39Z</time>
      </trkpt>
      <trkpt lat="42.88168" lon="-1.76127">
        <ele>509.047</ele>
        <time>2020-05-16T18:42:59Z</time>
      </trkpt>
      <trkpt lat="42.88162" lon="-1.76096">
        <ele>509.727</ele>
        <time>2020-05-16T18:43:19Z</time>
      </trkpt>
      <trkpt lat="42.88159" lon="-1.76074">
        <ele>510.124</ele>
        <time>2020-05-16T18:43:39Z</time>
      </trkpt>
      <trkpt lat="42.88156" lon="-1.76053">
        <ele>510.366</ele>
        <time>2020-05-16T18:43:59Z</time>
      </trkpt>
      <trkpt lat="42.88151" lon="-1.76023">
        <ele>510.371</ele>
        <time>2020-05-16T18:44:19Z</time>
      </trkpt>
      <trkpt lat="42.88146" lon="-1.75994">
        <ele>510.341</ele>
        <time>2020-05-16T18:44:39Z</time>
      </trkpt>
      <trkpt lat="42.88143" lon="-1.75961">
        <ele>510.315</ele>
        <time>2020-05-16T18:44:59Z</time>
      </trkpt>
      <trkpt lat="42.88134" lon="-1.75904">
        <ele>510.408</ele>
        <time>2020-05-16T18:45:19Z</time>
      </trkpt>
      <trkpt lat="42.88129" lon="-1.75875">
        <ele>511.271</ele>
        <time>2020-05-16T18:45:39Z</time>
      </trkpt>
      <trkpt lat="42.88125" lon="-1.75846">
        <ele>511.776</ele>
        <time>2020-05-16T18:45:59Z</time>
      </trkpt>
      <trkpt lat="42.88121" lon="-1.75825">
        <ele>512.11</ele>
        <time>2020-05-16T18:46:19Z</time>
      </trkpt>
      <trkpt lat="42.88118" lon="-1.75804">
        <ele>512.788</ele>
        <time>2020-05-16T18:46:39Z</time>
      </trkpt>
      <trkpt lat="42.88115" lon="-1.75778">
        <ele>515.443</ele>
        <time>2020-05-16T18:46:59Z</time>
      </trkpt>
      <trkpt lat="42.88113" lon="-1.75752">
        <ele>513.393</ele>
        <time>2020-05-16T18:47:19Z</time>
      </trkpt>
      <trkpt lat="42.88107" lon="-1.75712">
        <ele>514.82</ele>
        <time>2020-05-16T18:47:39Z</time>
      </trkpt>
      <trkpt lat="42.88104" lon="-1.75688">
        <ele>514.652</ele>
        <time>2020-05-16T18:47:59Z</time>
      </trkpt>
      <trkpt lat="42.881" lon="-1.75673">
        <ele>514.166</ele>
        <time>2020-05-16T18:48:19Z</time>
      </trkpt>
      <trkpt lat="42.88095" lon="-1.75659">
        <ele>513.829</ele>
        <time>2020-05-16T18:48:39Z</time>
      </trkpt>
      <trkpt lat="42.88092" lon="-1.75647">
        <ele>514.321</ele>
        <time>2020-05-16T18:48:59Z</time>
      </trkpt>
      <trkpt lat="42.88088" lon="-1.75636">
        <ele>514.208</ele>
        <time>2020-05-16T18:49:19Z</time>
      </trkpt>
      <trkpt lat="42.88082" lon="-1.75624">
        <ele>514.35</ele>
        <time>2020-05-16T18:49:39Z</time>
      </trkpt>
      <trkpt lat="42.88075" lon="-1.75612">
        <ele>514.235</ele>
        <time>2020-05-16T18:49:59Z</time>
      </trkpt>
      <trkpt lat="42.88064" lon="-1.75593">
        <ele>514.449</ele>
        <time>2020-05-16T18:50:19Z</time>
      </trkpt>
      <trkpt lat="42.88053" lon="-1.75574">
        <ele>514.617</ele>
        <time>2020-05-16T18:50:39Z</time>
      </trkpt>
      <trkpt lat="42.88045" lon="-1.75565">
        <ele>514.732</ele>
        <time>2020-05-16T18:50:59Z</time>
      </trkpt>
      <trkpt lat="42.88036" lon="-1.75556">
        <ele>514.752</ele>
        <time>2020-05-16T18:51:19Z</time>
      </trkpt>
      <trkpt lat="42.88028" lon="-1.75546">
        <ele>514.799</ele>
        <time>2020-05-16T18:51:39Z</time>
      </trkpt>
      <trkpt lat="42.8802" lon="-1.75536">
        <ele>514.721</ele>
        <time>2020-05-16T18:51:59Z</time>
      </trkpt>
      <trkpt lat="42.88009" lon="-1.75519">
        <ele>514.697</ele>
        <time>2020-05-16T18:52:19Z</time>
      </trkpt>
      <trkpt lat="42.87985" lon="-1.75485">
        <ele>514.323</ele>
        <time>2020-05-16T18:52:39Z</time>
      </trkpt>
      <trkpt lat="42.87963" lon="-1.75455">
        <ele>514.325</ele>
        <time>2020-05-16T18:52:59Z</time>
      </trkpt>
      <trkpt lat="42.87931" lon="-1.75412">
        <ele>514.208</ele>
        <time>2020-05-16T18:53:19Z</time>
      </trkpt>
      <trkpt lat="42.87907" lon="-1.75378">
        <ele>514.793</ele>
        <time>2020-05-16T18:53:39Z</time>
      </trkpt>
      <trkpt lat="42.87896" lon="-1.75363">
        <ele>514.838</ele>
        <time>2020-05-16T18:53:59Z</time>
      </trkpt>
      <trkpt lat="42.87885" lon="-1.75349">
        <ele>515.242</ele>
        <time>2020-05-16T18:54:19Z</time>
      </trkpt>
      <trkpt lat="42.87826" lon="-1.75268">
        <ele>516.33</ele>
        <time>2020-05-16T18:54:39Z</time>
      </trkpt>
      <trkpt lat="42.87792" lon="-1.75219">
        <ele>517.065</ele>
        <time>2020-05-16T18:54:59Z</time>
      </trkpt>
      <trkpt lat="42.87776" lon="-1.75188">
        <ele>516.725</ele>
        <time>2020-05-16T18:55:19Z</time>
      </trkpt>
      <trkpt lat="42.8775" lon="-1.7512">
        <ele>516.422</ele>
        <time>2020-05-16T18:55:39Z</time>
      </trkpt>
      <trkpt lat="42.87709" lon="-1.74998">
        <ele>518.034</ele>
        <time>2020-05-16T18:55:59Z</time>
      </trkpt>
      <trkpt lat="42.877" lon="-1.74976">
        <ele>518.242</ele>
        <time>2020-05-16T18:56:19Z</time>
      </trkpt>
      <trkpt lat="42.87696" lon="-1.74962">
        <ele>520.222</ele>
        <time>2020-05-16T18:56:39Z</time>
      </trkpt>
      <trkpt lat="42.87695" lon="-1.74958">
        <ele>518.414</ele>
        <time>2020-05-16T18:56:59Z</time>
      </trkpt>
      <trkpt lat="42.87695" lon="-1.74954">
        <ele>519.108</ele>
        <time>2020-05-16T18:57:19Z</time>
      </trkpt>
      <trkpt lat="42.87695" lon="-1.74954">
        <ele>519.148</ele>
        <time>2020-05-16T18:57:39Z</time>
      </trkpt>
      <trkpt lat="42.87584" lon="-1.74623">
        <ele>521.243</ele>
        <time>2020-05-16T18:57:59Z</time>
      </trkpt>
      <trkpt lat="42.87569" lon="-1.7458">
        <ele>518.497</ele>
        <time>2020-05-16T18:58:19Z</time>
      </trkpt>
      <trkpt lat="42.87555" lon="-1.74552">
        <ele>516.625</ele>
        <time>2020-05-16T18:58:39Z</time>
      </trkpt>
      <trkpt lat="42.87529" lon="-1.74481">
        <ele>514.73</ele>
        <time>2020-05-16T18:58:59Z</time>
      </trkpt>
      <trkpt lat="42.87503" lon="-1.74402">
        <ele>514.02</ele>
        <time>2020-05-16T18:59:19Z</time>
      </trkpt>
      <trkpt lat="42.87487" lon="-1.74357">
        <ele>513.277</ele>
        <time>2020-05-16T18:59:39Z</time>
      </trkpt>
      <trkpt lat="42.8748" lon="-1.74338">
        <ele>512.359</ele>
        <time>2020-05-16T18:59:59Z</time>
      </trkpt>
      <trkpt lat="42.87477" lon="-1.74327">
        <ele>511.394</ele>
        <time>2020-05-16T19:00:19Z</time>
      </trkpt>
      <trkpt lat="42.87476" lon="-1.74323">
        <ele>510.857</ele>
        <time>2020-05-16T19:00:39Z</time>
      </trkpt>
      <trkpt lat="42.87473" lon="-1.74317">
        <ele>511.022</ele>
        <time>2020-05-16T19:00:59Z</time>
      </trkpt>
      <trkpt lat="42.87469" lon="-1.74306">
        <ele>510.408</ele>
        <time>2020-05-16T19:01:19Z</time>
      </trkpt>
    </trkseg>
  </trk>
</gpx>